<?xml version='1.0' encoding='UTF-8'?><gpx version="1.1" creator="JPX - https://github.com/jenetics/jpx" xmlns="http://www.topografix.com/GPX/1/1"><trk><trkseg><trkpt lat="45.5077096" lon="10.4633933"><ele>182.0</ele><time>2026-03-29T06:56:24.459Z</time></trkpt><trkpt lat="45.5078364" lon="10.4633772"><ele>182.0</ele><time>2026-03-29T06:56:26.459Z</time></trkpt><trkpt lat="45.5079129" lon="10.4633531"><ele>182.0</ele><time>2026-03-29T06:56:27.459Z</time></trkpt><trkpt lat="45.507984" lon="10.4633291"><ele>182.0</ele><time>2026-03-29T06:56:28.459Z</time></trkpt><trkpt lat="45.5080507" lon="10.4633232"><ele>182.0</ele><time>2026-03-29T06:56:29.459Z</time></trkpt><trkpt lat="45.5081528" lon="10.4633334"><ele>182.0</ele><time>2026-03-29T06:56:31.458Z</time></trkpt><trkpt lat="45.5082208" lon="10.4633563"><ele>183.0</ele><time>2026-03-29T06:56:34.458Z</time></trkpt><trkpt lat="45.5082681" lon="10.4634473"><ele>184.0</ele><time>2026-03-29T06:56:38.458Z</time></trkpt><trkpt lat="45.5083293" lon="10.4635086"><ele>185.0</ele><time>2026-03-29T06:56:40.459Z</time></trkpt><trkpt lat="45.508383" lon="10.4635629"><ele>186.0</ele><time>2026-03-29T06:56:44.459Z</time></trkpt><trkpt lat="45.5084944" lon="10.4636101"><ele>187.0</ele><time>2026-03-29T06:56:47.458Z</time></trkpt><trkpt lat="45.508565" lon="10.4635988"><ele>188.0</ele><time>2026-03-29T06:56:48.459Z</time></trkpt><trkpt lat="45.5086518" lon="10.4635751"><ele>188.0</ele><time>2026-03-29T06:56:49.459Z</time></trkpt><trkpt lat="45.50874" lon="10.4635578"><ele>188.0</ele><time>2026-03-29T06:56:50.459Z</time></trkpt><trkpt lat="45.5088259" lon="10.4635305"><ele>188.0</ele><time>2026-03-29T06:56:51.459Z</time></trkpt><trkpt lat="45.508912" lon="10.4635004"><ele>188.0</ele><time>2026-03-29T06:56:52.459Z</time></trkpt><trkpt lat="45.5089854" lon="10.4634772"><ele>188.0</ele><time>2026-03-29T06:56:53.458Z</time></trkpt><trkpt lat="45.5090671" lon="10.4634551"><ele>188.0</ele><time>2026-03-29T06:56:54.459Z</time></trkpt><trkpt lat="45.5091527" lon="10.4634206"><ele>188.0</ele><time>2026-03-29T06:56:55.459Z</time></trkpt><trkpt lat="45.5092473" lon="10.4633856"><ele>188.0</ele><time>2026-03-29T06:56:56.459Z</time></trkpt><trkpt lat="45.5093471" lon="10.4633526"><ele>188.0</ele><time>2026-03-29T06:56:57.459Z</time></trkpt><trkpt lat="45.5094543" lon="10.4633143"><ele>188.0</ele><time>2026-03-29T06:56:58.459Z</time></trkpt><trkpt lat="45.509562" lon="10.4632783"><ele>188.0</ele><time>2026-03-29T06:56:59.458Z</time></trkpt><trkpt lat="45.5096712" lon="10.4632413"><ele>188.0</ele><time>2026-03-29T06:57:00.459Z</time></trkpt><trkpt lat="45.5097872" lon="10.4631861"><ele>188.0</ele><time>2026-03-29T06:57:01.459Z</time></trkpt><trkpt lat="45.5099144" lon="10.4631246"><ele>188.0</ele><time>2026-03-29T06:57:02.459Z</time></trkpt><trkpt lat="45.5100496" lon="10.4630772"><ele>188.0</ele><time>2026-03-29T06:57:03.459Z</time></trkpt><trkpt lat="45.5101911" lon="10.463027"><ele>188.0</ele><time>2026-03-29T06:57:04.459Z</time></trkpt><trkpt lat="45.5103378" lon="10.4629802"><ele>188.0</ele><time>2026-03-29T06:57:05.458Z</time></trkpt><trkpt lat="45.5104865" lon="10.462932"><ele>188.0</ele><time>2026-03-29T06:57:06.459Z</time></trkpt><trkpt lat="45.5106352" lon="10.4628849"><ele>188.0</ele><time>2026-03-29T06:57:07.459Z</time></trkpt><trkpt lat="45.5107789" lon="10.4628489"><ele>188.0</ele><time>2026-03-29T06:57:08.459Z</time></trkpt><trkpt lat="45.5109276" lon="10.4628065"><ele>188.0</ele><time>2026-03-29T06:57:09.459Z</time></trkpt><trkpt lat="45.5110799" lon="10.4627604"><ele>188.0</ele><time>2026-03-29T06:57:10.459Z</time></trkpt><trkpt lat="45.511227" lon="10.4627129"><ele>188.0</ele><time>2026-03-29T06:57:11.458Z</time></trkpt><trkpt lat="45.5113713" lon="10.4626605"><ele>188.0</ele><time>2026-03-29T06:57:12.459Z</time></trkpt><trkpt lat="45.5115199" lon="10.4626106"><ele>188.33333333333331</ele><time>2026-03-29T06:57:13.459Z</time></trkpt><trkpt lat="45.5116708" lon="10.4625626"><ele>188.66666666666666</ele><time>2026-03-29T06:57:14.459Z</time></trkpt><trkpt lat="45.511821" lon="10.4625051"><ele>189.0</ele><time>2026-03-29T06:57:15.459Z</time></trkpt><trkpt lat="45.5119733" lon="10.462455"><ele>189.5</ele><time>2026-03-29T06:57:16.459Z</time></trkpt><trkpt lat="45.5121201" lon="10.4624129"><ele>190.0</ele><time>2026-03-29T06:57:17.459Z</time></trkpt><trkpt lat="45.5122654" lon="10.4623803"><ele>190.5</ele><time>2026-03-29T06:57:18.459Z</time></trkpt><trkpt lat="45.5124115" lon="10.4623691"><ele>191.0</ele><time>2026-03-29T06:57:19.459Z</time></trkpt><trkpt lat="45.5125603" lon="10.462356"><ele>191.0</ele><time>2026-03-29T06:57:20.459Z</time></trkpt><trkpt lat="45.5127051" lon="10.4623526"><ele>191.0</ele><time>2026-03-29T06:57:21.459Z</time></trkpt><trkpt lat="45.5128523" lon="10.4623461"><ele>191.0</ele><time>2026-03-29T06:57:22.459Z</time></trkpt><trkpt lat="45.5129942" lon="10.4623456"><ele>191.0</ele><time>2026-03-29T06:57:23.459Z</time></trkpt><trkpt lat="45.5131372" lon="10.462337"><ele>191.5</ele><time>2026-03-29T06:57:24.459Z</time></trkpt><trkpt lat="45.51328" lon="10.4623253"><ele>192.0</ele><time>2026-03-29T06:57:25.459Z</time></trkpt><trkpt lat="45.513418" lon="10.4623178"><ele>192.5</ele><time>2026-03-29T06:57:26.459Z</time></trkpt><trkpt lat="45.5135495" lon="10.4623115"><ele>193.0</ele><time>2026-03-29T06:57:27.459Z</time></trkpt><trkpt lat="45.5136779" lon="10.4623088"><ele>193.25</ele><time>2026-03-29T06:57:28.458Z</time></trkpt><trkpt lat="45.5138109" lon="10.4622984"><ele>193.5</ele><time>2026-03-29T06:57:29.459Z</time></trkpt><trkpt lat="45.513945" lon="10.4622908"><ele>193.75</ele><time>2026-03-29T06:57:30.459Z</time></trkpt><trkpt lat="45.5140735" lon="10.4622827"><ele>194.0</ele><time>2026-03-29T06:57:31.458Z</time></trkpt><trkpt lat="45.51418" lon="10.4622808"><ele>194.00000000000003</ele><time>2026-03-29T06:57:32.459Z</time></trkpt><trkpt lat="45.5142622" lon="10.4622826"><ele>194.0</ele><time>2026-03-29T06:57:33.459Z</time></trkpt><trkpt lat="45.5143561" lon="10.4623184"><ele>194.0</ele><time>2026-03-29T06:57:35.459Z</time></trkpt><trkpt lat="45.5143699" lon="10.4624289"><ele>194.0</ele><time>2026-03-29T06:57:37.459Z</time></trkpt><trkpt lat="45.5143359" lon="10.4625751"><ele>194.00000000000003</ele><time>2026-03-29T06:57:39.459Z</time></trkpt><trkpt lat="45.5143215" lon="10.4626857"><ele>194.0</ele><time>2026-03-29T06:58:37.459Z</time></trkpt><trkpt lat="45.5143235" lon="10.4628753"><ele>194.0</ele><time>2026-03-29T06:58:39.459Z</time></trkpt><trkpt lat="45.5143275" lon="10.4630036"><ele>194.0</ele><time>2026-03-29T06:58:40.459Z</time></trkpt><trkpt lat="45.5143266" lon="10.4631461"><ele>194.0</ele><time>2026-03-29T06:58:41.459Z</time></trkpt><trkpt lat="45.5143247" lon="10.463293"><ele>194.0</ele><time>2026-03-29T06:58:42.459Z</time></trkpt><trkpt lat="45.5143198" lon="10.4634273"><ele>194.0</ele><time>2026-03-29T06:58:43.459Z</time></trkpt><trkpt lat="45.5143108" lon="10.4635599"><ele>194.00000000000003</ele><time>2026-03-29T06:58:44.459Z</time></trkpt><trkpt lat="45.5143005" lon="10.4636838"><ele>194.0</ele><time>2026-03-29T06:58:45.459Z</time></trkpt><trkpt lat="45.5142898" lon="10.4638024"><ele>194.0</ele><time>2026-03-29T06:58:46.459Z</time></trkpt><trkpt lat="45.5142836" lon="10.463896"><ele>194.0</ele><time>2026-03-29T06:58:47.459Z</time></trkpt><trkpt lat="45.514278" lon="10.463997"><ele>194.00000000000003</ele><time>2026-03-29T06:58:48.459Z</time></trkpt><trkpt lat="45.514274" lon="10.4641055"><ele>194.0</ele><time>2026-03-29T06:58:49.459Z</time></trkpt><trkpt lat="45.514267" lon="10.464232"><ele>193.79999999999998</ele><time>2026-03-29T06:58:50.459Z</time></trkpt><trkpt lat="45.5142571" lon="10.4643402"><ele>193.6</ele><time>2026-03-29T06:58:51.459Z</time></trkpt><trkpt lat="45.5142494" lon="10.4644506"><ele>193.4</ele><time>2026-03-29T06:58:52.459Z</time></trkpt><trkpt lat="45.5142467" lon="10.4645872"><ele>193.2</ele><time>2026-03-29T06:58:53.459Z</time></trkpt><trkpt lat="45.5142374" lon="10.4647327"><ele>193.0</ele><time>2026-03-29T06:58:54.459Z</time></trkpt><trkpt lat="45.5142331" lon="10.464891"><ele>193.0</ele><time>2026-03-29T06:58:55.459Z</time></trkpt><trkpt lat="45.5142214" lon="10.4650504"><ele>193.0</ele><time>2026-03-29T06:58:56.459Z</time></trkpt><trkpt lat="45.5142136" lon="10.4652223"><ele>193.0</ele><time>2026-03-29T06:58:57.459Z</time></trkpt><trkpt lat="45.5142113" lon="10.4654003"><ele>193.0</ele><time>2026-03-29T06:58:58.459Z</time></trkpt><trkpt lat="45.5142092" lon="10.4655836"><ele>193.5</ele><time>2026-03-29T06:58:59.459Z</time></trkpt><trkpt lat="45.5142053" lon="10.4657767"><ele>194.0</ele><time>2026-03-29T06:59:00.459Z</time></trkpt><trkpt lat="45.5141987" lon="10.4659532"><ele>194.5</ele><time>2026-03-29T06:59:01.459Z</time></trkpt><trkpt lat="45.5141935" lon="10.466106"><ele>195.0</ele><time>2026-03-29T06:59:02.459Z</time></trkpt><trkpt lat="45.5141869" lon="10.4662557"><ele>195.2</ele><time>2026-03-29T06:59:03.459Z</time></trkpt><trkpt lat="45.5141819" lon="10.4664114"><ele>195.4</ele><time>2026-03-29T06:59:04.459Z</time></trkpt><trkpt lat="45.5141727" lon="10.4665773"><ele>195.60000000000002</ele><time>2026-03-29T06:59:05.459Z</time></trkpt><trkpt lat="45.5141671" lon="10.46673"><ele>195.8</ele><time>2026-03-29T06:59:06.459Z</time></trkpt><trkpt lat="45.514156" lon="10.4668774"><ele>196.0</ele><time>2026-03-29T06:59:07.459Z</time></trkpt><trkpt lat="45.514155" lon="10.4670217"><ele>196.60000000000002</ele><time>2026-03-29T06:59:08.459Z</time></trkpt><trkpt lat="45.5141517" lon="10.4671583"><ele>197.2</ele><time>2026-03-29T06:59:09.459Z</time></trkpt><trkpt lat="45.5141467" lon="10.4673067"><ele>197.8</ele><time>2026-03-29T06:59:10.459Z</time></trkpt><trkpt lat="45.5141433" lon="10.4674683"><ele>198.39999999999998</ele><time>2026-03-29T06:59:11.459Z</time></trkpt><trkpt lat="45.514135" lon="10.4676133"><ele>199.0</ele><time>2026-03-29T06:59:12.459Z</time></trkpt><trkpt lat="45.5141283" lon="10.4677617"><ele>199.0</ele><time>2026-03-29T06:59:13.459Z</time></trkpt><trkpt lat="45.5141267" lon="10.4679033"><ele>199.0</ele><time>2026-03-29T06:59:14.459Z</time></trkpt><trkpt lat="45.514125" lon="10.4680433"><ele>199.0</ele><time>2026-03-29T06:59:15.459Z</time></trkpt><trkpt lat="45.514115" lon="10.4681767"><ele>199.0</ele><time>2026-03-29T06:59:16.458Z</time></trkpt><trkpt lat="45.5141083" lon="10.4683017"><ele>199.0</ele><time>2026-03-29T06:59:17.459Z</time></trkpt><trkpt lat="45.5141017" lon="10.468425"><ele>199.16666666666666</ele><time>2026-03-29T06:59:18.459Z</time></trkpt><trkpt lat="45.5141017" lon="10.4685483"><ele>199.33333333333331</ele><time>2026-03-29T06:59:19.459Z</time></trkpt><trkpt lat="45.5140967" lon="10.4686667"><ele>199.5</ele><time>2026-03-29T06:59:20.459Z</time></trkpt><trkpt lat="45.514095" lon="10.4687767"><ele>199.66666666666669</ele><time>2026-03-29T06:59:21.459Z</time></trkpt><trkpt lat="45.51409" lon="10.4688767"><ele>199.83333333333334</ele><time>2026-03-29T06:59:22.459Z</time></trkpt><trkpt lat="45.5140867" lon="10.4690183"><ele>200.0</ele><time>2026-03-29T06:59:24.459Z</time></trkpt><trkpt lat="45.514085" lon="10.4691283"><ele>200.00000000000003</ele><time>2026-03-29T06:59:27.459Z</time></trkpt><trkpt lat="45.5141617" lon="10.4692217"><ele>200.0</ele><time>2026-03-29T06:59:30.459Z</time></trkpt><trkpt lat="45.5142283" lon="10.4692333"><ele>200.0</ele><time>2026-03-29T06:59:31.459Z</time></trkpt><trkpt lat="45.514315" lon="10.4692283"><ele>200.0</ele><time>2026-03-29T06:59:32.459Z</time></trkpt><trkpt lat="45.5144033" lon="10.4692383"><ele>200.00000000000003</ele><time>2026-03-29T06:59:33.459Z</time></trkpt><trkpt lat="45.5144833" lon="10.4692383"><ele>200.0</ele><time>2026-03-29T06:59:34.459Z</time></trkpt><trkpt lat="45.5145667" lon="10.469235"><ele>200.0</ele><time>2026-03-29T06:59:35.459Z</time></trkpt><trkpt lat="45.5146517" lon="10.469235"><ele>200.0</ele><time>2026-03-29T06:59:36.459Z</time></trkpt><trkpt lat="45.5147417" lon="10.4692217"><ele>200.0</ele><time>2026-03-29T06:59:37.459Z</time></trkpt><trkpt lat="45.5148367" lon="10.4692233"><ele>200.0</ele><time>2026-03-29T06:59:38.459Z</time></trkpt><trkpt lat="45.5149317" lon="10.46924"><ele>200.0</ele><time>2026-03-29T06:59:39.459Z</time></trkpt><trkpt lat="45.51503" lon="10.46925"><ele>200.00000000000003</ele><time>2026-03-29T06:59:40.459Z</time></trkpt><trkpt lat="45.5151183" lon="10.4692833"><ele>200.0</ele><time>2026-03-29T06:59:41.459Z</time></trkpt><trkpt lat="45.5151983" lon="10.4692933"><ele>200.0</ele><time>2026-03-29T06:59:42.458Z</time></trkpt><trkpt lat="45.5152783" lon="10.4692983"><ele>200.0</ele><time>2026-03-29T06:59:43.459Z</time></trkpt><trkpt lat="45.5153683" lon="10.4693017"><ele>200.00000000000003</ele><time>2026-03-29T06:59:44.458Z</time></trkpt><trkpt lat="45.51546" lon="10.469315"><ele>200.0</ele><time>2026-03-29T06:59:45.459Z</time></trkpt><trkpt lat="45.515545" lon="10.46932"><ele>200.4</ele><time>2026-03-29T06:59:46.459Z</time></trkpt><trkpt lat="45.5156367" lon="10.4693233"><ele>200.8</ele><time>2026-03-29T06:59:47.459Z</time></trkpt><trkpt lat="45.51573" lon="10.469335"><ele>201.2</ele><time>2026-03-29T06:59:48.459Z</time></trkpt><trkpt lat="45.51582" lon="10.469345"><ele>201.6</ele><time>2026-03-29T06:59:49.459Z</time></trkpt><trkpt lat="45.5159233" lon="10.4693683"><ele>202.0</ele><time>2026-03-29T06:59:50.459Z</time></trkpt><trkpt lat="45.5160317" lon="10.4693817"><ele>202.0</ele><time>2026-03-29T06:59:51.459Z</time></trkpt><trkpt lat="45.5161283" lon="10.4693917"><ele>202.0</ele><time>2026-03-29T06:59:52.459Z</time></trkpt><trkpt lat="45.5162167" lon="10.4694083"><ele>202.0</ele><time>2026-03-29T06:59:53.459Z</time></trkpt><trkpt lat="45.516325" lon="10.46942"><ele>202.0</ele><time>2026-03-29T06:59:54.459Z</time></trkpt><trkpt lat="45.5164517" lon="10.4694117"><ele>202.0</ele><time>2026-03-29T06:59:55.459Z</time></trkpt><trkpt lat="45.5165933" lon="10.4694017"><ele>202.75</ele><time>2026-03-29T06:59:56.459Z</time></trkpt><trkpt lat="45.5167367" lon="10.4694033"><ele>203.5</ele><time>2026-03-29T06:59:57.459Z</time></trkpt><trkpt lat="45.5168583" lon="10.4694117"><ele>204.25</ele><time>2026-03-29T06:59:58.459Z</time></trkpt><trkpt lat="45.5169617" lon="10.4694117"><ele>205.0</ele><time>2026-03-29T06:59:59.459Z</time></trkpt><trkpt lat="45.517055" lon="10.4694083"><ele>204.83333333333331</ele><time>2026-03-29T07:00:00.459Z</time></trkpt><trkpt lat="45.517135" lon="10.4694083"><ele>204.66666666666666</ele><time>2026-03-29T07:00:01.458Z</time></trkpt><trkpt lat="45.5172017" lon="10.469415"><ele>204.5</ele><time>2026-03-29T07:00:02.459Z</time></trkpt><trkpt lat="45.5172933" lon="10.4694267"><ele>204.33333333333331</ele><time>2026-03-29T07:00:04.459Z</time></trkpt><trkpt lat="45.51731" lon="10.46953"><ele>204.16666666666666</ele><time>2026-03-29T07:00:06.459Z</time></trkpt><trkpt lat="45.5172883" lon="10.4696283"><ele>204.0</ele><time>2026-03-29T07:00:07.459Z</time></trkpt><trkpt lat="45.5172517" lon="10.4697633"><ele>204.6</ele><time>2026-03-29T07:00:08.459Z</time></trkpt><trkpt lat="45.5172117" lon="10.4699283"><ele>205.2</ele><time>2026-03-29T07:00:09.458Z</time></trkpt><trkpt lat="45.5171767" lon="10.4700917"><ele>205.79999999999998</ele><time>2026-03-29T07:00:10.459Z</time></trkpt><trkpt lat="45.51714" lon="10.4702317"><ele>206.39999999999998</ele><time>2026-03-29T07:00:11.459Z</time></trkpt><trkpt lat="45.51711" lon="10.47037"><ele>207.0</ele><time>2026-03-29T07:00:12.459Z</time></trkpt><trkpt lat="45.51708" lon="10.4705083"><ele>207.25</ele><time>2026-03-29T07:00:13.459Z</time></trkpt><trkpt lat="45.5170433" lon="10.4706383"><ele>207.5</ele><time>2026-03-29T07:00:14.459Z</time></trkpt><trkpt lat="45.5169933" lon="10.4707767"><ele>207.75</ele><time>2026-03-29T07:00:15.459Z</time></trkpt><trkpt lat="45.5169133" lon="10.4709083"><ele>208.0</ele><time>2026-03-29T07:00:16.459Z</time></trkpt><trkpt lat="45.5168233" lon="10.4710467"><ele>208.0</ele><time>2026-03-29T07:00:17.459Z</time></trkpt><trkpt lat="45.5167317" lon="10.4711917"><ele>208.0</ele><time>2026-03-29T07:00:18.459Z</time></trkpt><trkpt lat="45.5166467" lon="10.4713267"><ele>208.0</ele><time>2026-03-29T07:00:19.458Z</time></trkpt><trkpt lat="45.5165717" lon="10.4714567"><ele>208.0</ele><time>2026-03-29T07:00:20.459Z</time></trkpt><trkpt lat="45.51651" lon="10.4716"><ele>208.75</ele><time>2026-03-29T07:00:21.459Z</time></trkpt><trkpt lat="45.51645" lon="10.47173"><ele>209.5</ele><time>2026-03-29T07:00:22.459Z</time></trkpt><trkpt lat="45.5164067" lon="10.471865"><ele>210.25</ele><time>2026-03-29T07:00:23.459Z</time></trkpt><trkpt lat="45.5163633" lon="10.4720217"><ele>211.0</ele><time>2026-03-29T07:00:24.459Z</time></trkpt><trkpt lat="45.5163333" lon="10.4722083"><ele>211.8</ele><time>2026-03-29T07:00:25.458Z</time></trkpt><trkpt lat="45.516315" lon="10.472395"><ele>212.60000000000002</ele><time>2026-03-29T07:00:26.458Z</time></trkpt><trkpt lat="45.5162983" lon="10.4725417"><ele>213.4</ele><time>2026-03-29T07:00:27.459Z</time></trkpt><trkpt lat="45.5162817" lon="10.47266"><ele>214.2</ele><time>2026-03-29T07:00:28.458Z</time></trkpt><trkpt lat="45.5162583" lon="10.4727533"><ele>215.0</ele><time>2026-03-29T07:00:29.459Z</time></trkpt><trkpt lat="45.5162283" lon="10.4729067"><ele>216.0</ele><time>2026-03-29T07:00:31.459Z</time></trkpt><trkpt lat="45.5162667" lon="10.473045"><ele>217.0</ele><time>2026-03-29T07:00:33.459Z</time></trkpt><trkpt lat="45.5163217" lon="10.473115"><ele>218.0</ele><time>2026-03-29T07:00:34.459Z</time></trkpt><trkpt lat="45.5163983" lon="10.4731867"><ele>219.0</ele><time>2026-03-29T07:00:35.459Z</time></trkpt><trkpt lat="45.5165067" lon="10.4732417"><ele>220.0</ele><time>2026-03-29T07:00:36.459Z</time></trkpt><trkpt lat="45.5166367" lon="10.4732817"><ele>220.0</ele><time>2026-03-29T07:00:37.458Z</time></trkpt><trkpt lat="45.5168233" lon="10.4733033"><ele>220.0</ele><time>2026-03-29T07:00:38.459Z</time></trkpt><trkpt lat="45.517005" lon="10.4733167"><ele>220.0</ele><time>2026-03-29T07:00:39.459Z</time></trkpt><trkpt lat="45.5171833" lon="10.473305"><ele>220.0</ele><time>2026-03-29T07:00:40.459Z</time></trkpt><trkpt lat="45.5173367" lon="10.4732783"><ele>220.0</ele><time>2026-03-29T07:00:41.458Z</time></trkpt><trkpt lat="45.517485" lon="10.473245"><ele>220.0</ele><time>2026-03-29T07:00:42.459Z</time></trkpt><trkpt lat="45.51764" lon="10.47321"><ele>220.0</ele><time>2026-03-29T07:00:43.458Z</time></trkpt><trkpt lat="45.5177867" lon="10.4731633"><ele>220.0</ele><time>2026-03-29T07:00:44.459Z</time></trkpt><trkpt lat="45.51793" lon="10.473105"><ele>220.0</ele><time>2026-03-29T07:00:45.459Z</time></trkpt><trkpt lat="45.51806" lon="10.4730417"><ele>220.0</ele><time>2026-03-29T07:00:46.459Z</time></trkpt><trkpt lat="45.5181967" lon="10.4729417"><ele>219.33333333333331</ele><time>2026-03-29T07:00:47.459Z</time></trkpt><trkpt lat="45.5183333" lon="10.4728317"><ele>218.66666666666669</ele><time>2026-03-29T07:00:48.459Z</time></trkpt><trkpt lat="45.518475" lon="10.4727183"><ele>218.0</ele><time>2026-03-29T07:00:49.459Z</time></trkpt><trkpt lat="45.5185917" lon="10.4726033"><ele>218.0</ele><time>2026-03-29T07:00:50.459Z</time></trkpt><trkpt lat="45.5187183" lon="10.4725017"><ele>218.0</ele><time>2026-03-29T07:00:51.459Z</time></trkpt><trkpt lat="45.5188383" lon="10.4723933"><ele>218.0</ele><time>2026-03-29T07:00:52.459Z</time></trkpt><trkpt lat="45.518975" lon="10.4722833"><ele>218.0</ele><time>2026-03-29T07:00:53.459Z</time></trkpt><trkpt lat="45.5191217" lon="10.472165"><ele>216.66666666666669</ele><time>2026-03-29T07:00:54.459Z</time></trkpt><trkpt lat="45.5192667" lon="10.47205"><ele>215.33333333333331</ele><time>2026-03-29T07:00:55.459Z</time></trkpt><trkpt lat="45.51941" lon="10.4719467"><ele>214.0</ele><time>2026-03-29T07:00:56.459Z</time></trkpt><trkpt lat="45.5195483" lon="10.4718333"><ele>215.25</ele><time>2026-03-29T07:00:57.459Z</time></trkpt><trkpt lat="45.5196767" lon="10.47172"><ele>216.5</ele><time>2026-03-29T07:00:58.458Z</time></trkpt><trkpt lat="45.519795" lon="10.4716033"><ele>217.75</ele><time>2026-03-29T07:00:59.459Z</time></trkpt><trkpt lat="45.519905" lon="10.47149"><ele>219.0</ele><time>2026-03-29T07:01:00.459Z</time></trkpt><trkpt lat="45.5200117" lon="10.4714033"><ele>219.0</ele><time>2026-03-29T07:01:01.459Z</time></trkpt><trkpt lat="45.5201117" lon="10.471345"><ele>219.0</ele><time>2026-03-29T07:01:02.459Z</time></trkpt><trkpt lat="45.5202083" lon="10.4713067"><ele>219.0</ele><time>2026-03-29T07:01:03.458Z</time></trkpt><trkpt lat="45.52029" lon="10.4712733"><ele>219.0</ele><time>2026-03-29T07:01:04.459Z</time></trkpt><trkpt lat="45.5203633" lon="10.4712583"><ele>219.0</ele><time>2026-03-29T07:01:05.459Z</time></trkpt><trkpt lat="45.5204317" lon="10.471235"><ele>219.0</ele><time>2026-03-29T07:01:06.459Z</time></trkpt><trkpt lat="45.520535" lon="10.471215"><ele>219.2</ele><time>2026-03-29T07:01:08.459Z</time></trkpt><trkpt lat="45.52062" lon="10.4712333"><ele>219.39999999999998</ele><time>2026-03-29T07:01:11.459Z</time></trkpt><trkpt lat="45.5206517" lon="10.4713567"><ele>219.6</ele><time>2026-03-29T07:01:13.458Z</time></trkpt><trkpt lat="45.52066" lon="10.4714733"><ele>219.8</ele><time>2026-03-29T07:01:14.459Z</time></trkpt><trkpt lat="45.5206667" lon="10.4716233"><ele>220.0</ele><time>2026-03-29T07:01:15.458Z</time></trkpt><trkpt lat="45.5206683" lon="10.4718167"><ele>220.0</ele><time>2026-03-29T07:01:16.459Z</time></trkpt><trkpt lat="45.5206717" lon="10.4720483"><ele>220.0</ele><time>2026-03-29T07:01:17.459Z</time></trkpt><trkpt lat="45.5206633" lon="10.472285"><ele>220.0</ele><time>2026-03-29T07:01:18.459Z</time></trkpt><trkpt lat="45.5206417" lon="10.47251"><ele>222.0</ele><time>2026-03-29T07:01:19.458Z</time></trkpt><trkpt lat="45.5205917" lon="10.47274"><ele>224.0</ele><time>2026-03-29T07:01:20.459Z</time></trkpt><trkpt lat="45.5205183" lon="10.472985"><ele>226.0</ele><time>2026-03-29T07:01:21.459Z</time></trkpt><trkpt lat="45.5204417" lon="10.4732283"><ele>229.33333333333331</ele><time>2026-03-29T07:01:22.459Z</time></trkpt><trkpt lat="45.5203617" lon="10.4734683"><ele>232.66666666666669</ele><time>2026-03-29T07:01:23.459Z</time></trkpt><trkpt lat="45.5203033" lon="10.4737067"><ele>236.0</ele><time>2026-03-29T07:01:24.459Z</time></trkpt><trkpt lat="45.520255" lon="10.4739533"><ele>237.0</ele><time>2026-03-29T07:01:25.459Z</time></trkpt><trkpt lat="45.5202117" lon="10.4742067"><ele>238.0</ele><time>2026-03-29T07:01:26.459Z</time></trkpt><trkpt lat="45.5201683" lon="10.47447"><ele>239.0</ele><time>2026-03-29T07:01:27.458Z</time></trkpt><trkpt lat="45.52013" lon="10.4747283"><ele>239.0</ele><time>2026-03-29T07:01:28.459Z</time></trkpt><trkpt lat="45.5200833" lon="10.4749817"><ele>239.0</ele><time>2026-03-29T07:01:29.459Z</time></trkpt><trkpt lat="45.5200383" lon="10.4752267"><ele>239.0</ele><time>2026-03-29T07:01:30.459Z</time></trkpt><trkpt lat="45.5199933" lon="10.4754717"><ele>239.0</ele><time>2026-03-29T07:01:31.459Z</time></trkpt><trkpt lat="45.5199483" lon="10.4757083"><ele>239.0</ele><time>2026-03-29T07:01:32.459Z</time></trkpt><trkpt lat="45.51991" lon="10.4759467"><ele>239.0</ele><time>2026-03-29T07:01:33.459Z</time></trkpt><trkpt lat="45.519875" lon="10.476195"><ele>238.66666666666669</ele><time>2026-03-29T07:01:34.459Z</time></trkpt><trkpt lat="45.5198383" lon="10.4764483"><ele>238.33333333333331</ele><time>2026-03-29T07:01:35.459Z</time></trkpt><trkpt lat="45.5198" lon="10.4767167"><ele>238.0</ele><time>2026-03-29T07:01:36.458Z</time></trkpt><trkpt lat="45.5197583" lon="10.4769867"><ele>240.33333333333331</ele><time>2026-03-29T07:01:37.459Z</time></trkpt><trkpt lat="45.519715" lon="10.4772483"><ele>242.66666666666669</ele><time>2026-03-29T07:01:38.459Z</time></trkpt><trkpt lat="45.5196767" lon="10.477495"><ele>245.0</ele><time>2026-03-29T07:01:39.459Z</time></trkpt><trkpt lat="45.519665" lon="10.477755"><ele>246.66666666666669</ele><time>2026-03-29T07:01:40.459Z</time></trkpt><trkpt lat="45.5196683" lon="10.4780217"><ele>248.33333333333331</ele><time>2026-03-29T07:01:41.459Z</time></trkpt><trkpt lat="45.5196967" lon="10.478265"><ele>250.0</ele><time>2026-03-29T07:01:42.459Z</time></trkpt><trkpt lat="45.519735" lon="10.4784867"><ele>250.0</ele><time>2026-03-29T07:01:43.459Z</time></trkpt><trkpt lat="45.5197633" lon="10.478685"><ele>250.0</ele><time>2026-03-29T07:01:44.459Z</time></trkpt><trkpt lat="45.51979" lon="10.4788617"><ele>250.0</ele><time>2026-03-29T07:01:45.459Z</time></trkpt><trkpt lat="45.51979" lon="10.4790217"><ele>250.0</ele><time>2026-03-29T07:01:46.459Z</time></trkpt><trkpt lat="45.51976" lon="10.4791833"><ele>250.25</ele><time>2026-03-29T07:01:47.459Z</time></trkpt><trkpt lat="45.5196883" lon="10.4793367"><ele>250.5</ele><time>2026-03-29T07:01:48.459Z</time></trkpt><trkpt lat="45.5196083" lon="10.4794867"><ele>250.75</ele><time>2026-03-29T07:01:49.459Z</time></trkpt><trkpt lat="45.5195183" lon="10.4796417"><ele>251.0</ele><time>2026-03-29T07:01:50.459Z</time></trkpt><trkpt lat="45.5194283" lon="10.4797983"><ele>251.0</ele><time>2026-03-29T07:01:51.458Z</time></trkpt><trkpt lat="45.5193367" lon="10.479945"><ele>251.0</ele><time>2026-03-29T07:01:52.459Z</time></trkpt><trkpt lat="45.51926" lon="10.4800917"><ele>251.0</ele><time>2026-03-29T07:01:53.459Z</time></trkpt><trkpt lat="45.5192083" lon="10.4802517"><ele>251.0</ele><time>2026-03-29T07:01:54.459Z</time></trkpt><trkpt lat="45.5191683" lon="10.4804333"><ele>250.25</ele><time>2026-03-29T07:01:55.459Z</time></trkpt><trkpt lat="45.5191467" lon="10.4806167"><ele>249.5</ele><time>2026-03-29T07:01:56.459Z</time></trkpt><trkpt lat="45.5191317" lon="10.4808033"><ele>248.75</ele><time>2026-03-29T07:01:57.459Z</time></trkpt><trkpt lat="45.5191217" lon="10.4809733"><ele>248.0</ele><time>2026-03-29T07:01:58.459Z</time></trkpt><trkpt lat="45.5191067" lon="10.4811333"><ele>246.25</ele><time>2026-03-29T07:01:59.459Z</time></trkpt><trkpt lat="45.5190933" lon="10.4812867"><ele>244.5</ele><time>2026-03-29T07:02:00.459Z</time></trkpt><trkpt lat="45.5191033" lon="10.4814467"><ele>242.75</ele><time>2026-03-29T07:02:01.459Z</time></trkpt><trkpt lat="45.5191533" lon="10.481615"><ele>241.0</ele><time>2026-03-29T07:02:02.459Z</time></trkpt><trkpt lat="45.5192333" lon="10.48179"><ele>241.0</ele><time>2026-03-29T07:02:03.459Z</time></trkpt><trkpt lat="45.5193317" lon="10.4819717"><ele>241.0</ele><time>2026-03-29T07:02:04.459Z</time></trkpt><trkpt lat="45.5194183" lon="10.4821517"><ele>241.0</ele><time>2026-03-29T07:02:05.459Z</time></trkpt><trkpt lat="45.51951" lon="10.482345"><ele>240.66666666666666</ele><time>2026-03-29T07:02:06.459Z</time></trkpt><trkpt lat="45.5196083" lon="10.48253"><ele>240.33333333333331</ele><time>2026-03-29T07:02:07.459Z</time></trkpt><trkpt lat="45.5197033" lon="10.4827217"><ele>240.0</ele><time>2026-03-29T07:02:08.459Z</time></trkpt><trkpt lat="45.5197967" lon="10.4829"><ele>240.0</ele><time>2026-03-29T07:02:09.459Z</time></trkpt><trkpt lat="45.5198917" lon="10.483075"><ele>240.0</ele><time>2026-03-29T07:02:10.459Z</time></trkpt><trkpt lat="45.5199917" lon="10.48325"><ele>240.0</ele><time>2026-03-29T07:02:11.459Z</time></trkpt><trkpt lat="45.5201083" lon="10.4834467"><ele>240.0</ele><time>2026-03-29T07:02:12.459Z</time></trkpt><trkpt lat="45.5202567" lon="10.4836417"><ele>240.0</ele><time>2026-03-29T07:02:13.459Z</time></trkpt><trkpt lat="45.5204033" lon="10.4838383"><ele>240.0</ele><time>2026-03-29T07:02:14.459Z</time></trkpt><trkpt lat="45.5205517" lon="10.4840267"><ele>240.66666666666669</ele><time>2026-03-29T07:02:15.459Z</time></trkpt><trkpt lat="45.5207067" lon="10.4842067"><ele>241.33333333333334</ele><time>2026-03-29T07:02:16.459Z</time></trkpt><trkpt lat="45.52086" lon="10.484405"><ele>242.0</ele><time>2026-03-29T07:02:17.459Z</time></trkpt><trkpt lat="45.52101" lon="10.4845933"><ele>242.0</ele><time>2026-03-29T07:02:18.459Z</time></trkpt><trkpt lat="45.5211467" lon="10.4847667"><ele>242.0</ele><time>2026-03-29T07:02:19.459Z</time></trkpt><trkpt lat="45.521275" lon="10.4849383"><ele>242.0</ele><time>2026-03-29T07:02:20.459Z</time></trkpt><trkpt lat="45.5213633" lon="10.4851083"><ele>242.0</ele><time>2026-03-29T07:02:21.459Z</time></trkpt><trkpt lat="45.5214267" lon="10.485305"><ele>242.0</ele><time>2026-03-29T07:02:22.458Z</time></trkpt><trkpt lat="45.5214617" lon="10.4855383"><ele>242.0</ele><time>2026-03-29T07:02:23.459Z</time></trkpt><trkpt lat="45.52148" lon="10.48578"><ele>239.75</ele><time>2026-03-29T07:02:24.459Z</time></trkpt><trkpt lat="45.521495" lon="10.4860033"><ele>237.5</ele><time>2026-03-29T07:02:25.459Z</time></trkpt><trkpt lat="45.5215017" lon="10.4862083"><ele>235.25</ele><time>2026-03-29T07:02:26.459Z</time></trkpt><trkpt lat="45.5214983" lon="10.48641"><ele>233.0</ele><time>2026-03-29T07:02:27.459Z</time></trkpt><trkpt lat="45.52147" lon="10.486655"><ele>231.33333333333334</ele><time>2026-03-29T07:02:28.459Z</time></trkpt><trkpt lat="45.5214183" lon="10.4868917"><ele>229.66666666666669</ele><time>2026-03-29T07:02:29.458Z</time></trkpt><trkpt lat="45.5213617" lon="10.4871283"><ele>228.0</ele><time>2026-03-29T07:02:30.459Z</time></trkpt><trkpt lat="45.5212933" lon="10.4873833"><ele>226.66666666666669</ele><time>2026-03-29T07:02:31.459Z</time></trkpt><trkpt lat="45.5212383" lon="10.48763"><ele>225.33333333333334</ele><time>2026-03-29T07:02:32.459Z</time></trkpt><trkpt lat="45.52117" lon="10.487865"><ele>224.0</ele><time>2026-03-29T07:02:33.459Z</time></trkpt><trkpt lat="45.5211133" lon="10.4880833"><ele>223.0</ele><time>2026-03-29T07:02:34.459Z</time></trkpt><trkpt lat="45.5210483" lon="10.488315"><ele>222.0</ele><time>2026-03-29T07:02:35.459Z</time></trkpt><trkpt lat="45.52098" lon="10.488525"><ele>221.0</ele><time>2026-03-29T07:02:36.459Z</time></trkpt><trkpt lat="45.5209333" lon="10.4887167"><ele>220.8</ele><time>2026-03-29T07:02:37.459Z</time></trkpt><trkpt lat="45.5208917" lon="10.4888817"><ele>220.60000000000002</ele><time>2026-03-29T07:02:38.459Z</time></trkpt><trkpt lat="45.5208633" lon="10.4890533"><ele>220.4</ele><time>2026-03-29T07:02:39.459Z</time></trkpt><trkpt lat="45.5208617" lon="10.4892"><ele>220.2</ele><time>2026-03-29T07:02:40.459Z</time></trkpt><trkpt lat="45.5208783" lon="10.48932"><ele>220.0</ele><time>2026-03-29T07:02:41.459Z</time></trkpt><trkpt lat="45.5208967" lon="10.4894083"><ele>219.99999999999997</ele><time>2026-03-29T07:02:42.459Z</time></trkpt><trkpt lat="45.52093" lon="10.4895083"><ele>220.0</ele><time>2026-03-29T07:02:44.459Z</time></trkpt><trkpt lat="45.5209783" lon="10.4895817"><ele>220.0</ele><time>2026-03-29T07:02:48.459Z</time></trkpt><trkpt lat="45.5209633" lon="10.4894283"><ele>220.0</ele><time>2026-03-29T07:02:52.459Z</time></trkpt><trkpt lat="45.5209283" lon="10.4893417"><ele>219.99999999999997</ele><time>2026-03-29T07:02:53.459Z</time></trkpt><trkpt lat="45.5209217" lon="10.48924"><ele>220.0</ele><time>2026-03-29T07:02:55.459Z</time></trkpt><trkpt lat="45.5210283" lon="10.4893383"><ele>220.0</ele><time>2026-03-29T07:02:58.459Z</time></trkpt><trkpt lat="45.5210917" lon="10.4894117"><ele>220.0</ele><time>2026-03-29T07:02:59.459Z</time></trkpt><trkpt lat="45.5211667" lon="10.489495"><ele>220.0</ele><time>2026-03-29T07:03:00.459Z</time></trkpt><trkpt lat="45.5212517" lon="10.4895817"><ele>220.0</ele><time>2026-03-29T07:03:01.459Z</time></trkpt><trkpt lat="45.5213283" lon="10.4896767"><ele>220.0</ele><time>2026-03-29T07:03:02.459Z</time></trkpt><trkpt lat="45.5214" lon="10.4897533"><ele>219.4</ele><time>2026-03-29T07:03:03.459Z</time></trkpt><trkpt lat="45.5214667" lon="10.4898267"><ele>218.8</ele><time>2026-03-29T07:03:04.459Z</time></trkpt><trkpt lat="45.5215367" lon="10.48988"><ele>218.2</ele><time>2026-03-29T07:03:05.459Z</time></trkpt><trkpt lat="45.5216233" lon="10.4899583"><ele>217.6</ele><time>2026-03-29T07:03:06.459Z</time></trkpt><trkpt lat="45.52172" lon="10.489995"><ele>217.0</ele><time>2026-03-29T07:03:07.459Z</time></trkpt><trkpt lat="45.521815" lon="10.490035"><ele>217.0</ele><time>2026-03-29T07:03:08.459Z</time></trkpt><trkpt lat="45.521915" lon="10.4900817"><ele>217.0</ele><time>2026-03-29T07:03:09.459Z</time></trkpt><trkpt lat="45.5220017" lon="10.4901317"><ele>217.0</ele><time>2026-03-29T07:03:10.459Z</time></trkpt><trkpt lat="45.522075" lon="10.4901917"><ele>217.0</ele><time>2026-03-29T07:03:11.459Z</time></trkpt><trkpt lat="45.522145" lon="10.4902517"><ele>217.0</ele><time>2026-03-29T07:03:12.459Z</time></trkpt><trkpt lat="45.5222217" lon="10.4903067"><ele>216.99999999999997</ele><time>2026-03-29T07:03:13.459Z</time></trkpt><trkpt lat="45.52229" lon="10.490345"><ele>217.0</ele><time>2026-03-29T07:03:14.458Z</time></trkpt><trkpt lat="45.522365" lon="10.490365"><ele>217.0</ele><time>2026-03-29T07:03:15.459Z</time></trkpt><trkpt lat="45.5224433" lon="10.4903717"><ele>217.0</ele><time>2026-03-29T07:03:16.459Z</time></trkpt><trkpt lat="45.5225217" lon="10.4903817"><ele>216.99999999999997</ele><time>2026-03-29T07:03:17.459Z</time></trkpt><trkpt lat="45.5225917" lon="10.4904133"><ele>217.0</ele><time>2026-03-29T07:03:18.459Z</time></trkpt><trkpt lat="45.5226917" lon="10.4904567"><ele>217.0</ele><time>2026-03-29T07:03:20.459Z</time></trkpt><trkpt lat="45.5227767" lon="10.4904417"><ele>217.0</ele><time>2026-03-29T07:03:22.459Z</time></trkpt><trkpt lat="45.5228767" lon="10.490285"><ele>217.0</ele><time>2026-03-29T07:03:24.459Z</time></trkpt><trkpt lat="45.522925" lon="10.4901417"><ele>217.0</ele><time>2026-03-29T07:03:25.459Z</time></trkpt><trkpt lat="45.5229583" lon="10.4900017"><ele>217.0</ele><time>2026-03-29T07:03:26.459Z</time></trkpt><trkpt lat="45.5229983" lon="10.4898733"><ele>218.33333333333331</ele><time>2026-03-29T07:03:27.459Z</time></trkpt><trkpt lat="45.52303" lon="10.4897467"><ele>219.66666666666666</ele><time>2026-03-29T07:03:28.459Z</time></trkpt><trkpt lat="45.5230667" lon="10.489625"><ele>221.0</ele><time>2026-03-29T07:03:29.459Z</time></trkpt><trkpt lat="45.5231083" lon="10.4895167"><ele>222.33333333333331</ele><time>2026-03-29T07:03:30.459Z</time></trkpt><trkpt lat="45.5231383" lon="10.4894217"><ele>223.66666666666666</ele><time>2026-03-29T07:03:31.459Z</time></trkpt><trkpt lat="45.5231667" lon="10.4893167"><ele>225.0</ele><time>2026-03-29T07:03:32.459Z</time></trkpt><trkpt lat="45.5231933" lon="10.4892183"><ele>225.5</ele><time>2026-03-29T07:03:33.459Z</time></trkpt><trkpt lat="45.5232083" lon="10.4891033"><ele>226.0</ele><time>2026-03-29T07:03:34.459Z</time></trkpt><trkpt lat="45.5232383" lon="10.4889833"><ele>226.5</ele><time>2026-03-29T07:03:35.459Z</time></trkpt><trkpt lat="45.5232733" lon="10.4888617"><ele>227.0</ele><time>2026-03-29T07:03:36.458Z</time></trkpt><trkpt lat="45.523305" lon="10.4887433"><ele>227.5</ele><time>2026-03-29T07:03:37.459Z</time></trkpt><trkpt lat="45.523355" lon="10.48866"><ele>228.0</ele><time>2026-03-29T07:03:38.459Z</time></trkpt><trkpt lat="45.5234167" lon="10.4885983"><ele>228.0</ele><time>2026-03-29T07:03:39.458Z</time></trkpt><trkpt lat="45.5234767" lon="10.4885467"><ele>228.0</ele><time>2026-03-29T07:03:40.459Z</time></trkpt><trkpt lat="45.52356" lon="10.4885067"><ele>228.0</ele><time>2026-03-29T07:03:41.458Z</time></trkpt><trkpt lat="45.523655" lon="10.488465"><ele>228.0</ele><time>2026-03-29T07:03:42.459Z</time></trkpt><trkpt lat="45.52376" lon="10.4884417"><ele>228.0</ele><time>2026-03-29T07:03:43.459Z</time></trkpt><trkpt lat="45.523875" lon="10.48842"><ele>229.5</ele><time>2026-03-29T07:03:44.459Z</time></trkpt><trkpt lat="45.5240017" lon="10.4884117"><ele>231.0</ele><time>2026-03-29T07:03:45.459Z</time></trkpt><trkpt lat="45.524125" lon="10.4884017"><ele>232.5</ele><time>2026-03-29T07:03:46.459Z</time></trkpt><trkpt lat="45.52424" lon="10.4884"><ele>234.0</ele><time>2026-03-29T07:03:47.459Z</time></trkpt><trkpt lat="45.5243383" lon="10.4883833"><ele>234.0</ele><time>2026-03-29T07:03:48.459Z</time></trkpt><trkpt lat="45.524425" lon="10.48839"><ele>234.0</ele><time>2026-03-29T07:03:49.458Z</time></trkpt><trkpt lat="45.5245067" lon="10.4884167"><ele>234.0</ele><time>2026-03-29T07:03:50.459Z</time></trkpt><trkpt lat="45.5245833" lon="10.4884667"><ele>234.0</ele><time>2026-03-29T07:03:51.459Z</time></trkpt><trkpt lat="45.5246633" lon="10.4885283"><ele>234.0</ele><time>2026-03-29T07:03:52.459Z</time></trkpt><trkpt lat="45.5247533" lon="10.4885783"><ele>234.0</ele><time>2026-03-29T07:03:53.459Z</time></trkpt><trkpt lat="45.52486" lon="10.48862"><ele>234.5</ele><time>2026-03-29T07:03:54.459Z</time></trkpt><trkpt lat="45.5249717" lon="10.488655"><ele>235.0</ele><time>2026-03-29T07:03:55.459Z</time></trkpt><trkpt lat="45.5250817" lon="10.488695"><ele>235.5</ele><time>2026-03-29T07:03:56.459Z</time></trkpt><trkpt lat="45.5251933" lon="10.4887217"><ele>236.0</ele><time>2026-03-29T07:03:57.459Z</time></trkpt><trkpt lat="45.5253067" lon="10.4887483"><ele>236.8</ele><time>2026-03-29T07:03:58.459Z</time></trkpt><trkpt lat="45.5254183" lon="10.4887617"><ele>237.60000000000002</ele><time>2026-03-29T07:03:59.458Z</time></trkpt><trkpt lat="45.5255283" lon="10.4887933"><ele>238.4</ele><time>2026-03-29T07:04:00.459Z</time></trkpt><trkpt lat="45.5256367" lon="10.4888267"><ele>239.2</ele><time>2026-03-29T07:04:01.459Z</time></trkpt><trkpt lat="45.52574" lon="10.4888467"><ele>240.0</ele><time>2026-03-29T07:04:02.459Z</time></trkpt><trkpt lat="45.5258517" lon="10.4888583"><ele>240.0</ele><time>2026-03-29T07:04:03.459Z</time></trkpt><trkpt lat="45.52597" lon="10.4888633"><ele>240.0</ele><time>2026-03-29T07:04:04.459Z</time></trkpt><trkpt lat="45.5260933" lon="10.48885"><ele>240.0</ele><time>2026-03-29T07:04:05.459Z</time></trkpt><trkpt lat="45.5262067" lon="10.4888317"><ele>240.0</ele><time>2026-03-29T07:04:06.459Z</time></trkpt><trkpt lat="45.52631" lon="10.4888033"><ele>240.16666666666666</ele><time>2026-03-29T07:04:07.459Z</time></trkpt><trkpt lat="45.526405" lon="10.4887817"><ele>240.33333333333331</ele><time>2026-03-29T07:04:08.459Z</time></trkpt><trkpt lat="45.5264867" lon="10.4887883"><ele>240.5</ele><time>2026-03-29T07:04:09.459Z</time></trkpt><trkpt lat="45.5265667" lon="10.4888017"><ele>240.66666666666666</ele><time>2026-03-29T07:04:10.459Z</time></trkpt><trkpt lat="45.5266517" lon="10.4888233"><ele>240.83333333333331</ele><time>2026-03-29T07:04:11.459Z</time></trkpt><trkpt lat="45.52673" lon="10.4888283"><ele>241.0</ele><time>2026-03-29T07:04:12.459Z</time></trkpt><trkpt lat="45.526805" lon="10.4888233"><ele>241.0</ele><time>2026-03-29T07:04:13.459Z</time></trkpt><trkpt lat="45.5269267" lon="10.4888783"><ele>241.00000000000003</ele><time>2026-03-29T07:04:15.458Z</time></trkpt><trkpt lat="45.5269917" lon="10.4889317"><ele>241.00000000000003</ele><time>2026-03-29T07:04:16.459Z</time></trkpt><trkpt lat="45.5270683" lon="10.488995"><ele>241.0</ele><time>2026-03-29T07:04:17.459Z</time></trkpt><trkpt lat="45.5271483" lon="10.4890683"><ele>241.0</ele><time>2026-03-29T07:04:18.459Z</time></trkpt><trkpt lat="45.527235" lon="10.4891217"><ele>241.4</ele><time>2026-03-29T07:04:19.459Z</time></trkpt><trkpt lat="45.5273117" lon="10.4891617"><ele>241.8</ele><time>2026-03-29T07:04:20.459Z</time></trkpt><trkpt lat="45.5274017" lon="10.489165"><ele>242.20000000000002</ele><time>2026-03-29T07:04:21.459Z</time></trkpt><trkpt lat="45.5275083" lon="10.48915"><ele>242.60000000000002</ele><time>2026-03-29T07:04:22.459Z</time></trkpt><trkpt lat="45.5276367" lon="10.4891183"><ele>243.0</ele><time>2026-03-29T07:04:23.459Z</time></trkpt><trkpt lat="45.5277633" lon="10.4890833"><ele>243.0</ele><time>2026-03-29T07:04:24.459Z</time></trkpt><trkpt lat="45.5278683" lon="10.4890567"><ele>243.0</ele><time>2026-03-29T07:04:25.459Z</time></trkpt><trkpt lat="45.5279617" lon="10.4890367"><ele>243.0</ele><time>2026-03-29T07:04:26.459Z</time></trkpt><trkpt lat="45.5280417" lon="10.48905"><ele>243.0</ele><time>2026-03-29T07:04:27.458Z</time></trkpt><trkpt lat="45.5281117" lon="10.4890867"><ele>243.0</ele><time>2026-03-29T07:04:28.459Z</time></trkpt><trkpt lat="45.5281767" lon="10.489145"><ele>243.0</ele><time>2026-03-29T07:04:29.459Z</time></trkpt><trkpt lat="45.5282283" lon="10.4892217"><ele>244.2</ele><time>2026-03-29T07:04:30.459Z</time></trkpt><trkpt lat="45.52826" lon="10.4893083"><ele>245.4</ele><time>2026-03-29T07:04:31.459Z</time></trkpt><trkpt lat="45.5282783" lon="10.4894817"><ele>246.59999999999997</ele><time>2026-03-29T07:04:33.459Z</time></trkpt><trkpt lat="45.5282983" lon="10.4896117"><ele>247.79999999999998</ele><time>2026-03-29T07:04:35.459Z</time></trkpt><trkpt lat="45.5283717" lon="10.4897017"><ele>249.0</ele><time>2026-03-29T07:04:37.459Z</time></trkpt><trkpt lat="45.52844" lon="10.4897433"><ele>249.66666666666666</ele><time>2026-03-29T07:04:38.459Z</time></trkpt><trkpt lat="45.5285167" lon="10.4897917"><ele>250.33333333333331</ele><time>2026-03-29T07:04:39.458Z</time></trkpt><trkpt lat="45.5285967" lon="10.489845"><ele>251.0</ele><time>2026-03-29T07:04:40.459Z</time></trkpt><trkpt lat="45.5286767" lon="10.4898967"><ele>251.66666666666666</ele><time>2026-03-29T07:04:41.459Z</time></trkpt><trkpt lat="45.5287533" lon="10.4899483"><ele>252.33333333333331</ele><time>2026-03-29T07:04:42.459Z</time></trkpt><trkpt lat="45.5288483" lon="10.4899917"><ele>253.0</ele><time>2026-03-29T07:04:43.459Z</time></trkpt><trkpt lat="45.5289483" lon="10.4900433"><ele>253.49999999999997</ele><time>2026-03-29T07:04:44.459Z</time></trkpt><trkpt lat="45.5290367" lon="10.490085"><ele>254.0</ele><time>2026-03-29T07:04:45.459Z</time></trkpt><trkpt lat="45.52911" lon="10.4901233"><ele>254.5</ele><time>2026-03-29T07:04:46.459Z</time></trkpt><trkpt lat="45.5291867" lon="10.4901367"><ele>255.0</ele><time>2026-03-29T07:04:47.459Z</time></trkpt><trkpt lat="45.52926" lon="10.4901217"><ele>255.49999999999997</ele><time>2026-03-29T07:04:48.459Z</time></trkpt><trkpt lat="45.5293217" lon="10.4900717"><ele>256.0</ele><time>2026-03-29T07:04:49.459Z</time></trkpt><trkpt lat="45.5293783" lon="10.4900117"><ele>256.0</ele><time>2026-03-29T07:04:50.459Z</time></trkpt><trkpt lat="45.5295067" lon="10.48998"><ele>256.0</ele><time>2026-03-29T07:04:52.459Z</time></trkpt><trkpt lat="45.5295917" lon="10.4900083"><ele>256.0</ele><time>2026-03-29T07:04:53.459Z</time></trkpt><trkpt lat="45.5296933" lon="10.49007"><ele>256.0</ele><time>2026-03-29T07:04:54.459Z</time></trkpt><trkpt lat="45.5297983" lon="10.4901617"><ele>255.99999999999997</ele><time>2026-03-29T07:04:55.459Z</time></trkpt><trkpt lat="45.5298867" lon="10.4902617"><ele>256.0</ele><time>2026-03-29T07:04:56.459Z</time></trkpt><trkpt lat="45.5299583" lon="10.4903433"><ele>256.0</ele><time>2026-03-29T07:04:57.459Z</time></trkpt><trkpt lat="45.5300217" lon="10.49041"><ele>256.0</ele><time>2026-03-29T07:04:58.459Z</time></trkpt><trkpt lat="45.5300833" lon="10.4904767"><ele>255.99999999999997</ele><time>2026-03-29T07:04:59.458Z</time></trkpt><trkpt lat="45.5301383" lon="10.49054"><ele>256.0</ele><time>2026-03-29T07:05:00.459Z</time></trkpt><trkpt lat="45.53019" lon="10.4905967"><ele>256.0</ele><time>2026-03-29T07:05:01.459Z</time></trkpt><trkpt lat="45.53024" lon="10.490665"><ele>256.0</ele><time>2026-03-29T07:05:02.459Z</time></trkpt><trkpt lat="45.5303" lon="10.49077"><ele>256.0</ele><time>2026-03-29T07:05:03.459Z</time></trkpt><trkpt lat="45.5303617" lon="10.490885"><ele>256.0</ele><time>2026-03-29T07:05:04.459Z</time></trkpt><trkpt lat="45.5304133" lon="10.4910033"><ele>256.0</ele><time>2026-03-29T07:05:05.459Z</time></trkpt><trkpt lat="45.530475" lon="10.491105"><ele>255.8</ele><time>2026-03-29T07:05:06.459Z</time></trkpt><trkpt lat="45.5305417" lon="10.4912033"><ele>255.60000000000002</ele><time>2026-03-29T07:05:07.459Z</time></trkpt><trkpt lat="45.5306117" lon="10.4913133"><ele>255.4</ele><time>2026-03-29T07:05:08.459Z</time></trkpt><trkpt lat="45.5306817" lon="10.49143"><ele>255.2</ele><time>2026-03-29T07:05:09.459Z</time></trkpt><trkpt lat="45.53075" lon="10.49154"><ele>255.0</ele><time>2026-03-29T07:05:10.459Z</time></trkpt><trkpt lat="45.530815" lon="10.49164"><ele>255.0</ele><time>2026-03-29T07:05:11.459Z</time></trkpt><trkpt lat="45.530875" lon="10.4917483"><ele>255.0</ele><time>2026-03-29T07:05:12.459Z</time></trkpt><trkpt lat="45.530925" lon="10.4918667"><ele>255.0</ele><time>2026-03-29T07:05:13.459Z</time></trkpt><trkpt lat="45.5309667" lon="10.49197"><ele>255.0</ele><time>2026-03-29T07:05:14.459Z</time></trkpt><trkpt lat="45.5309933" lon="10.4920783"><ele>255.0</ele><time>2026-03-29T07:05:15.459Z</time></trkpt><trkpt lat="45.5310133" lon="10.4921967"><ele>255.0</ele><time>2026-03-29T07:05:16.459Z</time></trkpt><trkpt lat="45.5310233" lon="10.4923167"><ele>255.66666666666666</ele><time>2026-03-29T07:05:17.459Z</time></trkpt><trkpt lat="45.5310383" lon="10.492435"><ele>256.3333333333333</ele><time>2026-03-29T07:05:18.459Z</time></trkpt><trkpt lat="45.5310583" lon="10.492535"><ele>257.0</ele><time>2026-03-29T07:05:19.459Z</time></trkpt><trkpt lat="45.5310917" lon="10.4926317"><ele>257.66666666666663</ele><time>2026-03-29T07:05:20.459Z</time></trkpt><trkpt lat="45.5311383" lon="10.4927133"><ele>258.3333333333333</ele><time>2026-03-29T07:05:21.459Z</time></trkpt><trkpt lat="45.5311867" lon="10.492785"><ele>259.0</ele><time>2026-03-29T07:05:22.459Z</time></trkpt><trkpt lat="45.5312633" lon="10.492865"><ele>256.2</ele><time>2026-03-29T07:05:23.458Z</time></trkpt><trkpt lat="45.5313517" lon="10.4929417"><ele>253.39999999999998</ele><time>2026-03-29T07:05:24.459Z</time></trkpt><trkpt lat="45.5314467" lon="10.4930383"><ele>250.6</ele><time>2026-03-29T07:05:25.459Z</time></trkpt><trkpt lat="45.5315383" lon="10.4931083"><ele>247.8</ele><time>2026-03-29T07:05:26.458Z</time></trkpt><trkpt lat="45.531625" lon="10.49319"><ele>245.0</ele><time>2026-03-29T07:05:27.459Z</time></trkpt><trkpt lat="45.5317167" lon="10.4932633"><ele>245.0</ele><time>2026-03-29T07:05:28.459Z</time></trkpt><trkpt lat="45.531815" lon="10.49334"><ele>245.0</ele><time>2026-03-29T07:05:29.459Z</time></trkpt><trkpt lat="45.5319117" lon="10.493395"><ele>245.0</ele><time>2026-03-29T07:05:30.459Z</time></trkpt><trkpt lat="45.5320067" lon="10.4934467"><ele>245.0</ele><time>2026-03-29T07:05:31.459Z</time></trkpt><trkpt lat="45.532085" lon="10.49348"><ele>245.0</ele><time>2026-03-29T07:05:32.458Z</time></trkpt><trkpt lat="45.5321617" lon="10.4935083"><ele>245.00000000000003</ele><time>2026-03-29T07:05:33.459Z</time></trkpt><trkpt lat="45.5322217" lon="10.49356"><ele>245.0</ele><time>2026-03-29T07:05:34.459Z</time></trkpt><trkpt lat="45.5322867" lon="10.4936267"><ele>245.0</ele><time>2026-03-29T07:05:35.459Z</time></trkpt><trkpt lat="45.5323517" lon="10.49371"><ele>245.0</ele><time>2026-03-29T07:05:36.459Z</time></trkpt><trkpt lat="45.5324183" lon="10.4938117"><ele>245.00000000000003</ele><time>2026-03-29T07:05:37.459Z</time></trkpt><trkpt lat="45.5324967" lon="10.4938867"><ele>245.0</ele><time>2026-03-29T07:05:38.459Z</time></trkpt><trkpt lat="45.5325833" lon="10.493945"><ele>245.0</ele><time>2026-03-29T07:05:39.459Z</time></trkpt><trkpt lat="45.5326783" lon="10.4939867"><ele>245.0</ele><time>2026-03-29T07:05:40.459Z</time></trkpt><trkpt lat="45.5327633" lon="10.4940333"><ele>245.0</ele><time>2026-03-29T07:05:41.459Z</time></trkpt><trkpt lat="45.5328417" lon="10.4940717"><ele>245.0</ele><time>2026-03-29T07:05:42.459Z</time></trkpt><trkpt lat="45.5329283" lon="10.4940967"><ele>245.0</ele><time>2026-03-29T07:05:43.459Z</time></trkpt><trkpt lat="45.5330167" lon="10.4941"><ele>244.83333333333334</ele><time>2026-03-29T07:05:44.458Z</time></trkpt><trkpt lat="45.5331017" lon="10.494105"><ele>244.66666666666669</ele><time>2026-03-29T07:05:45.459Z</time></trkpt><trkpt lat="45.5331717" lon="10.4941117"><ele>244.5</ele><time>2026-03-29T07:05:46.459Z</time></trkpt><trkpt lat="45.5332483" lon="10.494175"><ele>244.33333333333331</ele><time>2026-03-29T07:05:47.459Z</time></trkpt><trkpt lat="45.5333217" lon="10.494265"><ele>244.16666666666666</ele><time>2026-03-29T07:05:48.459Z</time></trkpt><trkpt lat="45.5333967" lon="10.4943433"><ele>244.0</ele><time>2026-03-29T07:05:49.459Z</time></trkpt><trkpt lat="45.5334767" lon="10.49441"><ele>244.0</ele><time>2026-03-29T07:05:50.459Z</time></trkpt><trkpt lat="45.5335517" lon="10.4944583"><ele>243.99999999999997</ele><time>2026-03-29T07:05:51.459Z</time></trkpt><trkpt lat="45.5336417" lon="10.4944933"><ele>243.99999999999997</ele><time>2026-03-29T07:05:52.459Z</time></trkpt><trkpt lat="45.5337367" lon="10.4945217"><ele>244.0</ele><time>2026-03-29T07:05:53.459Z</time></trkpt><trkpt lat="45.533835" lon="10.4945383"><ele>244.0</ele><time>2026-03-29T07:05:54.459Z</time></trkpt><trkpt lat="45.5339183" lon="10.494565"><ele>242.39999999999998</ele><time>2026-03-29T07:05:55.458Z</time></trkpt><trkpt lat="45.53401" lon="10.4945933"><ele>240.79999999999998</ele><time>2026-03-29T07:05:56.458Z</time></trkpt><trkpt lat="45.5341067" lon="10.4946333"><ele>239.20000000000002</ele><time>2026-03-29T07:05:57.459Z</time></trkpt><trkpt lat="45.5341917" lon="10.4946683"><ele>237.60000000000002</ele><time>2026-03-29T07:05:58.459Z</time></trkpt><trkpt lat="45.534275" lon="10.4947117"><ele>236.0</ele><time>2026-03-29T07:05:59.459Z</time></trkpt><trkpt lat="45.534355" lon="10.4947617"><ele>236.0</ele><time>2026-03-29T07:06:00.458Z</time></trkpt><trkpt lat="45.5344217" lon="10.4947867"><ele>236.00000000000003</ele><time>2026-03-29T07:06:01.459Z</time></trkpt><trkpt lat="45.5344967" lon="10.4948033"><ele>236.00000000000003</ele><time>2026-03-29T07:06:02.459Z</time></trkpt><trkpt lat="45.534605" lon="10.4948383"><ele>236.0</ele><time>2026-03-29T07:06:03.459Z</time></trkpt><trkpt lat="45.5347117" lon="10.49489"><ele>236.0</ele><time>2026-03-29T07:06:04.459Z</time></trkpt><trkpt lat="45.534815" lon="10.4949533"><ele>235.8</ele><time>2026-03-29T07:06:05.459Z</time></trkpt><trkpt lat="45.5349133" lon="10.4950083"><ele>235.60000000000002</ele><time>2026-03-29T07:06:06.458Z</time></trkpt><trkpt lat="45.53502" lon="10.49506"><ele>235.4</ele><time>2026-03-29T07:06:07.459Z</time></trkpt><trkpt lat="45.5351283" lon="10.4950917"><ele>235.2</ele><time>2026-03-29T07:06:08.459Z</time></trkpt><trkpt lat="45.535245" lon="10.49511"><ele>235.0</ele><time>2026-03-29T07:06:09.459Z</time></trkpt><trkpt lat="45.535355" lon="10.4951217"><ele>234.8</ele><time>2026-03-29T07:06:10.459Z</time></trkpt><trkpt lat="45.53545" lon="10.4951333"><ele>234.6</ele><time>2026-03-29T07:06:11.459Z</time></trkpt><trkpt lat="45.5355417" lon="10.49515"><ele>234.39999999999998</ele><time>2026-03-29T07:06:12.458Z</time></trkpt><trkpt lat="45.5356283" lon="10.4951933"><ele>234.2</ele><time>2026-03-29T07:06:13.458Z</time></trkpt><trkpt lat="45.5357217" lon="10.4952433"><ele>234.0</ele><time>2026-03-29T07:06:14.459Z</time></trkpt><trkpt lat="45.535815" lon="10.4953217"><ele>234.0</ele><time>2026-03-29T07:06:15.459Z</time></trkpt><trkpt lat="45.5359083" lon="10.4953967"><ele>233.99999999999997</ele><time>2026-03-29T07:06:16.459Z</time></trkpt><trkpt lat="45.5359933" lon="10.4954833"><ele>233.99999999999997</ele><time>2026-03-29T07:06:17.458Z</time></trkpt><trkpt lat="45.5360783" lon="10.4955583"><ele>234.0</ele><time>2026-03-29T07:06:18.459Z</time></trkpt><trkpt lat="45.5361533" lon="10.495645"><ele>234.0</ele><time>2026-03-29T07:06:19.459Z</time></trkpt><trkpt lat="45.536235" lon="10.4957233"><ele>234.66666666666666</ele><time>2026-03-29T07:06:20.459Z</time></trkpt><trkpt lat="45.536305" lon="10.4958167"><ele>235.33333333333331</ele><time>2026-03-29T07:06:21.459Z</time></trkpt><trkpt lat="45.5363617" lon="10.4959167"><ele>236.0</ele><time>2026-03-29T07:06:22.459Z</time></trkpt><trkpt lat="45.5364167" lon="10.4960167"><ele>236.66666666666666</ele><time>2026-03-29T07:06:23.459Z</time></trkpt><trkpt lat="45.5364667" lon="10.49611"><ele>237.33333333333331</ele><time>2026-03-29T07:06:24.459Z</time></trkpt><trkpt lat="45.536525" lon="10.49618"><ele>238.0</ele><time>2026-03-29T07:06:25.459Z</time></trkpt><trkpt lat="45.53659" lon="10.4962317"><ele>237.49999999999997</ele><time>2026-03-29T07:06:26.459Z</time></trkpt><trkpt lat="45.5366683" lon="10.49626"><ele>237.0</ele><time>2026-03-29T07:06:27.459Z</time></trkpt><trkpt lat="45.53674" lon="10.49628"><ele>236.5</ele><time>2026-03-29T07:06:28.459Z</time></trkpt><trkpt lat="45.5368433" lon="10.496295"><ele>236.0</ele><time>2026-03-29T07:06:30.458Z</time></trkpt><trkpt lat="45.53694" lon="10.49633"><ele>235.49999999999997</ele><time>2026-03-29T07:06:32.459Z</time></trkpt><trkpt lat="45.537015" lon="10.49636"><ele>235.0</ele><time>2026-03-29T07:06:33.459Z</time></trkpt><trkpt lat="45.5371083" lon="10.4964"><ele>235.0</ele><time>2026-03-29T07:06:34.459Z</time></trkpt><trkpt lat="45.53725" lon="10.4964167"><ele>235.0</ele><time>2026-03-29T07:06:35.459Z</time></trkpt><trkpt lat="45.5374233" lon="10.49641"><ele>235.0</ele><time>2026-03-29T07:06:36.459Z</time></trkpt><trkpt lat="45.5376167" lon="10.49637"><ele>235.0</ele><time>2026-03-29T07:06:37.459Z</time></trkpt><trkpt lat="45.5378083" lon="10.4963133"><ele>235.0</ele><time>2026-03-29T07:06:38.459Z</time></trkpt><trkpt lat="45.538005" lon="10.4962417"><ele>235.0</ele><time>2026-03-29T07:06:39.459Z</time></trkpt><trkpt lat="45.5381867" lon="10.4961967"><ele>236.0</ele><time>2026-03-29T07:06:40.459Z</time></trkpt><trkpt lat="45.5383517" lon="10.4961583"><ele>237.0</ele><time>2026-03-29T07:06:41.459Z</time></trkpt><trkpt lat="45.538505" lon="10.4961233"><ele>238.0</ele><time>2026-03-29T07:06:42.459Z</time></trkpt><trkpt lat="45.53867" lon="10.4961"><ele>237.66666666666666</ele><time>2026-03-29T07:06:43.459Z</time></trkpt><trkpt lat="45.5388383" lon="10.4960783"><ele>237.33333333333331</ele><time>2026-03-29T07:06:44.459Z</time></trkpt><trkpt lat="45.53901" lon="10.496065"><ele>237.0</ele><time>2026-03-29T07:06:45.459Z</time></trkpt><trkpt lat="45.5391833" lon="10.49604"><ele>237.0</ele><time>2026-03-29T07:06:46.459Z</time></trkpt><trkpt lat="45.5393383" lon="10.4959933"><ele>237.0</ele><time>2026-03-29T07:06:47.459Z</time></trkpt><trkpt lat="45.5394617" lon="10.4959533"><ele>237.0</ele><time>2026-03-29T07:06:48.459Z</time></trkpt><trkpt lat="45.5395717" lon="10.4959"><ele>237.0</ele><time>2026-03-29T07:06:49.459Z</time></trkpt><trkpt lat="45.539695" lon="10.4958517"><ele>238.33333333333331</ele><time>2026-03-29T07:06:50.459Z</time></trkpt><trkpt lat="45.5398483" lon="10.4958117"><ele>239.66666666666666</ele><time>2026-03-29T07:06:51.459Z</time></trkpt><trkpt lat="45.5399983" lon="10.4957567"><ele>241.0</ele><time>2026-03-29T07:06:52.459Z</time></trkpt><trkpt lat="45.540145" lon="10.495715"><ele>241.0</ele><time>2026-03-29T07:06:53.459Z</time></trkpt><trkpt lat="45.5402967" lon="10.49572"><ele>241.0</ele><time>2026-03-29T07:06:54.459Z</time></trkpt><trkpt lat="45.540465" lon="10.4957267"><ele>241.0</ele><time>2026-03-29T07:06:55.459Z</time></trkpt><trkpt lat="45.54065" lon="10.4957267"><ele>241.33333333333331</ele><time>2026-03-29T07:06:56.459Z</time></trkpt><trkpt lat="45.5408317" lon="10.49574"><ele>241.66666666666669</ele><time>2026-03-29T07:06:57.459Z</time></trkpt><trkpt lat="45.540995" lon="10.4957517"><ele>242.0</ele><time>2026-03-29T07:06:58.459Z</time></trkpt><trkpt lat="45.5411433" lon="10.495775"><ele>242.0</ele><time>2026-03-29T07:06:59.459Z</time></trkpt><trkpt lat="45.541275" lon="10.4958067"><ele>242.0</ele><time>2026-03-29T07:07:00.459Z</time></trkpt><trkpt lat="45.5414117" lon="10.4958383"><ele>242.0</ele><time>2026-03-29T07:07:01.459Z</time></trkpt><trkpt lat="45.54154" lon="10.4958583"><ele>242.0</ele><time>2026-03-29T07:07:02.458Z</time></trkpt><trkpt lat="45.54164" lon="10.4959017"><ele>242.0</ele><time>2026-03-29T07:07:03.459Z</time></trkpt><trkpt lat="45.5417267" lon="10.49598"><ele>242.0</ele><time>2026-03-29T07:07:04.459Z</time></trkpt><trkpt lat="45.54179" lon="10.4961217"><ele>242.0</ele><time>2026-03-29T07:07:05.459Z</time></trkpt><trkpt lat="45.54184" lon="10.4962667"><ele>242.0</ele><time>2026-03-29T07:07:06.459Z</time></trkpt><trkpt lat="45.5419233" lon="10.4963617"><ele>242.0</ele><time>2026-03-29T07:07:07.459Z</time></trkpt><trkpt lat="45.542045" lon="10.49644"><ele>241.0</ele><time>2026-03-29T07:07:08.459Z</time></trkpt><trkpt lat="45.5422017" lon="10.4964983"><ele>240.0</ele><time>2026-03-29T07:07:09.458Z</time></trkpt><trkpt lat="45.5423617" lon="10.4965417"><ele>239.0</ele><time>2026-03-29T07:07:10.459Z</time></trkpt><trkpt lat="45.5425283" lon="10.49658"><ele>239.0</ele><time>2026-03-29T07:07:11.459Z</time></trkpt><trkpt lat="45.5427033" lon="10.4966083"><ele>239.0</ele><time>2026-03-29T07:07:12.459Z</time></trkpt><trkpt lat="45.5428833" lon="10.496625"><ele>239.0</ele><time>2026-03-29T07:07:13.459Z</time></trkpt><trkpt lat="45.543065" lon="10.4966283"><ele>240.66666666666669</ele><time>2026-03-29T07:07:14.459Z</time></trkpt><trkpt lat="45.5432467" lon="10.4966117"><ele>242.33333333333331</ele><time>2026-03-29T07:07:15.458Z</time></trkpt><trkpt lat="45.54343" lon="10.49661"><ele>244.0</ele><time>2026-03-29T07:07:16.459Z</time></trkpt><trkpt lat="45.5436233" lon="10.4966283"><ele>243.66666666666666</ele><time>2026-03-29T07:07:17.459Z</time></trkpt><trkpt lat="45.5438333" lon="10.4966517"><ele>243.33333333333331</ele><time>2026-03-29T07:07:18.459Z</time></trkpt><trkpt lat="45.5440517" lon="10.4966967"><ele>243.0</ele><time>2026-03-29T07:07:19.459Z</time></trkpt><trkpt lat="45.544265" lon="10.496745"><ele>243.0</ele><time>2026-03-29T07:07:20.459Z</time></trkpt><trkpt lat="45.5444583" lon="10.4968167"><ele>243.0</ele><time>2026-03-29T07:07:21.459Z</time></trkpt><trkpt lat="45.5446333" lon="10.4968917"><ele>243.0</ele><time>2026-03-29T07:07:22.459Z</time></trkpt><trkpt lat="45.5447933" lon="10.4969617"><ele>243.66666666666669</ele><time>2026-03-29T07:07:23.459Z</time></trkpt><trkpt lat="45.5449567" lon="10.4970267"><ele>244.33333333333334</ele><time>2026-03-29T07:07:24.459Z</time></trkpt><trkpt lat="45.5451283" lon="10.4970983"><ele>245.0</ele><time>2026-03-29T07:07:25.459Z</time></trkpt><trkpt lat="45.54528" lon="10.4971883"><ele>248.33333333333334</ele><time>2026-03-29T07:07:26.459Z</time></trkpt><trkpt lat="45.5454183" lon="10.497285"><ele>251.66666666666669</ele><time>2026-03-29T07:07:27.458Z</time></trkpt><trkpt lat="45.5455567" lon="10.49742"><ele>255.0</ele><time>2026-03-29T07:07:28.459Z</time></trkpt><trkpt lat="45.5456683" lon="10.4975833"><ele>255.0</ele><time>2026-03-29T07:07:29.459Z</time></trkpt><trkpt lat="45.5457333" lon="10.4977017"><ele>255.0</ele><time>2026-03-29T07:07:30.459Z</time></trkpt><trkpt lat="45.5458" lon="10.4977983"><ele>255.0</ele><time>2026-03-29T07:07:31.459Z</time></trkpt><trkpt lat="45.545855" lon="10.4978867"><ele>255.0</ele><time>2026-03-29T07:07:32.459Z</time></trkpt><trkpt lat="45.5459033" lon="10.497955"><ele>255.0</ele><time>2026-03-29T07:07:33.459Z</time></trkpt><trkpt lat="45.5459433" lon="10.4980383"><ele>255.0</ele><time>2026-03-29T07:07:34.459Z</time></trkpt><trkpt lat="45.5459833" lon="10.4981117"><ele>255.0</ele><time>2026-03-29T07:07:35.459Z</time></trkpt><trkpt lat="45.5460683" lon="10.49819"><ele>255.0</ele><time>2026-03-29T07:07:37.459Z</time></trkpt><trkpt lat="45.54613" lon="10.4981267"><ele>255.0</ele><time>2026-03-29T07:07:40.459Z</time></trkpt><trkpt lat="45.5460933" lon="10.4979533"><ele>255.0</ele><time>2026-03-29T07:07:42.459Z</time></trkpt><trkpt lat="45.5460467" lon="10.4978333"><ele>255.0</ele><time>2026-03-29T07:07:43.459Z</time></trkpt><trkpt lat="45.5459883" lon="10.4976767"><ele>255.0</ele><time>2026-03-29T07:07:44.459Z</time></trkpt><trkpt lat="45.54592" lon="10.4974917"><ele>255.0</ele><time>2026-03-29T07:07:45.459Z</time></trkpt><trkpt lat="45.5458467" lon="10.4972767"><ele>255.0</ele><time>2026-03-29T07:07:46.459Z</time></trkpt><trkpt lat="45.5457733" lon="10.4970667"><ele>255.4</ele><time>2026-03-29T07:07:47.459Z</time></trkpt><trkpt lat="45.5457133" lon="10.49689"><ele>255.8</ele><time>2026-03-29T07:07:48.458Z</time></trkpt><trkpt lat="45.5456817" lon="10.4967617"><ele>256.2</ele><time>2026-03-29T07:07:49.459Z</time></trkpt><trkpt lat="45.5456583" lon="10.4966417"><ele>256.6</ele><time>2026-03-29T07:07:50.459Z</time></trkpt><trkpt lat="45.545635" lon="10.49654"><ele>257.0</ele><time>2026-03-29T07:07:51.459Z</time></trkpt><trkpt lat="45.5456383" lon="10.49645"><ele>257.0</ele><time>2026-03-29T07:08:26.458Z</time></trkpt><trkpt lat="45.5457133" lon="10.496405"><ele>257.0</ele><time>2026-03-29T07:08:28.459Z</time></trkpt><trkpt lat="45.5457817" lon="10.4964017"><ele>257.0</ele><time>2026-03-29T07:08:29.459Z</time></trkpt><trkpt lat="45.54586" lon="10.4964067"><ele>257.0</ele><time>2026-03-29T07:08:30.459Z</time></trkpt><trkpt lat="45.545965" lon="10.4964233"><ele>257.0</ele><time>2026-03-29T07:08:31.459Z</time></trkpt><trkpt lat="45.54608" lon="10.496425"><ele>257.0</ele><time>2026-03-29T07:08:32.459Z</time></trkpt><trkpt lat="45.546175" lon="10.4964283"><ele>256.85714285714283</ele><time>2026-03-29T07:08:33.459Z</time></trkpt><trkpt lat="45.54625" lon="10.4964283"><ele>256.7142857142857</ele><time>2026-03-29T07:08:34.459Z</time></trkpt><trkpt lat="45.54633" lon="10.4964183"><ele>256.57142857142856</ele><time>2026-03-29T07:08:35.459Z</time></trkpt><trkpt lat="45.5464033" lon="10.49641"><ele>256.42857142857144</ele><time>2026-03-29T07:08:36.459Z</time></trkpt><trkpt lat="45.5464717" lon="10.49639"><ele>256.2857142857143</ele><time>2026-03-29T07:08:37.459Z</time></trkpt><trkpt lat="45.546535" lon="10.4963467"><ele>256.1428571428571</ele><time>2026-03-29T07:08:38.458Z</time></trkpt><trkpt lat="45.5465967" lon="10.4962817"><ele>256.0</ele><time>2026-03-29T07:08:39.459Z</time></trkpt><trkpt lat="45.5466583" lon="10.49619"><ele>256.0</ele><time>2026-03-29T07:08:40.459Z</time></trkpt><trkpt lat="45.5467183" lon="10.4960767"><ele>256.0</ele><time>2026-03-29T07:08:41.459Z</time></trkpt><trkpt lat="45.5467733" lon="10.49594"><ele>256.0</ele><time>2026-03-29T07:08:42.459Z</time></trkpt><trkpt lat="45.5468367" lon="10.495805"><ele>256.0</ele><time>2026-03-29T07:08:43.459Z</time></trkpt><trkpt lat="45.54688" lon="10.4956683"><ele>256.0</ele><time>2026-03-29T07:08:44.459Z</time></trkpt><trkpt lat="45.5469033" lon="10.49553"><ele>255.60000000000002</ele><time>2026-03-29T07:08:45.459Z</time></trkpt><trkpt lat="45.546895" lon="10.4954117"><ele>255.20000000000002</ele><time>2026-03-29T07:08:46.459Z</time></trkpt><trkpt lat="45.5468733" lon="10.4953033"><ele>254.79999999999998</ele><time>2026-03-29T07:08:47.459Z</time></trkpt><trkpt lat="45.5468183" lon="10.4952033"><ele>254.39999999999998</ele><time>2026-03-29T07:08:48.459Z</time></trkpt><trkpt lat="45.5467417" lon="10.495095"><ele>254.0</ele><time>2026-03-29T07:08:49.459Z</time></trkpt><trkpt lat="45.5466583" lon="10.4949733"><ele>254.0</ele><time>2026-03-29T07:08:50.459Z</time></trkpt><trkpt lat="45.5465917" lon="10.4948317"><ele>253.99999999999997</ele><time>2026-03-29T07:08:51.459Z</time></trkpt><trkpt lat="45.5465483" lon="10.4946967"><ele>253.99999999999997</ele><time>2026-03-29T07:08:52.459Z</time></trkpt><trkpt lat="45.5465167" lon="10.4945733"><ele>254.0</ele><time>2026-03-29T07:08:53.459Z</time></trkpt><trkpt lat="45.546515" lon="10.494455"><ele>254.0</ele><time>2026-03-29T07:08:54.459Z</time></trkpt><trkpt lat="45.546545" lon="10.4943083"><ele>253.75</ele><time>2026-03-29T07:08:55.459Z</time></trkpt><trkpt lat="45.5465933" lon="10.49416"><ele>253.5</ele><time>2026-03-29T07:08:56.459Z</time></trkpt><trkpt lat="45.54664" lon="10.4939917"><ele>253.25</ele><time>2026-03-29T07:08:57.459Z</time></trkpt><trkpt lat="45.5466833" lon="10.4938467"><ele>253.0</ele><time>2026-03-29T07:08:58.458Z</time></trkpt><trkpt lat="45.546735" lon="10.493675"><ele>253.0</ele><time>2026-03-29T07:08:59.459Z</time></trkpt><trkpt lat="45.5467983" lon="10.4935"><ele>253.0</ele><time>2026-03-29T07:09:00.459Z</time></trkpt><trkpt lat="45.546875" lon="10.493355"><ele>253.0</ele><time>2026-03-29T07:09:01.459Z</time></trkpt><trkpt lat="45.54696" lon="10.4931967"><ele>253.0</ele><time>2026-03-29T07:09:02.459Z</time></trkpt><trkpt lat="45.547045" lon="10.49306"><ele>252.75</ele><time>2026-03-29T07:09:03.458Z</time></trkpt><trkpt lat="45.5471283" lon="10.4929183"><ele>252.5</ele><time>2026-03-29T07:09:04.459Z</time></trkpt><trkpt lat="45.547205" lon="10.492775"><ele>252.25</ele><time>2026-03-29T07:09:05.459Z</time></trkpt><trkpt lat="45.5472633" lon="10.4926433"><ele>252.0</ele><time>2026-03-29T07:09:06.459Z</time></trkpt><trkpt lat="45.547315" lon="10.4925067"><ele>252.0</ele><time>2026-03-29T07:09:07.459Z</time></trkpt><trkpt lat="45.5473533" lon="10.4923533"><ele>252.0</ele><time>2026-03-29T07:09:08.458Z</time></trkpt><trkpt lat="45.5473917" lon="10.492195"><ele>252.0</ele><time>2026-03-29T07:09:09.459Z</time></trkpt><trkpt lat="45.5474183" lon="10.4920233"><ele>252.0</ele><time>2026-03-29T07:09:10.458Z</time></trkpt><trkpt lat="45.5474483" lon="10.4918533"><ele>251.75</ele><time>2026-03-29T07:09:11.459Z</time></trkpt><trkpt lat="45.5474867" lon="10.4916767"><ele>251.5</ele><time>2026-03-29T07:09:12.459Z</time></trkpt><trkpt lat="45.5475283" lon="10.49151"><ele>251.25</ele><time>2026-03-29T07:09:13.459Z</time></trkpt><trkpt lat="45.5475867" lon="10.4913567"><ele>251.0</ele><time>2026-03-29T07:09:14.459Z</time></trkpt><trkpt lat="45.5476633" lon="10.49122"><ele>250.8</ele><time>2026-03-29T07:09:15.458Z</time></trkpt><trkpt lat="45.5477367" lon="10.4910983"><ele>250.60000000000002</ele><time>2026-03-29T07:09:16.459Z</time></trkpt><trkpt lat="45.547815" lon="10.490985"><ele>250.4</ele><time>2026-03-29T07:09:17.459Z</time></trkpt><trkpt lat="45.5478883" lon="10.4908733"><ele>250.2</ele><time>2026-03-29T07:09:18.459Z</time></trkpt><trkpt lat="45.5479533" lon="10.4907533"><ele>250.0</ele><time>2026-03-29T07:09:19.459Z</time></trkpt><trkpt lat="45.5479967" lon="10.4906417"><ele>250.0</ele><time>2026-03-29T07:09:20.459Z</time></trkpt><trkpt lat="45.548045" lon="10.4905267"><ele>250.0</ele><time>2026-03-29T07:09:21.459Z</time></trkpt><trkpt lat="45.5480717" lon="10.490395"><ele>250.0</ele><time>2026-03-29T07:09:22.458Z</time></trkpt><trkpt lat="45.54811" lon="10.4902483"><ele>250.0</ele><time>2026-03-29T07:09:23.459Z</time></trkpt><trkpt lat="45.5481533" lon="10.4901067"><ele>250.0</ele><time>2026-03-29T07:09:24.459Z</time></trkpt><trkpt lat="45.5481967" lon="10.48996"><ele>250.0</ele><time>2026-03-29T07:09:25.459Z</time></trkpt><trkpt lat="45.548245" lon="10.489825"><ele>250.0</ele><time>2026-03-29T07:09:26.459Z</time></trkpt><trkpt lat="45.5483017" lon="10.4897117"><ele>250.0</ele><time>2026-03-29T07:09:27.459Z</time></trkpt><trkpt lat="45.5483633" lon="10.4896"><ele>250.0</ele><time>2026-03-29T07:09:28.458Z</time></trkpt><trkpt lat="45.54844" lon="10.48951"><ele>250.0</ele><time>2026-03-29T07:09:29.459Z</time></trkpt><trkpt lat="45.5485283" lon="10.4894183"><ele>250.0</ele><time>2026-03-29T07:09:30.459Z</time></trkpt><trkpt lat="45.5486133" lon="10.4893383"><ele>250.0</ele><time>2026-03-29T07:09:31.459Z</time></trkpt><trkpt lat="45.5486967" lon="10.4892517"><ele>250.0</ele><time>2026-03-29T07:09:32.459Z</time></trkpt><trkpt lat="45.548765" lon="10.4891533"><ele>250.0</ele><time>2026-03-29T07:09:33.459Z</time></trkpt><trkpt lat="45.548815" lon="10.4890167"><ele>250.0</ele><time>2026-03-29T07:09:34.459Z</time></trkpt><trkpt lat="45.5488567" lon="10.4888467"><ele>249.75</ele><time>2026-03-29T07:09:35.459Z</time></trkpt><trkpt lat="45.5489033" lon="10.4886733"><ele>249.5</ele><time>2026-03-29T07:09:36.459Z</time></trkpt><trkpt lat="45.548945" lon="10.4885017"><ele>249.25</ele><time>2026-03-29T07:09:37.458Z</time></trkpt><trkpt lat="45.5489817" lon="10.4883417"><ele>249.0</ele><time>2026-03-29T07:09:38.459Z</time></trkpt><trkpt lat="45.5490167" lon="10.48818"><ele>249.0</ele><time>2026-03-29T07:09:39.459Z</time></trkpt><trkpt lat="45.5490417" lon="10.4880083"><ele>249.0</ele><time>2026-03-29T07:09:40.459Z</time></trkpt><trkpt lat="45.5490617" lon="10.4878383"><ele>249.0</ele><time>2026-03-29T07:09:41.459Z</time></trkpt><trkpt lat="45.5490783" lon="10.4876883"><ele>249.0</ele><time>2026-03-29T07:09:42.458Z</time></trkpt><trkpt lat="45.549095" lon="10.4875417"><ele>249.0</ele><time>2026-03-29T07:09:43.458Z</time></trkpt><trkpt lat="45.5491183" lon="10.4873867"><ele>249.0</ele><time>2026-03-29T07:09:44.459Z</time></trkpt><trkpt lat="45.549135" lon="10.4872233"><ele>249.0</ele><time>2026-03-29T07:09:45.458Z</time></trkpt><trkpt lat="45.5491583" lon="10.4870583"><ele>249.0</ele><time>2026-03-29T07:09:46.459Z</time></trkpt><trkpt lat="45.54919" lon="10.48691"><ele>249.2</ele><time>2026-03-29T07:09:47.459Z</time></trkpt><trkpt lat="45.5492233" lon="10.4867767"><ele>249.39999999999998</ele><time>2026-03-29T07:09:48.458Z</time></trkpt><trkpt lat="45.549275" lon="10.4866583"><ele>249.6</ele><time>2026-03-29T07:09:49.459Z</time></trkpt><trkpt lat="45.549335" lon="10.4865567"><ele>249.8</ele><time>2026-03-29T07:09:50.459Z</time></trkpt><trkpt lat="45.5494117" lon="10.486475"><ele>250.0</ele><time>2026-03-29T07:09:51.459Z</time></trkpt><trkpt lat="45.54949" lon="10.4864033"><ele>249.83333333333331</ele><time>2026-03-29T07:09:52.459Z</time></trkpt><trkpt lat="45.54956" lon="10.4863283"><ele>249.66666666666666</ele><time>2026-03-29T07:09:53.459Z</time></trkpt><trkpt lat="45.5496183" lon="10.4862583"><ele>249.5</ele><time>2026-03-29T07:09:54.459Z</time></trkpt><trkpt lat="45.549655" lon="10.4861083"><ele>249.33333333333331</ele><time>2026-03-29T07:09:56.459Z</time></trkpt><trkpt lat="45.5496283" lon="10.4860167"><ele>249.16666666666666</ele><time>2026-03-29T07:09:57.459Z</time></trkpt><trkpt lat="45.5495617" lon="10.4859083"><ele>249.0</ele><time>2026-03-29T07:09:58.459Z</time></trkpt><trkpt lat="45.5494683" lon="10.4857817"><ele>250.39999999999998</ele><time>2026-03-29T07:09:59.459Z</time></trkpt><trkpt lat="45.5493767" lon="10.4856717"><ele>251.79999999999998</ele><time>2026-03-29T07:10:00.459Z</time></trkpt><trkpt lat="45.5493183" lon="10.4855733"><ele>253.20000000000002</ele><time>2026-03-29T07:10:01.458Z</time></trkpt><trkpt lat="45.5492867" lon="10.4854283"><ele>254.60000000000002</ele><time>2026-03-29T07:10:03.459Z</time></trkpt><trkpt lat="45.5493583" lon="10.485275"><ele>256.0</ele><time>2026-03-29T07:10:05.459Z</time></trkpt><trkpt lat="45.5494167" lon="10.485175"><ele>255.20000000000002</ele><time>2026-03-29T07:10:06.459Z</time></trkpt><trkpt lat="45.5494917" lon="10.4850917"><ele>254.40000000000003</ele><time>2026-03-29T07:10:07.459Z</time></trkpt><trkpt lat="45.54958" lon="10.4850067"><ele>253.6</ele><time>2026-03-29T07:10:08.459Z</time></trkpt><trkpt lat="45.549675" lon="10.4849233"><ele>252.8</ele><time>2026-03-29T07:10:09.459Z</time></trkpt><trkpt lat="45.5497667" lon="10.4848417"><ele>252.0</ele><time>2026-03-29T07:10:10.459Z</time></trkpt><trkpt lat="45.54985" lon="10.4847617"><ele>252.0</ele><time>2026-03-29T07:10:11.459Z</time></trkpt><trkpt lat="45.5499283" lon="10.4846683"><ele>252.0</ele><time>2026-03-29T07:10:12.459Z</time></trkpt><trkpt lat="45.5500067" lon="10.4845717"><ele>252.0</ele><time>2026-03-29T07:10:13.458Z</time></trkpt><trkpt lat="45.5501017" lon="10.484475"><ele>252.0</ele><time>2026-03-29T07:10:14.458Z</time></trkpt><trkpt lat="45.55022" lon="10.4843867"><ele>253.25</ele><time>2026-03-29T07:10:15.459Z</time></trkpt><trkpt lat="45.5503517" lon="10.4843017"><ele>254.5</ele><time>2026-03-29T07:10:16.459Z</time></trkpt><trkpt lat="45.55048" lon="10.4842267"><ele>255.75</ele><time>2026-03-29T07:10:17.459Z</time></trkpt><trkpt lat="45.5505867" lon="10.48416"><ele>257.0</ele><time>2026-03-29T07:10:18.459Z</time></trkpt><trkpt lat="45.5506717" lon="10.4841117"><ele>257.0</ele><time>2026-03-29T07:10:19.459Z</time></trkpt><trkpt lat="45.55076" lon="10.4840917"><ele>257.0</ele><time>2026-03-29T07:10:20.459Z</time></trkpt><trkpt lat="45.550855" lon="10.4841133"><ele>257.0</ele><time>2026-03-29T07:10:21.459Z</time></trkpt><trkpt lat="45.550965" lon="10.4841833"><ele>257.0</ele><time>2026-03-29T07:10:22.459Z</time></trkpt><trkpt lat="45.5510783" lon="10.4842583"><ele>257.0</ele><time>2026-03-29T07:10:23.459Z</time></trkpt><trkpt lat="45.551205" lon="10.48431"><ele>259.0</ele><time>2026-03-29T07:10:24.459Z</time></trkpt><trkpt lat="45.5513367" lon="10.4843583"><ele>261.0</ele><time>2026-03-29T07:10:25.459Z</time></trkpt><trkpt lat="45.5514733" lon="10.4843917"><ele>263.0</ele><time>2026-03-29T07:10:26.459Z</time></trkpt><trkpt lat="45.55161" lon="10.4844433"><ele>265.0</ele><time>2026-03-29T07:10:27.459Z</time></trkpt><trkpt lat="45.5517433" lon="10.4845"><ele>265.0</ele><time>2026-03-29T07:10:28.458Z</time></trkpt><trkpt lat="45.5518583" lon="10.48457"><ele>265.0</ele><time>2026-03-29T07:10:29.459Z</time></trkpt><trkpt lat="45.5519617" lon="10.4846333"><ele>265.0</ele><time>2026-03-29T07:10:30.459Z</time></trkpt><trkpt lat="45.55206" lon="10.4846933"><ele>265.0</ele><time>2026-03-29T07:10:31.459Z</time></trkpt><trkpt lat="45.5521617" lon="10.4847483"><ele>264.4</ele><time>2026-03-29T07:10:32.459Z</time></trkpt><trkpt lat="45.552255" lon="10.4848167"><ele>263.8</ele><time>2026-03-29T07:10:33.459Z</time></trkpt><trkpt lat="45.5523483" lon="10.4848783"><ele>263.2</ele><time>2026-03-29T07:10:34.459Z</time></trkpt><trkpt lat="45.552435" lon="10.484925"><ele>262.6</ele><time>2026-03-29T07:10:35.459Z</time></trkpt><trkpt lat="45.5525133" lon="10.4849617"><ele>262.0</ele><time>2026-03-29T07:10:36.459Z</time></trkpt><trkpt lat="45.552585" lon="10.48498"><ele>262.0</ele><time>2026-03-29T07:10:37.459Z</time></trkpt><trkpt lat="45.552685" lon="10.48497"><ele>262.0</ele><time>2026-03-29T07:10:39.458Z</time></trkpt><trkpt lat="45.5527533" lon="10.484865"><ele>262.0</ele><time>2026-03-29T07:10:41.458Z</time></trkpt><trkpt lat="45.5528083" lon="10.4847783"><ele>262.0</ele><time>2026-03-29T07:10:43.459Z</time></trkpt><trkpt lat="45.5529117" lon="10.4847967"><ele>262.0</ele><time>2026-03-29T07:10:45.458Z</time></trkpt><trkpt lat="45.552985" lon="10.4848283"><ele>262.0</ele><time>2026-03-29T07:10:46.459Z</time></trkpt><trkpt lat="45.553045" lon="10.4848583"><ele>262.0</ele><time>2026-03-29T07:10:47.459Z</time></trkpt><trkpt lat="45.5531133" lon="10.4848867"><ele>262.0</ele><time>2026-03-29T07:10:49.459Z</time></trkpt><trkpt lat="45.552975" lon="10.4848167"><ele>262.0</ele><time>2026-03-29T07:11:08.459Z</time></trkpt><trkpt lat="45.5529033" lon="10.4847967"><ele>262.0</ele><time>2026-03-29T07:11:09.459Z</time></trkpt><trkpt lat="45.5527783" lon="10.48475"><ele>262.0</ele><time>2026-03-29T07:11:11.459Z</time></trkpt><trkpt lat="45.5527167" lon="10.4847233"><ele>262.0</ele><time>2026-03-29T07:11:12.459Z</time></trkpt><trkpt lat="45.5526483" lon="10.4847"><ele>262.0</ele><time>2026-03-29T07:11:13.459Z</time></trkpt><trkpt lat="45.5525817" lon="10.4846717"><ele>262.0</ele><time>2026-03-29T07:11:14.459Z</time></trkpt><trkpt lat="45.5525067" lon="10.4846333"><ele>262.0</ele><time>2026-03-29T07:11:15.459Z</time></trkpt><trkpt lat="45.5524317" lon="10.48461"><ele>262.0</ele><time>2026-03-29T07:11:16.459Z</time></trkpt><trkpt lat="45.552365" lon="10.4845667"><ele>262.0</ele><time>2026-03-29T07:11:17.459Z</time></trkpt><trkpt lat="45.5523017" lon="10.4845283"><ele>262.5</ele><time>2026-03-29T07:11:18.459Z</time></trkpt><trkpt lat="45.5522383" lon="10.4845017"><ele>263.0</ele><time>2026-03-29T07:11:19.458Z</time></trkpt><trkpt lat="45.5521733" lon="10.4844533"><ele>263.5</ele><time>2026-03-29T07:11:20.459Z</time></trkpt><trkpt lat="45.552115" lon="10.4843883"><ele>264.0</ele><time>2026-03-29T07:11:21.459Z</time></trkpt><trkpt lat="45.5520533" lon="10.48431"><ele>264.5</ele><time>2026-03-29T07:11:22.459Z</time></trkpt><trkpt lat="45.5519883" lon="10.48422"><ele>265.0</ele><time>2026-03-29T07:11:23.459Z</time></trkpt><trkpt lat="45.5519217" lon="10.4841383"><ele>265.0</ele><time>2026-03-29T07:11:24.459Z</time></trkpt><trkpt lat="45.5518583" lon="10.4840467"><ele>265.0</ele><time>2026-03-29T07:11:25.459Z</time></trkpt><trkpt lat="45.551805" lon="10.4839733"><ele>265.0</ele><time>2026-03-29T07:11:26.458Z</time></trkpt><trkpt lat="45.551745" lon="10.483875"><ele>265.0</ele><time>2026-03-29T07:11:27.459Z</time></trkpt><trkpt lat="45.5516917" lon="10.4837683"><ele>265.0</ele><time>2026-03-29T07:11:28.459Z</time></trkpt><trkpt lat="45.5516317" lon="10.483645"><ele>266.2</ele><time>2026-03-29T07:11:29.459Z</time></trkpt><trkpt lat="45.5515717" lon="10.483515"><ele>267.4</ele><time>2026-03-29T07:11:30.459Z</time></trkpt><trkpt lat="45.551525" lon="10.4833833"><ele>268.6</ele><time>2026-03-29T07:11:31.459Z</time></trkpt><trkpt lat="45.551485" lon="10.4832467"><ele>269.8</ele><time>2026-03-29T07:11:32.459Z</time></trkpt><trkpt lat="45.5514433" lon="10.4830917"><ele>271.0</ele><time>2026-03-29T07:11:33.459Z</time></trkpt><trkpt lat="45.5513983" lon="10.482935"><ele>271.40000000000003</ele><time>2026-03-29T07:11:34.459Z</time></trkpt><trkpt lat="45.5513583" lon="10.4827633"><ele>271.8</ele><time>2026-03-29T07:11:35.459Z</time></trkpt><trkpt lat="45.5513133" lon="10.4826167"><ele>272.20000000000005</ele><time>2026-03-29T07:11:36.459Z</time></trkpt><trkpt lat="45.5512583" lon="10.4824867"><ele>272.6</ele><time>2026-03-29T07:11:37.459Z</time></trkpt><trkpt lat="45.5512017" lon="10.4823833"><ele>273.0</ele><time>2026-03-29T07:11:38.459Z</time></trkpt><trkpt lat="45.55113" lon="10.48227"><ele>272.25</ele><time>2026-03-29T07:11:39.458Z</time></trkpt><trkpt lat="45.551045" lon="10.4821433"><ele>271.5</ele><time>2026-03-29T07:11:40.459Z</time></trkpt><trkpt lat="45.5509483" lon="10.4820233"><ele>270.75</ele><time>2026-03-29T07:11:41.458Z</time></trkpt><trkpt lat="45.550855" lon="10.4819017"><ele>270.0</ele><time>2026-03-29T07:11:42.459Z</time></trkpt><trkpt lat="45.55076" lon="10.4817983"><ele>270.0</ele><time>2026-03-29T07:11:43.459Z</time></trkpt><trkpt lat="45.55066" lon="10.4816967"><ele>270.0</ele><time>2026-03-29T07:11:44.458Z</time></trkpt><trkpt lat="45.5505683" lon="10.4816083"><ele>270.0</ele><time>2026-03-29T07:11:45.459Z</time></trkpt><trkpt lat="45.5504833" lon="10.481525"><ele>270.0</ele><time>2026-03-29T07:11:46.459Z</time></trkpt><trkpt lat="45.5504017" lon="10.4814417"><ele>270.0</ele><time>2026-03-29T07:11:47.459Z</time></trkpt><trkpt lat="45.55031" lon="10.4813467"><ele>270.0</ele><time>2026-03-29T07:11:48.459Z</time></trkpt><trkpt lat="45.55022" lon="10.48125"><ele>270.0</ele><time>2026-03-29T07:11:49.459Z</time></trkpt><trkpt lat="45.5501267" lon="10.4811683"><ele>270.0</ele><time>2026-03-29T07:11:50.459Z</time></trkpt><trkpt lat="45.5500383" lon="10.481085"><ele>270.0</ele><time>2026-03-29T07:11:51.459Z</time></trkpt><trkpt lat="45.54994" lon="10.4810167"><ele>270.0</ele><time>2026-03-29T07:11:52.459Z</time></trkpt><trkpt lat="45.5498333" lon="10.480955"><ele>270.0</ele><time>2026-03-29T07:11:53.459Z</time></trkpt><trkpt lat="45.5497167" lon="10.4808933"><ele>270.0</ele><time>2026-03-29T07:11:54.459Z</time></trkpt><trkpt lat="45.549595" lon="10.48084"><ele>270.0</ele><time>2026-03-29T07:11:55.459Z</time></trkpt><trkpt lat="45.5494817" lon="10.4807883"><ele>270.0</ele><time>2026-03-29T07:11:56.458Z</time></trkpt><trkpt lat="45.5493783" lon="10.48074"><ele>269.6</ele><time>2026-03-29T07:11:57.459Z</time></trkpt><trkpt lat="45.54927" lon="10.4806883"><ele>269.2</ele><time>2026-03-29T07:11:58.459Z</time></trkpt><trkpt lat="45.549155" lon="10.48064"><ele>268.8</ele><time>2026-03-29T07:11:59.459Z</time></trkpt><trkpt lat="45.5490567" lon="10.4805917"><ele>268.4</ele><time>2026-03-29T07:12:00.459Z</time></trkpt><trkpt lat="45.5489867" lon="10.4805567"><ele>268.0</ele><time>2026-03-29T07:12:01.458Z</time></trkpt><trkpt lat="45.548925" lon="10.4804967"><ele>268.6</ele><time>2026-03-29T07:12:03.459Z</time></trkpt><trkpt lat="45.5489283" lon="10.480345"><ele>269.20000000000005</ele><time>2026-03-29T07:12:06.459Z</time></trkpt><trkpt lat="45.5489217" lon="10.4802467"><ele>269.8</ele><time>2026-03-29T07:12:07.459Z</time></trkpt><trkpt lat="45.548895" lon="10.480125"><ele>270.40000000000003</ele><time>2026-03-29T07:12:08.459Z</time></trkpt><trkpt lat="45.5488433" lon="10.4800117"><ele>271.0</ele><time>2026-03-29T07:12:09.459Z</time></trkpt><trkpt lat="45.5487667" lon="10.4798883"><ele>270.0</ele><time>2026-03-29T07:12:10.459Z</time></trkpt><trkpt lat="45.548695" lon="10.4797633"><ele>269.0</ele><time>2026-03-29T07:12:11.459Z</time></trkpt><trkpt lat="45.5486333" lon="10.4796233"><ele>268.0</ele><time>2026-03-29T07:12:12.459Z</time></trkpt><trkpt lat="45.5485767" lon="10.47946"><ele>267.0</ele><time>2026-03-29T07:12:13.459Z</time></trkpt><trkpt lat="45.5485233" lon="10.4792933"><ele>267.0</ele><time>2026-03-29T07:12:14.459Z</time></trkpt><trkpt lat="45.5484667" lon="10.47913"><ele>267.0</ele><time>2026-03-29T07:12:15.459Z</time></trkpt><trkpt lat="45.5484183" lon="10.47897"><ele>267.0</ele><time>2026-03-29T07:12:16.459Z</time></trkpt><trkpt lat="45.54838" lon="10.4788167"><ele>267.0</ele><time>2026-03-29T07:12:17.459Z</time></trkpt><trkpt lat="45.5483433" lon="10.478665"><ele>267.25</ele><time>2026-03-29T07:12:18.459Z</time></trkpt><trkpt lat="45.5482967" lon="10.4785233"><ele>267.5</ele><time>2026-03-29T07:12:19.458Z</time></trkpt><trkpt lat="45.5482333" lon="10.478385"><ele>267.75</ele><time>2026-03-29T07:12:20.459Z</time></trkpt><trkpt lat="45.5481683" lon="10.4782367"><ele>268.0</ele><time>2026-03-29T07:12:21.459Z</time></trkpt><trkpt lat="45.5481033" lon="10.4781083"><ele>268.0</ele><time>2026-03-29T07:12:22.459Z</time></trkpt><trkpt lat="45.54804" lon="10.4779967"><ele>268.0</ele><time>2026-03-29T07:12:23.459Z</time></trkpt><trkpt lat="45.547985" lon="10.4778667"><ele>268.0</ele><time>2026-03-29T07:12:24.459Z</time></trkpt><trkpt lat="45.54793" lon="10.4777333"><ele>268.0</ele><time>2026-03-29T07:12:25.459Z</time></trkpt><trkpt lat="45.5478783" lon="10.47759"><ele>268.0</ele><time>2026-03-29T07:12:26.459Z</time></trkpt><trkpt lat="45.5478233" lon="10.477445"><ele>269.8</ele><time>2026-03-29T07:12:27.459Z</time></trkpt><trkpt lat="45.5477733" lon="10.47731"><ele>271.6</ele><time>2026-03-29T07:12:28.459Z</time></trkpt><trkpt lat="45.5477267" lon="10.4771717"><ele>273.4</ele><time>2026-03-29T07:12:29.459Z</time></trkpt><trkpt lat="45.5476717" lon="10.4770333"><ele>275.2</ele><time>2026-03-29T07:12:30.459Z</time></trkpt><trkpt lat="45.5476117" lon="10.4769017"><ele>277.0</ele><time>2026-03-29T07:12:31.459Z</time></trkpt><trkpt lat="45.547565" lon="10.47678"><ele>277.66666666666663</ele><time>2026-03-29T07:12:32.459Z</time></trkpt><trkpt lat="45.5475183" lon="10.4766683"><ele>278.3333333333333</ele><time>2026-03-29T07:12:33.459Z</time></trkpt><trkpt lat="45.5474617" lon="10.4765683"><ele>279.0</ele><time>2026-03-29T07:12:34.459Z</time></trkpt><trkpt lat="45.5474" lon="10.4764833"><ele>279.6666666666667</ele><time>2026-03-29T07:12:35.458Z</time></trkpt><trkpt lat="45.5473333" lon="10.4764017"><ele>280.33333333333337</ele><time>2026-03-29T07:12:36.459Z</time></trkpt><trkpt lat="45.54727" lon="10.4763333"><ele>281.0</ele><time>2026-03-29T07:12:37.459Z</time></trkpt><trkpt lat="45.5472" lon="10.4762617"><ele>281.83333333333337</ele><time>2026-03-29T07:12:38.459Z</time></trkpt><trkpt lat="45.5471417" lon="10.476185"><ele>282.6666666666667</ele><time>2026-03-29T07:12:39.459Z</time></trkpt><trkpt lat="45.5470867" lon="10.47609"><ele>283.5</ele><time>2026-03-29T07:12:40.458Z</time></trkpt><trkpt lat="45.547025" lon="10.4759917"><ele>284.3333333333333</ele><time>2026-03-29T07:12:41.459Z</time></trkpt><trkpt lat="45.5469717" lon="10.4758817"><ele>285.16666666666663</ele><time>2026-03-29T07:12:42.459Z</time></trkpt><trkpt lat="45.5469217" lon="10.475765"><ele>286.0</ele><time>2026-03-29T07:12:43.459Z</time></trkpt><trkpt lat="45.546875" lon="10.4756383"><ele>285.8333333333333</ele><time>2026-03-29T07:12:44.459Z</time></trkpt><trkpt lat="45.5468167" lon="10.4755283"><ele>285.66666666666663</ele><time>2026-03-29T07:12:45.459Z</time></trkpt><trkpt lat="45.5467483" lon="10.475435"><ele>285.5</ele><time>2026-03-29T07:12:46.459Z</time></trkpt><trkpt lat="45.546675" lon="10.4753567"><ele>285.3333333333333</ele><time>2026-03-29T07:12:47.458Z</time></trkpt><trkpt lat="45.5466133" lon="10.4752933"><ele>285.1666666666667</ele><time>2026-03-29T07:12:48.458Z</time></trkpt><trkpt lat="45.5465483" lon="10.4752233"><ele>285.0</ele><time>2026-03-29T07:12:49.459Z</time></trkpt><trkpt lat="45.5464817" lon="10.4751467"><ele>285.0</ele><time>2026-03-29T07:12:50.459Z</time></trkpt><trkpt lat="45.5464317" lon="10.4750633"><ele>285.0</ele><time>2026-03-29T07:12:51.459Z</time></trkpt><trkpt lat="45.5463767" lon="10.4749967"><ele>285.0</ele><time>2026-03-29T07:12:52.459Z</time></trkpt><trkpt lat="45.5463367" lon="10.4749083"><ele>285.0</ele><time>2026-03-29T07:12:53.459Z</time></trkpt><trkpt lat="45.546295" lon="10.4748283"><ele>285.0</ele><time>2026-03-29T07:12:54.459Z</time></trkpt><trkpt lat="45.546245" lon="10.4747567"><ele>285.0</ele><time>2026-03-29T07:12:55.459Z</time></trkpt><trkpt lat="45.5462117" lon="10.47468"><ele>285.0</ele><time>2026-03-29T07:12:56.459Z</time></trkpt><trkpt lat="45.54619" lon="10.4745817"><ele>284.8</ele><time>2026-03-29T07:12:57.459Z</time></trkpt><trkpt lat="45.5461833" lon="10.4744717"><ele>284.6</ele><time>2026-03-29T07:12:58.459Z</time></trkpt><trkpt lat="45.5462067" lon="10.47434"><ele>284.4</ele><time>2026-03-29T07:12:59.459Z</time></trkpt><trkpt lat="45.54625" lon="10.4741917"><ele>284.2</ele><time>2026-03-29T07:13:00.459Z</time></trkpt><trkpt lat="45.5463283" lon="10.4740183"><ele>284.0</ele><time>2026-03-29T07:13:01.459Z</time></trkpt><trkpt lat="45.5464117" lon="10.47384"><ele>281.75</ele><time>2026-03-29T07:13:02.459Z</time></trkpt><trkpt lat="45.5464783" lon="10.473695"><ele>279.5</ele><time>2026-03-29T07:13:03.459Z</time></trkpt><trkpt lat="45.5465367" lon="10.4735683"><ele>277.25</ele><time>2026-03-29T07:13:04.459Z</time></trkpt><trkpt lat="45.5465917" lon="10.473445"><ele>275.0</ele><time>2026-03-29T07:13:05.459Z</time></trkpt><trkpt lat="45.54666" lon="10.4732917"><ele>275.0</ele><time>2026-03-29T07:13:06.459Z</time></trkpt><trkpt lat="45.5467333" lon="10.473115"><ele>275.0</ele><time>2026-03-29T07:13:07.459Z</time></trkpt><trkpt lat="45.5468217" lon="10.472925"><ele>275.0</ele><time>2026-03-29T07:13:08.459Z</time></trkpt><trkpt lat="45.5468933" lon="10.472755"><ele>275.0</ele><time>2026-03-29T07:13:09.459Z</time></trkpt><trkpt lat="45.5469667" lon="10.4726083"><ele>274.2</ele><time>2026-03-29T07:13:10.459Z</time></trkpt><trkpt lat="45.5470567" lon="10.4724983"><ele>273.4</ele><time>2026-03-29T07:13:11.459Z</time></trkpt><trkpt lat="45.54714" lon="10.4724133"><ele>272.6</ele><time>2026-03-29T07:13:12.459Z</time></trkpt><trkpt lat="45.5472167" lon="10.472365"><ele>271.8</ele><time>2026-03-29T07:13:13.458Z</time></trkpt><trkpt lat="45.5472933" lon="10.4723867"><ele>271.0</ele><time>2026-03-29T07:13:14.459Z</time></trkpt><trkpt lat="45.54739" lon="10.4724333"><ele>271.0</ele><time>2026-03-29T07:13:15.459Z</time></trkpt><trkpt lat="45.54751" lon="10.4725183"><ele>271.0</ele><time>2026-03-29T07:13:16.459Z</time></trkpt><trkpt lat="45.5476733" lon="10.472645"><ele>271.0</ele><time>2026-03-29T07:13:17.459Z</time></trkpt><trkpt lat="45.5478583" lon="10.47277"><ele>271.66666666666663</ele><time>2026-03-29T07:13:18.459Z</time></trkpt><trkpt lat="45.5480267" lon="10.4728817"><ele>272.3333333333333</ele><time>2026-03-29T07:13:19.459Z</time></trkpt><trkpt lat="45.5481683" lon="10.4729733"><ele>273.0</ele><time>2026-03-29T07:13:20.459Z</time></trkpt><trkpt lat="45.5482983" lon="10.4730783"><ele>276.0</ele><time>2026-03-29T07:13:21.459Z</time></trkpt><trkpt lat="45.54844" lon="10.4731917"><ele>279.0</ele><time>2026-03-29T07:13:22.459Z</time></trkpt><trkpt lat="45.5485767" lon="10.47331"><ele>282.0</ele><time>2026-03-29T07:13:23.459Z</time></trkpt><trkpt lat="45.5487217" lon="10.4734317"><ele>282.0</ele><time>2026-03-29T07:13:24.459Z</time></trkpt><trkpt lat="45.5488667" lon="10.4735667"><ele>282.0</ele><time>2026-03-29T07:13:25.459Z</time></trkpt><trkpt lat="45.54901" lon="10.47369"><ele>282.0</ele><time>2026-03-29T07:13:26.459Z</time></trkpt><trkpt lat="45.5491417" lon="10.4738"><ele>284.6666666666667</ele><time>2026-03-29T07:13:27.459Z</time></trkpt><trkpt lat="45.54927" lon="10.4739233"><ele>287.33333333333337</ele><time>2026-03-29T07:13:28.459Z</time></trkpt><trkpt lat="45.54941" lon="10.4740567"><ele>290.0</ele><time>2026-03-29T07:13:29.458Z</time></trkpt><trkpt lat="45.5495367" lon="10.4742233"><ele>288.6666666666667</ele><time>2026-03-29T07:13:30.459Z</time></trkpt><trkpt lat="45.5496633" lon="10.4743983"><ele>287.3333333333333</ele><time>2026-03-29T07:13:31.458Z</time></trkpt><trkpt lat="45.54982" lon="10.474565"><ele>286.0</ele><time>2026-03-29T07:13:32.459Z</time></trkpt><trkpt lat="45.5499817" lon="10.4747083"><ele>287.0</ele><time>2026-03-29T07:13:33.459Z</time></trkpt><trkpt lat="45.5501533" lon="10.4748417"><ele>288.0</ele><time>2026-03-29T07:13:34.459Z</time></trkpt><trkpt lat="45.5503017" lon="10.474985"><ele>289.0</ele><time>2026-03-29T07:13:35.459Z</time></trkpt><trkpt lat="45.5504583" lon="10.4751533"><ele>289.0</ele><time>2026-03-29T07:13:36.459Z</time></trkpt><trkpt lat="45.5505933" lon="10.47534"><ele>289.0</ele><time>2026-03-29T07:13:37.459Z</time></trkpt><trkpt lat="45.5507317" lon="10.4755317"><ele>289.0</ele><time>2026-03-29T07:13:38.459Z</time></trkpt><trkpt lat="45.5508933" lon="10.47572"><ele>290.66666666666663</ele><time>2026-03-29T07:13:39.459Z</time></trkpt><trkpt lat="45.551075" lon="10.4758733"><ele>292.3333333333333</ele><time>2026-03-29T07:13:40.459Z</time></trkpt><trkpt lat="45.551265" lon="10.4760167"><ele>294.0</ele><time>2026-03-29T07:13:41.458Z</time></trkpt><trkpt lat="45.5514683" lon="10.4761583"><ele>297.5</ele><time>2026-03-29T07:13:42.459Z</time></trkpt><trkpt lat="45.5516767" lon="10.4763017"><ele>301.0</ele><time>2026-03-29T07:13:43.459Z</time></trkpt><trkpt lat="45.5518883" lon="10.47645"><ele>300.66666666666663</ele><time>2026-03-29T07:13:44.459Z</time></trkpt><trkpt lat="45.55208" lon="10.476605"><ele>300.3333333333333</ele><time>2026-03-29T07:13:45.459Z</time></trkpt><trkpt lat="45.5522433" lon="10.4767533"><ele>300.0</ele><time>2026-03-29T07:13:46.459Z</time></trkpt><trkpt lat="45.5523833" lon="10.4769083"><ele>300.0</ele><time>2026-03-29T07:13:47.459Z</time></trkpt><trkpt lat="45.552515" lon="10.4770783"><ele>300.0</ele><time>2026-03-29T07:13:48.459Z</time></trkpt><trkpt lat="45.55266" lon="10.4772517"><ele>300.0</ele><time>2026-03-29T07:13:49.458Z</time></trkpt><trkpt lat="45.5528167" lon="10.4774117"><ele>301.6666666666667</ele><time>2026-03-29T07:13:50.459Z</time></trkpt><trkpt lat="45.5529783" lon="10.4775783"><ele>303.33333333333337</ele><time>2026-03-29T07:13:51.459Z</time></trkpt><trkpt lat="45.553115" lon="10.4777417"><ele>305.0</ele><time>2026-03-29T07:13:52.459Z</time></trkpt><trkpt lat="45.5532583" lon="10.4779167"><ele>308.0</ele><time>2026-03-29T07:13:53.459Z</time></trkpt><trkpt lat="45.5533967" lon="10.4781083"><ele>311.0</ele><time>2026-03-29T07:13:54.459Z</time></trkpt><trkpt lat="45.5535083" lon="10.4782983"><ele>314.0</ele><time>2026-03-29T07:13:55.459Z</time></trkpt><trkpt lat="45.553595" lon="10.4784433"><ele>314.0</ele><time>2026-03-29T07:13:56.459Z</time></trkpt><trkpt lat="45.5536783" lon="10.47858"><ele>314.0</ele><time>2026-03-29T07:13:57.459Z</time></trkpt><trkpt lat="45.5537433" lon="10.4787167"><ele>314.0</ele><time>2026-03-29T07:13:58.459Z</time></trkpt><trkpt lat="45.5537983" lon="10.4788583"><ele>314.0</ele><time>2026-03-29T07:13:59.459Z</time></trkpt><trkpt lat="45.5538467" lon="10.478995"><ele>313.75</ele><time>2026-03-29T07:14:00.459Z</time></trkpt><trkpt lat="45.5538833" lon="10.479125"><ele>313.5</ele><time>2026-03-29T07:14:01.458Z</time></trkpt><trkpt lat="45.5539083" lon="10.4792617"><ele>313.25</ele><time>2026-03-29T07:14:02.459Z</time></trkpt><trkpt lat="45.5539317" lon="10.479435"><ele>313.0</ele><time>2026-03-29T07:14:03.459Z</time></trkpt><trkpt lat="45.5539533" lon="10.479645"><ele>314.3333333333333</ele><time>2026-03-29T07:14:04.458Z</time></trkpt><trkpt lat="45.5539833" lon="10.47988"><ele>315.6666666666667</ele><time>2026-03-29T07:14:05.458Z</time></trkpt><trkpt lat="45.5540183" lon="10.4801117"><ele>317.0</ele><time>2026-03-29T07:14:06.459Z</time></trkpt><trkpt lat="45.554085" lon="10.4803267"><ele>318.0</ele><time>2026-03-29T07:14:07.459Z</time></trkpt><trkpt lat="45.55416" lon="10.4805133"><ele>319.0</ele><time>2026-03-29T07:14:08.459Z</time></trkpt><trkpt lat="45.5542183" lon="10.480695"><ele>320.0</ele><time>2026-03-29T07:14:09.459Z</time></trkpt><trkpt lat="45.5542617" lon="10.480865"><ele>321.0</ele><time>2026-03-29T07:14:10.458Z</time></trkpt><trkpt lat="45.554285" lon="10.4810233"><ele>321.0</ele><time>2026-03-29T07:14:11.459Z</time></trkpt><trkpt lat="45.5543" lon="10.4811433"><ele>321.0</ele><time>2026-03-29T07:14:12.458Z</time></trkpt><trkpt lat="45.5543067" lon="10.4812433"><ele>321.0</ele><time>2026-03-29T07:14:13.459Z</time></trkpt><trkpt lat="45.5543417" lon="10.4813217"><ele>321.0</ele><time>2026-03-29T07:14:14.459Z</time></trkpt><trkpt lat="45.5543967" lon="10.4813917"><ele>321.0</ele><time>2026-03-29T07:14:15.459Z</time></trkpt><trkpt lat="45.554465" lon="10.4814567"><ele>321.0</ele><time>2026-03-29T07:14:16.459Z</time></trkpt><trkpt lat="45.5545517" lon="10.4815383"><ele>320.8333333333333</ele><time>2026-03-29T07:14:17.459Z</time></trkpt><trkpt lat="45.55463" lon="10.4816083"><ele>320.6666666666667</ele><time>2026-03-29T07:14:18.459Z</time></trkpt><trkpt lat="45.554705" lon="10.4816617"><ele>320.5</ele><time>2026-03-29T07:14:19.459Z</time></trkpt><trkpt lat="45.5547733" lon="10.4817083"><ele>320.33333333333337</ele><time>2026-03-29T07:14:20.459Z</time></trkpt><trkpt lat="45.5548433" lon="10.481755"><ele>320.1666666666667</ele><time>2026-03-29T07:14:21.459Z</time></trkpt><trkpt lat="45.5549167" lon="10.481815"><ele>320.0</ele><time>2026-03-29T07:14:22.459Z</time></trkpt><trkpt lat="45.5549833" lon="10.4818883"><ele>320.0</ele><time>2026-03-29T07:14:23.459Z</time></trkpt><trkpt lat="45.5550533" lon="10.4819617"><ele>320.0</ele><time>2026-03-29T07:14:24.459Z</time></trkpt><trkpt lat="45.5551183" lon="10.4820583"><ele>320.0</ele><time>2026-03-29T07:14:25.459Z</time></trkpt><trkpt lat="45.5551867" lon="10.4821467"><ele>320.0</ele><time>2026-03-29T07:14:26.459Z</time></trkpt><trkpt lat="45.5552667" lon="10.4822417"><ele>320.0</ele><time>2026-03-29T07:14:27.459Z</time></trkpt><trkpt lat="45.5553567" lon="10.482325"><ele>321.0</ele><time>2026-03-29T07:14:28.458Z</time></trkpt><trkpt lat="45.5554567" lon="10.4824033"><ele>322.0</ele><time>2026-03-29T07:14:29.458Z</time></trkpt><trkpt lat="45.5555533" lon="10.4824717"><ele>323.0</ele><time>2026-03-29T07:14:30.459Z</time></trkpt><trkpt lat="45.55565" lon="10.4825233"><ele>324.0</ele><time>2026-03-29T07:14:31.459Z</time></trkpt><trkpt lat="45.55575" lon="10.48256"><ele>325.0</ele><time>2026-03-29T07:14:32.459Z</time></trkpt><trkpt lat="45.5558567" lon="10.4825967"><ele>325.0</ele><time>2026-03-29T07:14:33.459Z</time></trkpt><trkpt lat="45.5559517" lon="10.4826483"><ele>325.0</ele><time>2026-03-29T07:14:34.459Z</time></trkpt><trkpt lat="45.5560567" lon="10.4826883"><ele>325.0</ele><time>2026-03-29T07:14:35.459Z</time></trkpt><trkpt lat="45.5561617" lon="10.48273"><ele>325.0</ele><time>2026-03-29T07:14:36.459Z</time></trkpt><trkpt lat="45.5562683" lon="10.48278"><ele>325.0</ele><time>2026-03-29T07:14:37.459Z</time></trkpt><trkpt lat="45.5563767" lon="10.4828383"><ele>326.0</ele><time>2026-03-29T07:14:38.459Z</time></trkpt><trkpt lat="45.55649" lon="10.4828983"><ele>327.0</ele><time>2026-03-29T07:14:39.459Z</time></trkpt><trkpt lat="45.5565983" lon="10.482965"><ele>328.0</ele><time>2026-03-29T07:14:40.459Z</time></trkpt><trkpt lat="45.55671" lon="10.48302"><ele>329.0</ele><time>2026-03-29T07:14:41.459Z</time></trkpt><trkpt lat="45.5568183" lon="10.4830633"><ele>329.75</ele><time>2026-03-29T07:14:42.459Z</time></trkpt><trkpt lat="45.5569233" lon="10.4830917"><ele>330.5</ele><time>2026-03-29T07:14:43.459Z</time></trkpt><trkpt lat="45.557045" lon="10.4831017"><ele>331.25</ele><time>2026-03-29T07:14:44.459Z</time></trkpt><trkpt lat="45.557165" lon="10.4831167"><ele>332.0</ele><time>2026-03-29T07:14:45.459Z</time></trkpt><trkpt lat="45.5572817" lon="10.4831317"><ele>332.0</ele><time>2026-03-29T07:14:46.459Z</time></trkpt><trkpt lat="45.5574067" lon="10.483145"><ele>332.0</ele><time>2026-03-29T07:14:47.459Z</time></trkpt><trkpt lat="45.5575533" lon="10.48315"><ele>332.0</ele><time>2026-03-29T07:14:48.459Z</time></trkpt><trkpt lat="45.5577133" lon="10.4831567"><ele>332.0</ele><time>2026-03-29T07:14:49.459Z</time></trkpt><trkpt lat="45.55788" lon="10.483165"><ele>331.33333333333337</ele><time>2026-03-29T07:14:50.459Z</time></trkpt><trkpt lat="45.5580417" lon="10.4831967"><ele>330.6666666666667</ele><time>2026-03-29T07:14:51.459Z</time></trkpt><trkpt lat="45.55821" lon="10.48322"><ele>330.0</ele><time>2026-03-29T07:14:52.459Z</time></trkpt><trkpt lat="45.5583767" lon="10.4832567"><ele>330.0</ele><time>2026-03-29T07:14:53.459Z</time></trkpt><trkpt lat="45.5585417" lon="10.4832833"><ele>330.0</ele><time>2026-03-29T07:14:54.459Z</time></trkpt><trkpt lat="45.5587183" lon="10.48331"><ele>330.0</ele><time>2026-03-29T07:14:55.459Z</time></trkpt><trkpt lat="45.5588967" lon="10.4833467"><ele>329.6666666666667</ele><time>2026-03-29T07:14:56.459Z</time></trkpt><trkpt lat="45.5590817" lon="10.4833883"><ele>329.33333333333337</ele><time>2026-03-29T07:14:57.459Z</time></trkpt><trkpt lat="45.55926" lon="10.483425"><ele>329.0</ele><time>2026-03-29T07:14:58.459Z</time></trkpt><trkpt lat="45.559425" lon="10.4834483"><ele>328.25</ele><time>2026-03-29T07:14:59.459Z</time></trkpt><trkpt lat="45.5595667" lon="10.483475"><ele>327.5</ele><time>2026-03-29T07:15:00.458Z</time></trkpt><trkpt lat="45.559705" lon="10.4834967"><ele>326.75</ele><time>2026-03-29T07:15:01.459Z</time></trkpt><trkpt lat="45.55985" lon="10.483505"><ele>326.0</ele><time>2026-03-29T07:15:02.459Z</time></trkpt><trkpt lat="45.5599983" lon="10.4835067"><ele>326.0</ele><time>2026-03-29T07:15:03.459Z</time></trkpt><trkpt lat="45.5601483" lon="10.4834917"><ele>326.0</ele><time>2026-03-29T07:15:04.459Z</time></trkpt><trkpt lat="45.560305" lon="10.4834567"><ele>326.0</ele><time>2026-03-29T07:15:05.459Z</time></trkpt><trkpt lat="45.5604517" lon="10.48341"><ele>325.5</ele><time>2026-03-29T07:15:06.459Z</time></trkpt><trkpt lat="45.5605883" lon="10.4833333"><ele>325.0</ele><time>2026-03-29T07:15:07.459Z</time></trkpt><trkpt lat="45.5607183" lon="10.483255"><ele>324.5</ele><time>2026-03-29T07:15:08.459Z</time></trkpt><trkpt lat="45.56084" lon="10.48317"><ele>324.0</ele><time>2026-03-29T07:15:09.459Z</time></trkpt><trkpt lat="45.56094" lon="10.4830917"><ele>324.0</ele><time>2026-03-29T07:15:10.459Z</time></trkpt><trkpt lat="45.5610517" lon="10.483035"><ele>324.0</ele><time>2026-03-29T07:15:11.459Z</time></trkpt><trkpt lat="45.5611567" lon="10.4829867"><ele>324.0</ele><time>2026-03-29T07:15:12.459Z</time></trkpt><trkpt lat="45.5612433" lon="10.4829483"><ele>324.0</ele><time>2026-03-29T07:15:13.459Z</time></trkpt><trkpt lat="45.5613083" lon="10.4829067"><ele>324.0</ele><time>2026-03-29T07:15:14.459Z</time></trkpt><trkpt lat="45.5613567" lon="10.4827917"><ele>324.0</ele><time>2026-03-29T07:15:16.459Z</time></trkpt><trkpt lat="45.5613067" lon="10.4826267"><ele>324.0</ele><time>2026-03-29T07:15:18.459Z</time></trkpt><trkpt lat="45.5612417" lon="10.482495"><ele>324.0</ele><time>2026-03-29T07:15:19.458Z</time></trkpt><trkpt lat="45.56116" lon="10.4823067"><ele>324.0</ele><time>2026-03-29T07:15:20.459Z</time></trkpt><trkpt lat="45.5610683" lon="10.4820683"><ele>323.6666666666667</ele><time>2026-03-29T07:15:21.459Z</time></trkpt><trkpt lat="45.560965" lon="10.481825"><ele>323.33333333333337</ele><time>2026-03-29T07:15:22.459Z</time></trkpt><trkpt lat="45.560855" lon="10.4816033"><ele>323.0</ele><time>2026-03-29T07:15:23.459Z</time></trkpt><trkpt lat="45.5607283" lon="10.4814167"><ele>325.6666666666667</ele><time>2026-03-29T07:15:24.458Z</time></trkpt><trkpt lat="45.5605783" lon="10.4812583"><ele>328.3333333333333</ele><time>2026-03-29T07:15:25.459Z</time></trkpt><trkpt lat="45.5603983" lon="10.481135"><ele>331.0</ele><time>2026-03-29T07:15:26.459Z</time></trkpt><trkpt lat="45.5602167" lon="10.4810483"><ele>332.5</ele><time>2026-03-29T07:15:27.458Z</time></trkpt><trkpt lat="45.5600617" lon="10.48097"><ele>334.0</ele><time>2026-03-29T07:15:28.459Z</time></trkpt><trkpt lat="45.559935" lon="10.480905"><ele>335.5</ele><time>2026-03-29T07:15:29.458Z</time></trkpt><trkpt lat="45.5598267" lon="10.48081"><ele>337.0</ele><time>2026-03-29T07:15:30.458Z</time></trkpt><trkpt lat="45.5597383" lon="10.4806717"><ele>337.0</ele><time>2026-03-29T07:15:31.459Z</time></trkpt><trkpt lat="45.5596767" lon="10.4804983"><ele>337.0</ele><time>2026-03-29T07:15:32.459Z</time></trkpt><trkpt lat="45.55964" lon="10.480315"><ele>337.0</ele><time>2026-03-29T07:15:33.459Z</time></trkpt><trkpt lat="45.55963" lon="10.480085"><ele>337.0</ele><time>2026-03-29T07:15:34.459Z</time></trkpt><trkpt lat="45.559635" lon="10.479845"><ele>338.25</ele><time>2026-03-29T07:15:35.459Z</time></trkpt><trkpt lat="45.5596367" lon="10.4796317"><ele>339.5</ele><time>2026-03-29T07:15:36.459Z</time></trkpt><trkpt lat="45.559655" lon="10.4794317"><ele>340.75</ele><time>2026-03-29T07:15:37.459Z</time></trkpt><trkpt lat="45.5596983" lon="10.4792233"><ele>342.0</ele><time>2026-03-29T07:15:38.459Z</time></trkpt><trkpt lat="45.5597633" lon="10.4790133"><ele>342.0</ele><time>2026-03-29T07:15:39.458Z</time></trkpt><trkpt lat="45.5598317" lon="10.478795"><ele>342.0</ele><time>2026-03-29T07:15:40.459Z</time></trkpt><trkpt lat="45.5599017" lon="10.4785917"><ele>342.0</ele><time>2026-03-29T07:15:41.459Z</time></trkpt><trkpt lat="45.559955" lon="10.4783883"><ele>340.6666666666667</ele><time>2026-03-29T07:15:42.459Z</time></trkpt><trkpt lat="45.5599967" lon="10.4781567"><ele>339.33333333333337</ele><time>2026-03-29T07:15:43.459Z</time></trkpt><trkpt lat="45.5600083" lon="10.4778817"><ele>338.0</ele><time>2026-03-29T07:15:44.459Z</time></trkpt><trkpt lat="45.5600017" lon="10.47761"><ele>337.5</ele><time>2026-03-29T07:15:45.459Z</time></trkpt><trkpt lat="45.5599933" lon="10.47737"><ele>337.0</ele><time>2026-03-29T07:15:46.459Z</time></trkpt><trkpt lat="45.55999" lon="10.4771583"><ele>336.5</ele><time>2026-03-29T07:15:47.459Z</time></trkpt><trkpt lat="45.5599833" lon="10.47697"><ele>336.0</ele><time>2026-03-29T07:15:48.459Z</time></trkpt><trkpt lat="45.5599867" lon="10.4768067"><ele>334.25</ele><time>2026-03-29T07:15:49.459Z</time></trkpt><trkpt lat="45.560015" lon="10.476655"><ele>332.5</ele><time>2026-03-29T07:15:50.459Z</time></trkpt><trkpt lat="45.56007" lon="10.4765017"><ele>330.75</ele><time>2026-03-29T07:15:51.458Z</time></trkpt><trkpt lat="45.5601383" lon="10.47635"><ele>329.0</ele><time>2026-03-29T07:15:52.458Z</time></trkpt><trkpt lat="45.5602017" lon="10.4761917"><ele>327.2</ele><time>2026-03-29T07:15:53.459Z</time></trkpt><trkpt lat="45.5602817" lon="10.4760367"><ele>325.4</ele><time>2026-03-29T07:15:54.459Z</time></trkpt><trkpt lat="45.56036" lon="10.475895"><ele>323.6</ele><time>2026-03-29T07:15:55.459Z</time></trkpt><trkpt lat="45.5604233" lon="10.4757867"><ele>321.8</ele><time>2026-03-29T07:15:56.459Z</time></trkpt><trkpt lat="45.56048" lon="10.4757033"><ele>320.0</ele><time>2026-03-29T07:15:57.459Z</time></trkpt><trkpt lat="45.5605333" lon="10.4756383"><ele>320.0</ele><time>2026-03-29T07:15:58.459Z</time></trkpt><trkpt lat="45.5606217" lon="10.4756383"><ele>320.0</ele><time>2026-03-29T07:16:00.459Z</time></trkpt><trkpt lat="45.5607367" lon="10.475695"><ele>320.0</ele><time>2026-03-29T07:16:02.459Z</time></trkpt><trkpt lat="45.56082" lon="10.47577"><ele>320.0</ele><time>2026-03-29T07:16:03.459Z</time></trkpt><trkpt lat="45.5609233" lon="10.4758417"><ele>320.0</ele><time>2026-03-29T07:16:04.459Z</time></trkpt><trkpt lat="45.56104" lon="10.4759217"><ele>320.0</ele><time>2026-03-29T07:16:05.459Z</time></trkpt><trkpt lat="45.5611883" lon="10.47601"><ele>320.0</ele><time>2026-03-29T07:16:06.459Z</time></trkpt><trkpt lat="45.561325" lon="10.4761067"><ele>320.0</ele><time>2026-03-29T07:16:07.459Z</time></trkpt><trkpt lat="45.561425" lon="10.47615"><ele>320.0</ele><time>2026-03-29T07:16:08.459Z</time></trkpt><trkpt lat="45.56151" lon="10.4762267"><ele>323.4</ele><time>2026-03-29T07:16:09.459Z</time></trkpt><trkpt lat="45.5615967" lon="10.476315"><ele>326.8</ele><time>2026-03-29T07:16:10.458Z</time></trkpt><trkpt lat="45.56167" lon="10.4764333"><ele>330.20000000000005</ele><time>2026-03-29T07:16:11.459Z</time></trkpt><trkpt lat="45.561725" lon="10.4765667"><ele>333.6</ele><time>2026-03-29T07:16:12.459Z</time></trkpt><trkpt lat="45.5617983" lon="10.4766717"><ele>337.0</ele><time>2026-03-29T07:16:13.459Z</time></trkpt><trkpt lat="45.56189" lon="10.476765"><ele>337.0</ele><time>2026-03-29T07:16:14.459Z</time></trkpt><trkpt lat="45.5620083" lon="10.476845"><ele>337.0</ele><time>2026-03-29T07:16:15.459Z</time></trkpt><trkpt lat="45.56212" lon="10.47691"><ele>337.0</ele><time>2026-03-29T07:16:16.459Z</time></trkpt><trkpt lat="45.5622217" lon="10.4769433"><ele>337.0</ele><time>2026-03-29T07:16:17.458Z</time></trkpt><trkpt lat="45.5623117" lon="10.4769317"><ele>337.0</ele><time>2026-03-29T07:16:18.459Z</time></trkpt><trkpt lat="45.5623917" lon="10.4768817"><ele>337.75</ele><time>2026-03-29T07:16:19.459Z</time></trkpt><trkpt lat="45.56247" lon="10.4768083"><ele>338.5</ele><time>2026-03-29T07:16:20.459Z</time></trkpt><trkpt lat="45.56257" lon="10.476715"><ele>339.25</ele><time>2026-03-29T07:16:21.459Z</time></trkpt><trkpt lat="45.562685" lon="10.4766067"><ele>340.0</ele><time>2026-03-29T07:16:22.459Z</time></trkpt><trkpt lat="45.5628067" lon="10.476485"><ele>341.25</ele><time>2026-03-29T07:16:23.459Z</time></trkpt><trkpt lat="45.5629133" lon="10.4763867"><ele>342.5</ele><time>2026-03-29T07:16:24.459Z</time></trkpt><trkpt lat="45.5630133" lon="10.4763"><ele>343.75</ele><time>2026-03-29T07:16:25.459Z</time></trkpt><trkpt lat="45.5631083" lon="10.476225"><ele>345.0</ele><time>2026-03-29T07:16:26.459Z</time></trkpt><trkpt lat="45.5631983" lon="10.4761633"><ele>343.0</ele><time>2026-03-29T07:16:27.459Z</time></trkpt><trkpt lat="45.5632917" lon="10.4760867"><ele>341.0</ele><time>2026-03-29T07:16:28.459Z</time></trkpt><trkpt lat="45.5633883" lon="10.4760067"><ele>339.0</ele><time>2026-03-29T07:16:29.459Z</time></trkpt><trkpt lat="45.5634867" lon="10.4759167"><ele>337.0</ele><time>2026-03-29T07:16:30.459Z</time></trkpt><trkpt lat="45.5635817" lon="10.4758467"><ele>335.0</ele><time>2026-03-29T07:16:31.459Z</time></trkpt><trkpt lat="45.5636667" lon="10.4757817"><ele>335.0</ele><time>2026-03-29T07:16:32.459Z</time></trkpt><trkpt lat="45.5637433" lon="10.4757167"><ele>335.0</ele><time>2026-03-29T07:16:33.458Z</time></trkpt><trkpt lat="45.563815" lon="10.4756583"><ele>335.0</ele><time>2026-03-29T07:16:34.459Z</time></trkpt><trkpt lat="45.56388" lon="10.4755867"><ele>335.0</ele><time>2026-03-29T07:16:35.459Z</time></trkpt><trkpt lat="45.5639317" lon="10.4755217"><ele>335.0</ele><time>2026-03-29T07:16:36.459Z</time></trkpt><trkpt lat="45.5640067" lon="10.4754833"><ele>335.0</ele><time>2026-03-29T07:16:38.459Z</time></trkpt><trkpt lat="45.5640883" lon="10.475525"><ele>335.0</ele><time>2026-03-29T07:16:40.459Z</time></trkpt><trkpt lat="45.56418" lon="10.4756517"><ele>335.0</ele><time>2026-03-29T07:16:42.458Z</time></trkpt><trkpt lat="45.5642183" lon="10.475745"><ele>335.0</ele><time>2026-03-29T07:16:43.458Z</time></trkpt><trkpt lat="45.5642617" lon="10.4758733"><ele>335.0</ele><time>2026-03-29T07:16:44.459Z</time></trkpt><trkpt lat="45.56431" lon="10.4760033"><ele>335.0</ele><time>2026-03-29T07:16:45.459Z</time></trkpt><trkpt lat="45.564355" lon="10.4761267"><ele>335.0</ele><time>2026-03-29T07:16:46.458Z</time></trkpt><trkpt lat="45.5643967" lon="10.4762533"><ele>335.0</ele><time>2026-03-29T07:16:47.459Z</time></trkpt><trkpt lat="45.5644383" lon="10.4763817"><ele>335.0</ele><time>2026-03-29T07:16:48.459Z</time></trkpt><trkpt lat="45.5644783" lon="10.47651"><ele>335.0</ele><time>2026-03-29T07:16:49.459Z</time></trkpt><trkpt lat="45.56453" lon="10.4766333"><ele>335.0</ele><time>2026-03-29T07:16:50.459Z</time></trkpt><trkpt lat="45.5645817" lon="10.476765"><ele>335.2</ele><time>2026-03-29T07:16:51.459Z</time></trkpt><trkpt lat="45.5646367" lon="10.476885"><ele>335.4</ele><time>2026-03-29T07:16:52.459Z</time></trkpt><trkpt lat="45.564675" lon="10.477025"><ele>335.6</ele><time>2026-03-29T07:16:53.458Z</time></trkpt><trkpt lat="45.5646983" lon="10.4771683"><ele>335.8</ele><time>2026-03-29T07:16:54.459Z</time></trkpt><trkpt lat="45.5647167" lon="10.477305"><ele>336.0</ele><time>2026-03-29T07:16:55.459Z</time></trkpt><trkpt lat="45.56473" lon="10.4774117"><ele>336.0</ele><time>2026-03-29T07:16:56.459Z</time></trkpt><trkpt lat="45.5647383" lon="10.4775017"><ele>336.0</ele><time>2026-03-29T07:16:57.458Z</time></trkpt><trkpt lat="45.5647183" lon="10.477625"><ele>336.0</ele><time>2026-03-29T07:16:59.459Z</time></trkpt><trkpt lat="45.5646667" lon="10.4777183"><ele>336.0</ele><time>2026-03-29T07:17:01.459Z</time></trkpt><trkpt lat="45.5645583" lon="10.4778"><ele>336.0</ele><time>2026-03-29T07:17:03.459Z</time></trkpt><trkpt lat="45.56449" lon="10.4778467"><ele>336.0</ele><time>2026-03-29T07:17:04.459Z</time></trkpt><trkpt lat="45.5644183" lon="10.477915"><ele>336.85714285714283</ele><time>2026-03-29T07:17:05.459Z</time></trkpt><trkpt lat="45.564365" lon="10.4780083"><ele>337.7142857142857</ele><time>2026-03-29T07:17:06.458Z</time></trkpt><trkpt lat="45.5643267" lon="10.4780883"><ele>338.57142857142856</ele><time>2026-03-29T07:17:07.459Z</time></trkpt><trkpt lat="45.5643017" lon="10.47819"><ele>339.42857142857144</ele><time>2026-03-29T07:17:08.459Z</time></trkpt><trkpt lat="45.5642883" lon="10.4782783"><ele>340.2857142857143</ele><time>2026-03-29T07:17:09.459Z</time></trkpt><trkpt lat="45.5642983" lon="10.4783733"><ele>341.1428571428571</ele><time>2026-03-29T07:17:10.459Z</time></trkpt><trkpt lat="45.56433" lon="10.4784683"><ele>342.0</ele><time>2026-03-29T07:17:11.458Z</time></trkpt><trkpt lat="45.5644017" lon="10.4785667"><ele>342.0</ele><time>2026-03-29T07:17:12.459Z</time></trkpt><trkpt lat="45.5644883" lon="10.47866"><ele>342.0</ele><time>2026-03-29T07:17:13.458Z</time></trkpt><trkpt lat="45.5645967" lon="10.4787567"><ele>342.0</ele><time>2026-03-29T07:17:14.459Z</time></trkpt><trkpt lat="45.564745" lon="10.4788567"><ele>342.0</ele><time>2026-03-29T07:17:15.459Z</time></trkpt><trkpt lat="45.5648767" lon="10.4789433"><ele>342.5</ele><time>2026-03-29T07:17:16.459Z</time></trkpt><trkpt lat="45.565" lon="10.4790067"><ele>343.0</ele><time>2026-03-29T07:17:17.459Z</time></trkpt><trkpt lat="45.5651133" lon="10.47905"><ele>343.5</ele><time>2026-03-29T07:17:18.459Z</time></trkpt><trkpt lat="45.5652367" lon="10.4790683"><ele>344.0</ele><time>2026-03-29T07:17:19.459Z</time></trkpt><trkpt lat="45.565365" lon="10.4790817"><ele>344.5</ele><time>2026-03-29T07:17:20.459Z</time></trkpt><trkpt lat="45.5654917" lon="10.4790683"><ele>345.0</ele><time>2026-03-29T07:17:21.459Z</time></trkpt><trkpt lat="45.565615" lon="10.47905"><ele>345.5</ele><time>2026-03-29T07:17:22.459Z</time></trkpt><trkpt lat="45.5657283" lon="10.4790383"><ele>346.0</ele><time>2026-03-29T07:17:23.459Z</time></trkpt><trkpt lat="45.5658317" lon="10.4790217"><ele>346.0</ele><time>2026-03-29T07:17:24.459Z</time></trkpt><trkpt lat="45.56594" lon="10.4789917"><ele>346.0</ele><time>2026-03-29T07:17:25.459Z</time></trkpt><trkpt lat="45.56605" lon="10.4789483"><ele>346.0</ele><time>2026-03-29T07:17:26.459Z</time></trkpt><trkpt lat="45.5661633" lon="10.4789117"><ele>346.0</ele><time>2026-03-29T07:17:27.459Z</time></trkpt><trkpt lat="45.5662683" lon="10.4788717"><ele>346.0</ele><time>2026-03-29T07:17:28.459Z</time></trkpt><trkpt lat="45.5663717" lon="10.478835"><ele>345.6</ele><time>2026-03-29T07:17:29.459Z</time></trkpt><trkpt lat="45.5664617" lon="10.4788"><ele>345.20000000000005</ele><time>2026-03-29T07:17:30.459Z</time></trkpt><trkpt lat="45.5665517" lon="10.4787717"><ele>344.79999999999995</ele><time>2026-03-29T07:17:31.459Z</time></trkpt><trkpt lat="45.56664" lon="10.4787583"><ele>344.4</ele><time>2026-03-29T07:17:32.459Z</time></trkpt><trkpt lat="45.5667517" lon="10.4787583"><ele>344.0</ele><time>2026-03-29T07:17:33.459Z</time></trkpt><trkpt lat="45.566835" lon="10.4787567"><ele>344.0</ele><time>2026-03-29T07:17:34.459Z</time></trkpt><trkpt lat="45.5669417" lon="10.4787367"><ele>344.0</ele><time>2026-03-29T07:17:35.459Z</time></trkpt><trkpt lat="45.567045" lon="10.4787133"><ele>344.0</ele><time>2026-03-29T07:17:36.458Z</time></trkpt><trkpt lat="45.56713" lon="10.478685"><ele>344.0</ele><time>2026-03-29T07:17:37.458Z</time></trkpt><trkpt lat="45.567215" lon="10.4786683"><ele>344.0</ele><time>2026-03-29T07:17:38.459Z</time></trkpt><trkpt lat="45.5672917" lon="10.4786483"><ele>344.6666666666667</ele><time>2026-03-29T07:17:39.458Z</time></trkpt><trkpt lat="45.5673783" lon="10.4786367"><ele>345.33333333333337</ele><time>2026-03-29T07:17:40.459Z</time></trkpt><trkpt lat="45.5674433" lon="10.4786233"><ele>346.0</ele><time>2026-03-29T07:17:41.459Z</time></trkpt><trkpt lat="45.5675667" lon="10.47861"><ele>346.6666666666667</ele><time>2026-03-29T07:17:43.458Z</time></trkpt><trkpt lat="45.5676467" lon="10.47861"><ele>347.3333333333333</ele><time>2026-03-29T07:17:44.459Z</time></trkpt><trkpt lat="45.5677367" lon="10.4786233"><ele>348.0</ele><time>2026-03-29T07:17:45.459Z</time></trkpt><trkpt lat="45.56783" lon="10.47864"><ele>348.5</ele><time>2026-03-29T07:17:46.458Z</time></trkpt><trkpt lat="45.56791" lon="10.478655"><ele>349.0</ele><time>2026-03-29T07:17:47.459Z</time></trkpt><trkpt lat="45.5679783" lon="10.4786617"><ele>349.5</ele><time>2026-03-29T07:17:48.459Z</time></trkpt><trkpt lat="45.568105" lon="10.4786783"><ele>350.0</ele><time>2026-03-29T07:17:50.459Z</time></trkpt><trkpt lat="45.568175" lon="10.4786833"><ele>350.5</ele><time>2026-03-29T07:17:51.459Z</time></trkpt><trkpt lat="45.5682517" lon="10.47869"><ele>351.0</ele><time>2026-03-29T07:17:52.458Z</time></trkpt><trkpt lat="45.5683733" lon="10.4787033"><ele>351.0</ele><time>2026-03-29T07:17:54.459Z</time></trkpt><trkpt lat="45.5684467" lon="10.4787117"><ele>351.0</ele><time>2026-03-29T07:17:55.459Z</time></trkpt><trkpt lat="45.568525" lon="10.4787133"><ele>351.0</ele><time>2026-03-29T07:17:56.458Z</time></trkpt><trkpt lat="45.5686333" lon="10.4787217"><ele>351.0</ele><time>2026-03-29T07:17:58.459Z</time></trkpt><trkpt lat="45.5688017" lon="10.4787733"><ele>351.0</ele><time>2026-03-29T07:18:12.459Z</time></trkpt><trkpt lat="45.568855" lon="10.4788817"><ele>351.1666666666667</ele><time>2026-03-29T07:18:14.459Z</time></trkpt><trkpt lat="45.5688833" lon="10.479"><ele>351.3333333333333</ele><time>2026-03-29T07:18:16.459Z</time></trkpt><trkpt lat="45.5688967" lon="10.4791217"><ele>351.5</ele><time>2026-03-29T07:18:18.459Z</time></trkpt><trkpt lat="45.568915" lon="10.4792483"><ele>351.66666666666663</ele><time>2026-03-29T07:18:20.459Z</time></trkpt><trkpt lat="45.5689417" lon="10.47934"><ele>351.8333333333333</ele><time>2026-03-29T07:18:22.459Z</time></trkpt><trkpt lat="45.56899" lon="10.47942"><ele>352.0</ele><time>2026-03-29T07:18:24.459Z</time></trkpt><trkpt lat="45.5690433" lon="10.47948"><ele>352.0</ele><time>2026-03-29T07:18:26.459Z</time></trkpt><trkpt lat="45.56911" lon="10.47953"><ele>352.0</ele><time>2026-03-29T07:18:28.459Z</time></trkpt><trkpt lat="45.56918" lon="10.4795733"><ele>352.0</ele><time>2026-03-29T07:18:30.459Z</time></trkpt><trkpt lat="45.5692467" lon="10.479645"><ele>352.0</ele><time>2026-03-29T07:18:32.459Z</time></trkpt><trkpt lat="45.56932" lon="10.4797817"><ele>352.0</ele><time>2026-03-29T07:18:34.459Z</time></trkpt><trkpt lat="45.5693683" lon="10.4798767"><ele>352.0</ele><time>2026-03-29T07:18:35.459Z</time></trkpt><trkpt lat="45.5694117" lon="10.4799617"><ele>350.5</ele><time>2026-03-29T07:18:36.459Z</time></trkpt><trkpt lat="45.569455" lon="10.4800367"><ele>349.0</ele><time>2026-03-29T07:18:37.458Z</time></trkpt><trkpt lat="45.569535" lon="10.4801233"><ele>347.5</ele><time>2026-03-29T07:18:39.459Z</time></trkpt><trkpt lat="45.56963" lon="10.4801883"><ele>346.0</ele><time>2026-03-29T07:18:41.459Z</time></trkpt><trkpt lat="45.56969" lon="10.48023"><ele>344.5</ele><time>2026-03-29T07:18:42.459Z</time></trkpt><trkpt lat="45.5697583" lon="10.4802783"><ele>343.0</ele><time>2026-03-29T07:18:43.459Z</time></trkpt><trkpt lat="45.56982" lon="10.4803217"><ele>342.5</ele><time>2026-03-29T07:18:44.459Z</time></trkpt><trkpt lat="45.5698867" lon="10.4803667"><ele>342.0</ele><time>2026-03-29T07:18:45.459Z</time></trkpt><trkpt lat="45.569955" lon="10.480415"><ele>341.5</ele><time>2026-03-29T07:18:46.458Z</time></trkpt><trkpt lat="45.5700233" lon="10.4804483"><ele>341.0</ele><time>2026-03-29T07:18:47.459Z</time></trkpt><trkpt lat="45.5701317" lon="10.4804867"><ele>340.5</ele><time>2026-03-29T07:18:49.459Z</time></trkpt><trkpt lat="45.5702117" lon="10.48052"><ele>340.0</ele><time>2026-03-29T07:18:51.459Z</time></trkpt><trkpt lat="45.570305" lon="10.4805517"><ele>336.0</ele><time>2026-03-29T07:18:53.458Z</time></trkpt><trkpt lat="45.5703967" lon="10.48058"><ele>332.0</ele><time>2026-03-29T07:18:55.459Z</time></trkpt><trkpt lat="45.57049" lon="10.4806117"><ele>328.0</ele><time>2026-03-29T07:18:57.459Z</time></trkpt><trkpt lat="45.5706117" lon="10.48066"><ele>324.0</ele><time>2026-03-29T07:18:59.458Z</time></trkpt><trkpt lat="45.5706733" lon="10.4806967"><ele>320.0</ele><time>2026-03-29T07:19:00.459Z</time></trkpt><trkpt lat="45.570735" lon="10.4807417"><ele>320.0</ele><time>2026-03-29T07:19:01.459Z</time></trkpt><trkpt lat="45.5707917" lon="10.4807867"><ele>320.0</ele><time>2026-03-29T07:19:02.459Z</time></trkpt><trkpt lat="45.5708467" lon="10.4808367"><ele>320.0</ele><time>2026-03-29T07:19:03.459Z</time></trkpt><trkpt lat="45.5709417" lon="10.4809133"><ele>320.0</ele><time>2026-03-29T07:19:05.459Z</time></trkpt><trkpt lat="45.5710017" lon="10.4810017"><ele>320.0</ele><time>2026-03-29T07:19:07.459Z</time></trkpt><trkpt lat="45.571005" lon="10.48114"><ele>320.0</ele><time>2026-03-29T07:19:09.459Z</time></trkpt><trkpt lat="45.5709233" lon="10.4812667"><ele>317.83333333333337</ele><time>2026-03-29T07:19:11.459Z</time></trkpt><trkpt lat="45.5708633" lon="10.481315"><ele>315.6666666666667</ele><time>2026-03-29T07:19:12.459Z</time></trkpt><trkpt lat="45.570785" lon="10.4813617"><ele>313.5</ele><time>2026-03-29T07:19:13.459Z</time></trkpt><trkpt lat="45.570695" lon="10.481415"><ele>311.3333333333333</ele><time>2026-03-29T07:19:14.459Z</time></trkpt><trkpt lat="45.5706267" lon="10.4814733"><ele>309.16666666666663</ele><time>2026-03-29T07:19:15.458Z</time></trkpt><trkpt lat="45.5705817" lon="10.481555"><ele>307.0</ele><time>2026-03-29T07:19:16.459Z</time></trkpt><trkpt lat="45.5705433" lon="10.4816733"><ele>307.0</ele><time>2026-03-29T07:19:17.459Z</time></trkpt><trkpt lat="45.5705267" lon="10.481845"><ele>307.0</ele><time>2026-03-29T07:19:18.459Z</time></trkpt><trkpt lat="45.5705183" lon="10.4820167"><ele>307.0</ele><time>2026-03-29T07:19:19.459Z</time></trkpt><trkpt lat="45.5705033" lon="10.4821683"><ele>307.0</ele><time>2026-03-29T07:19:20.459Z</time></trkpt><trkpt lat="45.5704967" lon="10.4822833"><ele>307.0</ele><time>2026-03-29T07:19:21.459Z</time></trkpt><trkpt lat="45.57049" lon="10.4824333"><ele>306.5</ele><time>2026-03-29T07:19:23.459Z</time></trkpt><trkpt lat="45.5705933" lon="10.4825067"><ele>306.0</ele><time>2026-03-29T07:19:25.459Z</time></trkpt><trkpt lat="45.570685" lon="10.482515"><ele>305.5</ele><time>2026-03-29T07:19:26.459Z</time></trkpt><trkpt lat="45.5708" lon="10.48251"><ele>305.0</ele><time>2026-03-29T07:19:27.459Z</time></trkpt><trkpt lat="45.5709567" lon="10.4825117"><ele>305.0</ele><time>2026-03-29T07:19:28.458Z</time></trkpt><trkpt lat="45.571135" lon="10.4825217"><ele>305.0</ele><time>2026-03-29T07:19:29.459Z</time></trkpt><trkpt lat="45.5713033" lon="10.4825383"><ele>305.0</ele><time>2026-03-29T07:19:30.459Z</time></trkpt><trkpt lat="45.571465" lon="10.482545"><ele>303.75</ele><time>2026-03-29T07:19:31.458Z</time></trkpt><trkpt lat="45.5716017" lon="10.4825617"><ele>302.5</ele><time>2026-03-29T07:19:32.458Z</time></trkpt><trkpt lat="45.5717283" lon="10.4825633"><ele>301.25</ele><time>2026-03-29T07:19:33.459Z</time></trkpt><trkpt lat="45.57185" lon="10.4825683"><ele>300.0</ele><time>2026-03-29T07:19:34.459Z</time></trkpt><trkpt lat="45.5719667" lon="10.4825617"><ele>299.5</ele><time>2026-03-29T07:19:35.459Z</time></trkpt><trkpt lat="45.5720683" lon="10.48256"><ele>299.0</ele><time>2026-03-29T07:19:36.459Z</time></trkpt><trkpt lat="45.5721783" lon="10.4825617"><ele>298.5</ele><time>2026-03-29T07:19:37.458Z</time></trkpt><trkpt lat="45.5722967" lon="10.4825667"><ele>298.0</ele><time>2026-03-29T07:19:38.459Z</time></trkpt><trkpt lat="45.572435" lon="10.48256"><ele>298.0</ele><time>2026-03-29T07:19:39.459Z</time></trkpt><trkpt lat="45.57258" lon="10.482575"><ele>298.0</ele><time>2026-03-29T07:19:40.459Z</time></trkpt><trkpt lat="45.5727233" lon="10.4825817"><ele>298.0</ele><time>2026-03-29T07:19:41.459Z</time></trkpt><trkpt lat="45.5728767" lon="10.4825783"><ele>298.0</ele><time>2026-03-29T07:19:42.459Z</time></trkpt><trkpt lat="45.5730267" lon="10.4825817"><ele>296.0</ele><time>2026-03-29T07:19:43.459Z</time></trkpt><trkpt lat="45.5732" lon="10.4826083"><ele>294.0</ele><time>2026-03-29T07:19:44.459Z</time></trkpt><trkpt lat="45.5733683" lon="10.482625"><ele>292.0</ele><time>2026-03-29T07:19:45.458Z</time></trkpt><trkpt lat="45.5735333" lon="10.4826433"><ele>290.66666666666663</ele><time>2026-03-29T07:19:46.459Z</time></trkpt><trkpt lat="45.5737033" lon="10.4826483"><ele>289.3333333333333</ele><time>2026-03-29T07:19:47.459Z</time></trkpt><trkpt lat="45.5738633" lon="10.4826567"><ele>288.0</ele><time>2026-03-29T07:19:48.459Z</time></trkpt><trkpt lat="45.5740233" lon="10.48265"><ele>288.0</ele><time>2026-03-29T07:19:49.459Z</time></trkpt><trkpt lat="45.5741817" lon="10.4826467"><ele>288.0</ele><time>2026-03-29T07:19:50.458Z</time></trkpt><trkpt lat="45.574355" lon="10.4826517"><ele>288.0</ele><time>2026-03-29T07:19:51.459Z</time></trkpt><trkpt lat="45.5745433" lon="10.48267"><ele>288.6666666666667</ele><time>2026-03-29T07:19:52.459Z</time></trkpt><trkpt lat="45.5747483" lon="10.4826667"><ele>289.33333333333337</ele><time>2026-03-29T07:19:53.459Z</time></trkpt><trkpt lat="45.5749417" lon="10.48265"><ele>290.0</ele><time>2026-03-29T07:19:54.459Z</time></trkpt><trkpt lat="45.5751383" lon="10.4826233"><ele>290.0</ele><time>2026-03-29T07:19:55.459Z</time></trkpt><trkpt lat="45.5753183" lon="10.482585"><ele>290.0</ele><time>2026-03-29T07:19:56.459Z</time></trkpt><trkpt lat="45.575495" lon="10.48255"><ele>290.0</ele><time>2026-03-29T07:19:57.459Z</time></trkpt><trkpt lat="45.5756533" lon="10.4825133"><ele>288.6666666666667</ele><time>2026-03-29T07:19:58.458Z</time></trkpt><trkpt lat="45.5758167" lon="10.482475"><ele>287.3333333333333</ele><time>2026-03-29T07:19:59.459Z</time></trkpt><trkpt lat="45.5759783" lon="10.4824533"><ele>286.0</ele><time>2026-03-29T07:20:00.459Z</time></trkpt><trkpt lat="45.5761433" lon="10.4824217"><ele>285.3333333333333</ele><time>2026-03-29T07:20:01.459Z</time></trkpt><trkpt lat="45.5763133" lon="10.482405"><ele>284.6666666666667</ele><time>2026-03-29T07:20:02.459Z</time></trkpt><trkpt lat="45.5765083" lon="10.4823833"><ele>284.0</ele><time>2026-03-29T07:20:03.459Z</time></trkpt><trkpt lat="45.5766933" lon="10.482365"><ele>284.0</ele><time>2026-03-29T07:20:04.458Z</time></trkpt><trkpt lat="45.5768633" lon="10.4823483"><ele>284.0</ele><time>2026-03-29T07:20:05.459Z</time></trkpt><trkpt lat="45.5770267" lon="10.4823167"><ele>284.0</ele><time>2026-03-29T07:20:06.459Z</time></trkpt><trkpt lat="45.5771883" lon="10.4823017"><ele>283.33333333333337</ele><time>2026-03-29T07:20:07.459Z</time></trkpt><trkpt lat="45.5773483" lon="10.4822883"><ele>282.6666666666667</ele><time>2026-03-29T07:20:08.459Z</time></trkpt><trkpt lat="45.5775167" lon="10.482285"><ele>282.0</ele><time>2026-03-29T07:20:09.459Z</time></trkpt><trkpt lat="45.5776933" lon="10.482285"><ele>280.6666666666667</ele><time>2026-03-29T07:20:10.459Z</time></trkpt><trkpt lat="45.5778633" lon="10.4822883"><ele>279.33333333333337</ele><time>2026-03-29T07:20:11.459Z</time></trkpt><trkpt lat="45.5780467" lon="10.4822917"><ele>278.0</ele><time>2026-03-29T07:20:12.459Z</time></trkpt><trkpt lat="45.5782433" lon="10.4822967"><ele>278.0</ele><time>2026-03-29T07:20:13.458Z</time></trkpt><trkpt lat="45.578445" lon="10.4822933"><ele>278.0</ele><time>2026-03-29T07:20:14.458Z</time></trkpt><trkpt lat="45.57865" lon="10.4822983"><ele>278.0</ele><time>2026-03-29T07:20:15.459Z</time></trkpt><trkpt lat="45.57884" lon="10.4822983"><ele>277.0</ele><time>2026-03-29T07:20:16.459Z</time></trkpt><trkpt lat="45.5790183" lon="10.482305"><ele>276.0</ele><time>2026-03-29T07:20:17.459Z</time></trkpt><trkpt lat="45.579195" lon="10.4823167"><ele>275.0</ele><time>2026-03-29T07:20:18.459Z</time></trkpt><trkpt lat="45.5793733" lon="10.48234"><ele>274.0</ele><time>2026-03-29T07:20:19.459Z</time></trkpt><trkpt lat="45.5795617" lon="10.4823867"><ele>273.0</ele><time>2026-03-29T07:20:20.459Z</time></trkpt><trkpt lat="45.57977" lon="10.482455"><ele>272.0</ele><time>2026-03-29T07:20:21.459Z</time></trkpt><trkpt lat="45.579985" lon="10.4825417"><ele>272.0</ele><time>2026-03-29T07:20:22.459Z</time></trkpt><trkpt lat="45.5801783" lon="10.482625"><ele>272.0</ele><time>2026-03-29T07:20:23.458Z</time></trkpt><trkpt lat="45.580365" lon="10.4827067"><ele>272.0</ele><time>2026-03-29T07:20:24.459Z</time></trkpt><trkpt lat="45.5805367" lon="10.4827883"><ele>272.0</ele><time>2026-03-29T07:20:25.459Z</time></trkpt><trkpt lat="45.580695" lon="10.4828633"><ele>272.0</ele><time>2026-03-29T07:20:26.459Z</time></trkpt><trkpt lat="45.580845" lon="10.48294"><ele>272.0</ele><time>2026-03-29T07:20:27.459Z</time></trkpt><trkpt lat="45.580985" lon="10.4830167"><ele>272.4</ele><time>2026-03-29T07:20:28.459Z</time></trkpt><trkpt lat="45.5811083" lon="10.483075"><ele>272.79999999999995</ele><time>2026-03-29T07:20:29.459Z</time></trkpt><trkpt lat="45.5812167" lon="10.4831267"><ele>273.2</ele><time>2026-03-29T07:20:30.458Z</time></trkpt><trkpt lat="45.58131" lon="10.4831583"><ele>273.59999999999997</ele><time>2026-03-29T07:20:31.459Z</time></trkpt><trkpt lat="45.5813833" lon="10.4831833"><ele>274.0</ele><time>2026-03-29T07:20:32.459Z</time></trkpt><trkpt lat="45.5814717" lon="10.4831317"><ele>274.25</ele><time>2026-03-29T07:20:34.459Z</time></trkpt><trkpt lat="45.581495" lon="10.4830433"><ele>274.5</ele><time>2026-03-29T07:20:35.458Z</time></trkpt><trkpt lat="45.58152" lon="10.4829"><ele>274.75</ele><time>2026-03-29T07:20:36.459Z</time></trkpt><trkpt lat="45.5815567" lon="10.4827067"><ele>275.0</ele><time>2026-03-29T07:20:37.459Z</time></trkpt><trkpt lat="45.581615" lon="10.4824467"><ele>274.33333333333337</ele><time>2026-03-29T07:20:38.459Z</time></trkpt><trkpt lat="45.5816967" lon="10.4821617"><ele>273.6666666666667</ele><time>2026-03-29T07:20:39.459Z</time></trkpt><trkpt lat="45.5817833" lon="10.4818633"><ele>273.0</ele><time>2026-03-29T07:20:40.459Z</time></trkpt><trkpt lat="45.58187" lon="10.4815467"><ele>272.5</ele><time>2026-03-29T07:20:41.459Z</time></trkpt><trkpt lat="45.5819617" lon="10.4812267"><ele>272.0</ele><time>2026-03-29T07:20:42.459Z</time></trkpt><trkpt lat="45.5820483" lon="10.480915"><ele>273.6666666666667</ele><time>2026-03-29T07:20:43.459Z</time></trkpt><trkpt lat="45.5821283" lon="10.480645"><ele>275.3333333333333</ele><time>2026-03-29T07:20:44.459Z</time></trkpt><trkpt lat="45.5822117" lon="10.48041"><ele>277.0</ele><time>2026-03-29T07:20:45.459Z</time></trkpt><trkpt lat="45.5822817" lon="10.4801833"><ele>277.0</ele><time>2026-03-29T07:20:46.459Z</time></trkpt><trkpt lat="45.5823417" lon="10.4799683"><ele>277.0</ele><time>2026-03-29T07:20:47.459Z</time></trkpt><trkpt lat="45.582385" lon="10.4797367"><ele>277.0</ele><time>2026-03-29T07:20:48.459Z</time></trkpt><trkpt lat="45.5823933" lon="10.4795"><ele>277.0</ele><time>2026-03-29T07:20:49.459Z</time></trkpt><trkpt lat="45.5823583" lon="10.4792833"><ele>277.0</ele><time>2026-03-29T07:20:50.459Z</time></trkpt><trkpt lat="45.582315" lon="10.4790517"><ele>277.0</ele><time>2026-03-29T07:20:51.459Z</time></trkpt><trkpt lat="45.5822583" lon="10.4788283"><ele>278.66666666666663</ele><time>2026-03-29T07:20:52.459Z</time></trkpt><trkpt lat="45.5821933" lon="10.478615"><ele>280.3333333333333</ele><time>2026-03-29T07:20:53.459Z</time></trkpt><trkpt lat="45.5821117" lon="10.4783917"><ele>282.0</ele><time>2026-03-29T07:20:54.459Z</time></trkpt><trkpt lat="45.5820183" lon="10.4781817"><ele>279.6666666666667</ele><time>2026-03-29T07:20:55.459Z</time></trkpt><trkpt lat="45.5819083" lon="10.4779967"><ele>277.33333333333337</ele><time>2026-03-29T07:20:56.459Z</time></trkpt><trkpt lat="45.5817883" lon="10.4778383"><ele>275.0</ele><time>2026-03-29T07:20:57.459Z</time></trkpt><trkpt lat="45.5816683" lon="10.477705"><ele>275.0</ele><time>2026-03-29T07:20:58.459Z</time></trkpt><trkpt lat="45.5815483" lon="10.477605"><ele>275.0</ele><time>2026-03-29T07:20:59.459Z</time></trkpt><trkpt lat="45.5814367" lon="10.4775167"><ele>275.0</ele><time>2026-03-29T07:21:00.459Z</time></trkpt><trkpt lat="45.5813283" lon="10.4774133"><ele>275.0</ele><time>2026-03-29T07:21:01.459Z</time></trkpt><trkpt lat="45.5812183" lon="10.4772933"><ele>272.75</ele><time>2026-03-29T07:21:02.459Z</time></trkpt><trkpt lat="45.5811467" lon="10.4771517"><ele>270.5</ele><time>2026-03-29T07:21:03.459Z</time></trkpt><trkpt lat="45.5811183" lon="10.4769783"><ele>268.25</ele><time>2026-03-29T07:21:04.459Z</time></trkpt><trkpt lat="45.581115" lon="10.4767983"><ele>266.0</ele><time>2026-03-29T07:21:05.459Z</time></trkpt><trkpt lat="45.58112" lon="10.4765917"><ele>266.0</ele><time>2026-03-29T07:21:06.459Z</time></trkpt><trkpt lat="45.5811133" lon="10.476375"><ele>266.0</ele><time>2026-03-29T07:21:07.459Z</time></trkpt><trkpt lat="45.581115" lon="10.4761517"><ele>266.0</ele><time>2026-03-29T07:21:08.459Z</time></trkpt><trkpt lat="45.5811283" lon="10.475905"><ele>266.33333333333337</ele><time>2026-03-29T07:21:09.459Z</time></trkpt><trkpt lat="45.5811417" lon="10.4756533"><ele>266.6666666666667</ele><time>2026-03-29T07:21:10.459Z</time></trkpt><trkpt lat="45.58117" lon="10.4754"><ele>267.0</ele><time>2026-03-29T07:21:11.459Z</time></trkpt><trkpt lat="45.5812017" lon="10.47514"><ele>267.0</ele><time>2026-03-29T07:21:12.458Z</time></trkpt><trkpt lat="45.5812433" lon="10.4748933"><ele>267.0</ele><time>2026-03-29T07:21:13.459Z</time></trkpt><trkpt lat="45.581275" lon="10.4746483"><ele>267.0</ele><time>2026-03-29T07:21:14.458Z</time></trkpt><trkpt lat="45.5812933" lon="10.4743983"><ele>267.0</ele><time>2026-03-29T07:21:15.459Z</time></trkpt><trkpt lat="45.581305" lon="10.474165"><ele>267.0</ele><time>2026-03-29T07:21:16.459Z</time></trkpt><trkpt lat="45.5813017" lon="10.4739567"><ele>267.0</ele><time>2026-03-29T07:21:17.458Z</time></trkpt><trkpt lat="45.5813133" lon="10.4737533"><ele>265.0</ele><time>2026-03-29T07:21:18.459Z</time></trkpt><trkpt lat="45.5813483" lon="10.4735283"><ele>263.0</ele><time>2026-03-29T07:21:19.459Z</time></trkpt><trkpt lat="45.5814217" lon="10.4733133"><ele>261.0</ele><time>2026-03-29T07:21:20.459Z</time></trkpt><trkpt lat="45.5815167" lon="10.4731117"><ele>261.0</ele><time>2026-03-29T07:21:21.459Z</time></trkpt><trkpt lat="45.581635" lon="10.4729417"><ele>261.0</ele><time>2026-03-29T07:21:22.458Z</time></trkpt><trkpt lat="45.5817633" lon="10.4728017"><ele>261.0</ele><time>2026-03-29T07:21:23.459Z</time></trkpt><trkpt lat="45.581905" lon="10.4726817"><ele>261.6666666666667</ele><time>2026-03-29T07:21:24.459Z</time></trkpt><trkpt lat="45.5820567" lon="10.472545"><ele>262.33333333333337</ele><time>2026-03-29T07:21:25.458Z</time></trkpt><trkpt lat="45.58221" lon="10.4724117"><ele>263.0</ele><time>2026-03-29T07:21:26.459Z</time></trkpt><trkpt lat="45.5823733" lon="10.4722683"><ele>263.0</ele><time>2026-03-29T07:21:27.459Z</time></trkpt><trkpt lat="45.5825367" lon="10.47213"><ele>263.0</ele><time>2026-03-29T07:21:28.458Z</time></trkpt><trkpt lat="45.582705" lon="10.4719833"><ele>263.0</ele><time>2026-03-29T07:21:29.458Z</time></trkpt><trkpt lat="45.5828633" lon="10.471815"><ele>262.0</ele><time>2026-03-29T07:21:30.459Z</time></trkpt><trkpt lat="45.5829967" lon="10.47161"><ele>261.0</ele><time>2026-03-29T07:21:31.459Z</time></trkpt><trkpt lat="45.5831217" lon="10.471385"><ele>260.0</ele><time>2026-03-29T07:21:32.459Z</time></trkpt><trkpt lat="45.5832433" lon="10.4711733"><ele>260.0</ele><time>2026-03-29T07:21:33.459Z</time></trkpt><trkpt lat="45.5833483" lon="10.4709833"><ele>260.0</ele><time>2026-03-29T07:21:34.459Z</time></trkpt><trkpt lat="45.5834517" lon="10.4708167"><ele>260.0</ele><time>2026-03-29T07:21:35.459Z</time></trkpt><trkpt lat="45.583575" lon="10.470675"><ele>260.33333333333337</ele><time>2026-03-29T07:21:36.458Z</time></trkpt><trkpt lat="45.5837067" lon="10.4705217"><ele>260.6666666666667</ele><time>2026-03-29T07:21:37.459Z</time></trkpt><trkpt lat="45.5838617" lon="10.470395"><ele>261.0</ele><time>2026-03-29T07:21:38.459Z</time></trkpt><trkpt lat="45.58402" lon="10.47027"><ele>259.6666666666667</ele><time>2026-03-29T07:21:39.459Z</time></trkpt><trkpt lat="45.584175" lon="10.470165"><ele>258.33333333333337</ele><time>2026-03-29T07:21:40.459Z</time></trkpt><trkpt lat="45.584315" lon="10.4700667"><ele>257.0</ele><time>2026-03-29T07:21:41.459Z</time></trkpt><trkpt lat="45.58444" lon="10.4699617"><ele>257.33333333333337</ele><time>2026-03-29T07:21:42.459Z</time></trkpt><trkpt lat="45.58457" lon="10.4698583"><ele>257.6666666666667</ele><time>2026-03-29T07:21:43.458Z</time></trkpt><trkpt lat="45.58471" lon="10.4697333"><ele>258.0</ele><time>2026-03-29T07:21:44.459Z</time></trkpt><trkpt lat="45.5848433" lon="10.469585"><ele>257.0</ele><time>2026-03-29T07:21:45.459Z</time></trkpt><trkpt lat="45.5849683" lon="10.4694133"><ele>256.0</ele><time>2026-03-29T07:21:46.459Z</time></trkpt><trkpt lat="45.5850917" lon="10.4692217"><ele>255.0</ele><time>2026-03-29T07:21:47.459Z</time></trkpt><trkpt lat="45.5852133" lon="10.46902"><ele>255.0</ele><time>2026-03-29T07:21:48.459Z</time></trkpt><trkpt lat="45.585335" lon="10.4687917"><ele>255.0</ele><time>2026-03-29T07:21:49.459Z</time></trkpt><trkpt lat="45.5854317" lon="10.4685467"><ele>255.0</ele><time>2026-03-29T07:21:50.459Z</time></trkpt><trkpt lat="45.5855367" lon="10.4682933"><ele>252.66666666666669</ele><time>2026-03-29T07:21:51.459Z</time></trkpt><trkpt lat="45.5856433" lon="10.4680433"><ele>250.33333333333334</ele><time>2026-03-29T07:21:52.459Z</time></trkpt><trkpt lat="45.5857483" lon="10.4678017"><ele>248.0</ele><time>2026-03-29T07:21:53.459Z</time></trkpt><trkpt lat="45.5858567" lon="10.4675617"><ele>248.0</ele><time>2026-03-29T07:21:54.459Z</time></trkpt><trkpt lat="45.5859717" lon="10.4673333"><ele>248.0</ele><time>2026-03-29T07:21:55.459Z</time></trkpt><trkpt lat="45.58612" lon="10.4671133"><ele>248.0</ele><time>2026-03-29T07:21:56.459Z</time></trkpt><trkpt lat="45.58626" lon="10.4669017"><ele>250.33333333333334</ele><time>2026-03-29T07:21:57.459Z</time></trkpt><trkpt lat="45.5864" lon="10.466705"><ele>252.66666666666669</ele><time>2026-03-29T07:21:58.459Z</time></trkpt><trkpt lat="45.586535" lon="10.4665067"><ele>255.0</ele><time>2026-03-29T07:21:59.459Z</time></trkpt><trkpt lat="45.5866867" lon="10.4663133"><ele>256.0</ele><time>2026-03-29T07:22:00.459Z</time></trkpt><trkpt lat="45.5868133" lon="10.4661333"><ele>257.0</ele><time>2026-03-29T07:22:01.459Z</time></trkpt><trkpt lat="45.5869433" lon="10.4659533"><ele>258.0</ele><time>2026-03-29T07:22:02.459Z</time></trkpt><trkpt lat="45.5870733" lon="10.4657767"><ele>258.5</ele><time>2026-03-29T07:22:03.459Z</time></trkpt><trkpt lat="45.5871983" lon="10.4656067"><ele>259.0</ele><time>2026-03-29T07:22:04.459Z</time></trkpt><trkpt lat="45.5873" lon="10.465455"><ele>259.5</ele><time>2026-03-29T07:22:05.459Z</time></trkpt><trkpt lat="45.58738" lon="10.4653517"><ele>260.0</ele><time>2026-03-29T07:22:06.459Z</time></trkpt><trkpt lat="45.5874483" lon="10.46527"><ele>260.2</ele><time>2026-03-29T07:22:07.459Z</time></trkpt><trkpt lat="45.5875133" lon="10.4651883"><ele>260.4</ele><time>2026-03-29T07:22:08.459Z</time></trkpt><trkpt lat="45.58759" lon="10.4650717"><ele>260.6</ele><time>2026-03-29T07:22:09.459Z</time></trkpt><trkpt lat="45.5876667" lon="10.4649633"><ele>260.8</ele><time>2026-03-29T07:22:10.458Z</time></trkpt><trkpt lat="45.5877383" lon="10.4648733"><ele>261.0</ele><time>2026-03-29T07:22:11.459Z</time></trkpt><trkpt lat="45.5878" lon="10.46483"><ele>261.0</ele><time>2026-03-29T07:22:12.459Z</time></trkpt><trkpt lat="45.5878517" lon="10.4647767"><ele>261.0</ele><time>2026-03-29T07:22:13.459Z</time></trkpt><trkpt lat="45.5879083" lon="10.4646783"><ele>261.0</ele><time>2026-03-29T07:22:15.459Z</time></trkpt><trkpt lat="45.5878333" lon="10.46475"><ele>261.0</ele><time>2026-03-29T07:22:19.459Z</time></trkpt><trkpt lat="45.58785" lon="10.4649317"><ele>261.0</ele><time>2026-03-29T07:22:21.459Z</time></trkpt><trkpt lat="45.5878983" lon="10.4650483"><ele>261.8333333333333</ele><time>2026-03-29T07:22:22.459Z</time></trkpt><trkpt lat="45.587945" lon="10.46516"><ele>262.6666666666667</ele><time>2026-03-29T07:22:23.459Z</time></trkpt><trkpt lat="45.5880033" lon="10.4652633"><ele>263.5</ele><time>2026-03-29T07:22:24.459Z</time></trkpt><trkpt lat="45.5880583" lon="10.4653733"><ele>264.33333333333337</ele><time>2026-03-29T07:22:25.458Z</time></trkpt><trkpt lat="45.5881" lon="10.4654467"><ele>265.1666666666667</ele><time>2026-03-29T07:22:26.459Z</time></trkpt><trkpt lat="45.5881083" lon="10.46557"><ele>266.0</ele><time>2026-03-29T07:22:28.459Z</time></trkpt><trkpt lat="45.58808" lon="10.4656517"><ele>266.5</ele><time>2026-03-29T07:22:29.459Z</time></trkpt><trkpt lat="45.5880283" lon="10.46577"><ele>267.0</ele><time>2026-03-29T07:22:30.459Z</time></trkpt><trkpt lat="45.58793" lon="10.4659283"><ele>267.5</ele><time>2026-03-29T07:22:31.459Z</time></trkpt><trkpt lat="45.5878233" lon="10.4660917"><ele>268.0</ele><time>2026-03-29T07:22:32.459Z</time></trkpt><trkpt lat="45.5877433" lon="10.4662317"><ele>266.75</ele><time>2026-03-29T07:22:33.459Z</time></trkpt><trkpt lat="45.5876767" lon="10.4663583"><ele>265.5</ele><time>2026-03-29T07:22:34.459Z</time></trkpt><trkpt lat="45.5876233" lon="10.4665033"><ele>264.25</ele><time>2026-03-29T07:22:35.459Z</time></trkpt><trkpt lat="45.587565" lon="10.4666767"><ele>263.0</ele><time>2026-03-29T07:22:36.458Z</time></trkpt><trkpt lat="45.587515" lon="10.4668517"><ele>263.0</ele><time>2026-03-29T07:22:37.459Z</time></trkpt><trkpt lat="45.58748" lon="10.4670283"><ele>263.0</ele><time>2026-03-29T07:22:38.459Z</time></trkpt><trkpt lat="45.58746" lon="10.4671967"><ele>263.0</ele><time>2026-03-29T07:22:39.459Z</time></trkpt><trkpt lat="45.5874517" lon="10.46735"><ele>263.0</ele><time>2026-03-29T07:22:40.459Z</time></trkpt><trkpt lat="45.58746" lon="10.4674917"><ele>263.4</ele><time>2026-03-29T07:22:41.459Z</time></trkpt><trkpt lat="45.587495" lon="10.467635"><ele>263.8</ele><time>2026-03-29T07:22:42.458Z</time></trkpt><trkpt lat="45.587545" lon="10.4677717"><ele>264.2</ele><time>2026-03-29T07:22:43.459Z</time></trkpt><trkpt lat="45.5876067" lon="10.4679067"><ele>264.6</ele><time>2026-03-29T07:22:44.459Z</time></trkpt><trkpt lat="45.5876867" lon="10.4680383"><ele>265.0</ele><time>2026-03-29T07:22:45.458Z</time></trkpt><trkpt lat="45.5877917" lon="10.4681383"><ele>265.0</ele><time>2026-03-29T07:22:46.459Z</time></trkpt><trkpt lat="45.58789" lon="10.4681983"><ele>265.0</ele><time>2026-03-29T07:22:47.459Z</time></trkpt><trkpt lat="45.587965" lon="10.46826"><ele>265.0</ele><time>2026-03-29T07:22:48.459Z</time></trkpt><trkpt lat="45.5880167" lon="10.4683267"><ele>265.0</ele><time>2026-03-29T07:22:49.459Z</time></trkpt><trkpt lat="45.5880683" lon="10.4684133"><ele>265.0</ele><time>2026-03-29T07:22:50.459Z</time></trkpt><trkpt lat="45.588115" lon="10.4685333"><ele>265.0</ele><time>2026-03-29T07:22:51.459Z</time></trkpt><trkpt lat="45.5881717" lon="10.46866"><ele>263.5</ele><time>2026-03-29T07:22:52.459Z</time></trkpt><trkpt lat="45.588235" lon="10.4688"><ele>262.0</ele><time>2026-03-29T07:22:53.459Z</time></trkpt><trkpt lat="45.5882917" lon="10.4689633"><ele>260.5</ele><time>2026-03-29T07:22:54.459Z</time></trkpt><trkpt lat="45.5883483" lon="10.4691383"><ele>259.0</ele><time>2026-03-29T07:22:55.459Z</time></trkpt><trkpt lat="45.5883933" lon="10.4693167"><ele>259.0</ele><time>2026-03-29T07:22:56.459Z</time></trkpt><trkpt lat="45.588435" lon="10.46948"><ele>259.0</ele><time>2026-03-29T07:22:57.459Z</time></trkpt><trkpt lat="45.5884783" lon="10.469635"><ele>259.0</ele><time>2026-03-29T07:22:58.458Z</time></trkpt><trkpt lat="45.5885283" lon="10.4697717"><ele>259.0</ele><time>2026-03-29T07:22:59.459Z</time></trkpt><trkpt lat="45.5885767" lon="10.469895"><ele>259.0</ele><time>2026-03-29T07:23:00.459Z</time></trkpt><trkpt lat="45.5886167" lon="10.47"><ele>258.66666666666663</ele><time>2026-03-29T07:23:01.458Z</time></trkpt><trkpt lat="45.5886483" lon="10.4701"><ele>258.3333333333333</ele><time>2026-03-29T07:23:02.458Z</time></trkpt><trkpt lat="45.588675" lon="10.4702017"><ele>258.0</ele><time>2026-03-29T07:23:03.459Z</time></trkpt><trkpt lat="45.5886917" lon="10.4703183"><ele>257.6666666666667</ele><time>2026-03-29T07:23:04.459Z</time></trkpt><trkpt lat="45.5887017" lon="10.470445"><ele>257.33333333333337</ele><time>2026-03-29T07:23:05.459Z</time></trkpt><trkpt lat="45.5887067" lon="10.4705717"><ele>257.0</ele><time>2026-03-29T07:23:06.459Z</time></trkpt><trkpt lat="45.5887133" lon="10.470695"><ele>258.2</ele><time>2026-03-29T07:23:07.459Z</time></trkpt><trkpt lat="45.5887217" lon="10.4707983"><ele>259.4</ele><time>2026-03-29T07:23:08.458Z</time></trkpt><trkpt lat="45.5887317" lon="10.4709817"><ele>260.6</ele><time>2026-03-29T07:23:10.459Z</time></trkpt><trkpt lat="45.5887367" lon="10.47111"><ele>261.8</ele><time>2026-03-29T07:23:11.459Z</time></trkpt><trkpt lat="45.5887417" lon="10.4712583"><ele>263.0</ele><time>2026-03-29T07:23:12.459Z</time></trkpt><trkpt lat="45.5887283" lon="10.4714183"><ele>263.25</ele><time>2026-03-29T07:23:13.459Z</time></trkpt><trkpt lat="45.5887283" lon="10.47158"><ele>263.5</ele><time>2026-03-29T07:23:14.459Z</time></trkpt><trkpt lat="45.5887267" lon="10.4717617"><ele>263.75</ele><time>2026-03-29T07:23:15.458Z</time></trkpt><trkpt lat="45.5887333" lon="10.4719183"><ele>264.0</ele><time>2026-03-29T07:23:16.459Z</time></trkpt><trkpt lat="45.58874" lon="10.47208"><ele>264.5</ele><time>2026-03-29T07:23:17.459Z</time></trkpt><trkpt lat="45.5887533" lon="10.4722467"><ele>265.0</ele><time>2026-03-29T07:23:18.459Z</time></trkpt><trkpt lat="45.58877" lon="10.4724083"><ele>265.5</ele><time>2026-03-29T07:23:19.459Z</time></trkpt><trkpt lat="45.5887917" lon="10.47257"><ele>266.0</ele><time>2026-03-29T07:23:20.459Z</time></trkpt><trkpt lat="45.5888117" lon="10.4727183"><ele>266.0</ele><time>2026-03-29T07:23:21.458Z</time></trkpt><trkpt lat="45.58883" lon="10.4728467"><ele>266.0</ele><time>2026-03-29T07:23:22.459Z</time></trkpt><trkpt lat="45.58885" lon="10.4729733"><ele>266.0</ele><time>2026-03-29T07:23:23.459Z</time></trkpt><trkpt lat="45.58887" lon="10.473105"><ele>266.0</ele><time>2026-03-29T07:23:24.459Z</time></trkpt><trkpt lat="45.5888917" lon="10.4732317"><ele>266.0</ele><time>2026-03-29T07:23:25.459Z</time></trkpt><trkpt lat="45.5889133" lon="10.4733617"><ele>266.0</ele><time>2026-03-29T07:23:26.459Z</time></trkpt><trkpt lat="45.5889267" lon="10.4734917"><ele>266.0</ele><time>2026-03-29T07:23:27.459Z</time></trkpt><trkpt lat="45.588935" lon="10.47362"><ele>266.0</ele><time>2026-03-29T07:23:28.459Z</time></trkpt><trkpt lat="45.588935" lon="10.4737533"><ele>266.0</ele><time>2026-03-29T07:23:29.459Z</time></trkpt><trkpt lat="45.5889217" lon="10.4739017"><ele>266.0</ele><time>2026-03-29T07:23:30.459Z</time></trkpt><trkpt lat="45.5889133" lon="10.474055"><ele>266.0</ele><time>2026-03-29T07:23:31.459Z</time></trkpt><trkpt lat="45.5889017" lon="10.4742183"><ele>266.0</ele><time>2026-03-29T07:23:32.459Z</time></trkpt><trkpt lat="45.5888817" lon="10.4743633"><ele>266.0</ele><time>2026-03-29T07:23:33.459Z</time></trkpt><trkpt lat="45.5888667" lon="10.4745"><ele>266.0</ele><time>2026-03-29T07:23:34.459Z</time></trkpt><trkpt lat="45.5888617" lon="10.4746317"><ele>266.0</ele><time>2026-03-29T07:23:35.459Z</time></trkpt><trkpt lat="45.5888617" lon="10.4747783"><ele>265.8</ele><time>2026-03-29T07:23:36.458Z</time></trkpt><trkpt lat="45.58887" lon="10.474925"><ele>265.6</ele><time>2026-03-29T07:23:37.459Z</time></trkpt><trkpt lat="45.5888833" lon="10.47508"><ele>265.4</ele><time>2026-03-29T07:23:38.459Z</time></trkpt><trkpt lat="45.5888883" lon="10.4752283"><ele>265.2</ele><time>2026-03-29T07:23:39.459Z</time></trkpt><trkpt lat="45.588885" lon="10.4753717"><ele>265.0</ele><time>2026-03-29T07:23:40.459Z</time></trkpt><trkpt lat="45.58887" lon="10.4755117"><ele>265.0</ele><time>2026-03-29T07:23:41.459Z</time></trkpt><trkpt lat="45.58884" lon="10.4756383"><ele>265.0</ele><time>2026-03-29T07:23:42.459Z</time></trkpt><trkpt lat="45.58882" lon="10.4757633"><ele>265.0</ele><time>2026-03-29T07:23:43.459Z</time></trkpt><trkpt lat="45.5888133" lon="10.4758817"><ele>265.0</ele><time>2026-03-29T07:23:44.459Z</time></trkpt><trkpt lat="45.5888217" lon="10.47601"><ele>265.0</ele><time>2026-03-29T07:23:45.459Z</time></trkpt><trkpt lat="45.5888467" lon="10.476145"><ele>265.25</ele><time>2026-03-29T07:23:46.459Z</time></trkpt><trkpt lat="45.58888" lon="10.4762967"><ele>265.5</ele><time>2026-03-29T07:23:47.459Z</time></trkpt><trkpt lat="45.5889067" lon="10.47646"><ele>265.75</ele><time>2026-03-29T07:23:48.458Z</time></trkpt><trkpt lat="45.5889117" lon="10.4766167"><ele>266.0</ele><time>2026-03-29T07:23:49.459Z</time></trkpt><trkpt lat="45.5889267" lon="10.4767883"><ele>266.0</ele><time>2026-03-29T07:23:50.459Z</time></trkpt><trkpt lat="45.5889383" lon="10.4769533"><ele>266.0</ele><time>2026-03-29T07:23:51.458Z</time></trkpt><trkpt lat="45.5889467" lon="10.4771217"><ele>266.0</ele><time>2026-03-29T07:23:52.458Z</time></trkpt><trkpt lat="45.5889567" lon="10.477295"><ele>266.0</ele><time>2026-03-29T07:23:53.459Z</time></trkpt><trkpt lat="45.5889567" lon="10.4774583"><ele>267.0</ele><time>2026-03-29T07:23:54.459Z</time></trkpt><trkpt lat="45.588965" lon="10.4776017"><ele>268.0</ele><time>2026-03-29T07:23:55.459Z</time></trkpt><trkpt lat="45.5889667" lon="10.4777383"><ele>269.0</ele><time>2026-03-29T07:23:56.459Z</time></trkpt><trkpt lat="45.5889733" lon="10.4778633"><ele>270.0</ele><time>2026-03-29T07:23:57.459Z</time></trkpt><trkpt lat="45.5889776" lon="10.47798"><ele>271.0</ele><time>2026-03-29T07:23:58.459Z</time></trkpt><trkpt lat="45.5889901" lon="10.4780701"><ele>272.0</ele><time>2026-03-29T07:23:59.459Z</time></trkpt><trkpt lat="45.5890503" lon="10.4781864"><ele>272.75</ele><time>2026-03-29T07:24:01.459Z</time></trkpt><trkpt lat="45.5891874" lon="10.4782111"><ele>273.5</ele><time>2026-03-29T07:24:03.459Z</time></trkpt><trkpt lat="45.5892895" lon="10.4782255"><ele>274.25</ele><time>2026-03-29T07:24:04.459Z</time></trkpt><trkpt lat="45.5894025" lon="10.4782573"><ele>275.0</ele><time>2026-03-29T07:24:05.459Z</time></trkpt><trkpt lat="45.5895182" lon="10.4783007"><ele>275.5</ele><time>2026-03-29T07:24:06.459Z</time></trkpt><trkpt lat="45.5896334" lon="10.4783563"><ele>276.0</ele><time>2026-03-29T07:24:07.459Z</time></trkpt><trkpt lat="45.5897395" lon="10.478418"><ele>276.5</ele><time>2026-03-29T07:24:08.459Z</time></trkpt><trkpt lat="45.5898467" lon="10.4784994"><ele>277.0</ele><time>2026-03-29T07:24:09.459Z</time></trkpt><trkpt lat="45.5899592" lon="10.4785902"><ele>277.0</ele><time>2026-03-29T07:24:10.459Z</time></trkpt><trkpt lat="45.5900643" lon="10.4786885"><ele>277.0</ele><time>2026-03-29T07:24:11.459Z</time></trkpt><trkpt lat="45.5901738" lon="10.4787811"><ele>277.0</ele><time>2026-03-29T07:24:12.459Z</time></trkpt><trkpt lat="45.5902909" lon="10.4788676"><ele>277.0</ele><time>2026-03-29T07:24:13.459Z</time></trkpt><trkpt lat="45.5904017" lon="10.4789323"><ele>278.0</ele><time>2026-03-29T07:24:14.459Z</time></trkpt><trkpt lat="45.5905135" lon="10.4789918"><ele>279.0</ele><time>2026-03-29T07:24:15.458Z</time></trkpt><trkpt lat="45.5906308" lon="10.47906"><ele>280.0</ele><time>2026-03-29T07:24:16.459Z</time></trkpt><trkpt lat="45.5907487" lon="10.4791366"><ele>281.0</ele><time>2026-03-29T07:24:17.458Z</time></trkpt><trkpt lat="45.5908598" lon="10.4792145"><ele>281.0</ele><time>2026-03-29T07:24:18.459Z</time></trkpt><trkpt lat="45.5909547" lon="10.4792818"><ele>281.0</ele><time>2026-03-29T07:24:19.459Z</time></trkpt><trkpt lat="45.5910368" lon="10.4793406"><ele>281.0</ele><time>2026-03-29T07:24:20.459Z</time></trkpt><trkpt lat="45.5911186" lon="10.4793867"><ele>281.0</ele><time>2026-03-29T07:24:21.459Z</time></trkpt><trkpt lat="45.5912061" lon="10.4794182"><ele>281.0</ele><time>2026-03-29T07:24:22.459Z</time></trkpt><trkpt lat="45.5912995" lon="10.4794469"><ele>281.25</ele><time>2026-03-29T07:24:23.459Z</time></trkpt><trkpt lat="45.5914043" lon="10.4794909"><ele>281.5</ele><time>2026-03-29T07:24:24.459Z</time></trkpt><trkpt lat="45.5915339" lon="10.4795281"><ele>281.75</ele><time>2026-03-29T07:24:25.459Z</time></trkpt><trkpt lat="45.5916645" lon="10.4795607"><ele>282.0</ele><time>2026-03-29T07:24:26.459Z</time></trkpt><trkpt lat="45.5917963" lon="10.4795934"><ele>283.25</ele><time>2026-03-29T07:24:27.459Z</time></trkpt><trkpt lat="45.5919171" lon="10.4796249"><ele>284.5</ele><time>2026-03-29T07:24:28.459Z</time></trkpt><trkpt lat="45.5920365" lon="10.4796671"><ele>285.75</ele><time>2026-03-29T07:24:29.459Z</time></trkpt><trkpt lat="45.5921512" lon="10.4797176"><ele>287.0</ele><time>2026-03-29T07:24:30.458Z</time></trkpt><trkpt lat="45.5922625" lon="10.4797831"><ele>287.6</ele><time>2026-03-29T07:24:31.459Z</time></trkpt><trkpt lat="45.5923549" lon="10.4798517"><ele>288.2</ele><time>2026-03-29T07:24:32.459Z</time></trkpt><trkpt lat="45.5924407" lon="10.4799206"><ele>288.8</ele><time>2026-03-29T07:24:33.459Z</time></trkpt><trkpt lat="45.5925239" lon="10.4799802"><ele>289.4</ele><time>2026-03-29T07:24:34.459Z</time></trkpt><trkpt lat="45.5926188" lon="10.4800258"><ele>290.0</ele><time>2026-03-29T07:24:35.459Z</time></trkpt><trkpt lat="45.5927305" lon="10.4800575"><ele>290.2</ele><time>2026-03-29T07:24:36.459Z</time></trkpt><trkpt lat="45.592842" lon="10.4800826"><ele>290.4</ele><time>2026-03-29T07:24:37.459Z</time></trkpt><trkpt lat="45.5929444" lon="10.4800965"><ele>290.6</ele><time>2026-03-29T07:24:38.459Z</time></trkpt><trkpt lat="45.5930427" lon="10.4800868"><ele>290.8</ele><time>2026-03-29T07:24:39.459Z</time></trkpt><trkpt lat="45.5931405" lon="10.4800778"><ele>291.0</ele><time>2026-03-29T07:24:40.459Z</time></trkpt><trkpt lat="45.593246" lon="10.4800585"><ele>291.0</ele><time>2026-03-29T07:24:41.459Z</time></trkpt><trkpt lat="45.5933479" lon="10.4800261"><ele>291.0</ele><time>2026-03-29T07:24:42.459Z</time></trkpt><trkpt lat="45.5934479" lon="10.4799786"><ele>291.0</ele><time>2026-03-29T07:24:43.459Z</time></trkpt><trkpt lat="45.593536" lon="10.4799269"><ele>291.0</ele><time>2026-03-29T07:24:44.459Z</time></trkpt><trkpt lat="45.5936286" lon="10.4799077"><ele>291.0</ele><time>2026-03-29T07:24:45.459Z</time></trkpt><trkpt lat="45.5937454" lon="10.4799168"><ele>291.75</ele><time>2026-03-29T07:24:46.459Z</time></trkpt><trkpt lat="45.5938764" lon="10.479951"><ele>292.5</ele><time>2026-03-29T07:24:47.459Z</time></trkpt><trkpt lat="45.5939989" lon="10.4799896"><ele>293.25</ele><time>2026-03-29T07:24:48.459Z</time></trkpt><trkpt lat="45.5941097" lon="10.4800253"><ele>294.0</ele><time>2026-03-29T07:24:49.459Z</time></trkpt><trkpt lat="45.5942039" lon="10.4800542"><ele>294.0</ele><time>2026-03-29T07:24:50.459Z</time></trkpt><trkpt lat="45.5942782" lon="10.4800562"><ele>294.0</ele><time>2026-03-29T07:24:51.459Z</time></trkpt><trkpt lat="45.59437" lon="10.4799722"><ele>294.0</ele><time>2026-03-29T07:24:53.459Z</time></trkpt><trkpt lat="45.5944148" lon="10.4798732"><ele>294.0</ele><time>2026-03-29T07:24:54.459Z</time></trkpt><trkpt lat="45.5944629" lon="10.4797263"><ele>294.0</ele><time>2026-03-29T07:24:55.459Z</time></trkpt><trkpt lat="45.5944984" lon="10.4795278"><ele>295.0</ele><time>2026-03-29T07:24:56.459Z</time></trkpt><trkpt lat="45.5945174" lon="10.4793093"><ele>296.0</ele><time>2026-03-29T07:24:57.459Z</time></trkpt><trkpt lat="45.5945091" lon="10.4791021"><ele>297.0</ele><time>2026-03-29T07:24:58.459Z</time></trkpt><trkpt lat="45.5944641" lon="10.4789061"><ele>298.0</ele><time>2026-03-29T07:24:59.459Z</time></trkpt><trkpt lat="45.5943802" lon="10.4787086"><ele>301.3333333333333</ele><time>2026-03-29T07:25:00.459Z</time></trkpt><trkpt lat="45.5942752" lon="10.4785056"><ele>304.6666666666667</ele><time>2026-03-29T07:25:01.459Z</time></trkpt><trkpt lat="45.5941571" lon="10.478306"><ele>308.0</ele><time>2026-03-29T07:25:02.459Z</time></trkpt><trkpt lat="45.5940437" lon="10.4781178"><ele>308.0</ele><time>2026-03-29T07:25:03.459Z</time></trkpt><trkpt lat="45.5939338" lon="10.4779556"><ele>308.0</ele><time>2026-03-29T07:25:04.459Z</time></trkpt><trkpt lat="45.5938353" lon="10.4778054"><ele>308.0</ele><time>2026-03-29T07:25:05.459Z</time></trkpt><trkpt lat="45.5937605" lon="10.4776616"><ele>308.0</ele><time>2026-03-29T07:25:06.459Z</time></trkpt><trkpt lat="45.5937022" lon="10.4775312"><ele>308.5</ele><time>2026-03-29T07:25:07.459Z</time></trkpt><trkpt lat="45.593652" lon="10.4774001"><ele>309.0</ele><time>2026-03-29T07:25:08.459Z</time></trkpt><trkpt lat="45.5935958" lon="10.4772643"><ele>309.5</ele><time>2026-03-29T07:25:09.459Z</time></trkpt><trkpt lat="45.5935345" lon="10.4770984"><ele>310.0</ele><time>2026-03-29T07:25:10.459Z</time></trkpt><trkpt lat="45.593463" lon="10.4769217"><ele>311.3333333333333</ele><time>2026-03-29T07:25:11.459Z</time></trkpt><trkpt lat="45.5933859" lon="10.4767022"><ele>312.6666666666667</ele><time>2026-03-29T07:25:12.458Z</time></trkpt><trkpt lat="45.5933232" lon="10.4764493"><ele>314.0</ele><time>2026-03-29T07:25:13.459Z</time></trkpt><trkpt lat="45.5932716" lon="10.4761712"><ele>318.0</ele><time>2026-03-29T07:25:14.459Z</time></trkpt><trkpt lat="45.5932235" lon="10.4759112"><ele>322.0</ele><time>2026-03-29T07:25:15.458Z</time></trkpt><trkpt lat="45.5931825" lon="10.4756745"><ele>326.0</ele><time>2026-03-29T07:25:16.459Z</time></trkpt><trkpt lat="45.5931479" lon="10.4754599"><ele>327.25</ele><time>2026-03-29T07:25:17.459Z</time></trkpt><trkpt lat="45.5931234" lon="10.4752612"><ele>328.5</ele><time>2026-03-29T07:25:18.459Z</time></trkpt><trkpt lat="45.5931009" lon="10.475054"><ele>329.75</ele><time>2026-03-29T07:25:19.459Z</time></trkpt><trkpt lat="45.5930718" lon="10.4748408"><ele>331.0</ele><time>2026-03-29T07:25:20.459Z</time></trkpt><trkpt lat="45.5930444" lon="10.4746044"><ele>332.25</ele><time>2026-03-29T07:25:21.459Z</time></trkpt><trkpt lat="45.5930183" lon="10.4743602"><ele>333.5</ele><time>2026-03-29T07:25:22.459Z</time></trkpt><trkpt lat="45.5930079" lon="10.4741465"><ele>334.75</ele><time>2026-03-29T07:25:23.459Z</time></trkpt><trkpt lat="45.5929956" lon="10.4739694"><ele>336.0</ele><time>2026-03-29T07:25:24.459Z</time></trkpt><trkpt lat="45.5929882" lon="10.4738041"><ele>335.75</ele><time>2026-03-29T07:25:25.459Z</time></trkpt><trkpt lat="45.592985" lon="10.4736222"><ele>335.5</ele><time>2026-03-29T07:25:26.459Z</time></trkpt><trkpt lat="45.5929811" lon="10.4734134"><ele>335.25</ele><time>2026-03-29T07:25:27.459Z</time></trkpt><trkpt lat="45.5929557" lon="10.4732016"><ele>335.0</ele><time>2026-03-29T07:25:28.459Z</time></trkpt><trkpt lat="45.5929236" lon="10.4729916"><ele>334.25</ele><time>2026-03-29T07:25:29.459Z</time></trkpt><trkpt lat="45.5928858" lon="10.4727979"><ele>333.5</ele><time>2026-03-29T07:25:30.458Z</time></trkpt><trkpt lat="45.592827" lon="10.4726129"><ele>332.75</ele><time>2026-03-29T07:25:31.459Z</time></trkpt><trkpt lat="45.5927499" lon="10.4724235"><ele>332.0</ele><time>2026-03-29T07:25:32.459Z</time></trkpt><trkpt lat="45.5926561" lon="10.4722346"><ele>328.5</ele><time>2026-03-29T07:25:33.459Z</time></trkpt><trkpt lat="45.592568" lon="10.472054"><ele>325.0</ele><time>2026-03-29T07:25:34.459Z</time></trkpt><trkpt lat="45.5925042" lon="10.4718874"><ele>321.5</ele><time>2026-03-29T07:25:35.459Z</time></trkpt><trkpt lat="45.59245" lon="10.4717419"><ele>318.0</ele><time>2026-03-29T07:25:36.458Z</time></trkpt><trkpt lat="45.5923914" lon="10.4715863"><ele>318.0</ele><time>2026-03-29T07:25:37.459Z</time></trkpt><trkpt lat="45.5923277" lon="10.4714099"><ele>318.0</ele><time>2026-03-29T07:25:38.459Z</time></trkpt><trkpt lat="45.592263" lon="10.4712143"><ele>318.0</ele><time>2026-03-29T07:25:39.459Z</time></trkpt><trkpt lat="45.5921985" lon="10.471016"><ele>318.0</ele><time>2026-03-29T07:25:40.459Z</time></trkpt><trkpt lat="45.5921353" lon="10.4708263"><ele>318.75</ele><time>2026-03-29T07:25:41.459Z</time></trkpt><trkpt lat="45.5920724" lon="10.4706518"><ele>319.5</ele><time>2026-03-29T07:25:42.459Z</time></trkpt><trkpt lat="45.5920281" lon="10.4704776"><ele>320.25</ele><time>2026-03-29T07:25:43.458Z</time></trkpt><trkpt lat="45.5919949" lon="10.4703087"><ele>321.0</ele><time>2026-03-29T07:25:44.458Z</time></trkpt><trkpt lat="45.5919823" lon="10.470132"><ele>318.0</ele><time>2026-03-29T07:25:45.459Z</time></trkpt><trkpt lat="45.5919817" lon="10.4699485"><ele>315.0</ele><time>2026-03-29T07:25:46.459Z</time></trkpt><trkpt lat="45.5919782" lon="10.4697638"><ele>312.0</ele><time>2026-03-29T07:25:47.459Z</time></trkpt><trkpt lat="45.5919669" lon="10.469594"><ele>309.0</ele><time>2026-03-29T07:25:48.459Z</time></trkpt><trkpt lat="45.5919474" lon="10.4694468"><ele>308.8333333333333</ele><time>2026-03-29T07:25:49.459Z</time></trkpt><trkpt lat="45.5919034" lon="10.4693294"><ele>308.6666666666667</ele><time>2026-03-29T07:25:50.459Z</time></trkpt><trkpt lat="45.5918406" lon="10.4692498"><ele>308.5</ele><time>2026-03-29T07:25:51.459Z</time></trkpt><trkpt lat="45.5917655" lon="10.4692064"><ele>308.33333333333337</ele><time>2026-03-29T07:25:52.459Z</time></trkpt><trkpt lat="45.5916794" lon="10.4691912"><ele>308.1666666666667</ele><time>2026-03-29T07:25:53.459Z</time></trkpt><trkpt lat="45.591594" lon="10.4692246"><ele>308.0</ele><time>2026-03-29T07:25:54.459Z</time></trkpt><trkpt lat="45.5915128" lon="10.4692905"><ele>308.0</ele><time>2026-03-29T07:25:55.459Z</time></trkpt><trkpt lat="45.5914419" lon="10.4693901"><ele>308.0</ele><time>2026-03-29T07:25:56.459Z</time></trkpt><trkpt lat="45.5913725" lon="10.4694861"><ele>308.0</ele><time>2026-03-29T07:25:57.459Z</time></trkpt><trkpt lat="45.5913063" lon="10.4695648"><ele>308.0</ele><time>2026-03-29T07:25:58.459Z</time></trkpt><trkpt lat="45.5912424" lon="10.4696096"><ele>308.0</ele><time>2026-03-29T07:25:59.459Z</time></trkpt><trkpt lat="45.5911258" lon="10.4695867"><ele>306.0</ele><time>2026-03-29T07:26:01.459Z</time></trkpt><trkpt lat="45.5910678" lon="10.4695001"><ele>304.0</ele><time>2026-03-29T07:26:02.459Z</time></trkpt><trkpt lat="45.5910097" lon="10.4693677"><ele>302.0</ele><time>2026-03-29T07:26:03.459Z</time></trkpt><trkpt lat="45.5909438" lon="10.4691975"><ele>300.0</ele><time>2026-03-29T07:26:04.459Z</time></trkpt><trkpt lat="45.5908782" lon="10.4689767"><ele>298.6666666666667</ele><time>2026-03-29T07:26:05.459Z</time></trkpt><trkpt lat="45.5908217" lon="10.4687103"><ele>297.33333333333337</ele><time>2026-03-29T07:26:06.459Z</time></trkpt><trkpt lat="45.5907664" lon="10.4684337"><ele>296.0</ele><time>2026-03-29T07:26:07.459Z</time></trkpt><trkpt lat="45.5907106" lon="10.4681662"><ele>295.0</ele><time>2026-03-29T07:26:08.459Z</time></trkpt><trkpt lat="45.5906548" lon="10.4679061"><ele>294.0</ele><time>2026-03-29T07:26:09.459Z</time></trkpt><trkpt lat="45.5905926" lon="10.4676529"><ele>293.0</ele><time>2026-03-29T07:26:10.459Z</time></trkpt><trkpt lat="45.5905371" lon="10.4673995"><ele>293.0</ele><time>2026-03-29T07:26:11.459Z</time></trkpt><trkpt lat="45.5904853" lon="10.4671502"><ele>293.0</ele><time>2026-03-29T07:26:12.459Z</time></trkpt><trkpt lat="45.5904387" lon="10.4669076"><ele>293.0</ele><time>2026-03-29T07:26:13.459Z</time></trkpt><trkpt lat="45.5903932" lon="10.4666743"><ele>291.0</ele><time>2026-03-29T07:26:14.458Z</time></trkpt><trkpt lat="45.5903521" lon="10.46644"><ele>289.0</ele><time>2026-03-29T07:26:15.459Z</time></trkpt><trkpt lat="45.5903136" lon="10.4662027"><ele>287.0</ele><time>2026-03-29T07:26:16.459Z</time></trkpt><trkpt lat="45.590256" lon="10.4659683"><ele>284.6666666666667</ele><time>2026-03-29T07:26:17.459Z</time></trkpt><trkpt lat="45.5901703" lon="10.4657164"><ele>282.3333333333333</ele><time>2026-03-29T07:26:18.458Z</time></trkpt><trkpt lat="45.5900561" lon="10.4654783"><ele>280.0</ele><time>2026-03-29T07:26:19.459Z</time></trkpt><trkpt lat="45.5899376" lon="10.4652782"><ele>278.75</ele><time>2026-03-29T07:26:20.459Z</time></trkpt><trkpt lat="45.5898284" lon="10.4651104"><ele>277.5</ele><time>2026-03-29T07:26:21.459Z</time></trkpt><trkpt lat="45.5897225" lon="10.4649801"><ele>276.25</ele><time>2026-03-29T07:26:22.459Z</time></trkpt><trkpt lat="45.5896012" lon="10.4648829"><ele>275.0</ele><time>2026-03-29T07:26:23.459Z</time></trkpt><trkpt lat="45.5894677" lon="10.4648089"><ele>275.0</ele><time>2026-03-29T07:26:24.459Z</time></trkpt><trkpt lat="45.5893255" lon="10.4647607"><ele>275.0</ele><time>2026-03-29T07:26:25.459Z</time></trkpt><trkpt lat="45.5891767" lon="10.464745"><ele>275.0</ele><time>2026-03-29T07:26:26.459Z</time></trkpt><trkpt lat="45.589025" lon="10.4647667"><ele>275.0</ele><time>2026-03-29T07:26:27.459Z</time></trkpt><trkpt lat="45.5888833" lon="10.4648033"><ele>275.0</ele><time>2026-03-29T07:26:28.459Z</time></trkpt><trkpt lat="45.5887467" lon="10.4648133"><ele>275.0</ele><time>2026-03-29T07:26:29.459Z</time></trkpt><trkpt lat="45.5886317" lon="10.4648117"><ele>275.0</ele><time>2026-03-29T07:26:30.459Z</time></trkpt><trkpt lat="45.5885383" lon="10.4647933"><ele>275.0</ele><time>2026-03-29T07:26:31.459Z</time></trkpt><trkpt lat="45.5884617" lon="10.46473"><ele>275.0</ele><time>2026-03-29T07:26:32.459Z</time></trkpt><trkpt lat="45.5883983" lon="10.464635"><ele>272.5</ele><time>2026-03-29T07:26:33.459Z</time></trkpt><trkpt lat="45.5883617" lon="10.464495"><ele>270.0</ele><time>2026-03-29T07:26:34.459Z</time></trkpt><trkpt lat="45.5883383" lon="10.46432"><ele>267.5</ele><time>2026-03-29T07:26:35.459Z</time></trkpt><trkpt lat="45.58831" lon="10.4641317"><ele>265.0</ele><time>2026-03-29T07:26:36.459Z</time></trkpt><trkpt lat="45.5882683" lon="10.4639367"><ele>264.75</ele><time>2026-03-29T07:26:37.459Z</time></trkpt><trkpt lat="45.5882267" lon="10.46374"><ele>264.5</ele><time>2026-03-29T07:26:38.459Z</time></trkpt><trkpt lat="45.5881783" lon="10.46353"><ele>264.25</ele><time>2026-03-29T07:26:39.458Z</time></trkpt><trkpt lat="45.5881567" lon="10.4633333"><ele>264.0</ele><time>2026-03-29T07:26:40.459Z</time></trkpt><trkpt lat="45.5881467" lon="10.4631267"><ele>264.25</ele><time>2026-03-29T07:26:41.459Z</time></trkpt><trkpt lat="45.5881667" lon="10.46293"><ele>264.5</ele><time>2026-03-29T07:26:42.459Z</time></trkpt><trkpt lat="45.5882083" lon="10.462745"><ele>264.75</ele><time>2026-03-29T07:26:43.459Z</time></trkpt><trkpt lat="45.5882617" lon="10.46258"><ele>265.0</ele><time>2026-03-29T07:26:44.459Z</time></trkpt><trkpt lat="45.5883283" lon="10.4624183"><ele>265.0</ele><time>2026-03-29T07:26:45.459Z</time></trkpt><trkpt lat="45.5883817" lon="10.46224"><ele>265.0</ele><time>2026-03-29T07:26:46.459Z</time></trkpt><trkpt lat="45.58846" lon="10.4620533"><ele>265.0</ele><time>2026-03-29T07:26:47.459Z</time></trkpt><trkpt lat="45.5885217" lon="10.4618433"><ele>265.0</ele><time>2026-03-29T07:26:48.459Z</time></trkpt><trkpt lat="45.5885617" lon="10.46161"><ele>265.3333333333333</ele><time>2026-03-29T07:26:49.459Z</time></trkpt><trkpt lat="45.5886033" lon="10.46136"><ele>265.6666666666667</ele><time>2026-03-29T07:26:50.459Z</time></trkpt><trkpt lat="45.588625" lon="10.4611067"><ele>266.0</ele><time>2026-03-29T07:26:51.459Z</time></trkpt><trkpt lat="45.5886433" lon="10.4608683"><ele>265.33333333333337</ele><time>2026-03-29T07:26:52.459Z</time></trkpt><trkpt lat="45.5886533" lon="10.46064"><ele>264.6666666666667</ele><time>2026-03-29T07:26:53.459Z</time></trkpt><trkpt lat="45.5886567" lon="10.4604233"><ele>264.0</ele><time>2026-03-29T07:26:54.459Z</time></trkpt><trkpt lat="45.5886583" lon="10.4601967"><ele>263.3333333333333</ele><time>2026-03-29T07:26:55.459Z</time></trkpt><trkpt lat="45.588655" lon="10.45996"><ele>262.66666666666663</ele><time>2026-03-29T07:26:56.459Z</time></trkpt><trkpt lat="45.5886517" lon="10.4597167"><ele>262.0</ele><time>2026-03-29T07:26:57.459Z</time></trkpt><trkpt lat="45.5886483" lon="10.4594933"><ele>261.5</ele><time>2026-03-29T07:26:58.459Z</time></trkpt><trkpt lat="45.5886483" lon="10.4592883"><ele>261.0</ele><time>2026-03-29T07:26:59.459Z</time></trkpt><trkpt lat="45.5886733" lon="10.4590817"><ele>260.5</ele><time>2026-03-29T07:27:00.459Z</time></trkpt><trkpt lat="45.5887333" lon="10.458875"><ele>260.0</ele><time>2026-03-29T07:27:01.459Z</time></trkpt><trkpt lat="45.5888233" lon="10.4586417"><ele>259.0</ele><time>2026-03-29T07:27:02.458Z</time></trkpt><trkpt lat="45.5889183" lon="10.4583983"><ele>258.0</ele><time>2026-03-29T07:27:03.459Z</time></trkpt><trkpt lat="45.5890333" lon="10.4581283"><ele>257.0</ele><time>2026-03-29T07:27:04.459Z</time></trkpt><trkpt lat="45.5891667" lon="10.45785"><ele>259.6666666666667</ele><time>2026-03-29T07:27:05.459Z</time></trkpt><trkpt lat="45.5892933" lon="10.457575"><ele>262.3333333333333</ele><time>2026-03-29T07:27:06.459Z</time></trkpt><trkpt lat="45.5894183" lon="10.4573183"><ele>265.0</ele><time>2026-03-29T07:27:07.459Z</time></trkpt><trkpt lat="45.5895383" lon="10.4570667"><ele>258.0</ele><time>2026-03-29T07:27:08.459Z</time></trkpt><trkpt lat="45.58966" lon="10.4568217"><ele>251.0</ele><time>2026-03-29T07:27:09.458Z</time></trkpt><trkpt lat="45.5897533" lon="10.4565817"><ele>244.0</ele><time>2026-03-29T07:27:10.459Z</time></trkpt><trkpt lat="45.5898433" lon="10.4563667"><ele>243.0</ele><time>2026-03-29T07:27:11.459Z</time></trkpt><trkpt lat="45.5899133" lon="10.4561717"><ele>242.0</ele><time>2026-03-29T07:27:12.459Z</time></trkpt><trkpt lat="45.589955" lon="10.4559983"><ele>241.0</ele><time>2026-03-29T07:27:13.459Z</time></trkpt><trkpt lat="45.5899683" lon="10.455845"><ele>240.0</ele><time>2026-03-29T07:27:14.459Z</time></trkpt><trkpt lat="45.589955" lon="10.455695"><ele>240.0</ele><time>2026-03-29T07:27:15.459Z</time></trkpt><trkpt lat="45.5899017" lon="10.4555283"><ele>240.0</ele><time>2026-03-29T07:27:16.459Z</time></trkpt><trkpt lat="45.5897967" lon="10.4553567"><ele>240.0</ele><time>2026-03-29T07:27:17.459Z</time></trkpt><trkpt lat="45.58971" lon="10.455205"><ele>240.0</ele><time>2026-03-29T07:27:18.459Z</time></trkpt><trkpt lat="45.5896417" lon="10.4550633"><ele>237.0</ele><time>2026-03-29T07:27:19.459Z</time></trkpt><trkpt lat="45.5895967" lon="10.4549133"><ele>234.0</ele><time>2026-03-29T07:27:20.459Z</time></trkpt><trkpt lat="45.5895867" lon="10.4547467"><ele>231.0</ele><time>2026-03-29T07:27:21.459Z</time></trkpt><trkpt lat="45.5895967" lon="10.454565"><ele>228.0</ele><time>2026-03-29T07:27:22.459Z</time></trkpt><trkpt lat="45.5896283" lon="10.4543983"><ele>227.2</ele><time>2026-03-29T07:27:23.459Z</time></trkpt><trkpt lat="45.5896633" lon="10.4542317"><ele>226.4</ele><time>2026-03-29T07:27:24.459Z</time></trkpt><trkpt lat="45.5896667" lon="10.4541"><ele>225.59999999999997</ele><time>2026-03-29T07:27:25.459Z</time></trkpt><trkpt lat="45.5896383" lon="10.4539767"><ele>224.79999999999998</ele><time>2026-03-29T07:27:26.459Z</time></trkpt><trkpt lat="45.58957" lon="10.4538567"><ele>224.0</ele><time>2026-03-29T07:27:27.459Z</time></trkpt><trkpt lat="45.5894583" lon="10.4537233"><ele>224.0</ele><time>2026-03-29T07:27:28.458Z</time></trkpt><trkpt lat="45.5893133" lon="10.45357"><ele>224.0</ele><time>2026-03-29T07:27:29.459Z</time></trkpt><trkpt lat="45.5891567" lon="10.45341"><ele>224.0</ele><time>2026-03-29T07:27:30.459Z</time></trkpt><trkpt lat="45.5890283" lon="10.4532533"><ele>224.0</ele><time>2026-03-29T07:27:31.459Z</time></trkpt><trkpt lat="45.5889433" lon="10.453095"><ele>224.0</ele><time>2026-03-29T07:27:32.459Z</time></trkpt><trkpt lat="45.5888983" lon="10.4529333"><ele>224.0</ele><time>2026-03-29T07:27:33.459Z</time></trkpt><trkpt lat="45.58889" lon="10.4527733"><ele>224.0</ele><time>2026-03-29T07:27:34.459Z</time></trkpt><trkpt lat="45.5889333" lon="10.45262"><ele>222.75</ele><time>2026-03-29T07:27:35.458Z</time></trkpt><trkpt lat="45.588975" lon="10.452445"><ele>221.5</ele><time>2026-03-29T07:27:36.459Z</time></trkpt><trkpt lat="45.589025" lon="10.4522867"><ele>220.25</ele><time>2026-03-29T07:27:37.458Z</time></trkpt><trkpt lat="45.58906" lon="10.452145"><ele>219.0</ele><time>2026-03-29T07:27:38.459Z</time></trkpt><trkpt lat="45.5890533" lon="10.4519967"><ele>219.0</ele><time>2026-03-29T07:27:39.459Z</time></trkpt><trkpt lat="45.589" lon="10.4518467"><ele>219.0</ele><time>2026-03-29T07:27:40.459Z</time></trkpt><trkpt lat="45.588905" lon="10.4516783"><ele>219.0</ele><time>2026-03-29T07:27:41.458Z</time></trkpt><trkpt lat="45.5887817" lon="10.4514983"><ele>219.0</ele><time>2026-03-29T07:27:42.459Z</time></trkpt><trkpt lat="45.5886517" lon="10.45129"><ele>221.66666666666669</ele><time>2026-03-29T07:27:43.459Z</time></trkpt><trkpt lat="45.5885283" lon="10.4510783"><ele>224.33333333333334</ele><time>2026-03-29T07:27:44.458Z</time></trkpt><trkpt lat="45.5883983" lon="10.4508583"><ele>227.0</ele><time>2026-03-29T07:27:45.459Z</time></trkpt><trkpt lat="45.5882883" lon="10.4506517"><ele>227.0</ele><time>2026-03-29T07:27:46.459Z</time></trkpt><trkpt lat="45.5881967" lon="10.450465"><ele>227.0</ele><time>2026-03-29T07:27:47.459Z</time></trkpt><trkpt lat="45.5881117" lon="10.4502983"><ele>227.0</ele><time>2026-03-29T07:27:48.459Z</time></trkpt><trkpt lat="45.5880267" lon="10.4501517"><ele>227.0</ele><time>2026-03-29T07:27:49.459Z</time></trkpt><trkpt lat="45.5879367" lon="10.45001"><ele>225.0</ele><time>2026-03-29T07:27:50.459Z</time></trkpt><trkpt lat="45.58784" lon="10.4498483"><ele>223.0</ele><time>2026-03-29T07:27:51.459Z</time></trkpt><trkpt lat="45.58774" lon="10.4496983"><ele>221.0</ele><time>2026-03-29T07:27:52.459Z</time></trkpt><trkpt lat="45.587635" lon="10.4495483"><ele>219.0</ele><time>2026-03-29T07:27:53.459Z</time></trkpt><trkpt lat="45.587535" lon="10.44941"><ele>219.0</ele><time>2026-03-29T07:27:54.459Z</time></trkpt><trkpt lat="45.58745" lon="10.449275"><ele>218.99999999999997</ele><time>2026-03-29T07:27:55.459Z</time></trkpt><trkpt lat="45.5874033" lon="10.449145"><ele>218.99999999999997</ele><time>2026-03-29T07:27:56.459Z</time></trkpt><trkpt lat="45.5873833" lon="10.4490283"><ele>219.0</ele><time>2026-03-29T07:27:57.459Z</time></trkpt><trkpt lat="45.5873683" lon="10.448925"><ele>219.0</ele><time>2026-03-29T07:27:58.459Z</time></trkpt><trkpt lat="45.5872983" lon="10.448815"><ele>219.0</ele><time>2026-03-29T07:28:00.459Z</time></trkpt><trkpt lat="45.5872317" lon="10.4488183"><ele>218.99999999999997</ele><time>2026-03-29T07:28:01.458Z</time></trkpt><trkpt lat="45.5871367" lon="10.4488433"><ele>218.99999999999997</ele><time>2026-03-29T07:28:02.459Z</time></trkpt><trkpt lat="45.5870383" lon="10.44887"><ele>219.0</ele><time>2026-03-29T07:28:03.459Z</time></trkpt><trkpt lat="45.586945" lon="10.4488583"><ele>219.0</ele><time>2026-03-29T07:28:04.458Z</time></trkpt><trkpt lat="45.586855" lon="10.4487983"><ele>218.25</ele><time>2026-03-29T07:28:05.459Z</time></trkpt><trkpt lat="45.5867717" lon="10.448695"><ele>217.5</ele><time>2026-03-29T07:28:06.459Z</time></trkpt><trkpt lat="45.5867033" lon="10.4485167"><ele>216.75</ele><time>2026-03-29T07:28:07.458Z</time></trkpt><trkpt lat="45.5866567" lon="10.44828"><ele>216.0</ele><time>2026-03-29T07:28:08.459Z</time></trkpt><trkpt lat="45.58661" lon="10.448025"><ele>214.66666666666669</ele><time>2026-03-29T07:28:09.459Z</time></trkpt><trkpt lat="45.5865633" lon="10.4477717"><ele>213.33333333333334</ele><time>2026-03-29T07:28:10.459Z</time></trkpt><trkpt lat="45.5865183" lon="10.4475433"><ele>212.0</ele><time>2026-03-29T07:28:11.459Z</time></trkpt><trkpt lat="45.58648" lon="10.4473317"><ele>211.75</ele><time>2026-03-29T07:28:12.459Z</time></trkpt><trkpt lat="45.58645" lon="10.4471217"><ele>211.5</ele><time>2026-03-29T07:28:13.459Z</time></trkpt><trkpt lat="45.586415" lon="10.4469333"><ele>211.25</ele><time>2026-03-29T07:28:14.459Z</time></trkpt><trkpt lat="45.5863583" lon="10.44675"><ele>211.0</ele><time>2026-03-29T07:28:15.459Z</time></trkpt><trkpt lat="45.5862867" lon="10.4465583"><ele>211.0</ele><time>2026-03-29T07:28:16.459Z</time></trkpt><trkpt lat="45.5862133" lon="10.4463617"><ele>211.0</ele><time>2026-03-29T07:28:17.459Z</time></trkpt><trkpt lat="45.5861383" lon="10.446155"><ele>211.0</ele><time>2026-03-29T07:28:18.458Z</time></trkpt><trkpt lat="45.58605" lon="10.4459367"><ele>210.0</ele><time>2026-03-29T07:28:19.459Z</time></trkpt><trkpt lat="45.585955" lon="10.44568"><ele>209.0</ele><time>2026-03-29T07:28:20.459Z</time></trkpt><trkpt lat="45.5858567" lon="10.4453967"><ele>208.0</ele><time>2026-03-29T07:28:21.459Z</time></trkpt><trkpt lat="45.585755" lon="10.4451"><ele>208.0</ele><time>2026-03-29T07:28:22.459Z</time></trkpt><trkpt lat="45.5856583" lon="10.4448167"><ele>208.0</ele><time>2026-03-29T07:28:23.459Z</time></trkpt><trkpt lat="45.5855783" lon="10.4445517"><ele>208.0</ele><time>2026-03-29T07:28:24.459Z</time></trkpt><trkpt lat="45.5854983" lon="10.4443"><ele>207.66666666666666</ele><time>2026-03-29T07:28:25.459Z</time></trkpt><trkpt lat="45.58542" lon="10.444075"><ele>207.33333333333331</ele><time>2026-03-29T07:28:26.459Z</time></trkpt><trkpt lat="45.5853567" lon="10.44385"><ele>207.0</ele><time>2026-03-29T07:28:27.459Z</time></trkpt><trkpt lat="45.585295" lon="10.44364"><ele>206.75</ele><time>2026-03-29T07:28:28.459Z</time></trkpt><trkpt lat="45.5852517" lon="10.4434317"><ele>206.5</ele><time>2026-03-29T07:28:29.459Z</time></trkpt><trkpt lat="45.5852233" lon="10.4432283"><ele>206.25</ele><time>2026-03-29T07:28:30.459Z</time></trkpt><trkpt lat="45.5851883" lon="10.443025"><ele>206.0</ele><time>2026-03-29T07:28:31.459Z</time></trkpt><trkpt lat="45.5851533" lon="10.442835"><ele>206.0</ele><time>2026-03-29T07:28:32.459Z</time></trkpt><trkpt lat="45.5851017" lon="10.4426633"><ele>206.0</ele><time>2026-03-29T07:28:33.459Z</time></trkpt><trkpt lat="45.5850467" lon="10.4425083"><ele>206.0</ele><time>2026-03-29T07:28:34.459Z</time></trkpt><trkpt lat="45.585" lon="10.4423783"><ele>206.0</ele><time>2026-03-29T07:28:35.459Z</time></trkpt><trkpt lat="45.5849567" lon="10.4422483"><ele>206.00000000000003</ele><time>2026-03-29T07:28:36.459Z</time></trkpt><trkpt lat="45.584915" lon="10.4421417"><ele>206.0</ele><time>2026-03-29T07:28:37.459Z</time></trkpt><trkpt lat="45.5848733" lon="10.442045"><ele>206.0</ele><time>2026-03-29T07:28:38.459Z</time></trkpt><trkpt lat="45.5847983" lon="10.4419017"><ele>206.0</ele><time>2026-03-29T07:28:40.459Z</time></trkpt><trkpt lat="45.5847683" lon="10.4418083"><ele>206.00000000000003</ele><time>2026-03-29T07:28:41.459Z</time></trkpt><trkpt lat="45.5847433" lon="10.4417167"><ele>206.0</ele><time>2026-03-29T07:28:42.459Z</time></trkpt><trkpt lat="45.5846467" lon="10.44163"><ele>205.8</ele><time>2026-03-29T07:28:44.459Z</time></trkpt><trkpt lat="45.58458" lon="10.4416217"><ele>205.60000000000002</ele><time>2026-03-29T07:28:45.459Z</time></trkpt><trkpt lat="45.5844817" lon="10.4416367"><ele>205.4</ele><time>2026-03-29T07:28:46.459Z</time></trkpt><trkpt lat="45.58436" lon="10.4416367"><ele>205.2</ele><time>2026-03-29T07:28:47.459Z</time></trkpt><trkpt lat="45.5842183" lon="10.44161"><ele>205.0</ele><time>2026-03-29T07:28:48.459Z</time></trkpt><trkpt lat="45.584065" lon="10.4415567"><ele>205.0</ele><time>2026-03-29T07:28:49.459Z</time></trkpt><trkpt lat="45.5839267" lon="10.44149"><ele>205.0</ele><time>2026-03-29T07:28:50.459Z</time></trkpt><trkpt lat="45.583795" lon="10.4414483"><ele>205.0</ele><time>2026-03-29T07:28:51.459Z</time></trkpt><trkpt lat="45.5836883" lon="10.4413983"><ele>205.0</ele><time>2026-03-29T07:28:52.459Z</time></trkpt><trkpt lat="45.5835767" lon="10.4413533"><ele>205.0</ele><time>2026-03-29T07:28:53.459Z</time></trkpt><trkpt lat="45.5834717" lon="10.44131"><ele>205.0</ele><time>2026-03-29T07:28:54.459Z</time></trkpt><trkpt lat="45.5833733" lon="10.44127"><ele>205.0</ele><time>2026-03-29T07:28:55.458Z</time></trkpt><trkpt lat="45.583285" lon="10.4412217"><ele>205.0</ele><time>2026-03-29T07:28:56.459Z</time></trkpt><trkpt lat="45.583195" lon="10.4411817"><ele>205.0</ele><time>2026-03-29T07:28:57.459Z</time></trkpt><trkpt lat="45.5831133" lon="10.4411633"><ele>205.0</ele><time>2026-03-29T07:28:58.459Z</time></trkpt><trkpt lat="45.58305" lon="10.4411867"><ele>205.0</ele><time>2026-03-29T07:28:59.459Z</time></trkpt><trkpt lat="45.582985" lon="10.4412467"><ele>205.0</ele><time>2026-03-29T07:29:00.459Z</time></trkpt><trkpt lat="45.5829133" lon="10.441335"><ele>205.0</ele><time>2026-03-29T07:29:01.459Z</time></trkpt><trkpt lat="45.58284" lon="10.441485"><ele>205.0</ele><time>2026-03-29T07:29:02.459Z</time></trkpt><trkpt lat="45.582725" lon="10.4416783"><ele>205.0</ele><time>2026-03-29T07:29:03.459Z</time></trkpt><trkpt lat="45.5825667" lon="10.4419067"><ele>205.0</ele><time>2026-03-29T07:29:04.458Z</time></trkpt><trkpt lat="45.5823967" lon="10.4421517"><ele>204.66666666666666</ele><time>2026-03-29T07:29:05.459Z</time></trkpt><trkpt lat="45.5822617" lon="10.4423933"><ele>204.33333333333331</ele><time>2026-03-29T07:29:06.459Z</time></trkpt><trkpt lat="45.5821433" lon="10.4426167"><ele>204.0</ele><time>2026-03-29T07:29:07.459Z</time></trkpt><trkpt lat="45.5820467" lon="10.44282"><ele>203.33333333333331</ele><time>2026-03-29T07:29:08.459Z</time></trkpt><trkpt lat="45.5819517" lon="10.443005"><ele>202.66666666666666</ele><time>2026-03-29T07:29:09.459Z</time></trkpt><trkpt lat="45.5818483" lon="10.4431717"><ele>202.0</ele><time>2026-03-29T07:29:10.459Z</time></trkpt><trkpt lat="45.5817367" lon="10.4433133"><ele>202.0</ele><time>2026-03-29T07:29:11.459Z</time></trkpt><trkpt lat="45.581625" lon="10.443445"><ele>202.0</ele><time>2026-03-29T07:29:12.459Z</time></trkpt><trkpt lat="45.5814983" lon="10.44357"><ele>202.0</ele><time>2026-03-29T07:29:13.459Z</time></trkpt><trkpt lat="45.58137" lon="10.443695"><ele>202.0</ele><time>2026-03-29T07:29:14.458Z</time></trkpt><trkpt lat="45.5812283" lon="10.4438117"><ele>202.0</ele><time>2026-03-29T07:29:15.459Z</time></trkpt><trkpt lat="45.581075" lon="10.443905"><ele>202.0</ele><time>2026-03-29T07:29:16.459Z</time></trkpt><trkpt lat="45.5809233" lon="10.44398"><ele>202.0</ele><time>2026-03-29T07:29:17.459Z</time></trkpt><trkpt lat="45.5807567" lon="10.4440417"><ele>202.0</ele><time>2026-03-29T07:29:18.459Z</time></trkpt><trkpt lat="45.5805933" lon="10.4441033"><ele>202.0</ele><time>2026-03-29T07:29:19.459Z</time></trkpt><trkpt lat="45.5804333" lon="10.4441533"><ele>201.75</ele><time>2026-03-29T07:29:20.459Z</time></trkpt><trkpt lat="45.5802767" lon="10.4442083"><ele>201.5</ele><time>2026-03-29T07:29:21.459Z</time></trkpt><trkpt lat="45.5801333" lon="10.4442667"><ele>201.25</ele><time>2026-03-29T07:29:22.459Z</time></trkpt><trkpt lat="45.5800033" lon="10.44431"><ele>201.0</ele><time>2026-03-29T07:29:23.459Z</time></trkpt><trkpt lat="45.5798867" lon="10.4443583"><ele>201.0</ele><time>2026-03-29T07:29:24.459Z</time></trkpt><trkpt lat="45.579765" lon="10.444395"><ele>201.0</ele><time>2026-03-29T07:29:25.459Z</time></trkpt><trkpt lat="45.5796567" lon="10.44444"><ele>201.0</ele><time>2026-03-29T07:29:26.459Z</time></trkpt><trkpt lat="45.5795517" lon="10.44447"><ele>201.0</ele><time>2026-03-29T07:29:27.459Z</time></trkpt><trkpt lat="45.5794483" lon="10.4445133"><ele>201.20000000000002</ele><time>2026-03-29T07:29:28.459Z</time></trkpt><trkpt lat="45.579355" lon="10.444555"><ele>201.4</ele><time>2026-03-29T07:29:29.459Z</time></trkpt><trkpt lat="45.579255" lon="10.4446"><ele>201.6</ele><time>2026-03-29T07:29:30.459Z</time></trkpt><trkpt lat="45.5791483" lon="10.4446567"><ele>201.8</ele><time>2026-03-29T07:29:31.459Z</time></trkpt><trkpt lat="45.5790417" lon="10.4447233"><ele>202.0</ele><time>2026-03-29T07:29:32.459Z</time></trkpt><trkpt lat="45.57892" lon="10.4447967"><ele>202.25</ele><time>2026-03-29T07:29:33.459Z</time></trkpt><trkpt lat="45.5788017" lon="10.4448783"><ele>202.5</ele><time>2026-03-29T07:29:34.459Z</time></trkpt><trkpt lat="45.5786883" lon="10.44495"><ele>202.75</ele><time>2026-03-29T07:29:35.458Z</time></trkpt><trkpt lat="45.5785733" lon="10.4450183"><ele>203.0</ele><time>2026-03-29T07:29:36.459Z</time></trkpt><trkpt lat="45.5784733" lon="10.4450583"><ele>203.0</ele><time>2026-03-29T07:29:37.459Z</time></trkpt><trkpt lat="45.57838" lon="10.4450967"><ele>203.0</ele><time>2026-03-29T07:29:38.459Z</time></trkpt><trkpt lat="45.578285" lon="10.4451317"><ele>203.0</ele><time>2026-03-29T07:29:39.459Z</time></trkpt><trkpt lat="45.5782" lon="10.4451483"><ele>203.0</ele><time>2026-03-29T07:29:40.459Z</time></trkpt><trkpt lat="45.5781" lon="10.44517"><ele>203.0</ele><time>2026-03-29T07:29:42.459Z</time></trkpt><trkpt lat="45.5780283" lon="10.4451367"><ele>203.0</ele><time>2026-03-29T07:29:51.459Z</time></trkpt><trkpt lat="45.5779867" lon="10.4450267"><ele>203.0</ele><time>2026-03-29T07:29:53.459Z</time></trkpt><trkpt lat="45.5779667" lon="10.4449333"><ele>203.0</ele><time>2026-03-29T07:29:54.459Z</time></trkpt><trkpt lat="45.5779383" lon="10.4448283"><ele>203.0</ele><time>2026-03-29T07:29:55.459Z</time></trkpt><trkpt lat="45.5779117" lon="10.444695"><ele>203.0</ele><time>2026-03-29T07:29:56.459Z</time></trkpt><trkpt lat="45.5778683" lon="10.44449"><ele>202.66666666666669</ele><time>2026-03-29T07:29:57.459Z</time></trkpt><trkpt lat="45.57781" lon="10.4442683"><ele>202.33333333333331</ele><time>2026-03-29T07:29:58.459Z</time></trkpt><trkpt lat="45.5777383" lon="10.4440317"><ele>202.0</ele><time>2026-03-29T07:29:59.459Z</time></trkpt><trkpt lat="45.5776633" lon="10.4437817"><ele>201.0</ele><time>2026-03-29T07:30:00.459Z</time></trkpt><trkpt lat="45.5775833" lon="10.44352"><ele>200.0</ele><time>2026-03-29T07:30:01.459Z</time></trkpt><trkpt lat="45.57751" lon="10.4432633"><ele>199.0</ele><time>2026-03-29T07:30:02.459Z</time></trkpt><trkpt lat="45.5774367" lon="10.4430083"><ele>198.5</ele><time>2026-03-29T07:30:03.459Z</time></trkpt><trkpt lat="45.5773583" lon="10.4427983"><ele>198.0</ele><time>2026-03-29T07:30:04.459Z</time></trkpt><trkpt lat="45.5772833" lon="10.4426233"><ele>197.5</ele><time>2026-03-29T07:30:05.459Z</time></trkpt><trkpt lat="45.57721" lon="10.4424917"><ele>197.0</ele><time>2026-03-29T07:30:06.459Z</time></trkpt><trkpt lat="45.57716" lon="10.4424133"><ele>197.0</ele><time>2026-03-29T07:30:07.459Z</time></trkpt><trkpt lat="45.577115" lon="10.4423233"><ele>197.0</ele><time>2026-03-29T07:30:10.459Z</time></trkpt><trkpt lat="45.577035" lon="10.4422083"><ele>197.0</ele><time>2026-03-29T07:30:12.459Z</time></trkpt><trkpt lat="45.5769267" lon="10.4422267"><ele>197.0</ele><time>2026-03-29T07:30:14.459Z</time></trkpt><trkpt lat="45.5768617" lon="10.4422933"><ele>197.0</ele><time>2026-03-29T07:30:15.459Z</time></trkpt><trkpt lat="45.57677" lon="10.4424017"><ele>197.66666666666669</ele><time>2026-03-29T07:30:16.459Z</time></trkpt><trkpt lat="45.5766583" lon="10.4425533"><ele>198.33333333333331</ele><time>2026-03-29T07:30:17.459Z</time></trkpt><trkpt lat="45.5765267" lon="10.442705"><ele>199.0</ele><time>2026-03-29T07:30:18.459Z</time></trkpt><trkpt lat="45.5764083" lon="10.4428317"><ele>199.0</ele><time>2026-03-29T07:30:19.459Z</time></trkpt><trkpt lat="45.5763117" lon="10.4429233"><ele>199.0</ele><time>2026-03-29T07:30:20.459Z</time></trkpt><trkpt lat="45.5762217" lon="10.442975"><ele>199.0</ele><time>2026-03-29T07:30:21.459Z</time></trkpt><trkpt lat="45.5761583" lon="10.443015"><ele>199.0</ele><time>2026-03-29T07:30:22.458Z</time></trkpt><trkpt lat="45.576105" lon="10.44307"><ele>199.0</ele><time>2026-03-29T07:30:23.459Z</time></trkpt><trkpt lat="45.576065" lon="10.44322"><ele>199.6</ele><time>2026-03-29T07:30:25.459Z</time></trkpt><trkpt lat="45.5760733" lon="10.4433217"><ele>200.2</ele><time>2026-03-29T07:30:26.459Z</time></trkpt><trkpt lat="45.5760717" lon="10.4434433"><ele>200.79999999999998</ele><time>2026-03-29T07:30:27.459Z</time></trkpt><trkpt lat="45.576055" lon="10.4435767"><ele>201.39999999999998</ele><time>2026-03-29T07:30:28.459Z</time></trkpt><trkpt lat="45.57602" lon="10.443725"><ele>202.0</ele><time>2026-03-29T07:30:29.459Z</time></trkpt><trkpt lat="45.5759583" lon="10.443895"><ele>202.0</ele><time>2026-03-29T07:30:30.459Z</time></trkpt><trkpt lat="45.5758767" lon="10.44409"><ele>202.0</ele><time>2026-03-29T07:30:31.459Z</time></trkpt><trkpt lat="45.575795" lon="10.4442983"><ele>202.0</ele><time>2026-03-29T07:30:32.459Z</time></trkpt><trkpt lat="45.5757067" lon="10.44452"><ele>202.0</ele><time>2026-03-29T07:30:33.459Z</time></trkpt><trkpt lat="45.575635" lon="10.4447167"><ele>202.0</ele><time>2026-03-29T07:30:34.459Z</time></trkpt><trkpt lat="45.5755533" lon="10.4449267"><ele>202.0</ele><time>2026-03-29T07:30:35.459Z</time></trkpt><trkpt lat="45.5754583" lon="10.44515"><ele>202.0</ele><time>2026-03-29T07:30:36.459Z</time></trkpt><trkpt lat="45.5753517" lon="10.44539"><ele>202.0</ele><time>2026-03-29T07:30:37.459Z</time></trkpt><trkpt lat="45.57523" lon="10.4456417"><ele>202.0</ele><time>2026-03-29T07:30:38.459Z</time></trkpt><trkpt lat="45.57509" lon="10.4459083"><ele>204.0</ele><time>2026-03-29T07:30:39.459Z</time></trkpt><trkpt lat="45.5749333" lon="10.4461633"><ele>206.0</ele><time>2026-03-29T07:30:40.459Z</time></trkpt><trkpt lat="45.5747633" lon="10.4464233"><ele>207.5</ele><time>2026-03-29T07:30:41.459Z</time></trkpt><trkpt lat="45.57458" lon="10.4466717"><ele>209.0</ele><time>2026-03-29T07:30:42.459Z</time></trkpt><trkpt lat="45.5743983" lon="10.44692"><ele>211.0</ele><time>2026-03-29T07:30:43.459Z</time></trkpt><trkpt lat="45.574215" lon="10.4471767"><ele>213.0</ele><time>2026-03-29T07:30:44.459Z</time></trkpt><trkpt lat="45.5740333" lon="10.4474233"><ele>213.0</ele><time>2026-03-29T07:30:45.459Z</time></trkpt><trkpt lat="45.57387" lon="10.44766"><ele>213.0</ele><time>2026-03-29T07:30:46.458Z</time></trkpt><trkpt lat="45.5737133" lon="10.4478883"><ele>215.33333333333331</ele><time>2026-03-29T07:30:47.459Z</time></trkpt><trkpt lat="45.57358" lon="10.4481333"><ele>217.66666666666666</ele><time>2026-03-29T07:30:48.459Z</time></trkpt><trkpt lat="45.5734817" lon="10.4484217"><ele>220.0</ele><time>2026-03-29T07:30:49.459Z</time></trkpt><trkpt lat="45.57339" lon="10.4487167"><ele>221.0</ele><time>2026-03-29T07:30:50.459Z</time></trkpt><trkpt lat="45.5733083" lon="10.4490283"><ele>222.0</ele><time>2026-03-29T07:30:51.458Z</time></trkpt><trkpt lat="45.5732167" lon="10.449315"><ele>222.0</ele><time>2026-03-29T07:30:52.459Z</time></trkpt><trkpt lat="45.57315" lon="10.4495783"><ele>222.0</ele><time>2026-03-29T07:30:53.459Z</time></trkpt><trkpt lat="45.573045" lon="10.4498333"><ele>222.0</ele><time>2026-03-29T07:30:54.459Z</time></trkpt><trkpt lat="45.572925" lon="10.4500633"><ele>222.0</ele><time>2026-03-29T07:30:55.459Z</time></trkpt><trkpt lat="45.5727867" lon="10.450275"><ele>222.0</ele><time>2026-03-29T07:30:56.459Z</time></trkpt><trkpt lat="45.5726333" lon="10.4504717"><ele>222.0</ele><time>2026-03-29T07:30:57.459Z</time></trkpt><trkpt lat="45.5724717" lon="10.4506783"><ele>223.0</ele><time>2026-03-29T07:30:58.458Z</time></trkpt><trkpt lat="45.572305" lon="10.45089"><ele>224.0</ele><time>2026-03-29T07:30:59.459Z</time></trkpt><trkpt lat="45.5721383" lon="10.451115"><ele>224.5</ele><time>2026-03-29T07:31:00.458Z</time></trkpt><trkpt lat="45.5719633" lon="10.4513417"><ele>225.0</ele><time>2026-03-29T07:31:01.459Z</time></trkpt><trkpt lat="45.5717983" lon="10.45158"><ele>225.0</ele><time>2026-03-29T07:31:02.459Z</time></trkpt><trkpt lat="45.5716317" lon="10.45183"><ele>225.0</ele><time>2026-03-29T07:31:03.459Z</time></trkpt><trkpt lat="45.5714683" lon="10.4520867"><ele>225.0</ele><time>2026-03-29T07:31:04.459Z</time></trkpt><trkpt lat="45.5713083" lon="10.4523483"><ele>225.0</ele><time>2026-03-29T07:31:05.459Z</time></trkpt><trkpt lat="45.5711483" lon="10.45262"><ele>225.0</ele><time>2026-03-29T07:31:06.459Z</time></trkpt><trkpt lat="45.5709783" lon="10.4528867"><ele>225.0</ele><time>2026-03-29T07:31:07.459Z</time></trkpt><trkpt lat="45.5708067" lon="10.45314"><ele>225.5</ele><time>2026-03-29T07:31:08.459Z</time></trkpt><trkpt lat="45.5706217" lon="10.453375"><ele>226.0</ele><time>2026-03-29T07:31:09.459Z</time></trkpt><trkpt lat="45.5704217" lon="10.45359"><ele>228.0</ele><time>2026-03-29T07:31:10.459Z</time></trkpt><trkpt lat="45.570225" lon="10.4538017"><ele>230.0</ele><time>2026-03-29T07:31:11.459Z</time></trkpt><trkpt lat="45.5700217" lon="10.45401"><ele>230.0</ele><time>2026-03-29T07:31:12.458Z</time></trkpt><trkpt lat="45.569815" lon="10.4542267"><ele>230.0</ele><time>2026-03-29T07:31:13.458Z</time></trkpt><trkpt lat="45.5696083" lon="10.4544383"><ele>232.5</ele><time>2026-03-29T07:31:14.459Z</time></trkpt><trkpt lat="45.5693983" lon="10.454645"><ele>235.0</ele><time>2026-03-29T07:31:15.458Z</time></trkpt><trkpt lat="45.56918" lon="10.4548533"><ele>235.0</ele><time>2026-03-29T07:31:16.459Z</time></trkpt><trkpt lat="45.5689617" lon="10.4550567"><ele>235.0</ele><time>2026-03-29T07:31:17.459Z</time></trkpt><trkpt lat="45.5687367" lon="10.4552533"><ele>234.5</ele><time>2026-03-29T07:31:18.459Z</time></trkpt><trkpt lat="45.56852" lon="10.45544"><ele>234.0</ele><time>2026-03-29T07:31:19.458Z</time></trkpt><trkpt lat="45.5683183" lon="10.45562"><ele>235.5</ele><time>2026-03-29T07:31:20.458Z</time></trkpt><trkpt lat="45.5681217" lon="10.4558183"><ele>237.0</ele><time>2026-03-29T07:31:21.459Z</time></trkpt><trkpt lat="45.5679333" lon="10.4560467"><ele>237.5</ele><time>2026-03-29T07:31:22.459Z</time></trkpt><trkpt lat="45.5677533" lon="10.45629"><ele>238.0</ele><time>2026-03-29T07:31:23.459Z</time></trkpt><trkpt lat="45.5675867" lon="10.4565317"><ele>238.0</ele><time>2026-03-29T07:31:24.459Z</time></trkpt><trkpt lat="45.5674483" lon="10.4567567"><ele>238.0</ele><time>2026-03-29T07:31:25.459Z</time></trkpt><trkpt lat="45.5673333" lon="10.45695"><ele>238.0</ele><time>2026-03-29T07:31:26.459Z</time></trkpt><trkpt lat="45.5672367" lon="10.4571267"><ele>238.25</ele><time>2026-03-29T07:31:27.458Z</time></trkpt><trkpt lat="45.567135" lon="10.4572783"><ele>238.5</ele><time>2026-03-29T07:31:28.459Z</time></trkpt><trkpt lat="45.567035" lon="10.4574267"><ele>238.75</ele><time>2026-03-29T07:31:29.459Z</time></trkpt><trkpt lat="45.5669383" lon="10.4575783"><ele>239.0</ele><time>2026-03-29T07:31:30.458Z</time></trkpt><trkpt lat="45.5668383" lon="10.4577283"><ele>238.25</ele><time>2026-03-29T07:31:31.458Z</time></trkpt><trkpt lat="45.5667317" lon="10.4578767"><ele>237.5</ele><time>2026-03-29T07:31:32.459Z</time></trkpt><trkpt lat="45.566635" lon="10.45804"><ele>236.75</ele><time>2026-03-29T07:31:33.459Z</time></trkpt><trkpt lat="45.5665383" lon="10.458205"><ele>236.0</ele><time>2026-03-29T07:31:34.459Z</time></trkpt><trkpt lat="45.5664317" lon="10.4583617"><ele>236.0</ele><time>2026-03-29T07:31:35.459Z</time></trkpt><trkpt lat="45.566325" lon="10.4585"><ele>236.0</ele><time>2026-03-29T07:31:36.459Z</time></trkpt><trkpt lat="45.5662133" lon="10.45859"><ele>236.0</ele><time>2026-03-29T07:31:37.459Z</time></trkpt><trkpt lat="45.5661033" lon="10.458655"><ele>236.0</ele><time>2026-03-29T07:31:38.459Z</time></trkpt><trkpt lat="45.5659883" lon="10.45867"><ele>236.60000000000002</ele><time>2026-03-29T07:31:39.459Z</time></trkpt><trkpt lat="45.5658683" lon="10.45864"><ele>237.20000000000002</ele><time>2026-03-29T07:31:40.458Z</time></trkpt><trkpt lat="45.5657567" lon="10.4585883"><ele>237.79999999999998</ele><time>2026-03-29T07:31:41.459Z</time></trkpt><trkpt lat="45.565665" lon="10.4585483"><ele>238.39999999999998</ele><time>2026-03-29T07:31:42.459Z</time></trkpt><trkpt lat="45.565585" lon="10.45852"><ele>239.0</ele><time>2026-03-29T07:31:43.459Z</time></trkpt><trkpt lat="45.56551" lon="10.4584883"><ele>239.00000000000003</ele><time>2026-03-29T07:31:44.459Z</time></trkpt><trkpt lat="45.5654317" lon="10.45847"><ele>239.0</ele><time>2026-03-29T07:31:45.459Z</time></trkpt><trkpt lat="45.5653517" lon="10.45846"><ele>239.0</ele><time>2026-03-29T07:31:46.459Z</time></trkpt><trkpt lat="45.5652617" lon="10.4584467"><ele>239.0</ele><time>2026-03-29T07:31:47.458Z</time></trkpt><trkpt lat="45.5651733" lon="10.45843"><ele>239.00000000000003</ele><time>2026-03-29T07:31:48.459Z</time></trkpt><trkpt lat="45.5650867" lon="10.4584033"><ele>239.0</ele><time>2026-03-29T07:31:49.459Z</time></trkpt><trkpt lat="45.56499" lon="10.45836"><ele>238.75</ele><time>2026-03-29T07:31:50.459Z</time></trkpt><trkpt lat="45.5648867" lon="10.4583017"><ele>238.5</ele><time>2026-03-29T07:31:51.459Z</time></trkpt><trkpt lat="45.564775" lon="10.4582183"><ele>238.25</ele><time>2026-03-29T07:31:52.459Z</time></trkpt><trkpt lat="45.5646667" lon="10.458145"><ele>238.0</ele><time>2026-03-29T07:31:53.459Z</time></trkpt><trkpt lat="45.5645517" lon="10.4580667"><ele>238.0</ele><time>2026-03-29T07:31:54.459Z</time></trkpt><trkpt lat="45.56443" lon="10.458"><ele>238.0</ele><time>2026-03-29T07:31:55.458Z</time></trkpt><trkpt lat="45.5643067" lon="10.4579283"><ele>238.0</ele><time>2026-03-29T07:31:56.459Z</time></trkpt><trkpt lat="45.564185" lon="10.45785"><ele>238.0</ele><time>2026-03-29T07:31:57.459Z</time></trkpt><trkpt lat="45.5640633" lon="10.457785"><ele>237.5</ele><time>2026-03-29T07:31:58.459Z</time></trkpt><trkpt lat="45.5639367" lon="10.457715"><ele>237.0</ele><time>2026-03-29T07:31:59.459Z</time></trkpt><trkpt lat="45.5638167" lon="10.45765"><ele>236.5</ele><time>2026-03-29T07:32:00.459Z</time></trkpt><trkpt lat="45.5637017" lon="10.4575867"><ele>236.0</ele><time>2026-03-29T07:32:01.459Z</time></trkpt><trkpt lat="45.56359" lon="10.45754"><ele>236.0</ele><time>2026-03-29T07:32:02.459Z</time></trkpt><trkpt lat="45.5635" lon="10.45751"><ele>236.00000000000003</ele><time>2026-03-29T07:32:03.459Z</time></trkpt><trkpt lat="45.56342" lon="10.4575017"><ele>236.00000000000003</ele><time>2026-03-29T07:32:04.459Z</time></trkpt><trkpt lat="45.56331" lon="10.4575517"><ele>236.0</ele><time>2026-03-29T07:32:06.458Z</time></trkpt><trkpt lat="45.5632567" lon="10.4577083"><ele>236.0</ele><time>2026-03-29T07:32:08.459Z</time></trkpt><trkpt lat="45.5632367" lon="10.4578383"><ele>236.75</ele><time>2026-03-29T07:32:09.459Z</time></trkpt><trkpt lat="45.563225" lon="10.4580033"><ele>237.5</ele><time>2026-03-29T07:32:10.459Z</time></trkpt><trkpt lat="45.56321" lon="10.4581717"><ele>238.25</ele><time>2026-03-29T07:32:11.459Z</time></trkpt><trkpt lat="45.5631933" lon="10.4583367"><ele>239.0</ele><time>2026-03-29T07:32:12.459Z</time></trkpt><trkpt lat="45.563165" lon="10.4585133"><ele>239.0</ele><time>2026-03-29T07:32:13.459Z</time></trkpt><trkpt lat="45.563125" lon="10.4587133"><ele>239.0</ele><time>2026-03-29T07:32:14.458Z</time></trkpt><trkpt lat="45.5630783" lon="10.458945"><ele>239.0</ele><time>2026-03-29T07:32:15.459Z</time></trkpt><trkpt lat="45.5630233" lon="10.4591883"><ele>239.66666666666669</ele><time>2026-03-29T07:32:16.459Z</time></trkpt><trkpt lat="45.5629633" lon="10.4594217"><ele>240.33333333333331</ele><time>2026-03-29T07:32:17.459Z</time></trkpt><trkpt lat="45.56291" lon="10.45963"><ele>241.0</ele><time>2026-03-29T07:32:18.459Z</time></trkpt><trkpt lat="45.5628683" lon="10.4597967"><ele>241.16666666666666</ele><time>2026-03-29T07:32:19.459Z</time></trkpt><trkpt lat="45.5628267" lon="10.4599317"><ele>241.33333333333331</ele><time>2026-03-29T07:32:20.458Z</time></trkpt><trkpt lat="45.5627983" lon="10.460035"><ele>241.5</ele><time>2026-03-29T07:32:21.459Z</time></trkpt><trkpt lat="45.5627517" lon="10.4601083"><ele>241.66666666666669</ele><time>2026-03-29T07:32:22.459Z</time></trkpt><trkpt lat="45.5626783" lon="10.4601283"><ele>241.83333333333334</ele><time>2026-03-29T07:32:23.459Z</time></trkpt><trkpt lat="45.5625833" lon="10.4600567"><ele>242.0</ele><time>2026-03-29T07:32:24.459Z</time></trkpt><trkpt lat="45.5624533" lon="10.4599683"><ele>242.0</ele><time>2026-03-29T07:32:25.459Z</time></trkpt><trkpt lat="45.5622683" lon="10.45987"><ele>242.0</ele><time>2026-03-29T07:32:26.459Z</time></trkpt><trkpt lat="45.5620483" lon="10.4597633"><ele>242.0</ele><time>2026-03-29T07:32:27.459Z</time></trkpt><trkpt lat="45.5618467" lon="10.459685"><ele>240.66666666666669</ele><time>2026-03-29T07:32:28.458Z</time></trkpt><trkpt lat="45.561685" lon="10.459595"><ele>239.33333333333331</ele><time>2026-03-29T07:32:29.459Z</time></trkpt><trkpt lat="45.561535" lon="10.45952"><ele>238.0</ele><time>2026-03-29T07:32:30.459Z</time></trkpt><trkpt lat="45.5613767" lon="10.4594483"><ele>236.66666666666666</ele><time>2026-03-29T07:32:31.459Z</time></trkpt><trkpt lat="45.5611983" lon="10.4593983"><ele>235.33333333333331</ele><time>2026-03-29T07:32:32.459Z</time></trkpt><trkpt lat="45.5610017" lon="10.4593583"><ele>234.0</ele><time>2026-03-29T07:32:33.459Z</time></trkpt><trkpt lat="45.5607917" lon="10.4593333"><ele>234.0</ele><time>2026-03-29T07:32:34.459Z</time></trkpt><trkpt lat="45.5605833" lon="10.4593167"><ele>234.0</ele><time>2026-03-29T07:32:35.459Z</time></trkpt><trkpt lat="45.56039" lon="10.459295"><ele>234.0</ele><time>2026-03-29T07:32:36.459Z</time></trkpt><trkpt lat="45.5601967" lon="10.459265"><ele>233.5</ele><time>2026-03-29T07:32:37.458Z</time></trkpt><trkpt lat="45.5600383" lon="10.45923"><ele>233.0</ele><time>2026-03-29T07:32:38.458Z</time></trkpt><trkpt lat="45.5599217" lon="10.4591517"><ele>232.5</ele><time>2026-03-29T07:32:39.459Z</time></trkpt><trkpt lat="45.5598433" lon="10.4590383"><ele>232.0</ele><time>2026-03-29T07:32:40.459Z</time></trkpt><trkpt lat="45.5598067" lon="10.45887"><ele>231.0</ele><time>2026-03-29T07:32:41.459Z</time></trkpt><trkpt lat="45.5598017" lon="10.4586517"><ele>230.0</ele><time>2026-03-29T07:32:42.458Z</time></trkpt><trkpt lat="45.559815" lon="10.4584217"><ele>229.0</ele><time>2026-03-29T07:32:43.459Z</time></trkpt><trkpt lat="45.559835" lon="10.4581533"><ele>229.33333333333331</ele><time>2026-03-29T07:32:44.459Z</time></trkpt><trkpt lat="45.5598567" lon="10.4578833"><ele>229.66666666666669</ele><time>2026-03-29T07:32:45.459Z</time></trkpt><trkpt lat="45.55988" lon="10.4576317"><ele>230.0</ele><time>2026-03-29T07:32:46.459Z</time></trkpt><trkpt lat="45.5599017" lon="10.4573983"><ele>230.0</ele><time>2026-03-29T07:32:47.459Z</time></trkpt><trkpt lat="45.5599183" lon="10.45719"><ele>230.0</ele><time>2026-03-29T07:32:48.459Z</time></trkpt><trkpt lat="45.559935" lon="10.4569733"><ele>230.0</ele><time>2026-03-29T07:32:49.459Z</time></trkpt><trkpt lat="45.5599567" lon="10.4567683"><ele>230.0</ele><time>2026-03-29T07:32:50.459Z</time></trkpt><trkpt lat="45.5599717" lon="10.4565433"><ele>230.0</ele><time>2026-03-29T07:32:51.459Z</time></trkpt><trkpt lat="45.559985" lon="10.4562933"><ele>230.0</ele><time>2026-03-29T07:32:52.459Z</time></trkpt><trkpt lat="45.5600083" lon="10.456015"><ele>230.0</ele><time>2026-03-29T07:32:53.459Z</time></trkpt><trkpt lat="45.5600183" lon="10.45576"><ele>230.0</ele><time>2026-03-29T07:32:54.459Z</time></trkpt><trkpt lat="45.560035" lon="10.4555367"><ele>230.0</ele><time>2026-03-29T07:32:55.459Z</time></trkpt><trkpt lat="45.5600467" lon="10.4553567"><ele>230.0</ele><time>2026-03-29T07:32:56.459Z</time></trkpt><trkpt lat="45.5600567" lon="10.4552117"><ele>230.0</ele><time>2026-03-29T07:32:57.458Z</time></trkpt><trkpt lat="45.560055" lon="10.4551"><ele>230.0</ele><time>2026-03-29T07:32:58.459Z</time></trkpt><trkpt lat="45.559995" lon="10.4549583"><ele>230.0</ele><time>2026-03-29T07:33:00.459Z</time></trkpt><trkpt lat="45.5599267" lon="10.4549417"><ele>230.0</ele><time>2026-03-29T07:33:01.459Z</time></trkpt><trkpt lat="45.5598333" lon="10.4549583"><ele>230.0</ele><time>2026-03-29T07:33:02.459Z</time></trkpt><trkpt lat="45.5596917" lon="10.4549867"><ele>230.0</ele><time>2026-03-29T07:33:03.459Z</time></trkpt><trkpt lat="45.559535" lon="10.455025"><ele>229.0</ele><time>2026-03-29T07:33:04.458Z</time></trkpt><trkpt lat="45.5593817" lon="10.4550417"><ele>228.0</ele><time>2026-03-29T07:33:05.459Z</time></trkpt><trkpt lat="45.5592267" lon="10.455065"><ele>227.0</ele><time>2026-03-29T07:33:06.459Z</time></trkpt><trkpt lat="45.5590517" lon="10.45507"><ele>227.0</ele><time>2026-03-29T07:33:07.458Z</time></trkpt><trkpt lat="45.558865" lon="10.455085"><ele>227.0</ele><time>2026-03-29T07:33:08.459Z</time></trkpt><trkpt lat="45.55868" lon="10.4551083"><ele>227.0</ele><time>2026-03-29T07:33:09.459Z</time></trkpt><trkpt lat="45.5585017" lon="10.45513"><ele>225.66666666666669</ele><time>2026-03-29T07:33:10.459Z</time></trkpt><trkpt lat="45.55833" lon="10.4551683"><ele>224.33333333333331</ele><time>2026-03-29T07:33:11.459Z</time></trkpt><trkpt lat="45.5581717" lon="10.4552117"><ele>223.0</ele><time>2026-03-29T07:33:12.458Z</time></trkpt><trkpt lat="45.55804" lon="10.455255"><ele>223.0</ele><time>2026-03-29T07:33:13.459Z</time></trkpt><trkpt lat="45.55792" lon="10.455285"><ele>223.0</ele><time>2026-03-29T07:33:14.459Z</time></trkpt><trkpt lat="45.5578267" lon="10.4553317"><ele>223.0</ele><time>2026-03-29T07:33:15.459Z</time></trkpt><trkpt lat="45.5577533" lon="10.4554083"><ele>223.0</ele><time>2026-03-29T07:33:16.458Z</time></trkpt><trkpt lat="45.5577033" lon="10.4555283"><ele>223.0</ele><time>2026-03-29T07:33:17.459Z</time></trkpt><trkpt lat="45.5576583" lon="10.4556833"><ele>224.25</ele><time>2026-03-29T07:33:18.459Z</time></trkpt><trkpt lat="45.5576467" lon="10.4559133"><ele>225.5</ele><time>2026-03-29T07:33:19.459Z</time></trkpt><trkpt lat="45.5576267" lon="10.4561267"><ele>226.75</ele><time>2026-03-29T07:33:20.459Z</time></trkpt><trkpt lat="45.5575967" lon="10.4563067"><ele>228.0</ele><time>2026-03-29T07:33:21.459Z</time></trkpt><trkpt lat="45.5575517" lon="10.45648"><ele>228.75</ele><time>2026-03-29T07:33:22.459Z</time></trkpt><trkpt lat="45.5574733" lon="10.4566017"><ele>229.5</ele><time>2026-03-29T07:33:23.459Z</time></trkpt><trkpt lat="45.5573767" lon="10.4567"><ele>230.25</ele><time>2026-03-29T07:33:24.459Z</time></trkpt><trkpt lat="45.55727" lon="10.4568133"><ele>231.0</ele><time>2026-03-29T07:33:25.459Z</time></trkpt><trkpt lat="45.5571583" lon="10.4569133"><ele>231.0</ele><time>2026-03-29T07:33:26.459Z</time></trkpt><trkpt lat="45.5570533" lon="10.457015"><ele>231.0</ele><time>2026-03-29T07:33:27.459Z</time></trkpt><trkpt lat="45.5569567" lon="10.45713"><ele>231.0</ele><time>2026-03-29T07:33:28.459Z</time></trkpt><trkpt lat="45.5568533" lon="10.4572317"><ele>231.0</ele><time>2026-03-29T07:33:29.459Z</time></trkpt><trkpt lat="45.5567367" lon="10.4573367"><ele>234.0</ele><time>2026-03-29T07:33:30.459Z</time></trkpt><trkpt lat="45.5566" lon="10.4574317"><ele>237.0</ele><time>2026-03-29T07:33:31.459Z</time></trkpt><trkpt lat="45.5564467" lon="10.4575183"><ele>240.0</ele><time>2026-03-29T07:33:32.459Z</time></trkpt><trkpt lat="45.5563083" lon="10.4576217"><ele>239.5</ele><time>2026-03-29T07:33:33.459Z</time></trkpt><trkpt lat="45.5561883" lon="10.4577283"><ele>239.0</ele><time>2026-03-29T07:33:34.459Z</time></trkpt><trkpt lat="45.5560867" lon="10.4578383"><ele>238.5</ele><time>2026-03-29T07:33:35.459Z</time></trkpt><trkpt lat="45.5559883" lon="10.4579617"><ele>238.0</ele><time>2026-03-29T07:33:36.459Z</time></trkpt><trkpt lat="45.5559283" lon="10.4581117"><ele>240.25</ele><time>2026-03-29T07:33:37.459Z</time></trkpt><trkpt lat="45.5558767" lon="10.458255"><ele>242.5</ele><time>2026-03-29T07:33:38.459Z</time></trkpt><trkpt lat="45.5558017" lon="10.4583583"><ele>244.75</ele><time>2026-03-29T07:33:39.459Z</time></trkpt><trkpt lat="45.5557" lon="10.458445"><ele>247.0</ele><time>2026-03-29T07:33:40.459Z</time></trkpt><trkpt lat="45.555575" lon="10.4585267"><ele>247.0</ele><time>2026-03-29T07:33:41.459Z</time></trkpt><trkpt lat="45.5554417" lon="10.4585983"><ele>247.0</ele><time>2026-03-29T07:33:42.459Z</time></trkpt><trkpt lat="45.5553" lon="10.45867"><ele>247.0</ele><time>2026-03-29T07:33:43.459Z</time></trkpt><trkpt lat="45.5551483" lon="10.458745"><ele>249.0</ele><time>2026-03-29T07:33:44.459Z</time></trkpt><trkpt lat="45.5549933" lon="10.458815"><ele>251.0</ele><time>2026-03-29T07:33:45.459Z</time></trkpt><trkpt lat="45.5548483" lon="10.4588833"><ele>253.0</ele><time>2026-03-29T07:33:46.459Z</time></trkpt><trkpt lat="45.5547167" lon="10.4589467"><ele>253.0</ele><time>2026-03-29T07:33:47.459Z</time></trkpt><trkpt lat="45.5546" lon="10.459015"><ele>253.0</ele><time>2026-03-29T07:33:48.459Z</time></trkpt><trkpt lat="45.55451" lon="10.4590867"><ele>253.0</ele><time>2026-03-29T07:33:49.459Z</time></trkpt><trkpt lat="45.554445" lon="10.4591667"><ele>253.0</ele><time>2026-03-29T07:33:50.459Z</time></trkpt><trkpt lat="45.554395" lon="10.459255"><ele>253.0</ele><time>2026-03-29T07:33:51.459Z</time></trkpt><trkpt lat="45.5543567" lon="10.459345"><ele>252.2</ele><time>2026-03-29T07:33:52.459Z</time></trkpt><trkpt lat="45.5543333" lon="10.4594417"><ele>251.4</ele><time>2026-03-29T07:33:54.458Z</time></trkpt><trkpt lat="45.5542183" lon="10.4594317"><ele>250.59999999999997</ele><time>2026-03-29T07:34:11.459Z</time></trkpt><trkpt lat="45.554145" lon="10.4594783"><ele>249.79999999999998</ele><time>2026-03-29T07:34:12.459Z</time></trkpt><trkpt lat="45.554075" lon="10.4595567"><ele>249.0</ele><time>2026-03-29T07:34:13.459Z</time></trkpt><trkpt lat="45.554005" lon="10.4596567"><ele>249.0</ele><time>2026-03-29T07:34:14.458Z</time></trkpt><trkpt lat="45.5539317" lon="10.4597483"><ele>249.0</ele><time>2026-03-29T07:34:15.459Z</time></trkpt><trkpt lat="45.55387" lon="10.4598317"><ele>249.0</ele><time>2026-03-29T07:34:16.458Z</time></trkpt><trkpt lat="45.5538183" lon="10.45992"><ele>249.0</ele><time>2026-03-29T07:34:17.459Z</time></trkpt><trkpt lat="45.553765" lon="10.4600217"><ele>249.0</ele><time>2026-03-29T07:34:18.459Z</time></trkpt><trkpt lat="45.5537133" lon="10.460135"><ele>249.0</ele><time>2026-03-29T07:34:19.459Z</time></trkpt><trkpt lat="45.553655" lon="10.4602683"><ele>248.16666666666666</ele><time>2026-03-29T07:34:20.459Z</time></trkpt><trkpt lat="45.5535967" lon="10.4603983"><ele>247.33333333333331</ele><time>2026-03-29T07:34:21.459Z</time></trkpt><trkpt lat="45.553545" lon="10.4605133"><ele>246.5</ele><time>2026-03-29T07:34:22.459Z</time></trkpt><trkpt lat="45.553505" lon="10.4605983"><ele>245.66666666666666</ele><time>2026-03-29T07:34:23.459Z</time></trkpt><trkpt lat="45.5534667" lon="10.4606767"><ele>244.83333333333331</ele><time>2026-03-29T07:34:24.459Z</time></trkpt><trkpt lat="45.5534183" lon="10.46074"><ele>244.0</ele><time>2026-03-29T07:34:25.458Z</time></trkpt><trkpt lat="45.553325" lon="10.4608667"><ele>243.99999999999997</ele><time>2026-03-29T07:34:27.459Z</time></trkpt><trkpt lat="45.55326" lon="10.4609133"><ele>244.0</ele><time>2026-03-29T07:34:28.459Z</time></trkpt><trkpt lat="45.553195" lon="10.4609383"><ele>243.99999999999997</ele><time>2026-03-29T07:34:29.458Z</time></trkpt><trkpt lat="45.5531317" lon="10.4609667"><ele>243.99999999999997</ele><time>2026-03-29T07:34:30.459Z</time></trkpt><trkpt lat="45.55307" lon="10.4609967"><ele>244.0</ele><time>2026-03-29T07:34:31.459Z</time></trkpt><trkpt lat="45.5530033" lon="10.461005"><ele>243.99999999999997</ele><time>2026-03-29T07:34:32.459Z</time></trkpt><trkpt lat="45.5529183" lon="10.46104"><ele>243.99999999999997</ele><time>2026-03-29T07:34:34.459Z</time></trkpt><trkpt lat="45.5528883" lon="10.46118"><ele>243.99999999999997</ele><time>2026-03-29T07:34:37.459Z</time></trkpt><trkpt lat="45.5528817" lon="10.461355"><ele>244.0</ele><time>2026-03-29T07:34:39.459Z</time></trkpt><trkpt lat="45.5528717" lon="10.4614567"><ele>244.0</ele><time>2026-03-29T07:34:41.459Z</time></trkpt><trkpt lat="45.552835" lon="10.4615383"><ele>244.0</ele><time>2026-03-29T07:34:46.459Z</time></trkpt><trkpt lat="45.5527733" lon="10.4615633"><ele>243.99999999999997</ele><time>2026-03-29T07:34:48.459Z</time></trkpt><trkpt lat="45.552655" lon="10.4615733"><ele>244.0</ele><time>2026-03-29T07:34:50.459Z</time></trkpt><trkpt lat="45.5525767" lon="10.4615833"><ele>243.99999999999997</ele><time>2026-03-29T07:34:51.459Z</time></trkpt><trkpt lat="45.5524883" lon="10.4615983"><ele>244.0</ele><time>2026-03-29T07:34:52.459Z</time></trkpt><trkpt lat="45.5524083" lon="10.4615883"><ele>244.0</ele><time>2026-03-29T07:34:53.459Z</time></trkpt><trkpt lat="45.5523383" lon="10.4615883"><ele>244.0</ele><time>2026-03-29T07:34:54.459Z</time></trkpt><trkpt lat="45.5522483" lon="10.4615167"><ele>243.99999999999997</ele><time>2026-03-29T07:34:56.459Z</time></trkpt><trkpt lat="45.5521717" lon="10.46141"><ele>244.0</ele><time>2026-03-29T07:34:58.459Z</time></trkpt><trkpt lat="45.55207" lon="10.4613567"><ele>244.33333333333331</ele><time>2026-03-29T07:35:00.459Z</time></trkpt><trkpt lat="45.55202" lon="10.4613"><ele>244.66666666666666</ele><time>2026-03-29T07:35:01.459Z</time></trkpt><trkpt lat="45.5519667" lon="10.4612167"><ele>245.0</ele><time>2026-03-29T07:35:02.459Z</time></trkpt><trkpt lat="45.5519167" lon="10.4611367"><ele>245.33333333333331</ele><time>2026-03-29T07:35:03.459Z</time></trkpt><trkpt lat="45.5518483" lon="10.46107"><ele>245.66666666666666</ele><time>2026-03-29T07:35:04.459Z</time></trkpt><trkpt lat="45.551765" lon="10.461025"><ele>246.0</ele><time>2026-03-29T07:35:05.459Z</time></trkpt><trkpt lat="45.551665" lon="10.4609983"><ele>245.0</ele><time>2026-03-29T07:35:06.459Z</time></trkpt><trkpt lat="45.551545" lon="10.461"><ele>244.0</ele><time>2026-03-29T07:35:07.459Z</time></trkpt><trkpt lat="45.5514133" lon="10.4610317"><ele>243.0</ele><time>2026-03-29T07:35:08.459Z</time></trkpt><trkpt lat="45.5513" lon="10.4610617"><ele>242.0</ele><time>2026-03-29T07:35:09.459Z</time></trkpt><trkpt lat="45.5511867" lon="10.4610833"><ele>241.83333333333334</ele><time>2026-03-29T07:35:10.459Z</time></trkpt><trkpt lat="45.551085" lon="10.461095"><ele>241.66666666666669</ele><time>2026-03-29T07:35:11.459Z</time></trkpt><trkpt lat="45.5509967" lon="10.4610917"><ele>241.5</ele><time>2026-03-29T07:35:12.459Z</time></trkpt><trkpt lat="45.5509267" lon="10.4610717"><ele>241.33333333333331</ele><time>2026-03-29T07:35:13.459Z</time></trkpt><trkpt lat="45.55085" lon="10.4610367"><ele>241.16666666666666</ele><time>2026-03-29T07:35:14.459Z</time></trkpt><trkpt lat="45.5507833" lon="10.4609667"><ele>241.0</ele><time>2026-03-29T07:35:15.459Z</time></trkpt><trkpt lat="45.5507567" lon="10.4608567"><ele>240.99999999999997</ele><time>2026-03-29T07:35:16.459Z</time></trkpt><trkpt lat="45.5507467" lon="10.4607417"><ele>241.0</ele><time>2026-03-29T07:35:17.459Z</time></trkpt><trkpt lat="45.5507517" lon="10.4606283"><ele>241.0</ele><time>2026-03-29T07:35:18.459Z</time></trkpt><trkpt lat="45.5507517" lon="10.4605183"><ele>241.0</ele><time>2026-03-29T07:35:19.459Z</time></trkpt><trkpt lat="45.550745" lon="10.46041"><ele>240.99999999999997</ele><time>2026-03-29T07:35:20.459Z</time></trkpt><trkpt lat="45.5507217" lon="10.460315"><ele>241.0</ele><time>2026-03-29T07:35:21.459Z</time></trkpt><trkpt lat="45.5506467" lon="10.4602"><ele>240.60000000000002</ele><time>2026-03-29T07:35:23.459Z</time></trkpt><trkpt lat="45.550575" lon="10.4601867"><ele>240.20000000000002</ele><time>2026-03-29T07:35:24.459Z</time></trkpt><trkpt lat="45.5504833" lon="10.4602"><ele>239.79999999999998</ele><time>2026-03-29T07:35:25.459Z</time></trkpt><trkpt lat="45.5503617" lon="10.4602433"><ele>239.39999999999998</ele><time>2026-03-29T07:35:26.459Z</time></trkpt><trkpt lat="45.5502267" lon="10.4602733"><ele>239.0</ele><time>2026-03-29T07:35:27.459Z</time></trkpt><trkpt lat="45.5500933" lon="10.46031"><ele>239.0</ele><time>2026-03-29T07:35:28.459Z</time></trkpt><trkpt lat="45.5499633" lon="10.46034"><ele>239.0</ele><time>2026-03-29T07:35:29.459Z</time></trkpt><trkpt lat="45.5498483" lon="10.4603567"><ele>239.0</ele><time>2026-03-29T07:35:30.458Z</time></trkpt><trkpt lat="45.549735" lon="10.46037"><ele>239.0</ele><time>2026-03-29T07:35:31.459Z</time></trkpt><trkpt lat="45.5496433" lon="10.4603817"><ele>239.0</ele><time>2026-03-29T07:35:32.459Z</time></trkpt><trkpt lat="45.549565" lon="10.4603933"><ele>238.99999999999997</ele><time>2026-03-29T07:35:33.459Z</time></trkpt><trkpt lat="45.54949" lon="10.4603733"><ele>238.99999999999997</ele><time>2026-03-29T07:35:34.459Z</time></trkpt><trkpt lat="45.54938" lon="10.4602667"><ele>239.0</ele><time>2026-03-29T07:35:36.459Z</time></trkpt><trkpt lat="45.5493217" lon="10.4601533"><ele>239.0</ele><time>2026-03-29T07:35:37.459Z</time></trkpt><trkpt lat="45.5492233" lon="10.459995"><ele>240.33333333333334</ele><time>2026-03-29T07:35:38.459Z</time></trkpt><trkpt lat="45.5490983" lon="10.459825"><ele>241.66666666666669</ele><time>2026-03-29T07:35:39.458Z</time></trkpt><trkpt lat="45.5489733" lon="10.4596783"><ele>243.0</ele><time>2026-03-29T07:35:40.459Z</time></trkpt><trkpt lat="45.5488683" lon="10.459555"><ele>243.0</ele><time>2026-03-29T07:35:41.459Z</time></trkpt><trkpt lat="45.5487717" lon="10.4594533"><ele>243.0</ele><time>2026-03-29T07:35:42.459Z</time></trkpt><trkpt lat="45.5486717" lon="10.4593633"><ele>243.0</ele><time>2026-03-29T07:35:43.459Z</time></trkpt><trkpt lat="45.5485783" lon="10.4592617"><ele>243.0</ele><time>2026-03-29T07:35:44.459Z</time></trkpt><trkpt lat="45.5485033" lon="10.4591617"><ele>243.33333333333334</ele><time>2026-03-29T07:35:45.459Z</time></trkpt><trkpt lat="45.5484167" lon="10.4590883"><ele>243.66666666666669</ele><time>2026-03-29T07:35:46.459Z</time></trkpt><trkpt lat="45.5483467" lon="10.4590517"><ele>244.0</ele><time>2026-03-29T07:35:47.459Z</time></trkpt><trkpt lat="45.5482667" lon="10.4590333"><ele>244.33333333333334</ele><time>2026-03-29T07:35:48.458Z</time></trkpt><trkpt lat="45.5481883" lon="10.4590617"><ele>244.66666666666669</ele><time>2026-03-29T07:35:49.459Z</time></trkpt><trkpt lat="45.5481333" lon="10.4591167"><ele>245.0</ele><time>2026-03-29T07:35:50.459Z</time></trkpt><trkpt lat="45.5480983" lon="10.4592"><ele>245.0</ele><time>2026-03-29T07:35:51.459Z</time></trkpt><trkpt lat="45.5481033" lon="10.4593483"><ele>245.0</ele><time>2026-03-29T07:35:52.458Z</time></trkpt><trkpt lat="45.5481367" lon="10.459525"><ele>245.0</ele><time>2026-03-29T07:35:53.459Z</time></trkpt><trkpt lat="45.5481667" lon="10.459725"><ele>245.0</ele><time>2026-03-29T07:35:54.459Z</time></trkpt><trkpt lat="45.5481717" lon="10.4599283"><ele>245.0</ele><time>2026-03-29T07:35:55.459Z</time></trkpt><trkpt lat="45.548145" lon="10.4601217"><ele>245.0</ele><time>2026-03-29T07:35:56.459Z</time></trkpt><trkpt lat="45.5480833" lon="10.46032"><ele>245.0</ele><time>2026-03-29T07:35:57.459Z</time></trkpt><trkpt lat="45.54801" lon="10.4605283"><ele>245.0</ele><time>2026-03-29T07:35:58.459Z</time></trkpt><trkpt lat="45.5479333" lon="10.4607617"><ele>245.0</ele><time>2026-03-29T07:35:59.459Z</time></trkpt><trkpt lat="45.5478683" lon="10.4610133"><ele>245.0</ele><time>2026-03-29T07:36:00.459Z</time></trkpt><trkpt lat="45.5478017" lon="10.461285"><ele>245.66666666666669</ele><time>2026-03-29T07:36:01.459Z</time></trkpt><trkpt lat="45.5477517" lon="10.4615717"><ele>246.33333333333331</ele><time>2026-03-29T07:36:02.459Z</time></trkpt><trkpt lat="45.54772" lon="10.461885"><ele>247.0</ele><time>2026-03-29T07:36:03.459Z</time></trkpt><trkpt lat="45.5476867" lon="10.4622"><ele>248.0</ele><time>2026-03-29T07:36:04.458Z</time></trkpt><trkpt lat="45.5476567" lon="10.4624867"><ele>249.0</ele><time>2026-03-29T07:36:05.459Z</time></trkpt><trkpt lat="45.5476383" lon="10.46276"><ele>250.0</ele><time>2026-03-29T07:36:06.459Z</time></trkpt><trkpt lat="45.547615" lon="10.4630267"><ele>251.33333333333331</ele><time>2026-03-29T07:36:07.459Z</time></trkpt><trkpt lat="45.54759" lon="10.46327"><ele>252.66666666666669</ele><time>2026-03-29T07:36:08.459Z</time></trkpt><trkpt lat="45.54756" lon="10.4635017"><ele>254.0</ele><time>2026-03-29T07:36:09.459Z</time></trkpt><trkpt lat="45.547535" lon="10.4637167"><ele>254.75</ele><time>2026-03-29T07:36:10.459Z</time></trkpt><trkpt lat="45.5475083" lon="10.4639167"><ele>255.5</ele><time>2026-03-29T07:36:11.459Z</time></trkpt><trkpt lat="45.5474917" lon="10.4641017"><ele>256.25</ele><time>2026-03-29T07:36:12.459Z</time></trkpt><trkpt lat="45.5474717" lon="10.4642817"><ele>257.0</ele><time>2026-03-29T07:36:13.459Z</time></trkpt><trkpt lat="45.5474567" lon="10.4644583"><ele>256.8</ele><time>2026-03-29T07:36:14.459Z</time></trkpt><trkpt lat="45.5474467" lon="10.46463"><ele>256.6</ele><time>2026-03-29T07:36:15.459Z</time></trkpt><trkpt lat="45.547425" lon="10.46477"><ele>256.40000000000003</ele><time>2026-03-29T07:36:16.459Z</time></trkpt><trkpt lat="45.5474083" lon="10.4648683"><ele>256.2</ele><time>2026-03-29T07:36:17.459Z</time></trkpt><trkpt lat="45.54737" lon="10.4649967"><ele>256.0</ele><time>2026-03-29T07:36:19.459Z</time></trkpt><trkpt lat="45.547305" lon="10.46494"><ele>256.0</ele><time>2026-03-29T07:36:22.459Z</time></trkpt><trkpt lat="45.54719" lon="10.464815"><ele>256.0</ele><time>2026-03-29T07:36:24.459Z</time></trkpt><trkpt lat="45.5470967" lon="10.4647817"><ele>256.0</ele><time>2026-03-29T07:36:25.459Z</time></trkpt><trkpt lat="45.5469817" lon="10.46477"><ele>256.0</ele><time>2026-03-29T07:36:26.459Z</time></trkpt><trkpt lat="45.5468383" lon="10.4647633"><ele>255.33333333333331</ele><time>2026-03-29T07:36:27.459Z</time></trkpt><trkpt lat="45.54667" lon="10.4647617"><ele>254.66666666666669</ele><time>2026-03-29T07:36:28.459Z</time></trkpt><trkpt lat="45.5465083" lon="10.4647467"><ele>254.0</ele><time>2026-03-29T07:36:29.459Z</time></trkpt><trkpt lat="45.5463633" lon="10.4647217"><ele>254.0</ele><time>2026-03-29T07:36:30.459Z</time></trkpt><trkpt lat="45.5462283" lon="10.4646817"><ele>254.0</ele><time>2026-03-29T07:36:31.459Z</time></trkpt><trkpt lat="45.5460883" lon="10.4646083"><ele>254.0</ele><time>2026-03-29T07:36:32.459Z</time></trkpt><trkpt lat="45.5459367" lon="10.464535"><ele>254.0</ele><time>2026-03-29T07:36:33.459Z</time></trkpt><trkpt lat="45.5457717" lon="10.4644683"><ele>253.66666666666669</ele><time>2026-03-29T07:36:34.459Z</time></trkpt><trkpt lat="45.5456" lon="10.4644083"><ele>253.33333333333331</ele><time>2026-03-29T07:36:35.459Z</time></trkpt><trkpt lat="45.545445" lon="10.4643833"><ele>253.0</ele><time>2026-03-29T07:36:36.459Z</time></trkpt><trkpt lat="45.5452983" lon="10.4643283"><ele>252.75</ele><time>2026-03-29T07:36:37.459Z</time></trkpt><trkpt lat="45.54516" lon="10.4642833"><ele>252.5</ele><time>2026-03-29T07:36:38.459Z</time></trkpt><trkpt lat="45.5450383" lon="10.4642417"><ele>252.25</ele><time>2026-03-29T07:36:39.459Z</time></trkpt><trkpt lat="45.54492" lon="10.4642033"><ele>252.0</ele><time>2026-03-29T07:36:40.458Z</time></trkpt><trkpt lat="45.544785" lon="10.4641317"><ele>252.0</ele><time>2026-03-29T07:36:41.459Z</time></trkpt><trkpt lat="45.5446417" lon="10.4640867"><ele>252.0</ele><time>2026-03-29T07:36:42.459Z</time></trkpt><trkpt lat="45.544485" lon="10.4640433"><ele>252.0</ele><time>2026-03-29T07:36:43.459Z</time></trkpt><trkpt lat="45.5443217" lon="10.463975"><ele>252.0</ele><time>2026-03-29T07:36:44.459Z</time></trkpt><trkpt lat="45.5441667" lon="10.4639283"><ele>252.0</ele><time>2026-03-29T07:36:45.459Z</time></trkpt><trkpt lat="45.5440317" lon="10.4638817"><ele>252.0</ele><time>2026-03-29T07:36:46.459Z</time></trkpt><trkpt lat="45.5439183" lon="10.4638467"><ele>252.0</ele><time>2026-03-29T07:36:47.459Z</time></trkpt><trkpt lat="45.543815" lon="10.4638367"><ele>252.0</ele><time>2026-03-29T07:36:48.459Z</time></trkpt><trkpt lat="45.5437333" lon="10.463825"><ele>252.0</ele><time>2026-03-29T07:36:49.459Z</time></trkpt><trkpt lat="45.54364" lon="10.4637683"><ele>252.0</ele><time>2026-03-29T07:36:51.458Z</time></trkpt><trkpt lat="45.5435833" lon="10.4635817"><ele>252.0</ele><time>2026-03-29T07:36:53.459Z</time></trkpt><trkpt lat="45.5435567" lon="10.4634133"><ele>252.0</ele><time>2026-03-29T07:36:54.459Z</time></trkpt><trkpt lat="45.543525" lon="10.4632083"><ele>252.25</ele><time>2026-03-29T07:36:55.459Z</time></trkpt><trkpt lat="45.5435" lon="10.463015"><ele>252.5</ele><time>2026-03-29T07:36:56.459Z</time></trkpt><trkpt lat="45.5434583" lon="10.4628417"><ele>252.75</ele><time>2026-03-29T07:36:57.459Z</time></trkpt><trkpt lat="45.543415" lon="10.4626633"><ele>253.0</ele><time>2026-03-29T07:36:58.459Z</time></trkpt><trkpt lat="45.5433867" lon="10.462475"><ele>253.0</ele><time>2026-03-29T07:36:59.459Z</time></trkpt><trkpt lat="45.5433733" lon="10.46227"><ele>253.0</ele><time>2026-03-29T07:37:00.459Z</time></trkpt><trkpt lat="45.5433633" lon="10.4620583"><ele>253.0</ele><time>2026-03-29T07:37:01.459Z</time></trkpt><trkpt lat="45.543355" lon="10.4618633"><ele>253.0</ele><time>2026-03-29T07:37:02.459Z</time></trkpt><trkpt lat="45.5433433" lon="10.4616867"><ele>253.25</ele><time>2026-03-29T07:37:03.459Z</time></trkpt><trkpt lat="45.543315" lon="10.4614967"><ele>253.5</ele><time>2026-03-29T07:37:04.459Z</time></trkpt><trkpt lat="45.543265" lon="10.46131"><ele>253.75</ele><time>2026-03-29T07:37:05.459Z</time></trkpt><trkpt lat="45.5432017" lon="10.4610967"><ele>254.0</ele><time>2026-03-29T07:37:06.459Z</time></trkpt><trkpt lat="45.5431417" lon="10.460895"><ele>254.2</ele><time>2026-03-29T07:37:07.459Z</time></trkpt><trkpt lat="45.5431" lon="10.46073"><ele>254.39999999999998</ele><time>2026-03-29T07:37:08.459Z</time></trkpt><trkpt lat="45.5430783" lon="10.4606067"><ele>254.6</ele><time>2026-03-29T07:37:09.459Z</time></trkpt><trkpt lat="45.54308" lon="10.460485"><ele>254.8</ele><time>2026-03-29T07:37:10.459Z</time></trkpt><trkpt lat="45.543085" lon="10.4603683"><ele>255.0</ele><time>2026-03-29T07:37:11.459Z</time></trkpt><trkpt lat="45.5430833" lon="10.4602467"><ele>255.2</ele><time>2026-03-29T07:37:12.459Z</time></trkpt><trkpt lat="45.543075" lon="10.4601167"><ele>255.4</ele><time>2026-03-29T07:37:13.459Z</time></trkpt><trkpt lat="45.543045" lon="10.45998"><ele>255.60000000000002</ele><time>2026-03-29T07:37:14.458Z</time></trkpt><trkpt lat="45.5429983" lon="10.459845"><ele>255.8</ele><time>2026-03-29T07:37:15.458Z</time></trkpt><trkpt lat="45.542965" lon="10.4597083"><ele>256.0</ele><time>2026-03-29T07:37:16.459Z</time></trkpt><trkpt lat="45.5429367" lon="10.45957"><ele>256.16666666666663</ele><time>2026-03-29T07:37:17.459Z</time></trkpt><trkpt lat="45.5429067" lon="10.4594317"><ele>256.3333333333333</ele><time>2026-03-29T07:37:18.459Z</time></trkpt><trkpt lat="45.54288" lon="10.4593167"><ele>256.5</ele><time>2026-03-29T07:37:19.459Z</time></trkpt><trkpt lat="45.54287" lon="10.4591917"><ele>256.6666666666667</ele><time>2026-03-29T07:37:20.459Z</time></trkpt><trkpt lat="45.5428667" lon="10.45908"><ele>256.83333333333337</ele><time>2026-03-29T07:37:21.459Z</time></trkpt><trkpt lat="45.54287" lon="10.45898"><ele>257.0</ele><time>2026-03-29T07:37:22.459Z</time></trkpt><trkpt lat="45.542905" lon="10.4588383"><ele>256.4</ele><time>2026-03-29T07:37:24.459Z</time></trkpt><trkpt lat="45.5429733" lon="10.4587667"><ele>255.79999999999998</ele><time>2026-03-29T07:37:26.459Z</time></trkpt><trkpt lat="45.5431117" lon="10.4587883"><ele>255.2</ele><time>2026-03-29T07:37:28.459Z</time></trkpt><trkpt lat="45.5431883" lon="10.458805"><ele>254.6</ele><time>2026-03-29T07:37:29.458Z</time></trkpt><trkpt lat="45.5432833" lon="10.4587767"><ele>254.0</ele><time>2026-03-29T07:37:31.459Z</time></trkpt><trkpt lat="45.5433067" lon="10.45864"><ele>253.39999999999998</ele><time>2026-03-29T07:37:33.459Z</time></trkpt><trkpt lat="45.543305" lon="10.4585083"><ele>252.79999999999998</ele><time>2026-03-29T07:37:34.459Z</time></trkpt><trkpt lat="45.5432917" lon="10.4583683"><ele>252.20000000000002</ele><time>2026-03-29T07:37:35.459Z</time></trkpt><trkpt lat="45.54328" lon="10.4582367"><ele>251.60000000000002</ele><time>2026-03-29T07:37:36.459Z</time></trkpt><trkpt lat="45.543275" lon="10.4581083"><ele>251.0</ele><time>2026-03-29T07:37:37.459Z</time></trkpt><trkpt lat="45.5432667" lon="10.45797"><ele>250.60000000000002</ele><time>2026-03-29T07:37:38.459Z</time></trkpt><trkpt lat="45.5432583" lon="10.4578183"><ele>250.20000000000002</ele><time>2026-03-29T07:37:39.459Z</time></trkpt><trkpt lat="45.5432533" lon="10.4576833"><ele>249.79999999999998</ele><time>2026-03-29T07:37:40.459Z</time></trkpt><trkpt lat="45.5432583" lon="10.4575117"><ele>249.39999999999998</ele><time>2026-03-29T07:37:42.459Z</time></trkpt><trkpt lat="45.54327" lon="10.45742"><ele>249.0</ele><time>2026-03-29T07:37:43.459Z</time></trkpt><trkpt lat="45.5432883" lon="10.45731"><ele>249.0</ele><time>2026-03-29T07:37:44.458Z</time></trkpt><trkpt lat="45.54332" lon="10.4571783"><ele>248.99999999999997</ele><time>2026-03-29T07:37:45.459Z</time></trkpt><trkpt lat="45.5433567" lon="10.4570483"><ele>248.99999999999997</ele><time>2026-03-29T07:37:46.459Z</time></trkpt><trkpt lat="45.543395" lon="10.4569133"><ele>249.0</ele><time>2026-03-29T07:37:47.459Z</time></trkpt><trkpt lat="45.5434267" lon="10.4567967"><ele>249.0</ele><time>2026-03-29T07:37:48.459Z</time></trkpt><trkpt lat="45.5434617" lon="10.456685"><ele>248.6</ele><time>2026-03-29T07:37:49.459Z</time></trkpt><trkpt lat="45.5434983" lon="10.4565667"><ele>248.2</ele><time>2026-03-29T07:37:50.458Z</time></trkpt><trkpt lat="45.5435267" lon="10.4564367"><ele>247.79999999999998</ele><time>2026-03-29T07:37:51.459Z</time></trkpt><trkpt lat="45.543555" lon="10.4563083"><ele>247.39999999999998</ele><time>2026-03-29T07:37:52.458Z</time></trkpt><trkpt lat="45.5435667" lon="10.45615"><ele>247.0</ele><time>2026-03-29T07:37:53.459Z</time></trkpt><trkpt lat="45.5435683" lon="10.4559867"><ele>247.0</ele><time>2026-03-29T07:37:54.459Z</time></trkpt><trkpt lat="45.5435683" lon="10.45579"><ele>247.0</ele><time>2026-03-29T07:37:55.459Z</time></trkpt><trkpt lat="45.543565" lon="10.4556017"><ele>247.0</ele><time>2026-03-29T07:37:56.459Z</time></trkpt><trkpt lat="45.54356" lon="10.45542"><ele>247.0</ele><time>2026-03-29T07:37:57.459Z</time></trkpt><trkpt lat="45.5435767" lon="10.4552367"><ele>246.49999999999997</ele><time>2026-03-29T07:37:58.459Z</time></trkpt><trkpt lat="45.54359" lon="10.45507"><ele>246.0</ele><time>2026-03-29T07:37:59.458Z</time></trkpt><trkpt lat="45.5436" lon="10.4549233"><ele>245.5</ele><time>2026-03-29T07:38:00.458Z</time></trkpt><trkpt lat="45.5436083" lon="10.4548133"><ele>245.0</ele><time>2026-03-29T07:38:01.459Z</time></trkpt><trkpt lat="45.543615" lon="10.4546983"><ele>244.49999999999997</ele><time>2026-03-29T07:38:02.459Z</time></trkpt><trkpt lat="45.543625" lon="10.4546017"><ele>244.0</ele><time>2026-03-29T07:38:03.459Z</time></trkpt><trkpt lat="45.54363" lon="10.4545"><ele>243.0</ele><time>2026-03-29T07:38:04.459Z</time></trkpt><trkpt lat="45.5436183" lon="10.454375"><ele>242.0</ele><time>2026-03-29T07:38:05.459Z</time></trkpt><trkpt lat="45.543595" lon="10.4542083"><ele>241.0</ele><time>2026-03-29T07:38:06.459Z</time></trkpt><trkpt lat="45.5435617" lon="10.4540117"><ele>240.0</ele><time>2026-03-29T07:38:07.458Z</time></trkpt><trkpt lat="45.5435367" lon="10.4538483"><ele>240.0</ele><time>2026-03-29T07:38:08.459Z</time></trkpt><trkpt lat="45.54352" lon="10.453735"><ele>240.0</ele><time>2026-03-29T07:38:09.459Z</time></trkpt><trkpt lat="45.5435033" lon="10.453645"><ele>240.0</ele><time>2026-03-29T07:38:10.459Z</time></trkpt><trkpt lat="45.5434567" lon="10.4535267"><ele>240.0</ele><time>2026-03-29T07:38:12.459Z</time></trkpt><trkpt lat="45.5433683" lon="10.45345"><ele>240.0</ele><time>2026-03-29T07:38:14.459Z</time></trkpt><trkpt lat="45.5432933" lon="10.45338"><ele>240.0</ele><time>2026-03-29T07:38:15.459Z</time></trkpt><trkpt lat="45.54322" lon="10.4533033"><ele>240.0</ele><time>2026-03-29T07:38:16.459Z</time></trkpt><trkpt lat="45.543145" lon="10.45319"><ele>240.0</ele><time>2026-03-29T07:38:17.459Z</time></trkpt><trkpt lat="45.5430633" lon="10.45304"><ele>240.0</ele><time>2026-03-29T07:38:18.459Z</time></trkpt><trkpt lat="45.5429967" lon="10.45288"><ele>240.0</ele><time>2026-03-29T07:38:19.459Z</time></trkpt><trkpt lat="45.54296" lon="10.452735"><ele>240.0</ele><time>2026-03-29T07:38:20.458Z</time></trkpt><trkpt lat="45.5429433" lon="10.452625"><ele>240.0</ele><time>2026-03-29T07:38:21.459Z</time></trkpt><trkpt lat="45.5429283" lon="10.4525217"><ele>240.0</ele><time>2026-03-29T07:38:22.459Z</time></trkpt><trkpt lat="45.542935" lon="10.4524283"><ele>240.0</ele><time>2026-03-29T07:38:23.459Z</time></trkpt><trkpt lat="45.5429617" lon="10.45233"><ele>240.0</ele><time>2026-03-29T07:38:24.459Z</time></trkpt><trkpt lat="45.5430283" lon="10.4522217"><ele>240.0</ele><time>2026-03-29T07:38:25.459Z</time></trkpt><trkpt lat="45.5431133" lon="10.4521083"><ele>239.2</ele><time>2026-03-29T07:38:26.459Z</time></trkpt><trkpt lat="45.5431933" lon="10.4519917"><ele>238.4</ele><time>2026-03-29T07:38:27.459Z</time></trkpt><trkpt lat="45.5432467" lon="10.451895"><ele>237.60000000000002</ele><time>2026-03-29T07:38:28.459Z</time></trkpt><trkpt lat="45.5432717" lon="10.4518067"><ele>236.8</ele><time>2026-03-29T07:38:29.459Z</time></trkpt><trkpt lat="45.5432767" lon="10.451695"><ele>236.0</ele><time>2026-03-29T07:38:30.459Z</time></trkpt><trkpt lat="45.5432633" lon="10.45154"><ele>236.0</ele><time>2026-03-29T07:38:31.459Z</time></trkpt><trkpt lat="45.5432317" lon="10.4513567"><ele>236.00000000000003</ele><time>2026-03-29T07:38:32.459Z</time></trkpt><trkpt lat="45.5432" lon="10.4512033"><ele>236.00000000000003</ele><time>2026-03-29T07:38:33.459Z</time></trkpt><trkpt lat="45.54318" lon="10.4510817"><ele>236.0</ele><time>2026-03-29T07:38:34.459Z</time></trkpt><trkpt lat="45.5431783" lon="10.4509717"><ele>236.0</ele><time>2026-03-29T07:38:35.459Z</time></trkpt><trkpt lat="45.543175" lon="10.45087"><ele>236.00000000000003</ele><time>2026-03-29T07:38:36.459Z</time></trkpt><trkpt lat="45.5431767" lon="10.4507567"><ele>236.0</ele><time>2026-03-29T07:38:37.459Z</time></trkpt><trkpt lat="45.5431733" lon="10.45065"><ele>236.0</ele><time>2026-03-29T07:38:38.459Z</time></trkpt><trkpt lat="45.5431733" lon="10.450545"><ele>236.0</ele><time>2026-03-29T07:38:39.459Z</time></trkpt><trkpt lat="45.54318" lon="10.4504433"><ele>236.00000000000003</ele><time>2026-03-29T07:38:40.459Z</time></trkpt><trkpt lat="45.5431967" lon="10.4503383"><ele>236.0</ele><time>2026-03-29T07:38:41.459Z</time></trkpt><trkpt lat="45.5432133" lon="10.45023"><ele>236.00000000000003</ele><time>2026-03-29T07:38:42.459Z</time></trkpt><trkpt lat="45.543225" lon="10.4501267"><ele>236.0</ele><time>2026-03-29T07:38:43.459Z</time></trkpt><trkpt lat="45.5432233" lon="10.4500183"><ele>236.0</ele><time>2026-03-29T07:38:44.459Z</time></trkpt><trkpt lat="45.5432283" lon="10.4499033"><ele>236.0</ele><time>2026-03-29T07:38:45.459Z</time></trkpt><trkpt lat="45.5432433" lon="10.4497817"><ele>236.00000000000003</ele><time>2026-03-29T07:38:46.459Z</time></trkpt><trkpt lat="45.543265" lon="10.44968"><ele>236.0</ele><time>2026-03-29T07:38:47.459Z</time></trkpt><trkpt lat="45.5433017" lon="10.449555"><ele>235.66666666666669</ele><time>2026-03-29T07:38:49.459Z</time></trkpt><trkpt lat="45.54326" lon="10.449465"><ele>235.33333333333334</ele><time>2026-03-29T07:38:52.459Z</time></trkpt><trkpt lat="45.5431583" lon="10.4494133"><ele>235.0</ele><time>2026-03-29T07:38:54.459Z</time></trkpt><trkpt lat="45.5430833" lon="10.4493783"><ele>234.66666666666669</ele><time>2026-03-29T07:38:55.459Z</time></trkpt><trkpt lat="45.5430017" lon="10.44935"><ele>234.33333333333334</ele><time>2026-03-29T07:38:56.459Z</time></trkpt><trkpt lat="45.54292" lon="10.44931"><ele>234.0</ele><time>2026-03-29T07:38:57.459Z</time></trkpt><trkpt lat="45.542855" lon="10.4492867"><ele>234.0</ele><time>2026-03-29T07:38:58.459Z</time></trkpt><trkpt lat="45.5427717" lon="10.4492667"><ele>234.0</ele><time>2026-03-29T07:39:02.458Z</time></trkpt><trkpt lat="45.542705" lon="10.4492633"><ele>234.0</ele><time>2026-03-29T07:39:08.459Z</time></trkpt><trkpt lat="45.542775" lon="10.4492633"><ele>234.0</ele><time>2026-03-29T07:39:29.459Z</time></trkpt><trkpt lat="45.5428483" lon="10.4492767"><ele>234.0</ele><time>2026-03-29T07:39:30.459Z</time></trkpt><trkpt lat="45.5429417" lon="10.4493083"><ele>234.0</ele><time>2026-03-29T07:39:31.459Z</time></trkpt><trkpt lat="45.543045" lon="10.449355"><ele>234.0</ele><time>2026-03-29T07:39:32.459Z</time></trkpt><trkpt lat="45.54313" lon="10.4493967"><ele>234.0</ele><time>2026-03-29T07:39:33.458Z</time></trkpt><trkpt lat="45.5431983" lon="10.449435"><ele>234.0</ele><time>2026-03-29T07:39:34.459Z</time></trkpt><trkpt lat="45.543275" lon="10.4495117"><ele>234.0</ele><time>2026-03-29T07:39:36.459Z</time></trkpt><trkpt lat="45.5433467" lon="10.4494367"><ele>234.0</ele><time>2026-03-29T07:39:40.459Z</time></trkpt><trkpt lat="45.5433717" lon="10.4493533"><ele>234.0</ele><time>2026-03-29T07:39:41.459Z</time></trkpt><trkpt lat="45.5433933" lon="10.449255"><ele>234.0</ele><time>2026-03-29T07:39:42.459Z</time></trkpt><trkpt lat="45.543425" lon="10.4491417"><ele>234.0</ele><time>2026-03-29T07:39:43.459Z</time></trkpt><trkpt lat="45.5434567" lon="10.4490283"><ele>234.0</ele><time>2026-03-29T07:39:44.458Z</time></trkpt><trkpt lat="45.5434817" lon="10.448915"><ele>234.0</ele><time>2026-03-29T07:39:45.459Z</time></trkpt><trkpt lat="45.5435033" lon="10.4488283"><ele>234.0</ele><time>2026-03-29T07:39:46.459Z</time></trkpt><trkpt lat="45.5435017" lon="10.4486583"><ele>234.0</ele><time>2026-03-29T07:39:48.459Z</time></trkpt><trkpt lat="45.5434633" lon="10.4485567"><ele>233.39999999999998</ele><time>2026-03-29T07:39:49.459Z</time></trkpt><trkpt lat="45.5434117" lon="10.4484417"><ele>232.79999999999998</ele><time>2026-03-29T07:39:50.459Z</time></trkpt><trkpt lat="45.54336" lon="10.4483367"><ele>232.20000000000002</ele><time>2026-03-29T07:39:51.459Z</time></trkpt><trkpt lat="45.5433033" lon="10.4482317"><ele>231.60000000000002</ele><time>2026-03-29T07:39:52.459Z</time></trkpt><trkpt lat="45.54324" lon="10.44814"><ele>231.0</ele><time>2026-03-29T07:39:53.459Z</time></trkpt><trkpt lat="45.5431717" lon="10.4480633"><ele>231.0</ele><time>2026-03-29T07:39:54.459Z</time></trkpt><trkpt lat="45.5430917" lon="10.448005"><ele>231.0</ele><time>2026-03-29T07:39:55.458Z</time></trkpt><trkpt lat="45.5430267" lon="10.4479283"><ele>231.0</ele><time>2026-03-29T07:39:56.459Z</time></trkpt><trkpt lat="45.5429783" lon="10.4478433"><ele>231.0</ele><time>2026-03-29T07:39:57.459Z</time></trkpt><trkpt lat="45.5429483" lon="10.4477517"><ele>231.0</ele><time>2026-03-29T07:39:58.458Z</time></trkpt><trkpt lat="45.5429333" lon="10.4476583"><ele>231.0</ele><time>2026-03-29T07:39:59.459Z</time></trkpt><trkpt lat="45.5429383" lon="10.4475083"><ele>230.33333333333334</ele><time>2026-03-29T07:40:01.459Z</time></trkpt><trkpt lat="45.5429833" lon="10.447425"><ele>229.66666666666669</ele><time>2026-03-29T07:40:02.459Z</time></trkpt><trkpt lat="45.54304" lon="10.4473383"><ele>229.0</ele><time>2026-03-29T07:40:03.459Z</time></trkpt><trkpt lat="45.54309" lon="10.447265"><ele>228.33333333333334</ele><time>2026-03-29T07:40:04.459Z</time></trkpt><trkpt lat="45.5431783" lon="10.44714"><ele>227.66666666666669</ele><time>2026-03-29T07:40:06.459Z</time></trkpt><trkpt lat="45.5432433" lon="10.44707"><ele>227.0</ele><time>2026-03-29T07:40:07.459Z</time></trkpt><trkpt lat="45.5433133" lon="10.446985"><ele>227.0</ele><time>2026-03-29T07:40:08.459Z</time></trkpt><trkpt lat="45.543375" lon="10.446895"><ele>227.0</ele><time>2026-03-29T07:40:09.459Z</time></trkpt><trkpt lat="45.543435" lon="10.4468033"><ele>227.0</ele><time>2026-03-29T07:40:10.459Z</time></trkpt><trkpt lat="45.543485" lon="10.44671"><ele>227.0</ele><time>2026-03-29T07:40:11.459Z</time></trkpt><trkpt lat="45.5435567" lon="10.4465883"><ele>227.0</ele><time>2026-03-29T07:40:13.459Z</time></trkpt><trkpt lat="45.54361" lon="10.4464917"><ele>227.0</ele><time>2026-03-29T07:40:15.459Z</time></trkpt><trkpt lat="45.5436483" lon="10.4463533"><ele>227.0</ele><time>2026-03-29T07:40:17.459Z</time></trkpt><trkpt lat="45.54364" lon="10.446255"><ele>227.0</ele><time>2026-03-29T07:40:18.459Z</time></trkpt><trkpt lat="45.543595" lon="10.44612"><ele>227.0</ele><time>2026-03-29T07:40:19.459Z</time></trkpt><trkpt lat="45.5435167" lon="10.4459483"><ele>227.0</ele><time>2026-03-29T07:40:20.459Z</time></trkpt><trkpt lat="45.54341" lon="10.4457283"><ele>227.66666666666669</ele><time>2026-03-29T07:40:21.458Z</time></trkpt><trkpt lat="45.5432833" lon="10.4454783"><ele>228.33333333333331</ele><time>2026-03-29T07:40:22.459Z</time></trkpt><trkpt lat="45.54316" lon="10.4452217"><ele>229.0</ele><time>2026-03-29T07:40:23.459Z</time></trkpt><trkpt lat="45.5430467" lon="10.4449767"><ele>229.66666666666666</ele><time>2026-03-29T07:40:24.459Z</time></trkpt><trkpt lat="45.5429483" lon="10.4447367"><ele>230.33333333333331</ele><time>2026-03-29T07:40:25.459Z</time></trkpt><trkpt lat="45.5428583" lon="10.44451"><ele>231.0</ele><time>2026-03-29T07:40:26.459Z</time></trkpt><trkpt lat="45.5427717" lon="10.4443017"><ele>229.33333333333331</ele><time>2026-03-29T07:40:27.459Z</time></trkpt><trkpt lat="45.542685" lon="10.4441117"><ele>227.66666666666666</ele><time>2026-03-29T07:40:28.459Z</time></trkpt><trkpt lat="45.54259" lon="10.4439517"><ele>226.0</ele><time>2026-03-29T07:40:29.459Z</time></trkpt><trkpt lat="45.542475" lon="10.4438017"><ele>223.5</ele><time>2026-03-29T07:40:30.459Z</time></trkpt><trkpt lat="45.54235" lon="10.4436733"><ele>221.0</ele><time>2026-03-29T07:40:31.458Z</time></trkpt><trkpt lat="45.54221" lon="10.44359"><ele>218.5</ele><time>2026-03-29T07:40:32.459Z</time></trkpt><trkpt lat="45.5420817" lon="10.4435367"><ele>216.0</ele><time>2026-03-29T07:40:33.459Z</time></trkpt><trkpt lat="45.5419683" lon="10.4435"><ele>216.0</ele><time>2026-03-29T07:40:34.459Z</time></trkpt><trkpt lat="45.5418817" lon="10.4434783"><ele>216.00000000000003</ele><time>2026-03-29T07:40:35.459Z</time></trkpt><trkpt lat="45.5417767" lon="10.4434683"><ele>216.00000000000003</ele><time>2026-03-29T07:40:37.458Z</time></trkpt><trkpt lat="45.5417233" lon="10.4435667"><ele>216.0</ele><time>2026-03-29T07:40:39.459Z</time></trkpt><trkpt lat="45.5416867" lon="10.443775"><ele>216.0</ele><time>2026-03-29T07:40:41.459Z</time></trkpt><trkpt lat="45.5416567" lon="10.44395"><ele>218.33333333333331</ele><time>2026-03-29T07:40:42.459Z</time></trkpt><trkpt lat="45.5416083" lon="10.444165"><ele>220.66666666666666</ele><time>2026-03-29T07:40:43.459Z</time></trkpt><trkpt lat="45.541545" lon="10.444405"><ele>223.0</ele><time>2026-03-29T07:40:44.459Z</time></trkpt><trkpt lat="45.54148" lon="10.4446617"><ele>223.66666666666666</ele><time>2026-03-29T07:40:45.459Z</time></trkpt><trkpt lat="45.5414167" lon="10.4449017"><ele>224.33333333333331</ele><time>2026-03-29T07:40:46.459Z</time></trkpt><trkpt lat="45.5413583" lon="10.4451183"><ele>225.0</ele><time>2026-03-29T07:40:47.459Z</time></trkpt><trkpt lat="45.5413017" lon="10.445315"><ele>224.8</ele><time>2026-03-29T07:40:48.459Z</time></trkpt><trkpt lat="45.541255" lon="10.44548"><ele>224.6</ele><time>2026-03-29T07:40:49.459Z</time></trkpt><trkpt lat="45.5412083" lon="10.44562"><ele>224.39999999999998</ele><time>2026-03-29T07:40:50.459Z</time></trkpt><trkpt lat="45.5411517" lon="10.445705"><ele>224.2</ele><time>2026-03-29T07:40:51.458Z</time></trkpt><trkpt lat="45.5410767" lon="10.44576"><ele>224.0</ele><time>2026-03-29T07:40:52.459Z</time></trkpt><trkpt lat="45.5409867" lon="10.4457917"><ele>224.0</ele><time>2026-03-29T07:40:53.459Z</time></trkpt><trkpt lat="45.5408583" lon="10.4457883"><ele>224.0</ele><time>2026-03-29T07:40:54.459Z</time></trkpt><trkpt lat="45.5407017" lon="10.4457233"><ele>224.0</ele><time>2026-03-29T07:40:55.459Z</time></trkpt><trkpt lat="45.5405133" lon="10.445645"><ele>223.33333333333334</ele><time>2026-03-29T07:40:56.459Z</time></trkpt><trkpt lat="45.540335" lon="10.44557"><ele>222.66666666666669</ele><time>2026-03-29T07:40:57.459Z</time></trkpt><trkpt lat="45.540175" lon="10.44551"><ele>222.0</ele><time>2026-03-29T07:40:58.459Z</time></trkpt><trkpt lat="45.540035" lon="10.4454567"><ele>221.75</ele><time>2026-03-29T07:40:59.459Z</time></trkpt><trkpt lat="45.5399133" lon="10.4454133"><ele>221.5</ele><time>2026-03-29T07:41:00.459Z</time></trkpt><trkpt lat="45.53979" lon="10.4453733"><ele>221.25</ele><time>2026-03-29T07:41:01.459Z</time></trkpt><trkpt lat="45.5396867" lon="10.4453217"><ele>221.0</ele><time>2026-03-29T07:41:02.459Z</time></trkpt><trkpt lat="45.53959" lon="10.445275"><ele>220.5</ele><time>2026-03-29T07:41:03.459Z</time></trkpt><trkpt lat="45.5394867" lon="10.44523"><ele>220.0</ele><time>2026-03-29T07:41:04.459Z</time></trkpt><trkpt lat="45.5393683" lon="10.4451883"><ele>219.5</ele><time>2026-03-29T07:41:05.459Z</time></trkpt><trkpt lat="45.5392417" lon="10.445145"><ele>219.0</ele><time>2026-03-29T07:41:06.459Z</time></trkpt><trkpt lat="45.5391267" lon="10.44511"><ele>219.0</ele><time>2026-03-29T07:41:07.459Z</time></trkpt><trkpt lat="45.5390183" lon="10.4450633"><ele>218.99999999999997</ele><time>2026-03-29T07:41:08.459Z</time></trkpt><trkpt lat="45.5389133" lon="10.44498"><ele>218.99999999999997</ele><time>2026-03-29T07:41:09.459Z</time></trkpt><trkpt lat="45.5388233" lon="10.444935"><ele>219.0</ele><time>2026-03-29T07:41:10.459Z</time></trkpt><trkpt lat="45.5387233" lon="10.4449217"><ele>219.0</ele><time>2026-03-29T07:41:11.459Z</time></trkpt><trkpt lat="45.5386033" lon="10.4449033"><ele>219.5</ele><time>2026-03-29T07:41:12.459Z</time></trkpt><trkpt lat="45.5384617" lon="10.444865"><ele>220.0</ele><time>2026-03-29T07:41:13.459Z</time></trkpt><trkpt lat="45.5383117" lon="10.44482"><ele>220.5</ele><time>2026-03-29T07:41:14.459Z</time></trkpt><trkpt lat="45.5381733" lon="10.4447833"><ele>221.0</ele><time>2026-03-29T07:41:15.459Z</time></trkpt><trkpt lat="45.53804" lon="10.444745"><ele>221.0</ele><time>2026-03-29T07:41:16.459Z</time></trkpt><trkpt lat="45.5379067" lon="10.4446933"><ele>221.0</ele><time>2026-03-29T07:41:17.459Z</time></trkpt><trkpt lat="45.5377767" lon="10.4446533"><ele>221.0</ele><time>2026-03-29T07:41:18.459Z</time></trkpt><trkpt lat="45.53764" lon="10.444605"><ele>221.0</ele><time>2026-03-29T07:41:19.459Z</time></trkpt><trkpt lat="45.5374917" lon="10.444545"><ele>220.0</ele><time>2026-03-29T07:41:20.459Z</time></trkpt><trkpt lat="45.5373483" lon="10.444495"><ele>219.0</ele><time>2026-03-29T07:41:21.459Z</time></trkpt><trkpt lat="45.5371967" lon="10.4444433"><ele>218.0</ele><time>2026-03-29T07:41:22.459Z</time></trkpt><trkpt lat="45.537045" lon="10.4444017"><ele>217.33333333333334</ele><time>2026-03-29T07:41:23.459Z</time></trkpt><trkpt lat="45.5368933" lon="10.4443633"><ele>216.66666666666669</ele><time>2026-03-29T07:41:24.459Z</time></trkpt><trkpt lat="45.53674" lon="10.4443417"><ele>216.0</ele><time>2026-03-29T07:41:25.459Z</time></trkpt><trkpt lat="45.53658" lon="10.4443367"><ele>216.0</ele><time>2026-03-29T07:41:26.459Z</time></trkpt><trkpt lat="45.536425" lon="10.444345"><ele>216.0</ele><time>2026-03-29T07:41:27.459Z</time></trkpt><trkpt lat="45.53628" lon="10.444355"><ele>216.0</ele><time>2026-03-29T07:41:28.458Z</time></trkpt><trkpt lat="45.5361433" lon="10.4443617"><ele>216.0</ele><time>2026-03-29T07:41:29.459Z</time></trkpt><trkpt lat="45.5360067" lon="10.4443683"><ele>215.0</ele><time>2026-03-29T07:41:30.459Z</time></trkpt><trkpt lat="45.535875" lon="10.4443817"><ele>214.0</ele><time>2026-03-29T07:41:31.459Z</time></trkpt><trkpt lat="45.5357483" lon="10.4443917"><ele>213.0</ele><time>2026-03-29T07:41:32.459Z</time></trkpt><trkpt lat="45.5356233" lon="10.4444067"><ele>212.0</ele><time>2026-03-29T07:41:33.459Z</time></trkpt><trkpt lat="45.535505" lon="10.4444017"><ele>212.0</ele><time>2026-03-29T07:41:34.459Z</time></trkpt><trkpt lat="45.5353883" lon="10.444385"><ele>212.0</ele><time>2026-03-29T07:41:35.459Z</time></trkpt><trkpt lat="45.5352617" lon="10.4443767"><ele>212.0</ele><time>2026-03-29T07:41:36.459Z</time></trkpt><trkpt lat="45.5351283" lon="10.4443467"><ele>212.0</ele><time>2026-03-29T07:41:37.459Z</time></trkpt><trkpt lat="45.5349867" lon="10.4443033"><ele>211.75</ele><time>2026-03-29T07:41:38.459Z</time></trkpt><trkpt lat="45.534845" lon="10.44423"><ele>211.5</ele><time>2026-03-29T07:41:39.459Z</time></trkpt><trkpt lat="45.5347233" lon="10.44416"><ele>211.25</ele><time>2026-03-29T07:41:40.459Z</time></trkpt><trkpt lat="45.5346083" lon="10.4440967"><ele>211.0</ele><time>2026-03-29T07:41:41.459Z</time></trkpt><trkpt lat="45.534495" lon="10.4440383"><ele>211.0</ele><time>2026-03-29T07:41:42.459Z</time></trkpt><trkpt lat="45.53438" lon="10.4439917"><ele>211.0</ele><time>2026-03-29T07:41:43.459Z</time></trkpt><trkpt lat="45.534255" lon="10.443955"><ele>211.0</ele><time>2026-03-29T07:41:44.459Z</time></trkpt><trkpt lat="45.53411" lon="10.44393"><ele>211.0</ele><time>2026-03-29T07:41:45.458Z</time></trkpt><trkpt lat="45.53396" lon="10.4439217"><ele>211.0</ele><time>2026-03-29T07:41:46.459Z</time></trkpt><trkpt lat="45.53381" lon="10.44391"><ele>211.0</ele><time>2026-03-29T07:41:47.459Z</time></trkpt><trkpt lat="45.5336333" lon="10.4438967"><ele>211.0</ele><time>2026-03-29T07:41:48.459Z</time></trkpt><trkpt lat="45.5334567" lon="10.443885"><ele>210.66666666666666</ele><time>2026-03-29T07:41:49.459Z</time></trkpt><trkpt lat="45.5332717" lon="10.44387"><ele>210.33333333333331</ele><time>2026-03-29T07:41:50.459Z</time></trkpt><trkpt lat="45.5330833" lon="10.44387"><ele>210.0</ele><time>2026-03-29T07:41:51.459Z</time></trkpt><trkpt lat="45.5328967" lon="10.4438783"><ele>210.33333333333331</ele><time>2026-03-29T07:41:52.459Z</time></trkpt><trkpt lat="45.5327083" lon="10.4438533"><ele>210.66666666666666</ele><time>2026-03-29T07:41:53.459Z</time></trkpt><trkpt lat="45.5325217" lon="10.4438217"><ele>211.0</ele><time>2026-03-29T07:41:54.459Z</time></trkpt><trkpt lat="45.5323317" lon="10.443795"><ele>210.33333333333331</ele><time>2026-03-29T07:41:55.459Z</time></trkpt><trkpt lat="45.5321483" lon="10.4437633"><ele>209.66666666666669</ele><time>2026-03-29T07:41:56.459Z</time></trkpt><trkpt lat="45.531985" lon="10.44372"><ele>209.0</ele><time>2026-03-29T07:41:57.458Z</time></trkpt><trkpt lat="45.531825" lon="10.4436883"><ele>209.0</ele><time>2026-03-29T07:41:58.458Z</time></trkpt><trkpt lat="45.5316717" lon="10.4436567"><ele>209.0</ele><time>2026-03-29T07:41:59.459Z</time></trkpt><trkpt lat="45.531535" lon="10.4436167"><ele>209.0</ele><time>2026-03-29T07:42:00.459Z</time></trkpt><trkpt lat="45.5314017" lon="10.4435933"><ele>209.0</ele><time>2026-03-29T07:42:01.459Z</time></trkpt><trkpt lat="45.5312733" lon="10.4435633"><ele>209.0</ele><time>2026-03-29T07:42:02.459Z</time></trkpt><trkpt lat="45.531155" lon="10.4435267"><ele>209.0</ele><time>2026-03-29T07:42:03.458Z</time></trkpt><trkpt lat="45.5310383" lon="10.4434833"><ele>209.0</ele><time>2026-03-29T07:42:04.459Z</time></trkpt><trkpt lat="45.530925" lon="10.443435"><ele>209.0</ele><time>2026-03-29T07:42:05.459Z</time></trkpt><trkpt lat="45.5308233" lon="10.4433567"><ele>209.0</ele><time>2026-03-29T07:42:06.459Z</time></trkpt><trkpt lat="45.5307417" lon="10.4432567"><ele>209.0</ele><time>2026-03-29T07:42:07.459Z</time></trkpt><trkpt lat="45.5306617" lon="10.4431633"><ele>209.0</ele><time>2026-03-29T07:42:08.459Z</time></trkpt><trkpt lat="45.5305767" lon="10.443105"><ele>209.0</ele><time>2026-03-29T07:42:09.459Z</time></trkpt><trkpt lat="45.5304983" lon="10.443085"><ele>209.0</ele><time>2026-03-29T07:42:10.459Z</time></trkpt><trkpt lat="45.5304233" lon="10.4431083"><ele>209.0</ele><time>2026-03-29T07:42:11.459Z</time></trkpt><trkpt lat="45.5303717" lon="10.4431883"><ele>209.0</ele><time>2026-03-29T07:42:12.459Z</time></trkpt><trkpt lat="45.53035" lon="10.4433067"><ele>209.0</ele><time>2026-03-29T07:42:13.459Z</time></trkpt><trkpt lat="45.530365" lon="10.4434333"><ele>209.0</ele><time>2026-03-29T07:42:14.459Z</time></trkpt><trkpt lat="45.5304183" lon="10.4436017"><ele>209.0</ele><time>2026-03-29T07:42:15.459Z</time></trkpt><trkpt lat="45.5304583" lon="10.44378"><ele>209.33333333333334</ele><time>2026-03-29T07:42:16.459Z</time></trkpt><trkpt lat="45.5304817" lon="10.443995"><ele>209.66666666666669</ele><time>2026-03-29T07:42:17.459Z</time></trkpt><trkpt lat="45.5304767" lon="10.4442417"><ele>210.0</ele><time>2026-03-29T07:42:18.459Z</time></trkpt><trkpt lat="45.5304333" lon="10.4444983"><ele>211.33333333333331</ele><time>2026-03-29T07:42:19.459Z</time></trkpt><trkpt lat="45.530385" lon="10.4447683"><ele>212.66666666666666</ele><time>2026-03-29T07:42:20.459Z</time></trkpt><trkpt lat="45.5303383" lon="10.4450467"><ele>214.0</ele><time>2026-03-29T07:42:21.459Z</time></trkpt><trkpt lat="45.5302933" lon="10.4453283"><ele>213.66666666666666</ele><time>2026-03-29T07:42:22.459Z</time></trkpt><trkpt lat="45.530255" lon="10.44559"><ele>213.33333333333331</ele><time>2026-03-29T07:42:23.459Z</time></trkpt><trkpt lat="45.5302167" lon="10.4458417"><ele>213.0</ele><time>2026-03-29T07:42:24.459Z</time></trkpt><trkpt lat="45.5301733" lon="10.446075"><ele>212.66666666666669</ele><time>2026-03-29T07:42:25.459Z</time></trkpt><trkpt lat="45.5301267" lon="10.4463083"><ele>212.33333333333334</ele><time>2026-03-29T07:42:26.459Z</time></trkpt><trkpt lat="45.5300867" lon="10.4465033"><ele>212.0</ele><time>2026-03-29T07:42:27.459Z</time></trkpt><trkpt lat="45.5300283" lon="10.4466817"><ele>212.0</ele><time>2026-03-29T07:42:28.458Z</time></trkpt><trkpt lat="45.5299633" lon="10.4468583"><ele>212.0</ele><time>2026-03-29T07:42:29.459Z</time></trkpt><trkpt lat="45.52988" lon="10.4470167"><ele>212.0</ele><time>2026-03-29T07:42:30.459Z</time></trkpt><trkpt lat="45.5297783" lon="10.4471783"><ele>212.0</ele><time>2026-03-29T07:42:31.459Z</time></trkpt><trkpt lat="45.529635" lon="10.44735"><ele>213.0</ele><time>2026-03-29T07:42:32.459Z</time></trkpt><trkpt lat="45.52946" lon="10.4475183"><ele>214.0</ele><time>2026-03-29T07:42:33.459Z</time></trkpt><trkpt lat="45.5292517" lon="10.4476867"><ele>214.0</ele><time>2026-03-29T07:42:34.458Z</time></trkpt><trkpt lat="45.529055" lon="10.447855"><ele>214.0</ele><time>2026-03-29T07:42:35.459Z</time></trkpt><trkpt lat="45.5288833" lon="10.4480183"><ele>214.0</ele><time>2026-03-29T07:42:36.459Z</time></trkpt><trkpt lat="45.5287267" lon="10.4481917"><ele>212.0</ele><time>2026-03-29T07:42:37.459Z</time></trkpt><trkpt lat="45.5286183" lon="10.4484167"><ele>210.0</ele><time>2026-03-29T07:42:38.459Z</time></trkpt><trkpt lat="45.5285567" lon="10.4486733"><ele>208.0</ele><time>2026-03-29T07:42:39.459Z</time></trkpt><trkpt lat="45.5285333" lon="10.4489667"><ele>208.0</ele><time>2026-03-29T07:42:40.458Z</time></trkpt><trkpt lat="45.528545" lon="10.449295"><ele>208.0</ele><time>2026-03-29T07:42:41.459Z</time></trkpt><trkpt lat="45.5285567" lon="10.44962"><ele>208.0</ele><time>2026-03-29T07:42:42.459Z</time></trkpt><trkpt lat="45.5285483" lon="10.4499133"><ele>208.0</ele><time>2026-03-29T07:42:43.459Z</time></trkpt><trkpt lat="45.5285233" lon="10.4501917"><ele>208.0</ele><time>2026-03-29T07:42:44.458Z</time></trkpt><trkpt lat="45.5284683" lon="10.4504583"><ele>208.0</ele><time>2026-03-29T07:42:45.459Z</time></trkpt><trkpt lat="45.5283833" lon="10.4507117"><ele>208.0</ele><time>2026-03-29T07:42:46.459Z</time></trkpt><trkpt lat="45.5282683" lon="10.450955"><ele>208.0</ele><time>2026-03-29T07:42:47.459Z</time></trkpt><trkpt lat="45.5281133" lon="10.45119"><ele>208.0</ele><time>2026-03-29T07:42:48.459Z</time></trkpt><trkpt lat="45.52793" lon="10.4514367"><ele>208.0</ele><time>2026-03-29T07:42:49.459Z</time></trkpt><trkpt lat="45.5277467" lon="10.451675"><ele>208.0</ele><time>2026-03-29T07:42:50.459Z</time></trkpt><trkpt lat="45.5275867" lon="10.4519017"><ele>208.0</ele><time>2026-03-29T07:42:51.458Z</time></trkpt><trkpt lat="45.5274483" lon="10.4521283"><ele>208.0</ele><time>2026-03-29T07:42:52.459Z</time></trkpt><trkpt lat="45.52733" lon="10.45236"><ele>207.33333333333331</ele><time>2026-03-29T07:42:53.459Z</time></trkpt><trkpt lat="45.5272267" lon="10.4525983"><ele>206.66666666666669</ele><time>2026-03-29T07:42:54.459Z</time></trkpt><trkpt lat="45.52712" lon="10.452835"><ele>206.0</ele><time>2026-03-29T07:42:55.459Z</time></trkpt><trkpt lat="45.5270117" lon="10.4530567"><ele>206.0</ele><time>2026-03-29T07:42:56.459Z</time></trkpt><trkpt lat="45.5269033" lon="10.4532567"><ele>206.0</ele><time>2026-03-29T07:42:57.459Z</time></trkpt><trkpt lat="45.526785" lon="10.4534517"><ele>206.0</ele><time>2026-03-29T07:42:58.459Z</time></trkpt><trkpt lat="45.52667" lon="10.4536433"><ele>206.66666666666669</ele><time>2026-03-29T07:42:59.459Z</time></trkpt><trkpt lat="45.5265583" lon="10.4538283"><ele>207.33333333333331</ele><time>2026-03-29T07:43:00.459Z</time></trkpt><trkpt lat="45.5264567" lon="10.45404"><ele>208.0</ele><time>2026-03-29T07:43:01.459Z</time></trkpt><trkpt lat="45.526365" lon="10.4542733"><ele>208.0</ele><time>2026-03-29T07:43:02.459Z</time></trkpt><trkpt lat="45.5262767" lon="10.4545117"><ele>208.0</ele><time>2026-03-29T07:43:03.459Z</time></trkpt><trkpt lat="45.52619" lon="10.45475"><ele>208.0</ele><time>2026-03-29T07:43:04.459Z</time></trkpt><trkpt lat="45.5261167" lon="10.454975"><ele>207.0</ele><time>2026-03-29T07:43:05.459Z</time></trkpt><trkpt lat="45.526035" lon="10.4551817"><ele>206.0</ele><time>2026-03-29T07:43:06.458Z</time></trkpt><trkpt lat="45.52596" lon="10.4554017"><ele>205.0</ele><time>2026-03-29T07:43:07.458Z</time></trkpt><trkpt lat="45.5258917" lon="10.4556133"><ele>205.0</ele><time>2026-03-29T07:43:08.459Z</time></trkpt><trkpt lat="45.525815" lon="10.4558217"><ele>205.0</ele><time>2026-03-29T07:43:09.458Z</time></trkpt><trkpt lat="45.5257483" lon="10.45602"><ele>205.0</ele><time>2026-03-29T07:43:10.459Z</time></trkpt><trkpt lat="45.5256783" lon="10.4562017"><ele>205.0</ele><time>2026-03-29T07:43:11.459Z</time></trkpt><trkpt lat="45.525615" lon="10.4563783"><ele>205.0</ele><time>2026-03-29T07:43:12.459Z</time></trkpt><trkpt lat="45.52556" lon="10.4565333"><ele>205.0</ele><time>2026-03-29T07:43:13.459Z</time></trkpt><trkpt lat="45.5254917" lon="10.45665"><ele>205.0</ele><time>2026-03-29T07:43:14.459Z</time></trkpt><trkpt lat="45.5254333" lon="10.4567583"><ele>204.5</ele><time>2026-03-29T07:43:15.459Z</time></trkpt><trkpt lat="45.52535" lon="10.4568917"><ele>204.0</ele><time>2026-03-29T07:43:16.459Z</time></trkpt><trkpt lat="45.525265" lon="10.4570367"><ele>203.5</ele><time>2026-03-29T07:43:17.459Z</time></trkpt><trkpt lat="45.5251883" lon="10.45718"><ele>203.0</ele><time>2026-03-29T07:43:18.458Z</time></trkpt><trkpt lat="45.5251233" lon="10.45732"><ele>203.0</ele><time>2026-03-29T07:43:19.459Z</time></trkpt><trkpt lat="45.5250617" lon="10.4574067"><ele>203.0</ele><time>2026-03-29T07:43:20.459Z</time></trkpt><trkpt lat="45.525005" lon="10.4574567"><ele>203.0</ele><time>2026-03-29T07:43:21.459Z</time></trkpt><trkpt lat="45.5249367" lon="10.45746"><ele>203.0</ele><time>2026-03-29T07:43:22.459Z</time></trkpt><trkpt lat="45.5248417" lon="10.45745"><ele>203.0</ele><time>2026-03-29T07:43:23.459Z</time></trkpt><trkpt lat="45.52471" lon="10.4574"><ele>202.33333333333334</ele><time>2026-03-29T07:43:24.459Z</time></trkpt><trkpt lat="45.5245567" lon="10.45735"><ele>201.66666666666669</ele><time>2026-03-29T07:43:25.458Z</time></trkpt><trkpt lat="45.5243983" lon="10.4573133"><ele>201.0</ele><time>2026-03-29T07:43:26.459Z</time></trkpt><trkpt lat="45.5242333" lon="10.4572733"><ele>201.0</ele><time>2026-03-29T07:43:27.459Z</time></trkpt><trkpt lat="45.524065" lon="10.4572367"><ele>201.0</ele><time>2026-03-29T07:43:28.459Z</time></trkpt><trkpt lat="45.5238933" lon="10.457205"><ele>201.0</ele><time>2026-03-29T07:43:29.459Z</time></trkpt><trkpt lat="45.5237217" lon="10.457155"><ele>200.0</ele><time>2026-03-29T07:43:30.459Z</time></trkpt><trkpt lat="45.523535" lon="10.4571017"><ele>199.0</ele><time>2026-03-29T07:43:31.459Z</time></trkpt><trkpt lat="45.5233383" lon="10.4570417"><ele>198.0</ele><time>2026-03-29T07:43:32.458Z</time></trkpt><trkpt lat="45.5231317" lon="10.45698"><ele>198.0</ele><time>2026-03-29T07:43:33.458Z</time></trkpt><trkpt lat="45.5229267" lon="10.4569067"><ele>198.0</ele><time>2026-03-29T07:43:34.459Z</time></trkpt><trkpt lat="45.5227133" lon="10.45684"><ele>198.0</ele><time>2026-03-29T07:43:35.459Z</time></trkpt><trkpt lat="45.522495" lon="10.4567683"><ele>197.33333333333331</ele><time>2026-03-29T07:43:36.459Z</time></trkpt><trkpt lat="45.5222917" lon="10.456675"><ele>196.66666666666666</ele><time>2026-03-29T07:43:37.459Z</time></trkpt><trkpt lat="45.5220883" lon="10.4565983"><ele>196.0</ele><time>2026-03-29T07:43:38.459Z</time></trkpt><trkpt lat="45.5218983" lon="10.45653"><ele>195.33333333333331</ele><time>2026-03-29T07:43:39.459Z</time></trkpt><trkpt lat="45.5217167" lon="10.456465"><ele>194.66666666666669</ele><time>2026-03-29T07:43:40.459Z</time></trkpt><trkpt lat="45.521535" lon="10.456415"><ele>194.0</ele><time>2026-03-29T07:43:41.459Z</time></trkpt><trkpt lat="45.5213533" lon="10.4563633"><ele>194.0</ele><time>2026-03-29T07:43:42.459Z</time></trkpt><trkpt lat="45.5211867" lon="10.4562967"><ele>194.0</ele><time>2026-03-29T07:43:43.459Z</time></trkpt><trkpt lat="45.521015" lon="10.4562"><ele>194.0</ele><time>2026-03-29T07:43:44.459Z</time></trkpt><trkpt lat="45.5208317" lon="10.456075"><ele>193.66666666666669</ele><time>2026-03-29T07:43:45.459Z</time></trkpt><trkpt lat="45.5206367" lon="10.4559467"><ele>193.33333333333331</ele><time>2026-03-29T07:43:46.459Z</time></trkpt><trkpt lat="45.52044" lon="10.4558133"><ele>193.0</ele><time>2026-03-29T07:43:47.459Z</time></trkpt><trkpt lat="45.5202417" lon="10.4556933"><ele>192.66666666666666</ele><time>2026-03-29T07:43:48.459Z</time></trkpt><trkpt lat="45.5200483" lon="10.455565"><ele>192.33333333333331</ele><time>2026-03-29T07:43:49.459Z</time></trkpt><trkpt lat="45.5198667" lon="10.4554483"><ele>192.0</ele><time>2026-03-29T07:43:50.459Z</time></trkpt><trkpt lat="45.5196967" lon="10.4553483"><ele>191.33333333333334</ele><time>2026-03-29T07:43:51.458Z</time></trkpt><trkpt lat="45.5195417" lon="10.4552567"><ele>190.66666666666669</ele><time>2026-03-29T07:43:52.459Z</time></trkpt><trkpt lat="45.5193833" lon="10.4551817"><ele>190.0</ele><time>2026-03-29T07:43:53.459Z</time></trkpt><trkpt lat="45.519225" lon="10.4551033"><ele>190.0</ele><time>2026-03-29T07:43:54.459Z</time></trkpt><trkpt lat="45.5190717" lon="10.45503"><ele>190.0</ele><time>2026-03-29T07:43:55.459Z</time></trkpt><trkpt lat="45.5189283" lon="10.4549583"><ele>190.0</ele><time>2026-03-29T07:43:56.459Z</time></trkpt><trkpt lat="45.5187917" lon="10.4548933"><ele>190.0</ele><time>2026-03-29T07:43:57.459Z</time></trkpt><trkpt lat="45.5186717" lon="10.4548433"><ele>190.0</ele><time>2026-03-29T07:43:58.459Z</time></trkpt><trkpt lat="45.5185717" lon="10.4548067"><ele>190.0</ele><time>2026-03-29T07:43:59.458Z</time></trkpt><trkpt lat="45.5184733" lon="10.4547717"><ele>190.0</ele><time>2026-03-29T07:44:00.459Z</time></trkpt><trkpt lat="45.51838" lon="10.4546967"><ele>190.0</ele><time>2026-03-29T07:44:01.459Z</time></trkpt><trkpt lat="45.5182983" lon="10.4545917"><ele>190.0</ele><time>2026-03-29T07:44:02.459Z</time></trkpt><trkpt lat="45.5182233" lon="10.45446"><ele>190.0</ele><time>2026-03-29T07:44:03.459Z</time></trkpt><trkpt lat="45.5181483" lon="10.4543067"><ele>190.0</ele><time>2026-03-29T07:44:04.458Z</time></trkpt><trkpt lat="45.5180633" lon="10.45417"><ele>190.0</ele><time>2026-03-29T07:44:05.459Z</time></trkpt><trkpt lat="45.5179617" lon="10.4540433"><ele>189.5</ele><time>2026-03-29T07:44:06.459Z</time></trkpt><trkpt lat="45.517865" lon="10.453915"><ele>189.0</ele><time>2026-03-29T07:44:07.459Z</time></trkpt><trkpt lat="45.5177817" lon="10.4537917"><ele>188.5</ele><time>2026-03-29T07:44:08.459Z</time></trkpt><trkpt lat="45.5177" lon="10.4536383"><ele>188.0</ele><time>2026-03-29T07:44:09.459Z</time></trkpt><trkpt lat="45.51765" lon="10.453475"><ele>188.0</ele><time>2026-03-29T07:44:10.459Z</time></trkpt><trkpt lat="45.517635" lon="10.4533083"><ele>188.0</ele><time>2026-03-29T07:44:11.459Z</time></trkpt><trkpt lat="45.5176383" lon="10.453145"><ele>188.0</ele><time>2026-03-29T07:44:12.459Z</time></trkpt><trkpt lat="45.51765" lon="10.4529633"><ele>188.0</ele><time>2026-03-29T07:44:13.459Z</time></trkpt><trkpt lat="45.5176383" lon="10.4527683"><ele>188.0</ele><time>2026-03-29T07:44:14.458Z</time></trkpt><trkpt lat="45.5176167" lon="10.4525783"><ele>188.0</ele><time>2026-03-29T07:44:15.459Z</time></trkpt><trkpt lat="45.5176" lon="10.4524217"><ele>188.0</ele><time>2026-03-29T07:44:16.458Z</time></trkpt><trkpt lat="45.5176017" lon="10.4522583"><ele>188.0</ele><time>2026-03-29T07:44:17.459Z</time></trkpt><trkpt lat="45.5176" lon="10.4520583"><ele>188.0</ele><time>2026-03-29T07:44:18.458Z</time></trkpt><trkpt lat="45.5176033" lon="10.4518467"><ele>188.0</ele><time>2026-03-29T07:44:19.459Z</time></trkpt><trkpt lat="45.5176133" lon="10.4516467"><ele>188.0</ele><time>2026-03-29T07:44:20.459Z</time></trkpt><trkpt lat="45.5176317" lon="10.45145"><ele>188.0</ele><time>2026-03-29T07:44:21.459Z</time></trkpt><trkpt lat="45.5176383" lon="10.45126"><ele>188.0</ele><time>2026-03-29T07:44:22.459Z</time></trkpt><trkpt lat="45.51763" lon="10.451065"><ele>188.0</ele><time>2026-03-29T07:44:23.459Z</time></trkpt><trkpt lat="45.51761" lon="10.4508717"><ele>188.0</ele><time>2026-03-29T07:44:24.458Z</time></trkpt><trkpt lat="45.5175783" lon="10.4506667"><ele>188.0</ele><time>2026-03-29T07:44:25.459Z</time></trkpt><trkpt lat="45.5175317" lon="10.4504517"><ele>188.0</ele><time>2026-03-29T07:44:26.459Z</time></trkpt><trkpt lat="45.5174867" lon="10.4502433"><ele>188.0</ele><time>2026-03-29T07:44:27.459Z</time></trkpt><trkpt lat="45.5174317" lon="10.4500483"><ele>188.0</ele><time>2026-03-29T07:44:28.459Z</time></trkpt><trkpt lat="45.5173767" lon="10.4498567"><ele>188.0</ele><time>2026-03-29T07:44:29.459Z</time></trkpt><trkpt lat="45.5173033" lon="10.449675"><ele>188.0</ele><time>2026-03-29T07:44:30.459Z</time></trkpt><trkpt lat="45.5172317" lon="10.4494867"><ele>188.0</ele><time>2026-03-29T07:44:31.459Z</time></trkpt><trkpt lat="45.5171583" lon="10.4492933"><ele>188.0</ele><time>2026-03-29T07:44:32.459Z</time></trkpt><trkpt lat="45.5170983" lon="10.449115"><ele>188.0</ele><time>2026-03-29T07:44:33.459Z</time></trkpt><trkpt lat="45.5170433" lon="10.4489267"><ele>187.5</ele><time>2026-03-29T07:44:34.458Z</time></trkpt><trkpt lat="45.5169883" lon="10.4487583"><ele>187.0</ele><time>2026-03-29T07:44:35.459Z</time></trkpt><trkpt lat="45.5169267" lon="10.448605"><ele>186.5</ele><time>2026-03-29T07:44:36.459Z</time></trkpt><trkpt lat="45.5168517" lon="10.4484683"><ele>186.0</ele><time>2026-03-29T07:44:37.458Z</time></trkpt><trkpt lat="45.516765" lon="10.4483667"><ele>186.0</ele><time>2026-03-29T07:44:38.459Z</time></trkpt><trkpt lat="45.516655" lon="10.4482717"><ele>186.0</ele><time>2026-03-29T07:44:39.459Z</time></trkpt><trkpt lat="45.51653" lon="10.44819"><ele>186.0</ele><time>2026-03-29T07:44:40.459Z</time></trkpt><trkpt lat="45.51639" lon="10.4481083"><ele>186.0</ele><time>2026-03-29T07:44:41.459Z</time></trkpt><trkpt lat="45.516235" lon="10.4480233"><ele>185.0</ele><time>2026-03-29T07:44:42.459Z</time></trkpt><trkpt lat="45.5160733" lon="10.447935"><ele>184.0</ele><time>2026-03-29T07:44:43.459Z</time></trkpt><trkpt lat="45.515905" lon="10.4478417"><ele>183.0</ele><time>2026-03-29T07:44:44.459Z</time></trkpt><trkpt lat="45.5157317" lon="10.4477283"><ele>183.0</ele><time>2026-03-29T07:44:45.458Z</time></trkpt><trkpt lat="45.5155783" lon="10.4476383"><ele>183.0</ele><time>2026-03-29T07:44:46.459Z</time></trkpt><trkpt lat="45.51544" lon="10.4475433"><ele>183.0</ele><time>2026-03-29T07:44:47.459Z</time></trkpt><trkpt lat="45.51532" lon="10.4474667"><ele>182.8</ele><time>2026-03-29T07:44:48.459Z</time></trkpt><trkpt lat="45.515205" lon="10.4473967"><ele>182.60000000000002</ele><time>2026-03-29T07:44:49.459Z</time></trkpt><trkpt lat="45.5151083" lon="10.4473417"><ele>182.39999999999998</ele><time>2026-03-29T07:44:50.459Z</time></trkpt><trkpt lat="45.5150183" lon="10.4472883"><ele>182.2</ele><time>2026-03-29T07:44:51.459Z</time></trkpt><trkpt lat="45.51495" lon="10.4472483"><ele>182.0</ele><time>2026-03-29T07:44:52.459Z</time></trkpt><trkpt lat="45.514885" lon="10.447155"><ele>181.75</ele><time>2026-03-29T07:44:54.459Z</time></trkpt><trkpt lat="45.5149167" lon="10.4469883"><ele>181.5</ele><time>2026-03-29T07:44:56.459Z</time></trkpt><trkpt lat="45.5149633" lon="10.4468533"><ele>181.25</ele><time>2026-03-29T07:44:57.459Z</time></trkpt><trkpt lat="45.51504" lon="10.446685"><ele>181.0</ele><time>2026-03-29T07:44:58.459Z</time></trkpt><trkpt lat="45.5151183" lon="10.4464833"><ele>181.25</ele><time>2026-03-29T07:44:59.459Z</time></trkpt><trkpt lat="45.5151883" lon="10.4462867"><ele>181.5</ele><time>2026-03-29T07:45:00.459Z</time></trkpt><trkpt lat="45.5152483" lon="10.44612"><ele>181.75</ele><time>2026-03-29T07:45:01.459Z</time></trkpt><trkpt lat="45.5152983" lon="10.4459633"><ele>182.0</ele><time>2026-03-29T07:45:02.459Z</time></trkpt><trkpt lat="45.5153333" lon="10.445845"><ele>182.0</ele><time>2026-03-29T07:45:03.459Z</time></trkpt><trkpt lat="45.515365" lon="10.4457383"><ele>182.0</ele><time>2026-03-29T07:45:04.459Z</time></trkpt><trkpt lat="45.5154083" lon="10.4455717"><ele>182.0</ele><time>2026-03-29T07:45:06.459Z</time></trkpt><trkpt lat="45.5154317" lon="10.4454467"><ele>182.0</ele><time>2026-03-29T07:45:07.459Z</time></trkpt><trkpt lat="45.5154617" lon="10.44531"><ele>182.0</ele><time>2026-03-29T07:45:08.459Z</time></trkpt><trkpt lat="45.5154917" lon="10.44517"><ele>182.0</ele><time>2026-03-29T07:45:09.459Z</time></trkpt><trkpt lat="45.51552" lon="10.445025"><ele>182.0</ele><time>2026-03-29T07:45:10.459Z</time></trkpt><trkpt lat="45.51555" lon="10.4448817"><ele>182.0</ele><time>2026-03-29T07:45:11.459Z</time></trkpt><trkpt lat="45.5155817" lon="10.4447283"><ele>182.0</ele><time>2026-03-29T07:45:12.459Z</time></trkpt><trkpt lat="45.5156183" lon="10.4445767"><ele>182.0</ele><time>2026-03-29T07:45:13.459Z</time></trkpt><trkpt lat="45.515645" lon="10.44442"><ele>182.0</ele><time>2026-03-29T07:45:14.459Z</time></trkpt><trkpt lat="45.5156717" lon="10.4442633"><ele>182.0</ele><time>2026-03-29T07:45:15.459Z</time></trkpt><trkpt lat="45.51571" lon="10.444105"><ele>182.0</ele><time>2026-03-29T07:45:16.459Z</time></trkpt><trkpt lat="45.5157567" lon="10.4439567"><ele>182.0</ele><time>2026-03-29T07:45:17.459Z</time></trkpt><trkpt lat="45.5158017" lon="10.443835"><ele>182.0</ele><time>2026-03-29T07:45:18.459Z</time></trkpt><trkpt lat="45.5158317" lon="10.44373"><ele>182.0</ele><time>2026-03-29T07:45:19.458Z</time></trkpt><trkpt lat="45.5158767" lon="10.44363"><ele>182.0</ele><time>2026-03-29T07:45:20.459Z</time></trkpt><trkpt lat="45.5159167" lon="10.4435317"><ele>182.0</ele><time>2026-03-29T07:45:21.459Z</time></trkpt><trkpt lat="45.5159733" lon="10.4434117"><ele>182.0</ele><time>2026-03-29T07:45:22.459Z</time></trkpt><trkpt lat="45.51603" lon="10.4432467"><ele>182.0</ele><time>2026-03-29T07:45:23.458Z</time></trkpt><trkpt lat="45.5160767" lon="10.4430533"><ele>182.0</ele><time>2026-03-29T07:45:24.459Z</time></trkpt><trkpt lat="45.5161233" lon="10.44289"><ele>182.0</ele><time>2026-03-29T07:45:25.459Z</time></trkpt><trkpt lat="45.5161633" lon="10.44277"><ele>182.0</ele><time>2026-03-29T07:45:26.459Z</time></trkpt><trkpt lat="45.5162067" lon="10.4426867"><ele>182.0</ele><time>2026-03-29T07:45:27.459Z</time></trkpt><trkpt lat="45.5162733" lon="10.4426317"><ele>182.0</ele><time>2026-03-29T07:45:29.459Z</time></trkpt><trkpt lat="45.516225" lon="10.44251"><ele>182.0</ele><time>2026-03-29T07:45:41.458Z</time></trkpt><trkpt lat="45.516195" lon="10.4423733"><ele>182.0</ele><time>2026-03-29T07:45:43.459Z</time></trkpt><trkpt lat="45.5161967" lon="10.4422367"><ele>182.0</ele><time>2026-03-29T07:45:44.459Z</time></trkpt><trkpt lat="45.5162067" lon="10.4420717"><ele>182.0</ele><time>2026-03-29T07:45:45.459Z</time></trkpt><trkpt lat="45.5162267" lon="10.4418783"><ele>182.0</ele><time>2026-03-29T07:45:46.459Z</time></trkpt><trkpt lat="45.5162533" lon="10.44168"><ele>182.0</ele><time>2026-03-29T07:45:47.459Z</time></trkpt><trkpt lat="45.51629" lon="10.4415167"><ele>182.0</ele><time>2026-03-29T07:45:48.459Z</time></trkpt><trkpt lat="45.5163183" lon="10.441355"><ele>182.0</ele><time>2026-03-29T07:45:49.459Z</time></trkpt><trkpt lat="45.5163417" lon="10.4412117"><ele>182.0</ele><time>2026-03-29T07:45:50.459Z</time></trkpt><trkpt lat="45.5163733" lon="10.44108"><ele>182.0</ele><time>2026-03-29T07:45:51.459Z</time></trkpt><trkpt lat="45.5163883" lon="10.44098"><ele>182.0</ele><time>2026-03-29T07:45:52.459Z</time></trkpt><trkpt lat="45.5163817" lon="10.44082"><ele>182.0</ele><time>2026-03-29T07:45:54.459Z</time></trkpt><trkpt lat="45.5163317" lon="10.4407533"><ele>182.0</ele><time>2026-03-29T07:45:55.459Z</time></trkpt><trkpt lat="45.51626" lon="10.44069"><ele>182.0</ele><time>2026-03-29T07:45:56.459Z</time></trkpt><trkpt lat="45.51618" lon="10.4405983"><ele>182.0</ele><time>2026-03-29T07:45:57.459Z</time></trkpt><trkpt lat="45.516115" lon="10.4404983"><ele>181.6</ele><time>2026-03-29T07:45:58.459Z</time></trkpt><trkpt lat="45.5160833" lon="10.44041"><ele>181.2</ele><time>2026-03-29T07:45:59.459Z</time></trkpt><trkpt lat="45.51607" lon="10.440305"><ele>180.8</ele><time>2026-03-29T07:46:00.459Z</time></trkpt><trkpt lat="45.5160767" lon="10.4401717"><ele>180.4</ele><time>2026-03-29T07:46:01.458Z</time></trkpt><trkpt lat="45.51611" lon="10.4399817"><ele>180.0</ele><time>2026-03-29T07:46:02.459Z</time></trkpt><trkpt lat="45.5161767" lon="10.4397783"><ele>181.2</ele><time>2026-03-29T07:46:03.459Z</time></trkpt><trkpt lat="45.51624" lon="10.4395933"><ele>182.4</ele><time>2026-03-29T07:46:04.459Z</time></trkpt><trkpt lat="45.5162967" lon="10.4394517"><ele>183.60000000000002</ele><time>2026-03-29T07:46:05.459Z</time></trkpt><trkpt lat="45.5163583" lon="10.4393467"><ele>184.8</ele><time>2026-03-29T07:46:06.459Z</time></trkpt><trkpt lat="45.5164117" lon="10.43925"><ele>186.0</ele><time>2026-03-29T07:46:07.459Z</time></trkpt><trkpt lat="45.5164667" lon="10.4391483"><ele>186.0</ele><time>2026-03-29T07:46:08.459Z</time></trkpt><trkpt lat="45.5165267" lon="10.43902"><ele>186.0</ele><time>2026-03-29T07:46:09.459Z</time></trkpt><trkpt lat="45.5165983" lon="10.4388667"><ele>186.0</ele><time>2026-03-29T07:46:10.459Z</time></trkpt><trkpt lat="45.5166583" lon="10.4387067"><ele>186.0</ele><time>2026-03-29T07:46:11.459Z</time></trkpt><trkpt lat="45.5166933" lon="10.438585"><ele>186.8</ele><time>2026-03-29T07:46:12.459Z</time></trkpt><trkpt lat="45.5167517" lon="10.4384983"><ele>187.60000000000002</ele><time>2026-03-29T07:46:14.459Z</time></trkpt><trkpt lat="45.5168517" lon="10.4385483"><ele>188.4</ele><time>2026-03-29T07:46:16.459Z</time></trkpt><trkpt lat="45.5169533" lon="10.4386083"><ele>189.2</ele><time>2026-03-29T07:46:17.459Z</time></trkpt><trkpt lat="45.51709" lon="10.43863"><ele>190.0</ele><time>2026-03-29T07:46:18.458Z</time></trkpt><trkpt lat="45.5172317" lon="10.43862"><ele>190.25</ele><time>2026-03-29T07:46:19.459Z</time></trkpt><trkpt lat="45.51737" lon="10.438565"><ele>190.5</ele><time>2026-03-29T07:46:20.459Z</time></trkpt><trkpt lat="45.5175067" lon="10.4385033"><ele>190.75</ele><time>2026-03-29T07:46:21.458Z</time></trkpt><trkpt lat="45.517605" lon="10.4384483"><ele>191.0</ele><time>2026-03-29T07:46:22.459Z</time></trkpt><trkpt lat="45.5177" lon="10.4384083"><ele>191.0</ele><time>2026-03-29T07:46:23.459Z</time></trkpt><trkpt lat="45.5177667" lon="10.4383683"><ele>191.0</ele><time>2026-03-29T07:46:24.458Z</time></trkpt><trkpt lat="45.5178233" lon="10.43832"><ele>191.0</ele><time>2026-03-29T07:46:25.459Z</time></trkpt><trkpt lat="45.51789" lon="10.4382617"><ele>191.0</ele><time>2026-03-29T07:46:26.459Z</time></trkpt><trkpt lat="45.517965" lon="10.4381833"><ele>191.0</ele><time>2026-03-29T07:46:27.459Z</time></trkpt><trkpt lat="45.5180433" lon="10.4381033"><ele>191.0</ele><time>2026-03-29T07:46:28.459Z</time></trkpt><trkpt lat="45.518135" lon="10.4380333"><ele>191.0</ele><time>2026-03-29T07:46:29.458Z</time></trkpt><trkpt lat="45.5182167" lon="10.4379583"><ele>191.0</ele><time>2026-03-29T07:46:30.459Z</time></trkpt><trkpt lat="45.5182883" lon="10.4378983"><ele>191.0</ele><time>2026-03-29T07:46:31.459Z</time></trkpt><trkpt lat="45.5183467" lon="10.4378417"><ele>191.0</ele><time>2026-03-29T07:46:32.459Z</time></trkpt><trkpt lat="45.5184383" lon="10.4377333"><ele>191.0</ele><time>2026-03-29T07:46:34.459Z</time></trkpt><trkpt lat="45.5185467" lon="10.4376433"><ele>191.0</ele><time>2026-03-29T07:46:36.459Z</time></trkpt><trkpt lat="45.5186633" lon="10.4375517"><ele>191.0</ele><time>2026-03-29T07:46:38.459Z</time></trkpt><trkpt lat="45.5187267" lon="10.4375033"><ele>191.0</ele><time>2026-03-29T07:46:39.459Z</time></trkpt><trkpt lat="45.5187867" lon="10.4374533"><ele>191.0</ele><time>2026-03-29T07:46:40.459Z</time></trkpt><trkpt lat="45.518845" lon="10.4373983"><ele>191.0</ele><time>2026-03-29T07:46:41.459Z</time></trkpt><trkpt lat="45.5189083" lon="10.4373467"><ele>191.0</ele><time>2026-03-29T07:46:42.459Z</time></trkpt><trkpt lat="45.51897" lon="10.4372967"><ele>190.66666666666666</ele><time>2026-03-29T07:46:43.459Z</time></trkpt><trkpt lat="45.5190417" lon="10.4372533"><ele>190.33333333333331</ele><time>2026-03-29T07:46:44.459Z</time></trkpt><trkpt lat="45.5191133" lon="10.4371967"><ele>190.0</ele><time>2026-03-29T07:46:45.459Z</time></trkpt><trkpt lat="45.5191833" lon="10.437145"><ele>189.66666666666666</ele><time>2026-03-29T07:46:46.459Z</time></trkpt><trkpt lat="45.5192567" lon="10.4370883"><ele>189.33333333333334</ele><time>2026-03-29T07:46:47.459Z</time></trkpt><trkpt lat="45.5193217" lon="10.43703"><ele>189.0</ele><time>2026-03-29T07:46:48.459Z</time></trkpt><trkpt lat="45.51939" lon="10.436975"><ele>188.79999999999998</ele><time>2026-03-29T07:46:49.459Z</time></trkpt><trkpt lat="45.519465" lon="10.4369117"><ele>188.6</ele><time>2026-03-29T07:46:50.459Z</time></trkpt><trkpt lat="45.519545" lon="10.4368517"><ele>188.4</ele><time>2026-03-29T07:46:51.459Z</time></trkpt><trkpt lat="45.5196417" lon="10.4367717"><ele>188.2</ele><time>2026-03-29T07:46:52.459Z</time></trkpt><trkpt lat="45.519725" lon="10.4367033"><ele>188.0</ele><time>2026-03-29T07:46:53.459Z</time></trkpt><trkpt lat="45.5198" lon="10.4366517"><ele>188.5</ele><time>2026-03-29T07:46:54.459Z</time></trkpt><trkpt lat="45.5198767" lon="10.4366383"><ele>189.0</ele><time>2026-03-29T07:46:55.459Z</time></trkpt><trkpt lat="45.51996" lon="10.4366483"><ele>189.5</ele><time>2026-03-29T07:46:56.459Z</time></trkpt><trkpt lat="45.5200283" lon="10.436665"><ele>190.0</ele><time>2026-03-29T07:46:57.458Z</time></trkpt><trkpt lat="45.5201417" lon="10.4366117"><ele>190.5</ele><time>2026-03-29T07:46:59.459Z</time></trkpt><trkpt lat="45.5201717" lon="10.4365283"><ele>191.0</ele><time>2026-03-29T07:47:00.459Z</time></trkpt><trkpt lat="45.520195" lon="10.43641"><ele>190.75</ele><time>2026-03-29T07:47:01.459Z</time></trkpt><trkpt lat="45.5202133" lon="10.436255"><ele>190.5</ele><time>2026-03-29T07:47:02.459Z</time></trkpt><trkpt lat="45.5202483" lon="10.4360667"><ele>190.25</ele><time>2026-03-29T07:47:03.459Z</time></trkpt><trkpt lat="45.5202917" lon="10.4358633"><ele>190.0</ele><time>2026-03-29T07:47:04.459Z</time></trkpt><trkpt lat="45.5203483" lon="10.4356783"><ele>190.75</ele><time>2026-03-29T07:47:05.459Z</time></trkpt><trkpt lat="45.520415" lon="10.435525"><ele>191.5</ele><time>2026-03-29T07:47:06.458Z</time></trkpt><trkpt lat="45.5204817" lon="10.43541"><ele>192.25</ele><time>2026-03-29T07:47:07.459Z</time></trkpt><trkpt lat="45.5205717" lon="10.4353267"><ele>193.0</ele><time>2026-03-29T07:47:08.459Z</time></trkpt><trkpt lat="45.5206833" lon="10.4352483"><ele>193.5</ele><time>2026-03-29T07:47:09.459Z</time></trkpt><trkpt lat="45.5208033" lon="10.4351533"><ele>194.0</ele><time>2026-03-29T07:47:10.459Z</time></trkpt><trkpt lat="45.5209267" lon="10.4350367"><ele>194.5</ele><time>2026-03-29T07:47:11.459Z</time></trkpt><trkpt lat="45.5210517" lon="10.4349"><ele>195.0</ele><time>2026-03-29T07:47:12.459Z</time></trkpt><trkpt lat="45.5211633" lon="10.4347467"><ele>195.25</ele><time>2026-03-29T07:47:13.459Z</time></trkpt><trkpt lat="45.52126" lon="10.434615"><ele>195.5</ele><time>2026-03-29T07:47:14.459Z</time></trkpt><trkpt lat="45.521345" lon="10.4345017"><ele>195.75</ele><time>2026-03-29T07:47:15.458Z</time></trkpt><trkpt lat="45.52144" lon="10.4343883"><ele>196.0</ele><time>2026-03-29T07:47:16.459Z</time></trkpt><trkpt lat="45.521535" lon="10.4342733"><ele>196.0</ele><time>2026-03-29T07:47:17.459Z</time></trkpt><trkpt lat="45.521635" lon="10.4341567"><ele>196.0</ele><time>2026-03-29T07:47:18.459Z</time></trkpt><trkpt lat="45.52174" lon="10.4340467"><ele>196.0</ele><time>2026-03-29T07:47:19.458Z</time></trkpt><trkpt lat="45.52184" lon="10.433955"><ele>196.0</ele><time>2026-03-29T07:47:20.459Z</time></trkpt><trkpt lat="45.52195" lon="10.4338917"><ele>196.0</ele><time>2026-03-29T07:47:21.459Z</time></trkpt><trkpt lat="45.522055" lon="10.4338283"><ele>196.0</ele><time>2026-03-29T07:47:22.459Z</time></trkpt><trkpt lat="45.52215" lon="10.43377"><ele>196.0</ele><time>2026-03-29T07:47:23.458Z</time></trkpt><trkpt lat="45.5222183" lon="10.4337033"><ele>196.0</ele><time>2026-03-29T07:47:24.459Z</time></trkpt><trkpt lat="45.5222617" lon="10.4336283"><ele>196.0</ele><time>2026-03-29T07:47:25.459Z</time></trkpt><trkpt lat="45.5222683" lon="10.4334417"><ele>196.0</ele><time>2026-03-29T07:47:27.458Z</time></trkpt><trkpt lat="45.5222417" lon="10.4333233"><ele>196.0</ele><time>2026-03-29T07:47:28.459Z</time></trkpt><trkpt lat="45.5221867" lon="10.43316"><ele>196.0</ele><time>2026-03-29T07:47:29.459Z</time></trkpt><trkpt lat="45.5221233" lon="10.4329833"><ele>196.0</ele><time>2026-03-29T07:47:30.459Z</time></trkpt><trkpt lat="45.52207" lon="10.43283"><ele>195.49999999999997</ele><time>2026-03-29T07:47:31.459Z</time></trkpt><trkpt lat="45.5220317" lon="10.432715"><ele>195.0</ele><time>2026-03-29T07:47:32.459Z</time></trkpt><trkpt lat="45.5220033" lon="10.4326317"><ele>194.5</ele><time>2026-03-29T07:47:33.459Z</time></trkpt><trkpt lat="45.5219817" lon="10.4325367"><ele>194.0</ele><time>2026-03-29T07:47:35.459Z</time></trkpt><trkpt lat="45.5219133" lon="10.432485"><ele>193.49999999999997</ele><time>2026-03-29T07:47:37.459Z</time></trkpt><trkpt lat="45.521825" lon="10.4324933"><ele>193.0</ele><time>2026-03-29T07:47:38.459Z</time></trkpt><trkpt lat="45.5217067" lon="10.4325083"><ele>193.0</ele><time>2026-03-29T07:47:39.458Z</time></trkpt><trkpt lat="45.5215517" lon="10.4325433"><ele>193.0</ele><time>2026-03-29T07:47:40.459Z</time></trkpt><trkpt lat="45.521375" lon="10.4325733"><ele>193.0</ele><time>2026-03-29T07:47:41.459Z</time></trkpt><trkpt lat="45.52118" lon="10.4325883"><ele>192.66666666666666</ele><time>2026-03-29T07:47:42.459Z</time></trkpt><trkpt lat="45.5209767" lon="10.4325533"><ele>192.33333333333331</ele><time>2026-03-29T07:47:43.459Z</time></trkpt><trkpt lat="45.520765" lon="10.4324867"><ele>192.0</ele><time>2026-03-29T07:47:44.459Z</time></trkpt><trkpt lat="45.5205433" lon="10.4323883"><ele>190.5</ele><time>2026-03-29T07:47:45.459Z</time></trkpt><trkpt lat="45.5203117" lon="10.43227"><ele>189.0</ele><time>2026-03-29T07:47:46.458Z</time></trkpt><trkpt lat="45.5200783" lon="10.4321617"><ele>188.0</ele><time>2026-03-29T07:47:47.459Z</time></trkpt><trkpt lat="45.5198283" lon="10.4320583"><ele>187.0</ele><time>2026-03-29T07:47:48.459Z</time></trkpt><trkpt lat="45.519585" lon="10.4319617"><ele>189.5</ele><time>2026-03-29T07:47:49.459Z</time></trkpt><trkpt lat="45.519325" lon="10.4319067"><ele>192.0</ele><time>2026-03-29T07:47:50.459Z</time></trkpt><trkpt lat="45.5190667" lon="10.43188"><ele>192.0</ele><time>2026-03-29T07:47:51.459Z</time></trkpt><trkpt lat="45.51883" lon="10.43187"><ele>192.0</ele><time>2026-03-29T07:47:52.459Z</time></trkpt><trkpt lat="45.51861" lon="10.43186"><ele>192.0</ele><time>2026-03-29T07:47:53.459Z</time></trkpt><trkpt lat="45.5184033" lon="10.4318483"><ele>192.0</ele><time>2026-03-29T07:47:54.459Z</time></trkpt><trkpt lat="45.5182183" lon="10.4318417"><ele>192.0</ele><time>2026-03-29T07:47:55.459Z</time></trkpt><trkpt lat="45.5180533" lon="10.431825"><ele>192.33333333333331</ele><time>2026-03-29T07:47:56.459Z</time></trkpt><trkpt lat="45.5178967" lon="10.4318117"><ele>192.66666666666666</ele><time>2026-03-29T07:47:57.459Z</time></trkpt><trkpt lat="45.5177317" lon="10.4318017"><ele>193.0</ele><time>2026-03-29T07:47:58.459Z</time></trkpt><trkpt lat="45.517565" lon="10.4317883"><ele>193.0</ele><time>2026-03-29T07:47:59.459Z</time></trkpt><trkpt lat="45.517405" lon="10.4317767"><ele>193.0</ele><time>2026-03-29T07:48:00.459Z</time></trkpt><trkpt lat="45.517255" lon="10.4317783"><ele>193.0</ele><time>2026-03-29T07:48:01.459Z</time></trkpt><trkpt lat="45.5171067" lon="10.4317583"><ele>192.0</ele><time>2026-03-29T07:48:02.459Z</time></trkpt><trkpt lat="45.5169433" lon="10.4317333"><ele>191.0</ele><time>2026-03-29T07:48:03.459Z</time></trkpt><trkpt lat="45.5167817" lon="10.43168"><ele>190.0</ele><time>2026-03-29T07:48:04.459Z</time></trkpt><trkpt lat="45.516625" lon="10.43162"><ele>190.0</ele><time>2026-03-29T07:48:05.458Z</time></trkpt><trkpt lat="45.516475" lon="10.4315467"><ele>190.0</ele><time>2026-03-29T07:48:06.459Z</time></trkpt><trkpt lat="45.5163133" lon="10.4314433"><ele>190.0</ele><time>2026-03-29T07:48:07.459Z</time></trkpt><trkpt lat="45.5161333" lon="10.4313333"><ele>188.33333333333334</ele><time>2026-03-29T07:48:08.458Z</time></trkpt><trkpt lat="45.51595" lon="10.4312017"><ele>186.66666666666666</ele><time>2026-03-29T07:48:09.459Z</time></trkpt><trkpt lat="45.5157717" lon="10.4310667"><ele>185.0</ele><time>2026-03-29T07:48:10.459Z</time></trkpt><trkpt lat="45.5155817" lon="10.4309317"><ele>185.0</ele><time>2026-03-29T07:48:11.459Z</time></trkpt><trkpt lat="45.51542" lon="10.4307983"><ele>185.0</ele><time>2026-03-29T07:48:12.459Z</time></trkpt><trkpt lat="45.5152667" lon="10.4306367"><ele>185.0</ele><time>2026-03-29T07:48:13.459Z</time></trkpt><trkpt lat="45.5151133" lon="10.4304617"><ele>184.66666666666666</ele><time>2026-03-29T07:48:14.459Z</time></trkpt><trkpt lat="45.5149633" lon="10.4303017"><ele>184.33333333333334</ele><time>2026-03-29T07:48:15.459Z</time></trkpt><trkpt lat="45.51483" lon="10.4301617"><ele>184.0</ele><time>2026-03-29T07:48:16.459Z</time></trkpt><trkpt lat="45.5146717" lon="10.4300183"><ele>183.33333333333334</ele><time>2026-03-29T07:48:17.458Z</time></trkpt><trkpt lat="45.51449" lon="10.4299017"><ele>182.66666666666666</ele><time>2026-03-29T07:48:18.459Z</time></trkpt><trkpt lat="45.5142967" lon="10.429785"><ele>182.0</ele><time>2026-03-29T07:48:19.459Z</time></trkpt><trkpt lat="45.51409" lon="10.42966"><ele>181.5</ele><time>2026-03-29T07:48:20.459Z</time></trkpt><trkpt lat="45.51388" lon="10.42954"><ele>181.0</ele><time>2026-03-29T07:48:21.459Z</time></trkpt><trkpt lat="45.513665" lon="10.4294233"><ele>182.0</ele><time>2026-03-29T07:48:22.459Z</time></trkpt><trkpt lat="45.5134583" lon="10.42931"><ele>183.0</ele><time>2026-03-29T07:48:23.459Z</time></trkpt><trkpt lat="45.51325" lon="10.429205"><ele>184.0</ele><time>2026-03-29T07:48:24.459Z</time></trkpt><trkpt lat="45.51305" lon="10.4291067"><ele>184.0</ele><time>2026-03-29T07:48:25.459Z</time></trkpt><trkpt lat="45.5128567" lon="10.4290067"><ele>184.0</ele><time>2026-03-29T07:48:26.459Z</time></trkpt><trkpt lat="45.512685" lon="10.4289183"><ele>184.0</ele><time>2026-03-29T07:48:27.459Z</time></trkpt><trkpt lat="45.512525" lon="10.4288367"><ele>184.33333333333334</ele><time>2026-03-29T07:48:28.459Z</time></trkpt><trkpt lat="45.5123733" lon="10.428755"><ele>184.66666666666666</ele><time>2026-03-29T07:48:29.459Z</time></trkpt><trkpt lat="45.512225" lon="10.428675"><ele>185.0</ele><time>2026-03-29T07:48:30.459Z</time></trkpt><trkpt lat="45.512085" lon="10.428595"><ele>184.0</ele><time>2026-03-29T07:48:31.459Z</time></trkpt><trkpt lat="45.5119567" lon="10.4285083"><ele>183.0</ele><time>2026-03-29T07:48:32.458Z</time></trkpt><trkpt lat="45.51183" lon="10.4284317"><ele>182.0</ele><time>2026-03-29T07:48:33.459Z</time></trkpt><trkpt lat="45.51172" lon="10.42836"><ele>181.0</ele><time>2026-03-29T07:48:34.459Z</time></trkpt><trkpt lat="45.5116417" lon="10.4282967"><ele>181.0</ele><time>2026-03-29T07:48:35.459Z</time></trkpt><trkpt lat="45.511595" lon="10.4282217"><ele>181.0</ele><time>2026-03-29T07:48:36.459Z</time></trkpt><trkpt lat="45.5115967" lon="10.42805"><ele>181.0</ele><time>2026-03-29T07:48:38.459Z</time></trkpt><trkpt lat="45.51163" lon="10.42793"><ele>181.0</ele><time>2026-03-29T07:48:39.459Z</time></trkpt><trkpt lat="45.5117" lon="10.4277833"><ele>181.0</ele><time>2026-03-29T07:48:40.459Z</time></trkpt><trkpt lat="45.5117833" lon="10.4276283"><ele>180.5</ele><time>2026-03-29T07:48:41.459Z</time></trkpt><trkpt lat="45.5118767" lon="10.427485"><ele>180.0</ele><time>2026-03-29T07:48:42.459Z</time></trkpt><trkpt lat="45.5119617" lon="10.4273267"><ele>179.5</ele><time>2026-03-29T07:48:43.459Z</time></trkpt><trkpt lat="45.5120433" lon="10.4271467"><ele>179.0</ele><time>2026-03-29T07:48:44.458Z</time></trkpt><trkpt lat="45.512095" lon="10.4269567"><ele>179.25</ele><time>2026-03-29T07:48:45.459Z</time></trkpt><trkpt lat="45.5121217" lon="10.4267417"><ele>179.5</ele><time>2026-03-29T07:48:46.459Z</time></trkpt><trkpt lat="45.5121333" lon="10.4265417"><ele>179.75</ele><time>2026-03-29T07:48:47.459Z</time></trkpt><trkpt lat="45.5121067" lon="10.426335"><ele>180.0</ele><time>2026-03-29T07:48:48.459Z</time></trkpt><trkpt lat="45.512065" lon="10.4261167"><ele>180.0</ele><time>2026-03-29T07:48:49.459Z</time></trkpt><trkpt lat="45.51202" lon="10.4259"><ele>180.0</ele><time>2026-03-29T07:48:50.459Z</time></trkpt><trkpt lat="45.511975" lon="10.42569"><ele>180.0</ele><time>2026-03-29T07:48:51.459Z</time></trkpt><trkpt lat="45.511935" lon="10.4254633"><ele>180.5</ele><time>2026-03-29T07:48:52.459Z</time></trkpt><trkpt lat="45.5119" lon="10.4252433"><ele>181.0</ele><time>2026-03-29T07:48:53.459Z</time></trkpt><trkpt lat="45.5118667" lon="10.4250333"><ele>181.5</ele><time>2026-03-29T07:48:54.459Z</time></trkpt><trkpt lat="45.5118483" lon="10.4248567"><ele>182.0</ele><time>2026-03-29T07:48:55.459Z</time></trkpt><trkpt lat="45.51183" lon="10.42474"><ele>182.0</ele><time>2026-03-29T07:48:56.459Z</time></trkpt><trkpt lat="45.5117567" lon="10.42465"><ele>182.0</ele><time>2026-03-29T07:48:58.459Z</time></trkpt><trkpt lat="45.511665" lon="10.4247617"><ele>182.0</ele><time>2026-03-29T07:49:00.459Z</time></trkpt><trkpt lat="45.51157" lon="10.4249267"><ele>182.0</ele><time>2026-03-29T07:49:01.459Z</time></trkpt><trkpt lat="45.511455" lon="10.4251333"><ele>182.0</ele><time>2026-03-29T07:49:02.459Z</time></trkpt><trkpt lat="45.5113067" lon="10.4253783"><ele>182.0</ele><time>2026-03-29T07:49:03.459Z</time></trkpt><trkpt lat="45.5111633" lon="10.42558"><ele>182.0</ele><time>2026-03-29T07:49:04.459Z</time></trkpt><trkpt lat="45.5110367" lon="10.42574"><ele>180.0</ele><time>2026-03-29T07:49:05.459Z</time></trkpt><trkpt lat="45.5109217" lon="10.4259017"><ele>178.0</ele><time>2026-03-29T07:49:06.459Z</time></trkpt><trkpt lat="45.5108233" lon="10.4260567"><ele>176.0</ele><time>2026-03-29T07:49:07.459Z</time></trkpt><trkpt lat="45.5107333" lon="10.4261783"><ele>174.0</ele><time>2026-03-29T07:49:08.459Z</time></trkpt><trkpt lat="45.510635" lon="10.426265"><ele>174.0</ele><time>2026-03-29T07:49:09.459Z</time></trkpt><trkpt lat="45.5105383" lon="10.4262967"><ele>174.0</ele><time>2026-03-29T07:49:10.459Z</time></trkpt><trkpt lat="45.5104383" lon="10.4262733"><ele>174.0</ele><time>2026-03-29T07:49:11.459Z</time></trkpt><trkpt lat="45.510335" lon="10.4262033"><ele>174.0</ele><time>2026-03-29T07:49:12.459Z</time></trkpt><trkpt lat="45.51021" lon="10.4261333"><ele>174.0</ele><time>2026-03-29T07:49:13.459Z</time></trkpt><trkpt lat="45.5100817" lon="10.4260633"><ele>173.5</ele><time>2026-03-29T07:49:14.459Z</time></trkpt><trkpt lat="45.50995" lon="10.426005"><ele>173.0</ele><time>2026-03-29T07:49:15.458Z</time></trkpt><trkpt lat="45.509815" lon="10.42595"><ele>172.5</ele><time>2026-03-29T07:49:16.459Z</time></trkpt><trkpt lat="45.5096717" lon="10.4258867"><ele>172.0</ele><time>2026-03-29T07:49:17.459Z</time></trkpt><trkpt lat="45.5095367" lon="10.425825"><ele>172.0</ele><time>2026-03-29T07:49:18.459Z</time></trkpt><trkpt lat="45.50941" lon="10.4257617"><ele>172.0</ele><time>2026-03-29T07:49:19.459Z</time></trkpt><trkpt lat="45.5093017" lon="10.425705"><ele>172.0</ele><time>2026-03-29T07:49:20.459Z</time></trkpt><trkpt lat="45.5091933" lon="10.42565"><ele>172.0</ele><time>2026-03-29T07:49:21.459Z</time></trkpt><trkpt lat="45.50909" lon="10.4256083"><ele>172.0</ele><time>2026-03-29T07:49:22.459Z</time></trkpt><trkpt lat="45.5089933" lon="10.42556"><ele>172.0</ele><time>2026-03-29T07:49:23.459Z</time></trkpt><trkpt lat="45.5088983" lon="10.4255183"><ele>172.0</ele><time>2026-03-29T07:49:24.459Z</time></trkpt><trkpt lat="45.5088117" lon="10.425475"><ele>172.0</ele><time>2026-03-29T07:49:25.458Z</time></trkpt><trkpt lat="45.508755" lon="10.4254267"><ele>172.0</ele><time>2026-03-29T07:49:26.459Z</time></trkpt><trkpt lat="45.50871" lon="10.4253483"><ele>172.0</ele><time>2026-03-29T07:49:27.459Z</time></trkpt><trkpt lat="45.508615" lon="10.4252483"><ele>171.0</ele><time>2026-03-29T07:49:29.459Z</time></trkpt><trkpt lat="45.508535" lon="10.4252267"><ele>170.0</ele><time>2026-03-29T07:49:30.459Z</time></trkpt><trkpt lat="45.50845" lon="10.4251767"><ele>169.0</ele><time>2026-03-29T07:49:31.459Z</time></trkpt><trkpt lat="45.50835" lon="10.4250833"><ele>168.0</ele><time>2026-03-29T07:49:32.459Z</time></trkpt><trkpt lat="45.50822" lon="10.4249367"><ele>168.0</ele><time>2026-03-29T07:49:33.459Z</time></trkpt><trkpt lat="45.5080917" lon="10.4247867"><ele>168.0</ele><time>2026-03-29T07:49:34.459Z</time></trkpt><trkpt lat="45.50797" lon="10.4246517"><ele>168.0</ele><time>2026-03-29T07:49:35.459Z</time></trkpt><trkpt lat="45.5078567" lon="10.4245233"><ele>168.2</ele><time>2026-03-29T07:49:36.459Z</time></trkpt><trkpt lat="45.5077567" lon="10.4244083"><ele>168.4</ele><time>2026-03-29T07:49:37.459Z</time></trkpt><trkpt lat="45.5076683" lon="10.424305"><ele>168.6</ele><time>2026-03-29T07:49:38.459Z</time></trkpt><trkpt lat="45.507585" lon="10.42421"><ele>168.79999999999998</ele><time>2026-03-29T07:49:39.459Z</time></trkpt><trkpt lat="45.507525" lon="10.42413"><ele>169.0</ele><time>2026-03-29T07:49:40.459Z</time></trkpt><trkpt lat="45.50748" lon="10.4240417"><ele>169.0</ele><time>2026-03-29T07:49:41.459Z</time></trkpt><trkpt lat="45.507435" lon="10.4239267"><ele>169.0</ele><time>2026-03-29T07:49:42.459Z</time></trkpt><trkpt lat="45.5073633" lon="10.423805"><ele>169.0</ele><time>2026-03-29T07:49:43.459Z</time></trkpt><trkpt lat="45.5072583" lon="10.4237"><ele>169.0</ele><time>2026-03-29T07:49:44.459Z</time></trkpt><trkpt lat="45.5071483" lon="10.4236233"><ele>168.5</ele><time>2026-03-29T07:49:45.459Z</time></trkpt><trkpt lat="45.5070083" lon="10.4235783"><ele>168.0</ele><time>2026-03-29T07:49:46.459Z</time></trkpt><trkpt lat="45.5068533" lon="10.4235433"><ele>167.5</ele><time>2026-03-29T07:49:47.458Z</time></trkpt><trkpt lat="45.506705" lon="10.423525"><ele>167.0</ele><time>2026-03-29T07:49:48.459Z</time></trkpt><trkpt lat="45.5065667" lon="10.42349"><ele>167.0</ele><time>2026-03-29T07:49:49.459Z</time></trkpt><trkpt lat="45.506435" lon="10.423465"><ele>167.0</ele><time>2026-03-29T07:49:50.459Z</time></trkpt><trkpt lat="45.5063083" lon="10.4234633"><ele>167.0</ele><time>2026-03-29T07:49:51.459Z</time></trkpt><trkpt lat="45.5061967" lon="10.42344"><ele>167.0</ele><time>2026-03-29T07:49:52.459Z</time></trkpt><trkpt lat="45.506085" lon="10.4234317"><ele>167.0</ele><time>2026-03-29T07:49:53.459Z</time></trkpt><trkpt lat="45.5059733" lon="10.4234233"><ele>167.0</ele><time>2026-03-29T07:49:54.459Z</time></trkpt><trkpt lat="45.5058667" lon="10.4234083"><ele>167.0</ele><time>2026-03-29T07:49:55.459Z</time></trkpt><trkpt lat="45.5057617" lon="10.4233917"><ele>167.0</ele><time>2026-03-29T07:49:56.459Z</time></trkpt><trkpt lat="45.505665" lon="10.4233267"><ele>167.0</ele><time>2026-03-29T07:49:57.458Z</time></trkpt><trkpt lat="45.5055733" lon="10.4232567"><ele>167.0</ele><time>2026-03-29T07:49:58.459Z</time></trkpt><trkpt lat="45.5054867" lon="10.4231817"><ele>167.0</ele><time>2026-03-29T07:49:59.459Z</time></trkpt><trkpt lat="45.5053983" lon="10.4231083"><ele>167.0</ele><time>2026-03-29T07:50:00.459Z</time></trkpt><trkpt lat="45.505305" lon="10.4230267"><ele>167.0</ele><time>2026-03-29T07:50:01.459Z</time></trkpt><trkpt lat="45.50521" lon="10.42294"><ele>167.0</ele><time>2026-03-29T07:50:02.459Z</time></trkpt><trkpt lat="45.5050933" lon="10.4228783"><ele>167.25</ele><time>2026-03-29T07:50:03.459Z</time></trkpt><trkpt lat="45.504975" lon="10.4228283"><ele>167.5</ele><time>2026-03-29T07:50:04.459Z</time></trkpt><trkpt lat="45.50484" lon="10.4228133"><ele>167.75</ele><time>2026-03-29T07:50:05.459Z</time></trkpt><trkpt lat="45.5047183" lon="10.4228083"><ele>168.0</ele><time>2026-03-29T07:50:06.459Z</time></trkpt><trkpt lat="45.504615" lon="10.4228183"><ele>168.0</ele><time>2026-03-29T07:50:07.459Z</time></trkpt><trkpt lat="45.5045117" lon="10.42281"><ele>168.0</ele><time>2026-03-29T07:50:08.459Z</time></trkpt><trkpt lat="45.5044183" lon="10.4228133"><ele>168.0</ele><time>2026-03-29T07:50:09.459Z</time></trkpt><trkpt lat="45.5043317" lon="10.4228133"><ele>168.0</ele><time>2026-03-29T07:50:10.459Z</time></trkpt><trkpt lat="45.504245" lon="10.4228133"><ele>168.0</ele><time>2026-03-29T07:50:11.459Z</time></trkpt><trkpt lat="45.5041433" lon="10.4228"><ele>168.0</ele><time>2026-03-29T07:50:12.459Z</time></trkpt><trkpt lat="45.5040467" lon="10.4227783"><ele>168.0</ele><time>2026-03-29T07:50:13.459Z</time></trkpt><trkpt lat="45.5039617" lon="10.4227633"><ele>168.0</ele><time>2026-03-29T07:50:14.459Z</time></trkpt><trkpt lat="45.5038717" lon="10.4227467"><ele>168.0</ele><time>2026-03-29T07:50:15.459Z</time></trkpt><trkpt lat="45.5037833" lon="10.4227367"><ele>168.0</ele><time>2026-03-29T07:50:16.459Z</time></trkpt><trkpt lat="45.5036933" lon="10.42274"><ele>167.8</ele><time>2026-03-29T07:50:17.459Z</time></trkpt><trkpt lat="45.5035883" lon="10.4227517"><ele>167.60000000000002</ele><time>2026-03-29T07:50:18.459Z</time></trkpt><trkpt lat="45.50348" lon="10.422785"><ele>167.39999999999998</ele><time>2026-03-29T07:50:19.459Z</time></trkpt><trkpt lat="45.503375" lon="10.4228317"><ele>167.2</ele><time>2026-03-29T07:50:20.459Z</time></trkpt><trkpt lat="45.5032633" lon="10.4228933"><ele>167.0</ele><time>2026-03-29T07:50:21.459Z</time></trkpt><trkpt lat="45.50315" lon="10.422965"><ele>166.75</ele><time>2026-03-29T07:50:22.459Z</time></trkpt><trkpt lat="45.5030317" lon="10.4230717"><ele>166.5</ele><time>2026-03-29T07:50:23.459Z</time></trkpt><trkpt lat="45.5029017" lon="10.4231733"><ele>166.25</ele><time>2026-03-29T07:50:24.458Z</time></trkpt><trkpt lat="45.502765" lon="10.42329"><ele>166.0</ele><time>2026-03-29T07:50:25.459Z</time></trkpt><trkpt lat="45.50263" lon="10.4233867"><ele>165.5</ele><time>2026-03-29T07:50:26.459Z</time></trkpt><trkpt lat="45.502505" lon="10.4234783"><ele>165.0</ele><time>2026-03-29T07:50:27.459Z</time></trkpt><trkpt lat="45.50237" lon="10.423555"><ele>164.5</ele><time>2026-03-29T07:50:28.459Z</time></trkpt><trkpt lat="45.50223" lon="10.42359"><ele>164.0</ele><time>2026-03-29T07:50:29.459Z</time></trkpt><trkpt lat="45.5021067" lon="10.4236117"><ele>163.6</ele><time>2026-03-29T07:50:30.459Z</time></trkpt><trkpt lat="45.502" lon="10.4235967"><ele>163.2</ele><time>2026-03-29T07:50:31.459Z</time></trkpt><trkpt lat="45.5019" lon="10.423565"><ele>162.79999999999998</ele><time>2026-03-29T07:50:32.459Z</time></trkpt><trkpt lat="45.5018083" lon="10.4235467"><ele>162.39999999999998</ele><time>2026-03-29T07:50:33.459Z</time></trkpt><trkpt lat="45.501705" lon="10.4235567"><ele>162.0</ele><time>2026-03-29T07:50:34.459Z</time></trkpt><trkpt lat="45.501585" lon="10.4235817"><ele>162.0</ele><time>2026-03-29T07:50:35.459Z</time></trkpt><trkpt lat="45.5014517" lon="10.4236167"><ele>162.0</ele><time>2026-03-29T07:50:36.459Z</time></trkpt><trkpt lat="45.5013017" lon="10.4236367"><ele>162.0</ele><time>2026-03-29T07:50:37.459Z</time></trkpt><trkpt lat="45.5011467" lon="10.4236417"><ele>162.0</ele><time>2026-03-29T07:50:38.459Z</time></trkpt><trkpt lat="45.5009867" lon="10.4236667"><ele>161.66666666666666</ele><time>2026-03-29T07:50:39.458Z</time></trkpt><trkpt lat="45.500815" lon="10.4236833"><ele>161.33333333333331</ele><time>2026-03-29T07:50:40.459Z</time></trkpt><trkpt lat="45.5006433" lon="10.4237"><ele>161.0</ele><time>2026-03-29T07:50:41.459Z</time></trkpt><trkpt lat="45.500485" lon="10.4237233"><ele>160.75</ele><time>2026-03-29T07:50:42.459Z</time></trkpt><trkpt lat="45.5003417" lon="10.4237383"><ele>160.5</ele><time>2026-03-29T07:50:43.459Z</time></trkpt><trkpt lat="45.5002117" lon="10.4237533"><ele>160.25</ele><time>2026-03-29T07:50:44.459Z</time></trkpt><trkpt lat="45.5000883" lon="10.42377"><ele>160.0</ele><time>2026-03-29T07:50:45.458Z</time></trkpt><trkpt lat="45.4999667" lon="10.4238"><ele>159.75</ele><time>2026-03-29T07:50:46.459Z</time></trkpt><trkpt lat="45.499835" lon="10.4238583"><ele>159.5</ele><time>2026-03-29T07:50:47.459Z</time></trkpt><trkpt lat="45.4997" lon="10.4239417"><ele>159.25</ele><time>2026-03-29T07:50:48.459Z</time></trkpt><trkpt lat="45.4995617" lon="10.4240433"><ele>159.0</ele><time>2026-03-29T07:50:49.459Z</time></trkpt><trkpt lat="45.4994183" lon="10.424155"><ele>159.0</ele><time>2026-03-29T07:50:50.459Z</time></trkpt><trkpt lat="45.49928" lon="10.4242517"><ele>159.0</ele><time>2026-03-29T07:50:51.459Z</time></trkpt><trkpt lat="45.4991417" lon="10.424355"><ele>159.0</ele><time>2026-03-29T07:50:52.459Z</time></trkpt><trkpt lat="45.4990133" lon="10.424445"><ele>159.0</ele><time>2026-03-29T07:50:53.459Z</time></trkpt><trkpt lat="45.4988783" lon="10.424515"><ele>159.0</ele><time>2026-03-29T07:50:54.459Z</time></trkpt><trkpt lat="45.4987417" lon="10.42459"><ele>159.0</ele><time>2026-03-29T07:50:55.459Z</time></trkpt><trkpt lat="45.498625" lon="10.424655"><ele>159.0</ele><time>2026-03-29T07:50:56.458Z</time></trkpt><trkpt lat="45.4985067" lon="10.4247267"><ele>159.0</ele><time>2026-03-29T07:50:57.459Z</time></trkpt><trkpt lat="45.4984083" lon="10.4247933"><ele>159.0</ele><time>2026-03-29T07:50:58.459Z</time></trkpt><trkpt lat="45.49832" lon="10.4248517"><ele>159.0</ele><time>2026-03-29T07:50:59.459Z</time></trkpt><trkpt lat="45.49824" lon="10.4249067"><ele>159.0</ele><time>2026-03-29T07:51:00.459Z</time></trkpt><trkpt lat="45.4981667" lon="10.4249617"><ele>159.0</ele><time>2026-03-29T07:51:01.459Z</time></trkpt><trkpt lat="45.498095" lon="10.4250167"><ele>159.0</ele><time>2026-03-29T07:51:02.459Z</time></trkpt><trkpt lat="45.4980217" lon="10.4250717"><ele>159.0</ele><time>2026-03-29T07:51:03.459Z</time></trkpt><trkpt lat="45.4979433" lon="10.4251267"><ele>159.0</ele><time>2026-03-29T07:51:04.459Z</time></trkpt><trkpt lat="45.497855" lon="10.4251867"><ele>159.0</ele><time>2026-03-29T07:51:05.459Z</time></trkpt><trkpt lat="45.4977617" lon="10.4252567"><ele>159.0</ele><time>2026-03-29T07:51:06.459Z</time></trkpt><trkpt lat="45.4976717" lon="10.4253283"><ele>158.5</ele><time>2026-03-29T07:51:07.459Z</time></trkpt><trkpt lat="45.4975767" lon="10.4254033"><ele>158.0</ele><time>2026-03-29T07:51:08.459Z</time></trkpt><trkpt lat="45.4974783" lon="10.4254933"><ele>157.5</ele><time>2026-03-29T07:51:09.459Z</time></trkpt><trkpt lat="45.4973683" lon="10.42559"><ele>157.0</ele><time>2026-03-29T07:51:10.458Z</time></trkpt><trkpt lat="45.49725" lon="10.425685"><ele>157.0</ele><time>2026-03-29T07:51:11.459Z</time></trkpt><trkpt lat="45.4971183" lon="10.4257983"><ele>157.0</ele><time>2026-03-29T07:51:12.459Z</time></trkpt><trkpt lat="45.4969783" lon="10.4259317"><ele>157.0</ele><time>2026-03-29T07:51:13.459Z</time></trkpt><trkpt lat="45.4968483" lon="10.4260733"><ele>157.0</ele><time>2026-03-29T07:51:14.459Z</time></trkpt><trkpt lat="45.49673" lon="10.4262217"><ele>157.0</ele><time>2026-03-29T07:51:15.459Z</time></trkpt><trkpt lat="45.4966067" lon="10.4263683"><ele>157.0</ele><time>2026-03-29T07:51:16.459Z</time></trkpt><trkpt lat="45.4964867" lon="10.4265133"><ele>157.0</ele><time>2026-03-29T07:51:17.459Z</time></trkpt><trkpt lat="45.4963583" lon="10.4266417"><ele>157.0</ele><time>2026-03-29T07:51:18.459Z</time></trkpt><trkpt lat="45.496245" lon="10.4267717"><ele>157.0</ele><time>2026-03-29T07:51:19.459Z</time></trkpt><trkpt lat="45.49613" lon="10.426905"><ele>157.0</ele><time>2026-03-29T07:51:20.459Z</time></trkpt><trkpt lat="45.4960117" lon="10.4270417"><ele>157.0</ele><time>2026-03-29T07:51:21.459Z</time></trkpt><trkpt lat="45.4958933" lon="10.4271917"><ele>157.0</ele><time>2026-03-29T07:51:22.459Z</time></trkpt><trkpt lat="45.495765" lon="10.4273467"><ele>157.0</ele><time>2026-03-29T07:51:23.459Z</time></trkpt><trkpt lat="45.495635" lon="10.4274833"><ele>157.0</ele><time>2026-03-29T07:51:24.459Z</time></trkpt><trkpt lat="45.4955" lon="10.42761"><ele>157.0</ele><time>2026-03-29T07:51:25.459Z</time></trkpt><trkpt lat="45.49536" lon="10.4277267"><ele>156.66666666666669</ele><time>2026-03-29T07:51:26.459Z</time></trkpt><trkpt lat="45.4952217" lon="10.4278417"><ele>156.33333333333334</ele><time>2026-03-29T07:51:27.458Z</time></trkpt><trkpt lat="45.4950917" lon="10.4279483"><ele>156.0</ele><time>2026-03-29T07:51:28.459Z</time></trkpt><trkpt lat="45.4949683" lon="10.4280567"><ele>155.75</ele><time>2026-03-29T07:51:29.459Z</time></trkpt><trkpt lat="45.4948467" lon="10.42817"><ele>155.5</ele><time>2026-03-29T07:51:30.459Z</time></trkpt><trkpt lat="45.4947317" lon="10.4282783"><ele>155.25</ele><time>2026-03-29T07:51:31.459Z</time></trkpt><trkpt lat="45.4946167" lon="10.4283883"><ele>155.0</ele><time>2026-03-29T07:51:32.459Z</time></trkpt><trkpt lat="45.4945" lon="10.4284933"><ele>155.0</ele><time>2026-03-29T07:51:33.459Z</time></trkpt><trkpt lat="45.4943783" lon="10.4286033"><ele>155.0</ele><time>2026-03-29T07:51:34.459Z</time></trkpt><trkpt lat="45.4942533" lon="10.4287133"><ele>155.0</ele><time>2026-03-29T07:51:35.459Z</time></trkpt><trkpt lat="45.4941333" lon="10.42882"><ele>155.0</ele><time>2026-03-29T07:51:36.459Z</time></trkpt><trkpt lat="45.49401" lon="10.4289317"><ele>155.25</ele><time>2026-03-29T07:51:37.459Z</time></trkpt><trkpt lat="45.4938883" lon="10.42904"><ele>155.5</ele><time>2026-03-29T07:51:38.459Z</time></trkpt><trkpt lat="45.4937833" lon="10.4291367"><ele>155.75</ele><time>2026-03-29T07:51:39.458Z</time></trkpt><trkpt lat="45.4936933" lon="10.4292267"><ele>156.0</ele><time>2026-03-29T07:51:40.459Z</time></trkpt><trkpt lat="45.493615" lon="10.429295"><ele>155.6</ele><time>2026-03-29T07:51:41.459Z</time></trkpt><trkpt lat="45.4935467" lon="10.42936"><ele>155.2</ele><time>2026-03-29T07:51:42.459Z</time></trkpt><trkpt lat="45.49348" lon="10.4294267"><ele>154.8</ele><time>2026-03-29T07:51:43.459Z</time></trkpt><trkpt lat="45.4934033" lon="10.4295"><ele>154.4</ele><time>2026-03-29T07:51:44.459Z</time></trkpt><trkpt lat="45.4933233" lon="10.4295967"><ele>154.0</ele><time>2026-03-29T07:51:45.459Z</time></trkpt><trkpt lat="45.4932567" lon="10.4296833"><ele>154.0</ele><time>2026-03-29T07:51:46.459Z</time></trkpt><trkpt lat="45.493195" lon="10.42974"><ele>154.0</ele><time>2026-03-29T07:51:47.459Z</time></trkpt><trkpt lat="45.4931267" lon="10.4297617"><ele>154.0</ele><time>2026-03-29T07:51:48.459Z</time></trkpt><trkpt lat="45.493045" lon="10.4297517"><ele>154.0</ele><time>2026-03-29T07:51:49.459Z</time></trkpt><trkpt lat="45.4929433" lon="10.429685"><ele>154.0</ele><time>2026-03-29T07:51:50.459Z</time></trkpt><trkpt lat="45.492835" lon="10.4295817"><ele>154.0</ele><time>2026-03-29T07:51:51.459Z</time></trkpt><trkpt lat="45.492705" lon="10.4294383"><ele>154.0</ele><time>2026-03-29T07:51:52.458Z</time></trkpt><trkpt lat="45.4925533" lon="10.4293283"><ele>154.0</ele><time>2026-03-29T07:51:53.459Z</time></trkpt><trkpt lat="45.4923883" lon="10.42927"><ele>154.0</ele><time>2026-03-29T07:51:54.459Z</time></trkpt><trkpt lat="45.4922333" lon="10.4292667"><ele>154.0</ele><time>2026-03-29T07:51:55.459Z</time></trkpt><trkpt lat="45.4920883" lon="10.42926"><ele>154.0</ele><time>2026-03-29T07:51:56.459Z</time></trkpt><trkpt lat="45.4919533" lon="10.4292717"><ele>154.0</ele><time>2026-03-29T07:51:57.459Z</time></trkpt><trkpt lat="45.49181" lon="10.4292733"><ele>153.66666666666669</ele><time>2026-03-29T07:51:58.459Z</time></trkpt><trkpt lat="45.4916567" lon="10.4292667"><ele>153.33333333333334</ele><time>2026-03-29T07:51:59.459Z</time></trkpt><trkpt lat="45.4915033" lon="10.4292533"><ele>153.0</ele><time>2026-03-29T07:52:00.458Z</time></trkpt><trkpt lat="45.49134" lon="10.429235"><ele>153.4</ele><time>2026-03-29T07:52:01.459Z</time></trkpt><trkpt lat="45.4912017" lon="10.4292133"><ele>153.8</ele><time>2026-03-29T07:52:02.459Z</time></trkpt><trkpt lat="45.4910917" lon="10.4291967"><ele>154.2</ele><time>2026-03-29T07:52:03.459Z</time></trkpt><trkpt lat="45.4909983" lon="10.4292067"><ele>154.6</ele><time>2026-03-29T07:52:04.458Z</time></trkpt><trkpt lat="45.4909" lon="10.4292517"><ele>155.0</ele><time>2026-03-29T07:52:05.459Z</time></trkpt><trkpt lat="45.4908267" lon="10.4293367"><ele>155.0</ele><time>2026-03-29T07:52:06.458Z</time></trkpt><trkpt lat="45.49078" lon="10.4294667"><ele>155.0</ele><time>2026-03-29T07:52:07.459Z</time></trkpt><trkpt lat="45.4907567" lon="10.4296517"><ele>155.0</ele><time>2026-03-29T07:52:08.459Z</time></trkpt><trkpt lat="45.4907383" lon="10.4298517"><ele>155.0</ele><time>2026-03-29T07:52:09.459Z</time></trkpt><trkpt lat="45.4907167" lon="10.4300417"><ele>154.66666666666666</ele><time>2026-03-29T07:52:10.458Z</time></trkpt><trkpt lat="45.49068" lon="10.43025"><ele>154.33333333333334</ele><time>2026-03-29T07:52:11.459Z</time></trkpt><trkpt lat="45.4906417" lon="10.43046"><ele>154.0</ele><time>2026-03-29T07:52:12.459Z</time></trkpt><trkpt lat="45.4906083" lon="10.430675"><ele>153.5</ele><time>2026-03-29T07:52:13.459Z</time></trkpt><trkpt lat="45.4905767" lon="10.4308817"><ele>153.0</ele><time>2026-03-29T07:52:14.459Z</time></trkpt><trkpt lat="45.490545" lon="10.4310783"><ele>152.5</ele><time>2026-03-29T07:52:15.458Z</time></trkpt><trkpt lat="45.4905083" lon="10.4312417"><ele>152.0</ele><time>2026-03-29T07:52:16.459Z</time></trkpt><trkpt lat="45.4904517" lon="10.4313583"><ele>151.75</ele><time>2026-03-29T07:52:17.459Z</time></trkpt><trkpt lat="45.4903683" lon="10.431455"><ele>151.5</ele><time>2026-03-29T07:52:18.459Z</time></trkpt><trkpt lat="45.4902533" lon="10.4315233"><ele>151.25</ele><time>2026-03-29T07:52:19.459Z</time></trkpt><trkpt lat="45.490115" lon="10.431575"><ele>151.0</ele><time>2026-03-29T07:52:20.459Z</time></trkpt><trkpt lat="45.4899583" lon="10.4316267"><ele>151.0</ele><time>2026-03-29T07:52:21.459Z</time></trkpt><trkpt lat="45.4897933" lon="10.4316883"><ele>151.0</ele><time>2026-03-29T07:52:22.459Z</time></trkpt><trkpt lat="45.489615" lon="10.43173"><ele>151.0</ele><time>2026-03-29T07:52:23.459Z</time></trkpt><trkpt lat="45.489435" lon="10.4317567"><ele>150.66666666666669</ele><time>2026-03-29T07:52:24.459Z</time></trkpt><trkpt lat="45.489245" lon="10.4317733"><ele>150.33333333333334</ele><time>2026-03-29T07:52:25.459Z</time></trkpt><trkpt lat="45.4890567" lon="10.431795"><ele>150.0</ele><time>2026-03-29T07:52:26.458Z</time></trkpt><trkpt lat="45.4888717" lon="10.4318217"><ele>150.0</ele><time>2026-03-29T07:52:27.458Z</time></trkpt><trkpt lat="45.4886933" lon="10.431865"><ele>150.0</ele><time>2026-03-29T07:52:28.459Z</time></trkpt><trkpt lat="45.4885217" lon="10.4319233"><ele>150.0</ele><time>2026-03-29T07:52:29.459Z</time></trkpt><trkpt lat="45.4883483" lon="10.4319933"><ele>150.0</ele><time>2026-03-29T07:52:30.459Z</time></trkpt><trkpt lat="45.4881733" lon="10.4320667"><ele>150.0</ele><time>2026-03-29T07:52:31.459Z</time></trkpt><trkpt lat="45.4879933" lon="10.4321517"><ele>150.0</ele><time>2026-03-29T07:52:32.459Z</time></trkpt><trkpt lat="45.4878067" lon="10.432235"><ele>150.33333333333334</ele><time>2026-03-29T07:52:33.459Z</time></trkpt><trkpt lat="45.4876267" lon="10.4323183"><ele>150.66666666666669</ele><time>2026-03-29T07:52:34.458Z</time></trkpt><trkpt lat="45.48746" lon="10.4323917"><ele>151.0</ele><time>2026-03-29T07:52:35.458Z</time></trkpt><trkpt lat="45.487295" lon="10.43248"><ele>151.0</ele><time>2026-03-29T07:52:36.459Z</time></trkpt><trkpt lat="45.4871267" lon="10.4325633"><ele>151.0</ele><time>2026-03-29T07:52:37.459Z</time></trkpt><trkpt lat="45.486945" lon="10.4326383"><ele>151.0</ele><time>2026-03-29T07:52:38.459Z</time></trkpt><trkpt lat="45.486755" lon="10.4326983"><ele>151.0</ele><time>2026-03-29T07:52:39.459Z</time></trkpt><trkpt lat="45.4865633" lon="10.4327383"><ele>151.0</ele><time>2026-03-29T07:52:40.459Z</time></trkpt><trkpt lat="45.4863833" lon="10.43278"><ele>151.0</ele><time>2026-03-29T07:52:41.459Z</time></trkpt><trkpt lat="45.486205" lon="10.4328217"><ele>150.33333333333334</ele><time>2026-03-29T07:52:42.459Z</time></trkpt><trkpt lat="45.4860417" lon="10.432845"><ele>149.66666666666666</ele><time>2026-03-29T07:52:43.459Z</time></trkpt><trkpt lat="45.4858783" lon="10.4328383"><ele>149.0</ele><time>2026-03-29T07:52:44.459Z</time></trkpt><trkpt lat="45.48572" lon="10.4327733"><ele>149.0</ele><time>2026-03-29T07:52:45.459Z</time></trkpt><trkpt lat="45.4855567" lon="10.432655"><ele>149.0</ele><time>2026-03-29T07:52:46.459Z</time></trkpt><trkpt lat="45.48539" lon="10.432525"><ele>149.0</ele><time>2026-03-29T07:52:47.459Z</time></trkpt><trkpt lat="45.4852017" lon="10.4324083"><ele>149.0</ele><time>2026-03-29T07:52:48.459Z</time></trkpt><trkpt lat="45.485005" lon="10.4323133"><ele>149.0</ele><time>2026-03-29T07:52:49.459Z</time></trkpt><trkpt lat="45.484795" lon="10.4322333"><ele>149.0</ele><time>2026-03-29T07:52:50.459Z</time></trkpt><trkpt lat="45.484585" lon="10.43215"><ele>148.66666666666666</ele><time>2026-03-29T07:52:51.459Z</time></trkpt><trkpt lat="45.4843833" lon="10.4320783"><ele>148.33333333333334</ele><time>2026-03-29T07:52:52.458Z</time></trkpt><trkpt lat="45.4841933" lon="10.4320183"><ele>148.0</ele><time>2026-03-29T07:52:53.459Z</time></trkpt><trkpt lat="45.4840167" lon="10.4319583"><ele>148.0</ele><time>2026-03-29T07:52:54.459Z</time></trkpt><trkpt lat="45.483845" lon="10.431905"><ele>148.0</ele><time>2026-03-29T07:52:55.459Z</time></trkpt><trkpt lat="45.4836833" lon="10.4318533"><ele>148.0</ele><time>2026-03-29T07:52:56.458Z</time></trkpt><trkpt lat="45.4835283" lon="10.4317967"><ele>147.25</ele><time>2026-03-29T07:52:57.459Z</time></trkpt><trkpt lat="45.4833867" lon="10.431735"><ele>146.5</ele><time>2026-03-29T07:52:58.459Z</time></trkpt><trkpt lat="45.4832567" lon="10.4316783"><ele>145.75</ele><time>2026-03-29T07:52:59.459Z</time></trkpt><trkpt lat="45.4831083" lon="10.43162"><ele>145.0</ele><time>2026-03-29T07:53:00.459Z</time></trkpt><trkpt lat="45.4829383" lon="10.4315717"><ele>145.33333333333334</ele><time>2026-03-29T07:53:01.459Z</time></trkpt><trkpt lat="45.482755" lon="10.4315217"><ele>145.66666666666666</ele><time>2026-03-29T07:53:02.459Z</time></trkpt><trkpt lat="45.482555" lon="10.43148"><ele>146.0</ele><time>2026-03-29T07:53:03.459Z</time></trkpt><trkpt lat="45.4823583" lon="10.4314417"><ele>146.0</ele><time>2026-03-29T07:53:04.459Z</time></trkpt><trkpt lat="45.4821583" lon="10.4314083"><ele>146.0</ele><time>2026-03-29T07:53:05.459Z</time></trkpt><trkpt lat="45.4819633" lon="10.431405"><ele>146.0</ele><time>2026-03-29T07:53:06.459Z</time></trkpt><trkpt lat="45.4817667" lon="10.4314133"><ele>145.66666666666666</ele><time>2026-03-29T07:53:07.459Z</time></trkpt><trkpt lat="45.4815783" lon="10.4314267"><ele>145.33333333333334</ele><time>2026-03-29T07:53:08.459Z</time></trkpt><trkpt lat="45.4814017" lon="10.4314467"><ele>145.0</ele><time>2026-03-29T07:53:09.459Z</time></trkpt><trkpt lat="45.4812433" lon="10.4314617"><ele>144.75</ele><time>2026-03-29T07:53:10.459Z</time></trkpt><trkpt lat="45.481105" lon="10.4314833"><ele>144.5</ele><time>2026-03-29T07:53:11.458Z</time></trkpt><trkpt lat="45.4809667" lon="10.4314667"><ele>144.25</ele><time>2026-03-29T07:53:12.459Z</time></trkpt><trkpt lat="45.4808233" lon="10.4314217"><ele>144.0</ele><time>2026-03-29T07:53:13.459Z</time></trkpt><trkpt lat="45.4806767" lon="10.43134"><ele>144.33333333333334</ele><time>2026-03-29T07:53:14.459Z</time></trkpt><trkpt lat="45.48053" lon="10.431255"><ele>144.66666666666669</ele><time>2026-03-29T07:53:15.459Z</time></trkpt><trkpt lat="45.4803867" lon="10.43116"><ele>145.0</ele><time>2026-03-29T07:53:16.459Z</time></trkpt><trkpt lat="45.4802417" lon="10.4310567"><ele>144.33333333333334</ele><time>2026-03-29T07:53:17.459Z</time></trkpt><trkpt lat="45.4800883" lon="10.4309383"><ele>143.66666666666666</ele><time>2026-03-29T07:53:18.459Z</time></trkpt><trkpt lat="45.47992" lon="10.4308233"><ele>143.0</ele><time>2026-03-29T07:53:19.458Z</time></trkpt><trkpt lat="45.479755" lon="10.4307133"><ele>142.66666666666666</ele><time>2026-03-29T07:53:20.459Z</time></trkpt><trkpt lat="45.4795633" lon="10.4306183"><ele>142.33333333333334</ele><time>2026-03-29T07:53:21.459Z</time></trkpt><trkpt lat="45.4793617" lon="10.4305233"><ele>142.0</ele><time>2026-03-29T07:53:22.458Z</time></trkpt><trkpt lat="45.4791783" lon="10.430455"><ele>141.66666666666669</ele><time>2026-03-29T07:53:23.459Z</time></trkpt><trkpt lat="45.47901" lon="10.4304"><ele>141.33333333333334</ele><time>2026-03-29T07:53:24.459Z</time></trkpt><trkpt lat="45.4788517" lon="10.4303483"><ele>141.0</ele><time>2026-03-29T07:53:25.459Z</time></trkpt><trkpt lat="45.47869" lon="10.430295"><ele>141.0</ele><time>2026-03-29T07:53:26.459Z</time></trkpt><trkpt lat="45.4785283" lon="10.43024"><ele>141.0</ele><time>2026-03-29T07:53:27.459Z</time></trkpt><trkpt lat="45.4783617" lon="10.4301933"><ele>141.0</ele><time>2026-03-29T07:53:28.459Z</time></trkpt><trkpt lat="45.4781983" lon="10.4301483"><ele>141.0</ele><time>2026-03-29T07:53:29.459Z</time></trkpt><trkpt lat="45.478035" lon="10.4301067"><ele>141.0</ele><time>2026-03-29T07:53:30.459Z</time></trkpt><trkpt lat="45.4778833" lon="10.43007"><ele>141.0</ele><time>2026-03-29T07:53:31.459Z</time></trkpt><trkpt lat="45.4777283" lon="10.430045"><ele>140.75</ele><time>2026-03-29T07:53:32.459Z</time></trkpt><trkpt lat="45.4775783" lon="10.4300167"><ele>140.5</ele><time>2026-03-29T07:53:33.459Z</time></trkpt><trkpt lat="45.4774433" lon="10.4299933"><ele>140.25</ele><time>2026-03-29T07:53:34.459Z</time></trkpt><trkpt lat="45.4773167" lon="10.429985"><ele>140.0</ele><time>2026-03-29T07:53:35.459Z</time></trkpt><trkpt lat="45.477215" lon="10.4300083"><ele>140.0</ele><time>2026-03-29T07:53:36.459Z</time></trkpt><trkpt lat="45.477135" lon="10.43006"><ele>140.0</ele><time>2026-03-29T07:53:37.459Z</time></trkpt><trkpt lat="45.4770783" lon="10.4301683"><ele>140.0</ele><time>2026-03-29T07:53:38.459Z</time></trkpt><trkpt lat="45.47704" lon="10.430325"><ele>140.0</ele><time>2026-03-29T07:53:39.459Z</time></trkpt><trkpt lat="45.477005" lon="10.43053"><ele>140.0</ele><time>2026-03-29T07:53:40.459Z</time></trkpt><trkpt lat="45.476965" lon="10.4307217"><ele>139.8</ele><time>2026-03-29T07:53:41.459Z</time></trkpt><trkpt lat="45.4769167" lon="10.4308517"><ele>139.6</ele><time>2026-03-29T07:53:42.459Z</time></trkpt><trkpt lat="45.4768417" lon="10.430945"><ele>139.4</ele><time>2026-03-29T07:53:43.459Z</time></trkpt><trkpt lat="45.476745" lon="10.4309917"><ele>139.2</ele><time>2026-03-29T07:53:44.458Z</time></trkpt><trkpt lat="45.4766267" lon="10.43098"><ele>139.0</ele><time>2026-03-29T07:53:45.459Z</time></trkpt><trkpt lat="45.4764783" lon="10.4309183"><ele>139.0</ele><time>2026-03-29T07:53:46.459Z</time></trkpt><trkpt lat="45.476315" lon="10.430835"><ele>139.0</ele><time>2026-03-29T07:53:47.459Z</time></trkpt><trkpt lat="45.4761217" lon="10.4307333"><ele>139.0</ele><time>2026-03-29T07:53:48.459Z</time></trkpt><trkpt lat="45.4759083" lon="10.43063"><ele>139.5</ele><time>2026-03-29T07:53:49.459Z</time></trkpt><trkpt lat="45.47569" lon="10.4305183"><ele>140.0</ele><time>2026-03-29T07:53:50.459Z</time></trkpt><trkpt lat="45.475475" lon="10.4303933"><ele>139.66666666666666</ele><time>2026-03-29T07:53:51.459Z</time></trkpt><trkpt lat="45.4752767" lon="10.4302767"><ele>139.33333333333334</ele><time>2026-03-29T07:53:52.459Z</time></trkpt><trkpt lat="45.4750717" lon="10.4301683"><ele>139.0</ele><time>2026-03-29T07:53:53.459Z</time></trkpt><trkpt lat="45.4748633" lon="10.4300683"><ele>139.0</ele><time>2026-03-29T07:53:54.459Z</time></trkpt><trkpt lat="45.4746717" lon="10.4299767"><ele>139.0</ele><time>2026-03-29T07:53:55.459Z</time></trkpt><trkpt lat="45.47449" lon="10.4298817"><ele>139.0</ele><time>2026-03-29T07:53:56.459Z</time></trkpt><trkpt lat="45.474325" lon="10.4298"><ele>138.75</ele><time>2026-03-29T07:53:57.459Z</time></trkpt><trkpt lat="45.4741767" lon="10.4297233"><ele>138.5</ele><time>2026-03-29T07:53:58.459Z</time></trkpt><trkpt lat="45.474045" lon="10.429655"><ele>138.25</ele><time>2026-03-29T07:53:59.458Z</time></trkpt><trkpt lat="45.473925" lon="10.4295983"><ele>138.0</ele><time>2026-03-29T07:54:00.459Z</time></trkpt><trkpt lat="45.47382" lon="10.4295517"><ele>137.8</ele><time>2026-03-29T07:54:01.459Z</time></trkpt><trkpt lat="45.47374" lon="10.4295133"><ele>137.60000000000002</ele><time>2026-03-29T07:54:02.459Z</time></trkpt><trkpt lat="45.473665" lon="10.4295"><ele>137.39999999999998</ele><time>2026-03-29T07:54:03.458Z</time></trkpt><trkpt lat="45.4735567" lon="10.4295833"><ele>137.2</ele><time>2026-03-29T07:54:05.459Z</time></trkpt><trkpt lat="45.4735267" lon="10.4296967"><ele>137.0</ele><time>2026-03-29T07:54:06.459Z</time></trkpt><trkpt lat="45.4735033" lon="10.4298667"><ele>137.0</ele><time>2026-03-29T07:54:07.459Z</time></trkpt><trkpt lat="45.4734833" lon="10.4301083"><ele>137.0</ele><time>2026-03-29T07:54:08.459Z</time></trkpt><trkpt lat="45.473455" lon="10.4303833"><ele>137.0</ele><time>2026-03-29T07:54:09.458Z</time></trkpt><trkpt lat="45.47341" lon="10.4306683"><ele>137.0</ele><time>2026-03-29T07:54:10.459Z</time></trkpt><trkpt lat="45.4733567" lon="10.4309567"><ele>137.0</ele><time>2026-03-29T07:54:11.458Z</time></trkpt><trkpt lat="45.47328" lon="10.4312667"><ele>137.0</ele><time>2026-03-29T07:54:12.459Z</time></trkpt><trkpt lat="45.4732033" lon="10.4316"><ele>138.0</ele><time>2026-03-29T07:54:13.459Z</time></trkpt><trkpt lat="45.4731167" lon="10.4319183"><ele>139.0</ele><time>2026-03-29T07:54:14.459Z</time></trkpt><trkpt lat="45.473035" lon="10.4321967"><ele>139.0</ele><time>2026-03-29T07:54:15.459Z</time></trkpt><trkpt lat="45.4729517" lon="10.4324567"><ele>139.0</ele><time>2026-03-29T07:54:16.459Z</time></trkpt><trkpt lat="45.4728783" lon="10.4327167"><ele>139.0</ele><time>2026-03-29T07:54:17.459Z</time></trkpt><trkpt lat="45.472805" lon="10.432965"><ele>139.33333333333334</ele><time>2026-03-29T07:54:18.458Z</time></trkpt><trkpt lat="45.4727433" lon="10.4332067"><ele>139.66666666666666</ele><time>2026-03-29T07:54:19.459Z</time></trkpt><trkpt lat="45.472685" lon="10.4334283"><ele>140.0</ele><time>2026-03-29T07:54:20.459Z</time></trkpt><trkpt lat="45.472625" lon="10.433635"><ele>139.5</ele><time>2026-03-29T07:54:21.459Z</time></trkpt><trkpt lat="45.47257" lon="10.4338417"><ele>139.0</ele><time>2026-03-29T07:54:22.458Z</time></trkpt><trkpt lat="45.4725167" lon="10.4340383"><ele>138.5</ele><time>2026-03-29T07:54:23.458Z</time></trkpt><trkpt lat="45.4724783" lon="10.43422"><ele>138.0</ele><time>2026-03-29T07:54:24.459Z</time></trkpt><trkpt lat="45.472435" lon="10.43438"><ele>138.0</ele><time>2026-03-29T07:54:25.459Z</time></trkpt><trkpt lat="45.4723983" lon="10.4345283"><ele>138.0</ele><time>2026-03-29T07:54:26.459Z</time></trkpt><trkpt lat="45.4723617" lon="10.434665"><ele>138.0</ele><time>2026-03-29T07:54:27.459Z</time></trkpt><trkpt lat="45.4723167" lon="10.4347967"><ele>138.0</ele><time>2026-03-29T07:54:28.458Z</time></trkpt><trkpt lat="45.4722533" lon="10.4349183"><ele>138.0</ele><time>2026-03-29T07:54:29.459Z</time></trkpt><trkpt lat="45.472185" lon="10.435055"><ele>137.75</ele><time>2026-03-29T07:54:30.459Z</time></trkpt><trkpt lat="45.472145" lon="10.4352"><ele>137.5</ele><time>2026-03-29T07:54:31.459Z</time></trkpt><trkpt lat="45.4721217" lon="10.4353633"><ele>137.25</ele><time>2026-03-29T07:54:32.459Z</time></trkpt><trkpt lat="45.4721033" lon="10.4355533"><ele>137.0</ele><time>2026-03-29T07:54:33.458Z</time></trkpt><trkpt lat="45.4720667" lon="10.4357583"><ele>137.66666666666666</ele><time>2026-03-29T07:54:34.459Z</time></trkpt><trkpt lat="45.4720067" lon="10.43598"><ele>138.33333333333334</ele><time>2026-03-29T07:54:35.459Z</time></trkpt><trkpt lat="45.4719317" lon="10.4362283"><ele>139.0</ele><time>2026-03-29T07:54:36.459Z</time></trkpt><trkpt lat="45.471845" lon="10.4364917"><ele>139.0</ele><time>2026-03-29T07:54:37.459Z</time></trkpt><trkpt lat="45.47176" lon="10.4367433"><ele>139.0</ele><time>2026-03-29T07:54:38.459Z</time></trkpt><trkpt lat="45.4716817" lon="10.4369967"><ele>139.0</ele><time>2026-03-29T07:54:39.458Z</time></trkpt><trkpt lat="45.4716067" lon="10.4372467"><ele>138.66666666666669</ele><time>2026-03-29T07:54:40.459Z</time></trkpt><trkpt lat="45.4715367" lon="10.4374917"><ele>138.33333333333334</ele><time>2026-03-29T07:54:41.459Z</time></trkpt><trkpt lat="45.4714683" lon="10.4377367"><ele>138.0</ele><time>2026-03-29T07:54:42.459Z</time></trkpt><trkpt lat="45.471405" lon="10.437975"><ele>138.0</ele><time>2026-03-29T07:54:43.459Z</time></trkpt><trkpt lat="45.471335" lon="10.4382167"><ele>138.0</ele><time>2026-03-29T07:54:44.459Z</time></trkpt><trkpt lat="45.47126" lon="10.4384783"><ele>138.0</ele><time>2026-03-29T07:54:45.459Z</time></trkpt><trkpt lat="45.471195" lon="10.438735"><ele>138.0</ele><time>2026-03-29T07:54:46.459Z</time></trkpt><trkpt lat="45.47114" lon="10.438955"><ele>138.0</ele><time>2026-03-29T07:54:47.459Z</time></trkpt><trkpt lat="45.4710783" lon="10.4391483"><ele>138.0</ele><time>2026-03-29T07:54:48.458Z</time></trkpt><trkpt lat="45.4710267" lon="10.4393367"><ele>138.0</ele><time>2026-03-29T07:54:49.459Z</time></trkpt><trkpt lat="45.4709833" lon="10.4395217"><ele>138.0</ele><time>2026-03-29T07:54:50.459Z</time></trkpt><trkpt lat="45.4709517" lon="10.4397033"><ele>138.0</ele><time>2026-03-29T07:54:51.459Z</time></trkpt><trkpt lat="45.4709267" lon="10.4398767"><ele>138.0</ele><time>2026-03-29T07:54:52.459Z</time></trkpt><trkpt lat="45.4709033" lon="10.4400367"><ele>138.20000000000002</ele><time>2026-03-29T07:54:53.459Z</time></trkpt><trkpt lat="45.4708717" lon="10.4401767"><ele>138.4</ele><time>2026-03-29T07:54:54.459Z</time></trkpt><trkpt lat="45.4708217" lon="10.440285"><ele>138.60000000000002</ele><time>2026-03-29T07:54:55.459Z</time></trkpt><trkpt lat="45.470745" lon="10.440355"><ele>138.8</ele><time>2026-03-29T07:54:56.459Z</time></trkpt><trkpt lat="45.4706467" lon="10.4403817"><ele>139.0</ele><time>2026-03-29T07:54:57.459Z</time></trkpt><trkpt lat="45.470535" lon="10.4403733"><ele>139.25</ele><time>2026-03-29T07:54:58.459Z</time></trkpt><trkpt lat="45.47041" lon="10.44035"><ele>139.5</ele><time>2026-03-29T07:54:59.459Z</time></trkpt><trkpt lat="45.4702667" lon="10.44035"><ele>139.75</ele><time>2026-03-29T07:55:00.458Z</time></trkpt><trkpt lat="45.4701133" lon="10.440355"><ele>140.0</ele><time>2026-03-29T07:55:01.459Z</time></trkpt><trkpt lat="45.4699467" lon="10.4403633"><ele>140.0</ele><time>2026-03-29T07:55:02.459Z</time></trkpt><trkpt lat="45.4697767" lon="10.44038"><ele>140.0</ele><time>2026-03-29T07:55:03.459Z</time></trkpt><trkpt lat="45.469605" lon="10.4404033"><ele>140.0</ele><time>2026-03-29T07:55:04.459Z</time></trkpt><trkpt lat="45.4694467" lon="10.44044"><ele>139.5</ele><time>2026-03-29T07:55:05.459Z</time></trkpt><trkpt lat="45.4693017" lon="10.4404733"><ele>139.0</ele><time>2026-03-29T07:55:06.459Z</time></trkpt><trkpt lat="45.4691667" lon="10.4405033"><ele>138.5</ele><time>2026-03-29T07:55:07.459Z</time></trkpt><trkpt lat="45.46903" lon="10.4405467"><ele>138.0</ele><time>2026-03-29T07:55:08.458Z</time></trkpt><trkpt lat="45.4689033" lon="10.4405733"><ele>138.0</ele><time>2026-03-29T07:55:09.459Z</time></trkpt><trkpt lat="45.4687817" lon="10.4406"><ele>138.0</ele><time>2026-03-29T07:55:10.459Z</time></trkpt><trkpt lat="45.46866" lon="10.4406267"><ele>138.0</ele><time>2026-03-29T07:55:11.459Z</time></trkpt><trkpt lat="45.4685433" lon="10.4406567"><ele>138.0</ele><time>2026-03-29T07:55:12.459Z</time></trkpt><trkpt lat="45.4684333" lon="10.4406783"><ele>138.4</ele><time>2026-03-29T07:55:13.459Z</time></trkpt><trkpt lat="45.4683367" lon="10.4406767"><ele>138.8</ele><time>2026-03-29T07:55:14.459Z</time></trkpt><trkpt lat="45.4682517" lon="10.4406633"><ele>139.2</ele><time>2026-03-29T07:55:15.459Z</time></trkpt><trkpt lat="45.468165" lon="10.4406433"><ele>139.6</ele><time>2026-03-29T07:55:16.459Z</time></trkpt><trkpt lat="45.468075" lon="10.4406083"><ele>140.0</ele><time>2026-03-29T07:55:17.459Z</time></trkpt><trkpt lat="45.467975" lon="10.4406017"><ele>139.75</ele><time>2026-03-29T07:55:18.459Z</time></trkpt><trkpt lat="45.4678683" lon="10.4406233"><ele>139.5</ele><time>2026-03-29T07:55:19.459Z</time></trkpt><trkpt lat="45.46775" lon="10.4406467"><ele>139.25</ele><time>2026-03-29T07:55:20.458Z</time></trkpt><trkpt lat="45.4676133" lon="10.44066"><ele>139.0</ele><time>2026-03-29T07:55:21.459Z</time></trkpt><trkpt lat="45.46747" lon="10.44068"><ele>139.0</ele><time>2026-03-29T07:55:22.459Z</time></trkpt><trkpt lat="45.4673267" lon="10.4406983"><ele>139.0</ele><time>2026-03-29T07:55:23.458Z</time></trkpt><trkpt lat="45.4671683" lon="10.440715"><ele>139.0</ele><time>2026-03-29T07:55:24.459Z</time></trkpt><trkpt lat="45.4669917" lon="10.4407317"><ele>138.0</ele><time>2026-03-29T07:55:25.459Z</time></trkpt><trkpt lat="45.4668117" lon="10.4407633"><ele>137.0</ele><time>2026-03-29T07:55:26.459Z</time></trkpt><trkpt lat="45.46663" lon="10.4407983"><ele>136.0</ele><time>2026-03-29T07:55:27.459Z</time></trkpt><trkpt lat="45.46644" lon="10.4408217"><ele>135.66666666666669</ele><time>2026-03-29T07:55:28.459Z</time></trkpt><trkpt lat="45.466245" lon="10.4408567"><ele>135.33333333333334</ele><time>2026-03-29T07:55:29.459Z</time></trkpt><trkpt lat="45.46605" lon="10.4409083"><ele>135.0</ele><time>2026-03-29T07:55:30.459Z</time></trkpt><trkpt lat="45.46586" lon="10.4409617"><ele>135.0</ele><time>2026-03-29T07:55:31.459Z</time></trkpt><trkpt lat="45.4656817" lon="10.4410183"><ele>135.0</ele><time>2026-03-29T07:55:32.459Z</time></trkpt><trkpt lat="45.465515" lon="10.4410617"><ele>135.0</ele><time>2026-03-29T07:55:33.459Z</time></trkpt><trkpt lat="45.4653467" lon="10.44111"><ele>134.66666666666666</ele><time>2026-03-29T07:55:34.459Z</time></trkpt><trkpt lat="45.465165" lon="10.4411467"><ele>134.33333333333331</ele><time>2026-03-29T07:55:35.459Z</time></trkpt><trkpt lat="45.4649983" lon="10.4412"><ele>134.0</ele><time>2026-03-29T07:55:36.459Z</time></trkpt><trkpt lat="45.464845" lon="10.4412383"><ele>134.0</ele><time>2026-03-29T07:55:37.459Z</time></trkpt><trkpt lat="45.464685" lon="10.441285"><ele>134.0</ele><time>2026-03-29T07:55:38.459Z</time></trkpt><trkpt lat="45.464515" lon="10.4413333"><ele>134.0</ele><time>2026-03-29T07:55:39.459Z</time></trkpt><trkpt lat="45.4643467" lon="10.4413767"><ele>134.66666666666666</ele><time>2026-03-29T07:55:40.459Z</time></trkpt><trkpt lat="45.4641733" lon="10.441395"><ele>135.33333333333334</ele><time>2026-03-29T07:55:41.459Z</time></trkpt><trkpt lat="45.4639883" lon="10.4414117"><ele>136.0</ele><time>2026-03-29T07:55:42.459Z</time></trkpt><trkpt lat="45.4637983" lon="10.4414133"><ele>135.66666666666669</ele><time>2026-03-29T07:55:43.459Z</time></trkpt><trkpt lat="45.4635917" lon="10.4414233"><ele>135.33333333333334</ele><time>2026-03-29T07:55:44.459Z</time></trkpt><trkpt lat="45.4633567" lon="10.44144"><ele>135.0</ele><time>2026-03-29T07:55:45.459Z</time></trkpt><trkpt lat="45.4631183" lon="10.4414783"><ele>134.5</ele><time>2026-03-29T07:55:46.459Z</time></trkpt><trkpt lat="45.4628767" lon="10.441515"><ele>134.0</ele><time>2026-03-29T07:55:47.459Z</time></trkpt><trkpt lat="45.4626483" lon="10.4415683"><ele>134.0</ele><time>2026-03-29T07:55:48.459Z</time></trkpt><trkpt lat="45.46244" lon="10.44162"><ele>134.0</ele><time>2026-03-29T07:55:49.459Z</time></trkpt><trkpt lat="45.4622417" lon="10.4416717"><ele>134.0</ele><time>2026-03-29T07:55:50.459Z</time></trkpt><trkpt lat="45.4620583" lon="10.44172"><ele>134.0</ele><time>2026-03-29T07:55:51.459Z</time></trkpt><trkpt lat="45.4618717" lon="10.44177"><ele>134.0</ele><time>2026-03-29T07:55:52.459Z</time></trkpt><trkpt lat="45.4616633" lon="10.4418267"><ele>134.0</ele><time>2026-03-29T07:55:53.459Z</time></trkpt><trkpt lat="45.46144" lon="10.4418783"><ele>133.66666666666666</ele><time>2026-03-29T07:55:54.459Z</time></trkpt><trkpt lat="45.4612267" lon="10.4419433"><ele>133.33333333333334</ele><time>2026-03-29T07:55:55.459Z</time></trkpt><trkpt lat="45.4610067" lon="10.4420067"><ele>133.0</ele><time>2026-03-29T07:55:56.459Z</time></trkpt><trkpt lat="45.460795" lon="10.442075"><ele>133.0</ele><time>2026-03-29T07:55:57.459Z</time></trkpt><trkpt lat="45.46058" lon="10.4421283"><ele>133.0</ele><time>2026-03-29T07:55:58.459Z</time></trkpt><trkpt lat="45.460365" lon="10.4421967"><ele>133.0</ele><time>2026-03-29T07:55:59.459Z</time></trkpt><trkpt lat="45.4601667" lon="10.44226"><ele>133.0</ele><time>2026-03-29T07:56:00.459Z</time></trkpt><trkpt lat="45.4599883" lon="10.442315"><ele>133.0</ele><time>2026-03-29T07:56:01.459Z</time></trkpt><trkpt lat="45.4598217" lon="10.4423617"><ele>133.0</ele><time>2026-03-29T07:56:02.459Z</time></trkpt><trkpt lat="45.4596583" lon="10.4424033"><ele>132.5</ele><time>2026-03-29T07:56:03.458Z</time></trkpt><trkpt lat="45.459515" lon="10.4424383"><ele>132.0</ele><time>2026-03-29T07:56:04.459Z</time></trkpt><trkpt lat="45.4593783" lon="10.4424817"><ele>131.5</ele><time>2026-03-29T07:56:05.459Z</time></trkpt><trkpt lat="45.4592433" lon="10.442525"><ele>131.0</ele><time>2026-03-29T07:56:06.459Z</time></trkpt><trkpt lat="45.4591167" lon="10.44256"><ele>131.0</ele><time>2026-03-29T07:56:07.459Z</time></trkpt><trkpt lat="45.4589933" lon="10.4425917"><ele>131.0</ele><time>2026-03-29T07:56:08.459Z</time></trkpt><trkpt lat="45.4588733" lon="10.4426183"><ele>131.0</ele><time>2026-03-29T07:56:09.458Z</time></trkpt><trkpt lat="45.4587667" lon="10.4426533"><ele>131.0</ele><time>2026-03-29T07:56:10.459Z</time></trkpt><trkpt lat="45.4586767" lon="10.4426817"><ele>131.0</ele><time>2026-03-29T07:56:11.459Z</time></trkpt><trkpt lat="45.4585983" lon="10.44271"><ele>130.83333333333331</ele><time>2026-03-29T07:56:12.459Z</time></trkpt><trkpt lat="45.45853" lon="10.4427367"><ele>130.66666666666666</ele><time>2026-03-29T07:56:13.459Z</time></trkpt><trkpt lat="45.45844" lon="10.4427933"><ele>130.5</ele><time>2026-03-29T07:56:15.459Z</time></trkpt><trkpt lat="45.4584167" lon="10.4429233"><ele>130.33333333333334</ele><time>2026-03-29T07:56:17.459Z</time></trkpt><trkpt lat="45.4584167" lon="10.443025"><ele>130.16666666666669</ele><time>2026-03-29T07:56:18.459Z</time></trkpt><trkpt lat="45.4583933" lon="10.443135"><ele>130.0</ele><time>2026-03-29T07:56:19.459Z</time></trkpt><trkpt lat="45.4583533" lon="10.4432367"><ele>130.0</ele><time>2026-03-29T07:56:20.459Z</time></trkpt><trkpt lat="45.458285" lon="10.443305"><ele>130.0</ele><time>2026-03-29T07:56:21.459Z</time></trkpt><trkpt lat="45.4581867" lon="10.44337"><ele>130.0</ele><time>2026-03-29T07:56:22.459Z</time></trkpt><trkpt lat="45.4580567" lon="10.4434083"><ele>130.0</ele><time>2026-03-29T07:56:23.459Z</time></trkpt><trkpt lat="45.4579267" lon="10.4434217"><ele>130.0</ele><time>2026-03-29T07:56:24.459Z</time></trkpt><trkpt lat="45.4578067" lon="10.4434267"><ele>130.0</ele><time>2026-03-29T07:56:25.459Z</time></trkpt><trkpt lat="45.4576967" lon="10.443425"><ele>130.0</ele><time>2026-03-29T07:56:26.459Z</time></trkpt><trkpt lat="45.4575967" lon="10.443435"><ele>130.0</ele><time>2026-03-29T07:56:27.459Z</time></trkpt><trkpt lat="45.4575067" lon="10.44344"><ele>130.0</ele><time>2026-03-29T07:56:28.459Z</time></trkpt><trkpt lat="45.4574267" lon="10.4434433"><ele>130.0</ele><time>2026-03-29T07:56:29.459Z</time></trkpt><trkpt lat="45.45735" lon="10.44346"><ele>130.0</ele><time>2026-03-29T07:56:30.459Z</time></trkpt><trkpt lat="45.45728" lon="10.4434917"><ele>130.0</ele><time>2026-03-29T07:56:31.459Z</time></trkpt><trkpt lat="45.457215" lon="10.44352"><ele>130.0</ele><time>2026-03-29T07:56:32.459Z</time></trkpt><trkpt lat="45.4571433" lon="10.4435433"><ele>130.0</ele><time>2026-03-29T07:56:33.459Z</time></trkpt><trkpt lat="45.4570567" lon="10.4435483"><ele>130.0</ele><time>2026-03-29T07:56:34.459Z</time></trkpt><trkpt lat="45.4569583" lon="10.4435467"><ele>129.8</ele><time>2026-03-29T07:56:35.459Z</time></trkpt><trkpt lat="45.4568583" lon="10.4435267"><ele>129.6</ele><time>2026-03-29T07:56:36.459Z</time></trkpt><trkpt lat="45.45676" lon="10.4435117"><ele>129.4</ele><time>2026-03-29T07:56:37.459Z</time></trkpt><trkpt lat="45.4566517" lon="10.4434967"><ele>129.2</ele><time>2026-03-29T07:56:38.459Z</time></trkpt><trkpt lat="45.45654" lon="10.44348"><ele>129.0</ele><time>2026-03-29T07:56:39.459Z</time></trkpt><trkpt lat="45.4564233" lon="10.4434583"><ele>129.0</ele><time>2026-03-29T07:56:40.458Z</time></trkpt><trkpt lat="45.45629" lon="10.443445"><ele>129.0</ele><time>2026-03-29T07:56:41.459Z</time></trkpt><trkpt lat="45.4561533" lon="10.44343"><ele>129.0</ele><time>2026-03-29T07:56:42.459Z</time></trkpt><trkpt lat="45.4560417" lon="10.44342"><ele>129.0</ele><time>2026-03-29T07:56:43.459Z</time></trkpt><trkpt lat="45.4559633" lon="10.443415"><ele>129.33333333333334</ele><time>2026-03-29T07:56:44.459Z</time></trkpt><trkpt lat="45.4559" lon="10.4434067"><ele>129.66666666666666</ele><time>2026-03-29T07:56:45.459Z</time></trkpt><trkpt lat="45.4558367" lon="10.4433917"><ele>130.0</ele><time>2026-03-29T07:56:46.459Z</time></trkpt><trkpt lat="45.4557067" lon="10.44337"><ele>130.33333333333331</ele><time>2026-03-29T07:56:48.459Z</time></trkpt><trkpt lat="45.45564" lon="10.443365"><ele>130.66666666666666</ele><time>2026-03-29T07:56:49.459Z</time></trkpt><trkpt lat="45.455565" lon="10.4433567"><ele>131.0</ele><time>2026-03-29T07:56:50.459Z</time></trkpt><trkpt lat="45.455475" lon="10.443365"><ele>130.6</ele><time>2026-03-29T07:56:51.458Z</time></trkpt><trkpt lat="45.4553833" lon="10.44338"><ele>130.2</ele><time>2026-03-29T07:56:52.459Z</time></trkpt><trkpt lat="45.4552967" lon="10.4434117"><ele>129.8</ele><time>2026-03-29T07:56:53.459Z</time></trkpt><trkpt lat="45.4552083" lon="10.4434617"><ele>129.4</ele><time>2026-03-29T07:56:54.459Z</time></trkpt><trkpt lat="45.4551067" lon="10.44352"><ele>129.0</ele><time>2026-03-29T07:56:55.459Z</time></trkpt><trkpt lat="45.454985" lon="10.443575"><ele>129.0</ele><time>2026-03-29T07:56:56.459Z</time></trkpt><trkpt lat="45.45484" lon="10.4436283"><ele>129.0</ele><time>2026-03-29T07:56:57.459Z</time></trkpt><trkpt lat="45.4546933" lon="10.4436833"><ele>129.0</ele><time>2026-03-29T07:56:58.459Z</time></trkpt><trkpt lat="45.45454" lon="10.4437467"><ele>128.66666666666666</ele><time>2026-03-29T07:56:59.459Z</time></trkpt><trkpt lat="45.4543817" lon="10.443815"><ele>128.33333333333331</ele><time>2026-03-29T07:57:00.458Z</time></trkpt><trkpt lat="45.4542367" lon="10.4438667"><ele>128.0</ele><time>2026-03-29T07:57:01.459Z</time></trkpt><trkpt lat="45.45408" lon="10.4439"><ele>128.0</ele><time>2026-03-29T07:57:02.459Z</time></trkpt><trkpt lat="45.453925" lon="10.4439117"><ele>128.0</ele><time>2026-03-29T07:57:03.459Z</time></trkpt><trkpt lat="45.45375" lon="10.4439267"><ele>128.0</ele><time>2026-03-29T07:57:04.459Z</time></trkpt><trkpt lat="45.4535667" lon="10.4439417"><ele>128.0</ele><time>2026-03-29T07:57:05.458Z</time></trkpt><trkpt lat="45.4533883" lon="10.4439817"><ele>128.0</ele><time>2026-03-29T07:57:06.459Z</time></trkpt><trkpt lat="45.453215" lon="10.444015"><ele>128.0</ele><time>2026-03-29T07:57:07.458Z</time></trkpt><trkpt lat="45.45306" lon="10.4440583"><ele>127.5</ele><time>2026-03-29T07:57:08.459Z</time></trkpt><trkpt lat="45.452915" lon="10.44409"><ele>127.0</ele><time>2026-03-29T07:57:09.459Z</time></trkpt><trkpt lat="45.4527717" lon="10.4441133"><ele>126.5</ele><time>2026-03-29T07:57:10.459Z</time></trkpt><trkpt lat="45.452635" lon="10.4441317"><ele>126.0</ele><time>2026-03-29T07:57:11.459Z</time></trkpt><trkpt lat="45.4525017" lon="10.4441617"><ele>126.0</ele><time>2026-03-29T07:57:12.459Z</time></trkpt><trkpt lat="45.4523617" lon="10.4441917"><ele>126.0</ele><time>2026-03-29T07:57:13.458Z</time></trkpt><trkpt lat="45.4522283" lon="10.44421"><ele>126.0</ele><time>2026-03-29T07:57:14.459Z</time></trkpt><trkpt lat="45.452105" lon="10.4442367"><ele>126.0</ele><time>2026-03-29T07:57:15.459Z</time></trkpt><trkpt lat="45.451975" lon="10.444265"><ele>126.25</ele><time>2026-03-29T07:57:16.459Z</time></trkpt><trkpt lat="45.4518433" lon="10.444295"><ele>126.5</ele><time>2026-03-29T07:57:17.459Z</time></trkpt><trkpt lat="45.4517067" lon="10.4443317"><ele>126.75</ele><time>2026-03-29T07:57:18.459Z</time></trkpt><trkpt lat="45.45156" lon="10.4443433"><ele>127.0</ele><time>2026-03-29T07:57:19.458Z</time></trkpt><trkpt lat="45.4514083" lon="10.4443617"><ele>126.33333333333334</ele><time>2026-03-29T07:57:20.459Z</time></trkpt><trkpt lat="45.451255" lon="10.4443817"><ele>125.66666666666666</ele><time>2026-03-29T07:57:21.459Z</time></trkpt><trkpt lat="45.451105" lon="10.4444067"><ele>125.0</ele><time>2026-03-29T07:57:22.459Z</time></trkpt><trkpt lat="45.45095" lon="10.4444283"><ele>125.0</ele><time>2026-03-29T07:57:23.459Z</time></trkpt><trkpt lat="45.4508017" lon="10.4444483"><ele>125.0</ele><time>2026-03-29T07:57:24.459Z</time></trkpt><trkpt lat="45.4506533" lon="10.4444767"><ele>125.0</ele><time>2026-03-29T07:57:25.459Z</time></trkpt><trkpt lat="45.4505017" lon="10.4445083"><ele>124.33333333333333</ele><time>2026-03-29T07:57:26.459Z</time></trkpt><trkpt lat="45.450345" lon="10.44454"><ele>123.66666666666666</ele><time>2026-03-29T07:57:27.459Z</time></trkpt><trkpt lat="45.4501983" lon="10.444575"><ele>123.0</ele><time>2026-03-29T07:57:28.459Z</time></trkpt><trkpt lat="45.4500517" lon="10.4446033"><ele>123.0</ele><time>2026-03-29T07:57:29.459Z</time></trkpt><trkpt lat="45.4499017" lon="10.4446283"><ele>123.0</ele><time>2026-03-29T07:57:30.459Z</time></trkpt><trkpt lat="45.4497483" lon="10.4446533"><ele>123.0</ele><time>2026-03-29T07:57:31.459Z</time></trkpt><trkpt lat="45.449595" lon="10.444675"><ele>123.5</ele><time>2026-03-29T07:57:32.459Z</time></trkpt><trkpt lat="45.4494483" lon="10.4446917"><ele>124.0</ele><time>2026-03-29T07:57:33.459Z</time></trkpt><trkpt lat="45.4493033" lon="10.4447117"><ele>124.5</ele><time>2026-03-29T07:57:34.458Z</time></trkpt><trkpt lat="45.44916" lon="10.4447333"><ele>125.0</ele><time>2026-03-29T07:57:35.459Z</time></trkpt><trkpt lat="45.4490183" lon="10.4447567"><ele>125.0</ele><time>2026-03-29T07:57:36.459Z</time></trkpt><trkpt lat="45.448865" lon="10.44478"><ele>125.0</ele><time>2026-03-29T07:57:37.459Z</time></trkpt><trkpt lat="45.4487083" lon="10.4448133"><ele>125.0</ele><time>2026-03-29T07:57:38.459Z</time></trkpt><trkpt lat="45.4485667" lon="10.4448367"><ele>124.5</ele><time>2026-03-29T07:57:39.459Z</time></trkpt><trkpt lat="45.448435" lon="10.444855"><ele>124.0</ele><time>2026-03-29T07:57:40.459Z</time></trkpt><trkpt lat="45.4483033" lon="10.444875"><ele>123.5</ele><time>2026-03-29T07:57:41.459Z</time></trkpt><trkpt lat="45.4481667" lon="10.4448917"><ele>123.0</ele><time>2026-03-29T07:57:42.458Z</time></trkpt><trkpt lat="45.44801" lon="10.444925"><ele>122.33333333333334</ele><time>2026-03-29T07:57:43.459Z</time></trkpt><trkpt lat="45.4478617" lon="10.4449583"><ele>121.66666666666667</ele><time>2026-03-29T07:57:44.459Z</time></trkpt><trkpt lat="45.44771" lon="10.4449783"><ele>121.0</ele><time>2026-03-29T07:57:45.459Z</time></trkpt><trkpt lat="45.4475583" lon="10.4450017"><ele>121.0</ele><time>2026-03-29T07:57:46.459Z</time></trkpt><trkpt lat="45.4474067" lon="10.4450333"><ele>121.0</ele><time>2026-03-29T07:57:47.459Z</time></trkpt><trkpt lat="45.4472483" lon="10.4450633"><ele>121.0</ele><time>2026-03-29T07:57:48.459Z</time></trkpt><trkpt lat="45.4471017" lon="10.4450917"><ele>121.0</ele><time>2026-03-29T07:57:49.459Z</time></trkpt><trkpt lat="45.446965" lon="10.4451183"><ele>121.0</ele><time>2026-03-29T07:57:50.459Z</time></trkpt><trkpt lat="45.44682" lon="10.44515"><ele>121.0</ele><time>2026-03-29T07:57:51.459Z</time></trkpt><trkpt lat="45.446685" lon="10.4451717"><ele>121.0</ele><time>2026-03-29T07:57:52.459Z</time></trkpt><trkpt lat="45.446565" lon="10.4451933"><ele>121.0</ele><time>2026-03-29T07:57:53.459Z</time></trkpt><trkpt lat="45.44644" lon="10.4452083"><ele>121.0</ele><time>2026-03-29T07:57:54.459Z</time></trkpt><trkpt lat="45.4463167" lon="10.445225"><ele>121.0</ele><time>2026-03-29T07:57:55.459Z</time></trkpt><trkpt lat="45.4461667" lon="10.445215"><ele>121.0</ele><time>2026-03-29T07:57:56.459Z</time></trkpt><trkpt lat="45.446025" lon="10.4452067"><ele>121.0</ele><time>2026-03-29T07:57:57.459Z</time></trkpt><trkpt lat="45.4458817" lon="10.445195"><ele>121.0</ele><time>2026-03-29T07:57:58.459Z</time></trkpt><trkpt lat="45.44572" lon="10.445195"><ele>121.0</ele><time>2026-03-29T07:57:59.459Z</time></trkpt><trkpt lat="45.4455583" lon="10.4451933"><ele>121.33333333333334</ele><time>2026-03-29T07:58:00.458Z</time></trkpt><trkpt lat="45.4453883" lon="10.4451917"><ele>121.66666666666666</ele><time>2026-03-29T07:58:01.459Z</time></trkpt><trkpt lat="45.44522" lon="10.4451983"><ele>122.0</ele><time>2026-03-29T07:58:02.459Z</time></trkpt><trkpt lat="45.4450483" lon="10.4451917"><ele>122.0</ele><time>2026-03-29T07:58:03.459Z</time></trkpt><trkpt lat="45.4448717" lon="10.4451933"><ele>122.0</ele><time>2026-03-29T07:58:04.459Z</time></trkpt><trkpt lat="45.4446933" lon="10.44519"><ele>122.0</ele><time>2026-03-29T07:58:05.459Z</time></trkpt><trkpt lat="45.444515" lon="10.4451783"><ele>121.33333333333333</ele><time>2026-03-29T07:58:06.459Z</time></trkpt><trkpt lat="45.4443417" lon="10.4451733"><ele>120.66666666666666</ele><time>2026-03-29T07:58:07.459Z</time></trkpt><trkpt lat="45.4441617" lon="10.445175"><ele>120.0</ele><time>2026-03-29T07:58:08.458Z</time></trkpt><trkpt lat="45.4439917" lon="10.44518"><ele>120.0</ele><time>2026-03-29T07:58:09.458Z</time></trkpt><trkpt lat="45.4438133" lon="10.4451733"><ele>120.0</ele><time>2026-03-29T07:58:10.459Z</time></trkpt><trkpt lat="45.4436283" lon="10.4451767"><ele>120.0</ele><time>2026-03-29T07:58:11.458Z</time></trkpt><trkpt lat="45.443445" lon="10.44517"><ele>120.33333333333334</ele><time>2026-03-29T07:58:12.459Z</time></trkpt><trkpt lat="45.443265" lon="10.445165"><ele>120.66666666666667</ele><time>2026-03-29T07:58:13.459Z</time></trkpt><trkpt lat="45.443075" lon="10.4451667"><ele>121.0</ele><time>2026-03-29T07:58:14.459Z</time></trkpt><trkpt lat="45.4428883" lon="10.4451633"><ele>121.33333333333334</ele><time>2026-03-29T07:58:15.459Z</time></trkpt><trkpt lat="45.4427167" lon="10.4451617"><ele>121.66666666666666</ele><time>2026-03-29T07:58:16.458Z</time></trkpt><trkpt lat="45.4425517" lon="10.4451717"><ele>122.0</ele><time>2026-03-29T07:58:17.459Z</time></trkpt><trkpt lat="45.442395" lon="10.4451717"><ele>122.0</ele><time>2026-03-29T07:58:18.459Z</time></trkpt><trkpt lat="45.4422367" lon="10.44518"><ele>122.0</ele><time>2026-03-29T07:58:19.459Z</time></trkpt><trkpt lat="45.44208" lon="10.445195"><ele>122.0</ele><time>2026-03-29T07:58:20.459Z</time></trkpt><trkpt lat="45.4419033" lon="10.4452"><ele>121.66666666666666</ele><time>2026-03-29T07:58:21.459Z</time></trkpt><trkpt lat="45.4417183" lon="10.4452083"><ele>121.33333333333334</ele><time>2026-03-29T07:58:22.459Z</time></trkpt><trkpt lat="45.4415433" lon="10.4451983"><ele>121.0</ele><time>2026-03-29T07:58:23.459Z</time></trkpt><trkpt lat="45.4413767" lon="10.445195"><ele>120.75</ele><time>2026-03-29T07:58:24.459Z</time></trkpt><trkpt lat="45.4412233" lon="10.4451983"><ele>120.5</ele><time>2026-03-29T07:58:25.459Z</time></trkpt><trkpt lat="45.44108" lon="10.4451967"><ele>120.25</ele><time>2026-03-29T07:58:26.459Z</time></trkpt><trkpt lat="45.4409317" lon="10.4451883"><ele>120.0</ele><time>2026-03-29T07:58:27.459Z</time></trkpt><trkpt lat="45.4407817" lon="10.445185"><ele>120.0</ele><time>2026-03-29T07:58:28.459Z</time></trkpt><trkpt lat="45.440635" lon="10.4451867"><ele>120.0</ele><time>2026-03-29T07:58:29.459Z</time></trkpt><trkpt lat="45.4404917" lon="10.445175"><ele>120.0</ele><time>2026-03-29T07:58:30.459Z</time></trkpt><trkpt lat="45.44034" lon="10.445175"><ele>120.0</ele><time>2026-03-29T07:58:31.459Z</time></trkpt><trkpt lat="45.440195" lon="10.44518"><ele>120.0</ele><time>2026-03-29T07:58:32.459Z</time></trkpt><trkpt lat="45.4400583" lon="10.4451817"><ele>120.0</ele><time>2026-03-29T07:58:33.459Z</time></trkpt><trkpt lat="45.4399517" lon="10.4451817"><ele>120.0</ele><time>2026-03-29T07:58:34.459Z</time></trkpt><trkpt lat="45.4398517" lon="10.4451933"><ele>120.0</ele><time>2026-03-29T07:58:35.459Z</time></trkpt><trkpt lat="45.4397617" lon="10.445175"><ele>120.0</ele><time>2026-03-29T07:58:36.459Z</time></trkpt><trkpt lat="45.4396833" lon="10.445145"><ele>120.25</ele><time>2026-03-29T07:58:37.459Z</time></trkpt><trkpt lat="45.439595" lon="10.4451367"><ele>120.5</ele><time>2026-03-29T07:58:38.459Z</time></trkpt><trkpt lat="45.4394833" lon="10.4451567"><ele>120.75</ele><time>2026-03-29T07:58:39.459Z</time></trkpt><trkpt lat="45.4393317" lon="10.4452117"><ele>121.0</ele><time>2026-03-29T07:58:40.459Z</time></trkpt><trkpt lat="45.439155" lon="10.4452733"><ele>121.0</ele><time>2026-03-29T07:58:41.459Z</time></trkpt><trkpt lat="45.4389767" lon="10.4453333"><ele>121.0</ele><time>2026-03-29T07:58:42.459Z</time></trkpt><trkpt lat="45.43882" lon="10.4453817"><ele>121.0</ele><time>2026-03-29T07:58:43.458Z</time></trkpt><trkpt lat="45.4386817" lon="10.4454217"><ele>120.8</ele><time>2026-03-29T07:58:44.459Z</time></trkpt><trkpt lat="45.438565" lon="10.4454533"><ele>120.6</ele><time>2026-03-29T07:58:45.459Z</time></trkpt><trkpt lat="45.43845" lon="10.4454917"><ele>120.4</ele><time>2026-03-29T07:58:46.459Z</time></trkpt><trkpt lat="45.4383517" lon="10.4455267"><ele>120.2</ele><time>2026-03-29T07:58:47.459Z</time></trkpt><trkpt lat="45.4382517" lon="10.4455667"><ele>120.0</ele><time>2026-03-29T07:58:48.459Z</time></trkpt><trkpt lat="45.4381583" lon="10.4455967"><ele>120.0</ele><time>2026-03-29T07:58:49.459Z</time></trkpt><trkpt lat="45.438065" lon="10.4456217"><ele>120.0</ele><time>2026-03-29T07:58:50.458Z</time></trkpt><trkpt lat="45.43797" lon="10.4456483"><ele>120.0</ele><time>2026-03-29T07:58:51.459Z</time></trkpt><trkpt lat="45.4378733" lon="10.44567"><ele>120.0</ele><time>2026-03-29T07:58:52.459Z</time></trkpt><trkpt lat="45.43778" lon="10.4457"><ele>120.0</ele><time>2026-03-29T07:58:53.459Z</time></trkpt><trkpt lat="45.4376917" lon="10.4457333"><ele>120.0</ele><time>2026-03-29T07:58:54.459Z</time></trkpt><trkpt lat="45.437605" lon="10.4457733"><ele>120.0</ele><time>2026-03-29T07:58:55.459Z</time></trkpt><trkpt lat="45.4375183" lon="10.4458233"><ele>120.0</ele><time>2026-03-29T07:58:56.459Z</time></trkpt><trkpt lat="45.437425" lon="10.44587"><ele>120.0</ele><time>2026-03-29T07:58:57.459Z</time></trkpt><trkpt lat="45.4373233" lon="10.4458983"><ele>120.0</ele><time>2026-03-29T07:58:58.459Z</time></trkpt><trkpt lat="45.437225" lon="10.44595"><ele>119.6</ele><time>2026-03-29T07:58:59.459Z</time></trkpt><trkpt lat="45.437135" lon="10.4460183"><ele>119.2</ele><time>2026-03-29T07:59:00.459Z</time></trkpt><trkpt lat="45.437045" lon="10.446115"><ele>118.80000000000001</ele><time>2026-03-29T07:59:01.459Z</time></trkpt><trkpt lat="45.4369583" lon="10.4462267"><ele>118.4</ele><time>2026-03-29T07:59:02.459Z</time></trkpt><trkpt lat="45.43687" lon="10.4463317"><ele>118.0</ele><time>2026-03-29T07:59:03.459Z</time></trkpt><trkpt lat="45.4367817" lon="10.44645"><ele>118.0</ele><time>2026-03-29T07:59:04.459Z</time></trkpt><trkpt lat="45.43669" lon="10.4465733"><ele>118.0</ele><time>2026-03-29T07:59:05.459Z</time></trkpt><trkpt lat="45.4365867" lon="10.4467067"><ele>118.0</ele><time>2026-03-29T07:59:06.459Z</time></trkpt><trkpt lat="45.436485" lon="10.446845"><ele>118.0</ele><time>2026-03-29T07:59:07.459Z</time></trkpt><trkpt lat="45.43638" lon="10.4469883"><ele>117.75</ele><time>2026-03-29T07:59:08.459Z</time></trkpt><trkpt lat="45.436285" lon="10.4471133"><ele>117.5</ele><time>2026-03-29T07:59:09.459Z</time></trkpt><trkpt lat="45.4362017" lon="10.4472333"><ele>117.25</ele><time>2026-03-29T07:59:10.459Z</time></trkpt><trkpt lat="45.436105" lon="10.4473517"><ele>117.0</ele><time>2026-03-29T07:59:11.459Z</time></trkpt><trkpt lat="45.4359983" lon="10.4474883"><ele>117.0</ele><time>2026-03-29T07:59:12.459Z</time></trkpt><trkpt lat="45.4358883" lon="10.44763"><ele>117.0</ele><time>2026-03-29T07:59:13.459Z</time></trkpt><trkpt lat="45.4357867" lon="10.4477617"><ele>117.0</ele><time>2026-03-29T07:59:14.458Z</time></trkpt><trkpt lat="45.435685" lon="10.44789"><ele>117.0</ele><time>2026-03-29T07:59:15.458Z</time></trkpt><trkpt lat="45.4355867" lon="10.4480083"><ele>117.0</ele><time>2026-03-29T07:59:16.459Z</time></trkpt><trkpt lat="45.4354833" lon="10.4481233"><ele>117.0</ele><time>2026-03-29T07:59:17.459Z</time></trkpt><trkpt lat="45.4353633" lon="10.4482533"><ele>117.0</ele><time>2026-03-29T07:59:18.459Z</time></trkpt><trkpt lat="45.4352483" lon="10.4484017"><ele>117.0</ele><time>2026-03-29T07:59:19.459Z</time></trkpt><trkpt lat="45.4351267" lon="10.4485517"><ele>117.0</ele><time>2026-03-29T07:59:20.459Z</time></trkpt><trkpt lat="45.4350083" lon="10.4487"><ele>117.0</ele><time>2026-03-29T07:59:21.459Z</time></trkpt><trkpt lat="45.4348967" lon="10.4488467"><ele>117.0</ele><time>2026-03-29T07:59:22.459Z</time></trkpt><trkpt lat="45.4347967" lon="10.4489933"><ele>117.0</ele><time>2026-03-29T07:59:23.459Z</time></trkpt><trkpt lat="45.4346967" lon="10.4491383"><ele>117.0</ele><time>2026-03-29T07:59:24.459Z</time></trkpt><trkpt lat="45.4345967" lon="10.449285"><ele>117.0</ele><time>2026-03-29T07:59:25.459Z</time></trkpt><trkpt lat="45.4344967" lon="10.44943"><ele>117.0</ele><time>2026-03-29T07:59:26.459Z</time></trkpt><trkpt lat="45.4343983" lon="10.4495567"><ele>117.0</ele><time>2026-03-29T07:59:27.459Z</time></trkpt><trkpt lat="45.4343033" lon="10.4496733"><ele>117.0</ele><time>2026-03-29T07:59:28.459Z</time></trkpt><trkpt lat="45.43421" lon="10.4497967"><ele>117.0</ele><time>2026-03-29T07:59:29.459Z</time></trkpt><trkpt lat="45.4341267" lon="10.449915"><ele>117.0</ele><time>2026-03-29T07:59:30.459Z</time></trkpt><trkpt lat="45.43404" lon="10.450035"><ele>117.0</ele><time>2026-03-29T07:59:31.459Z</time></trkpt><trkpt lat="45.433945" lon="10.4501617"><ele>117.0</ele><time>2026-03-29T07:59:32.458Z</time></trkpt><trkpt lat="45.433845" lon="10.4502967"><ele>117.0</ele><time>2026-03-29T07:59:33.459Z</time></trkpt><trkpt lat="45.4337367" lon="10.450435"><ele>117.0</ele><time>2026-03-29T07:59:34.459Z</time></trkpt><trkpt lat="45.4336233" lon="10.4505767"><ele>117.0</ele><time>2026-03-29T07:59:35.459Z</time></trkpt><trkpt lat="45.4335067" lon="10.4507333"><ele>117.0</ele><time>2026-03-29T07:59:36.459Z</time></trkpt><trkpt lat="45.4333967" lon="10.4508867"><ele>117.0</ele><time>2026-03-29T07:59:37.459Z</time></trkpt><trkpt lat="45.4332817" lon="10.45104"><ele>117.0</ele><time>2026-03-29T07:59:38.459Z</time></trkpt><trkpt lat="45.433175" lon="10.45119"><ele>117.0</ele><time>2026-03-29T07:59:39.459Z</time></trkpt><trkpt lat="45.4330667" lon="10.4513367"><ele>117.0</ele><time>2026-03-29T07:59:40.459Z</time></trkpt><trkpt lat="45.43296" lon="10.4514817"><ele>117.0</ele><time>2026-03-29T07:59:41.459Z</time></trkpt><trkpt lat="45.4328517" lon="10.4516217"><ele>116.75</ele><time>2026-03-29T07:59:42.459Z</time></trkpt><trkpt lat="45.4327417" lon="10.4517533"><ele>116.5</ele><time>2026-03-29T07:59:43.458Z</time></trkpt><trkpt lat="45.4326367" lon="10.4519"><ele>116.25</ele><time>2026-03-29T07:59:44.458Z</time></trkpt><trkpt lat="45.4325367" lon="10.4520367"><ele>116.0</ele><time>2026-03-29T07:59:45.459Z</time></trkpt><trkpt lat="45.4324283" lon="10.452185"><ele>116.0</ele><time>2026-03-29T07:59:46.458Z</time></trkpt><trkpt lat="45.4323233" lon="10.452335"><ele>116.0</ele><time>2026-03-29T07:59:47.459Z</time></trkpt><trkpt lat="45.4322283" lon="10.452485"><ele>116.0</ele><time>2026-03-29T07:59:48.459Z</time></trkpt><trkpt lat="45.4321367" lon="10.452635"><ele>116.0</ele><time>2026-03-29T07:59:49.459Z</time></trkpt><trkpt lat="45.4320367" lon="10.452785"><ele>116.0</ele><time>2026-03-29T07:59:50.459Z</time></trkpt><trkpt lat="45.4319383" lon="10.452935"><ele>116.0</ele><time>2026-03-29T07:59:51.459Z</time></trkpt><trkpt lat="45.4318367" lon="10.4530933"><ele>116.0</ele><time>2026-03-29T07:59:52.459Z</time></trkpt><trkpt lat="45.4317367" lon="10.4532433"><ele>116.0</ele><time>2026-03-29T07:59:53.459Z</time></trkpt><trkpt lat="45.4316483" lon="10.4534"><ele>116.0</ele><time>2026-03-29T07:59:54.459Z</time></trkpt><trkpt lat="45.4315533" lon="10.4535233"><ele>116.0</ele><time>2026-03-29T07:59:55.459Z</time></trkpt><trkpt lat="45.431465" lon="10.4536517"><ele>116.0</ele><time>2026-03-29T07:59:56.459Z</time></trkpt><trkpt lat="45.4313733" lon="10.4537967"><ele>116.0</ele><time>2026-03-29T07:59:57.459Z</time></trkpt><trkpt lat="45.4312867" lon="10.4539317"><ele>115.75</ele><time>2026-03-29T07:59:58.459Z</time></trkpt><trkpt lat="45.4312" lon="10.4540717"><ele>115.5</ele><time>2026-03-29T07:59:59.459Z</time></trkpt><trkpt lat="45.4311067" lon="10.45421"><ele>115.25</ele><time>2026-03-29T08:00:00.459Z</time></trkpt><trkpt lat="45.431015" lon="10.4543483"><ele>115.0</ele><time>2026-03-29T08:00:01.459Z</time></trkpt><trkpt lat="45.4309333" lon="10.45446"><ele>115.0</ele><time>2026-03-29T08:00:02.459Z</time></trkpt><trkpt lat="45.43086" lon="10.4545367"><ele>115.0</ele><time>2026-03-29T08:00:03.459Z</time></trkpt><trkpt lat="45.4307917" lon="10.4545767"><ele>115.0</ele><time>2026-03-29T08:00:04.458Z</time></trkpt><trkpt lat="45.4307067" lon="10.4546017"><ele>115.0</ele><time>2026-03-29T08:00:05.459Z</time></trkpt><trkpt lat="45.4306133" lon="10.45466"><ele>115.0</ele><time>2026-03-29T08:00:06.458Z</time></trkpt><trkpt lat="45.4305083" lon="10.4547633"><ele>115.0</ele><time>2026-03-29T08:00:07.459Z</time></trkpt><trkpt lat="45.4303933" lon="10.45488"><ele>115.0</ele><time>2026-03-29T08:00:08.459Z</time></trkpt><trkpt lat="45.4302767" lon="10.4549983"><ele>115.0</ele><time>2026-03-29T08:00:09.458Z</time></trkpt><trkpt lat="45.4301517" lon="10.4551167"><ele>115.0</ele><time>2026-03-29T08:00:10.459Z</time></trkpt><trkpt lat="45.4300233" lon="10.4552383"><ele>115.0</ele><time>2026-03-29T08:00:11.459Z</time></trkpt><trkpt lat="45.429895" lon="10.4553617"><ele>115.0</ele><time>2026-03-29T08:00:12.458Z</time></trkpt><trkpt lat="45.4297717" lon="10.4554783"><ele>115.0</ele><time>2026-03-29T08:00:13.459Z</time></trkpt><trkpt lat="45.4296517" lon="10.455605"><ele>115.0</ele><time>2026-03-29T08:00:14.459Z</time></trkpt><trkpt lat="45.429535" lon="10.4557183"><ele>115.0</ele><time>2026-03-29T08:00:15.459Z</time></trkpt><trkpt lat="45.4294333" lon="10.4558267"><ele>115.0</ele><time>2026-03-29T08:00:16.459Z</time></trkpt><trkpt lat="45.42933" lon="10.45593"><ele>115.0</ele><time>2026-03-29T08:00:17.459Z</time></trkpt><trkpt lat="45.4292267" lon="10.456035"><ele>115.0</ele><time>2026-03-29T08:00:18.459Z</time></trkpt><trkpt lat="45.4291183" lon="10.4561383"><ele>115.0</ele><time>2026-03-29T08:00:19.459Z</time></trkpt><trkpt lat="45.429005" lon="10.4562517"><ele>115.0</ele><time>2026-03-29T08:00:20.459Z</time></trkpt><trkpt lat="45.4289" lon="10.4563517"><ele>115.0</ele><time>2026-03-29T08:00:21.459Z</time></trkpt><trkpt lat="45.42879" lon="10.456455"><ele>115.0</ele><time>2026-03-29T08:00:22.458Z</time></trkpt><trkpt lat="45.4286767" lon="10.4565567"><ele>115.0</ele><time>2026-03-29T08:00:23.459Z</time></trkpt><trkpt lat="45.4285717" lon="10.45665"><ele>115.0</ele><time>2026-03-29T08:00:24.459Z</time></trkpt><trkpt lat="45.42848" lon="10.45674"><ele>115.0</ele><time>2026-03-29T08:00:25.459Z</time></trkpt><trkpt lat="45.4283983" lon="10.456815"><ele>115.0</ele><time>2026-03-29T08:00:26.459Z</time></trkpt><trkpt lat="45.42833" lon="10.4568733"><ele>115.0</ele><time>2026-03-29T08:00:27.459Z</time></trkpt><trkpt lat="45.4282533" lon="10.4568967"><ele>115.0</ele><time>2026-03-29T08:00:28.459Z</time></trkpt><trkpt lat="45.4281767" lon="10.4568717"><ele>115.0</ele><time>2026-03-29T08:00:29.459Z</time></trkpt><trkpt lat="45.428085" lon="10.4568233"><ele>115.0</ele><time>2026-03-29T08:00:30.459Z</time></trkpt><trkpt lat="45.4279683" lon="10.4567317"><ele>115.0</ele><time>2026-03-29T08:00:31.459Z</time></trkpt><trkpt lat="45.42783" lon="10.4566367"><ele>115.0</ele><time>2026-03-29T08:00:32.459Z</time></trkpt><trkpt lat="45.4276867" lon="10.45654"><ele>115.0</ele><time>2026-03-29T08:00:33.459Z</time></trkpt><trkpt lat="45.42754" lon="10.4564383"><ele>115.0</ele><time>2026-03-29T08:00:34.459Z</time></trkpt><trkpt lat="45.4273983" lon="10.4563433"><ele>115.0</ele><time>2026-03-29T08:00:35.459Z</time></trkpt><trkpt lat="45.4272633" lon="10.4562567"><ele>115.0</ele><time>2026-03-29T08:00:36.459Z</time></trkpt><trkpt lat="45.427135" lon="10.4561767"><ele>115.0</ele><time>2026-03-29T08:00:37.459Z</time></trkpt><trkpt lat="45.427" lon="10.456095"><ele>114.0</ele><time>2026-03-29T08:00:38.459Z</time></trkpt><trkpt lat="45.4268667" lon="10.4560167"><ele>113.0</ele><time>2026-03-29T08:00:39.459Z</time></trkpt><trkpt lat="45.4267217" lon="10.455925"><ele>112.0</ele><time>2026-03-29T08:00:40.459Z</time></trkpt><trkpt lat="45.4265767" lon="10.4558333"><ele>112.0</ele><time>2026-03-29T08:00:41.459Z</time></trkpt><trkpt lat="45.42644" lon="10.45575"><ele>112.0</ele><time>2026-03-29T08:00:42.459Z</time></trkpt><trkpt lat="45.4263017" lon="10.45566"><ele>112.0</ele><time>2026-03-29T08:00:43.459Z</time></trkpt><trkpt lat="45.4261633" lon="10.45557"><ele>112.0</ele><time>2026-03-29T08:00:44.459Z</time></trkpt><trkpt lat="45.4260167" lon="10.4554783"><ele>112.0</ele><time>2026-03-29T08:00:45.458Z</time></trkpt><trkpt lat="45.4258633" lon="10.4553817"><ele>112.0</ele><time>2026-03-29T08:00:46.459Z</time></trkpt><trkpt lat="45.4257033" lon="10.4552683"><ele>112.0</ele><time>2026-03-29T08:00:47.459Z</time></trkpt><trkpt lat="45.4255367" lon="10.4551567"><ele>112.0</ele><time>2026-03-29T08:00:48.458Z</time></trkpt><trkpt lat="45.4253533" lon="10.4550467"><ele>112.0</ele><time>2026-03-29T08:00:49.459Z</time></trkpt><trkpt lat="45.425165" lon="10.454935"><ele>112.0</ele><time>2026-03-29T08:00:50.459Z</time></trkpt><trkpt lat="45.42499" lon="10.4548267"><ele>112.0</ele><time>2026-03-29T08:00:51.459Z</time></trkpt><trkpt lat="45.4248183" lon="10.45471"><ele>112.0</ele><time>2026-03-29T08:00:52.459Z</time></trkpt><trkpt lat="45.4246233" lon="10.4545883"><ele>112.0</ele><time>2026-03-29T08:00:53.459Z</time></trkpt><trkpt lat="45.4244283" lon="10.4544567"><ele>112.0</ele><time>2026-03-29T08:00:54.459Z</time></trkpt><trkpt lat="45.4242467" lon="10.4543483"><ele>112.0</ele><time>2026-03-29T08:00:55.458Z</time></trkpt><trkpt lat="45.4240767" lon="10.454265"><ele>112.0</ele><time>2026-03-29T08:00:56.459Z</time></trkpt><trkpt lat="45.4238983" lon="10.4541717"><ele>112.0</ele><time>2026-03-29T08:00:57.459Z</time></trkpt><trkpt lat="45.4237317" lon="10.45408"><ele>112.0</ele><time>2026-03-29T08:00:58.459Z</time></trkpt><trkpt lat="45.4235733" lon="10.4539717"><ele>111.66666666666667</ele><time>2026-03-29T08:00:59.459Z</time></trkpt><trkpt lat="45.4234217" lon="10.4538767"><ele>111.33333333333334</ele><time>2026-03-29T08:01:00.458Z</time></trkpt><trkpt lat="45.4232717" lon="10.4537817"><ele>111.0</ele><time>2026-03-29T08:01:01.458Z</time></trkpt><trkpt lat="45.4231217" lon="10.4536817"><ele>110.66666666666666</ele><time>2026-03-29T08:01:02.459Z</time></trkpt><trkpt lat="45.4229733" lon="10.453585"><ele>110.33333333333333</ele><time>2026-03-29T08:01:03.459Z</time></trkpt><trkpt lat="45.4228283" lon="10.4534983"><ele>110.0</ele><time>2026-03-29T08:01:04.459Z</time></trkpt><trkpt lat="45.4226867" lon="10.4534167"><ele>110.0</ele><time>2026-03-29T08:01:05.459Z</time></trkpt><trkpt lat="45.4225617" lon="10.4533317"><ele>110.0</ele><time>2026-03-29T08:01:06.459Z</time></trkpt><trkpt lat="45.4224383" lon="10.4532533"><ele>110.0</ele><time>2026-03-29T08:01:07.459Z</time></trkpt><trkpt lat="45.42231" lon="10.4531833"><ele>110.0</ele><time>2026-03-29T08:01:08.459Z</time></trkpt><trkpt lat="45.42218" lon="10.4531083"><ele>110.0</ele><time>2026-03-29T08:01:09.459Z</time></trkpt><trkpt lat="45.422055" lon="10.45303"><ele>110.0</ele><time>2026-03-29T08:01:10.459Z</time></trkpt><trkpt lat="45.421945" lon="10.452955"><ele>110.0</ele><time>2026-03-29T08:01:11.459Z</time></trkpt><trkpt lat="45.4218183" lon="10.4528817"><ele>110.0</ele><time>2026-03-29T08:01:12.459Z</time></trkpt><trkpt lat="45.421685" lon="10.4528083"><ele>110.0</ele><time>2026-03-29T08:01:13.459Z</time></trkpt><trkpt lat="45.42156" lon="10.452735"><ele>110.0</ele><time>2026-03-29T08:01:14.459Z</time></trkpt><trkpt lat="45.4214433" lon="10.452665"><ele>110.0</ele><time>2026-03-29T08:01:15.459Z</time></trkpt><trkpt lat="45.4213233" lon="10.452595"><ele>110.0</ele><time>2026-03-29T08:01:16.459Z</time></trkpt><trkpt lat="45.4212033" lon="10.45251"><ele>109.5</ele><time>2026-03-29T08:01:17.459Z</time></trkpt><trkpt lat="45.42108" lon="10.45242"><ele>109.0</ele><time>2026-03-29T08:01:18.459Z</time></trkpt><trkpt lat="45.420955" lon="10.4523383"><ele>108.5</ele><time>2026-03-29T08:01:19.459Z</time></trkpt><trkpt lat="45.42082" lon="10.4522583"><ele>108.0</ele><time>2026-03-29T08:01:20.459Z</time></trkpt><trkpt lat="45.42068" lon="10.4521717"><ele>108.33333333333334</ele><time>2026-03-29T08:01:21.459Z</time></trkpt><trkpt lat="45.4205317" lon="10.4520867"><ele>108.66666666666667</ele><time>2026-03-29T08:01:22.459Z</time></trkpt><trkpt lat="45.4203917" lon="10.4519967"><ele>109.0</ele><time>2026-03-29T08:01:23.459Z</time></trkpt><trkpt lat="45.42025" lon="10.451905"><ele>109.0</ele><time>2026-03-29T08:01:24.459Z</time></trkpt><trkpt lat="45.420115" lon="10.451815"><ele>109.0</ele><time>2026-03-29T08:01:25.459Z</time></trkpt><trkpt lat="45.4199833" lon="10.4517183"><ele>109.0</ele><time>2026-03-29T08:01:26.459Z</time></trkpt><trkpt lat="45.4198433" lon="10.4516283"><ele>109.0</ele><time>2026-03-29T08:01:27.459Z</time></trkpt><trkpt lat="45.4197" lon="10.45155"><ele>109.0</ele><time>2026-03-29T08:01:28.459Z</time></trkpt><trkpt lat="45.419555" lon="10.45146"><ele>109.0</ele><time>2026-03-29T08:01:29.458Z</time></trkpt><trkpt lat="45.4194033" lon="10.4513667"><ele>108.25</ele><time>2026-03-29T08:01:30.459Z</time></trkpt><trkpt lat="45.4192683" lon="10.4512733"><ele>107.5</ele><time>2026-03-29T08:01:31.459Z</time></trkpt><trkpt lat="45.41914" lon="10.451185"><ele>106.75</ele><time>2026-03-29T08:01:32.459Z</time></trkpt><trkpt lat="45.419" lon="10.451095"><ele>106.0</ele><time>2026-03-29T08:01:33.459Z</time></trkpt><trkpt lat="45.41886" lon="10.4510083"><ele>105.66666666666667</ele><time>2026-03-29T08:01:34.459Z</time></trkpt><trkpt lat="45.4187133" lon="10.4509133"><ele>105.33333333333334</ele><time>2026-03-29T08:01:35.458Z</time></trkpt><trkpt lat="45.41856" lon="10.4508217"><ele>105.0</ele><time>2026-03-29T08:01:36.459Z</time></trkpt><trkpt lat="45.4184167" lon="10.450725"><ele>105.0</ele><time>2026-03-29T08:01:37.459Z</time></trkpt><trkpt lat="45.4182667" lon="10.45063"><ele>105.0</ele><time>2026-03-29T08:01:38.459Z</time></trkpt><trkpt lat="45.41812" lon="10.45054"><ele>105.0</ele><time>2026-03-29T08:01:39.458Z</time></trkpt><trkpt lat="45.417975" lon="10.450455"><ele>104.33333333333334</ele><time>2026-03-29T08:01:40.459Z</time></trkpt><trkpt lat="45.4178333" lon="10.4503633"><ele>103.66666666666667</ele><time>2026-03-29T08:01:41.459Z</time></trkpt><trkpt lat="45.4176933" lon="10.4502783"><ele>103.0</ele><time>2026-03-29T08:01:42.459Z</time></trkpt><trkpt lat="45.41756" lon="10.4501833"><ele>103.0</ele><time>2026-03-29T08:01:43.459Z</time></trkpt><trkpt lat="45.417425" lon="10.4500983"><ele>103.0</ele><time>2026-03-29T08:01:44.458Z</time></trkpt><trkpt lat="45.417305" lon="10.4500083"><ele>103.0</ele><time>2026-03-29T08:01:45.459Z</time></trkpt><trkpt lat="45.4171917" lon="10.4499433"><ele>103.0</ele><time>2026-03-29T08:01:46.459Z</time></trkpt><trkpt lat="45.4171067" lon="10.449895"><ele>103.4</ele><time>2026-03-29T08:01:47.459Z</time></trkpt><trkpt lat="45.4170433" lon="10.4498533"><ele>103.80000000000001</ele><time>2026-03-29T08:01:48.459Z</time></trkpt><trkpt lat="45.4169483" lon="10.449855"><ele>104.2</ele><time>2026-03-29T08:01:50.459Z</time></trkpt><trkpt lat="45.41686" lon="10.45001"><ele>104.6</ele><time>2026-03-29T08:01:52.459Z</time></trkpt><trkpt lat="45.416795" lon="10.45014"><ele>105.0</ele><time>2026-03-29T08:01:53.459Z</time></trkpt><trkpt lat="45.4167117" lon="10.4502983"><ele>105.0</ele><time>2026-03-29T08:01:54.459Z</time></trkpt><trkpt lat="45.4166017" lon="10.45048"><ele>105.0</ele><time>2026-03-29T08:01:55.459Z</time></trkpt><trkpt lat="45.416485" lon="10.450665"><ele>105.0</ele><time>2026-03-29T08:01:56.459Z</time></trkpt><trkpt lat="45.4163667" lon="10.450865"><ele>105.33333333333334</ele><time>2026-03-29T08:01:57.459Z</time></trkpt><trkpt lat="45.4162433" lon="10.4510633"><ele>105.66666666666667</ele><time>2026-03-29T08:01:58.459Z</time></trkpt><trkpt lat="45.41613" lon="10.4512467"><ele>106.0</ele><time>2026-03-29T08:01:59.459Z</time></trkpt><trkpt lat="45.4160167" lon="10.4514233"><ele>105.33333333333334</ele><time>2026-03-29T08:02:00.459Z</time></trkpt><trkpt lat="45.415915" lon="10.4515883"><ele>104.66666666666666</ele><time>2026-03-29T08:02:01.459Z</time></trkpt><trkpt lat="45.4158017" lon="10.4517783"><ele>104.0</ele><time>2026-03-29T08:02:02.459Z</time></trkpt><trkpt lat="45.4156817" lon="10.4519817"><ele>103.66666666666666</ele><time>2026-03-29T08:02:03.459Z</time></trkpt><trkpt lat="45.4155467" lon="10.4521983"><ele>103.33333333333334</ele><time>2026-03-29T08:02:04.459Z</time></trkpt><trkpt lat="45.41539" lon="10.4524317"><ele>103.0</ele><time>2026-03-29T08:02:05.458Z</time></trkpt><trkpt lat="45.4152517" lon="10.4526533"><ele>103.0</ele><time>2026-03-29T08:02:06.459Z</time></trkpt><trkpt lat="45.4151383" lon="10.4528367"><ele>103.0</ele><time>2026-03-29T08:02:07.458Z</time></trkpt><trkpt lat="45.4150467" lon="10.452995"><ele>103.0</ele><time>2026-03-29T08:02:08.459Z</time></trkpt><trkpt lat="45.4149717" lon="10.4531233"><ele>103.0</ele><time>2026-03-29T08:02:09.459Z</time></trkpt><trkpt lat="45.4149083" lon="10.453225"><ele>103.60000000000001</ele><time>2026-03-29T08:02:10.459Z</time></trkpt><trkpt lat="45.4148783" lon="10.4533083"><ele>104.2</ele><time>2026-03-29T08:02:11.458Z</time></trkpt><trkpt lat="45.4149117" lon="10.4534317"><ele>104.8</ele><time>2026-03-29T08:02:13.459Z</time></trkpt><trkpt lat="45.4150433" lon="10.4535583"><ele>105.4</ele><time>2026-03-29T08:02:15.459Z</time></trkpt><trkpt lat="45.41515" lon="10.4536617"><ele>106.0</ele><time>2026-03-29T08:02:16.459Z</time></trkpt><trkpt lat="45.4152783" lon="10.4537883"><ele>106.0</ele><time>2026-03-29T08:02:17.459Z</time></trkpt><trkpt lat="45.4154033" lon="10.453905"><ele>106.0</ele><time>2026-03-29T08:02:18.459Z</time></trkpt><trkpt lat="45.415515" lon="10.4540133"><ele>106.0</ele><time>2026-03-29T08:02:19.459Z</time></trkpt><trkpt lat="45.4156317" lon="10.454115"><ele>106.0</ele><time>2026-03-29T08:02:20.459Z</time></trkpt><trkpt lat="45.4157383" lon="10.4542083"><ele>106.00000000000001</ele><time>2026-03-29T08:02:21.459Z</time></trkpt><trkpt lat="45.4158317" lon="10.4542783"><ele>106.0</ele><time>2026-03-29T08:02:22.459Z</time></trkpt><trkpt lat="45.4159067" lon="10.454355"><ele>106.0</ele><time>2026-03-29T08:02:23.459Z</time></trkpt><trkpt lat="45.41596" lon="10.4544317"><ele>106.0</ele><time>2026-03-29T08:02:24.459Z</time></trkpt><trkpt lat="45.41599" lon="10.454515"><ele>106.00000000000001</ele><time>2026-03-29T08:02:25.459Z</time></trkpt><trkpt lat="45.415995" lon="10.4546267"><ele>106.0</ele><time>2026-03-29T08:02:26.459Z</time></trkpt><trkpt lat="45.4159733" lon="10.4547767"><ele>106.0</ele><time>2026-03-29T08:02:27.459Z</time></trkpt><trkpt lat="45.415935" lon="10.454975"><ele>106.0</ele><time>2026-03-29T08:02:28.459Z</time></trkpt><trkpt lat="45.4159" lon="10.4551867"><ele>106.0</ele><time>2026-03-29T08:02:29.459Z</time></trkpt><trkpt lat="45.4158717" lon="10.4553767"><ele>106.0</ele><time>2026-03-29T08:02:30.459Z</time></trkpt><trkpt lat="45.4158433" lon="10.4555733"><ele>106.0</ele><time>2026-03-29T08:02:31.459Z</time></trkpt><trkpt lat="45.4158183" lon="10.4557717"><ele>106.0</ele><time>2026-03-29T08:02:32.459Z</time></trkpt><trkpt lat="45.4157967" lon="10.45597"><ele>106.0</ele><time>2026-03-29T08:02:33.459Z</time></trkpt><trkpt lat="45.4157733" lon="10.45617"><ele>106.0</ele><time>2026-03-29T08:02:34.459Z</time></trkpt><trkpt lat="45.415745" lon="10.4563633"><ele>106.0</ele><time>2026-03-29T08:02:35.459Z</time></trkpt><trkpt lat="45.4157233" lon="10.45657"><ele>106.0</ele><time>2026-03-29T08:02:36.459Z</time></trkpt><trkpt lat="45.415705" lon="10.4567783"><ele>106.0</ele><time>2026-03-29T08:02:37.459Z</time></trkpt><trkpt lat="45.4156783" lon="10.4569733"><ele>106.0</ele><time>2026-03-29T08:02:38.459Z</time></trkpt><trkpt lat="45.415655" lon="10.45716"><ele>105.75</ele><time>2026-03-29T08:02:39.459Z</time></trkpt><trkpt lat="45.4156317" lon="10.45735"><ele>105.5</ele><time>2026-03-29T08:02:40.459Z</time></trkpt><trkpt lat="45.4156117" lon="10.45753"><ele>105.25</ele><time>2026-03-29T08:02:41.459Z</time></trkpt><trkpt lat="45.415595" lon="10.4577033"><ele>105.0</ele><time>2026-03-29T08:02:42.459Z</time></trkpt><trkpt lat="45.41558" lon="10.4578817"><ele>104.6</ele><time>2026-03-29T08:02:43.458Z</time></trkpt><trkpt lat="45.4155633" lon="10.4580533"><ele>104.2</ele><time>2026-03-29T08:02:44.459Z</time></trkpt><trkpt lat="45.41555" lon="10.4582133"><ele>103.80000000000001</ele><time>2026-03-29T08:02:45.459Z</time></trkpt><trkpt lat="45.4155417" lon="10.45834"><ele>103.4</ele><time>2026-03-29T08:02:46.459Z</time></trkpt><trkpt lat="45.415535" lon="10.458465"><ele>103.0</ele><time>2026-03-29T08:02:47.459Z</time></trkpt><trkpt lat="45.41553" lon="10.4585883"><ele>103.0</ele><time>2026-03-29T08:02:48.459Z</time></trkpt><trkpt lat="45.41552" lon="10.458735"><ele>103.0</ele><time>2026-03-29T08:02:49.459Z</time></trkpt><trkpt lat="45.4155167" lon="10.4588917"><ele>103.0</ele><time>2026-03-29T08:02:50.459Z</time></trkpt><trkpt lat="45.415515" lon="10.4590733"><ele>103.0</ele><time>2026-03-29T08:02:51.459Z</time></trkpt><trkpt lat="45.415505" lon="10.4592717"><ele>103.25</ele><time>2026-03-29T08:02:52.459Z</time></trkpt><trkpt lat="45.4154917" lon="10.459475"><ele>103.5</ele><time>2026-03-29T08:02:53.458Z</time></trkpt><trkpt lat="45.4154783" lon="10.45968"><ele>103.75</ele><time>2026-03-29T08:02:54.458Z</time></trkpt><trkpt lat="45.41547" lon="10.4598917"><ele>104.0</ele><time>2026-03-29T08:02:55.459Z</time></trkpt><trkpt lat="45.4154617" lon="10.4600967"><ele>104.0</ele><time>2026-03-29T08:02:56.459Z</time></trkpt><trkpt lat="45.4154517" lon="10.460305"><ele>104.0</ele><time>2026-03-29T08:02:57.459Z</time></trkpt><trkpt lat="45.415445" lon="10.46052"><ele>104.0</ele><time>2026-03-29T08:02:58.459Z</time></trkpt><trkpt lat="45.4154317" lon="10.4607233"><ele>104.0</ele><time>2026-03-29T08:02:59.459Z</time></trkpt><trkpt lat="45.41542" lon="10.4609167"><ele>104.0</ele><time>2026-03-29T08:03:00.458Z</time></trkpt><trkpt lat="45.41541" lon="10.4611083"><ele>104.0</ele><time>2026-03-29T08:03:01.459Z</time></trkpt><trkpt lat="45.415405" lon="10.4613117"><ele>104.0</ele><time>2026-03-29T08:03:02.459Z</time></trkpt><trkpt lat="45.4153983" lon="10.4615233"><ele>104.0</ele><time>2026-03-29T08:03:03.459Z</time></trkpt><trkpt lat="45.4153917" lon="10.4617183"><ele>104.0</ele><time>2026-03-29T08:03:04.459Z</time></trkpt><trkpt lat="45.4153867" lon="10.4619"><ele>104.0</ele><time>2026-03-29T08:03:05.459Z</time></trkpt><trkpt lat="45.41538" lon="10.46209"><ele>104.0</ele><time>2026-03-29T08:03:06.459Z</time></trkpt><trkpt lat="45.4153717" lon="10.4622733"><ele>104.0</ele><time>2026-03-29T08:03:07.458Z</time></trkpt><trkpt lat="45.4153617" lon="10.46246"><ele>104.0</ele><time>2026-03-29T08:03:08.459Z</time></trkpt><trkpt lat="45.4153517" lon="10.4626383"><ele>104.0</ele><time>2026-03-29T08:03:09.459Z</time></trkpt><trkpt lat="45.4153467" lon="10.4628183"><ele>104.0</ele><time>2026-03-29T08:03:10.459Z</time></trkpt><trkpt lat="45.4153533" lon="10.4629933"><ele>104.0</ele><time>2026-03-29T08:03:11.459Z</time></trkpt><trkpt lat="45.4153583" lon="10.4631833"><ele>104.25</ele><time>2026-03-29T08:03:12.459Z</time></trkpt><trkpt lat="45.4153617" lon="10.4633867"><ele>104.5</ele><time>2026-03-29T08:03:13.459Z</time></trkpt><trkpt lat="45.41537" lon="10.4635867"><ele>104.75</ele><time>2026-03-29T08:03:14.459Z</time></trkpt><trkpt lat="45.415385" lon="10.4637967"><ele>105.0</ele><time>2026-03-29T08:03:15.459Z</time></trkpt><trkpt lat="45.4153983" lon="10.463995"><ele>105.75</ele><time>2026-03-29T08:03:16.459Z</time></trkpt><trkpt lat="45.4154033" lon="10.46421"><ele>106.5</ele><time>2026-03-29T08:03:17.459Z</time></trkpt><trkpt lat="45.4154217" lon="10.4644117"><ele>107.25</ele><time>2026-03-29T08:03:18.459Z</time></trkpt><trkpt lat="45.4154367" lon="10.4646017"><ele>108.0</ele><time>2026-03-29T08:03:19.458Z</time></trkpt><trkpt lat="45.4154617" lon="10.4647933"><ele>108.33333333333334</ele><time>2026-03-29T08:03:20.459Z</time></trkpt><trkpt lat="45.4154783" lon="10.465015"><ele>108.66666666666667</ele><time>2026-03-29T08:03:21.459Z</time></trkpt><trkpt lat="45.4155" lon="10.46526"><ele>109.0</ele><time>2026-03-29T08:03:22.459Z</time></trkpt><trkpt lat="45.4155117" lon="10.4655167"><ele>108.33333333333334</ele><time>2026-03-29T08:03:23.459Z</time></trkpt><trkpt lat="45.415525" lon="10.4657917"><ele>107.66666666666666</ele><time>2026-03-29T08:03:24.459Z</time></trkpt><trkpt lat="45.4155433" lon="10.466065"><ele>107.0</ele><time>2026-03-29T08:03:25.459Z</time></trkpt><trkpt lat="45.41556" lon="10.4663233"><ele>107.0</ele><time>2026-03-29T08:03:26.459Z</time></trkpt><trkpt lat="45.41557" lon="10.4665583"><ele>107.0</ele><time>2026-03-29T08:03:27.459Z</time></trkpt><trkpt lat="45.4155733" lon="10.466775"><ele>107.0</ele><time>2026-03-29T08:03:28.459Z</time></trkpt><trkpt lat="45.41557" lon="10.4669967"><ele>107.0</ele><time>2026-03-29T08:03:29.459Z</time></trkpt><trkpt lat="45.4155633" lon="10.46722"><ele>107.0</ele><time>2026-03-29T08:03:30.459Z</time></trkpt><trkpt lat="45.41555" lon="10.4674333"><ele>107.0</ele><time>2026-03-29T08:03:31.459Z</time></trkpt><trkpt lat="45.41553" lon="10.4676483"><ele>107.0</ele><time>2026-03-29T08:03:32.459Z</time></trkpt><trkpt lat="45.4155" lon="10.4678567"><ele>107.0</ele><time>2026-03-29T08:03:33.459Z</time></trkpt><trkpt lat="45.41548" lon="10.4680667"><ele>107.0</ele><time>2026-03-29T08:03:34.459Z</time></trkpt><trkpt lat="45.4154517" lon="10.468285"><ele>107.0</ele><time>2026-03-29T08:03:35.459Z</time></trkpt><trkpt lat="45.4154333" lon="10.46851"><ele>107.0</ele><time>2026-03-29T08:03:36.459Z</time></trkpt><trkpt lat="45.41541" lon="10.46873"><ele>107.0</ele><time>2026-03-29T08:03:37.459Z</time></trkpt><trkpt lat="45.415385" lon="10.468945"><ele>107.0</ele><time>2026-03-29T08:03:38.458Z</time></trkpt><trkpt lat="45.4153667" lon="10.4691517"><ele>107.0</ele><time>2026-03-29T08:03:39.459Z</time></trkpt><trkpt lat="45.4153517" lon="10.4693717"><ele>107.0</ele><time>2026-03-29T08:03:40.459Z</time></trkpt><trkpt lat="45.4153317" lon="10.469585"><ele>107.25</ele><time>2026-03-29T08:03:41.459Z</time></trkpt><trkpt lat="45.41531" lon="10.46979"><ele>107.5</ele><time>2026-03-29T08:03:42.459Z</time></trkpt><trkpt lat="45.4152917" lon="10.4699983"><ele>107.75</ele><time>2026-03-29T08:03:43.459Z</time></trkpt><trkpt lat="45.415275" lon="10.4702117"><ele>108.0</ele><time>2026-03-29T08:03:44.459Z</time></trkpt><trkpt lat="45.4152533" lon="10.47042"><ele>108.66666666666666</ele><time>2026-03-29T08:03:45.459Z</time></trkpt><trkpt lat="45.4152283" lon="10.4706283"><ele>109.33333333333333</ele><time>2026-03-29T08:03:46.459Z</time></trkpt><trkpt lat="45.415205" lon="10.470845"><ele>110.0</ele><time>2026-03-29T08:03:47.459Z</time></trkpt><trkpt lat="45.4151817" lon="10.4710617"><ele>110.0</ele><time>2026-03-29T08:03:48.459Z</time></trkpt><trkpt lat="45.4151633" lon="10.4712717"><ele>110.0</ele><time>2026-03-29T08:03:49.459Z</time></trkpt><trkpt lat="45.4151417" lon="10.4714917"><ele>110.0</ele><time>2026-03-29T08:03:50.458Z</time></trkpt><trkpt lat="45.4151233" lon="10.47172"><ele>110.2</ele><time>2026-03-29T08:03:51.458Z</time></trkpt><trkpt lat="45.4151033" lon="10.471895"><ele>110.4</ele><time>2026-03-29T08:03:52.459Z</time></trkpt><trkpt lat="45.41509" lon="10.4719933"><ele>110.6</ele><time>2026-03-29T08:03:53.459Z</time></trkpt><trkpt lat="45.41512" lon="10.472085"><ele>110.8</ele><time>2026-03-29T08:03:56.458Z</time></trkpt><trkpt lat="45.415185" lon="10.4720767"><ele>111.0</ele><time>2026-03-29T08:03:59.459Z</time></trkpt><trkpt lat="45.4153233" lon="10.4720767"><ele>111.0</ele><time>2026-03-29T08:04:01.459Z</time></trkpt><trkpt lat="45.41543" lon="10.47208"><ele>111.0</ele><time>2026-03-29T08:04:02.459Z</time></trkpt><trkpt lat="45.4155467" lon="10.4720933"><ele>111.0</ele><time>2026-03-29T08:04:03.459Z</time></trkpt><trkpt lat="45.4156717" lon="10.4720983"><ele>111.0</ele><time>2026-03-29T08:04:04.459Z</time></trkpt><trkpt lat="45.4158083" lon="10.4721017"><ele>111.0</ele><time>2026-03-29T08:04:05.459Z</time></trkpt><trkpt lat="45.41595" lon="10.4721183"><ele>111.0</ele><time>2026-03-29T08:04:06.459Z</time></trkpt><trkpt lat="45.4161017" lon="10.4721333"><ele>111.0</ele><time>2026-03-29T08:04:07.459Z</time></trkpt><trkpt lat="45.4162467" lon="10.4721567"><ele>111.0</ele><time>2026-03-29T08:04:08.459Z</time></trkpt><trkpt lat="45.41639" lon="10.47217"><ele>111.0</ele><time>2026-03-29T08:04:09.459Z</time></trkpt><trkpt lat="45.4165433" lon="10.47219"><ele>111.0</ele><time>2026-03-29T08:04:10.459Z</time></trkpt><trkpt lat="45.4166983" lon="10.4722133"><ele>111.0</ele><time>2026-03-29T08:04:11.459Z</time></trkpt><trkpt lat="45.4168567" lon="10.4722283"><ele>111.0</ele><time>2026-03-29T08:04:12.459Z</time></trkpt><trkpt lat="45.4170267" lon="10.472245"><ele>111.0</ele><time>2026-03-29T08:04:13.459Z</time></trkpt><trkpt lat="45.4172083" lon="10.4722683"><ele>111.0</ele><time>2026-03-29T08:04:14.459Z</time></trkpt><trkpt lat="45.4173983" lon="10.472295"><ele>111.33333333333334</ele><time>2026-03-29T08:04:15.459Z</time></trkpt><trkpt lat="45.4175917" lon="10.4723267"><ele>111.66666666666667</ele><time>2026-03-29T08:04:16.459Z</time></trkpt><trkpt lat="45.4177883" lon="10.472355"><ele>112.0</ele><time>2026-03-29T08:04:17.459Z</time></trkpt><trkpt lat="45.4179883" lon="10.4723817"><ele>112.0</ele><time>2026-03-29T08:04:18.458Z</time></trkpt><trkpt lat="45.4181833" lon="10.47241"><ele>112.0</ele><time>2026-03-29T08:04:19.459Z</time></trkpt><trkpt lat="45.4183667" lon="10.472435"><ele>112.0</ele><time>2026-03-29T08:04:20.459Z</time></trkpt><trkpt lat="45.41856" lon="10.472445"><ele>112.0</ele><time>2026-03-29T08:04:21.459Z</time></trkpt><trkpt lat="45.4187367" lon="10.4724583"><ele>112.0</ele><time>2026-03-29T08:04:22.458Z</time></trkpt><trkpt lat="45.4188967" lon="10.4724767"><ele>112.0</ele><time>2026-03-29T08:04:23.459Z</time></trkpt><trkpt lat="45.4190383" lon="10.4724917"><ele>111.8</ele><time>2026-03-29T08:04:24.459Z</time></trkpt><trkpt lat="45.4191667" lon="10.4725083"><ele>111.6</ele><time>2026-03-29T08:04:25.459Z</time></trkpt><trkpt lat="45.4192783" lon="10.4725283"><ele>111.39999999999999</ele><time>2026-03-29T08:04:26.459Z</time></trkpt><trkpt lat="45.4193717" lon="10.47255"><ele>111.19999999999999</ele><time>2026-03-29T08:04:27.459Z</time></trkpt><trkpt lat="45.4194383" lon="10.4725617"><ele>111.0</ele><time>2026-03-29T08:04:28.459Z</time></trkpt><trkpt lat="45.4195217" lon="10.47263"><ele>111.0</ele><time>2026-03-29T08:04:30.459Z</time></trkpt><trkpt lat="45.4195083" lon="10.4727617"><ele>111.0</ele><time>2026-03-29T08:04:32.459Z</time></trkpt><trkpt lat="45.4194633" lon="10.4728833"><ele>111.0</ele><time>2026-03-29T08:04:33.459Z</time></trkpt><trkpt lat="45.41941" lon="10.4730317"><ele>111.0</ele><time>2026-03-29T08:04:34.459Z</time></trkpt><trkpt lat="45.4193683" lon="10.47317"><ele>111.0</ele><time>2026-03-29T08:04:35.459Z</time></trkpt><trkpt lat="45.4193333" lon="10.4732867"><ele>111.0</ele><time>2026-03-29T08:04:36.458Z</time></trkpt><trkpt lat="45.4192933" lon="10.4734267"><ele>111.0</ele><time>2026-03-29T08:04:37.459Z</time></trkpt><trkpt lat="45.41925" lon="10.4736117"><ele>111.0</ele><time>2026-03-29T08:04:38.459Z</time></trkpt><trkpt lat="45.4191933" lon="10.4738283"><ele>111.0</ele><time>2026-03-29T08:04:39.459Z</time></trkpt><trkpt lat="45.4191333" lon="10.47406"><ele>111.0</ele><time>2026-03-29T08:04:40.459Z</time></trkpt><trkpt lat="45.419075" lon="10.474315"><ele>111.0</ele><time>2026-03-29T08:04:41.459Z</time></trkpt><trkpt lat="45.41902" lon="10.4745583"><ele>111.0</ele><time>2026-03-29T08:04:42.459Z</time></trkpt><trkpt lat="45.418985" lon="10.47478"><ele>111.0</ele><time>2026-03-29T08:04:43.459Z</time></trkpt><trkpt lat="45.4189433" lon="10.475"><ele>111.0</ele><time>2026-03-29T08:04:44.459Z</time></trkpt><trkpt lat="45.41891" lon="10.4752183"><ele>111.0</ele><time>2026-03-29T08:04:45.459Z</time></trkpt><trkpt lat="45.41889" lon="10.4754367"><ele>111.5</ele><time>2026-03-29T08:04:46.459Z</time></trkpt><trkpt lat="45.4188733" lon="10.475655"><ele>112.0</ele><time>2026-03-29T08:04:47.459Z</time></trkpt><trkpt lat="45.41886" lon="10.4758633"><ele>112.5</ele><time>2026-03-29T08:04:48.459Z</time></trkpt><trkpt lat="45.4188483" lon="10.4760583"><ele>113.0</ele><time>2026-03-29T08:04:49.459Z</time></trkpt><trkpt lat="45.41884" lon="10.47622"><ele>113.33333333333333</ele><time>2026-03-29T08:04:50.459Z</time></trkpt><trkpt lat="45.41883" lon="10.4763517"><ele>113.66666666666666</ele><time>2026-03-29T08:04:51.459Z</time></trkpt><trkpt lat="45.4188033" lon="10.4764567"><ele>114.0</ele><time>2026-03-29T08:04:52.459Z</time></trkpt><trkpt lat="45.41875" lon="10.4765467"><ele>114.33333333333334</ele><time>2026-03-29T08:04:53.458Z</time></trkpt><trkpt lat="45.418695" lon="10.47662"><ele>114.66666666666667</ele><time>2026-03-29T08:04:54.458Z</time></trkpt><trkpt lat="45.4186533" lon="10.476725"><ele>115.0</ele><time>2026-03-29T08:04:55.459Z</time></trkpt><trkpt lat="45.41863" lon="10.4768467"><ele>115.0</ele><time>2026-03-29T08:04:56.459Z</time></trkpt><trkpt lat="45.4186083" lon="10.4770033"><ele>115.0</ele><time>2026-03-29T08:04:57.459Z</time></trkpt><trkpt lat="45.4185583" lon="10.4771733"><ele>115.0</ele><time>2026-03-29T08:04:58.459Z</time></trkpt><trkpt lat="45.4184733" lon="10.477345"><ele>115.0</ele><time>2026-03-29T08:04:59.459Z</time></trkpt><trkpt lat="45.4183817" lon="10.47751"><ele>116.25</ele><time>2026-03-29T08:05:00.459Z</time></trkpt><trkpt lat="45.418275" lon="10.477655"><ele>117.5</ele><time>2026-03-29T08:05:01.459Z</time></trkpt><trkpt lat="45.418195" lon="10.4777917"><ele>118.75</ele><time>2026-03-29T08:05:02.459Z</time></trkpt><trkpt lat="45.41811" lon="10.477935"><ele>120.0</ele><time>2026-03-29T08:05:03.459Z</time></trkpt><trkpt lat="45.4180483" lon="10.478105"><ele>119.5</ele><time>2026-03-29T08:05:04.459Z</time></trkpt><trkpt lat="45.4180033" lon="10.47829"><ele>119.0</ele><time>2026-03-29T08:05:05.459Z</time></trkpt><trkpt lat="45.41797" lon="10.4784967"><ele>118.5</ele><time>2026-03-29T08:05:06.459Z</time></trkpt><trkpt lat="45.4179283" lon="10.4787117"><ele>118.0</ele><time>2026-03-29T08:05:07.459Z</time></trkpt><trkpt lat="45.4178833" lon="10.47891"><ele>119.0</ele><time>2026-03-29T08:05:08.459Z</time></trkpt><trkpt lat="45.4178433" lon="10.4791067"><ele>120.0</ele><time>2026-03-29T08:05:09.459Z</time></trkpt><trkpt lat="45.4178233" lon="10.4792867"><ele>121.0</ele><time>2026-03-29T08:05:10.459Z</time></trkpt><trkpt lat="45.4178483" lon="10.4794583"><ele>122.0</ele><time>2026-03-29T08:05:11.459Z</time></trkpt><trkpt lat="45.41791" lon="10.4796233"><ele>122.0</ele><time>2026-03-29T08:05:12.458Z</time></trkpt><trkpt lat="45.4179717" lon="10.4797833"><ele>122.0</ele><time>2026-03-29T08:05:13.458Z</time></trkpt><trkpt lat="45.418025" lon="10.4799433"><ele>122.0</ele><time>2026-03-29T08:05:14.458Z</time></trkpt><trkpt lat="45.4180733" lon="10.480095"><ele>122.0</ele><time>2026-03-29T08:05:15.458Z</time></trkpt><trkpt lat="45.4181133" lon="10.4802533"><ele>123.0</ele><time>2026-03-29T08:05:16.459Z</time></trkpt><trkpt lat="45.4181533" lon="10.4803883"><ele>123.99999999999999</ele><time>2026-03-29T08:05:17.458Z</time></trkpt><trkpt lat="45.418185" lon="10.48051"><ele>124.99999999999999</ele><time>2026-03-29T08:05:18.459Z</time></trkpt><trkpt lat="45.418225" lon="10.4806183"><ele>126.0</ele><time>2026-03-29T08:05:19.459Z</time></trkpt><trkpt lat="45.4182883" lon="10.4807233"><ele>127.0</ele><time>2026-03-29T08:05:20.459Z</time></trkpt><trkpt lat="45.4183467" lon="10.4808033"><ele>127.0</ele><time>2026-03-29T08:05:21.458Z</time></trkpt><trkpt lat="45.4184133" lon="10.4808617"><ele>127.0</ele><time>2026-03-29T08:05:22.459Z</time></trkpt><trkpt lat="45.4184767" lon="10.4809067"><ele>127.0</ele><time>2026-03-29T08:05:23.459Z</time></trkpt><trkpt lat="45.418535" lon="10.4809683"><ele>127.0</ele><time>2026-03-29T08:05:24.459Z</time></trkpt><trkpt lat="45.4185917" lon="10.4810433"><ele>127.0</ele><time>2026-03-29T08:05:25.459Z</time></trkpt><trkpt lat="45.4186417" lon="10.481125"><ele>127.0</ele><time>2026-03-29T08:05:26.459Z</time></trkpt><trkpt lat="45.4186817" lon="10.4812133"><ele>127.0</ele><time>2026-03-29T08:05:27.459Z</time></trkpt><trkpt lat="45.4187" lon="10.4813117"><ele>126.50000000000001</ele><time>2026-03-29T08:05:28.459Z</time></trkpt><trkpt lat="45.418705" lon="10.48143"><ele>126.0</ele><time>2026-03-29T08:05:29.459Z</time></trkpt><trkpt lat="45.4186833" lon="10.481535"><ele>125.5</ele><time>2026-03-29T08:05:30.459Z</time></trkpt><trkpt lat="45.4186683" lon="10.481625"><ele>125.0</ele><time>2026-03-29T08:05:31.458Z</time></trkpt><trkpt lat="45.4186283" lon="10.4817467"><ele>124.50000000000001</ele><time>2026-03-29T08:05:33.459Z</time></trkpt><trkpt lat="45.4186533" lon="10.4819117"><ele>124.0</ele><time>2026-03-29T08:05:35.458Z</time></trkpt><trkpt lat="45.418685" lon="10.481995"><ele>124.0</ele><time>2026-03-29T08:05:36.459Z</time></trkpt><trkpt lat="45.4187233" lon="10.4820767"><ele>124.0</ele><time>2026-03-29T08:05:37.459Z</time></trkpt><trkpt lat="45.41875" lon="10.48219"><ele>124.0</ele><time>2026-03-29T08:05:38.459Z</time></trkpt><trkpt lat="45.4187683" lon="10.482345"><ele>124.0</ele><time>2026-03-29T08:05:39.459Z</time></trkpt><trkpt lat="45.41877" lon="10.482525"><ele>124.0</ele><time>2026-03-29T08:05:40.459Z</time></trkpt><trkpt lat="45.4187767" lon="10.48271"><ele>124.2</ele><time>2026-03-29T08:05:41.459Z</time></trkpt><trkpt lat="45.418785" lon="10.4828383"><ele>124.4</ele><time>2026-03-29T08:05:42.459Z</time></trkpt><trkpt lat="45.4188133" lon="10.482955"><ele>124.6</ele><time>2026-03-29T08:05:43.459Z</time></trkpt><trkpt lat="45.41885" lon="10.48308"><ele>124.8</ele><time>2026-03-29T08:05:44.459Z</time></trkpt><trkpt lat="45.4189267" lon="10.483195"><ele>125.0</ele><time>2026-03-29T08:05:45.459Z</time></trkpt><trkpt lat="45.41903" lon="10.483285"><ele>125.0</ele><time>2026-03-29T08:05:46.459Z</time></trkpt><trkpt lat="45.4191517" lon="10.48339"><ele>125.0</ele><time>2026-03-29T08:05:47.459Z</time></trkpt><trkpt lat="45.419265" lon="10.4835"><ele>125.0</ele><time>2026-03-29T08:05:48.459Z</time></trkpt><trkpt lat="45.4193283" lon="10.4836283"><ele>125.0</ele><time>2026-03-29T08:05:49.459Z</time></trkpt><trkpt lat="45.4193583" lon="10.48373"><ele>125.6</ele><time>2026-03-29T08:05:50.459Z</time></trkpt><trkpt lat="45.4193583" lon="10.4838567"><ele>126.2</ele><time>2026-03-29T08:05:51.459Z</time></trkpt><trkpt lat="45.4193383" lon="10.4840083"><ele>126.80000000000001</ele><time>2026-03-29T08:05:52.459Z</time></trkpt><trkpt lat="45.419325" lon="10.48417"><ele>127.4</ele><time>2026-03-29T08:05:53.459Z</time></trkpt><trkpt lat="45.4193267" lon="10.484325"><ele>128.0</ele><time>2026-03-29T08:05:54.459Z</time></trkpt><trkpt lat="45.41934" lon="10.4844633"><ele>128.0</ele><time>2026-03-29T08:05:55.458Z</time></trkpt><trkpt lat="45.419375" lon="10.4845933"><ele>128.0</ele><time>2026-03-29T08:05:56.459Z</time></trkpt><trkpt lat="45.4194283" lon="10.4847083"><ele>128.0</ele><time>2026-03-29T08:05:57.459Z</time></trkpt><trkpt lat="45.4195083" lon="10.4848317"><ele>128.0</ele><time>2026-03-29T08:05:58.459Z</time></trkpt><trkpt lat="45.419605" lon="10.4849567"><ele>128.0</ele><time>2026-03-29T08:05:59.459Z</time></trkpt><trkpt lat="45.4197133" lon="10.4850733"><ele>128.0</ele><time>2026-03-29T08:06:00.458Z</time></trkpt><trkpt lat="45.4198317" lon="10.4851883"><ele>128.0</ele><time>2026-03-29T08:06:01.459Z</time></trkpt><trkpt lat="45.4199733" lon="10.4852883"><ele>128.0</ele><time>2026-03-29T08:06:02.459Z</time></trkpt><trkpt lat="45.4201217" lon="10.4853767"><ele>130.75</ele><time>2026-03-29T08:06:03.459Z</time></trkpt><trkpt lat="45.420265" lon="10.4854517"><ele>133.5</ele><time>2026-03-29T08:06:04.459Z</time></trkpt><trkpt lat="45.42037" lon="10.4854817"><ele>136.25</ele><time>2026-03-29T08:06:05.459Z</time></trkpt><trkpt lat="45.42047" lon="10.485495"><ele>139.0</ele><time>2026-03-29T08:06:06.459Z</time></trkpt><trkpt lat="45.4205733" lon="10.485505"><ele>139.0</ele><time>2026-03-29T08:06:07.459Z</time></trkpt><trkpt lat="45.4206833" lon="10.485495"><ele>139.0</ele><time>2026-03-29T08:06:08.458Z</time></trkpt><trkpt lat="45.420795" lon="10.4854783"><ele>139.0</ele><time>2026-03-29T08:06:09.459Z</time></trkpt><trkpt lat="45.4209083" lon="10.4854617"><ele>139.0</ele><time>2026-03-29T08:06:10.459Z</time></trkpt><trkpt lat="45.4210217" lon="10.485455"><ele>139.0</ele><time>2026-03-29T08:06:11.458Z</time></trkpt><trkpt lat="45.4211517" lon="10.485455"><ele>139.0</ele><time>2026-03-29T08:06:12.459Z</time></trkpt><trkpt lat="45.4212917" lon="10.4854767"><ele>139.0</ele><time>2026-03-29T08:06:13.459Z</time></trkpt><trkpt lat="45.4214417" lon="10.4855133"><ele>139.0</ele><time>2026-03-29T08:06:14.458Z</time></trkpt><trkpt lat="45.4215883" lon="10.48555"><ele>139.25</ele><time>2026-03-29T08:06:15.459Z</time></trkpt><trkpt lat="45.4217217" lon="10.4855883"><ele>139.5</ele><time>2026-03-29T08:06:16.459Z</time></trkpt><trkpt lat="45.421845" lon="10.485625"><ele>139.75</ele><time>2026-03-29T08:06:17.459Z</time></trkpt><trkpt lat="45.4219617" lon="10.485685"><ele>140.0</ele><time>2026-03-29T08:06:18.459Z</time></trkpt><trkpt lat="45.422075" lon="10.4857783"><ele>140.5</ele><time>2026-03-29T08:06:19.459Z</time></trkpt><trkpt lat="45.42218" lon="10.4859083"><ele>141.0</ele><time>2026-03-29T08:06:20.459Z</time></trkpt><trkpt lat="45.4222633" lon="10.4860333"><ele>141.5</ele><time>2026-03-29T08:06:21.458Z</time></trkpt><trkpt lat="45.4223317" lon="10.4861617"><ele>142.0</ele><time>2026-03-29T08:06:22.459Z</time></trkpt><trkpt lat="45.4223833" lon="10.48631"><ele>142.5</ele><time>2026-03-29T08:06:23.459Z</time></trkpt><trkpt lat="45.4224183" lon="10.48648"><ele>143.0</ele><time>2026-03-29T08:06:24.459Z</time></trkpt><trkpt lat="45.4224333" lon="10.486655"><ele>143.5</ele><time>2026-03-29T08:06:25.459Z</time></trkpt><trkpt lat="45.422425" lon="10.4868767"><ele>144.0</ele><time>2026-03-29T08:06:26.458Z</time></trkpt><trkpt lat="45.4224133" lon="10.487085"><ele>144.75</ele><time>2026-03-29T08:06:27.459Z</time></trkpt><trkpt lat="45.4223983" lon="10.4873017"><ele>145.5</ele><time>2026-03-29T08:06:28.459Z</time></trkpt><trkpt lat="45.4223933" lon="10.4875083"><ele>146.25</ele><time>2026-03-29T08:06:29.459Z</time></trkpt><trkpt lat="45.42241" lon="10.4877017"><ele>147.0</ele><time>2026-03-29T08:06:30.459Z</time></trkpt><trkpt lat="45.4224517" lon="10.48789"><ele>147.75</ele><time>2026-03-29T08:06:31.459Z</time></trkpt><trkpt lat="45.42251" lon="10.4880617"><ele>148.5</ele><time>2026-03-29T08:06:32.458Z</time></trkpt><trkpt lat="45.4225917" lon="10.4882183"><ele>149.25</ele><time>2026-03-29T08:06:33.459Z</time></trkpt><trkpt lat="45.42269" lon="10.4883567"><ele>150.0</ele><time>2026-03-29T08:06:34.459Z</time></trkpt><trkpt lat="45.4228067" lon="10.488475"><ele>150.0</ele><time>2026-03-29T08:06:35.459Z</time></trkpt><trkpt lat="45.42293" lon="10.4885683"><ele>150.0</ele><time>2026-03-29T08:06:36.459Z</time></trkpt><trkpt lat="45.4230633" lon="10.4886767"><ele>150.0</ele><time>2026-03-29T08:06:37.459Z</time></trkpt><trkpt lat="45.4232" lon="10.48879"><ele>151.0</ele><time>2026-03-29T08:06:38.459Z</time></trkpt><trkpt lat="45.4233417" lon="10.4889167"><ele>152.0</ele><time>2026-03-29T08:06:39.459Z</time></trkpt><trkpt lat="45.42348" lon="10.4890333"><ele>153.0</ele><time>2026-03-29T08:06:40.459Z</time></trkpt><trkpt lat="45.423615" lon="10.489145"><ele>153.0</ele><time>2026-03-29T08:06:41.459Z</time></trkpt><trkpt lat="45.423735" lon="10.4892567"><ele>153.0</ele><time>2026-03-29T08:06:42.459Z</time></trkpt><trkpt lat="45.42386" lon="10.489395"><ele>153.0</ele><time>2026-03-29T08:06:43.459Z</time></trkpt><trkpt lat="45.4239933" lon="10.4895633"><ele>152.66666666666666</ele><time>2026-03-29T08:06:44.458Z</time></trkpt><trkpt lat="45.4241233" lon="10.4897483"><ele>152.33333333333331</ele><time>2026-03-29T08:06:45.459Z</time></trkpt><trkpt lat="45.4242517" lon="10.489935"><ele>152.0</ele><time>2026-03-29T08:06:46.458Z</time></trkpt><trkpt lat="45.4243817" lon="10.4901067"><ele>152.0</ele><time>2026-03-29T08:06:47.458Z</time></trkpt><trkpt lat="45.4244983" lon="10.4902817"><ele>152.0</ele><time>2026-03-29T08:06:48.459Z</time></trkpt><trkpt lat="45.4246133" lon="10.49044"><ele>152.0</ele><time>2026-03-29T08:06:49.459Z</time></trkpt><trkpt lat="45.4247367" lon="10.4905817"><ele>153.25</ele><time>2026-03-29T08:06:50.458Z</time></trkpt><trkpt lat="45.4248333" lon="10.4907067"><ele>154.5</ele><time>2026-03-29T08:06:51.459Z</time></trkpt><trkpt lat="45.4249167" lon="10.490815"><ele>155.75</ele><time>2026-03-29T08:06:52.459Z</time></trkpt><trkpt lat="45.424975" lon="10.4909433"><ele>157.0</ele><time>2026-03-29T08:06:53.459Z</time></trkpt><trkpt lat="45.4250117" lon="10.4910883"><ele>157.0</ele><time>2026-03-29T08:06:54.459Z</time></trkpt><trkpt lat="45.4250217" lon="10.4912367"><ele>157.0</ele><time>2026-03-29T08:06:55.459Z</time></trkpt><trkpt lat="45.4250117" lon="10.49142"><ele>157.0</ele><time>2026-03-29T08:06:56.459Z</time></trkpt><trkpt lat="45.424995" lon="10.491635"><ele>157.0</ele><time>2026-03-29T08:06:57.459Z</time></trkpt><trkpt lat="45.4250033" lon="10.49186"><ele>156.0</ele><time>2026-03-29T08:06:58.459Z</time></trkpt><trkpt lat="45.4250067" lon="10.4920517"><ele>155.0</ele><time>2026-03-29T08:06:59.458Z</time></trkpt><trkpt lat="45.425005" lon="10.4922333"><ele>154.0</ele><time>2026-03-29T08:07:00.459Z</time></trkpt><trkpt lat="45.4250117" lon="10.4924"><ele>153.0</ele><time>2026-03-29T08:07:01.459Z</time></trkpt><trkpt lat="45.425025" lon="10.49255"><ele>152.0</ele><time>2026-03-29T08:07:02.459Z</time></trkpt><trkpt lat="45.4250417" lon="10.4926633"><ele>151.0</ele><time>2026-03-29T08:07:03.459Z</time></trkpt><trkpt lat="45.4250767" lon="10.492765"><ele>150.0</ele><time>2026-03-29T08:07:04.459Z</time></trkpt><trkpt lat="45.425135" lon="10.4928433"><ele>149.0</ele><time>2026-03-29T08:07:05.458Z</time></trkpt><trkpt lat="45.4252233" lon="10.4929167"><ele>148.0</ele><time>2026-03-29T08:07:06.459Z</time></trkpt><trkpt lat="45.4253333" lon="10.4929917"><ele>147.4</ele><time>2026-03-29T08:07:07.459Z</time></trkpt><trkpt lat="45.4254467" lon="10.4930483"><ele>146.8</ele><time>2026-03-29T08:07:08.458Z</time></trkpt><trkpt lat="45.4255483" lon="10.4931033"><ele>146.2</ele><time>2026-03-29T08:07:09.459Z</time></trkpt><trkpt lat="45.4256367" lon="10.4931633"><ele>145.6</ele><time>2026-03-29T08:07:10.459Z</time></trkpt><trkpt lat="45.4257233" lon="10.4932217"><ele>145.0</ele><time>2026-03-29T08:07:11.459Z</time></trkpt><trkpt lat="45.425815" lon="10.49327"><ele>145.0</ele><time>2026-03-29T08:07:12.459Z</time></trkpt><trkpt lat="45.4259117" lon="10.4933267"><ele>145.0</ele><time>2026-03-29T08:07:13.459Z</time></trkpt><trkpt lat="45.42601" lon="10.4933883"><ele>145.0</ele><time>2026-03-29T08:07:14.459Z</time></trkpt><trkpt lat="45.4261133" lon="10.493455"><ele>145.0</ele><time>2026-03-29T08:07:15.459Z</time></trkpt><trkpt lat="45.426225" lon="10.4935117"><ele>145.0</ele><time>2026-03-29T08:07:16.459Z</time></trkpt><trkpt lat="45.4263333" lon="10.4935767"><ele>144.25</ele><time>2026-03-29T08:07:17.459Z</time></trkpt><trkpt lat="45.426445" lon="10.4936617"><ele>143.5</ele><time>2026-03-29T08:07:18.458Z</time></trkpt><trkpt lat="45.4265567" lon="10.4937617"><ele>142.75</ele><time>2026-03-29T08:07:19.459Z</time></trkpt><trkpt lat="45.42667" lon="10.4938467"><ele>142.0</ele><time>2026-03-29T08:07:20.459Z</time></trkpt><trkpt lat="45.4267783" lon="10.4939333"><ele>142.0</ele><time>2026-03-29T08:07:21.459Z</time></trkpt><trkpt lat="45.4268767" lon="10.4940117"><ele>142.0</ele><time>2026-03-29T08:07:22.459Z</time></trkpt><trkpt lat="45.4269683" lon="10.49407"><ele>142.0</ele><time>2026-03-29T08:07:23.458Z</time></trkpt><trkpt lat="45.4270533" lon="10.494105"><ele>142.0</ele><time>2026-03-29T08:07:24.459Z</time></trkpt><trkpt lat="45.4271383" lon="10.4941217"><ele>142.0</ele><time>2026-03-29T08:07:25.459Z</time></trkpt><trkpt lat="45.427225" lon="10.4941133"><ele>142.75</ele><time>2026-03-29T08:07:26.459Z</time></trkpt><trkpt lat="45.4273267" lon="10.4940967"><ele>143.5</ele><time>2026-03-29T08:07:27.459Z</time></trkpt><trkpt lat="45.4274367" lon="10.4940583"><ele>144.25</ele><time>2026-03-29T08:07:28.459Z</time></trkpt><trkpt lat="45.4275533" lon="10.4940333"><ele>145.0</ele><time>2026-03-29T08:07:29.458Z</time></trkpt><trkpt lat="45.4276733" lon="10.49402"><ele>145.0</ele><time>2026-03-29T08:07:30.459Z</time></trkpt><trkpt lat="45.4277917" lon="10.494005"><ele>145.0</ele><time>2026-03-29T08:07:31.459Z</time></trkpt><trkpt lat="45.42791" lon="10.493985"><ele>145.0</ele><time>2026-03-29T08:07:32.459Z</time></trkpt><trkpt lat="45.4280233" lon="10.4939667"><ele>145.0</ele><time>2026-03-29T08:07:33.459Z</time></trkpt><trkpt lat="45.42813" lon="10.493955"><ele>145.6</ele><time>2026-03-29T08:07:34.459Z</time></trkpt><trkpt lat="45.428235" lon="10.49397"><ele>146.2</ele><time>2026-03-29T08:07:35.458Z</time></trkpt><trkpt lat="45.4283233" lon="10.49401"><ele>146.8</ele><time>2026-03-29T08:07:36.458Z</time></trkpt><trkpt lat="45.4284067" lon="10.49406"><ele>147.4</ele><time>2026-03-29T08:07:37.459Z</time></trkpt><trkpt lat="45.4284833" lon="10.4941083"><ele>148.0</ele><time>2026-03-29T08:07:38.459Z</time></trkpt><trkpt lat="45.428555" lon="10.4941617"><ele>148.0</ele><time>2026-03-29T08:07:39.459Z</time></trkpt><trkpt lat="45.4286317" lon="10.494215"><ele>148.0</ele><time>2026-03-29T08:07:40.459Z</time></trkpt><trkpt lat="45.4287283" lon="10.4942583"><ele>148.0</ele><time>2026-03-29T08:07:41.459Z</time></trkpt><trkpt lat="45.42885" lon="10.49432"><ele>148.0</ele><time>2026-03-29T08:07:42.459Z</time></trkpt><trkpt lat="45.4289767" lon="10.4944033"><ele>148.5</ele><time>2026-03-29T08:07:43.459Z</time></trkpt><trkpt lat="45.429105" lon="10.4944783"><ele>149.0</ele><time>2026-03-29T08:07:44.459Z</time></trkpt><trkpt lat="45.4292233" lon="10.4945667"><ele>149.5</ele><time>2026-03-29T08:07:45.459Z</time></trkpt><trkpt lat="45.42934" lon="10.4946483"><ele>150.0</ele><time>2026-03-29T08:07:46.459Z</time></trkpt><trkpt lat="45.429455" lon="10.4947417"><ele>148.5</ele><time>2026-03-29T08:07:47.459Z</time></trkpt><trkpt lat="45.4295783" lon="10.4948317"><ele>147.0</ele><time>2026-03-29T08:07:48.458Z</time></trkpt><trkpt lat="45.4296983" lon="10.4949533"><ele>145.5</ele><time>2026-03-29T08:07:49.458Z</time></trkpt><trkpt lat="45.42982" lon="10.4950883"><ele>144.0</ele><time>2026-03-29T08:07:50.459Z</time></trkpt><trkpt lat="45.4299317" lon="10.4952267"><ele>145.5</ele><time>2026-03-29T08:07:51.459Z</time></trkpt><trkpt lat="45.43004" lon="10.4953733"><ele>147.0</ele><time>2026-03-29T08:07:52.459Z</time></trkpt><trkpt lat="45.4301333" lon="10.495505"><ele>148.5</ele><time>2026-03-29T08:07:53.459Z</time></trkpt><trkpt lat="45.4302033" lon="10.4956533"><ele>150.0</ele><time>2026-03-29T08:07:54.458Z</time></trkpt><trkpt lat="45.43027" lon="10.4958167"><ele>150.0</ele><time>2026-03-29T08:07:55.459Z</time></trkpt><trkpt lat="45.4303417" lon="10.4959917"><ele>150.0</ele><time>2026-03-29T08:07:56.459Z</time></trkpt><trkpt lat="45.4304333" lon="10.496175"><ele>150.0</ele><time>2026-03-29T08:07:57.459Z</time></trkpt><trkpt lat="45.43053" lon="10.49634"><ele>152.0</ele><time>2026-03-29T08:07:58.459Z</time></trkpt><trkpt lat="45.4306317" lon="10.49647"><ele>154.0</ele><time>2026-03-29T08:07:59.459Z</time></trkpt><trkpt lat="45.4307433" lon="10.4965917"><ele>156.0</ele><time>2026-03-29T08:08:00.459Z</time></trkpt><trkpt lat="45.4308767" lon="10.49671"><ele>158.0</ele><time>2026-03-29T08:08:01.458Z</time></trkpt><trkpt lat="45.4310083" lon="10.4968317"><ele>158.0</ele><time>2026-03-29T08:08:02.459Z</time></trkpt><trkpt lat="45.43113" lon="10.4969383"><ele>158.0</ele><time>2026-03-29T08:08:03.459Z</time></trkpt><trkpt lat="45.4312283" lon="10.4970383"><ele>158.0</ele><time>2026-03-29T08:08:04.459Z</time></trkpt><trkpt lat="45.4313133" lon="10.49715"><ele>158.0</ele><time>2026-03-29T08:08:05.459Z</time></trkpt><trkpt lat="45.4313917" lon="10.4972967"><ele>157.5</ele><time>2026-03-29T08:08:06.459Z</time></trkpt><trkpt lat="45.4314583" lon="10.4974617"><ele>157.0</ele><time>2026-03-29T08:08:07.459Z</time></trkpt><trkpt lat="45.431515" lon="10.4976317"><ele>156.5</ele><time>2026-03-29T08:08:08.459Z</time></trkpt><trkpt lat="45.431575" lon="10.497795"><ele>156.0</ele><time>2026-03-29T08:08:09.459Z</time></trkpt><trkpt lat="45.43163" lon="10.4979733"><ele>154.5</ele><time>2026-03-29T08:08:10.459Z</time></trkpt><trkpt lat="45.4316733" lon="10.4981433"><ele>153.0</ele><time>2026-03-29T08:08:11.459Z</time></trkpt><trkpt lat="45.4317133" lon="10.4983183"><ele>151.5</ele><time>2026-03-29T08:08:12.459Z</time></trkpt><trkpt lat="45.4317417" lon="10.4984967"><ele>150.0</ele><time>2026-03-29T08:08:13.459Z</time></trkpt><trkpt lat="45.4317533" lon="10.4986783"><ele>150.0</ele><time>2026-03-29T08:08:14.458Z</time></trkpt><trkpt lat="45.4317333" lon="10.4988833"><ele>150.0</ele><time>2026-03-29T08:08:15.458Z</time></trkpt><trkpt lat="45.4317067" lon="10.4991033"><ele>150.0</ele><time>2026-03-29T08:08:16.458Z</time></trkpt><trkpt lat="45.4316783" lon="10.49932"><ele>150.0</ele><time>2026-03-29T08:08:17.459Z</time></trkpt><trkpt lat="45.4316583" lon="10.4995267"><ele>150.0</ele><time>2026-03-29T08:08:18.459Z</time></trkpt><trkpt lat="45.4316317" lon="10.49973"><ele>150.0</ele><time>2026-03-29T08:08:19.459Z</time></trkpt><trkpt lat="45.4315933" lon="10.4999333"><ele>150.0</ele><time>2026-03-29T08:08:20.459Z</time></trkpt><trkpt lat="45.4315533" lon="10.5001233"><ele>150.0</ele><time>2026-03-29T08:08:21.459Z</time></trkpt><trkpt lat="45.431515" lon="10.5003267"><ele>150.0</ele><time>2026-03-29T08:08:22.459Z</time></trkpt><trkpt lat="45.4314733" lon="10.50053"><ele>150.0</ele><time>2026-03-29T08:08:23.459Z</time></trkpt><trkpt lat="45.4314333" lon="10.5007333"><ele>150.0</ele><time>2026-03-29T08:08:24.459Z</time></trkpt><trkpt lat="45.4313933" lon="10.5009417"><ele>149.5</ele><time>2026-03-29T08:08:25.459Z</time></trkpt><trkpt lat="45.4313533" lon="10.50115"><ele>149.0</ele><time>2026-03-29T08:08:26.459Z</time></trkpt><trkpt lat="45.431325" lon="10.5013467"><ele>148.5</ele><time>2026-03-29T08:08:27.459Z</time></trkpt><trkpt lat="45.4312933" lon="10.5015167"><ele>148.0</ele><time>2026-03-29T08:08:28.459Z</time></trkpt><trkpt lat="45.4312667" lon="10.50167"><ele>147.8</ele><time>2026-03-29T08:08:29.459Z</time></trkpt><trkpt lat="45.4312433" lon="10.5018117"><ele>147.60000000000002</ele><time>2026-03-29T08:08:30.459Z</time></trkpt><trkpt lat="45.4312233" lon="10.5019267"><ele>147.39999999999998</ele><time>2026-03-29T08:08:31.459Z</time></trkpt><trkpt lat="45.4311483" lon="10.502045"><ele>147.2</ele><time>2026-03-29T08:08:33.459Z</time></trkpt><trkpt lat="45.4310383" lon="10.5020017"><ele>147.0</ele><time>2026-03-29T08:08:35.459Z</time></trkpt><trkpt lat="45.4309567" lon="10.5019083"><ele>147.0</ele><time>2026-03-29T08:08:36.459Z</time></trkpt><trkpt lat="45.4308517" lon="10.50178"><ele>147.0</ele><time>2026-03-29T08:08:37.459Z</time></trkpt><trkpt lat="45.4307217" lon="10.501635"><ele>147.0</ele><time>2026-03-29T08:08:38.459Z</time></trkpt><trkpt lat="45.4305833" lon="10.5014967"><ele>147.0</ele><time>2026-03-29T08:08:39.459Z</time></trkpt><trkpt lat="45.4304367" lon="10.5013633"><ele>147.0</ele><time>2026-03-29T08:08:40.459Z</time></trkpt><trkpt lat="45.4302933" lon="10.5012217"><ele>147.0</ele><time>2026-03-29T08:08:41.459Z</time></trkpt><trkpt lat="45.4301617" lon="10.501105"><ele>146.6</ele><time>2026-03-29T08:08:42.459Z</time></trkpt><trkpt lat="45.43005" lon="10.50099"><ele>146.2</ele><time>2026-03-29T08:08:43.459Z</time></trkpt><trkpt lat="45.4299533" lon="10.50089"><ele>145.8</ele><time>2026-03-29T08:08:44.459Z</time></trkpt><trkpt lat="45.4298783" lon="10.5008083"><ele>145.4</ele><time>2026-03-29T08:08:45.459Z</time></trkpt><trkpt lat="45.429825" lon="10.5007533"><ele>145.0</ele><time>2026-03-29T08:08:46.459Z</time></trkpt><trkpt lat="45.4297333" lon="10.5007583"><ele>146.0</ele><time>2026-03-29T08:08:48.459Z</time></trkpt><trkpt lat="45.4296383" lon="10.5008817"><ele>147.0</ele><time>2026-03-29T08:08:50.459Z</time></trkpt><trkpt lat="45.429585" lon="10.5009883"><ele>148.0</ele><time>2026-03-29T08:08:51.459Z</time></trkpt><trkpt lat="45.4295417" lon="10.50112"><ele>149.0</ele><time>2026-03-29T08:08:52.459Z</time></trkpt><trkpt lat="45.429485" lon="10.5012533"><ele>150.0</ele><time>2026-03-29T08:08:53.459Z</time></trkpt><trkpt lat="45.4294117" lon="10.5013783"><ele>150.25</ele><time>2026-03-29T08:08:54.459Z</time></trkpt><trkpt lat="45.42933" lon="10.5015067"><ele>150.5</ele><time>2026-03-29T08:08:55.459Z</time></trkpt><trkpt lat="45.4292333" lon="10.5016383"><ele>150.75</ele><time>2026-03-29T08:08:56.459Z</time></trkpt><trkpt lat="45.429135" lon="10.501755"><ele>151.0</ele><time>2026-03-29T08:08:57.459Z</time></trkpt><trkpt lat="45.4290633" lon="10.5018717"><ele>151.0</ele><time>2026-03-29T08:08:58.458Z</time></trkpt><trkpt lat="45.4289967" lon="10.502015"><ele>151.0</ele><time>2026-03-29T08:08:59.459Z</time></trkpt><trkpt lat="45.428945" lon="10.50218"><ele>151.0</ele><time>2026-03-29T08:09:00.459Z</time></trkpt><trkpt lat="45.4288933" lon="10.502335"><ele>151.0</ele><time>2026-03-29T08:09:01.459Z</time></trkpt><trkpt lat="45.428855" lon="10.5024933"><ele>151.16666666666669</ele><time>2026-03-29T08:09:02.459Z</time></trkpt><trkpt lat="45.428815" lon="10.5026367"><ele>151.33333333333334</ele><time>2026-03-29T08:09:03.459Z</time></trkpt><trkpt lat="45.4287783" lon="10.502755"><ele>151.5</ele><time>2026-03-29T08:09:04.458Z</time></trkpt><trkpt lat="45.4287317" lon="10.5028533"><ele>151.66666666666666</ele><time>2026-03-29T08:09:05.458Z</time></trkpt><trkpt lat="45.4286833" lon="10.502945"><ele>151.83333333333331</ele><time>2026-03-29T08:09:06.459Z</time></trkpt><trkpt lat="45.4286233" lon="10.5030283"><ele>152.0</ele><time>2026-03-29T08:09:07.459Z</time></trkpt><trkpt lat="45.4285483" lon="10.5030867"><ele>151.66666666666666</ele><time>2026-03-29T08:09:08.459Z</time></trkpt><trkpt lat="45.4284767" lon="10.5031317"><ele>151.33333333333331</ele><time>2026-03-29T08:09:09.459Z</time></trkpt><trkpt lat="45.4284" lon="10.5031683"><ele>151.0</ele><time>2026-03-29T08:09:10.459Z</time></trkpt><trkpt lat="45.4283267" lon="10.503205"><ele>150.66666666666666</ele><time>2026-03-29T08:09:11.458Z</time></trkpt><trkpt lat="45.42826" lon="10.5032617"><ele>150.33333333333334</ele><time>2026-03-29T08:09:12.459Z</time></trkpt><trkpt lat="45.4281967" lon="10.5033583"><ele>150.0</ele><time>2026-03-29T08:09:13.459Z</time></trkpt><trkpt lat="45.428145" lon="10.5034683"><ele>150.0</ele><time>2026-03-29T08:09:14.458Z</time></trkpt><trkpt lat="45.4280983" lon="10.5035867"><ele>150.0</ele><time>2026-03-29T08:09:15.459Z</time></trkpt><trkpt lat="45.4280517" lon="10.5036883"><ele>150.0</ele><time>2026-03-29T08:09:16.459Z</time></trkpt><trkpt lat="45.4280017" lon="10.5037533"><ele>150.0</ele><time>2026-03-29T08:09:17.459Z</time></trkpt><trkpt lat="45.427945" lon="10.5037933"><ele>150.0</ele><time>2026-03-29T08:09:18.459Z</time></trkpt><trkpt lat="45.4278617" lon="10.503825"><ele>150.0</ele><time>2026-03-29T08:09:19.459Z</time></trkpt><trkpt lat="45.427775" lon="10.5038617"><ele>147.8</ele><time>2026-03-29T08:09:20.459Z</time></trkpt><trkpt lat="45.4276867" lon="10.503925"><ele>145.6</ele><time>2026-03-29T08:09:21.459Z</time></trkpt><trkpt lat="45.427615" lon="10.5039933"><ele>143.4</ele><time>2026-03-29T08:09:22.459Z</time></trkpt><trkpt lat="45.4275367" lon="10.5040517"><ele>141.2</ele><time>2026-03-29T08:09:23.459Z</time></trkpt><trkpt lat="45.4274467" lon="10.5041"><ele>139.0</ele><time>2026-03-29T08:09:24.459Z</time></trkpt><trkpt lat="45.4273517" lon="10.5041233"><ele>139.0</ele><time>2026-03-29T08:09:25.459Z</time></trkpt><trkpt lat="45.427245" lon="10.5041333"><ele>139.0</ele><time>2026-03-29T08:09:26.459Z</time></trkpt><trkpt lat="45.4271433" lon="10.50414"><ele>139.0</ele><time>2026-03-29T08:09:27.459Z</time></trkpt><trkpt lat="45.4270467" lon="10.5041317"><ele>139.0</ele><time>2026-03-29T08:09:28.459Z</time></trkpt><trkpt lat="45.4269483" lon="10.504115"><ele>139.0</ele><time>2026-03-29T08:09:29.459Z</time></trkpt><trkpt lat="45.42686" lon="10.5041083"><ele>139.16666666666669</ele><time>2026-03-29T08:09:30.459Z</time></trkpt><trkpt lat="45.4267633" lon="10.504105"><ele>139.33333333333334</ele><time>2026-03-29T08:09:31.459Z</time></trkpt><trkpt lat="45.4266783" lon="10.5041133"><ele>139.5</ele><time>2026-03-29T08:09:32.459Z</time></trkpt><trkpt lat="45.4265967" lon="10.5041283"><ele>139.66666666666666</ele><time>2026-03-29T08:09:33.459Z</time></trkpt><trkpt lat="45.4265167" lon="10.5041583"><ele>139.83333333333331</ele><time>2026-03-29T08:09:34.459Z</time></trkpt><trkpt lat="45.4264283" lon="10.504215"><ele>140.0</ele><time>2026-03-29T08:09:35.459Z</time></trkpt><trkpt lat="45.4263483" lon="10.504275"><ele>139.66666666666666</ele><time>2026-03-29T08:09:36.458Z</time></trkpt><trkpt lat="45.4262733" lon="10.50434"><ele>139.33333333333331</ele><time>2026-03-29T08:09:37.459Z</time></trkpt><trkpt lat="45.4262033" lon="10.5044017"><ele>139.0</ele><time>2026-03-29T08:09:38.459Z</time></trkpt><trkpt lat="45.426135" lon="10.504475"><ele>138.66666666666666</ele><time>2026-03-29T08:09:39.459Z</time></trkpt><trkpt lat="45.4260667" lon="10.5045467"><ele>138.33333333333334</ele><time>2026-03-29T08:09:40.459Z</time></trkpt><trkpt lat="45.4259983" lon="10.504625"><ele>138.0</ele><time>2026-03-29T08:09:41.459Z</time></trkpt><trkpt lat="45.4259267" lon="10.504705"><ele>136.5</ele><time>2026-03-29T08:09:42.459Z</time></trkpt><trkpt lat="45.42586" lon="10.504775"><ele>135.0</ele><time>2026-03-29T08:09:43.459Z</time></trkpt><trkpt lat="45.4258" lon="10.50483"><ele>133.5</ele><time>2026-03-29T08:09:44.459Z</time></trkpt><trkpt lat="45.4257017" lon="10.5049017"><ele>132.0</ele><time>2026-03-29T08:09:46.459Z</time></trkpt><trkpt lat="45.4256467" lon="10.5049517"><ele>130.5</ele><time>2026-03-29T08:09:48.459Z</time></trkpt><trkpt lat="45.4257133" lon="10.5049967"><ele>129.0</ele><time>2026-03-29T08:09:52.458Z</time></trkpt><trkpt lat="45.4257783" lon="10.504965"><ele>129.0</ele><time>2026-03-29T08:09:53.459Z</time></trkpt><trkpt lat="45.4258783" lon="10.50492"><ele>129.0</ele><time>2026-03-29T08:09:54.459Z</time></trkpt><trkpt lat="45.4260217" lon="10.504865"><ele>129.0</ele><time>2026-03-29T08:09:55.459Z</time></trkpt><trkpt lat="45.4262033" lon="10.504805"><ele>129.0</ele><time>2026-03-29T08:09:56.459Z</time></trkpt><trkpt lat="45.4263783" lon="10.5047417"><ele>128.75</ele><time>2026-03-29T08:09:57.459Z</time></trkpt><trkpt lat="45.4265267" lon="10.5046933"><ele>128.5</ele><time>2026-03-29T08:09:58.458Z</time></trkpt><trkpt lat="45.4266617" lon="10.5046733"><ele>128.25</ele><time>2026-03-29T08:09:59.458Z</time></trkpt><trkpt lat="45.4268117" lon="10.5046683"><ele>128.0</ele><time>2026-03-29T08:10:00.459Z</time></trkpt><trkpt lat="45.4269683" lon="10.5046633"><ele>128.0</ele><time>2026-03-29T08:10:01.459Z</time></trkpt><trkpt lat="45.4271167" lon="10.5046617"><ele>128.0</ele><time>2026-03-29T08:10:02.458Z</time></trkpt><trkpt lat="45.427255" lon="10.5046683"><ele>128.0</ele><time>2026-03-29T08:10:03.459Z</time></trkpt><trkpt lat="45.4273933" lon="10.5046983"><ele>128.0</ele><time>2026-03-29T08:10:04.459Z</time></trkpt><trkpt lat="45.4275483" lon="10.5047517"><ele>128.66666666666666</ele><time>2026-03-29T08:10:05.459Z</time></trkpt><trkpt lat="45.4277267" lon="10.5048317"><ele>129.33333333333334</ele><time>2026-03-29T08:10:06.458Z</time></trkpt><trkpt lat="45.427925" lon="10.5049333"><ele>130.0</ele><time>2026-03-29T08:10:07.459Z</time></trkpt><trkpt lat="45.428115" lon="10.5050317"><ele>131.33333333333334</ele><time>2026-03-29T08:10:08.459Z</time></trkpt><trkpt lat="45.42831" lon="10.5051183"><ele>132.66666666666666</ele><time>2026-03-29T08:10:09.459Z</time></trkpt><trkpt lat="45.4284983" lon="10.5051983"><ele>134.0</ele><time>2026-03-29T08:10:10.459Z</time></trkpt><trkpt lat="45.4286717" lon="10.5052733"><ele>133.33333333333331</ele><time>2026-03-29T08:10:11.458Z</time></trkpt><trkpt lat="45.42883" lon="10.5053417"><ele>132.66666666666666</ele><time>2026-03-29T08:10:12.459Z</time></trkpt><trkpt lat="45.42897" lon="10.5054083"><ele>132.0</ele><time>2026-03-29T08:10:13.459Z</time></trkpt><trkpt lat="45.4291117" lon="10.5054767"><ele>132.0</ele><time>2026-03-29T08:10:14.459Z</time></trkpt><trkpt lat="45.4292533" lon="10.5055433"><ele>132.0</ele><time>2026-03-29T08:10:15.459Z</time></trkpt><trkpt lat="45.4294" lon="10.50562"><ele>132.0</ele><time>2026-03-29T08:10:16.459Z</time></trkpt><trkpt lat="45.4295433" lon="10.5056917"><ele>134.0</ele><time>2026-03-29T08:10:17.459Z</time></trkpt><trkpt lat="45.4296867" lon="10.5057967"><ele>136.0</ele><time>2026-03-29T08:10:18.459Z</time></trkpt><trkpt lat="45.42982" lon="10.5059133"><ele>138.0</ele><time>2026-03-29T08:10:19.459Z</time></trkpt><trkpt lat="45.4299617" lon="10.5060417"><ele>138.0</ele><time>2026-03-29T08:10:20.459Z</time></trkpt><trkpt lat="45.430115" lon="10.50614"><ele>138.0</ele><time>2026-03-29T08:10:21.459Z</time></trkpt><trkpt lat="45.4302817" lon="10.506205"><ele>138.0</ele><time>2026-03-29T08:10:22.459Z</time></trkpt><trkpt lat="45.4304567" lon="10.5062467"><ele>137.0</ele><time>2026-03-29T08:10:23.459Z</time></trkpt><trkpt lat="45.430625" lon="10.5062667"><ele>136.0</ele><time>2026-03-29T08:10:24.459Z</time></trkpt><trkpt lat="45.4307917" lon="10.5062733"><ele>135.0</ele><time>2026-03-29T08:10:25.459Z</time></trkpt><trkpt lat="45.430955" lon="10.5062817"><ele>135.0</ele><time>2026-03-29T08:10:26.459Z</time></trkpt><trkpt lat="45.4311117" lon="10.5062967"><ele>135.0</ele><time>2026-03-29T08:10:27.458Z</time></trkpt><trkpt lat="45.4312633" lon="10.5063233"><ele>135.0</ele><time>2026-03-29T08:10:28.459Z</time></trkpt><trkpt lat="45.4313983" lon="10.5063483"><ele>135.0</ele><time>2026-03-29T08:10:29.459Z</time></trkpt><trkpt lat="45.4315117" lon="10.5063667"><ele>135.6</ele><time>2026-03-29T08:10:30.459Z</time></trkpt><trkpt lat="45.43163" lon="10.5063867"><ele>136.2</ele><time>2026-03-29T08:10:31.459Z</time></trkpt><trkpt lat="45.43173" lon="10.5064117"><ele>136.8</ele><time>2026-03-29T08:10:32.459Z</time></trkpt><trkpt lat="45.4318117" lon="10.5064267"><ele>137.4</ele><time>2026-03-29T08:10:33.459Z</time></trkpt><trkpt lat="45.4318867" lon="10.506495"><ele>138.0</ele><time>2026-03-29T08:10:35.459Z</time></trkpt><trkpt lat="45.43188" lon="10.5066417"><ele>138.0</ele><time>2026-03-29T08:10:37.459Z</time></trkpt><trkpt lat="45.431845" lon="10.5067467"><ele>138.0</ele><time>2026-03-29T08:10:38.458Z</time></trkpt><trkpt lat="45.431775" lon="10.506885"><ele>138.0</ele><time>2026-03-29T08:10:39.459Z</time></trkpt><trkpt lat="45.43168" lon="10.50705"><ele>138.0</ele><time>2026-03-29T08:10:40.459Z</time></trkpt><trkpt lat="45.4315633" lon="10.5072117"><ele>139.0</ele><time>2026-03-29T08:10:41.458Z</time></trkpt><trkpt lat="45.4314183" lon="10.507335"><ele>140.0</ele><time>2026-03-29T08:10:42.459Z</time></trkpt><trkpt lat="45.43126" lon="10.5074317"><ele>141.0</ele><time>2026-03-29T08:10:43.459Z</time></trkpt><trkpt lat="45.4310917" lon="10.5075217"><ele>138.66666666666666</ele><time>2026-03-29T08:10:44.459Z</time></trkpt><trkpt lat="45.430915" lon="10.5076483"><ele>136.33333333333331</ele><time>2026-03-29T08:10:45.459Z</time></trkpt><trkpt lat="45.4307467" lon="10.50779"><ele>134.0</ele><time>2026-03-29T08:10:46.459Z</time></trkpt><trkpt lat="45.4305867" lon="10.5079333"><ele>132.0</ele><time>2026-03-29T08:10:47.459Z</time></trkpt><trkpt lat="45.43044" lon="10.5080833"><ele>130.0</ele><time>2026-03-29T08:10:48.459Z</time></trkpt><trkpt lat="45.4302917" lon="10.5082183"><ele>128.0</ele><time>2026-03-29T08:10:49.459Z</time></trkpt><trkpt lat="45.430145" lon="10.5083583"><ele>128.0</ele><time>2026-03-29T08:10:50.459Z</time></trkpt><trkpt lat="45.4299967" lon="10.5085167"><ele>128.0</ele><time>2026-03-29T08:10:51.459Z</time></trkpt><trkpt lat="45.42985" lon="10.5087017"><ele>128.0</ele><time>2026-03-29T08:10:52.459Z</time></trkpt><trkpt lat="45.42971" lon="10.5089233"><ele>127.0</ele><time>2026-03-29T08:10:53.459Z</time></trkpt><trkpt lat="45.42959" lon="10.5091683"><ele>126.0</ele><time>2026-03-29T08:10:54.459Z</time></trkpt><trkpt lat="45.4294817" lon="10.509405"><ele>125.0</ele><time>2026-03-29T08:10:55.459Z</time></trkpt><trkpt lat="45.429375" lon="10.50963"><ele>124.66666666666666</ele><time>2026-03-29T08:10:56.459Z</time></trkpt><trkpt lat="45.4292783" lon="10.5098417"><ele>124.33333333333334</ele><time>2026-03-29T08:10:57.459Z</time></trkpt><trkpt lat="45.4291867" lon="10.5100517"><ele>124.0</ele><time>2026-03-29T08:10:58.459Z</time></trkpt><trkpt lat="45.4290933" lon="10.5102567"><ele>123.66666666666667</ele><time>2026-03-29T08:10:59.459Z</time></trkpt><trkpt lat="45.429" lon="10.510455"><ele>123.33333333333334</ele><time>2026-03-29T08:11:00.458Z</time></trkpt><trkpt lat="45.428915" lon="10.5106317"><ele>123.0</ele><time>2026-03-29T08:11:01.458Z</time></trkpt><trkpt lat="45.4288433" lon="10.5107917"><ele>122.4</ele><time>2026-03-29T08:11:02.459Z</time></trkpt><trkpt lat="45.428775" lon="10.5109383"><ele>121.80000000000001</ele><time>2026-03-29T08:11:03.459Z</time></trkpt><trkpt lat="45.428725" lon="10.511055"><ele>121.2</ele><time>2026-03-29T08:11:04.459Z</time></trkpt><trkpt lat="45.4287" lon="10.5111733"><ele>120.6</ele><time>2026-03-29T08:11:05.459Z</time></trkpt><trkpt lat="45.4287117" lon="10.5113067"><ele>120.0</ele><time>2026-03-29T08:11:06.458Z</time></trkpt><trkpt lat="45.428725" lon="10.5114567"><ele>120.0</ele><time>2026-03-29T08:11:07.459Z</time></trkpt><trkpt lat="45.4287267" lon="10.5116417"><ele>120.0</ele><time>2026-03-29T08:11:08.459Z</time></trkpt><trkpt lat="45.4287067" lon="10.5118517"><ele>120.0</ele><time>2026-03-29T08:11:09.459Z</time></trkpt><trkpt lat="45.42868" lon="10.5120817"><ele>120.0</ele><time>2026-03-29T08:11:10.459Z</time></trkpt><trkpt lat="45.4286383" lon="10.5123333"><ele>121.0</ele><time>2026-03-29T08:11:11.459Z</time></trkpt><trkpt lat="45.4286" lon="10.5125833"><ele>122.0</ele><time>2026-03-29T08:11:12.458Z</time></trkpt><trkpt lat="45.4285683" lon="10.512805"><ele>123.0</ele><time>2026-03-29T08:11:13.459Z</time></trkpt><trkpt lat="45.4285333" lon="10.5130017"><ele>123.0</ele><time>2026-03-29T08:11:14.459Z</time></trkpt><trkpt lat="45.4285083" lon="10.5131717"><ele>123.0</ele><time>2026-03-29T08:11:15.459Z</time></trkpt><trkpt lat="45.42849" lon="10.5133283"><ele>123.0</ele><time>2026-03-29T08:11:16.459Z</time></trkpt><trkpt lat="45.42847" lon="10.5134917"><ele>123.0</ele><time>2026-03-29T08:11:17.459Z</time></trkpt><trkpt lat="45.4284417" lon="10.5136583"><ele>122.80000000000001</ele><time>2026-03-29T08:11:18.459Z</time></trkpt><trkpt lat="45.4284183" lon="10.5138183"><ele>122.60000000000001</ele><time>2026-03-29T08:11:19.459Z</time></trkpt><trkpt lat="45.4284033" lon="10.51397"><ele>122.39999999999999</ele><time>2026-03-29T08:11:20.459Z</time></trkpt><trkpt lat="45.42838" lon="10.5140917"><ele>122.19999999999999</ele><time>2026-03-29T08:11:21.459Z</time></trkpt><trkpt lat="45.4283283" lon="10.51418"><ele>122.0</ele><time>2026-03-29T08:11:22.459Z</time></trkpt><trkpt lat="45.42828" lon="10.5142533"><ele>122.0</ele><time>2026-03-29T08:11:23.459Z</time></trkpt><trkpt lat="45.4282567" lon="10.5143983"><ele>121.99999999999999</ele><time>2026-03-29T08:11:25.459Z</time></trkpt><trkpt lat="45.4282783" lon="10.5145067"><ele>121.99999999999999</ele><time>2026-03-29T08:11:26.458Z</time></trkpt><trkpt lat="45.42829" lon="10.5146417"><ele>122.0</ele><time>2026-03-29T08:11:27.459Z</time></trkpt><trkpt lat="45.4282833" lon="10.5147833"><ele>122.0</ele><time>2026-03-29T08:11:28.459Z</time></trkpt><trkpt lat="45.4282517" lon="10.5149017"><ele>121.99999999999999</ele><time>2026-03-29T08:11:29.459Z</time></trkpt><trkpt lat="45.4282033" lon="10.5149867"><ele>122.0</ele><time>2026-03-29T08:11:30.459Z</time></trkpt><trkpt lat="45.4281517" lon="10.5150567"><ele>122.0</ele><time>2026-03-29T08:11:31.459Z</time></trkpt><trkpt lat="45.428065" lon="10.5151767"><ele>122.0</ele><time>2026-03-29T08:11:33.459Z</time></trkpt><trkpt lat="45.428015" lon="10.5152467"><ele>121.99999999999999</ele><time>2026-03-29T08:11:35.459Z</time></trkpt><trkpt lat="45.4279717" lon="10.5153283"><ele>122.0</ele><time>2026-03-29T08:11:47.459Z</time></trkpt><trkpt lat="45.4279767" lon="10.51547"><ele>121.99999999999999</ele><time>2026-03-29T08:17:17.458Z</time></trkpt><trkpt lat="45.427975" lon="10.515565"><ele>122.0</ele><time>2026-03-29T08:17:18.458Z</time></trkpt><trkpt lat="45.4279683" lon="10.5156833"><ele>122.0</ele><time>2026-03-29T08:17:19.458Z</time></trkpt><trkpt lat="45.427945" lon="10.5157967"><ele>122.0</ele><time>2026-03-29T08:17:20.458Z</time></trkpt><trkpt lat="45.427875" lon="10.5159133"><ele>121.99999999999999</ele><time>2026-03-29T08:17:22.458Z</time></trkpt><trkpt lat="45.4277683" lon="10.515935"><ele>122.0</ele><time>2026-03-29T08:17:24.458Z</time></trkpt><trkpt lat="45.427695" lon="10.5159283"><ele>121.99999999999999</ele><time>2026-03-29T08:17:25.457Z</time></trkpt><trkpt lat="45.4276283" lon="10.51591"><ele>122.0</ele><time>2026-03-29T08:17:26.458Z</time></trkpt><trkpt lat="45.4275583" lon="10.5158817"><ele>122.0</ele><time>2026-03-29T08:17:27.458Z</time></trkpt><trkpt lat="45.427485" lon="10.5158367"><ele>122.0</ele><time>2026-03-29T08:17:28.457Z</time></trkpt><trkpt lat="45.4274133" lon="10.515785"><ele>121.99999999999999</ele><time>2026-03-29T08:17:29.457Z</time></trkpt><trkpt lat="45.42735" lon="10.51573"><ele>122.0</ele><time>2026-03-29T08:17:30.458Z</time></trkpt><trkpt lat="45.4272633" lon="10.5156"><ele>121.99999999999999</ele><time>2026-03-29T08:17:32.458Z</time></trkpt><trkpt lat="45.4272217" lon="10.5155217"><ele>122.0</ele><time>2026-03-29T08:17:33.458Z</time></trkpt><trkpt lat="45.427185" lon="10.5154483"><ele>122.0</ele><time>2026-03-29T08:17:34.458Z</time></trkpt><trkpt lat="45.4270983" lon="10.515345"><ele>122.0</ele><time>2026-03-29T08:17:36.458Z</time></trkpt><trkpt lat="45.4269767" lon="10.5153633"><ele>121.99999999999999</ele><time>2026-03-29T08:17:38.457Z</time></trkpt><trkpt lat="45.426915" lon="10.5154217"><ele>122.0</ele><time>2026-03-29T08:17:39.458Z</time></trkpt><trkpt lat="45.4268533" lon="10.51549"><ele>122.19999999999999</ele><time>2026-03-29T08:17:40.458Z</time></trkpt><trkpt lat="45.42679" lon="10.5155533"><ele>122.39999999999999</ele><time>2026-03-29T08:17:41.458Z</time></trkpt><trkpt lat="45.4267033" lon="10.5155967"><ele>122.60000000000001</ele><time>2026-03-29T08:17:42.458Z</time></trkpt><trkpt lat="45.42662" lon="10.5156067"><ele>122.80000000000001</ele><time>2026-03-29T08:17:43.458Z</time></trkpt><trkpt lat="45.4265217" lon="10.51558"><ele>123.0</ele><time>2026-03-29T08:17:44.458Z</time></trkpt><trkpt lat="45.4264083" lon="10.51551"><ele>122.75</ele><time>2026-03-29T08:17:45.457Z</time></trkpt><trkpt lat="45.4262983" lon="10.5154417"><ele>122.5</ele><time>2026-03-29T08:17:46.458Z</time></trkpt><trkpt lat="45.4261867" lon="10.5153717"><ele>122.25</ele><time>2026-03-29T08:17:47.458Z</time></trkpt><trkpt lat="45.4260617" lon="10.5153033"><ele>122.0</ele><time>2026-03-29T08:17:48.458Z</time></trkpt><trkpt lat="45.4259183" lon="10.51522"><ele>122.0</ele><time>2026-03-29T08:17:49.457Z</time></trkpt><trkpt lat="45.4257717" lon="10.5151333"><ele>122.0</ele><time>2026-03-29T08:17:50.458Z</time></trkpt><trkpt lat="45.425605" lon="10.5150317"><ele>122.0</ele><time>2026-03-29T08:17:51.458Z</time></trkpt><trkpt lat="45.4254067" lon="10.51489"><ele>122.0</ele><time>2026-03-29T08:17:52.458Z</time></trkpt><trkpt lat="45.4251933" lon="10.5147167"><ele>122.0</ele><time>2026-03-29T08:17:53.458Z</time></trkpt><trkpt lat="45.4249733" lon="10.5145283"><ele>121.5</ele><time>2026-03-29T08:17:54.458Z</time></trkpt><trkpt lat="45.4247383" lon="10.5143367"><ele>121.0</ele><time>2026-03-29T08:17:55.458Z</time></trkpt><trkpt lat="45.42451" lon="10.51415"><ele>120.5</ele><time>2026-03-29T08:17:56.458Z</time></trkpt><trkpt lat="45.4243" lon="10.5139617"><ele>120.0</ele><time>2026-03-29T08:17:57.458Z</time></trkpt><trkpt lat="45.4241117" lon="10.5137817"><ele>120.0</ele><time>2026-03-29T08:17:58.458Z</time></trkpt><trkpt lat="45.4239383" lon="10.51361"><ele>120.0</ele><time>2026-03-29T08:17:59.458Z</time></trkpt><trkpt lat="45.4237667" lon="10.51345"><ele>120.0</ele><time>2026-03-29T08:18:00.458Z</time></trkpt><trkpt lat="45.4235917" lon="10.5132717"><ele>120.0</ele><time>2026-03-29T08:18:01.458Z</time></trkpt><trkpt lat="45.4234083" lon="10.5131"><ele>120.0</ele><time>2026-03-29T08:18:02.458Z</time></trkpt><trkpt lat="45.4232283" lon="10.51295"><ele>120.0</ele><time>2026-03-29T08:18:03.458Z</time></trkpt><trkpt lat="45.4230383" lon="10.5128183"><ele>120.66666666666666</ele><time>2026-03-29T08:18:04.458Z</time></trkpt><trkpt lat="45.4228583" lon="10.5126967"><ele>121.33333333333333</ele><time>2026-03-29T08:18:05.458Z</time></trkpt><trkpt lat="45.4226883" lon="10.5125917"><ele>122.0</ele><time>2026-03-29T08:18:06.458Z</time></trkpt><trkpt lat="45.4225383" lon="10.5124867"><ele>122.0</ele><time>2026-03-29T08:18:07.458Z</time></trkpt><trkpt lat="45.4223967" lon="10.51237"><ele>122.0</ele><time>2026-03-29T08:18:08.458Z</time></trkpt><trkpt lat="45.42227" lon="10.5122083"><ele>122.0</ele><time>2026-03-29T08:18:09.458Z</time></trkpt><trkpt lat="45.4221433" lon="10.5120367"><ele>121.75</ele><time>2026-03-29T08:18:10.458Z</time></trkpt><trkpt lat="45.422045" lon="10.5118467"><ele>121.5</ele><time>2026-03-29T08:18:11.458Z</time></trkpt><trkpt lat="45.4219633" lon="10.5116633"><ele>121.25</ele><time>2026-03-29T08:18:12.458Z</time></trkpt><trkpt lat="45.4219167" lon="10.5114967"><ele>121.0</ele><time>2026-03-29T08:18:13.458Z</time></trkpt><trkpt lat="45.4218883" lon="10.5113167"><ele>120.83333333333334</ele><time>2026-03-29T08:18:14.458Z</time></trkpt><trkpt lat="45.42187" lon="10.51114"><ele>120.66666666666667</ele><time>2026-03-29T08:18:15.458Z</time></trkpt><trkpt lat="45.42187" lon="10.5110083"><ele>120.5</ele><time>2026-03-29T08:18:16.458Z</time></trkpt><trkpt lat="45.4218567" lon="10.5109117"><ele>120.33333333333334</ele><time>2026-03-29T08:18:17.458Z</time></trkpt><trkpt lat="45.4218017" lon="10.5108383"><ele>120.16666666666667</ele><time>2026-03-29T08:18:18.458Z</time></trkpt><trkpt lat="45.42172" lon="10.5108033"><ele>120.0</ele><time>2026-03-29T08:18:19.458Z</time></trkpt><trkpt lat="45.42163" lon="10.5107583"><ele>120.0</ele><time>2026-03-29T08:18:20.458Z</time></trkpt><trkpt lat="45.4215317" lon="10.5106817"><ele>120.0</ele><time>2026-03-29T08:18:21.458Z</time></trkpt><trkpt lat="45.4214233" lon="10.5105933"><ele>120.0</ele><time>2026-03-29T08:18:22.458Z</time></trkpt><trkpt lat="45.421305" lon="10.5105167"><ele>120.0</ele><time>2026-03-29T08:18:23.458Z</time></trkpt><trkpt lat="45.4211817" lon="10.5104817"><ele>120.5</ele><time>2026-03-29T08:18:24.458Z</time></trkpt><trkpt lat="45.42105" lon="10.5104783"><ele>121.0</ele><time>2026-03-29T08:18:25.458Z</time></trkpt><trkpt lat="45.420925" lon="10.5105217"><ele>121.5</ele><time>2026-03-29T08:18:26.457Z</time></trkpt><trkpt lat="45.4208167" lon="10.5105917"><ele>122.0</ele><time>2026-03-29T08:18:27.458Z</time></trkpt><trkpt lat="45.4207167" lon="10.51069"><ele>122.0</ele><time>2026-03-29T08:18:28.458Z</time></trkpt><trkpt lat="45.4206367" lon="10.510805"><ele>122.0</ele><time>2026-03-29T08:18:29.458Z</time></trkpt><trkpt lat="45.42059" lon="10.5109417"><ele>122.0</ele><time>2026-03-29T08:18:30.458Z</time></trkpt><trkpt lat="45.4205667" lon="10.511105"><ele>122.0</ele><time>2026-03-29T08:18:31.458Z</time></trkpt><trkpt lat="45.42057" lon="10.5112817"><ele>121.75</ele><time>2026-03-29T08:18:32.458Z</time></trkpt><trkpt lat="45.4205917" lon="10.511445"><ele>121.5</ele><time>2026-03-29T08:18:33.458Z</time></trkpt><trkpt lat="45.42064" lon="10.5115983"><ele>121.25</ele><time>2026-03-29T08:18:34.458Z</time></trkpt><trkpt lat="45.4207167" lon="10.5117433"><ele>121.0</ele><time>2026-03-29T08:18:35.457Z</time></trkpt><trkpt lat="45.4207883" lon="10.51188"><ele>121.00000000000001</ele><time>2026-03-29T08:18:36.458Z</time></trkpt><trkpt lat="45.4208233" lon="10.5120083"><ele>121.0</ele><time>2026-03-29T08:18:37.458Z</time></trkpt><trkpt lat="45.4208183" lon="10.51213"><ele>121.0</ele><time>2026-03-29T08:18:38.458Z</time></trkpt><trkpt lat="45.4207983" lon="10.5122233"><ele>121.0</ele><time>2026-03-29T08:18:39.458Z</time></trkpt><trkpt lat="45.4207633" lon="10.5123067"><ele>121.00000000000001</ele><time>2026-03-29T08:18:40.458Z</time></trkpt><trkpt lat="45.4207267" lon="10.5123933"><ele>121.0</ele><time>2026-03-29T08:18:41.457Z</time></trkpt><trkpt lat="45.4207033" lon="10.5124967"><ele>121.00000000000001</ele><time>2026-03-29T08:18:42.458Z</time></trkpt><trkpt lat="45.4206967" lon="10.5126367"><ele>121.0</ele><time>2026-03-29T08:18:43.458Z</time></trkpt><trkpt lat="45.4206967" lon="10.51278"><ele>121.0</ele><time>2026-03-29T08:18:44.458Z</time></trkpt><trkpt lat="45.4206917" lon="10.5128817"><ele>121.0</ele><time>2026-03-29T08:18:45.458Z</time></trkpt><trkpt lat="45.420695" lon="10.5129883"><ele>121.00000000000001</ele><time>2026-03-29T08:18:48.458Z</time></trkpt><trkpt lat="45.4207433" lon="10.5128667"><ele>121.0</ele><time>2026-03-29T08:18:51.458Z</time></trkpt><trkpt lat="45.42074" lon="10.5127417"><ele>120.8</ele><time>2026-03-29T08:18:52.458Z</time></trkpt><trkpt lat="45.420735" lon="10.512575"><ele>120.6</ele><time>2026-03-29T08:18:53.458Z</time></trkpt><trkpt lat="45.4207317" lon="10.512425"><ele>120.4</ele><time>2026-03-29T08:18:54.457Z</time></trkpt><trkpt lat="45.420735" lon="10.5123283"><ele>120.2</ele><time>2026-03-29T08:18:55.458Z</time></trkpt><trkpt lat="45.4207167" lon="10.512215"><ele>120.0</ele><time>2026-03-29T08:18:57.458Z</time></trkpt><trkpt lat="45.4205933" lon="10.5121933"><ele>120.0</ele><time>2026-03-29T08:18:59.458Z</time></trkpt><trkpt lat="45.4205033" lon="10.512245"><ele>120.0</ele><time>2026-03-29T08:19:00.458Z</time></trkpt><trkpt lat="45.4203967" lon="10.5123283"><ele>120.0</ele><time>2026-03-29T08:19:01.458Z</time></trkpt><trkpt lat="45.4202733" lon="10.5124067"><ele>120.0</ele><time>2026-03-29T08:19:02.458Z</time></trkpt><trkpt lat="45.4201117" lon="10.5124717"><ele>120.33333333333334</ele><time>2026-03-29T08:19:03.458Z</time></trkpt><trkpt lat="45.4199433" lon="10.5125267"><ele>120.66666666666667</ele><time>2026-03-29T08:19:04.458Z</time></trkpt><trkpt lat="45.419765" lon="10.5126"><ele>121.0</ele><time>2026-03-29T08:19:05.458Z</time></trkpt><trkpt lat="45.4195883" lon="10.5126617"><ele>121.33333333333334</ele><time>2026-03-29T08:19:06.458Z</time></trkpt><trkpt lat="45.4193967" lon="10.5127017"><ele>121.66666666666666</ele><time>2026-03-29T08:19:07.458Z</time></trkpt><trkpt lat="45.4191883" lon="10.5127217"><ele>122.0</ele><time>2026-03-29T08:19:08.458Z</time></trkpt><trkpt lat="45.4189733" lon="10.5127333"><ele>120.33333333333333</ele><time>2026-03-29T08:19:09.457Z</time></trkpt><trkpt lat="45.41876" lon="10.5127333"><ele>118.66666666666666</ele><time>2026-03-29T08:19:10.458Z</time></trkpt><trkpt lat="45.4185367" lon="10.51275"><ele>117.0</ele><time>2026-03-29T08:19:11.458Z</time></trkpt><trkpt lat="45.418315" lon="10.51277"><ele>117.0</ele><time>2026-03-29T08:19:12.458Z</time></trkpt><trkpt lat="45.4180933" lon="10.51279"><ele>117.0</ele><time>2026-03-29T08:19:13.458Z</time></trkpt><trkpt lat="45.4178667" lon="10.5127967"><ele>117.0</ele><time>2026-03-29T08:19:14.458Z</time></trkpt><trkpt lat="45.4176383" lon="10.5128217"><ele>116.0</ele><time>2026-03-29T08:19:15.458Z</time></trkpt><trkpt lat="45.4174083" lon="10.5128467"><ele>115.0</ele><time>2026-03-29T08:19:16.458Z</time></trkpt><trkpt lat="45.417175" lon="10.512865"><ele>115.5</ele><time>2026-03-29T08:19:17.458Z</time></trkpt><trkpt lat="45.4169433" lon="10.5128917"><ele>116.0</ele><time>2026-03-29T08:19:18.458Z</time></trkpt><trkpt lat="45.4167167" lon="10.5129117"><ele>116.0</ele><time>2026-03-29T08:19:19.458Z</time></trkpt><trkpt lat="45.4165017" lon="10.5129233"><ele>116.0</ele><time>2026-03-29T08:19:20.458Z</time></trkpt><trkpt lat="45.416295" lon="10.5129433"><ele>116.0</ele><time>2026-03-29T08:19:21.458Z</time></trkpt><trkpt lat="45.4161083" lon="10.5129583"><ele>116.0</ele><time>2026-03-29T08:19:22.458Z</time></trkpt><trkpt lat="45.4159383" lon="10.5129667"><ele>116.0</ele><time>2026-03-29T08:19:23.458Z</time></trkpt><trkpt lat="45.41578" lon="10.5129833"><ele>116.0</ele><time>2026-03-29T08:19:24.457Z</time></trkpt><trkpt lat="45.4156333" lon="10.5129783"><ele>116.0</ele><time>2026-03-29T08:19:25.458Z</time></trkpt><trkpt lat="45.4155033" lon="10.5129667"><ele>116.0</ele><time>2026-03-29T08:19:26.457Z</time></trkpt><trkpt lat="45.415385" lon="10.5129417"><ele>116.0</ele><time>2026-03-29T08:19:27.458Z</time></trkpt><trkpt lat="45.4152817" lon="10.5129217"><ele>116.0</ele><time>2026-03-29T08:19:28.458Z</time></trkpt><trkpt lat="45.415185" lon="10.512905"><ele>115.8</ele><time>2026-03-29T08:19:29.458Z</time></trkpt><trkpt lat="45.415105" lon="10.512885"><ele>115.6</ele><time>2026-03-29T08:19:30.458Z</time></trkpt><trkpt lat="45.4150367" lon="10.512875"><ele>115.4</ele><time>2026-03-29T08:19:31.458Z</time></trkpt><trkpt lat="45.4149633" lon="10.5129267"><ele>115.2</ele><time>2026-03-29T08:19:33.458Z</time></trkpt><trkpt lat="45.4149433" lon="10.5131267"><ele>115.0</ele><time>2026-03-29T08:19:35.458Z</time></trkpt><trkpt lat="45.4149333" lon="10.5132717"><ele>115.2</ele><time>2026-03-29T08:19:36.457Z</time></trkpt><trkpt lat="45.4149267" lon="10.5134467"><ele>115.4</ele><time>2026-03-29T08:19:37.458Z</time></trkpt><trkpt lat="45.4149267" lon="10.5136117"><ele>115.6</ele><time>2026-03-29T08:19:38.458Z</time></trkpt><trkpt lat="45.4149183" lon="10.5137533"><ele>115.8</ele><time>2026-03-29T08:19:39.458Z</time></trkpt><trkpt lat="45.4149" lon="10.513865"><ele>116.0</ele><time>2026-03-29T08:19:40.458Z</time></trkpt><trkpt lat="45.4148167" lon="10.513975"><ele>116.0</ele><time>2026-03-29T08:19:42.458Z</time></trkpt><trkpt lat="45.41474" lon="10.513995"><ele>116.0</ele><time>2026-03-29T08:19:43.458Z</time></trkpt><trkpt lat="45.4146333" lon="10.513995"><ele>116.0</ele><time>2026-03-29T08:19:44.457Z</time></trkpt><trkpt lat="45.4145067" lon="10.513985"><ele>116.0</ele><time>2026-03-29T08:19:45.458Z</time></trkpt><trkpt lat="45.4143667" lon="10.5139867"><ele>116.0</ele><time>2026-03-29T08:19:46.458Z</time></trkpt><trkpt lat="45.4142333" lon="10.5139917"><ele>116.0</ele><time>2026-03-29T08:19:47.458Z</time></trkpt><trkpt lat="45.41411" lon="10.5140417"><ele>116.0</ele><time>2026-03-29T08:19:48.458Z</time></trkpt><trkpt lat="45.413975" lon="10.51412"><ele>116.0</ele><time>2026-03-29T08:19:49.458Z</time></trkpt><trkpt lat="45.41383" lon="10.5141983"><ele>116.4</ele><time>2026-03-29T08:19:50.458Z</time></trkpt><trkpt lat="45.4136883" lon="10.514255"><ele>116.8</ele><time>2026-03-29T08:19:51.458Z</time></trkpt><trkpt lat="45.41357" lon="10.514305"><ele>117.20000000000002</ele><time>2026-03-29T08:19:52.458Z</time></trkpt><trkpt lat="45.413485" lon="10.51436"><ele>117.60000000000001</ele><time>2026-03-29T08:19:53.458Z</time></trkpt><trkpt lat="45.4134233" lon="10.5144217"><ele>118.0</ele><time>2026-03-29T08:19:54.458Z</time></trkpt><trkpt lat="45.4133783" lon="10.51451"><ele>117.5</ele><time>2026-03-29T08:19:55.458Z</time></trkpt><trkpt lat="45.413345" lon="10.51464"><ele>117.0</ele><time>2026-03-29T08:19:56.458Z</time></trkpt><trkpt lat="45.4133133" lon="10.5148067"><ele>116.5</ele><time>2026-03-29T08:19:57.457Z</time></trkpt><trkpt lat="45.413285" lon="10.5149917"><ele>116.0</ele><time>2026-03-29T08:19:58.458Z</time></trkpt><trkpt lat="45.413235" lon="10.5152067"><ele>116.0</ele><time>2026-03-29T08:19:59.458Z</time></trkpt><trkpt lat="45.4131783" lon="10.5154283"><ele>116.0</ele><time>2026-03-29T08:20:00.458Z</time></trkpt><trkpt lat="45.413115" lon="10.5156417"><ele>116.0</ele><time>2026-03-29T08:20:01.458Z</time></trkpt><trkpt lat="45.4130433" lon="10.51586"><ele>115.66666666666666</ele><time>2026-03-29T08:20:02.458Z</time></trkpt><trkpt lat="45.4129633" lon="10.5160883"><ele>115.33333333333334</ele><time>2026-03-29T08:20:03.458Z</time></trkpt><trkpt lat="45.41288" lon="10.516325"><ele>115.0</ele><time>2026-03-29T08:20:04.457Z</time></trkpt><trkpt lat="45.4127967" lon="10.5165533"><ele>114.66666666666667</ele><time>2026-03-29T08:20:05.458Z</time></trkpt><trkpt lat="45.412725" lon="10.516785"><ele>114.33333333333334</ele><time>2026-03-29T08:20:06.458Z</time></trkpt><trkpt lat="45.41265" lon="10.5170017"><ele>114.0</ele><time>2026-03-29T08:20:07.458Z</time></trkpt><trkpt lat="45.4125883" lon="10.51721"><ele>114.0</ele><time>2026-03-29T08:20:08.458Z</time></trkpt><trkpt lat="45.4125" lon="10.5174067"><ele>114.0</ele><time>2026-03-29T08:20:09.458Z</time></trkpt><trkpt lat="45.412395" lon="10.5175683"><ele>114.0</ele><time>2026-03-29T08:20:10.458Z</time></trkpt><trkpt lat="45.412275" lon="10.51772"><ele>115.0</ele><time>2026-03-29T08:20:11.458Z</time></trkpt><trkpt lat="45.4121433" lon="10.5178667"><ele>116.0</ele><time>2026-03-29T08:20:12.457Z</time></trkpt><trkpt lat="45.4120067" lon="10.5180183"><ele>117.0</ele><time>2026-03-29T08:20:13.458Z</time></trkpt><trkpt lat="45.4118767" lon="10.518195"><ele>117.66666666666666</ele><time>2026-03-29T08:20:14.458Z</time></trkpt><trkpt lat="45.4117667" lon="10.5183733"><ele>118.33333333333333</ele><time>2026-03-29T08:20:15.458Z</time></trkpt><trkpt lat="45.4116783" lon="10.5185467"><ele>119.0</ele><time>2026-03-29T08:20:16.458Z</time></trkpt><trkpt lat="45.4116" lon="10.5187117"><ele>119.0</ele><time>2026-03-29T08:20:17.458Z</time></trkpt><trkpt lat="45.4115317" lon="10.51886"><ele>119.0</ele><time>2026-03-29T08:20:18.458Z</time></trkpt><trkpt lat="45.41146" lon="10.5189867"><ele>119.0</ele><time>2026-03-29T08:20:19.457Z</time></trkpt><trkpt lat="45.411395" lon="10.5191017"><ele>119.0</ele><time>2026-03-29T08:20:20.458Z</time></trkpt><trkpt lat="45.4113417" lon="10.5191983"><ele>119.0</ele><time>2026-03-29T08:20:21.458Z</time></trkpt><trkpt lat="45.4112933" lon="10.5192783"><ele>118.99999999999999</ele><time>2026-03-29T08:20:22.458Z</time></trkpt><trkpt lat="45.41132" lon="10.519415"><ele>119.0</ele><time>2026-03-29T08:20:24.457Z</time></trkpt><trkpt lat="45.411375" lon="10.5194767"><ele>119.0</ele><time>2026-03-29T08:20:25.458Z</time></trkpt><trkpt lat="45.4114367" lon="10.5195583"><ele>119.0</ele><time>2026-03-29T08:20:26.458Z</time></trkpt><trkpt lat="45.4114883" lon="10.51965"><ele>118.99999999999999</ele><time>2026-03-29T08:20:27.458Z</time></trkpt><trkpt lat="45.4115233" lon="10.5197733"><ele>119.0</ele><time>2026-03-29T08:20:28.458Z</time></trkpt><trkpt lat="45.4115333" lon="10.5199133"><ele>118.5</ele><time>2026-03-29T08:20:29.458Z</time></trkpt><trkpt lat="45.411535" lon="10.52009"><ele>118.0</ele><time>2026-03-29T08:20:30.458Z</time></trkpt><trkpt lat="45.41153" lon="10.5202867"><ele>117.5</ele><time>2026-03-29T08:20:31.458Z</time></trkpt><trkpt lat="45.4115283" lon="10.5204783"><ele>117.0</ele><time>2026-03-29T08:20:32.458Z</time></trkpt><trkpt lat="45.41154" lon="10.5206433"><ele>116.8</ele><time>2026-03-29T08:20:33.458Z</time></trkpt><trkpt lat="45.4115583" lon="10.520785"><ele>116.6</ele><time>2026-03-29T08:20:34.458Z</time></trkpt><trkpt lat="45.4116017" lon="10.52091"><ele>116.39999999999999</ele><time>2026-03-29T08:20:35.458Z</time></trkpt><trkpt lat="45.4116717" lon="10.5209917"><ele>116.19999999999999</ele><time>2026-03-29T08:20:36.458Z</time></trkpt><trkpt lat="45.4117567" lon="10.521055"><ele>116.0</ele><time>2026-03-29T08:20:37.457Z</time></trkpt><trkpt lat="45.4118633" lon="10.5211017"><ele>116.0</ele><time>2026-03-29T08:20:38.458Z</time></trkpt><trkpt lat="45.41196" lon="10.5211667"><ele>116.0</ele><time>2026-03-29T08:20:39.458Z</time></trkpt><trkpt lat="45.4120433" lon="10.5212283"><ele>116.0</ele><time>2026-03-29T08:20:40.458Z</time></trkpt><trkpt lat="45.41211" lon="10.5213233"><ele>116.0</ele><time>2026-03-29T08:20:41.458Z</time></trkpt><trkpt lat="45.41215" lon="10.5214567"><ele>116.0</ele><time>2026-03-29T08:20:42.458Z</time></trkpt><trkpt lat="45.4121617" lon="10.5215967"><ele>116.19999999999999</ele><time>2026-03-29T08:20:43.457Z</time></trkpt><trkpt lat="45.4121417" lon="10.5217633"><ele>116.39999999999999</ele><time>2026-03-29T08:20:44.458Z</time></trkpt><trkpt lat="45.4121017" lon="10.52192"><ele>116.6</ele><time>2026-03-29T08:20:45.457Z</time></trkpt><trkpt lat="45.4120483" lon="10.5220317"><ele>116.8</ele><time>2026-03-29T08:20:46.458Z</time></trkpt><trkpt lat="45.4119967" lon="10.5221083"><ele>117.0</ele><time>2026-03-29T08:20:47.458Z</time></trkpt><trkpt lat="45.411925" lon="10.522145"><ele>117.0</ele><time>2026-03-29T08:20:48.458Z</time></trkpt><trkpt lat="45.4118617" lon="10.52215"><ele>116.99999999999999</ele><time>2026-03-29T08:20:49.458Z</time></trkpt><trkpt lat="45.4117967" lon="10.5221017"><ele>116.99999999999999</ele><time>2026-03-29T08:20:50.458Z</time></trkpt><trkpt lat="45.41171" lon="10.5220333"><ele>117.0</ele><time>2026-03-29T08:20:51.458Z</time></trkpt><trkpt lat="45.4115933" lon="10.52197"><ele>117.0</ele><time>2026-03-29T08:20:52.458Z</time></trkpt><trkpt lat="45.4114467" lon="10.5219283"><ele>117.25</ele><time>2026-03-29T08:20:53.458Z</time></trkpt><trkpt lat="45.4113033" lon="10.521915"><ele>117.5</ele><time>2026-03-29T08:20:54.458Z</time></trkpt><trkpt lat="45.411155" lon="10.5219233"><ele>117.75</ele><time>2026-03-29T08:20:55.458Z</time></trkpt><trkpt lat="45.4110017" lon="10.5219433"><ele>118.0</ele><time>2026-03-29T08:20:56.458Z</time></trkpt><trkpt lat="45.410835" lon="10.5219983"><ele>118.0</ele><time>2026-03-29T08:20:57.458Z</time></trkpt><trkpt lat="45.4106583" lon="10.5220617"><ele>118.0</ele><time>2026-03-29T08:20:58.458Z</time></trkpt><trkpt lat="45.4104783" lon="10.5221367"><ele>118.0</ele><time>2026-03-29T08:20:59.457Z</time></trkpt><trkpt lat="45.41029" lon="10.5222233"><ele>118.66666666666667</ele><time>2026-03-29T08:21:00.458Z</time></trkpt><trkpt lat="45.4100933" lon="10.5223"><ele>119.33333333333334</ele><time>2026-03-29T08:21:01.458Z</time></trkpt><trkpt lat="45.4098967" lon="10.5223833"><ele>120.0</ele><time>2026-03-29T08:21:02.457Z</time></trkpt><trkpt lat="45.409695" lon="10.5224733"><ele>121.66666666666666</ele><time>2026-03-29T08:21:03.458Z</time></trkpt><trkpt lat="45.409515" lon="10.5225533"><ele>123.33333333333333</ele><time>2026-03-29T08:21:04.457Z</time></trkpt><trkpt lat="45.409355" lon="10.5226233"><ele>125.0</ele><time>2026-03-29T08:21:05.458Z</time></trkpt><trkpt lat="45.40921" lon="10.5226933"><ele>125.0</ele><time>2026-03-29T08:21:06.458Z</time></trkpt><trkpt lat="45.4090733" lon="10.522755"><ele>125.0</ele><time>2026-03-29T08:21:07.458Z</time></trkpt><trkpt lat="45.4089417" lon="10.5228133"><ele>125.0</ele><time>2026-03-29T08:21:08.458Z</time></trkpt><trkpt lat="45.408815" lon="10.522865"><ele>125.0</ele><time>2026-03-29T08:21:09.458Z</time></trkpt><trkpt lat="45.4087033" lon="10.5229217"><ele>125.33333333333333</ele><time>2026-03-29T08:21:10.458Z</time></trkpt><trkpt lat="45.4086067" lon="10.5229717"><ele>125.66666666666666</ele><time>2026-03-29T08:21:11.457Z</time></trkpt><trkpt lat="45.408525" lon="10.5230217"><ele>126.0</ele><time>2026-03-29T08:21:12.458Z</time></trkpt><trkpt lat="45.40844" lon="10.5230333"><ele>126.33333333333334</ele><time>2026-03-29T08:21:13.458Z</time></trkpt><trkpt lat="45.4083683" lon="10.5230567"><ele>126.66666666666667</ele><time>2026-03-29T08:21:14.457Z</time></trkpt><trkpt lat="45.4082833" lon="10.5230867"><ele>127.0</ele><time>2026-03-29T08:21:15.458Z</time></trkpt><trkpt lat="45.4081933" lon="10.523125"><ele>127.0</ele><time>2026-03-29T08:21:16.458Z</time></trkpt><trkpt lat="45.4080917" lon="10.5231917"><ele>127.0</ele><time>2026-03-29T08:21:17.458Z</time></trkpt><trkpt lat="45.4079833" lon="10.5232783"><ele>127.0</ele><time>2026-03-29T08:21:18.458Z</time></trkpt><trkpt lat="45.4078717" lon="10.5233633"><ele>127.0</ele><time>2026-03-29T08:21:19.458Z</time></trkpt><trkpt lat="45.4077617" lon="10.52346"><ele>127.5</ele><time>2026-03-29T08:21:20.458Z</time></trkpt><trkpt lat="45.4076533" lon="10.5235433"><ele>128.0</ele><time>2026-03-29T08:21:21.457Z</time></trkpt><trkpt lat="45.4075367" lon="10.5236383"><ele>128.5</ele><time>2026-03-29T08:21:22.458Z</time></trkpt><trkpt lat="45.407415" lon="10.5237417"><ele>129.0</ele><time>2026-03-29T08:21:23.458Z</time></trkpt><trkpt lat="45.4072983" lon="10.5238333"><ele>129.16666666666666</ele><time>2026-03-29T08:21:24.458Z</time></trkpt><trkpt lat="45.4072033" lon="10.5239067"><ele>129.33333333333334</ele><time>2026-03-29T08:21:25.457Z</time></trkpt><trkpt lat="45.407125" lon="10.52397"><ele>129.5</ele><time>2026-03-29T08:21:26.458Z</time></trkpt><trkpt lat="45.40706" lon="10.524015"><ele>129.66666666666669</ele><time>2026-03-29T08:21:27.458Z</time></trkpt><trkpt lat="45.406985" lon="10.524065"><ele>129.83333333333334</ele><time>2026-03-29T08:21:29.458Z</time></trkpt><trkpt lat="45.406925" lon="10.524115"><ele>130.0</ele><time>2026-03-29T08:22:24.457Z</time></trkpt><trkpt lat="45.4068683" lon="10.52416"><ele>130.8</ele><time>2026-03-29T08:22:25.457Z</time></trkpt><trkpt lat="45.406795" lon="10.52422"><ele>131.6</ele><time>2026-03-29T08:22:26.458Z</time></trkpt><trkpt lat="45.4067017" lon="10.5242833"><ele>132.4</ele><time>2026-03-29T08:22:27.458Z</time></trkpt><trkpt lat="45.406595" lon="10.5243517"><ele>133.2</ele><time>2026-03-29T08:22:28.458Z</time></trkpt><trkpt lat="45.4064883" lon="10.52444"><ele>134.0</ele><time>2026-03-29T08:22:29.458Z</time></trkpt><trkpt lat="45.4063883" lon="10.5245317"><ele>133.2</ele><time>2026-03-29T08:22:30.458Z</time></trkpt><trkpt lat="45.406305" lon="10.5246217"><ele>132.4</ele><time>2026-03-29T08:22:31.457Z</time></trkpt><trkpt lat="45.4062333" lon="10.5246967"><ele>131.6</ele><time>2026-03-29T08:22:32.458Z</time></trkpt><trkpt lat="45.4061683" lon="10.5247767"><ele>130.8</ele><time>2026-03-29T08:22:33.458Z</time></trkpt><trkpt lat="45.4061017" lon="10.5248733"><ele>130.0</ele><time>2026-03-29T08:22:34.458Z</time></trkpt><trkpt lat="45.40602" lon="10.524985"><ele>130.0</ele><time>2026-03-29T08:22:35.458Z</time></trkpt><trkpt lat="45.40592" lon="10.525115"><ele>130.0</ele><time>2026-03-29T08:22:36.458Z</time></trkpt><trkpt lat="45.4058017" lon="10.5252583"><ele>130.0</ele><time>2026-03-29T08:22:37.458Z</time></trkpt><trkpt lat="45.40568" lon="10.5254067"><ele>130.25</ele><time>2026-03-29T08:22:38.458Z</time></trkpt><trkpt lat="45.40557" lon="10.52556"><ele>130.5</ele><time>2026-03-29T08:22:39.458Z</time></trkpt><trkpt lat="45.4054717" lon="10.52571"><ele>130.75</ele><time>2026-03-29T08:22:40.458Z</time></trkpt><trkpt lat="45.4053767" lon="10.525845"><ele>131.0</ele><time>2026-03-29T08:22:41.458Z</time></trkpt><trkpt lat="45.4052783" lon="10.525975"><ele>131.33333333333331</ele><time>2026-03-29T08:22:42.458Z</time></trkpt><trkpt lat="45.405185" lon="10.5261117"><ele>131.66666666666666</ele><time>2026-03-29T08:22:43.458Z</time></trkpt><trkpt lat="45.40508" lon="10.52627"><ele>132.0</ele><time>2026-03-29T08:22:44.458Z</time></trkpt><trkpt lat="45.404955" lon="10.5264367"><ele>132.0</ele><time>2026-03-29T08:22:45.458Z</time></trkpt><trkpt lat="45.4048133" lon="10.5266133"><ele>132.0</ele><time>2026-03-29T08:22:46.458Z</time></trkpt><trkpt lat="45.4046867" lon="10.5268"><ele>132.0</ele><time>2026-03-29T08:22:47.458Z</time></trkpt><trkpt lat="45.404555" lon="10.526985"><ele>132.33333333333334</ele><time>2026-03-29T08:22:48.458Z</time></trkpt><trkpt lat="45.4044367" lon="10.5271617"><ele>132.66666666666669</ele><time>2026-03-29T08:22:49.458Z</time></trkpt><trkpt lat="45.40432" lon="10.5273183"><ele>133.0</ele><time>2026-03-29T08:22:50.458Z</time></trkpt><trkpt lat="45.4042183" lon="10.5274583"><ele>133.0</ele><time>2026-03-29T08:22:51.458Z</time></trkpt><trkpt lat="45.4041267" lon="10.52758"><ele>133.0</ele><time>2026-03-29T08:22:52.458Z</time></trkpt><trkpt lat="45.4040317" lon="10.5276783"><ele>133.0</ele><time>2026-03-29T08:22:53.458Z</time></trkpt><trkpt lat="45.4039317" lon="10.5277233"><ele>133.0</ele><time>2026-03-29T08:22:54.458Z</time></trkpt><trkpt lat="45.40383" lon="10.52773"><ele>133.0</ele><time>2026-03-29T08:22:55.458Z</time></trkpt><trkpt lat="45.4037133" lon="10.527715"><ele>133.5</ele><time>2026-03-29T08:22:56.458Z</time></trkpt><trkpt lat="45.403585" lon="10.5277233"><ele>134.0</ele><time>2026-03-29T08:22:57.458Z</time></trkpt><trkpt lat="45.40345" lon="10.5277517"><ele>134.5</ele><time>2026-03-29T08:22:58.458Z</time></trkpt><trkpt lat="45.403305" lon="10.5277933"><ele>135.0</ele><time>2026-03-29T08:22:59.458Z</time></trkpt><trkpt lat="45.4031633" lon="10.5278267"><ele>135.0</ele><time>2026-03-29T08:23:00.458Z</time></trkpt><trkpt lat="45.403035" lon="10.52785"><ele>135.0</ele><time>2026-03-29T08:23:01.457Z</time></trkpt><trkpt lat="45.4029117" lon="10.52788"><ele>135.0</ele><time>2026-03-29T08:23:02.458Z</time></trkpt><trkpt lat="45.4027867" lon="10.527915"><ele>135.0</ele><time>2026-03-29T08:23:03.458Z</time></trkpt><trkpt lat="45.402665" lon="10.5279917"><ele>136.0</ele><time>2026-03-29T08:23:04.458Z</time></trkpt><trkpt lat="45.40254" lon="10.5280867"><ele>137.0</ele><time>2026-03-29T08:23:05.457Z</time></trkpt><trkpt lat="45.402415" lon="10.5282033"><ele>138.0</ele><time>2026-03-29T08:23:06.458Z</time></trkpt><trkpt lat="45.402275" lon="10.5283133"><ele>138.0</ele><time>2026-03-29T08:23:07.458Z</time></trkpt><trkpt lat="45.4021283" lon="10.528445"><ele>138.0</ele><time>2026-03-29T08:23:08.458Z</time></trkpt><trkpt lat="45.401975" lon="10.5285883"><ele>138.0</ele><time>2026-03-29T08:23:09.458Z</time></trkpt><trkpt lat="45.4018067" lon="10.528725"><ele>137.66666666666666</ele><time>2026-03-29T08:23:10.458Z</time></trkpt><trkpt lat="45.4016267" lon="10.5288683"><ele>137.33333333333331</ele><time>2026-03-29T08:23:11.458Z</time></trkpt><trkpt lat="45.4014367" lon="10.5290183"><ele>137.0</ele><time>2026-03-29T08:23:12.458Z</time></trkpt><trkpt lat="45.4012483" lon="10.5291767"><ele>136.66666666666666</ele><time>2026-03-29T08:23:13.457Z</time></trkpt><trkpt lat="45.401065" lon="10.5293367"><ele>136.33333333333334</ele><time>2026-03-29T08:23:14.458Z</time></trkpt><trkpt lat="45.4008917" lon="10.5294883"><ele>136.0</ele><time>2026-03-29T08:23:15.458Z</time></trkpt><trkpt lat="45.40073" lon="10.5296383"><ele>135.66666666666669</ele><time>2026-03-29T08:23:16.458Z</time></trkpt><trkpt lat="45.4005633" lon="10.529785"><ele>135.33333333333334</ele><time>2026-03-29T08:23:17.458Z</time></trkpt><trkpt lat="45.4003883" lon="10.529935"><ele>135.0</ele><time>2026-03-29T08:23:18.458Z</time></trkpt><trkpt lat="45.400225" lon="10.5300833"><ele>135.25</ele><time>2026-03-29T08:23:19.458Z</time></trkpt><trkpt lat="45.40008" lon="10.53021"><ele>135.5</ele><time>2026-03-29T08:23:20.458Z</time></trkpt><trkpt lat="45.3999533" lon="10.5303233"><ele>135.75</ele><time>2026-03-29T08:23:21.458Z</time></trkpt><trkpt lat="45.3998483" lon="10.5304233"><ele>136.0</ele><time>2026-03-29T08:23:22.458Z</time></trkpt><trkpt lat="45.3997417" lon="10.5305417"><ele>134.5</ele><time>2026-03-29T08:23:23.458Z</time></trkpt><trkpt lat="45.39963" lon="10.53068"><ele>133.0</ele><time>2026-03-29T08:23:24.458Z</time></trkpt><trkpt lat="45.3995283" lon="10.5308017"><ele>131.5</ele><time>2026-03-29T08:23:25.458Z</time></trkpt><trkpt lat="45.399435" lon="10.5309133"><ele>130.0</ele><time>2026-03-29T08:23:26.458Z</time></trkpt><trkpt lat="45.39935" lon="10.5310317"><ele>130.0</ele><time>2026-03-29T08:23:27.458Z</time></trkpt><trkpt lat="45.3992783" lon="10.5311733"><ele>130.0</ele><time>2026-03-29T08:23:28.458Z</time></trkpt><trkpt lat="45.3991933" lon="10.5313283"><ele>130.0</ele><time>2026-03-29T08:23:29.458Z</time></trkpt><trkpt lat="45.3991233" lon="10.53149"><ele>130.0</ele><time>2026-03-29T08:23:30.458Z</time></trkpt><trkpt lat="45.399055" lon="10.5316183"><ele>130.4</ele><time>2026-03-29T08:23:31.458Z</time></trkpt><trkpt lat="45.3989933" lon="10.5317283"><ele>130.8</ele><time>2026-03-29T08:23:32.458Z</time></trkpt><trkpt lat="45.3989317" lon="10.5318317"><ele>131.2</ele><time>2026-03-29T08:23:33.458Z</time></trkpt><trkpt lat="45.3988583" lon="10.531935"><ele>131.6</ele><time>2026-03-29T08:23:34.458Z</time></trkpt><trkpt lat="45.3987767" lon="10.532035"><ele>132.0</ele><time>2026-03-29T08:23:35.458Z</time></trkpt><trkpt lat="45.39869" lon="10.532145"><ele>131.2</ele><time>2026-03-29T08:23:36.458Z</time></trkpt><trkpt lat="45.3986033" lon="10.5322567"><ele>130.39999999999998</ele><time>2026-03-29T08:23:37.458Z</time></trkpt><trkpt lat="45.3985233" lon="10.53236"><ele>129.60000000000002</ele><time>2026-03-29T08:23:38.458Z</time></trkpt><trkpt lat="45.3984533" lon="10.532445"><ele>128.8</ele><time>2026-03-29T08:23:39.458Z</time></trkpt><trkpt lat="45.3983967" lon="10.5325217"><ele>128.0</ele><time>2026-03-29T08:23:40.458Z</time></trkpt><trkpt lat="45.3983367" lon="10.532635"><ele>128.0</ele><time>2026-03-29T08:23:42.458Z</time></trkpt><trkpt lat="45.3983333" lon="10.5327667"><ele>128.0</ele><time>2026-03-29T08:23:44.457Z</time></trkpt><trkpt lat="45.3983717" lon="10.5328567"><ele>128.0</ele><time>2026-03-29T08:23:45.458Z</time></trkpt><trkpt lat="45.3984467" lon="10.5330017"><ele>128.0</ele><time>2026-03-29T08:23:47.458Z</time></trkpt><trkpt lat="45.3984917" lon="10.5330883"><ele>128.0</ele><time>2026-03-29T08:23:48.458Z</time></trkpt><trkpt lat="45.3985433" lon="10.5332"><ele>128.0</ele><time>2026-03-29T08:23:49.458Z</time></trkpt><trkpt lat="45.398595" lon="10.5333467"><ele>128.0</ele><time>2026-03-29T08:23:50.458Z</time></trkpt><trkpt lat="45.3986417" lon="10.533515"><ele>128.0</ele><time>2026-03-29T08:23:51.457Z</time></trkpt><trkpt lat="45.3986867" lon="10.5336883"><ele>128.0</ele><time>2026-03-29T08:23:52.458Z</time></trkpt><trkpt lat="45.39874" lon="10.533835"><ele>127.75</ele><time>2026-03-29T08:23:53.458Z</time></trkpt><trkpt lat="45.398815" lon="10.5339667"><ele>127.5</ele><time>2026-03-29T08:23:54.458Z</time></trkpt><trkpt lat="45.3989117" lon="10.5341017"><ele>127.25</ele><time>2026-03-29T08:23:55.458Z</time></trkpt><trkpt lat="45.3990317" lon="10.5342417"><ele>127.0</ele><time>2026-03-29T08:23:56.458Z</time></trkpt><trkpt lat="45.3991433" lon="10.5343817"><ele>127.0</ele><time>2026-03-29T08:23:57.458Z</time></trkpt><trkpt lat="45.3992367" lon="10.5345217"><ele>127.0</ele><time>2026-03-29T08:23:58.458Z</time></trkpt><trkpt lat="45.399315" lon="10.5346733"><ele>127.0</ele><time>2026-03-29T08:23:59.458Z</time></trkpt><trkpt lat="45.3993733" lon="10.5348433"><ele>127.0</ele><time>2026-03-29T08:24:00.457Z</time></trkpt><trkpt lat="45.3994233" lon="10.53502"><ele>128.0</ele><time>2026-03-29T08:24:01.458Z</time></trkpt><trkpt lat="45.3994533" lon="10.535205"><ele>129.0</ele><time>2026-03-29T08:24:02.458Z</time></trkpt><trkpt lat="45.39947" lon="10.5353733"><ele>130.0</ele><time>2026-03-29T08:24:03.458Z</time></trkpt><trkpt lat="45.3994733" lon="10.53555"><ele>131.0</ele><time>2026-03-29T08:24:04.458Z</time></trkpt><trkpt lat="45.399465" lon="10.5357483"><ele>131.0</ele><time>2026-03-29T08:24:05.458Z</time></trkpt><trkpt lat="45.3994533" lon="10.53597"><ele>131.0</ele><time>2026-03-29T08:24:06.458Z</time></trkpt><trkpt lat="45.3994333" lon="10.5362067"><ele>131.0</ele><time>2026-03-29T08:24:07.458Z</time></trkpt><trkpt lat="45.39941" lon="10.536445"><ele>130.0</ele><time>2026-03-29T08:24:08.458Z</time></trkpt><trkpt lat="45.3993883" lon="10.536685"><ele>129.0</ele><time>2026-03-29T08:24:09.458Z</time></trkpt><trkpt lat="45.3993667" lon="10.5369283"><ele>128.0</ele><time>2026-03-29T08:24:10.458Z</time></trkpt><trkpt lat="45.3993417" lon="10.5371767"><ele>126.66666666666666</ele><time>2026-03-29T08:24:11.458Z</time></trkpt><trkpt lat="45.399305" lon="10.5374367"><ele>125.33333333333334</ele><time>2026-03-29T08:24:12.458Z</time></trkpt><trkpt lat="45.3992633" lon="10.5376833"><ele>124.0</ele><time>2026-03-29T08:24:13.458Z</time></trkpt><trkpt lat="45.3992117" lon="10.5379267"><ele>123.0</ele><time>2026-03-29T08:24:14.458Z</time></trkpt><trkpt lat="45.3991617" lon="10.5381467"><ele>122.0</ele><time>2026-03-29T08:24:15.458Z</time></trkpt><trkpt lat="45.399125" lon="10.538375"><ele>121.0</ele><time>2026-03-29T08:24:16.458Z</time></trkpt><trkpt lat="45.399095" lon="10.538605"><ele>120.66666666666667</ele><time>2026-03-29T08:24:17.458Z</time></trkpt><trkpt lat="45.3990833" lon="10.5388283"><ele>120.33333333333334</ele><time>2026-03-29T08:24:18.458Z</time></trkpt><trkpt lat="45.3990633" lon="10.539045"><ele>120.0</ele><time>2026-03-29T08:24:19.458Z</time></trkpt><trkpt lat="45.399045" lon="10.5392533"><ele>120.0</ele><time>2026-03-29T08:24:20.458Z</time></trkpt><trkpt lat="45.3990267" lon="10.539465"><ele>120.0</ele><time>2026-03-29T08:24:21.458Z</time></trkpt><trkpt lat="45.3990017" lon="10.5396517"><ele>120.0</ele><time>2026-03-29T08:24:22.458Z</time></trkpt><trkpt lat="45.39897" lon="10.5398433"><ele>120.0</ele><time>2026-03-29T08:24:23.458Z</time></trkpt><trkpt lat="45.3989183" lon="10.54005"><ele>119.5</ele><time>2026-03-29T08:24:24.458Z</time></trkpt><trkpt lat="45.3988567" lon="10.5402383"><ele>119.0</ele><time>2026-03-29T08:24:25.458Z</time></trkpt><trkpt lat="45.3988083" lon="10.5404267"><ele>118.5</ele><time>2026-03-29T08:24:26.457Z</time></trkpt><trkpt lat="45.3987533" lon="10.5405933"><ele>118.0</ele><time>2026-03-29T08:24:27.457Z</time></trkpt><trkpt lat="45.3987083" lon="10.5407583"><ele>118.0</ele><time>2026-03-29T08:24:28.458Z</time></trkpt><trkpt lat="45.398655" lon="10.540915"><ele>118.00000000000001</ele><time>2026-03-29T08:24:29.458Z</time></trkpt><trkpt lat="45.398615" lon="10.5410583"><ele>118.00000000000001</ele><time>2026-03-29T08:24:30.458Z</time></trkpt><trkpt lat="45.3985833" lon="10.541205"><ele>118.0</ele><time>2026-03-29T08:24:31.458Z</time></trkpt><trkpt lat="45.3985717" lon="10.54135"><ele>118.0</ele><time>2026-03-29T08:24:32.458Z</time></trkpt><trkpt lat="45.3985883" lon="10.5414733"><ele>117.16666666666667</ele><time>2026-03-29T08:24:33.458Z</time></trkpt><trkpt lat="45.3986283" lon="10.5415883"><ele>116.33333333333334</ele><time>2026-03-29T08:24:34.458Z</time></trkpt><trkpt lat="45.3986883" lon="10.541695"><ele>115.5</ele><time>2026-03-29T08:24:35.458Z</time></trkpt><trkpt lat="45.39875" lon="10.541805"><ele>114.66666666666666</ele><time>2026-03-29T08:24:36.458Z</time></trkpt><trkpt lat="45.3987833" lon="10.5419017"><ele>113.83333333333333</ele><time>2026-03-29T08:24:37.457Z</time></trkpt><trkpt lat="45.3987933" lon="10.5420133"><ele>113.0</ele><time>2026-03-29T08:24:38.458Z</time></trkpt><trkpt lat="45.3987833" lon="10.5421417"><ele>112.5</ele><time>2026-03-29T08:24:39.458Z</time></trkpt><trkpt lat="45.3987517" lon="10.5422767"><ele>112.0</ele><time>2026-03-29T08:24:40.458Z</time></trkpt><trkpt lat="45.3987017" lon="10.54243"><ele>111.5</ele><time>2026-03-29T08:24:41.458Z</time></trkpt><trkpt lat="45.3986417" lon="10.5426167"><ele>111.0</ele><time>2026-03-29T08:24:42.458Z</time></trkpt><trkpt lat="45.3985933" lon="10.5428317"><ele>111.0</ele><time>2026-03-29T08:24:43.458Z</time></trkpt><trkpt lat="45.3985517" lon="10.543055"><ele>111.0</ele><time>2026-03-29T08:24:44.458Z</time></trkpt><trkpt lat="45.3984967" lon="10.543275"><ele>111.0</ele><time>2026-03-29T08:24:45.458Z</time></trkpt><trkpt lat="45.3984233" lon="10.5435017"><ele>111.66666666666666</ele><time>2026-03-29T08:24:46.458Z</time></trkpt><trkpt lat="45.3983367" lon="10.5437383"><ele>112.33333333333333</ele><time>2026-03-29T08:24:47.458Z</time></trkpt><trkpt lat="45.39825" lon="10.5439817"><ele>113.0</ele><time>2026-03-29T08:24:48.458Z</time></trkpt><trkpt lat="45.3981533" lon="10.5442233"><ele>113.0</ele><time>2026-03-29T08:24:49.458Z</time></trkpt><trkpt lat="45.3980483" lon="10.5444483"><ele>113.0</ele><time>2026-03-29T08:24:50.458Z</time></trkpt><trkpt lat="45.3979417" lon="10.5446467"><ele>113.0</ele><time>2026-03-29T08:24:51.458Z</time></trkpt><trkpt lat="45.3978483" lon="10.5448217"><ele>113.0</ele><time>2026-03-29T08:24:52.458Z</time></trkpt><trkpt lat="45.397765" lon="10.54499"><ele>113.0</ele><time>2026-03-29T08:24:53.458Z</time></trkpt><trkpt lat="45.3977083" lon="10.5451817"><ele>113.0</ele><time>2026-03-29T08:24:54.457Z</time></trkpt><trkpt lat="45.3976567" lon="10.545385"><ele>113.0</ele><time>2026-03-29T08:24:55.458Z</time></trkpt><trkpt lat="45.3976083" lon="10.5455717"><ele>113.0</ele><time>2026-03-29T08:24:56.458Z</time></trkpt><trkpt lat="45.3975817" lon="10.5457483"><ele>113.0</ele><time>2026-03-29T08:24:57.458Z</time></trkpt><trkpt lat="45.3975717" lon="10.5459267"><ele>113.0</ele><time>2026-03-29T08:24:58.458Z</time></trkpt><trkpt lat="45.39759" lon="10.5461083"><ele>113.0</ele><time>2026-03-29T08:24:59.458Z</time></trkpt><trkpt lat="45.3976183" lon="10.5463117"><ele>113.0</ele><time>2026-03-29T08:25:00.458Z</time></trkpt><trkpt lat="45.397645" lon="10.5465233"><ele>113.0</ele><time>2026-03-29T08:25:01.458Z</time></trkpt><trkpt lat="45.3976517" lon="10.5467367"><ele>113.0</ele><time>2026-03-29T08:25:02.458Z</time></trkpt><trkpt lat="45.3976367" lon="10.54695"><ele>114.0</ele><time>2026-03-29T08:25:03.457Z</time></trkpt><trkpt lat="45.3975967" lon="10.5471617"><ele>115.0</ele><time>2026-03-29T08:25:04.458Z</time></trkpt><trkpt lat="45.3975383" lon="10.547385"><ele>116.0</ele><time>2026-03-29T08:25:05.458Z</time></trkpt><trkpt lat="45.39748" lon="10.547595"><ele>116.0</ele><time>2026-03-29T08:25:06.458Z</time></trkpt><trkpt lat="45.397435" lon="10.5477967"><ele>116.0</ele><time>2026-03-29T08:25:07.458Z</time></trkpt><trkpt lat="45.3974" lon="10.5480067"><ele>116.0</ele><time>2026-03-29T08:25:08.458Z</time></trkpt><trkpt lat="45.39737" lon="10.548245"><ele>116.33333333333333</ele><time>2026-03-29T08:25:09.458Z</time></trkpt><trkpt lat="45.3973433" lon="10.5484917"><ele>116.66666666666666</ele><time>2026-03-29T08:25:10.458Z</time></trkpt><trkpt lat="45.39731" lon="10.548765"><ele>117.0</ele><time>2026-03-29T08:25:11.458Z</time></trkpt><trkpt lat="45.3972883" lon="10.5490367"><ele>118.0</ele><time>2026-03-29T08:25:12.458Z</time></trkpt><trkpt lat="45.3972633" lon="10.549285"><ele>119.0</ele><time>2026-03-29T08:25:13.458Z</time></trkpt><trkpt lat="45.3972367" lon="10.5495417"><ele>120.0</ele><time>2026-03-29T08:25:14.458Z</time></trkpt><trkpt lat="45.3972033" lon="10.549805"><ele>118.66666666666666</ele><time>2026-03-29T08:25:15.458Z</time></trkpt><trkpt lat="45.3971667" lon="10.550055"><ele>117.33333333333333</ele><time>2026-03-29T08:25:16.458Z</time></trkpt><trkpt lat="45.3971333" lon="10.5502933"><ele>116.0</ele><time>2026-03-29T08:25:17.458Z</time></trkpt><trkpt lat="45.3971" lon="10.5505167"><ele>115.75</ele><time>2026-03-29T08:25:18.458Z</time></trkpt><trkpt lat="45.39706" lon="10.5507333"><ele>115.5</ele><time>2026-03-29T08:25:19.458Z</time></trkpt><trkpt lat="45.3970033" lon="10.550925"><ele>115.25</ele><time>2026-03-29T08:25:20.458Z</time></trkpt><trkpt lat="45.396955" lon="10.5511067"><ele>115.0</ele><time>2026-03-29T08:25:21.458Z</time></trkpt><trkpt lat="45.3969133" lon="10.5512783"><ele>116.2</ele><time>2026-03-29T08:25:22.458Z</time></trkpt><trkpt lat="45.396895" lon="10.551435"><ele>117.4</ele><time>2026-03-29T08:25:23.458Z</time></trkpt><trkpt lat="45.396885" lon="10.5515583"><ele>118.6</ele><time>2026-03-29T08:25:24.458Z</time></trkpt><trkpt lat="45.39686" lon="10.5516867"><ele>119.8</ele><time>2026-03-29T08:25:26.458Z</time></trkpt><trkpt lat="45.3967917" lon="10.551715"><ele>121.0</ele><time>2026-03-29T08:25:28.458Z</time></trkpt><trkpt lat="45.3966833" lon="10.5517017"><ele>121.0</ele><time>2026-03-29T08:25:30.458Z</time></trkpt><trkpt lat="45.396605" lon="10.551705"><ele>121.0</ele><time>2026-03-29T08:25:31.458Z</time></trkpt><trkpt lat="45.3964983" lon="10.5517083"><ele>121.0</ele><time>2026-03-29T08:25:32.458Z</time></trkpt><trkpt lat="45.396375" lon="10.5517183"><ele>121.0</ele><time>2026-03-29T08:25:33.458Z</time></trkpt><trkpt lat="45.396245" lon="10.551725"><ele>121.0</ele><time>2026-03-29T08:25:34.458Z</time></trkpt><trkpt lat="45.3961133" lon="10.5517267"><ele>121.19999999999999</ele><time>2026-03-29T08:25:35.458Z</time></trkpt><trkpt lat="45.3959833" lon="10.5517317"><ele>121.39999999999999</ele><time>2026-03-29T08:25:36.458Z</time></trkpt><trkpt lat="45.3958883" lon="10.5517433"><ele>121.6</ele><time>2026-03-29T08:25:37.458Z</time></trkpt><trkpt lat="45.3957917" lon="10.5517633"><ele>121.8</ele><time>2026-03-29T08:25:38.458Z</time></trkpt><trkpt lat="45.3956867" lon="10.5517833"><ele>122.0</ele><time>2026-03-29T08:25:39.457Z</time></trkpt><trkpt lat="45.395575" lon="10.55181"><ele>122.25</ele><time>2026-03-29T08:25:40.458Z</time></trkpt><trkpt lat="45.3954717" lon="10.551815"><ele>122.5</ele><time>2026-03-29T08:25:41.458Z</time></trkpt><trkpt lat="45.3953517" lon="10.5517967"><ele>122.75</ele><time>2026-03-29T08:25:42.458Z</time></trkpt><trkpt lat="45.395235" lon="10.551755"><ele>123.0</ele><time>2026-03-29T08:25:43.458Z</time></trkpt><trkpt lat="45.3951167" lon="10.55171"><ele>123.0</ele><time>2026-03-29T08:25:44.458Z</time></trkpt><trkpt lat="45.394985" lon="10.5516283"><ele>123.0</ele><time>2026-03-29T08:25:45.458Z</time></trkpt><trkpt lat="45.3948417" lon="10.5515733"><ele>123.0</ele><time>2026-03-29T08:25:46.458Z</time></trkpt><trkpt lat="45.3947033" lon="10.5515383"><ele>123.0</ele><time>2026-03-29T08:25:47.458Z</time></trkpt><trkpt lat="45.3945533" lon="10.5515167"><ele>121.5</ele><time>2026-03-29T08:25:48.457Z</time></trkpt><trkpt lat="45.394415" lon="10.5515367"><ele>120.0</ele><time>2026-03-29T08:25:49.458Z</time></trkpt><trkpt lat="45.39427" lon="10.5515467"><ele>118.5</ele><time>2026-03-29T08:25:50.457Z</time></trkpt><trkpt lat="45.3941217" lon="10.5515767"><ele>117.0</ele><time>2026-03-29T08:25:51.458Z</time></trkpt><trkpt lat="45.3939933" lon="10.5516217"><ele>117.0</ele><time>2026-03-29T08:25:52.458Z</time></trkpt><trkpt lat="45.393875" lon="10.551665"><ele>117.0</ele><time>2026-03-29T08:25:53.457Z</time></trkpt><trkpt lat="45.393765" lon="10.5517183"><ele>117.0</ele><time>2026-03-29T08:25:54.458Z</time></trkpt><trkpt lat="45.3936483" lon="10.5517817"><ele>117.0</ele><time>2026-03-29T08:25:55.458Z</time></trkpt><trkpt lat="45.39353" lon="10.5518367"><ele>116.0</ele><time>2026-03-29T08:25:56.458Z</time></trkpt><trkpt lat="45.393415" lon="10.5518917"><ele>114.99999999999999</ele><time>2026-03-29T08:25:57.458Z</time></trkpt><trkpt lat="45.3933167" lon="10.5519283"><ele>113.99999999999999</ele><time>2026-03-29T08:25:58.458Z</time></trkpt><trkpt lat="45.3932233" lon="10.5519167"><ele>113.0</ele><time>2026-03-29T08:25:59.457Z</time></trkpt><trkpt lat="45.3931383" lon="10.5518733"><ele>112.0</ele><time>2026-03-29T08:26:00.458Z</time></trkpt><trkpt lat="45.393045" lon="10.5517933"><ele>111.33333333333334</ele><time>2026-03-29T08:26:01.458Z</time></trkpt><trkpt lat="45.3929433" lon="10.5516667"><ele>110.66666666666666</ele><time>2026-03-29T08:26:02.457Z</time></trkpt><trkpt lat="45.39282" lon="10.5515483"><ele>110.0</ele><time>2026-03-29T08:26:03.458Z</time></trkpt><trkpt lat="45.3926683" lon="10.5514383"><ele>110.0</ele><time>2026-03-29T08:26:04.457Z</time></trkpt><trkpt lat="45.3924967" lon="10.5513583"><ele>110.0</ele><time>2026-03-29T08:26:05.458Z</time></trkpt><trkpt lat="45.3923133" lon="10.55129"><ele>110.0</ele><time>2026-03-29T08:26:06.457Z</time></trkpt><trkpt lat="45.392115" lon="10.551195"><ele>112.0</ele><time>2026-03-29T08:26:07.457Z</time></trkpt><trkpt lat="45.3919333" lon="10.5511117"><ele>114.0</ele><time>2026-03-29T08:26:08.458Z</time></trkpt><trkpt lat="45.391755" lon="10.551055"><ele>116.0</ele><time>2026-03-29T08:26:09.458Z</time></trkpt><trkpt lat="45.3915733" lon="10.5509967"><ele>116.0</ele><time>2026-03-29T08:26:10.458Z</time></trkpt><trkpt lat="45.391395" lon="10.5509233"><ele>116.0</ele><time>2026-03-29T08:26:11.458Z</time></trkpt><trkpt lat="45.39123" lon="10.550855"><ele>116.0</ele><time>2026-03-29T08:26:12.458Z</time></trkpt><trkpt lat="45.391095" lon="10.550785"><ele>116.75</ele><time>2026-03-29T08:26:13.458Z</time></trkpt><trkpt lat="45.39098" lon="10.5507183"><ele>117.5</ele><time>2026-03-29T08:26:14.458Z</time></trkpt><trkpt lat="45.39086" lon="10.5506783"><ele>118.25</ele><time>2026-03-29T08:26:15.458Z</time></trkpt><trkpt lat="45.3907433" lon="10.5506283"><ele>119.0</ele><time>2026-03-29T08:26:16.458Z</time></trkpt><trkpt lat="45.39067" lon="10.5505783"><ele>119.0</ele><time>2026-03-29T08:26:17.458Z</time></trkpt><trkpt lat="45.39061" lon="10.550465"><ele>119.0</ele><time>2026-03-29T08:26:19.457Z</time></trkpt><trkpt lat="45.3905867" lon="10.550375"><ele>119.0</ele><time>2026-03-29T08:26:20.458Z</time></trkpt><trkpt lat="45.390565" lon="10.5502533"><ele>119.0</ele><time>2026-03-29T08:26:21.458Z</time></trkpt><trkpt lat="45.3905383" lon="10.5501167"><ele>119.0</ele><time>2026-03-29T08:26:22.458Z</time></trkpt><trkpt lat="45.3905067" lon="10.549975"><ele>120.5</ele><time>2026-03-29T08:26:23.458Z</time></trkpt><trkpt lat="45.3904783" lon="10.549835"><ele>122.0</ele><time>2026-03-29T08:26:24.458Z</time></trkpt><trkpt lat="45.3904367" lon="10.54968"><ele>123.5</ele><time>2026-03-29T08:26:25.458Z</time></trkpt><trkpt lat="45.3903933" lon="10.549515"><ele>125.0</ele><time>2026-03-29T08:26:26.458Z</time></trkpt><trkpt lat="45.3903517" lon="10.549325"><ele>125.0</ele><time>2026-03-29T08:26:27.458Z</time></trkpt><trkpt lat="45.3903067" lon="10.5491083"><ele>125.0</ele><time>2026-03-29T08:26:28.458Z</time></trkpt><trkpt lat="45.3902517" lon="10.5488667"><ele>125.0</ele><time>2026-03-29T08:26:29.458Z</time></trkpt><trkpt lat="45.3901933" lon="10.54862"><ele>123.33333333333333</ele><time>2026-03-29T08:26:30.458Z</time></trkpt><trkpt lat="45.3901233" lon="10.5483517"><ele>121.66666666666666</ele><time>2026-03-29T08:26:31.458Z</time></trkpt><trkpt lat="45.390045" lon="10.5480733"><ele>120.0</ele><time>2026-03-29T08:26:32.458Z</time></trkpt><trkpt lat="45.3899617" lon="10.5477833"><ele>120.0</ele><time>2026-03-29T08:26:33.458Z</time></trkpt><trkpt lat="45.389875" lon="10.5474967"><ele>120.0</ele><time>2026-03-29T08:26:34.457Z</time></trkpt><trkpt lat="45.3897867" lon="10.547225"><ele>120.0</ele><time>2026-03-29T08:26:35.458Z</time></trkpt><trkpt lat="45.3896917" lon="10.5469533"><ele>119.66666666666666</ele><time>2026-03-29T08:26:36.458Z</time></trkpt><trkpt lat="45.3896083" lon="10.546685"><ele>119.33333333333333</ele><time>2026-03-29T08:26:37.458Z</time></trkpt><trkpt lat="45.38952" lon="10.5464183"><ele>119.0</ele><time>2026-03-29T08:26:38.458Z</time></trkpt><trkpt lat="45.38943" lon="10.54615"><ele>121.0</ele><time>2026-03-29T08:26:39.458Z</time></trkpt><trkpt lat="45.3893467" lon="10.545905"><ele>123.0</ele><time>2026-03-29T08:26:40.458Z</time></trkpt><trkpt lat="45.3892817" lon="10.5456883"><ele>125.0</ele><time>2026-03-29T08:26:41.458Z</time></trkpt><trkpt lat="45.3892067" lon="10.5455217"><ele>124.99999999999999</ele><time>2026-03-29T08:26:42.458Z</time></trkpt><trkpt lat="45.3891383" lon="10.5453883"><ele>125.0</ele><time>2026-03-29T08:26:43.458Z</time></trkpt><trkpt lat="45.3890983" lon="10.5452583"><ele>125.0</ele><time>2026-03-29T08:26:44.458Z</time></trkpt><trkpt lat="45.38906" lon="10.5451417"><ele>125.0</ele><time>2026-03-29T08:26:45.458Z</time></trkpt><trkpt lat="45.389025" lon="10.5450533"><ele>124.99999999999999</ele><time>2026-03-29T08:26:46.458Z</time></trkpt><trkpt lat="45.3889633" lon="10.5450017"><ele>125.0</ele><time>2026-03-29T08:26:48.458Z</time></trkpt><trkpt lat="45.38888" lon="10.545035"><ele>125.4</ele><time>2026-03-29T08:26:50.458Z</time></trkpt><trkpt lat="45.3887967" lon="10.5451317"><ele>125.8</ele><time>2026-03-29T08:26:52.458Z</time></trkpt><trkpt lat="45.3887433" lon="10.5452183"><ele>126.19999999999999</ele><time>2026-03-29T08:26:53.458Z</time></trkpt><trkpt lat="45.3886733" lon="10.545335"><ele>126.6</ele><time>2026-03-29T08:26:54.458Z</time></trkpt><trkpt lat="45.3885833" lon="10.5454733"><ele>127.0</ele><time>2026-03-29T08:26:55.457Z</time></trkpt><trkpt lat="45.3884883" lon="10.545605"><ele>125.66666666666667</ele><time>2026-03-29T08:26:56.458Z</time></trkpt><trkpt lat="45.3883783" lon="10.5457583"><ele>124.33333333333334</ele><time>2026-03-29T08:26:57.458Z</time></trkpt><trkpt lat="45.38826" lon="10.5459067"><ele>123.0</ele><time>2026-03-29T08:26:58.458Z</time></trkpt><trkpt lat="45.3881317" lon="10.5460467"><ele>123.0</ele><time>2026-03-29T08:26:59.458Z</time></trkpt><trkpt lat="45.387995" lon="10.54619"><ele>123.0</ele><time>2026-03-29T08:27:00.458Z</time></trkpt><trkpt lat="45.38785" lon="10.5463333"><ele>123.0</ele><time>2026-03-29T08:27:01.458Z</time></trkpt><trkpt lat="45.387705" lon="10.546475"><ele>123.33333333333334</ele><time>2026-03-29T08:27:02.458Z</time></trkpt><trkpt lat="45.3875683" lon="10.5466283"><ele>123.66666666666667</ele><time>2026-03-29T08:27:03.458Z</time></trkpt><trkpt lat="45.38743" lon="10.54678"><ele>124.0</ele><time>2026-03-29T08:27:04.458Z</time></trkpt><trkpt lat="45.38728" lon="10.5469283"><ele>124.33333333333334</ele><time>2026-03-29T08:27:05.458Z</time></trkpt><trkpt lat="45.38713" lon="10.5470733"><ele>124.66666666666666</ele><time>2026-03-29T08:27:06.458Z</time></trkpt><trkpt lat="45.3869917" lon="10.5472217"><ele>125.0</ele><time>2026-03-29T08:27:07.458Z</time></trkpt><trkpt lat="45.3868417" lon="10.5473583"><ele>125.0</ele><time>2026-03-29T08:27:08.458Z</time></trkpt><trkpt lat="45.386695" lon="10.5475033"><ele>125.0</ele><time>2026-03-29T08:27:09.458Z</time></trkpt><trkpt lat="45.3865517" lon="10.5476433"><ele>125.0</ele><time>2026-03-29T08:27:10.458Z</time></trkpt><trkpt lat="45.3864217" lon="10.5477733"><ele>125.0</ele><time>2026-03-29T08:27:11.457Z</time></trkpt><trkpt lat="45.3862967" lon="10.547905"><ele>125.0</ele><time>2026-03-29T08:27:12.458Z</time></trkpt><trkpt lat="45.38617" lon="10.5480417"><ele>125.0</ele><time>2026-03-29T08:27:13.457Z</time></trkpt><trkpt lat="45.3860433" lon="10.5481567"><ele>125.0</ele><time>2026-03-29T08:27:14.458Z</time></trkpt><trkpt lat="45.3859267" lon="10.5482417"><ele>125.0</ele><time>2026-03-29T08:27:15.458Z</time></trkpt><trkpt lat="45.385825" lon="10.5483067"><ele>125.0</ele><time>2026-03-29T08:27:16.458Z</time></trkpt><trkpt lat="45.3857333" lon="10.5483783"><ele>125.0</ele><time>2026-03-29T08:27:17.458Z</time></trkpt><trkpt lat="45.3856383" lon="10.5484817"><ele>125.0</ele><time>2026-03-29T08:27:18.458Z</time></trkpt><trkpt lat="45.3855417" lon="10.54861"><ele>125.0</ele><time>2026-03-29T08:27:19.457Z</time></trkpt><trkpt lat="45.3854433" lon="10.5487567"><ele>125.0</ele><time>2026-03-29T08:27:20.458Z</time></trkpt><trkpt lat="45.38535" lon="10.5489167"><ele>125.0</ele><time>2026-03-29T08:27:21.458Z</time></trkpt><trkpt lat="45.3852517" lon="10.5490767"><ele>126.0</ele><time>2026-03-29T08:27:22.457Z</time></trkpt><trkpt lat="45.3851433" lon="10.5492117"><ele>127.0</ele><time>2026-03-29T08:27:23.458Z</time></trkpt><trkpt lat="45.38503" lon="10.5493367"><ele>128.0</ele><time>2026-03-29T08:27:24.458Z</time></trkpt><trkpt lat="45.38492" lon="10.54945"><ele>129.0</ele><time>2026-03-29T08:27:25.458Z</time></trkpt><trkpt lat="45.384805" lon="10.549545"><ele>129.75</ele><time>2026-03-29T08:27:26.458Z</time></trkpt><trkpt lat="45.3846867" lon="10.5496467"><ele>130.5</ele><time>2026-03-29T08:27:27.458Z</time></trkpt><trkpt lat="45.3845683" lon="10.5497283"><ele>131.25</ele><time>2026-03-29T08:27:28.458Z</time></trkpt><trkpt lat="45.3844417" lon="10.5497883"><ele>132.0</ele><time>2026-03-29T08:27:29.458Z</time></trkpt><trkpt lat="45.3843033" lon="10.549855"><ele>132.5</ele><time>2026-03-29T08:27:30.458Z</time></trkpt><trkpt lat="45.3841917" lon="10.5499183"><ele>133.0</ele><time>2026-03-29T08:27:31.458Z</time></trkpt><trkpt lat="45.3840483" lon="10.5499783"><ele>133.5</ele><time>2026-03-29T08:27:32.458Z</time></trkpt><trkpt lat="45.3838883" lon="10.5500633"><ele>134.0</ele><time>2026-03-29T08:27:33.458Z</time></trkpt><trkpt lat="45.3837533" lon="10.550145"><ele>132.75</ele><time>2026-03-29T08:27:34.458Z</time></trkpt><trkpt lat="45.3836267" lon="10.5502267"><ele>131.5</ele><time>2026-03-29T08:27:35.457Z</time></trkpt><trkpt lat="45.3835083" lon="10.5503133"><ele>130.25</ele><time>2026-03-29T08:27:36.458Z</time></trkpt><trkpt lat="45.3833917" lon="10.5504"><ele>129.0</ele><time>2026-03-29T08:27:37.458Z</time></trkpt><trkpt lat="45.383275" lon="10.5504967"><ele>129.0</ele><time>2026-03-29T08:27:38.458Z</time></trkpt><trkpt lat="45.3831517" lon="10.5505917"><ele>129.0</ele><time>2026-03-29T08:27:39.458Z</time></trkpt><trkpt lat="45.383045" lon="10.550695"><ele>129.0</ele><time>2026-03-29T08:27:40.458Z</time></trkpt><trkpt lat="45.3829567" lon="10.5508033"><ele>129.0</ele><time>2026-03-29T08:27:41.458Z</time></trkpt><trkpt lat="45.3828417" lon="10.5508983"><ele>128.33333333333334</ele><time>2026-03-29T08:27:42.458Z</time></trkpt><trkpt lat="45.3826983" lon="10.5509783"><ele>127.66666666666667</ele><time>2026-03-29T08:27:43.458Z</time></trkpt><trkpt lat="45.3825383" lon="10.5510667"><ele>127.0</ele><time>2026-03-29T08:27:44.458Z</time></trkpt><trkpt lat="45.3823867" lon="10.5511433"><ele>126.33333333333334</ele><time>2026-03-29T08:27:45.458Z</time></trkpt><trkpt lat="45.382235" lon="10.5512117"><ele>125.66666666666666</ele><time>2026-03-29T08:27:46.458Z</time></trkpt><trkpt lat="45.3820867" lon="10.5512817"><ele>125.0</ele><time>2026-03-29T08:27:47.457Z</time></trkpt><trkpt lat="45.3819333" lon="10.5513533"><ele>125.0</ele><time>2026-03-29T08:27:48.457Z</time></trkpt><trkpt lat="45.3817783" lon="10.5514283"><ele>125.0</ele><time>2026-03-29T08:27:49.458Z</time></trkpt><trkpt lat="45.3816217" lon="10.5515067"><ele>125.0</ele><time>2026-03-29T08:27:50.458Z</time></trkpt><trkpt lat="45.3814733" lon="10.5516033"><ele>124.0</ele><time>2026-03-29T08:27:51.458Z</time></trkpt><trkpt lat="45.3813367" lon="10.5516983"><ele>123.0</ele><time>2026-03-29T08:27:52.458Z</time></trkpt><trkpt lat="45.3812133" lon="10.5518"><ele>122.0</ele><time>2026-03-29T08:27:53.458Z</time></trkpt><trkpt lat="45.3811033" lon="10.551895"><ele>121.0</ele><time>2026-03-29T08:27:54.458Z</time></trkpt><trkpt lat="45.3809983" lon="10.551975"><ele>121.75</ele><time>2026-03-29T08:27:55.458Z</time></trkpt><trkpt lat="45.380885" lon="10.5520567"><ele>122.5</ele><time>2026-03-29T08:27:56.458Z</time></trkpt><trkpt lat="45.380765" lon="10.5521383"><ele>123.25</ele><time>2026-03-29T08:27:57.458Z</time></trkpt><trkpt lat="45.3806617" lon="10.5522183"><ele>124.0</ele><time>2026-03-29T08:27:58.457Z</time></trkpt><trkpt lat="45.3805683" lon="10.5522967"><ele>123.80000000000001</ele><time>2026-03-29T08:27:59.458Z</time></trkpt><trkpt lat="45.3804933" lon="10.55239"><ele>123.60000000000001</ele><time>2026-03-29T08:28:00.458Z</time></trkpt><trkpt lat="45.38044" lon="10.5525017"><ele>123.4</ele><time>2026-03-29T08:28:01.457Z</time></trkpt><trkpt lat="45.380395" lon="10.552625"><ele>123.2</ele><time>2026-03-29T08:28:02.458Z</time></trkpt><trkpt lat="45.38036" lon="10.55276"><ele>123.0</ele><time>2026-03-29T08:28:03.458Z</time></trkpt><trkpt lat="45.380345" lon="10.5529267"><ele>123.0</ele><time>2026-03-29T08:28:04.458Z</time></trkpt><trkpt lat="45.38034" lon="10.5531033"><ele>123.00000000000001</ele><time>2026-03-29T08:28:05.458Z</time></trkpt><trkpt lat="45.38034" lon="10.553245"><ele>123.00000000000001</ele><time>2026-03-29T08:28:06.457Z</time></trkpt><trkpt lat="45.38036" lon="10.553365"><ele>123.0</ele><time>2026-03-29T08:28:07.458Z</time></trkpt><trkpt lat="45.3804067" lon="10.5534667"><ele>123.0</ele><time>2026-03-29T08:28:08.458Z</time></trkpt><trkpt lat="45.3804833" lon="10.55356"><ele>123.2</ele><time>2026-03-29T08:28:09.458Z</time></trkpt><trkpt lat="45.380565" lon="10.553645"><ele>123.4</ele><time>2026-03-29T08:28:10.458Z</time></trkpt><trkpt lat="45.3806417" lon="10.5537417"><ele>123.60000000000001</ele><time>2026-03-29T08:28:11.458Z</time></trkpt><trkpt lat="45.3807133" lon="10.5538733"><ele>123.80000000000001</ele><time>2026-03-29T08:28:12.458Z</time></trkpt><trkpt lat="45.380755" lon="10.55401"><ele>124.0</ele><time>2026-03-29T08:28:13.457Z</time></trkpt><trkpt lat="45.38076" lon="10.5541467"><ele>124.0</ele><time>2026-03-29T08:28:14.458Z</time></trkpt><trkpt lat="45.3807433" lon="10.55429"><ele>124.0</ele><time>2026-03-29T08:28:15.458Z</time></trkpt><trkpt lat="45.3806967" lon="10.55443"><ele>124.0</ele><time>2026-03-29T08:28:16.458Z</time></trkpt><trkpt lat="45.3806317" lon="10.5545717"><ele>124.0</ele><time>2026-03-29T08:28:17.458Z</time></trkpt><trkpt lat="45.380545" lon="10.554745"><ele>124.33333333333334</ele><time>2026-03-29T08:28:18.458Z</time></trkpt><trkpt lat="45.380465" lon="10.55491"><ele>124.66666666666666</ele><time>2026-03-29T08:28:19.458Z</time></trkpt><trkpt lat="45.3803833" lon="10.5550933"><ele>125.0</ele><time>2026-03-29T08:28:20.458Z</time></trkpt><trkpt lat="45.3803133" lon="10.5552983"><ele>125.75</ele><time>2026-03-29T08:28:21.458Z</time></trkpt><trkpt lat="45.3802433" lon="10.5554833"><ele>126.5</ele><time>2026-03-29T08:28:22.458Z</time></trkpt><trkpt lat="45.3801917" lon="10.5556233"><ele>127.25</ele><time>2026-03-29T08:28:23.458Z</time></trkpt><trkpt lat="45.3801583" lon="10.55572"><ele>128.0</ele><time>2026-03-29T08:28:24.458Z</time></trkpt><trkpt lat="45.3800967" lon="10.55586"><ele>128.0</ele><time>2026-03-29T08:28:26.458Z</time></trkpt><trkpt lat="45.380035" lon="10.5559483"><ele>128.0</ele><time>2026-03-29T08:28:27.458Z</time></trkpt><trkpt lat="45.3799317" lon="10.55607"><ele>128.0</ele><time>2026-03-29T08:28:28.458Z</time></trkpt><trkpt lat="45.3797883" lon="10.5562167"><ele>128.0</ele><time>2026-03-29T08:28:29.458Z</time></trkpt><trkpt lat="45.3796383" lon="10.5563567"><ele>128.0</ele><time>2026-03-29T08:28:30.458Z</time></trkpt><trkpt lat="45.3794967" lon="10.5564867"><ele>128.0</ele><time>2026-03-29T08:28:31.458Z</time></trkpt><trkpt lat="45.3793683" lon="10.5566217"><ele>128.0</ele><time>2026-03-29T08:28:32.458Z</time></trkpt><trkpt lat="45.3792517" lon="10.556755"><ele>128.0</ele><time>2026-03-29T08:28:33.458Z</time></trkpt><trkpt lat="45.3791517" lon="10.5568917"><ele>128.0</ele><time>2026-03-29T08:28:34.458Z</time></trkpt><trkpt lat="45.3790633" lon="10.55705"><ele>128.0</ele><time>2026-03-29T08:28:35.458Z</time></trkpt><trkpt lat="45.378985" lon="10.5572117"><ele>128.0</ele><time>2026-03-29T08:28:36.458Z</time></trkpt><trkpt lat="45.37891" lon="10.557365"><ele>128.75</ele><time>2026-03-29T08:28:37.458Z</time></trkpt><trkpt lat="45.378845" lon="10.55751"><ele>129.5</ele><time>2026-03-29T08:28:38.458Z</time></trkpt><trkpt lat="45.3787817" lon="10.5576633"><ele>130.25</ele><time>2026-03-29T08:28:39.458Z</time></trkpt><trkpt lat="45.3787217" lon="10.5578317"><ele>131.0</ele><time>2026-03-29T08:28:40.458Z</time></trkpt><trkpt lat="45.3786567" lon="10.5579967"><ele>131.0</ele><time>2026-03-29T08:28:41.458Z</time></trkpt><trkpt lat="45.3785917" lon="10.5581483"><ele>131.0</ele><time>2026-03-29T08:28:42.458Z</time></trkpt><trkpt lat="45.3785417" lon="10.5582767"><ele>131.0</ele><time>2026-03-29T08:28:43.458Z</time></trkpt><trkpt lat="45.3785067" lon="10.5583733"><ele>131.0</ele><time>2026-03-29T08:28:44.458Z</time></trkpt><trkpt lat="45.378485" lon="10.5584733"><ele>131.0</ele><time>2026-03-29T08:28:46.458Z</time></trkpt><trkpt lat="45.3785433" lon="10.558555"><ele>131.0</ele><time>2026-03-29T08:28:48.458Z</time></trkpt><trkpt lat="45.3786083" lon="10.55861"><ele>131.0</ele><time>2026-03-29T08:28:49.458Z</time></trkpt><trkpt lat="45.3787183" lon="10.5586767"><ele>131.0</ele><time>2026-03-29T08:28:50.458Z</time></trkpt><trkpt lat="45.3788633" lon="10.5587883"><ele>131.0</ele><time>2026-03-29T08:28:51.458Z</time></trkpt><trkpt lat="45.3790617" lon="10.558935"><ele>130.33333333333331</ele><time>2026-03-29T08:28:52.458Z</time></trkpt><trkpt lat="45.379215" lon="10.559085"><ele>129.66666666666666</ele><time>2026-03-29T08:28:53.458Z</time></trkpt><trkpt lat="45.3793267" lon="10.5592417"><ele>129.0</ele><time>2026-03-29T08:28:54.458Z</time></trkpt><trkpt lat="45.3794317" lon="10.5594117"><ele>128.33333333333334</ele><time>2026-03-29T08:28:55.458Z</time></trkpt><trkpt lat="45.3795217" lon="10.559635"><ele>127.66666666666667</ele><time>2026-03-29T08:28:56.458Z</time></trkpt><trkpt lat="45.3796167" lon="10.55987"><ele>127.0</ele><time>2026-03-29T08:28:57.458Z</time></trkpt><trkpt lat="45.379715" lon="10.560105"><ele>125.0</ele><time>2026-03-29T08:28:58.458Z</time></trkpt><trkpt lat="45.3798017" lon="10.5603033"><ele>123.0</ele><time>2026-03-29T08:28:59.457Z</time></trkpt><trkpt lat="45.3798917" lon="10.56045"><ele>121.0</ele><time>2026-03-29T08:29:00.458Z</time></trkpt><trkpt lat="45.3800167" lon="10.56059"><ele>121.0</ele><time>2026-03-29T08:29:01.458Z</time></trkpt><trkpt lat="45.3801517" lon="10.560685"><ele>121.0</ele><time>2026-03-29T08:29:02.458Z</time></trkpt><trkpt lat="45.3803317" lon="10.56075"><ele>121.0</ele><time>2026-03-29T08:29:03.458Z</time></trkpt><trkpt lat="45.3805167" lon="10.5608017"><ele>120.0</ele><time>2026-03-29T08:29:04.458Z</time></trkpt><trkpt lat="45.3807083" lon="10.560855"><ele>119.0</ele><time>2026-03-29T08:29:05.458Z</time></trkpt><trkpt lat="45.380915" lon="10.5609233"><ele>118.0</ele><time>2026-03-29T08:29:06.458Z</time></trkpt><trkpt lat="45.3811217" lon="10.560985"><ele>118.0</ele><time>2026-03-29T08:29:07.457Z</time></trkpt><trkpt lat="45.3813083" lon="10.5610333"><ele>118.0</ele><time>2026-03-29T08:29:08.458Z</time></trkpt><trkpt lat="45.3815" lon="10.56108"><ele>118.0</ele><time>2026-03-29T08:29:09.458Z</time></trkpt><trkpt lat="45.3816817" lon="10.5611367"><ele>116.66666666666667</ele><time>2026-03-29T08:29:10.458Z</time></trkpt><trkpt lat="45.381855" lon="10.5611867"><ele>115.33333333333334</ele><time>2026-03-29T08:29:11.458Z</time></trkpt><trkpt lat="45.382015" lon="10.5612217"><ele>114.0</ele><time>2026-03-29T08:29:12.458Z</time></trkpt><trkpt lat="45.3821633" lon="10.5612233"><ele>113.33333333333334</ele><time>2026-03-29T08:29:13.458Z</time></trkpt><trkpt lat="45.3823267" lon="10.561165"><ele>112.66666666666667</ele><time>2026-03-29T08:29:14.458Z</time></trkpt><trkpt lat="45.38248" lon="10.561035"><ele>112.0</ele><time>2026-03-29T08:29:15.458Z</time></trkpt><trkpt lat="45.3826233" lon="10.5608317"><ele>112.0</ele><time>2026-03-29T08:29:16.458Z</time></trkpt><trkpt lat="45.38276" lon="10.56065"><ele>112.0</ele><time>2026-03-29T08:29:17.458Z</time></trkpt><trkpt lat="45.3828867" lon="10.56051"><ele>112.0</ele><time>2026-03-29T08:29:18.457Z</time></trkpt><trkpt lat="45.38301" lon="10.5603967"><ele>112.66666666666667</ele><time>2026-03-29T08:29:19.458Z</time></trkpt><trkpt lat="45.3831517" lon="10.5603183"><ele>113.33333333333334</ele><time>2026-03-29T08:29:20.458Z</time></trkpt><trkpt lat="45.3833" lon="10.560275"><ele>114.0</ele><time>2026-03-29T08:29:21.458Z</time></trkpt><trkpt lat="45.3834767" lon="10.5602767"><ele>114.0</ele><time>2026-03-29T08:29:22.457Z</time></trkpt><trkpt lat="45.3836767" lon="10.5603117"><ele>114.0</ele><time>2026-03-29T08:29:23.458Z</time></trkpt><trkpt lat="45.383895" lon="10.5603733"><ele>114.0</ele><time>2026-03-29T08:29:24.458Z</time></trkpt><trkpt lat="45.3841333" lon="10.5604483"><ele>111.0</ele><time>2026-03-29T08:29:25.458Z</time></trkpt><trkpt lat="45.3843783" lon="10.5605217"><ele>108.0</ele><time>2026-03-29T08:29:26.457Z</time></trkpt><trkpt lat="45.3846383" lon="10.56061"><ele>107.0</ele><time>2026-03-29T08:29:27.458Z</time></trkpt><trkpt lat="45.3849067" lon="10.5607083"><ele>106.0</ele><time>2026-03-29T08:29:28.458Z</time></trkpt><trkpt lat="45.3852017" lon="10.5608067"><ele>106.0</ele><time>2026-03-29T08:29:29.458Z</time></trkpt><trkpt lat="45.3855067" lon="10.560905"><ele>106.0</ele><time>2026-03-29T08:29:30.458Z</time></trkpt><trkpt lat="45.385805" lon="10.5610083"><ele>105.0</ele><time>2026-03-29T08:29:31.458Z</time></trkpt><trkpt lat="45.3860867" lon="10.5611017"><ele>104.0</ele><time>2026-03-29T08:29:32.458Z</time></trkpt><trkpt lat="45.38634" lon="10.561195"><ele>105.0</ele><time>2026-03-29T08:29:33.458Z</time></trkpt><trkpt lat="45.3865817" lon="10.5612783"><ele>106.0</ele><time>2026-03-29T08:29:34.458Z</time></trkpt><trkpt lat="45.3868033" lon="10.56135"><ele>106.0</ele><time>2026-03-29T08:29:35.458Z</time></trkpt><trkpt lat="45.3870067" lon="10.5614233"><ele>106.0</ele><time>2026-03-29T08:29:36.458Z</time></trkpt><trkpt lat="45.387205" lon="10.5614717"><ele>106.0</ele><time>2026-03-29T08:29:37.458Z</time></trkpt><trkpt lat="45.387385" lon="10.561495"><ele>107.33333333333334</ele><time>2026-03-29T08:29:38.458Z</time></trkpt><trkpt lat="45.387565" lon="10.561475"><ele>108.66666666666666</ele><time>2026-03-29T08:29:39.457Z</time></trkpt><trkpt lat="45.3877433" lon="10.5613883"><ele>110.0</ele><time>2026-03-29T08:29:40.458Z</time></trkpt><trkpt lat="45.3879133" lon="10.5612283"><ele>113.0</ele><time>2026-03-29T08:29:41.458Z</time></trkpt><trkpt lat="45.38806" lon="10.5610517"><ele>116.0</ele><time>2026-03-29T08:29:42.458Z</time></trkpt><trkpt lat="45.38819" lon="10.5609133"><ele>119.0</ele><time>2026-03-29T08:29:43.458Z</time></trkpt><trkpt lat="45.38832" lon="10.56082"><ele>119.0</ele><time>2026-03-29T08:29:44.458Z</time></trkpt><trkpt lat="45.38846" lon="10.560755"><ele>119.0</ele><time>2026-03-29T08:29:45.458Z</time></trkpt><trkpt lat="45.3886117" lon="10.56074"><ele>119.0</ele><time>2026-03-29T08:29:46.458Z</time></trkpt><trkpt lat="45.3887817" lon="10.5607833"><ele>120.66666666666666</ele><time>2026-03-29T08:29:47.458Z</time></trkpt><trkpt lat="45.388975" lon="10.5608283"><ele>122.33333333333334</ele><time>2026-03-29T08:29:48.458Z</time></trkpt><trkpt lat="45.3891767" lon="10.560895"><ele>124.0</ele><time>2026-03-29T08:29:49.457Z</time></trkpt><trkpt lat="45.38935" lon="10.560965"><ele>124.0</ele><time>2026-03-29T08:29:50.458Z</time></trkpt><trkpt lat="45.3895117" lon="10.5610133"><ele>124.0</ele><time>2026-03-29T08:29:51.458Z</time></trkpt><trkpt lat="45.3896717" lon="10.56107"><ele>124.0</ele><time>2026-03-29T08:29:52.458Z</time></trkpt><trkpt lat="45.3898133" lon="10.5611133"><ele>122.75</ele><time>2026-03-29T08:29:53.458Z</time></trkpt><trkpt lat="45.3899483" lon="10.5611483"><ele>121.5</ele><time>2026-03-29T08:29:54.458Z</time></trkpt><trkpt lat="45.39008" lon="10.56119"><ele>120.25</ele><time>2026-03-29T08:29:55.457Z</time></trkpt><trkpt lat="45.3902183" lon="10.5612317"><ele>119.0</ele><time>2026-03-29T08:29:56.458Z</time></trkpt><trkpt lat="45.3903633" lon="10.5612767"><ele>118.25</ele><time>2026-03-29T08:29:57.458Z</time></trkpt><trkpt lat="45.3905167" lon="10.5613267"><ele>117.5</ele><time>2026-03-29T08:29:58.457Z</time></trkpt><trkpt lat="45.3906583" lon="10.561375"><ele>116.75</ele><time>2026-03-29T08:29:59.458Z</time></trkpt><trkpt lat="45.390785" lon="10.5614217"><ele>116.0</ele><time>2026-03-29T08:30:00.458Z</time></trkpt><trkpt lat="45.3908983" lon="10.561465"><ele>116.0</ele><time>2026-03-29T08:30:01.457Z</time></trkpt><trkpt lat="45.3910017" lon="10.56149"><ele>116.0</ele><time>2026-03-29T08:30:02.458Z</time></trkpt><trkpt lat="45.3911117" lon="10.5615367"><ele>116.0</ele><time>2026-03-29T08:30:04.458Z</time></trkpt><trkpt lat="45.39112" lon="10.5616467"><ele>116.0</ele><time>2026-03-29T08:30:12.458Z</time></trkpt><trkpt lat="45.3910983" lon="10.561845"><ele>116.0</ele><time>2026-03-29T08:30:14.458Z</time></trkpt><trkpt lat="45.3910867" lon="10.5619633"><ele>116.0</ele><time>2026-03-29T08:30:15.458Z</time></trkpt><trkpt lat="45.3910717" lon="10.5620867"><ele>116.0</ele><time>2026-03-29T08:30:16.458Z</time></trkpt><trkpt lat="45.39106" lon="10.5622117"><ele>116.0</ele><time>2026-03-29T08:30:17.458Z</time></trkpt><trkpt lat="45.3910633" lon="10.5623533"><ele>116.0</ele><time>2026-03-29T08:30:18.458Z</time></trkpt><trkpt lat="45.39107" lon="10.5625217"><ele>116.0</ele><time>2026-03-29T08:30:19.458Z</time></trkpt><trkpt lat="45.3910917" lon="10.5626833"><ele>116.0</ele><time>2026-03-29T08:30:20.458Z</time></trkpt><trkpt lat="45.39111" lon="10.56286"><ele>116.0</ele><time>2026-03-29T08:30:21.458Z</time></trkpt><trkpt lat="45.39112" lon="10.5630533"><ele>116.0</ele><time>2026-03-29T08:30:22.458Z</time></trkpt><trkpt lat="45.3911167" lon="10.563285"><ele>116.0</ele><time>2026-03-29T08:30:23.458Z</time></trkpt><trkpt lat="45.3911033" lon="10.5635317"><ele>115.66666666666666</ele><time>2026-03-29T08:30:24.458Z</time></trkpt><trkpt lat="45.3910733" lon="10.56379"><ele>115.33333333333334</ele><time>2026-03-29T08:30:25.457Z</time></trkpt><trkpt lat="45.3910217" lon="10.564055"><ele>115.0</ele><time>2026-03-29T08:30:26.458Z</time></trkpt><trkpt lat="45.3909767" lon="10.5643183"><ele>115.66666666666667</ele><time>2026-03-29T08:30:27.458Z</time></trkpt><trkpt lat="45.3909367" lon="10.564565"><ele>116.33333333333334</ele><time>2026-03-29T08:30:28.458Z</time></trkpt><trkpt lat="45.3908867" lon="10.5647717"><ele>117.0</ele><time>2026-03-29T08:30:29.458Z</time></trkpt><trkpt lat="45.3908217" lon="10.56496"><ele>117.0</ele><time>2026-03-29T08:30:30.458Z</time></trkpt><trkpt lat="45.39075" lon="10.5651583"><ele>117.0</ele><time>2026-03-29T08:30:31.458Z</time></trkpt><trkpt lat="45.390675" lon="10.565345"><ele>117.0</ele><time>2026-03-29T08:30:32.458Z</time></trkpt><trkpt lat="45.3905933" lon="10.5655417"><ele>116.33333333333334</ele><time>2026-03-29T08:30:33.458Z</time></trkpt><trkpt lat="45.3904967" lon="10.5657317"><ele>115.66666666666667</ele><time>2026-03-29T08:30:34.458Z</time></trkpt><trkpt lat="45.3904017" lon="10.5658983"><ele>115.0</ele><time>2026-03-29T08:30:35.458Z</time></trkpt><trkpt lat="45.3903067" lon="10.566065"><ele>114.5</ele><time>2026-03-29T08:30:36.458Z</time></trkpt><trkpt lat="45.39022" lon="10.566225"><ele>114.0</ele><time>2026-03-29T08:30:37.458Z</time></trkpt><trkpt lat="45.390135" lon="10.5663667"><ele>113.5</ele><time>2026-03-29T08:30:38.458Z</time></trkpt><trkpt lat="45.3900433" lon="10.56649"><ele>113.0</ele><time>2026-03-29T08:30:39.457Z</time></trkpt><trkpt lat="45.389925" lon="10.56659"><ele>113.0</ele><time>2026-03-29T08:30:40.458Z</time></trkpt><trkpt lat="45.389795" lon="10.566685"><ele>113.0</ele><time>2026-03-29T08:30:41.458Z</time></trkpt><trkpt lat="45.3896667" lon="10.566775"><ele>113.0</ele><time>2026-03-29T08:30:42.458Z</time></trkpt><trkpt lat="45.3895317" lon="10.5668717"><ele>113.0</ele><time>2026-03-29T08:30:43.458Z</time></trkpt><trkpt lat="45.3893883" lon="10.5669767"><ele>112.66666666666666</ele><time>2026-03-29T08:30:44.458Z</time></trkpt><trkpt lat="45.389235" lon="10.5670717"><ele>112.33333333333334</ele><time>2026-03-29T08:30:45.458Z</time></trkpt><trkpt lat="45.38909" lon="10.5671767"><ele>112.0</ele><time>2026-03-29T08:30:46.458Z</time></trkpt><trkpt lat="45.3889633" lon="10.5672867"><ele>112.0</ele><time>2026-03-29T08:30:47.458Z</time></trkpt><trkpt lat="45.38885" lon="10.5674267"><ele>112.0</ele><time>2026-03-29T08:30:48.458Z</time></trkpt><trkpt lat="45.38874" lon="10.56757"><ele>112.0</ele><time>2026-03-29T08:30:49.458Z</time></trkpt><trkpt lat="45.3886083" lon="10.56772"><ele>112.0</ele><time>2026-03-29T08:30:50.458Z</time></trkpt><trkpt lat="45.3884633" lon="10.5678733"><ele>112.0</ele><time>2026-03-29T08:30:51.458Z</time></trkpt><trkpt lat="45.3883133" lon="10.56802"><ele>112.0</ele><time>2026-03-29T08:30:52.458Z</time></trkpt><trkpt lat="45.3881533" lon="10.5681633"><ele>112.33333333333334</ele><time>2026-03-29T08:30:53.458Z</time></trkpt><trkpt lat="45.3879917" lon="10.568305"><ele>112.66666666666666</ele><time>2026-03-29T08:30:54.458Z</time></trkpt><trkpt lat="45.3878283" lon="10.56844"><ele>113.0</ele><time>2026-03-29T08:30:55.458Z</time></trkpt><trkpt lat="45.387675" lon="10.56857"><ele>113.33333333333333</ele><time>2026-03-29T08:30:56.458Z</time></trkpt><trkpt lat="45.3875383" lon="10.568705"><ele>113.66666666666666</ele><time>2026-03-29T08:30:57.457Z</time></trkpt><trkpt lat="45.3874" lon="10.5688283"><ele>114.0</ele><time>2026-03-29T08:30:58.458Z</time></trkpt><trkpt lat="45.387265" lon="10.5689283"><ele>113.75</ele><time>2026-03-29T08:30:59.457Z</time></trkpt><trkpt lat="45.387155" lon="10.5690317"><ele>113.5</ele><time>2026-03-29T08:31:00.458Z</time></trkpt><trkpt lat="45.3870483" lon="10.569135"><ele>113.25</ele><time>2026-03-29T08:31:01.457Z</time></trkpt><trkpt lat="45.3869467" lon="10.5692317"><ele>113.0</ele><time>2026-03-29T08:31:02.458Z</time></trkpt><trkpt lat="45.3868417" lon="10.569365"><ele>113.0</ele><time>2026-03-29T08:31:03.458Z</time></trkpt><trkpt lat="45.3867517" lon="10.5695283"><ele>113.0</ele><time>2026-03-29T08:31:04.458Z</time></trkpt><trkpt lat="45.386665" lon="10.5696967"><ele>113.0</ele><time>2026-03-29T08:31:05.458Z</time></trkpt><trkpt lat="45.3865767" lon="10.5698633"><ele>113.0</ele><time>2026-03-29T08:31:06.458Z</time></trkpt><trkpt lat="45.3864983" lon="10.57003"><ele>113.0</ele><time>2026-03-29T08:31:07.458Z</time></trkpt><trkpt lat="45.3864383" lon="10.5701783"><ele>113.0</ele><time>2026-03-29T08:31:08.457Z</time></trkpt><trkpt lat="45.3863783" lon="10.57034"><ele>113.0</ele><time>2026-03-29T08:31:09.458Z</time></trkpt><trkpt lat="45.3863267" lon="10.5705133"><ele>113.0</ele><time>2026-03-29T08:31:10.457Z</time></trkpt><trkpt lat="45.3862833" lon="10.5707017"><ele>112.2</ele><time>2026-03-29T08:31:11.458Z</time></trkpt><trkpt lat="45.386255" lon="10.5708733"><ele>111.4</ele><time>2026-03-29T08:31:12.458Z</time></trkpt><trkpt lat="45.3862283" lon="10.57103"><ele>110.60000000000001</ele><time>2026-03-29T08:31:13.458Z</time></trkpt><trkpt lat="45.3862033" lon="10.5711617"><ele>109.80000000000001</ele><time>2026-03-29T08:31:14.458Z</time></trkpt><trkpt lat="45.3861917" lon="10.5712683"><ele>109.0</ele><time>2026-03-29T08:31:15.458Z</time></trkpt><trkpt lat="45.38618" lon="10.57136"><ele>108.83333333333334</ele><time>2026-03-29T08:31:16.458Z</time></trkpt><trkpt lat="45.3861667" lon="10.57145"><ele>108.66666666666667</ele><time>2026-03-29T08:31:17.458Z</time></trkpt><trkpt lat="45.3861667" lon="10.57155"><ele>108.5</ele><time>2026-03-29T08:31:18.458Z</time></trkpt><trkpt lat="45.386195" lon="10.57172"><ele>108.33333333333334</ele><time>2026-03-29T08:31:20.458Z</time></trkpt><trkpt lat="45.3862217" lon="10.5718683"><ele>108.16666666666667</ele><time>2026-03-29T08:31:22.458Z</time></trkpt><trkpt lat="45.386265" lon="10.571965"><ele>108.0</ele><time>2026-03-29T08:31:25.458Z</time></trkpt><trkpt lat="45.3863767" lon="10.5720633"><ele>107.16666666666667</ele><time>2026-03-29T08:31:27.458Z</time></trkpt><trkpt lat="45.3864517" lon="10.572115"><ele>106.33333333333334</ele><time>2026-03-29T08:31:28.458Z</time></trkpt><trkpt lat="45.3865233" lon="10.5721733"><ele>105.5</ele><time>2026-03-29T08:31:29.457Z</time></trkpt><trkpt lat="45.3865783" lon="10.5722283"><ele>104.66666666666667</ele><time>2026-03-29T08:31:30.458Z</time></trkpt><trkpt lat="45.3866183" lon="10.5722983"><ele>103.83333333333334</ele><time>2026-03-29T08:31:31.457Z</time></trkpt><trkpt lat="45.3866367" lon="10.57244"><ele>103.0</ele><time>2026-03-29T08:31:33.457Z</time></trkpt><trkpt lat="45.3865567" lon="10.5726033"><ele>103.0</ele><time>2026-03-29T08:31:35.458Z</time></trkpt><trkpt lat="45.3864733" lon="10.5726967"><ele>103.0</ele><time>2026-03-29T08:31:36.458Z</time></trkpt><trkpt lat="45.3864083" lon="10.5727833"><ele>103.0</ele><time>2026-03-29T08:31:37.458Z</time></trkpt><trkpt lat="45.3863683" lon="10.5728817"><ele>103.0</ele><time>2026-03-29T08:31:38.458Z</time></trkpt><trkpt lat="45.3863533" lon="10.573005"><ele>103.0</ele><time>2026-03-29T08:31:39.457Z</time></trkpt><trkpt lat="45.3863667" lon="10.57315"><ele>103.0</ele><time>2026-03-29T08:31:40.458Z</time></trkpt><trkpt lat="45.3863917" lon="10.573315"><ele>103.0</ele><time>2026-03-29T08:31:41.458Z</time></trkpt><trkpt lat="45.3864283" lon="10.57351"><ele>103.0</ele><time>2026-03-29T08:31:42.458Z</time></trkpt><trkpt lat="45.386465" lon="10.573725"><ele>103.0</ele><time>2026-03-29T08:31:43.458Z</time></trkpt><trkpt lat="45.3864983" lon="10.5739517"><ele>102.75</ele><time>2026-03-29T08:31:44.458Z</time></trkpt><trkpt lat="45.3865267" lon="10.57415"><ele>102.5</ele><time>2026-03-29T08:31:45.458Z</time></trkpt><trkpt lat="45.3865533" lon="10.5743317"><ele>102.25</ele><time>2026-03-29T08:31:46.457Z</time></trkpt><trkpt lat="45.3865667" lon="10.57448"><ele>102.0</ele><time>2026-03-29T08:31:47.458Z</time></trkpt><trkpt lat="45.3865517" lon="10.5746133"><ele>101.8</ele><time>2026-03-29T08:31:48.458Z</time></trkpt><trkpt lat="45.38652" lon="10.5747267"><ele>101.6</ele><time>2026-03-29T08:31:49.458Z</time></trkpt><trkpt lat="45.3864667" lon="10.57483"><ele>101.39999999999999</ele><time>2026-03-29T08:31:50.458Z</time></trkpt><trkpt lat="45.386395" lon="10.5749417"><ele>101.19999999999999</ele><time>2026-03-29T08:31:51.457Z</time></trkpt><trkpt lat="45.3863083" lon="10.575065"><ele>101.0</ele><time>2026-03-29T08:31:52.458Z</time></trkpt><trkpt lat="45.3862083" lon="10.5751817"><ele>102.33333333333333</ele><time>2026-03-29T08:31:53.458Z</time></trkpt><trkpt lat="45.3861133" lon="10.5753133"><ele>103.66666666666666</ele><time>2026-03-29T08:31:54.458Z</time></trkpt><trkpt lat="45.3860233" lon="10.575475"><ele>105.0</ele><time>2026-03-29T08:31:55.458Z</time></trkpt><trkpt lat="45.38593" lon="10.5756817"><ele>105.0</ele><time>2026-03-29T08:31:56.458Z</time></trkpt><trkpt lat="45.38585" lon="10.57591"><ele>105.0</ele><time>2026-03-29T08:31:57.458Z</time></trkpt><trkpt lat="45.385785" lon="10.576145"><ele>105.0</ele><time>2026-03-29T08:31:58.458Z</time></trkpt><trkpt lat="45.3857233" lon="10.5763583"><ele>105.66666666666666</ele><time>2026-03-29T08:31:59.458Z</time></trkpt><trkpt lat="45.3856733" lon="10.5765667"><ele>106.33333333333333</ele><time>2026-03-29T08:32:00.458Z</time></trkpt><trkpt lat="45.3856333" lon="10.5768067"><ele>107.0</ele><time>2026-03-29T08:32:01.458Z</time></trkpt><trkpt lat="45.3856" lon="10.5770583"><ele>107.0</ele><time>2026-03-29T08:32:02.457Z</time></trkpt><trkpt lat="45.3855583" lon="10.577325"><ele>107.0</ele><time>2026-03-29T08:32:03.458Z</time></trkpt><trkpt lat="45.3855283" lon="10.5775867"><ele>107.0</ele><time>2026-03-29T08:32:04.458Z</time></trkpt><trkpt lat="45.385495" lon="10.577835"><ele>106.75</ele><time>2026-03-29T08:32:05.458Z</time></trkpt><trkpt lat="45.385465" lon="10.5780517"><ele>106.5</ele><time>2026-03-29T08:32:06.458Z</time></trkpt><trkpt lat="45.3854433" lon="10.578225"><ele>106.25</ele><time>2026-03-29T08:32:07.458Z</time></trkpt><trkpt lat="45.3854283" lon="10.578365"><ele>106.0</ele><time>2026-03-29T08:32:08.458Z</time></trkpt><trkpt lat="45.3854217" lon="10.5784783"><ele>106.0</ele><time>2026-03-29T08:32:09.458Z</time></trkpt><trkpt lat="45.385395" lon="10.5786017"><ele>106.0</ele><time>2026-03-29T08:32:11.458Z</time></trkpt><trkpt lat="45.385325" lon="10.57865"><ele>106.0</ele><time>2026-03-29T08:32:14.458Z</time></trkpt><trkpt lat="45.3852" lon="10.5786133"><ele>106.0</ele><time>2026-03-29T08:32:16.458Z</time></trkpt><trkpt lat="45.3850983" lon="10.578575"><ele>106.0</ele><time>2026-03-29T08:32:17.458Z</time></trkpt><trkpt lat="45.3849633" lon="10.5785017"><ele>106.0</ele><time>2026-03-29T08:32:18.458Z</time></trkpt><trkpt lat="45.3848367" lon="10.57844"><ele>106.0</ele><time>2026-03-29T08:32:19.458Z</time></trkpt><trkpt lat="45.38471" lon="10.5783767"><ele>106.0</ele><time>2026-03-29T08:32:20.458Z</time></trkpt><trkpt lat="45.3846" lon="10.5783217"><ele>106.0</ele><time>2026-03-29T08:32:21.458Z</time></trkpt><trkpt lat="45.3844967" lon="10.57828"><ele>106.16666666666667</ele><time>2026-03-29T08:32:22.458Z</time></trkpt><trkpt lat="45.3844083" lon="10.5782433"><ele>106.33333333333334</ele><time>2026-03-29T08:32:23.458Z</time></trkpt><trkpt lat="45.3843233" lon="10.5782267"><ele>106.5</ele><time>2026-03-29T08:32:24.458Z</time></trkpt><trkpt lat="45.384245" lon="10.5782267"><ele>106.66666666666666</ele><time>2026-03-29T08:32:25.458Z</time></trkpt><trkpt lat="45.38418" lon="10.5782417"><ele>106.83333333333333</ele><time>2026-03-29T08:32:26.458Z</time></trkpt><trkpt lat="45.38411" lon="10.5782583"><ele>107.0</ele><time>2026-03-29T08:32:27.458Z</time></trkpt><trkpt lat="45.384045" lon="10.5782717"><ele>106.99999999999999</ele><time>2026-03-29T08:32:28.458Z</time></trkpt><trkpt lat="45.3839683" lon="10.5782633"><ele>107.0</ele><time>2026-03-29T08:32:29.458Z</time></trkpt><trkpt lat="45.3838817" lon="10.5782517"><ele>107.0</ele><time>2026-03-29T08:32:30.458Z</time></trkpt><trkpt lat="45.3837983" lon="10.5782283"><ele>107.0</ele><time>2026-03-29T08:32:31.458Z</time></trkpt><trkpt lat="45.38372" lon="10.5782083"><ele>106.99999999999999</ele><time>2026-03-29T08:32:32.458Z</time></trkpt><trkpt lat="45.38365" lon="10.5781667"><ele>107.0</ele><time>2026-03-29T08:32:33.457Z</time></trkpt><trkpt lat="45.3835783" lon="10.5780833"><ele>107.5</ele><time>2026-03-29T08:32:34.458Z</time></trkpt><trkpt lat="45.3834933" lon="10.577965"><ele>108.0</ele><time>2026-03-29T08:32:35.458Z</time></trkpt><trkpt lat="45.3833767" lon="10.5778417"><ele>108.5</ele><time>2026-03-29T08:32:36.458Z</time></trkpt><trkpt lat="45.3832367" lon="10.57771"><ele>109.0</ele><time>2026-03-29T08:32:37.458Z</time></trkpt><trkpt lat="45.3830667" lon="10.5775967"><ele>111.0</ele><time>2026-03-29T08:32:38.458Z</time></trkpt><trkpt lat="45.3828867" lon="10.5775117"><ele>113.0</ele><time>2026-03-29T08:32:39.458Z</time></trkpt><trkpt lat="45.382715" lon="10.577465"><ele>115.0</ele><time>2026-03-29T08:32:40.457Z</time></trkpt><trkpt lat="45.3825533" lon="10.5774617"><ele>115.0</ele><time>2026-03-29T08:32:41.458Z</time></trkpt><trkpt lat="45.3824" lon="10.5774733"><ele>115.0</ele><time>2026-03-29T08:32:42.458Z</time></trkpt><trkpt lat="45.3822517" lon="10.577475"><ele>115.0</ele><time>2026-03-29T08:32:43.458Z</time></trkpt><trkpt lat="45.3821117" lon="10.577505"><ele>115.0</ele><time>2026-03-29T08:32:44.458Z</time></trkpt><trkpt lat="45.3819767" lon="10.577525"><ele>115.0</ele><time>2026-03-29T08:32:45.458Z</time></trkpt><trkpt lat="45.381825" lon="10.5775433"><ele>115.0</ele><time>2026-03-29T08:32:46.458Z</time></trkpt><trkpt lat="45.3816517" lon="10.577555"><ele>115.0</ele><time>2026-03-29T08:32:47.458Z</time></trkpt><trkpt lat="45.381485" lon="10.5775533"><ele>112.33333333333334</ele><time>2026-03-29T08:32:48.458Z</time></trkpt><trkpt lat="45.3813267" lon="10.5775517"><ele>109.66666666666666</ele><time>2026-03-29T08:32:49.457Z</time></trkpt><trkpt lat="45.38117" lon="10.5775417"><ele>107.0</ele><time>2026-03-29T08:32:50.458Z</time></trkpt><trkpt lat="45.38103" lon="10.5775167"><ele>107.0</ele><time>2026-03-29T08:32:51.458Z</time></trkpt><trkpt lat="45.380895" lon="10.5774733"><ele>106.99999999999999</ele><time>2026-03-29T08:32:52.458Z</time></trkpt><trkpt lat="45.38079" lon="10.5774067"><ele>106.99999999999999</ele><time>2026-03-29T08:32:53.458Z</time></trkpt><trkpt lat="45.3807133" lon="10.577335"><ele>107.0</ele><time>2026-03-29T08:32:54.458Z</time></trkpt><trkpt lat="45.3806717" lon="10.57725"><ele>107.0</ele><time>2026-03-29T08:32:55.458Z</time></trkpt><trkpt lat="45.3806433" lon="10.577145"><ele>107.6</ele><time>2026-03-29T08:32:56.458Z</time></trkpt><trkpt lat="45.3806383" lon="10.577005"><ele>108.19999999999999</ele><time>2026-03-29T08:32:57.458Z</time></trkpt><trkpt lat="45.380635" lon="10.576865"><ele>108.8</ele><time>2026-03-29T08:32:58.458Z</time></trkpt><trkpt lat="45.380585" lon="10.5767383"><ele>109.4</ele><time>2026-03-29T08:32:59.458Z</time></trkpt><trkpt lat="45.3805" lon="10.5766317"><ele>110.0</ele><time>2026-03-29T08:33:00.458Z</time></trkpt><trkpt lat="45.3803667" lon="10.5765433"><ele>107.66666666666666</ele><time>2026-03-29T08:33:01.458Z</time></trkpt><trkpt lat="45.3802017" lon="10.576495"><ele>105.33333333333334</ele><time>2026-03-29T08:33:02.458Z</time></trkpt><trkpt lat="45.380035" lon="10.576465"><ele>103.0</ele><time>2026-03-29T08:33:03.457Z</time></trkpt><trkpt lat="45.3798767" lon="10.57641"><ele>103.0</ele><time>2026-03-29T08:33:04.458Z</time></trkpt><trkpt lat="45.3797317" lon="10.5763233"><ele>103.0</ele><time>2026-03-29T08:33:05.458Z</time></trkpt><trkpt lat="45.37957" lon="10.5762817"><ele>103.0</ele><time>2026-03-29T08:33:06.458Z</time></trkpt><trkpt lat="45.37938" lon="10.576305"><ele>103.25</ele><time>2026-03-29T08:33:07.458Z</time></trkpt><trkpt lat="45.379195" lon="10.57634"><ele>103.5</ele><time>2026-03-29T08:33:08.458Z</time></trkpt><trkpt lat="45.379045" lon="10.576345"><ele>103.75</ele><time>2026-03-29T08:33:09.458Z</time></trkpt><trkpt lat="45.3789433" lon="10.5763383"><ele>104.0</ele><time>2026-03-29T08:33:10.458Z</time></trkpt><trkpt lat="45.3788683" lon="10.5762933"><ele>104.4</ele><time>2026-03-29T08:33:11.457Z</time></trkpt><trkpt lat="45.3788117" lon="10.5762017"><ele>104.80000000000001</ele><time>2026-03-29T08:33:12.458Z</time></trkpt><trkpt lat="45.37877" lon="10.5760733"><ele>105.19999999999999</ele><time>2026-03-29T08:33:13.458Z</time></trkpt><trkpt lat="45.3787433" lon="10.5759233"><ele>105.6</ele><time>2026-03-29T08:33:14.458Z</time></trkpt><trkpt lat="45.3787417" lon="10.5757517"><ele>106.0</ele><time>2026-03-29T08:33:15.458Z</time></trkpt><trkpt lat="45.3787133" lon="10.57563"><ele>106.0</ele><time>2026-03-29T08:33:16.458Z</time></trkpt><trkpt lat="45.3786483" lon="10.5755567"><ele>106.0</ele><time>2026-03-29T08:33:17.458Z</time></trkpt><trkpt lat="45.3785533" lon="10.57553"><ele>106.0</ele><time>2026-03-29T08:33:18.458Z</time></trkpt><trkpt lat="45.3784233" lon="10.5755533"><ele>106.0</ele><time>2026-03-29T08:33:19.458Z</time></trkpt><trkpt lat="45.3782317" lon="10.5756083"><ele>105.5</ele><time>2026-03-29T08:33:20.458Z</time></trkpt><trkpt lat="45.3780033" lon="10.57566"><ele>105.0</ele><time>2026-03-29T08:33:21.458Z</time></trkpt><trkpt lat="45.3777567" lon="10.5756883"><ele>105.0</ele><time>2026-03-29T08:33:22.457Z</time></trkpt><trkpt lat="45.3775117" lon="10.5757117"><ele>105.0</ele><time>2026-03-29T08:33:23.458Z</time></trkpt><trkpt lat="45.3772717" lon="10.5757167"><ele>106.66666666666666</ele><time>2026-03-29T08:33:24.458Z</time></trkpt><trkpt lat="45.37706" lon="10.5757183"><ele>108.33333333333333</ele><time>2026-03-29T08:33:25.458Z</time></trkpt><trkpt lat="45.3768733" lon="10.5757167"><ele>110.0</ele><time>2026-03-29T08:33:26.458Z</time></trkpt><trkpt lat="45.3766933" lon="10.57567"><ele>110.0</ele><time>2026-03-29T08:33:27.458Z</time></trkpt><trkpt lat="45.376515" lon="10.5755833"><ele>110.0</ele><time>2026-03-29T08:33:28.458Z</time></trkpt><trkpt lat="45.376365" lon="10.5754817"><ele>110.0</ele><time>2026-03-29T08:33:29.458Z</time></trkpt><trkpt lat="45.3762317" lon="10.5753917"><ele>110.25</ele><time>2026-03-29T08:33:30.457Z</time></trkpt><trkpt lat="45.3761183" lon="10.575305"><ele>110.5</ele><time>2026-03-29T08:33:31.458Z</time></trkpt><trkpt lat="45.375975" lon="10.575235"><ele>110.75</ele><time>2026-03-29T08:33:32.458Z</time></trkpt><trkpt lat="45.375835" lon="10.5751717"><ele>111.0</ele><time>2026-03-29T08:33:33.458Z</time></trkpt><trkpt lat="45.3757017" lon="10.5751017"><ele>111.0</ele><time>2026-03-29T08:33:34.458Z</time></trkpt><trkpt lat="45.3755733" lon="10.5750233"><ele>111.0</ele><time>2026-03-29T08:33:35.458Z</time></trkpt><trkpt lat="45.3754717" lon="10.5749533"><ele>111.0</ele><time>2026-03-29T08:33:36.458Z</time></trkpt><trkpt lat="45.3754017" lon="10.574885"><ele>111.0</ele><time>2026-03-29T08:33:37.458Z</time></trkpt><trkpt lat="45.375305" lon="10.574865"><ele>111.0</ele><time>2026-03-29T08:33:39.458Z</time></trkpt><trkpt lat="45.37525" lon="10.5749817"><ele>111.25</ele><time>2026-03-29T08:33:41.458Z</time></trkpt><trkpt lat="45.3752467" lon="10.5751133"><ele>111.5</ele><time>2026-03-29T08:33:42.458Z</time></trkpt><trkpt lat="45.3752433" lon="10.5752867"><ele>111.75</ele><time>2026-03-29T08:33:43.458Z</time></trkpt><trkpt lat="45.3752317" lon="10.5755183"><ele>112.0</ele><time>2026-03-29T08:33:44.457Z</time></trkpt><trkpt lat="45.3752067" lon="10.5757667"><ele>112.0</ele><time>2026-03-29T08:33:45.457Z</time></trkpt><trkpt lat="45.3751817" lon="10.576025"><ele>112.0</ele><time>2026-03-29T08:33:46.457Z</time></trkpt><trkpt lat="45.3751667" lon="10.5762733"><ele>112.0</ele><time>2026-03-29T08:33:47.458Z</time></trkpt><trkpt lat="45.3751483" lon="10.57653"><ele>111.33333333333334</ele><time>2026-03-29T08:33:48.458Z</time></trkpt><trkpt lat="45.375125" lon="10.576785"><ele>110.66666666666666</ele><time>2026-03-29T08:33:49.458Z</time></trkpt><trkpt lat="45.3750983" lon="10.57705"><ele>110.0</ele><time>2026-03-29T08:33:50.458Z</time></trkpt><trkpt lat="45.3750733" lon="10.5773217"><ele>110.0</ele><time>2026-03-29T08:33:51.458Z</time></trkpt><trkpt lat="45.3750517" lon="10.57759"><ele>110.0</ele><time>2026-03-29T08:33:52.458Z</time></trkpt><trkpt lat="45.3750267" lon="10.5778583"><ele>110.0</ele><time>2026-03-29T08:33:53.457Z</time></trkpt><trkpt lat="45.375005" lon="10.5781117"><ele>110.0</ele><time>2026-03-29T08:33:54.458Z</time></trkpt><trkpt lat="45.37499" lon="10.578325"><ele>110.0</ele><time>2026-03-29T08:33:55.458Z</time></trkpt><trkpt lat="45.3749783" lon="10.5785133"><ele>110.0</ele><time>2026-03-29T08:33:56.458Z</time></trkpt><trkpt lat="45.374965" lon="10.5786533"><ele>110.0</ele><time>2026-03-29T08:33:57.458Z</time></trkpt><trkpt lat="45.37495" lon="10.5787467"><ele>110.0</ele><time>2026-03-29T08:33:58.458Z</time></trkpt><trkpt lat="45.3748483" lon="10.5788267"><ele>110.0</ele><time>2026-03-29T08:34:01.458Z</time></trkpt><trkpt lat="45.37476" lon="10.5788367"><ele>110.0</ele><time>2026-03-29T08:34:02.458Z</time></trkpt><trkpt lat="45.37465" lon="10.5788383"><ele>110.0</ele><time>2026-03-29T08:34:03.458Z</time></trkpt><trkpt lat="45.37451" lon="10.5788383"><ele>111.66666666666666</ele><time>2026-03-29T08:34:04.458Z</time></trkpt><trkpt lat="45.3743417" lon="10.5788433"><ele>113.33333333333334</ele><time>2026-03-29T08:34:05.458Z</time></trkpt><trkpt lat="45.3741517" lon="10.578855"><ele>115.0</ele><time>2026-03-29T08:34:06.458Z</time></trkpt><trkpt lat="45.37395" lon="10.5788667"><ele>115.33333333333334</ele><time>2026-03-29T08:34:07.458Z</time></trkpt><trkpt lat="45.3737667" lon="10.5788683"><ele>115.66666666666666</ele><time>2026-03-29T08:34:08.458Z</time></trkpt><trkpt lat="45.3736033" lon="10.5788783"><ele>116.0</ele><time>2026-03-29T08:34:09.458Z</time></trkpt><trkpt lat="45.3734633" lon="10.57888"><ele>115.99999999999999</ele><time>2026-03-29T08:34:10.458Z</time></trkpt><trkpt lat="45.3733533" lon="10.578895"><ele>116.0</ele><time>2026-03-29T08:34:11.458Z</time></trkpt><trkpt lat="45.3732633" lon="10.5789"><ele>116.0</ele><time>2026-03-29T08:34:12.458Z</time></trkpt><trkpt lat="45.373195" lon="10.5789117"><ele>116.0</ele><time>2026-03-29T08:34:13.458Z</time></trkpt><trkpt lat="45.373105" lon="10.5789233"><ele>115.99999999999999</ele><time>2026-03-29T08:34:15.458Z</time></trkpt><trkpt lat="45.37302" lon="10.578895"><ele>116.0</ele><time>2026-03-29T08:34:17.458Z</time></trkpt><trkpt lat="45.37293" lon="10.5789"><ele>115.5</ele><time>2026-03-29T08:34:19.458Z</time></trkpt><trkpt lat="45.3727967" lon="10.5789283"><ele>115.0</ele><time>2026-03-29T08:34:21.458Z</time></trkpt><trkpt lat="45.372715" lon="10.578985"><ele>114.5</ele><time>2026-03-29T08:34:23.458Z</time></trkpt><trkpt lat="45.3726633" lon="10.57911"><ele>114.0</ele><time>2026-03-29T08:34:28.458Z</time></trkpt><trkpt lat="45.37263" lon="10.57932"><ele>114.0</ele><time>2026-03-29T08:34:30.458Z</time></trkpt><trkpt lat="45.3726017" lon="10.579455"><ele>114.0</ele><time>2026-03-29T08:34:31.458Z</time></trkpt><trkpt lat="45.37257" lon="10.5795767"><ele>114.0</ele><time>2026-03-29T08:34:32.458Z</time></trkpt><trkpt lat="45.3725383" lon="10.5796833"><ele>114.0</ele><time>2026-03-29T08:34:33.458Z</time></trkpt><trkpt lat="45.3725267" lon="10.5797833"><ele>114.0</ele><time>2026-03-29T08:34:34.458Z</time></trkpt><trkpt lat="45.3725383" lon="10.5798733"><ele>114.0</ele><time>2026-03-29T08:34:35.458Z</time></trkpt><trkpt lat="45.3725667" lon="10.57996"><ele>113.75</ele><time>2026-03-29T08:34:36.458Z</time></trkpt><trkpt lat="45.3726283" lon="10.5800417"><ele>113.5</ele><time>2026-03-29T08:34:37.458Z</time></trkpt><trkpt lat="45.37272" lon="10.5801183"><ele>113.25</ele><time>2026-03-29T08:34:38.458Z</time></trkpt><trkpt lat="45.3728483" lon="10.5801917"><ele>113.0</ele><time>2026-03-29T08:34:39.457Z</time></trkpt><trkpt lat="45.37302" lon="10.5802783"><ele>112.66666666666666</ele><time>2026-03-29T08:34:40.458Z</time></trkpt><trkpt lat="45.3731983" lon="10.58038"><ele>112.33333333333334</ele><time>2026-03-29T08:34:41.458Z</time></trkpt><trkpt lat="45.373375" lon="10.5805133"><ele>112.0</ele><time>2026-03-29T08:34:42.457Z</time></trkpt><trkpt lat="45.373565" lon="10.5806717"><ele>112.0</ele><time>2026-03-29T08:34:43.458Z</time></trkpt><trkpt lat="45.3737533" lon="10.5808583"><ele>112.0</ele><time>2026-03-29T08:34:44.458Z</time></trkpt><trkpt lat="45.37394" lon="10.5810733"><ele>112.5</ele><time>2026-03-29T08:34:45.458Z</time></trkpt><trkpt lat="45.374135" lon="10.5813117"><ele>113.0</ele><time>2026-03-29T08:34:46.458Z</time></trkpt><trkpt lat="45.3743217" lon="10.5815633"><ele>113.0</ele><time>2026-03-29T08:34:47.458Z</time></trkpt><trkpt lat="45.374515" lon="10.5818233"><ele>113.0</ele><time>2026-03-29T08:34:48.458Z</time></trkpt><trkpt lat="45.3747117" lon="10.5820867"><ele>112.0</ele><time>2026-03-29T08:34:49.458Z</time></trkpt><trkpt lat="45.37492" lon="10.582345"><ele>111.0</ele><time>2026-03-29T08:34:50.458Z</time></trkpt><trkpt lat="45.3751267" lon="10.5826117"><ele>111.0</ele><time>2026-03-29T08:34:51.458Z</time></trkpt><trkpt lat="45.3753383" lon="10.5828767"><ele>111.0</ele><time>2026-03-29T08:34:52.458Z</time></trkpt><trkpt lat="45.3755583" lon="10.58313"><ele>111.0</ele><time>2026-03-29T08:34:53.458Z</time></trkpt><trkpt lat="45.3757833" lon="10.5833783"><ele>111.0</ele><time>2026-03-29T08:34:54.458Z</time></trkpt><trkpt lat="45.376015" lon="10.5836217"><ele>111.0</ele><time>2026-03-29T08:34:55.458Z</time></trkpt><trkpt lat="45.3762433" lon="10.5838483"><ele>111.0</ele><time>2026-03-29T08:34:56.457Z</time></trkpt><trkpt lat="45.3764683" lon="10.58409"><ele>111.0</ele><time>2026-03-29T08:34:57.458Z</time></trkpt><trkpt lat="45.3766883" lon="10.5843417"><ele>111.0</ele><time>2026-03-29T08:34:58.458Z</time></trkpt><trkpt lat="45.3768983" lon="10.5846017"><ele>111.5</ele><time>2026-03-29T08:34:59.458Z</time></trkpt><trkpt lat="45.3771017" lon="10.584865"><ele>112.0</ele><time>2026-03-29T08:35:00.458Z</time></trkpt><trkpt lat="45.37729" lon="10.585145"><ele>112.5</ele><time>2026-03-29T08:35:01.458Z</time></trkpt><trkpt lat="45.3774767" lon="10.5854333"><ele>113.0</ele><time>2026-03-29T08:35:02.458Z</time></trkpt><trkpt lat="45.3776583" lon="10.5857283"><ele>113.0</ele><time>2026-03-29T08:35:03.458Z</time></trkpt><trkpt lat="45.377835" lon="10.5860233"><ele>113.0</ele><time>2026-03-29T08:35:04.457Z</time></trkpt><trkpt lat="45.3780117" lon="10.586315"><ele>115.0</ele><time>2026-03-29T08:35:05.458Z</time></trkpt><trkpt lat="45.3781767" lon="10.58662"><ele>117.0</ele><time>2026-03-29T08:35:06.458Z</time></trkpt><trkpt lat="45.3783283" lon="10.5869333"><ele>118.5</ele><time>2026-03-29T08:35:07.458Z</time></trkpt><trkpt lat="45.3784517" lon="10.587265"><ele>120.0</ele><time>2026-03-29T08:35:08.458Z</time></trkpt><trkpt lat="45.378565" lon="10.5875967"><ele>121.0</ele><time>2026-03-29T08:35:09.458Z</time></trkpt><trkpt lat="45.37866" lon="10.5879117"><ele>122.0</ele><time>2026-03-29T08:35:10.458Z</time></trkpt><trkpt lat="45.3787317" lon="10.5882133"><ele>122.0</ele><time>2026-03-29T08:35:11.458Z</time></trkpt><trkpt lat="45.3787717" lon="10.588515"><ele>122.0</ele><time>2026-03-29T08:35:12.457Z</time></trkpt><trkpt lat="45.3787883" lon="10.5888383"><ele>122.0</ele><time>2026-03-29T08:35:13.458Z</time></trkpt><trkpt lat="45.3787733" lon="10.5891683"><ele>123.5</ele><time>2026-03-29T08:35:14.458Z</time></trkpt><trkpt lat="45.3787367" lon="10.5895033"><ele>125.0</ele><time>2026-03-29T08:35:15.458Z</time></trkpt><trkpt lat="45.3786967" lon="10.589835"><ele>126.0</ele><time>2026-03-29T08:35:16.458Z</time></trkpt><trkpt lat="45.3786567" lon="10.590135"><ele>127.0</ele><time>2026-03-29T08:35:17.458Z</time></trkpt><trkpt lat="45.3786483" lon="10.5904167"><ele>128.0</ele><time>2026-03-29T08:35:18.458Z</time></trkpt><trkpt lat="45.37867" lon="10.5907033"><ele>129.0</ele><time>2026-03-29T08:35:19.458Z</time></trkpt><trkpt lat="45.3787133" lon="10.5909733"><ele>130.0</ele><time>2026-03-29T08:35:20.458Z</time></trkpt><trkpt lat="45.3787917" lon="10.5912667"><ele>131.0</ele><time>2026-03-29T08:35:21.458Z</time></trkpt><trkpt lat="45.378905" lon="10.5915483"><ele>133.5</ele><time>2026-03-29T08:35:22.458Z</time></trkpt><trkpt lat="45.37903" lon="10.59184"><ele>136.0</ele><time>2026-03-29T08:35:23.458Z</time></trkpt><trkpt lat="45.3791583" lon="10.59212"><ele>136.5</ele><time>2026-03-29T08:35:24.458Z</time></trkpt><trkpt lat="45.37927" lon="10.592435"><ele>137.0</ele><time>2026-03-29T08:35:25.458Z</time></trkpt><trkpt lat="45.379375" lon="10.5927467"><ele>137.5</ele><time>2026-03-29T08:35:26.458Z</time></trkpt><trkpt lat="45.3794533" lon="10.5930767"><ele>138.0</ele><time>2026-03-29T08:35:27.458Z</time></trkpt><trkpt lat="45.3794933" lon="10.5934083"><ele>138.0</ele><time>2026-03-29T08:35:28.458Z</time></trkpt><trkpt lat="45.379505" lon="10.5937667"><ele>138.0</ele><time>2026-03-29T08:35:29.458Z</time></trkpt><trkpt lat="45.3795083" lon="10.5941483"><ele>138.0</ele><time>2026-03-29T08:35:30.458Z</time></trkpt><trkpt lat="45.3795033" lon="10.5945083"><ele>138.0</ele><time>2026-03-29T08:35:31.458Z</time></trkpt><trkpt lat="45.3795117" lon="10.5948383"><ele>138.0</ele><time>2026-03-29T08:35:32.458Z</time></trkpt><trkpt lat="45.3795267" lon="10.5951283"><ele>138.0</ele><time>2026-03-29T08:35:33.458Z</time></trkpt><trkpt lat="45.3795467" lon="10.5953817"><ele>138.0</ele><time>2026-03-29T08:35:34.458Z</time></trkpt><trkpt lat="45.379595" lon="10.5956333"><ele>138.66666666666666</ele><time>2026-03-29T08:35:35.458Z</time></trkpt><trkpt lat="45.379655" lon="10.5958933"><ele>139.33333333333331</ele><time>2026-03-29T08:35:36.458Z</time></trkpt><trkpt lat="45.3797217" lon="10.5961567"><ele>140.0</ele><time>2026-03-29T08:35:37.458Z</time></trkpt><trkpt lat="45.3797933" lon="10.5964217"><ele>138.66666666666666</ele><time>2026-03-29T08:35:38.458Z</time></trkpt><trkpt lat="45.3798617" lon="10.596685"><ele>137.33333333333334</ele><time>2026-03-29T08:35:39.458Z</time></trkpt><trkpt lat="45.3799417" lon="10.5969483"><ele>136.0</ele><time>2026-03-29T08:35:40.458Z</time></trkpt><trkpt lat="45.380015" lon="10.5972117"><ele>136.0</ele><time>2026-03-29T08:35:41.458Z</time></trkpt><trkpt lat="45.3800883" lon="10.5974667"><ele>136.0</ele><time>2026-03-29T08:35:42.457Z</time></trkpt><trkpt lat="45.3801467" lon="10.5977183"><ele>136.0</ele><time>2026-03-29T08:35:43.458Z</time></trkpt><trkpt lat="45.3802" lon="10.5979367"><ele>136.25</ele><time>2026-03-29T08:35:44.457Z</time></trkpt><trkpt lat="45.3802517" lon="10.5981317"><ele>136.5</ele><time>2026-03-29T08:35:45.458Z</time></trkpt><trkpt lat="45.3803" lon="10.5983017"><ele>136.75</ele><time>2026-03-29T08:35:46.458Z</time></trkpt><trkpt lat="45.3803333" lon="10.59846"><ele>137.0</ele><time>2026-03-29T08:35:47.458Z</time></trkpt><trkpt lat="45.3803467" lon="10.5986017"><ele>137.0</ele><time>2026-03-29T08:35:48.458Z</time></trkpt><trkpt lat="45.3803533" lon="10.5987083"><ele>137.0</ele><time>2026-03-29T08:35:49.458Z</time></trkpt><trkpt lat="45.3803733" lon="10.59881"><ele>137.0</ele><time>2026-03-29T08:35:52.458Z</time></trkpt><trkpt lat="45.380365" lon="10.5989167"><ele>137.0</ele><time>2026-03-29T08:35:54.457Z</time></trkpt><trkpt lat="45.3803617" lon="10.59901"><ele>137.0</ele><time>2026-03-29T08:35:55.458Z</time></trkpt><trkpt lat="45.3803617" lon="10.5991333"><ele>137.0</ele><time>2026-03-29T08:35:56.458Z</time></trkpt><trkpt lat="45.3803717" lon="10.599305"><ele>136.66666666666666</ele><time>2026-03-29T08:35:57.458Z</time></trkpt><trkpt lat="45.380385" lon="10.5995067"><ele>136.33333333333334</ele><time>2026-03-29T08:35:58.458Z</time></trkpt><trkpt lat="45.3803967" lon="10.5997317"><ele>136.0</ele><time>2026-03-29T08:35:59.458Z</time></trkpt><trkpt lat="45.380405" lon="10.5999567"><ele>136.0</ele><time>2026-03-29T08:36:00.458Z</time></trkpt><trkpt lat="45.38041" lon="10.60016"><ele>136.0</ele><time>2026-03-29T08:36:01.458Z</time></trkpt><trkpt lat="45.38042" lon="10.6003317"><ele>136.0</ele><time>2026-03-29T08:36:02.458Z</time></trkpt><trkpt lat="45.3804217" lon="10.6004667"><ele>136.0</ele><time>2026-03-29T08:36:03.458Z</time></trkpt><trkpt lat="45.3804033" lon="10.600565"><ele>136.0</ele><time>2026-03-29T08:36:04.458Z</time></trkpt><trkpt lat="45.3804733" lon="10.6005217"><ele>136.0</ele><time>2026-03-29T08:36:09.458Z</time></trkpt><trkpt lat="45.38052" lon="10.6003767"><ele>136.0</ele><time>2026-03-29T08:36:11.458Z</time></trkpt><trkpt lat="45.38053" lon="10.6002567"><ele>136.0</ele><time>2026-03-29T08:36:13.458Z</time></trkpt><trkpt lat="45.3804483" lon="10.60032"><ele>136.0</ele><time>2026-03-29T09:08:39.454Z</time></trkpt><trkpt lat="45.3804183" lon="10.600415"><ele>136.0</ele><time>2026-03-29T09:08:40.453Z</time></trkpt><trkpt lat="45.3803933" lon="10.6005"><ele>136.0</ele><time>2026-03-29T09:08:41.454Z</time></trkpt><trkpt lat="45.38028" lon="10.6006"><ele>135.25</ele><time>2026-03-29T09:08:43.454Z</time></trkpt><trkpt lat="45.3801783" lon="10.6006233"><ele>134.5</ele><time>2026-03-29T09:08:44.454Z</time></trkpt><trkpt lat="45.3800433" lon="10.60065"><ele>133.75</ele><time>2026-03-29T09:08:45.454Z</time></trkpt><trkpt lat="45.379885" lon="10.6006783"><ele>133.0</ele><time>2026-03-29T09:08:46.454Z</time></trkpt><trkpt lat="45.3796967" lon="10.6007133"><ele>133.66666666666669</ele><time>2026-03-29T09:08:47.454Z</time></trkpt><trkpt lat="45.3795083" lon="10.6007433"><ele>134.33333333333334</ele><time>2026-03-29T09:08:48.454Z</time></trkpt><trkpt lat="45.3793267" lon="10.6007833"><ele>135.0</ele><time>2026-03-29T09:08:49.454Z</time></trkpt><trkpt lat="45.3791633" lon="10.600805"><ele>135.0</ele><time>2026-03-29T09:08:50.454Z</time></trkpt><trkpt lat="45.3790117" lon="10.600815"><ele>135.0</ele><time>2026-03-29T09:08:51.454Z</time></trkpt><trkpt lat="45.3788683" lon="10.6008083"><ele>135.0</ele><time>2026-03-29T09:08:52.454Z</time></trkpt><trkpt lat="45.3787217" lon="10.6008"><ele>135.0</ele><time>2026-03-29T09:08:53.454Z</time></trkpt><trkpt lat="45.3785683" lon="10.6007717"><ele>133.33333333333334</ele><time>2026-03-29T09:08:54.454Z</time></trkpt><trkpt lat="45.3784017" lon="10.60073"><ele>131.66666666666669</ele><time>2026-03-29T09:08:55.454Z</time></trkpt><trkpt lat="45.3782267" lon="10.6006983"><ele>130.0</ele><time>2026-03-29T09:08:56.454Z</time></trkpt><trkpt lat="45.3780483" lon="10.6006817"><ele>127.33333333333334</ele><time>2026-03-29T09:08:57.454Z</time></trkpt><trkpt lat="45.3778733" lon="10.60069"><ele>124.66666666666666</ele><time>2026-03-29T09:08:58.454Z</time></trkpt><trkpt lat="45.3777117" lon="10.6007683"><ele>122.0</ele><time>2026-03-29T09:08:59.454Z</time></trkpt><trkpt lat="45.3775433" lon="10.60088"><ele>122.0</ele><time>2026-03-29T09:09:00.453Z</time></trkpt><trkpt lat="45.3773867" lon="10.6010283"><ele>122.0</ele><time>2026-03-29T09:09:01.454Z</time></trkpt><trkpt lat="45.37722" lon="10.60118"><ele>122.0</ele><time>2026-03-29T09:09:02.454Z</time></trkpt><trkpt lat="45.377055" lon="10.601325"><ele>121.0</ele><time>2026-03-29T09:09:03.454Z</time></trkpt><trkpt lat="45.3769033" lon="10.6014283"><ele>120.0</ele><time>2026-03-29T09:09:04.454Z</time></trkpt><trkpt lat="45.376745" lon="10.6014983"><ele>119.0</ele><time>2026-03-29T09:09:05.454Z</time></trkpt><trkpt lat="45.3765883" lon="10.6015417"><ele>119.0</ele><time>2026-03-29T09:09:06.454Z</time></trkpt><trkpt lat="45.3764433" lon="10.6015617"><ele>119.0</ele><time>2026-03-29T09:09:07.454Z</time></trkpt><trkpt lat="45.3763117" lon="10.6015833"><ele>119.0</ele><time>2026-03-29T09:09:08.454Z</time></trkpt><trkpt lat="45.3761817" lon="10.6015917"><ele>119.0</ele><time>2026-03-29T09:09:09.454Z</time></trkpt><trkpt lat="45.3760533" lon="10.6015883"><ele>119.25</ele><time>2026-03-29T09:09:10.454Z</time></trkpt><trkpt lat="45.3759333" lon="10.601575"><ele>119.5</ele><time>2026-03-29T09:09:11.454Z</time></trkpt><trkpt lat="45.375795" lon="10.601565"><ele>119.75</ele><time>2026-03-29T09:09:12.454Z</time></trkpt><trkpt lat="45.3756567" lon="10.601575"><ele>120.0</ele><time>2026-03-29T09:09:13.453Z</time></trkpt><trkpt lat="45.37552" lon="10.6015467"><ele>118.0</ele><time>2026-03-29T09:09:14.454Z</time></trkpt><trkpt lat="45.3753767" lon="10.60149"><ele>116.0</ele><time>2026-03-29T09:09:15.454Z</time></trkpt><trkpt lat="45.375225" lon="10.601395"><ele>114.0</ele><time>2026-03-29T09:09:16.454Z</time></trkpt><trkpt lat="45.3750983" lon="10.6012833"><ele>114.0</ele><time>2026-03-29T09:09:17.454Z</time></trkpt><trkpt lat="45.3749767" lon="10.6011933"><ele>114.0</ele><time>2026-03-29T09:09:18.453Z</time></trkpt><trkpt lat="45.37485" lon="10.6011183"><ele>114.0</ele><time>2026-03-29T09:09:19.453Z</time></trkpt><trkpt lat="45.3747167" lon="10.601015"><ele>114.0</ele><time>2026-03-29T09:09:20.454Z</time></trkpt><trkpt lat="45.37457" lon="10.6009067"><ele>113.0</ele><time>2026-03-29T09:09:21.454Z</time></trkpt><trkpt lat="45.374425" lon="10.600795"><ele>112.0</ele><time>2026-03-29T09:09:22.453Z</time></trkpt><trkpt lat="45.3742683" lon="10.600685"><ele>111.0</ele><time>2026-03-29T09:09:23.454Z</time></trkpt><trkpt lat="45.3741217" lon="10.6005733"><ele>111.0</ele><time>2026-03-29T09:09:24.454Z</time></trkpt><trkpt lat="45.37399" lon="10.6004617"><ele>111.0</ele><time>2026-03-29T09:09:25.454Z</time></trkpt><trkpt lat="45.3738667" lon="10.6003633"><ele>111.0</ele><time>2026-03-29T09:09:26.454Z</time></trkpt><trkpt lat="45.3737483" lon="10.6002733"><ele>111.0</ele><time>2026-03-29T09:09:27.454Z</time></trkpt><trkpt lat="45.3736467" lon="10.6001767"><ele>111.25</ele><time>2026-03-29T09:09:28.454Z</time></trkpt><trkpt lat="45.3735417" lon="10.6000867"><ele>111.5</ele><time>2026-03-29T09:09:29.454Z</time></trkpt><trkpt lat="45.3734317" lon="10.599995"><ele>111.75</ele><time>2026-03-29T09:09:30.453Z</time></trkpt><trkpt lat="45.37334" lon="10.599895"><ele>112.0</ele><time>2026-03-29T09:09:31.454Z</time></trkpt><trkpt lat="45.373255" lon="10.5998017"><ele>112.0</ele><time>2026-03-29T09:09:32.453Z</time></trkpt><trkpt lat="45.3731683" lon="10.5996867"><ele>112.0</ele><time>2026-03-29T09:09:33.453Z</time></trkpt><trkpt lat="45.373105" lon="10.59954"><ele>112.0</ele><time>2026-03-29T09:09:34.453Z</time></trkpt><trkpt lat="45.37305" lon="10.59935"><ele>112.0</ele><time>2026-03-29T09:09:35.453Z</time></trkpt><trkpt lat="45.373025" lon="10.5991383"><ele>110.66666666666667</ele><time>2026-03-29T09:09:36.453Z</time></trkpt><trkpt lat="45.373015" lon="10.5989167"><ele>109.33333333333334</ele><time>2026-03-29T09:09:37.453Z</time></trkpt><trkpt lat="45.3729883" lon="10.5987017"><ele>108.0</ele><time>2026-03-29T09:09:38.453Z</time></trkpt><trkpt lat="45.37296" lon="10.59848"><ele>108.0</ele><time>2026-03-29T09:09:39.453Z</time></trkpt><trkpt lat="45.3729083" lon="10.5982517"><ele>108.0</ele><time>2026-03-29T09:09:40.453Z</time></trkpt><trkpt lat="45.3728467" lon="10.5980333"><ele>108.0</ele><time>2026-03-29T09:09:41.453Z</time></trkpt><trkpt lat="45.3727717" lon="10.59781"><ele>108.33333333333334</ele><time>2026-03-29T09:09:42.453Z</time></trkpt><trkpt lat="45.3726967" lon="10.5975733"><ele>108.66666666666667</ele><time>2026-03-29T09:09:43.453Z</time></trkpt><trkpt lat="45.3726117" lon="10.597375"><ele>109.0</ele><time>2026-03-29T09:09:44.453Z</time></trkpt><trkpt lat="45.3725083" lon="10.597205"><ele>109.0</ele><time>2026-03-29T09:09:45.453Z</time></trkpt><trkpt lat="45.372375" lon="10.597075"><ele>109.0</ele><time>2026-03-29T09:09:46.453Z</time></trkpt><trkpt lat="45.3722033" lon="10.5969583"><ele>109.0</ele><time>2026-03-29T09:09:47.453Z</time></trkpt><trkpt lat="45.3719983" lon="10.5968367"><ele>110.5</ele><time>2026-03-29T09:09:48.453Z</time></trkpt><trkpt lat="45.3717817" lon="10.5967017"><ele>112.0</ele><time>2026-03-29T09:09:49.453Z</time></trkpt><trkpt lat="45.3715533" lon="10.5965617"><ele>112.0</ele><time>2026-03-29T09:09:50.453Z</time></trkpt><trkpt lat="45.37133" lon="10.5964317"><ele>112.0</ele><time>2026-03-29T09:09:51.453Z</time></trkpt><trkpt lat="45.3711117" lon="10.5963083"><ele>112.0</ele><time>2026-03-29T09:09:52.453Z</time></trkpt><trkpt lat="45.370915" lon="10.5962"><ele>112.0</ele><time>2026-03-29T09:09:53.453Z</time></trkpt><trkpt lat="45.370745" lon="10.596125"><ele>112.0</ele><time>2026-03-29T09:09:54.453Z</time></trkpt><trkpt lat="45.3705917" lon="10.596065"><ele>113.6</ele><time>2026-03-29T09:09:55.453Z</time></trkpt><trkpt lat="45.3704517" lon="10.5960167"><ele>115.19999999999999</ele><time>2026-03-29T09:09:56.453Z</time></trkpt><trkpt lat="45.37033" lon="10.595995"><ele>116.8</ele><time>2026-03-29T09:09:57.453Z</time></trkpt><trkpt lat="45.3702333" lon="10.595985"><ele>118.4</ele><time>2026-03-29T09:09:58.453Z</time></trkpt><trkpt lat="45.3701667" lon="10.5959683"><ele>120.0</ele><time>2026-03-29T09:09:59.453Z</time></trkpt><trkpt lat="45.3700867" lon="10.59588"><ele>120.0</ele><time>2026-03-29T09:10:01.453Z</time></trkpt><trkpt lat="45.370085" lon="10.5957367"><ele>120.0</ele><time>2026-03-29T09:10:03.452Z</time></trkpt><trkpt lat="45.370095" lon="10.5956067"><ele>120.0</ele><time>2026-03-29T09:10:04.453Z</time></trkpt><trkpt lat="45.370125" lon="10.5954167"><ele>120.0</ele><time>2026-03-29T09:10:05.453Z</time></trkpt><trkpt lat="45.3701533" lon="10.5951633"><ele>120.33333333333334</ele><time>2026-03-29T09:10:06.453Z</time></trkpt><trkpt lat="45.370165" lon="10.5948783"><ele>120.66666666666667</ele><time>2026-03-29T09:10:07.453Z</time></trkpt><trkpt lat="45.37016" lon="10.5946083"><ele>121.0</ele><time>2026-03-29T09:10:08.453Z</time></trkpt><trkpt lat="45.3701483" lon="10.5943917"><ele>121.5</ele><time>2026-03-29T09:10:09.453Z</time></trkpt><trkpt lat="45.3701367" lon="10.5941883"><ele>122.0</ele><time>2026-03-29T09:10:10.453Z</time></trkpt><trkpt lat="45.37012" lon="10.594"><ele>122.5</ele><time>2026-03-29T09:10:11.452Z</time></trkpt><trkpt lat="45.3701033" lon="10.5938433"><ele>123.0</ele><time>2026-03-29T09:10:12.453Z</time></trkpt><trkpt lat="45.370095" lon="10.5937033"><ele>123.16666666666667</ele><time>2026-03-29T09:10:13.452Z</time></trkpt><trkpt lat="45.37008" lon="10.5935833"><ele>123.33333333333334</ele><time>2026-03-29T09:10:14.453Z</time></trkpt><trkpt lat="45.37008" lon="10.593455"><ele>123.5</ele><time>2026-03-29T09:10:15.452Z</time></trkpt><trkpt lat="45.3700933" lon="10.59333"><ele>123.66666666666667</ele><time>2026-03-29T09:10:16.453Z</time></trkpt><trkpt lat="45.3701167" lon="10.5932217"><ele>123.83333333333334</ele><time>2026-03-29T09:10:17.453Z</time></trkpt><trkpt lat="45.370155" lon="10.5931317"><ele>124.0</ele><time>2026-03-29T09:10:18.452Z</time></trkpt><trkpt lat="45.3701917" lon="10.59305"><ele>124.00000000000001</ele><time>2026-03-29T09:10:19.452Z</time></trkpt><trkpt lat="45.3702267" lon="10.592975"><ele>124.0</ele><time>2026-03-29T09:10:20.453Z</time></trkpt><trkpt lat="45.3702683" lon="10.5928933"><ele>124.0</ele><time>2026-03-29T09:10:21.453Z</time></trkpt><trkpt lat="45.3703167" lon="10.592795"><ele>124.0</ele><time>2026-03-29T09:10:22.453Z</time></trkpt><trkpt lat="45.37036" lon="10.592665"><ele>124.00000000000001</ele><time>2026-03-29T09:10:23.453Z</time></trkpt><trkpt lat="45.370415" lon="10.5925283"><ele>124.0</ele><time>2026-03-29T09:10:24.452Z</time></trkpt><trkpt lat="45.3704733" lon="10.5923817"><ele>121.5</ele><time>2026-03-29T09:10:25.453Z</time></trkpt><trkpt lat="45.3705367" lon="10.5922333"><ele>119.0</ele><time>2026-03-29T09:10:26.453Z</time></trkpt><trkpt lat="45.3705983" lon="10.59208"><ele>116.5</ele><time>2026-03-29T09:10:27.452Z</time></trkpt><trkpt lat="45.3706533" lon="10.5919367"><ele>114.0</ele><time>2026-03-29T09:10:28.453Z</time></trkpt><trkpt lat="45.370695" lon="10.5917817"><ele>114.0</ele><time>2026-03-29T09:10:29.453Z</time></trkpt><trkpt lat="45.37073" lon="10.59162"><ele>114.0</ele><time>2026-03-29T09:10:30.453Z</time></trkpt><trkpt lat="45.3707567" lon="10.5914617"><ele>114.0</ele><time>2026-03-29T09:10:31.453Z</time></trkpt><trkpt lat="45.3707683" lon="10.5913033"><ele>114.0</ele><time>2026-03-29T09:10:32.453Z</time></trkpt><trkpt lat="45.3707733" lon="10.5911483"><ele>113.6</ele><time>2026-03-29T09:10:33.453Z</time></trkpt><trkpt lat="45.3707717" lon="10.590995"><ele>113.2</ele><time>2026-03-29T09:10:34.453Z</time></trkpt><trkpt lat="45.3707483" lon="10.590875"><ele>112.79999999999998</ele><time>2026-03-29T09:10:35.453Z</time></trkpt><trkpt lat="45.37071" lon="10.590765"><ele>112.39999999999999</ele><time>2026-03-29T09:10:36.453Z</time></trkpt><trkpt lat="45.3706567" lon="10.5906517"><ele>112.0</ele><time>2026-03-29T09:10:37.453Z</time></trkpt><trkpt lat="45.370585" lon="10.5905217"><ele>114.19999999999999</ele><time>2026-03-29T09:10:38.452Z</time></trkpt><trkpt lat="45.3705067" lon="10.5903983"><ele>116.39999999999999</ele><time>2026-03-29T09:10:39.453Z</time></trkpt><trkpt lat="45.3704267" lon="10.5902783"><ele>118.60000000000001</ele><time>2026-03-29T09:10:40.453Z</time></trkpt><trkpt lat="45.370355" lon="10.5901617"><ele>120.80000000000001</ele><time>2026-03-29T09:10:41.453Z</time></trkpt><trkpt lat="45.3702933" lon="10.59005"><ele>123.0</ele><time>2026-03-29T09:10:42.453Z</time></trkpt><trkpt lat="45.3702467" lon="10.5899217"><ele>123.0</ele><time>2026-03-29T09:10:43.452Z</time></trkpt><trkpt lat="45.3702117" lon="10.5898017"><ele>123.0</ele><time>2026-03-29T09:10:44.453Z</time></trkpt><trkpt lat="45.37018" lon="10.589695"><ele>123.0</ele><time>2026-03-29T09:10:45.453Z</time></trkpt><trkpt lat="45.3701317" lon="10.589625"><ele>123.0</ele><time>2026-03-29T09:10:46.453Z</time></trkpt><trkpt lat="45.37006" lon="10.5895567"><ele>123.0</ele><time>2026-03-29T09:10:47.453Z</time></trkpt><trkpt lat="45.369995" lon="10.589505"><ele>123.0</ele><time>2026-03-29T09:10:48.453Z</time></trkpt><trkpt lat="45.3699317" lon="10.5894783"><ele>123.16666666666667</ele><time>2026-03-29T09:10:49.453Z</time></trkpt><trkpt lat="45.3698667" lon="10.5894517"><ele>123.33333333333334</ele><time>2026-03-29T09:10:50.453Z</time></trkpt><trkpt lat="45.3697933" lon="10.589405"><ele>123.5</ele><time>2026-03-29T09:10:51.453Z</time></trkpt><trkpt lat="45.3697167" lon="10.58935"><ele>123.66666666666667</ele><time>2026-03-29T09:10:52.453Z</time></trkpt><trkpt lat="45.36964" lon="10.5892917"><ele>123.83333333333334</ele><time>2026-03-29T09:10:53.453Z</time></trkpt><trkpt lat="45.3695583" lon="10.5892267"><ele>124.0</ele><time>2026-03-29T09:10:54.453Z</time></trkpt><trkpt lat="45.3694833" lon="10.58915"><ele>124.0</ele><time>2026-03-29T09:10:55.453Z</time></trkpt><trkpt lat="45.3694067" lon="10.5890567"><ele>124.0</ele><time>2026-03-29T09:10:56.453Z</time></trkpt><trkpt lat="45.36934" lon="10.5889383"><ele>124.0</ele><time>2026-03-29T09:10:57.453Z</time></trkpt><trkpt lat="45.3692733" lon="10.5888117"><ele>124.0</ele><time>2026-03-29T09:10:58.453Z</time></trkpt><trkpt lat="45.3692083" lon="10.5886683"><ele>124.0</ele><time>2026-03-29T09:10:59.453Z</time></trkpt><trkpt lat="45.3691517" lon="10.5885333"><ele>124.71428571428572</ele><time>2026-03-29T09:11:00.453Z</time></trkpt><trkpt lat="45.3691" lon="10.5884317"><ele>125.42857142857144</ele><time>2026-03-29T09:11:01.453Z</time></trkpt><trkpt lat="45.369055" lon="10.5883367"><ele>126.14285714285714</ele><time>2026-03-29T09:11:02.452Z</time></trkpt><trkpt lat="45.36901" lon="10.5882517"><ele>126.85714285714286</ele><time>2026-03-29T09:11:03.453Z</time></trkpt><trkpt lat="45.368965" lon="10.588185"><ele>127.57142857142857</ele><time>2026-03-29T09:11:04.452Z</time></trkpt><trkpt lat="45.3689067" lon="10.5881433"><ele>128.28571428571428</ele><time>2026-03-29T09:11:05.453Z</time></trkpt><trkpt lat="45.3688433" lon="10.5881067"><ele>129.0</ele><time>2026-03-29T09:11:06.453Z</time></trkpt><trkpt lat="45.3687683" lon="10.5880617"><ele>129.0</ele><time>2026-03-29T09:11:07.453Z</time></trkpt><trkpt lat="45.36868" lon="10.5880017"><ele>129.0</ele><time>2026-03-29T09:11:08.453Z</time></trkpt><trkpt lat="45.368595" lon="10.5879317"><ele>129.0</ele><time>2026-03-29T09:11:09.453Z</time></trkpt><trkpt lat="45.3685283" lon="10.5878217"><ele>129.0</ele><time>2026-03-29T09:11:10.453Z</time></trkpt><trkpt lat="45.3684667" lon="10.5877283"><ele>129.0</ele><time>2026-03-29T09:11:11.453Z</time></trkpt><trkpt lat="45.3684133" lon="10.58764"><ele>128.16666666666666</ele><time>2026-03-29T09:11:12.453Z</time></trkpt><trkpt lat="45.368365" lon="10.5875533"><ele>127.33333333333334</ele><time>2026-03-29T09:11:13.453Z</time></trkpt><trkpt lat="45.3683267" lon="10.587455"><ele>126.5</ele><time>2026-03-29T09:11:14.452Z</time></trkpt><trkpt lat="45.3682967" lon="10.5873617"><ele>125.66666666666667</ele><time>2026-03-29T09:11:15.452Z</time></trkpt><trkpt lat="45.3682733" lon="10.587275"><ele>124.83333333333334</ele><time>2026-03-29T09:11:16.453Z</time></trkpt><trkpt lat="45.36817" lon="10.5871483"><ele>124.0</ele><time>2026-03-29T09:11:18.453Z</time></trkpt><trkpt lat="45.3681033" lon="10.5870733"><ele>122.80000000000001</ele><time>2026-03-29T09:11:19.453Z</time></trkpt><trkpt lat="45.3680467" lon="10.5869717"><ele>121.60000000000001</ele><time>2026-03-29T09:11:20.453Z</time></trkpt><trkpt lat="45.3680033" lon="10.5868633"><ele>120.4</ele><time>2026-03-29T09:11:21.453Z</time></trkpt><trkpt lat="45.3679617" lon="10.5867367"><ele>119.2</ele><time>2026-03-29T09:11:22.453Z</time></trkpt><trkpt lat="45.3679183" lon="10.58661"><ele>118.0</ele><time>2026-03-29T09:11:23.453Z</time></trkpt><trkpt lat="45.3678667" lon="10.586485"><ele>118.75</ele><time>2026-03-29T09:11:24.453Z</time></trkpt><trkpt lat="45.3677933" lon="10.58635"><ele>119.5</ele><time>2026-03-29T09:11:25.453Z</time></trkpt><trkpt lat="45.3677133" lon="10.58621"><ele>120.25</ele><time>2026-03-29T09:11:26.453Z</time></trkpt><trkpt lat="45.3676233" lon="10.5860717"><ele>121.0</ele><time>2026-03-29T09:11:27.453Z</time></trkpt><trkpt lat="45.36754" lon="10.5859217"><ele>121.0</ele><time>2026-03-29T09:11:28.452Z</time></trkpt><trkpt lat="45.3674667" lon="10.5857767"><ele>121.0</ele><time>2026-03-29T09:11:29.453Z</time></trkpt><trkpt lat="45.3673967" lon="10.5856167"><ele>121.0</ele><time>2026-03-29T09:11:30.453Z</time></trkpt><trkpt lat="45.36732" lon="10.5854683"><ele>121.0</ele><time>2026-03-29T09:11:31.453Z</time></trkpt><trkpt lat="45.36726" lon="10.585355"><ele>121.16666666666667</ele><time>2026-03-29T09:11:32.453Z</time></trkpt><trkpt lat="45.3672083" lon="10.58526"><ele>121.33333333333334</ele><time>2026-03-29T09:11:33.452Z</time></trkpt><trkpt lat="45.3671783" lon="10.5851617"><ele>121.5</ele><time>2026-03-29T09:11:34.453Z</time></trkpt><trkpt lat="45.3671833" lon="10.5850633"><ele>121.66666666666666</ele><time>2026-03-29T09:11:35.453Z</time></trkpt><trkpt lat="45.367205" lon="10.58494"><ele>121.83333333333333</ele><time>2026-03-29T09:11:36.453Z</time></trkpt><trkpt lat="45.367245" lon="10.5848017"><ele>122.0</ele><time>2026-03-29T09:11:37.453Z</time></trkpt><trkpt lat="45.367305" lon="10.5846533"><ele>123.25</ele><time>2026-03-29T09:11:38.453Z</time></trkpt><trkpt lat="45.3673883" lon="10.584485"><ele>124.5</ele><time>2026-03-29T09:11:39.453Z</time></trkpt><trkpt lat="45.36748" lon="10.5843117"><ele>125.75</ele><time>2026-03-29T09:11:40.453Z</time></trkpt><trkpt lat="45.367565" lon="10.5841467"><ele>127.0</ele><time>2026-03-29T09:11:41.453Z</time></trkpt><trkpt lat="45.3676517" lon="10.5839817"><ele>127.0</ele><time>2026-03-29T09:11:42.453Z</time></trkpt><trkpt lat="45.3677417" lon="10.5838183"><ele>127.0</ele><time>2026-03-29T09:11:43.453Z</time></trkpt><trkpt lat="45.36781" lon="10.5836567"><ele>127.0</ele><time>2026-03-29T09:11:44.452Z</time></trkpt><trkpt lat="45.3678633" lon="10.58349"><ele>127.0</ele><time>2026-03-29T09:11:45.453Z</time></trkpt><trkpt lat="45.3678983" lon="10.5833517"><ele>127.5</ele><time>2026-03-29T09:11:46.453Z</time></trkpt><trkpt lat="45.3679183" lon="10.5831867"><ele>128.0</ele><time>2026-03-29T09:11:47.453Z</time></trkpt><trkpt lat="45.3679283" lon="10.583"><ele>128.5</ele><time>2026-03-29T09:11:48.453Z</time></trkpt><trkpt lat="45.3679533" lon="10.5828183"><ele>129.0</ele><time>2026-03-29T09:11:49.453Z</time></trkpt><trkpt lat="45.3679833" lon="10.5826483"><ele>129.0</ele><time>2026-03-29T09:11:50.453Z</time></trkpt><trkpt lat="45.36802" lon="10.58249"><ele>129.0</ele><time>2026-03-29T09:11:51.453Z</time></trkpt><trkpt lat="45.3680583" lon="10.5823267"><ele>129.0</ele><time>2026-03-29T09:11:52.453Z</time></trkpt><trkpt lat="45.3680983" lon="10.5821733"><ele>129.0</ele><time>2026-03-29T09:11:53.453Z</time></trkpt><trkpt lat="45.3681333" lon="10.58205"><ele>129.0</ele><time>2026-03-29T09:11:54.453Z</time></trkpt><trkpt lat="45.3681733" lon="10.581955"><ele>125.6</ele><time>2026-03-29T09:11:55.453Z</time></trkpt><trkpt lat="45.3682267" lon="10.5818967"><ele>122.2</ele><time>2026-03-29T09:11:56.453Z</time></trkpt><trkpt lat="45.36829" lon="10.5818583"><ele>118.79999999999998</ele><time>2026-03-29T09:11:57.453Z</time></trkpt><trkpt lat="45.3683817" lon="10.58184"><ele>115.39999999999999</ele><time>2026-03-29T09:11:58.453Z</time></trkpt><trkpt lat="45.3685133" lon="10.58182"><ele>112.0</ele><time>2026-03-29T09:11:59.453Z</time></trkpt><trkpt lat="45.36869" lon="10.5817667"><ele>111.66666666666667</ele><time>2026-03-29T09:12:00.453Z</time></trkpt><trkpt lat="45.3688883" lon="10.5816733"><ele>111.33333333333334</ele><time>2026-03-29T09:12:01.452Z</time></trkpt><trkpt lat="45.369065" lon="10.581575"><ele>111.0</ele><time>2026-03-29T09:12:02.453Z</time></trkpt><trkpt lat="45.369205" lon="10.581495"><ele>111.0</ele><time>2026-03-29T09:12:03.453Z</time></trkpt><trkpt lat="45.3693033" lon="10.58144"><ele>111.0</ele><time>2026-03-29T09:12:04.453Z</time></trkpt><trkpt lat="45.3693867" lon="10.581385"><ele>111.0</ele><time>2026-03-29T09:12:05.453Z</time></trkpt><trkpt lat="45.36944" lon="10.5812617"><ele>111.0</ele><time>2026-03-29T09:12:07.453Z</time></trkpt><trkpt lat="45.36938" lon="10.5811917"><ele>111.0</ele><time>2026-03-29T09:12:09.452Z</time></trkpt><trkpt lat="45.3692883" lon="10.5811833"><ele>111.0</ele><time>2026-03-29T09:12:10.453Z</time></trkpt><trkpt lat="45.369165" lon="10.58122"><ele>111.0</ele><time>2026-03-29T09:12:11.453Z</time></trkpt><trkpt lat="45.369" lon="10.5812883"><ele>111.0</ele><time>2026-03-29T09:12:12.453Z</time></trkpt><trkpt lat="45.3687683" lon="10.5813717"><ele>111.5</ele><time>2026-03-29T09:12:13.453Z</time></trkpt><trkpt lat="45.3685383" lon="10.581425"><ele>112.0</ele><time>2026-03-29T09:12:14.453Z</time></trkpt><trkpt lat="45.368295" lon="10.5814767"><ele>112.0</ele><time>2026-03-29T09:12:15.453Z</time></trkpt><trkpt lat="45.3680367" lon="10.5814983"><ele>112.0</ele><time>2026-03-29T09:12:16.452Z</time></trkpt><trkpt lat="45.367765" lon="10.581515"><ele>118.0</ele><time>2026-03-29T09:12:17.453Z</time></trkpt><trkpt lat="45.36748" lon="10.5815417"><ele>124.0</ele><time>2026-03-29T09:12:18.453Z</time></trkpt><trkpt lat="45.3671917" lon="10.58157"><ele>126.5</ele><time>2026-03-29T09:12:19.453Z</time></trkpt><trkpt lat="45.36692" lon="10.58159"><ele>129.0</ele><time>2026-03-29T09:12:20.453Z</time></trkpt><trkpt lat="45.3666767" lon="10.5816083"><ele>129.0</ele><time>2026-03-29T09:12:21.453Z</time></trkpt><trkpt lat="45.3664717" lon="10.5816167"><ele>129.0</ele><time>2026-03-29T09:12:22.453Z</time></trkpt><trkpt lat="45.3663033" lon="10.5816233"><ele>129.0</ele><time>2026-03-29T09:12:23.453Z</time></trkpt><trkpt lat="45.3661617" lon="10.5816133"><ele>129.6</ele><time>2026-03-29T09:12:24.453Z</time></trkpt><trkpt lat="45.36605" lon="10.5815867"><ele>130.2</ele><time>2026-03-29T09:12:25.452Z</time></trkpt><trkpt lat="45.36594" lon="10.58155"><ele>130.79999999999998</ele><time>2026-03-29T09:12:26.453Z</time></trkpt><trkpt lat="45.3658433" lon="10.581515"><ele>131.4</ele><time>2026-03-29T09:12:27.453Z</time></trkpt><trkpt lat="45.3657517" lon="10.5814867"><ele>132.0</ele><time>2026-03-29T09:12:28.453Z</time></trkpt><trkpt lat="45.3656583" lon="10.58149"><ele>132.0</ele><time>2026-03-29T09:12:29.453Z</time></trkpt><trkpt lat="45.3655533" lon="10.58153"><ele>132.0</ele><time>2026-03-29T09:12:30.453Z</time></trkpt><trkpt lat="45.3654183" lon="10.5815767"><ele>132.0</ele><time>2026-03-29T09:12:31.453Z</time></trkpt><trkpt lat="45.36526" lon="10.58165"><ele>132.0</ele><time>2026-03-29T09:12:32.453Z</time></trkpt><trkpt lat="45.3650683" lon="10.5817233"><ele>133.66666666666666</ele><time>2026-03-29T09:12:33.453Z</time></trkpt><trkpt lat="45.3648517" lon="10.58177"><ele>135.33333333333331</ele><time>2026-03-29T09:12:34.452Z</time></trkpt><trkpt lat="45.3646283" lon="10.5817867"><ele>137.0</ele><time>2026-03-29T09:12:35.453Z</time></trkpt><trkpt lat="45.3643867" lon="10.5817917"><ele>139.5</ele><time>2026-03-29T09:12:36.453Z</time></trkpt><trkpt lat="45.3641467" lon="10.5818"><ele>142.0</ele><time>2026-03-29T09:12:37.453Z</time></trkpt><trkpt lat="45.3639067" lon="10.5817883"><ele>143.0</ele><time>2026-03-29T09:12:38.453Z</time></trkpt><trkpt lat="45.3636667" lon="10.5817533"><ele>144.0</ele><time>2026-03-29T09:12:39.453Z</time></trkpt><trkpt lat="45.36343" lon="10.58169"><ele>144.0</ele><time>2026-03-29T09:12:40.453Z</time></trkpt><trkpt lat="45.3632067" lon="10.581605"><ele>144.0</ele><time>2026-03-29T09:12:41.453Z</time></trkpt><trkpt lat="45.3629883" lon="10.5815067"><ele>145.0</ele><time>2026-03-29T09:12:42.453Z</time></trkpt><trkpt lat="45.3627733" lon="10.5813917"><ele>146.0</ele><time>2026-03-29T09:12:43.453Z</time></trkpt><trkpt lat="45.362555" lon="10.5812783"><ele>146.5</ele><time>2026-03-29T09:12:44.453Z</time></trkpt><trkpt lat="45.362355" lon="10.58114"><ele>147.0</ele><time>2026-03-29T09:12:45.453Z</time></trkpt><trkpt lat="45.36214" lon="10.58096"><ele>149.5</ele><time>2026-03-29T09:12:46.453Z</time></trkpt><trkpt lat="45.3619283" lon="10.5807767"><ele>152.0</ele><time>2026-03-29T09:12:47.453Z</time></trkpt><trkpt lat="45.3617517" lon="10.5806083"><ele>152.0</ele><time>2026-03-29T09:12:48.453Z</time></trkpt><trkpt lat="45.3616067" lon="10.58048"><ele>152.0</ele><time>2026-03-29T09:12:49.453Z</time></trkpt><trkpt lat="45.3614933" lon="10.58037"><ele>152.0</ele><time>2026-03-29T09:12:50.452Z</time></trkpt><trkpt lat="45.36141" lon="10.580305"><ele>152.0</ele><time>2026-03-29T09:12:51.453Z</time></trkpt><trkpt lat="45.3613133" lon="10.58026"><ele>152.0</ele><time>2026-03-29T09:12:53.453Z</time></trkpt><trkpt lat="45.3613617" lon="10.580385"><ele>152.0</ele><time>2026-03-29T09:12:57.453Z</time></trkpt><trkpt lat="45.361415" lon="10.5804733"><ele>152.0</ele><time>2026-03-29T09:12:59.453Z</time></trkpt><trkpt lat="45.3614683" lon="10.5805683"><ele>152.0</ele><time>2026-03-29T09:13:01.453Z</time></trkpt><trkpt lat="45.3615183" lon="10.5806383"><ele>152.0</ele><time>2026-03-29T09:13:02.453Z</time></trkpt><trkpt lat="45.3615883" lon="10.5807167"><ele>152.0</ele><time>2026-03-29T09:13:03.453Z</time></trkpt><trkpt lat="45.3616717" lon="10.5808133"><ele>152.0</ele><time>2026-03-29T09:13:04.453Z</time></trkpt><trkpt lat="45.3617733" lon="10.5809183"><ele>152.0</ele><time>2026-03-29T09:13:05.453Z</time></trkpt><trkpt lat="45.36188" lon="10.5810267"><ele>152.0</ele><time>2026-03-29T09:13:06.453Z</time></trkpt><trkpt lat="45.3619867" lon="10.581145"><ele>152.0</ele><time>2026-03-29T09:13:07.453Z</time></trkpt><trkpt lat="45.3620767" lon="10.5812633"><ele>153.0</ele><time>2026-03-29T09:13:08.452Z</time></trkpt><trkpt lat="45.3621567" lon="10.58139"><ele>154.0</ele><time>2026-03-29T09:13:09.453Z</time></trkpt><trkpt lat="45.362205" lon="10.58151"><ele>155.0</ele><time>2026-03-29T09:13:10.453Z</time></trkpt><trkpt lat="45.3622167" lon="10.581665"><ele>156.0</ele><time>2026-03-29T09:13:11.452Z</time></trkpt><trkpt lat="45.3622267" lon="10.5818467"><ele>152.33333333333334</ele><time>2026-03-29T09:13:12.453Z</time></trkpt><trkpt lat="45.362225" lon="10.58205"><ele>148.66666666666669</ele><time>2026-03-29T09:13:13.452Z</time></trkpt><trkpt lat="45.362215" lon="10.5822783"><ele>145.0</ele><time>2026-03-29T09:13:14.453Z</time></trkpt><trkpt lat="45.3622133" lon="10.5825"><ele>145.0</ele><time>2026-03-29T09:13:15.453Z</time></trkpt><trkpt lat="45.36222" lon="10.582715"><ele>145.0</ele><time>2026-03-29T09:13:16.453Z</time></trkpt><trkpt lat="45.36225" lon="10.5829133"><ele>145.0</ele><time>2026-03-29T09:13:17.453Z</time></trkpt><trkpt lat="45.3622917" lon="10.5831333"><ele>146.25</ele><time>2026-03-29T09:13:18.453Z</time></trkpt><trkpt lat="45.3623383" lon="10.5833433"><ele>147.5</ele><time>2026-03-29T09:13:19.453Z</time></trkpt><trkpt lat="45.362375" lon="10.5835433"><ele>148.75</ele><time>2026-03-29T09:13:20.453Z</time></trkpt><trkpt lat="45.3624067" lon="10.5837317"><ele>150.0</ele><time>2026-03-29T09:13:21.453Z</time></trkpt><trkpt lat="45.3624283" lon="10.5839367"><ele>150.75</ele><time>2026-03-29T09:13:22.453Z</time></trkpt><trkpt lat="45.3624433" lon="10.58413"><ele>151.5</ele><time>2026-03-29T09:13:23.453Z</time></trkpt><trkpt lat="45.362455" lon="10.5843083"><ele>152.25</ele><time>2026-03-29T09:13:24.453Z</time></trkpt><trkpt lat="45.3624683" lon="10.5844517"><ele>153.0</ele><time>2026-03-29T09:13:25.453Z</time></trkpt><trkpt lat="45.362505" lon="10.5845667"><ele>153.16666666666666</ele><time>2026-03-29T09:13:26.453Z</time></trkpt><trkpt lat="45.3625617" lon="10.584665"><ele>153.33333333333334</ele><time>2026-03-29T09:13:27.453Z</time></trkpt><trkpt lat="45.3626133" lon="10.5847767"><ele>153.5</ele><time>2026-03-29T09:13:28.453Z</time></trkpt><trkpt lat="45.362645" lon="10.5849017"><ele>153.66666666666669</ele><time>2026-03-29T09:13:29.453Z</time></trkpt><trkpt lat="45.3626533" lon="10.58502"><ele>153.83333333333334</ele><time>2026-03-29T09:13:30.453Z</time></trkpt><trkpt lat="45.362635" lon="10.585135"><ele>154.0</ele><time>2026-03-29T09:13:31.453Z</time></trkpt><trkpt lat="45.3625883" lon="10.5852567"><ele>153.8</ele><time>2026-03-29T09:13:32.453Z</time></trkpt><trkpt lat="45.3625367" lon="10.5853883"><ele>153.60000000000002</ele><time>2026-03-29T09:13:33.453Z</time></trkpt><trkpt lat="45.3624967" lon="10.5855217"><ele>153.4</ele><time>2026-03-29T09:13:34.453Z</time></trkpt><trkpt lat="45.3624817" lon="10.58566"><ele>153.20000000000002</ele><time>2026-03-29T09:13:35.453Z</time></trkpt><trkpt lat="45.3625017" lon="10.585805"><ele>153.0</ele><time>2026-03-29T09:13:36.453Z</time></trkpt><trkpt lat="45.3625383" lon="10.58594"><ele>153.0</ele><time>2026-03-29T09:13:37.453Z</time></trkpt><trkpt lat="45.3625617" lon="10.586085"><ele>153.0</ele><time>2026-03-29T09:13:38.452Z</time></trkpt><trkpt lat="45.362575" lon="10.5862367"><ele>153.0</ele><time>2026-03-29T09:13:39.453Z</time></trkpt><trkpt lat="45.3625917" lon="10.586405"><ele>153.0</ele><time>2026-03-29T09:13:40.453Z</time></trkpt><trkpt lat="45.362605" lon="10.5865417"><ele>153.0</ele><time>2026-03-29T09:13:41.453Z</time></trkpt><trkpt lat="45.3626267" lon="10.5866383"><ele>153.4</ele><time>2026-03-29T09:13:42.453Z</time></trkpt><trkpt lat="45.3626983" lon="10.5867483"><ele>153.8</ele><time>2026-03-29T09:13:44.453Z</time></trkpt><trkpt lat="45.3627567" lon="10.586785"><ele>154.2</ele><time>2026-03-29T09:13:45.453Z</time></trkpt><trkpt lat="45.36283" lon="10.5868083"><ele>154.6</ele><time>2026-03-29T09:13:46.453Z</time></trkpt><trkpt lat="45.3629333" lon="10.5868083"><ele>155.0</ele><time>2026-03-29T09:13:47.453Z</time></trkpt><trkpt lat="45.3630433" lon="10.58681"><ele>152.6</ele><time>2026-03-29T09:13:48.453Z</time></trkpt><trkpt lat="45.3631533" lon="10.5868067"><ele>150.2</ele><time>2026-03-29T09:13:49.453Z</time></trkpt><trkpt lat="45.363265" lon="10.5867967"><ele>147.8</ele><time>2026-03-29T09:13:50.453Z</time></trkpt><trkpt lat="45.3633617" lon="10.5868"><ele>145.4</ele><time>2026-03-29T09:13:51.452Z</time></trkpt><trkpt lat="45.363455" lon="10.5868233"><ele>143.0</ele><time>2026-03-29T09:13:52.453Z</time></trkpt><trkpt lat="45.3635267" lon="10.5868833"><ele>143.0</ele><time>2026-03-29T09:13:53.453Z</time></trkpt><trkpt lat="45.3635667" lon="10.5869617"><ele>143.0</ele><time>2026-03-29T09:13:54.453Z</time></trkpt><trkpt lat="45.3635867" lon="10.587075"><ele>143.0</ele><time>2026-03-29T09:13:55.453Z</time></trkpt><trkpt lat="45.363585" lon="10.587165"><ele>143.0</ele><time>2026-03-29T09:13:56.452Z</time></trkpt><trkpt lat="45.3635833" lon="10.5873217"><ele>143.0</ele><time>2026-03-29T09:13:58.453Z</time></trkpt><trkpt lat="45.3635833" lon="10.58743"><ele>143.0</ele><time>2026-03-29T09:13:59.453Z</time></trkpt><trkpt lat="45.3636017" lon="10.5875533"><ele>142.0</ele><time>2026-03-29T09:14:00.453Z</time></trkpt><trkpt lat="45.3636417" lon="10.5876633"><ele>141.0</ele><time>2026-03-29T09:14:01.453Z</time></trkpt><trkpt lat="45.3636867" lon="10.5877733"><ele>140.0</ele><time>2026-03-29T09:14:02.453Z</time></trkpt><trkpt lat="45.3637583" lon="10.58786"><ele>139.0</ele><time>2026-03-29T09:14:03.453Z</time></trkpt><trkpt lat="45.36386" lon="10.587935"><ele>138.0</ele><time>2026-03-29T09:14:04.453Z</time></trkpt><trkpt lat="45.3639817" lon="10.5880067"><ele>138.0</ele><time>2026-03-29T09:14:05.453Z</time></trkpt><trkpt lat="45.3641117" lon="10.5880733"><ele>138.0</ele><time>2026-03-29T09:14:06.453Z</time></trkpt><trkpt lat="45.3642417" lon="10.5881083"><ele>138.0</ele><time>2026-03-29T09:14:07.453Z</time></trkpt><trkpt lat="45.364375" lon="10.588155"><ele>138.0</ele><time>2026-03-29T09:14:08.452Z</time></trkpt><trkpt lat="45.36451" lon="10.5882183"><ele>138.0</ele><time>2026-03-29T09:14:09.453Z</time></trkpt><trkpt lat="45.3646417" lon="10.5882767"><ele>138.0</ele><time>2026-03-29T09:14:10.453Z</time></trkpt><trkpt lat="45.3647717" lon="10.5883417"><ele>138.0</ele><time>2026-03-29T09:14:11.453Z</time></trkpt><trkpt lat="45.3648967" lon="10.5883917"><ele>138.0</ele><time>2026-03-29T09:14:12.453Z</time></trkpt><trkpt lat="45.3650233" lon="10.58842"><ele>138.5</ele><time>2026-03-29T09:14:13.453Z</time></trkpt><trkpt lat="45.365155" lon="10.588435"><ele>139.0</ele><time>2026-03-29T09:14:14.453Z</time></trkpt><trkpt lat="45.3653067" lon="10.588435"><ele>139.5</ele><time>2026-03-29T09:14:15.452Z</time></trkpt><trkpt lat="45.3654717" lon="10.5884217"><ele>140.0</ele><time>2026-03-29T09:14:16.452Z</time></trkpt><trkpt lat="45.3656217" lon="10.5883983"><ele>140.6</ele><time>2026-03-29T09:14:17.453Z</time></trkpt><trkpt lat="45.3657433" lon="10.588395"><ele>141.2</ele><time>2026-03-29T09:14:18.453Z</time></trkpt><trkpt lat="45.36584" lon="10.5884133"><ele>141.8</ele><time>2026-03-29T09:14:19.453Z</time></trkpt><trkpt lat="45.36592" lon="10.5884383"><ele>142.4</ele><time>2026-03-29T09:14:20.452Z</time></trkpt><trkpt lat="45.3659967" lon="10.5884583"><ele>143.0</ele><time>2026-03-29T09:14:21.453Z</time></trkpt><trkpt lat="45.3660933" lon="10.5885033"><ele>143.0</ele><time>2026-03-29T09:14:23.453Z</time></trkpt><trkpt lat="45.3661217" lon="10.588595"><ele>143.0</ele><time>2026-03-29T09:14:26.453Z</time></trkpt><trkpt lat="45.3661067" lon="10.5886967"><ele>143.0</ele><time>2026-03-29T09:14:28.453Z</time></trkpt><trkpt lat="45.36607" lon="10.588805"><ele>143.0</ele><time>2026-03-29T09:14:29.453Z</time></trkpt><trkpt lat="45.3660283" lon="10.5889467"><ele>143.0</ele><time>2026-03-29T09:14:30.453Z</time></trkpt><trkpt lat="45.365985" lon="10.589115"><ele>143.33333333333331</ele><time>2026-03-29T09:14:31.453Z</time></trkpt><trkpt lat="45.3659417" lon="10.5893067"><ele>143.66666666666666</ele><time>2026-03-29T09:14:32.453Z</time></trkpt><trkpt lat="45.3659" lon="10.5895267"><ele>144.0</ele><time>2026-03-29T09:14:33.453Z</time></trkpt><trkpt lat="45.36586" lon="10.5897517"><ele>144.0</ele><time>2026-03-29T09:14:34.453Z</time></trkpt><trkpt lat="45.365825" lon="10.5899683"><ele>144.0</ele><time>2026-03-29T09:14:35.452Z</time></trkpt><trkpt lat="45.3657983" lon="10.59021"><ele>144.0</ele><time>2026-03-29T09:14:36.453Z</time></trkpt><trkpt lat="45.3657667" lon="10.59046"><ele>144.0</ele><time>2026-03-29T09:14:37.453Z</time></trkpt><trkpt lat="45.3657333" lon="10.590685"><ele>144.0</ele><time>2026-03-29T09:14:38.453Z</time></trkpt><trkpt lat="45.3657033" lon="10.59093"><ele>144.0</ele><time>2026-03-29T09:14:39.453Z</time></trkpt><trkpt lat="45.3656683" lon="10.5911783"><ele>144.0</ele><time>2026-03-29T09:14:40.453Z</time></trkpt><trkpt lat="45.365635" lon="10.5913983"><ele>144.0</ele><time>2026-03-29T09:14:41.453Z</time></trkpt><trkpt lat="45.3655967" lon="10.5915683"><ele>144.0</ele><time>2026-03-29T09:14:42.453Z</time></trkpt><trkpt lat="45.36557" lon="10.5917167"><ele>144.0</ele><time>2026-03-29T09:14:43.453Z</time></trkpt><trkpt lat="45.3655567" lon="10.5918483"><ele>144.0</ele><time>2026-03-29T09:14:44.453Z</time></trkpt><trkpt lat="45.3655467" lon="10.5919983"><ele>144.0</ele><time>2026-03-29T09:14:45.453Z</time></trkpt><trkpt lat="45.3655367" lon="10.5921833"><ele>144.0</ele><time>2026-03-29T09:14:46.453Z</time></trkpt><trkpt lat="45.3655417" lon="10.59237"><ele>144.0</ele><time>2026-03-29T09:14:47.453Z</time></trkpt><trkpt lat="45.3655433" lon="10.5925467"><ele>144.0</ele><time>2026-03-29T09:14:48.453Z</time></trkpt><trkpt lat="45.3655417" lon="10.5926917"><ele>144.0</ele><time>2026-03-29T09:14:49.453Z</time></trkpt><trkpt lat="45.36554" lon="10.59281"><ele>144.0</ele><time>2026-03-29T09:14:50.453Z</time></trkpt><trkpt lat="45.36555" lon="10.5929033"><ele>144.0</ele><time>2026-03-29T09:14:51.453Z</time></trkpt><trkpt lat="45.3655817" lon="10.5929933"><ele>144.0</ele><time>2026-03-29T09:14:53.453Z</time></trkpt><trkpt lat="45.3656533" lon="10.5929317"><ele>144.0</ele><time>2026-03-29T09:14:55.453Z</time></trkpt><trkpt lat="45.3656917" lon="10.5928417"><ele>144.0</ele><time>2026-03-29T09:14:56.452Z</time></trkpt><trkpt lat="45.36572" lon="10.5926917"><ele>144.0</ele><time>2026-03-29T09:14:57.453Z</time></trkpt><trkpt lat="45.3657467" lon="10.5924783"><ele>144.0</ele><time>2026-03-29T09:14:58.453Z</time></trkpt><trkpt lat="45.3657767" lon="10.59222"><ele>144.0</ele><time>2026-03-29T09:14:59.452Z</time></trkpt><trkpt lat="45.3658133" lon="10.59195"><ele>144.0</ele><time>2026-03-29T09:15:00.452Z</time></trkpt><trkpt lat="45.3658533" lon="10.5916717"><ele>144.0</ele><time>2026-03-29T09:15:01.452Z</time></trkpt><trkpt lat="45.365895" lon="10.5913783"><ele>144.0</ele><time>2026-03-29T09:15:02.452Z</time></trkpt><trkpt lat="45.3659417" lon="10.5910733"><ele>144.0</ele><time>2026-03-29T09:15:03.452Z</time></trkpt><trkpt lat="45.3659833" lon="10.5907717"><ele>144.0</ele><time>2026-03-29T09:15:04.452Z</time></trkpt><trkpt lat="45.366025" lon="10.5904583"><ele>144.0</ele><time>2026-03-29T09:15:05.452Z</time></trkpt><trkpt lat="45.366075" lon="10.590145"><ele>144.0</ele><time>2026-03-29T09:15:06.452Z</time></trkpt><trkpt lat="45.3661233" lon="10.5898183"><ele>144.0</ele><time>2026-03-29T09:15:07.451Z</time></trkpt><trkpt lat="45.36617" lon="10.58949"><ele>144.0</ele><time>2026-03-29T09:15:08.451Z</time></trkpt><trkpt lat="45.36621" lon="10.589165"><ele>144.0</ele><time>2026-03-29T09:15:09.452Z</time></trkpt><trkpt lat="45.366255" lon="10.58884"><ele>143.66666666666666</ele><time>2026-03-29T09:15:10.451Z</time></trkpt><trkpt lat="45.366295" lon="10.588505"><ele>143.33333333333331</ele><time>2026-03-29T09:15:11.452Z</time></trkpt><trkpt lat="45.3663183" lon="10.588225"><ele>143.0</ele><time>2026-03-29T09:15:12.452Z</time></trkpt><trkpt lat="45.3663333" lon="10.5880067"><ele>143.0</ele><time>2026-03-29T09:15:13.452Z</time></trkpt><trkpt lat="45.3663667" lon="10.58773"><ele>143.0</ele><time>2026-03-29T09:15:15.451Z</time></trkpt><trkpt lat="45.36637" lon="10.5876017"><ele>143.0</ele><time>2026-03-29T09:15:17.452Z</time></trkpt><trkpt lat="45.3663517" lon="10.5875117"><ele>143.0</ele><time>2026-03-29T09:15:20.452Z</time></trkpt><trkpt lat="45.36628" lon="10.5875683"><ele>143.0</ele><time>2026-03-29T09:15:23.452Z</time></trkpt><trkpt lat="45.36627" lon="10.5879333"><ele>143.0</ele><time>2026-03-29T09:15:26.452Z</time></trkpt><trkpt lat="45.3662633" lon="10.588185"><ele>143.0</ele><time>2026-03-29T09:15:27.452Z</time></trkpt><trkpt lat="45.3662383" lon="10.5884817"><ele>143.0</ele><time>2026-03-29T09:15:28.452Z</time></trkpt><trkpt lat="45.36621" lon="10.5887983"><ele>143.5</ele><time>2026-03-29T09:15:29.452Z</time></trkpt><trkpt lat="45.3661717" lon="10.589135"><ele>144.0</ele><time>2026-03-29T09:15:30.452Z</time></trkpt><trkpt lat="45.3661233" lon="10.5894817"><ele>144.0</ele><time>2026-03-29T09:15:31.452Z</time></trkpt><trkpt lat="45.3660783" lon="10.5898"><ele>144.0</ele><time>2026-03-29T09:15:32.452Z</time></trkpt><trkpt lat="45.3660383" lon="10.5900483"><ele>144.0</ele><time>2026-03-29T09:15:33.452Z</time></trkpt><trkpt lat="45.3660083" lon="10.5902233"><ele>144.0</ele><time>2026-03-29T09:15:34.452Z</time></trkpt><trkpt lat="45.3659933" lon="10.5903333"><ele>144.0</ele><time>2026-03-29T09:15:35.452Z</time></trkpt><trkpt lat="45.3660083" lon="10.590435"><ele>144.0</ele><time>2026-03-29T09:15:37.452Z</time></trkpt><trkpt lat="45.3660783" lon="10.5903883"><ele>144.0</ele><time>2026-03-29T09:15:39.452Z</time></trkpt><trkpt lat="45.3661333" lon="10.590325"><ele>144.0</ele><time>2026-03-29T09:15:40.452Z</time></trkpt><trkpt lat="45.3661767" lon="10.5902517"><ele>144.0</ele><time>2026-03-29T09:15:41.452Z</time></trkpt><trkpt lat="45.3662217" lon="10.5900967"><ele>144.0</ele><time>2026-03-29T09:15:43.451Z</time></trkpt><trkpt lat="45.3662533" lon="10.5899633"><ele>144.0</ele><time>2026-03-29T09:15:45.452Z</time></trkpt><trkpt lat="45.3663417" lon="10.5898883"><ele>144.0</ele><time>2026-03-29T09:15:47.452Z</time></trkpt><trkpt lat="45.3664183" lon="10.5899"><ele>144.0</ele><time>2026-03-29T09:15:48.452Z</time></trkpt><trkpt lat="45.36652" lon="10.589915"><ele>144.0</ele><time>2026-03-29T09:15:49.451Z</time></trkpt><trkpt lat="45.3666383" lon="10.5899433"><ele>144.6</ele><time>2026-03-29T09:15:50.452Z</time></trkpt><trkpt lat="45.3667517" lon="10.5899767"><ele>145.2</ele><time>2026-03-29T09:15:51.452Z</time></trkpt><trkpt lat="45.3668517" lon="10.59001"><ele>145.79999999999998</ele><time>2026-03-29T09:15:52.452Z</time></trkpt><trkpt lat="45.3669283" lon="10.5900383"><ele>146.4</ele><time>2026-03-29T09:15:53.452Z</time></trkpt><trkpt lat="45.3669983" lon="10.5900567"><ele>147.0</ele><time>2026-03-29T09:15:54.452Z</time></trkpt><trkpt lat="45.3670933" lon="10.59008"><ele>147.0</ele><time>2026-03-29T09:15:56.452Z</time></trkpt><trkpt lat="45.3671667" lon="10.5901067"><ele>147.0</ele><time>2026-03-29T09:15:58.452Z</time></trkpt><trkpt lat="45.36728" lon="10.5901517"><ele>147.0</ele><time>2026-03-29T09:16:17.452Z</time></trkpt><trkpt lat="45.3673583" lon="10.5901683"><ele>147.0</ele><time>2026-03-29T09:16:18.452Z</time></trkpt><trkpt lat="45.3674417" lon="10.59019"><ele>147.0</ele><time>2026-03-29T09:16:19.452Z</time></trkpt><trkpt lat="45.3675183" lon="10.59021"><ele>147.0</ele><time>2026-03-29T09:16:20.452Z</time></trkpt><trkpt lat="45.3675883" lon="10.5902433"><ele>146.79999999999998</ele><time>2026-03-29T09:16:21.451Z</time></trkpt><trkpt lat="45.3676817" lon="10.5903667"><ele>146.6</ele><time>2026-03-29T09:16:23.452Z</time></trkpt><trkpt lat="45.367735" lon="10.59043"><ele>146.39999999999998</ele><time>2026-03-29T09:16:24.452Z</time></trkpt><trkpt lat="45.3677933" lon="10.5904733"><ele>146.2</ele><time>2026-03-29T09:16:25.452Z</time></trkpt><trkpt lat="45.3679483" lon="10.5904783"><ele>146.0</ele><time>2026-03-29T09:16:27.452Z</time></trkpt><trkpt lat="45.3680417" lon="10.5904567"><ele>146.0</ele><time>2026-03-29T09:16:28.452Z</time></trkpt><trkpt lat="45.3681367" lon="10.5904517"><ele>146.0</ele><time>2026-03-29T09:16:29.452Z</time></trkpt><trkpt lat="45.3682233" lon="10.59045"><ele>146.0</ele><time>2026-03-29T09:16:30.452Z</time></trkpt><trkpt lat="45.3682983" lon="10.5904533"><ele>146.0</ele><time>2026-03-29T09:16:31.452Z</time></trkpt><trkpt lat="45.368385" lon="10.590465"><ele>146.0</ele><time>2026-03-29T09:16:33.452Z</time></trkpt><trkpt lat="45.368395" lon="10.59058"><ele>146.0</ele><time>2026-03-29T09:16:42.452Z</time></trkpt><trkpt lat="45.3683817" lon="10.59067"><ele>146.0</ele><time>2026-03-29T09:16:43.452Z</time></trkpt><trkpt lat="45.3683717" lon="10.590785"><ele>146.0</ele><time>2026-03-29T09:16:44.452Z</time></trkpt><trkpt lat="45.3683533" lon="10.5909133"><ele>146.0</ele><time>2026-03-29T09:16:45.452Z</time></trkpt><trkpt lat="45.3683317" lon="10.5910667"><ele>146.0</ele><time>2026-03-29T09:16:46.452Z</time></trkpt><trkpt lat="45.36831" lon="10.5912533"><ele>146.0</ele><time>2026-03-29T09:16:47.452Z</time></trkpt><trkpt lat="45.36828" lon="10.591435"><ele>146.25</ele><time>2026-03-29T09:16:48.452Z</time></trkpt><trkpt lat="45.3682483" lon="10.591605"><ele>146.5</ele><time>2026-03-29T09:16:49.452Z</time></trkpt><trkpt lat="45.3682317" lon="10.5917933"><ele>146.75</ele><time>2026-03-29T09:16:50.452Z</time></trkpt><trkpt lat="45.3682" lon="10.5920067"><ele>147.0</ele><time>2026-03-29T09:16:51.452Z</time></trkpt><trkpt lat="45.3681733" lon="10.5921967"><ele>147.0</ele><time>2026-03-29T09:16:52.452Z</time></trkpt><trkpt lat="45.3681483" lon="10.5923667"><ele>147.0</ele><time>2026-03-29T09:16:53.452Z</time></trkpt><trkpt lat="45.3681233" lon="10.5925283"><ele>147.0</ele><time>2026-03-29T09:16:54.452Z</time></trkpt><trkpt lat="45.368105" lon="10.592675"><ele>147.0</ele><time>2026-03-29T09:16:55.452Z</time></trkpt><trkpt lat="45.36809" lon="10.5928233"><ele>147.0</ele><time>2026-03-29T09:16:56.452Z</time></trkpt><trkpt lat="45.3680904" lon="10.5929568"><ele>147.0</ele><time>2026-03-29T09:16:57.452Z</time></trkpt><trkpt lat="45.3681052" lon="10.5930736"><ele>147.0</ele><time>2026-03-29T09:16:58.452Z</time></trkpt><trkpt lat="45.3681286" lon="10.5931616"><ele>147.0</ele><time>2026-03-29T09:16:59.452Z</time></trkpt><trkpt lat="45.368213" lon="10.5932279"><ele>147.0</ele><time>2026-03-29T09:17:01.452Z</time></trkpt><trkpt lat="45.3682808" lon="10.5932276"><ele>147.0</ele><time>2026-03-29T09:17:02.452Z</time></trkpt><trkpt lat="45.3683592" lon="10.5932243"><ele>147.0</ele><time>2026-03-29T09:17:03.452Z</time></trkpt><trkpt lat="45.3684365" lon="10.5932274"><ele>147.0</ele><time>2026-03-29T09:17:04.452Z</time></trkpt><trkpt lat="45.3685023" lon="10.5932387"><ele>147.0</ele><time>2026-03-29T09:17:05.452Z</time></trkpt><trkpt lat="45.3685722" lon="10.5932763"><ele>147.0</ele><time>2026-03-29T09:17:06.452Z</time></trkpt><trkpt lat="45.3686349" lon="10.5933364"><ele>147.0</ele><time>2026-03-29T09:17:07.452Z</time></trkpt><trkpt lat="45.3686951" lon="10.5934312"><ele>147.0</ele><time>2026-03-29T09:17:08.452Z</time></trkpt><trkpt lat="45.3687548" lon="10.5935632"><ele>147.0</ele><time>2026-03-29T09:17:09.452Z</time></trkpt><trkpt lat="45.3688185" lon="10.5937249"><ele>144.4</ele><time>2026-03-29T09:17:10.452Z</time></trkpt><trkpt lat="45.3688806" lon="10.5938828"><ele>141.79999999999998</ele><time>2026-03-29T09:17:11.451Z</time></trkpt><trkpt lat="45.3689389" lon="10.5940345"><ele>139.2</ele><time>2026-03-29T09:17:12.452Z</time></trkpt><trkpt lat="45.368989" lon="10.5941648"><ele>136.6</ele><time>2026-03-29T09:17:13.452Z</time></trkpt><trkpt lat="45.3690202" lon="10.5942913"><ele>134.0</ele><time>2026-03-29T09:17:14.452Z</time></trkpt><trkpt lat="45.3690301" lon="10.5944262"><ele>133.5</ele><time>2026-03-29T09:17:15.452Z</time></trkpt><trkpt lat="45.3690257" lon="10.5945767"><ele>133.0</ele><time>2026-03-29T09:17:16.452Z</time></trkpt><trkpt lat="45.3690057" lon="10.5947409"><ele>132.5</ele><time>2026-03-29T09:17:17.452Z</time></trkpt><trkpt lat="45.3689767" lon="10.5949203"><ele>132.0</ele><time>2026-03-29T09:17:18.451Z</time></trkpt><trkpt lat="45.3689544" lon="10.5951035"><ele>132.0</ele><time>2026-03-29T09:17:19.452Z</time></trkpt><trkpt lat="45.368942" lon="10.5952835"><ele>132.0</ele><time>2026-03-29T09:17:20.452Z</time></trkpt><trkpt lat="45.3689476" lon="10.5954412"><ele>132.0</ele><time>2026-03-29T09:17:21.452Z</time></trkpt><trkpt lat="45.3689631" lon="10.5955789"><ele>132.0</ele><time>2026-03-29T09:17:22.452Z</time></trkpt><trkpt lat="45.3689948" lon="10.5956959"><ele>132.0</ele><time>2026-03-29T09:17:23.452Z</time></trkpt><trkpt lat="45.3690556" lon="10.5958276"><ele>132.0</ele><time>2026-03-29T09:17:24.452Z</time></trkpt><trkpt lat="45.3691312" lon="10.5959777"><ele>132.0</ele><time>2026-03-29T09:17:25.452Z</time></trkpt><trkpt lat="45.3692052" lon="10.5961245"><ele>132.0</ele><time>2026-03-29T09:17:26.451Z</time></trkpt><trkpt lat="45.3692586" lon="10.5962402"><ele>132.0</ele><time>2026-03-29T09:17:27.452Z</time></trkpt><trkpt lat="45.3692929" lon="10.5963343"><ele>132.0</ele><time>2026-03-29T09:17:28.451Z</time></trkpt><trkpt lat="45.3692929" lon="10.5964472"><ele>131.0</ele><time>2026-03-29T09:17:30.452Z</time></trkpt><trkpt lat="45.3691937" lon="10.5964881"><ele>130.0</ele><time>2026-03-29T09:18:02.451Z</time></trkpt><trkpt lat="45.3691142" lon="10.5965499"><ele>129.0</ele><time>2026-03-29T09:18:03.452Z</time></trkpt><trkpt lat="45.3690074" lon="10.5966431"><ele>128.0</ele><time>2026-03-29T09:18:04.452Z</time></trkpt><trkpt lat="45.3688934" lon="10.5967595"><ele>131.25</ele><time>2026-03-29T09:18:05.452Z</time></trkpt><trkpt lat="45.3687811" lon="10.5968801"><ele>134.5</ele><time>2026-03-29T09:18:06.452Z</time></trkpt><trkpt lat="45.368679" lon="10.5969679"><ele>137.75</ele><time>2026-03-29T09:18:07.452Z</time></trkpt><trkpt lat="45.3685678" lon="10.5970128"><ele>141.0</ele><time>2026-03-29T09:18:08.452Z</time></trkpt><trkpt lat="45.368447" lon="10.5970014"><ele>141.0</ele><time>2026-03-29T09:18:09.452Z</time></trkpt><trkpt lat="45.3683138" lon="10.5969288"><ele>141.0</ele><time>2026-03-29T09:18:10.452Z</time></trkpt><trkpt lat="45.3681628" lon="10.5968004"><ele>141.0</ele><time>2026-03-29T09:18:11.452Z</time></trkpt><trkpt lat="45.3680101" lon="10.5966625"><ele>145.0</ele><time>2026-03-29T09:18:12.452Z</time></trkpt><trkpt lat="45.3678605" lon="10.596562"><ele>149.0</ele><time>2026-03-29T09:18:13.452Z</time></trkpt><trkpt lat="45.367705" lon="10.5965008"><ele>153.0</ele><time>2026-03-29T09:18:14.452Z</time></trkpt><trkpt lat="45.3675505" lon="10.5964956"><ele>153.0</ele><time>2026-03-29T09:18:15.452Z</time></trkpt><trkpt lat="45.367398" lon="10.5965529"><ele>153.0</ele><time>2026-03-29T09:18:16.452Z</time></trkpt><trkpt lat="45.3672463" lon="10.5966709"><ele>153.0</ele><time>2026-03-29T09:18:17.452Z</time></trkpt><trkpt lat="45.3670903" lon="10.5968267"><ele>152.0</ele><time>2026-03-29T09:18:18.452Z</time></trkpt><trkpt lat="45.3669339" lon="10.5969833"><ele>151.0</ele><time>2026-03-29T09:18:19.452Z</time></trkpt><trkpt lat="45.3667797" lon="10.5971346"><ele>150.0</ele><time>2026-03-29T09:18:20.452Z</time></trkpt><trkpt lat="45.3666282" lon="10.5972704"><ele>150.0</ele><time>2026-03-29T09:18:21.452Z</time></trkpt><trkpt lat="45.366479" lon="10.5973967"><ele>150.0</ele><time>2026-03-29T09:18:22.451Z</time></trkpt><trkpt lat="45.3663367" lon="10.5975063"><ele>150.0</ele><time>2026-03-29T09:18:23.451Z</time></trkpt><trkpt lat="45.3662024" lon="10.5976159"><ele>149.5</ele><time>2026-03-29T09:18:24.452Z</time></trkpt><trkpt lat="45.3660751" lon="10.5977186"><ele>149.0</ele><time>2026-03-29T09:18:25.452Z</time></trkpt><trkpt lat="45.3659567" lon="10.5978232"><ele>148.5</ele><time>2026-03-29T09:18:26.452Z</time></trkpt><trkpt lat="45.3658367" lon="10.5979067"><ele>148.0</ele><time>2026-03-29T09:18:27.452Z</time></trkpt><trkpt lat="45.3657017" lon="10.5979667"><ele>148.0</ele><time>2026-03-29T09:18:28.452Z</time></trkpt><trkpt lat="45.3655633" lon="10.598015"><ele>148.0</ele><time>2026-03-29T09:18:29.452Z</time></trkpt><trkpt lat="45.36542" lon="10.5980233"><ele>148.0</ele><time>2026-03-29T09:18:30.452Z</time></trkpt><trkpt lat="45.3652867" lon="10.598025"><ele>148.0</ele><time>2026-03-29T09:18:31.452Z</time></trkpt><trkpt lat="45.3651633" lon="10.5980217"><ele>147.20000000000002</ele><time>2026-03-29T09:18:32.451Z</time></trkpt><trkpt lat="45.3650483" lon="10.5979983"><ele>146.4</ele><time>2026-03-29T09:18:33.452Z</time></trkpt><trkpt lat="45.3649467" lon="10.5979183"><ele>145.60000000000002</ele><time>2026-03-29T09:18:34.452Z</time></trkpt><trkpt lat="45.36485" lon="10.5978533"><ele>144.8</ele><time>2026-03-29T09:18:35.452Z</time></trkpt><trkpt lat="45.364755" lon="10.5978333"><ele>144.0</ele><time>2026-03-29T09:18:36.452Z</time></trkpt><trkpt lat="45.3646767" lon="10.5978783"><ele>143.0</ele><time>2026-03-29T09:18:37.451Z</time></trkpt><trkpt lat="45.364615" lon="10.59797"><ele>142.0</ele><time>2026-03-29T09:18:38.452Z</time></trkpt><trkpt lat="45.3645817" lon="10.5981017"><ele>141.0</ele><time>2026-03-29T09:18:39.452Z</time></trkpt><trkpt lat="45.3645783" lon="10.5982633"><ele>140.0</ele><time>2026-03-29T09:18:40.452Z</time></trkpt><trkpt lat="45.3645833" lon="10.5984367"><ele>139.0</ele><time>2026-03-29T09:18:41.451Z</time></trkpt><trkpt lat="45.3645633" lon="10.5986183"><ele>140.0</ele><time>2026-03-29T09:18:42.452Z</time></trkpt><trkpt lat="45.3644983" lon="10.5988333"><ele>141.0</ele><time>2026-03-29T09:18:43.452Z</time></trkpt><trkpt lat="45.3643933" lon="10.599085"><ele>142.0</ele><time>2026-03-29T09:18:44.452Z</time></trkpt><trkpt lat="45.3642767" lon="10.59937"><ele>144.5</ele><time>2026-03-29T09:18:45.452Z</time></trkpt><trkpt lat="45.3641567" lon="10.599665"><ele>147.0</ele><time>2026-03-29T09:18:46.452Z</time></trkpt><trkpt lat="45.3640233" lon="10.599975"><ele>147.0</ele><time>2026-03-29T09:18:47.452Z</time></trkpt><trkpt lat="45.3638783" lon="10.600295"><ele>147.0</ele><time>2026-03-29T09:18:48.452Z</time></trkpt><trkpt lat="45.3637333" lon="10.6006267"><ele>147.0</ele><time>2026-03-29T09:18:49.452Z</time></trkpt><trkpt lat="45.3635833" lon="10.6009683"><ele>147.0</ele><time>2026-03-29T09:18:50.451Z</time></trkpt><trkpt lat="45.3634367" lon="10.601315"><ele>147.0</ele><time>2026-03-29T09:18:51.452Z</time></trkpt><trkpt lat="45.3633067" lon="10.60167"><ele>147.0</ele><time>2026-03-29T09:18:52.451Z</time></trkpt><trkpt lat="45.3631817" lon="10.6020233"><ele>149.5</ele><time>2026-03-29T09:18:53.452Z</time></trkpt><trkpt lat="45.3630583" lon="10.6023733"><ele>152.0</ele><time>2026-03-29T09:18:54.452Z</time></trkpt><trkpt lat="45.3629467" lon="10.6026983"><ele>147.0</ele><time>2026-03-29T09:18:55.452Z</time></trkpt><trkpt lat="45.36284" lon="10.6030117"><ele>142.0</ele><time>2026-03-29T09:18:56.452Z</time></trkpt><trkpt lat="45.362735" lon="10.6033"><ele>142.0</ele><time>2026-03-29T09:18:57.452Z</time></trkpt><trkpt lat="45.3626417" lon="10.6035567"><ele>142.0</ele><time>2026-03-29T09:18:58.452Z</time></trkpt><trkpt lat="45.3625633" lon="10.6037867"><ele>142.0</ele><time>2026-03-29T09:18:59.452Z</time></trkpt><trkpt lat="45.362475" lon="10.6039833"><ele>141.79999999999998</ele><time>2026-03-29T09:19:00.452Z</time></trkpt><trkpt lat="45.362395" lon="10.6041483"><ele>141.6</ele><time>2026-03-29T09:19:01.452Z</time></trkpt><trkpt lat="45.3623233" lon="10.60428"><ele>141.39999999999998</ele><time>2026-03-29T09:19:02.452Z</time></trkpt><trkpt lat="45.3622567" lon="10.6043633"><ele>141.2</ele><time>2026-03-29T09:19:03.452Z</time></trkpt><trkpt lat="45.3621917" lon="10.60441"><ele>141.0</ele><time>2026-03-29T09:19:04.452Z</time></trkpt><trkpt lat="45.3621217" lon="10.604415"><ele>141.0</ele><time>2026-03-29T09:19:05.452Z</time></trkpt><trkpt lat="45.3620233" lon="10.6044017"><ele>141.0</ele><time>2026-03-29T09:19:06.452Z</time></trkpt><trkpt lat="45.36189" lon="10.6043583"><ele>141.0</ele><time>2026-03-29T09:19:07.452Z</time></trkpt><trkpt lat="45.3617517" lon="10.6043117"><ele>141.0</ele><time>2026-03-29T09:19:08.452Z</time></trkpt><trkpt lat="45.3616233" lon="10.604255"><ele>141.0</ele><time>2026-03-29T09:19:09.452Z</time></trkpt><trkpt lat="45.3615" lon="10.6041733"><ele>141.0</ele><time>2026-03-29T09:19:10.452Z</time></trkpt><trkpt lat="45.3613733" lon="10.60408"><ele>141.0</ele><time>2026-03-29T09:19:11.452Z</time></trkpt><trkpt lat="45.36125" lon="10.6039533"><ele>141.0</ele><time>2026-03-29T09:19:12.452Z</time></trkpt><trkpt lat="45.3611217" lon="10.603815"><ele>140.5</ele><time>2026-03-29T09:19:13.452Z</time></trkpt><trkpt lat="45.3610017" lon="10.6036733"><ele>140.0</ele><time>2026-03-29T09:19:14.452Z</time></trkpt><trkpt lat="45.36089" lon="10.60353"><ele>139.5</ele><time>2026-03-29T09:19:15.452Z</time></trkpt><trkpt lat="45.3607867" lon="10.60339"><ele>139.0</ele><time>2026-03-29T09:19:16.452Z</time></trkpt><trkpt lat="45.3607083" lon="10.60325"><ele>138.6</ele><time>2026-03-29T09:19:17.452Z</time></trkpt><trkpt lat="45.3606333" lon="10.6031267"><ele>138.2</ele><time>2026-03-29T09:19:18.452Z</time></trkpt><trkpt lat="45.3605733" lon="10.6029967"><ele>137.79999999999998</ele><time>2026-03-29T09:19:19.452Z</time></trkpt><trkpt lat="45.3605233" lon="10.60288"><ele>137.4</ele><time>2026-03-29T09:19:20.452Z</time></trkpt><trkpt lat="45.36048" lon="10.6027667"><ele>137.0</ele><time>2026-03-29T09:19:21.452Z</time></trkpt><trkpt lat="45.3604217" lon="10.602655"><ele>136.79999999999998</ele><time>2026-03-29T09:19:22.452Z</time></trkpt><trkpt lat="45.3603633" lon="10.6025417"><ele>136.6</ele><time>2026-03-29T09:19:23.452Z</time></trkpt><trkpt lat="45.360315" lon="10.60242"><ele>136.39999999999998</ele><time>2026-03-29T09:19:24.452Z</time></trkpt><trkpt lat="45.36027" lon="10.6022983"><ele>136.2</ele><time>2026-03-29T09:19:25.452Z</time></trkpt><trkpt lat="45.3602333" lon="10.6021683"><ele>136.0</ele><time>2026-03-29T09:19:26.452Z</time></trkpt><trkpt lat="45.3602" lon="10.6020417"><ele>136.2</ele><time>2026-03-29T09:19:27.452Z</time></trkpt><trkpt lat="45.36017" lon="10.6019183"><ele>136.39999999999998</ele><time>2026-03-29T09:19:28.452Z</time></trkpt><trkpt lat="45.3601333" lon="10.6017933"><ele>136.6</ele><time>2026-03-29T09:19:29.451Z</time></trkpt><trkpt lat="45.3601083" lon="10.6016617"><ele>136.79999999999998</ele><time>2026-03-29T09:19:30.452Z</time></trkpt><trkpt lat="45.3600783" lon="10.60154"><ele>137.0</ele><time>2026-03-29T09:19:31.452Z</time></trkpt><trkpt lat="45.3600483" lon="10.6014283"><ele>137.0</ele><time>2026-03-29T09:19:32.452Z</time></trkpt><trkpt lat="45.3600117" lon="10.60132"><ele>137.0</ele><time>2026-03-29T09:19:33.452Z</time></trkpt><trkpt lat="45.35997" lon="10.601225"><ele>137.0</ele><time>2026-03-29T09:19:34.452Z</time></trkpt><trkpt lat="45.35991" lon="10.6011167"><ele>137.0</ele><time>2026-03-29T09:19:35.452Z</time></trkpt><trkpt lat="45.3598333" lon="10.6009833"><ele>137.0</ele><time>2026-03-29T09:19:36.452Z</time></trkpt><trkpt lat="45.3597317" lon="10.6008567"><ele>137.0</ele><time>2026-03-29T09:19:37.452Z</time></trkpt><trkpt lat="45.35962" lon="10.6006967"><ele>137.0</ele><time>2026-03-29T09:19:38.452Z</time></trkpt><trkpt lat="45.35952" lon="10.6005167"><ele>137.0</ele><time>2026-03-29T09:19:39.452Z</time></trkpt><trkpt lat="45.3594233" lon="10.60034"><ele>135.5</ele><time>2026-03-29T09:19:40.451Z</time></trkpt><trkpt lat="45.359335" lon="10.6001717"><ele>134.0</ele><time>2026-03-29T09:19:41.452Z</time></trkpt><trkpt lat="45.359255" lon="10.6000167"><ele>132.5</ele><time>2026-03-29T09:19:42.452Z</time></trkpt><trkpt lat="45.3592017" lon="10.5998367"><ele>131.0</ele><time>2026-03-29T09:19:43.452Z</time></trkpt><trkpt lat="45.3591533" lon="10.5996567"><ele>131.0</ele><time>2026-03-29T09:19:44.452Z</time></trkpt><trkpt lat="45.3590983" lon="10.599515"><ele>131.0</ele><time>2026-03-29T09:19:45.452Z</time></trkpt><trkpt lat="45.3590417" lon="10.59939"><ele>131.0</ele><time>2026-03-29T09:19:46.452Z</time></trkpt><trkpt lat="45.35896" lon="10.5992733"><ele>131.0</ele><time>2026-03-29T09:19:47.452Z</time></trkpt><trkpt lat="45.3588567" lon="10.5991683"><ele>131.66666666666666</ele><time>2026-03-29T09:19:48.452Z</time></trkpt><trkpt lat="45.3587267" lon="10.5990767"><ele>132.33333333333334</ele><time>2026-03-29T09:19:49.452Z</time></trkpt><trkpt lat="45.35859" lon="10.5989483"><ele>133.0</ele><time>2026-03-29T09:19:50.451Z</time></trkpt><trkpt lat="45.3584767" lon="10.598805"><ele>133.25</ele><time>2026-03-29T09:19:51.452Z</time></trkpt><trkpt lat="45.35838" lon="10.5986617"><ele>133.5</ele><time>2026-03-29T09:19:52.452Z</time></trkpt><trkpt lat="45.3582917" lon="10.5985067"><ele>133.75</ele><time>2026-03-29T09:19:53.452Z</time></trkpt><trkpt lat="45.3582067" lon="10.5983633"><ele>134.0</ele><time>2026-03-29T09:19:54.452Z</time></trkpt><trkpt lat="45.3581333" lon="10.5982433"><ele>134.0</ele><time>2026-03-29T09:19:55.452Z</time></trkpt><trkpt lat="45.3580783" lon="10.59814"><ele>134.0</ele><time>2026-03-29T09:19:56.452Z</time></trkpt><trkpt lat="45.3580333" lon="10.5980533"><ele>134.0</ele><time>2026-03-29T09:19:57.452Z</time></trkpt><trkpt lat="45.3579883" lon="10.5979433"><ele>134.0</ele><time>2026-03-29T09:19:59.452Z</time></trkpt><trkpt lat="45.35788" lon="10.59786"><ele>134.0</ele><time>2026-03-29T09:20:01.452Z</time></trkpt><trkpt lat="45.3577817" lon="10.5978283"><ele>133.66666666666666</ele><time>2026-03-29T09:20:02.452Z</time></trkpt><trkpt lat="45.3576533" lon="10.5977883"><ele>133.33333333333334</ele><time>2026-03-29T09:20:03.452Z</time></trkpt><trkpt lat="45.3574533" lon="10.5977517"><ele>133.0</ele><time>2026-03-29T09:20:04.451Z</time></trkpt><trkpt lat="45.3572133" lon="10.5977117"><ele>132.33333333333334</ele><time>2026-03-29T09:20:05.452Z</time></trkpt><trkpt lat="45.3569783" lon="10.597665"><ele>131.66666666666666</ele><time>2026-03-29T09:20:06.452Z</time></trkpt><trkpt lat="45.3567769" lon="10.5976352"><ele>131.0</ele><time>2026-03-29T09:20:07.451Z</time></trkpt><trkpt lat="45.3565688" lon="10.5976283"><ele>131.0</ele><time>2026-03-29T09:20:08.452Z</time></trkpt><trkpt lat="45.3563703" lon="10.5976517"><ele>131.0</ele><time>2026-03-29T09:20:09.452Z</time></trkpt><trkpt lat="45.3561816" lon="10.5976801"><ele>131.0</ele><time>2026-03-29T09:20:10.452Z</time></trkpt><trkpt lat="45.356005" lon="10.5977026"><ele>130.66666666666666</ele><time>2026-03-29T09:20:11.452Z</time></trkpt><trkpt lat="45.3558301" lon="10.5977057"><ele>130.33333333333334</ele><time>2026-03-29T09:20:12.452Z</time></trkpt><trkpt lat="45.3556565" lon="10.5976893"><ele>130.0</ele><time>2026-03-29T09:20:13.452Z</time></trkpt><trkpt lat="45.3554914" lon="10.5976218"><ele>129.0</ele><time>2026-03-29T09:20:14.452Z</time></trkpt><trkpt lat="45.3553357" lon="10.597517"><ele>128.0</ele><time>2026-03-29T09:20:15.452Z</time></trkpt><trkpt lat="45.3551819" lon="10.5974195"><ele>127.0</ele><time>2026-03-29T09:20:16.452Z</time></trkpt><trkpt lat="45.3550231" lon="10.5973487"><ele>127.0</ele><time>2026-03-29T09:20:17.452Z</time></trkpt><trkpt lat="45.3548482" lon="10.597332"><ele>127.0</ele><time>2026-03-29T09:20:18.452Z</time></trkpt><trkpt lat="45.3546475" lon="10.5973554"><ele>127.0</ele><time>2026-03-29T09:20:19.452Z</time></trkpt><trkpt lat="45.3544373" lon="10.5974131"><ele>128.66666666666669</ele><time>2026-03-29T09:20:20.452Z</time></trkpt><trkpt lat="45.3542379" lon="10.5974892"><ele>130.33333333333334</ele><time>2026-03-29T09:20:21.452Z</time></trkpt><trkpt lat="45.3540604" lon="10.5975666"><ele>132.0</ele><time>2026-03-29T09:20:22.452Z</time></trkpt><trkpt lat="45.3539063" lon="10.5976533"><ele>134.25</ele><time>2026-03-29T09:20:23.451Z</time></trkpt><trkpt lat="45.3537665" lon="10.5977421"><ele>136.5</ele><time>2026-03-29T09:20:24.452Z</time></trkpt><trkpt lat="45.3536609" lon="10.5978649"><ele>138.75</ele><time>2026-03-29T09:20:25.452Z</time></trkpt><trkpt lat="45.353581" lon="10.5980327"><ele>141.0</ele><time>2026-03-29T09:20:26.452Z</time></trkpt><trkpt lat="45.3535232" lon="10.5982307"><ele>141.0</ele><time>2026-03-29T09:20:27.451Z</time></trkpt><trkpt lat="45.3534704" lon="10.5984532"><ele>141.0</ele><time>2026-03-29T09:20:28.452Z</time></trkpt><trkpt lat="45.3534083" lon="10.5986737"><ele>141.0</ele><time>2026-03-29T09:20:29.452Z</time></trkpt><trkpt lat="45.3533473" lon="10.5988935"><ele>140.66666666666666</ele><time>2026-03-29T09:20:30.452Z</time></trkpt><trkpt lat="45.3532783" lon="10.5991175"><ele>140.33333333333331</ele><time>2026-03-29T09:20:31.452Z</time></trkpt><trkpt lat="45.353202" lon="10.5993352"><ele>140.0</ele><time>2026-03-29T09:20:32.452Z</time></trkpt><trkpt lat="45.3531158" lon="10.5995516"><ele>147.33333333333331</ele><time>2026-03-29T09:20:33.452Z</time></trkpt><trkpt lat="45.3530165" lon="10.5997653"><ele>154.66666666666666</ele><time>2026-03-29T09:20:34.452Z</time></trkpt><trkpt lat="45.352923" lon="10.5999778"><ele>162.0</ele><time>2026-03-29T09:20:35.451Z</time></trkpt><trkpt lat="45.3528321" lon="10.6001914"><ele>158.75</ele><time>2026-03-29T09:20:36.452Z</time></trkpt><trkpt lat="45.35275" lon="10.600388"><ele>155.5</ele><time>2026-03-29T09:20:37.452Z</time></trkpt><trkpt lat="45.352673" lon="10.6005651"><ele>152.25</ele><time>2026-03-29T09:20:38.452Z</time></trkpt><trkpt lat="45.3525832" lon="10.6007219"><ele>149.0</ele><time>2026-03-29T09:20:39.451Z</time></trkpt><trkpt lat="45.3524729" lon="10.6008507"><ele>149.0</ele><time>2026-03-29T09:20:40.451Z</time></trkpt><trkpt lat="45.352345" lon="10.600949"><ele>149.0</ele><time>2026-03-29T09:20:41.452Z</time></trkpt><trkpt lat="45.3522357" lon="10.6010246"><ele>149.0</ele><time>2026-03-29T09:20:42.452Z</time></trkpt><trkpt lat="45.3521516" lon="10.6010728"><ele>149.0</ele><time>2026-03-29T09:20:43.452Z</time></trkpt><trkpt lat="45.3520975" lon="10.6011191"><ele>149.0</ele><time>2026-03-29T09:20:44.452Z</time></trkpt><trkpt lat="45.3520281" lon="10.6011538"><ele>150.16666666666666</ele><time>2026-03-29T09:20:46.452Z</time></trkpt><trkpt lat="45.3519505" lon="10.6011509"><ele>151.33333333333331</ele><time>2026-03-29T09:20:48.452Z</time></trkpt><trkpt lat="45.3518851" lon="10.6011315"><ele>152.5</ele><time>2026-03-29T09:20:49.451Z</time></trkpt><trkpt lat="45.3518082" lon="10.6011089"><ele>153.66666666666666</ele><time>2026-03-29T09:20:50.452Z</time></trkpt><trkpt lat="45.351725" lon="10.6010843"><ele>154.83333333333334</ele><time>2026-03-29T09:20:51.451Z</time></trkpt><trkpt lat="45.3516508" lon="10.601064"><ele>156.0</ele><time>2026-03-29T09:20:52.452Z</time></trkpt><trkpt lat="45.3515625" lon="10.6010516"><ele>156.0</ele><time>2026-03-29T09:20:54.452Z</time></trkpt><trkpt lat="45.3516181" lon="10.60115"><ele>156.0</ele><time>2026-03-29T09:20:58.452Z</time></trkpt><trkpt lat="45.3516909" lon="10.6011878"><ele>156.0</ele><time>2026-03-29T09:21:00.452Z</time></trkpt><trkpt lat="45.3517586" lon="10.6012069"><ele>156.0</ele><time>2026-03-29T09:21:02.452Z</time></trkpt><trkpt lat="45.3518618" lon="10.6012032"><ele>156.0</ele><time>2026-03-29T09:21:04.452Z</time></trkpt><trkpt lat="45.3519248" lon="10.601206"><ele>156.0</ele><time>2026-03-29T09:21:05.452Z</time></trkpt><trkpt lat="45.3519917" lon="10.6012113"><ele>154.8</ele><time>2026-03-29T09:21:06.452Z</time></trkpt><trkpt lat="45.3520525" lon="10.6012349"><ele>153.6</ele><time>2026-03-29T09:21:07.452Z</time></trkpt><trkpt lat="45.3521365" lon="10.6013398"><ele>152.4</ele><time>2026-03-29T09:21:09.452Z</time></trkpt><trkpt lat="45.3521841" lon="10.601514"><ele>151.2</ele><time>2026-03-29T09:21:11.452Z</time></trkpt><trkpt lat="45.352202" lon="10.6016291"><ele>150.0</ele><time>2026-03-29T09:21:12.452Z</time></trkpt><trkpt lat="45.3522056" lon="10.6017541"><ele>150.0</ele><time>2026-03-29T09:21:13.452Z</time></trkpt><trkpt lat="45.3521993" lon="10.6018923"><ele>150.0</ele><time>2026-03-29T09:21:14.452Z</time></trkpt><trkpt lat="45.3521764" lon="10.6020357"><ele>150.0</ele><time>2026-03-29T09:21:15.452Z</time></trkpt><trkpt lat="45.352127" lon="10.6022461"><ele>150.0</ele><time>2026-03-29T09:21:16.452Z</time></trkpt><trkpt lat="45.3520665" lon="10.6024772"><ele>149.0</ele><time>2026-03-29T09:21:17.452Z</time></trkpt><trkpt lat="45.3520134" lon="10.6026902"><ele>148.0</ele><time>2026-03-29T09:21:18.452Z</time></trkpt><trkpt lat="45.3519672" lon="10.60287"><ele>147.0</ele><time>2026-03-29T09:21:19.452Z</time></trkpt><trkpt lat="45.3519326" lon="10.6030319"><ele>146.0</ele><time>2026-03-29T09:21:20.452Z</time></trkpt><trkpt lat="45.3518817" lon="10.6032066"><ele>146.0</ele><time>2026-03-29T09:21:21.452Z</time></trkpt><trkpt lat="45.3518502" lon="10.6033893"><ele>146.0</ele><time>2026-03-29T09:21:22.452Z</time></trkpt><trkpt lat="45.3518287" lon="10.6035892"><ele>146.0</ele><time>2026-03-29T09:21:23.452Z</time></trkpt><trkpt lat="45.3518166" lon="10.6038002"><ele>146.0</ele><time>2026-03-29T09:21:24.452Z</time></trkpt><trkpt lat="45.351806" lon="10.6040142"><ele>146.0</ele><time>2026-03-29T09:21:25.452Z</time></trkpt><trkpt lat="45.3517981" lon="10.6042209"><ele>146.0</ele><time>2026-03-29T09:21:26.452Z</time></trkpt><trkpt lat="45.3517972" lon="10.6044038"><ele>146.0</ele><time>2026-03-29T09:21:27.451Z</time></trkpt><trkpt lat="45.3518077" lon="10.6045669"><ele>146.0</ele><time>2026-03-29T09:21:28.452Z</time></trkpt><trkpt lat="45.3518371" lon="10.6047276"><ele>146.25</ele><time>2026-03-29T09:21:29.452Z</time></trkpt><trkpt lat="45.3519029" lon="10.6048821"><ele>146.5</ele><time>2026-03-29T09:21:30.452Z</time></trkpt><trkpt lat="45.3519995" lon="10.6050421"><ele>146.75</ele><time>2026-03-29T09:21:31.452Z</time></trkpt><trkpt lat="45.3521094" lon="10.605222"><ele>147.0</ele><time>2026-03-29T09:21:32.452Z</time></trkpt><trkpt lat="45.3522195" lon="10.6054226"><ele>142.66666666666666</ele><time>2026-03-29T09:21:33.452Z</time></trkpt><trkpt lat="45.3523426" lon="10.6056236"><ele>138.33333333333331</ele><time>2026-03-29T09:21:34.452Z</time></trkpt><trkpt lat="45.3524549" lon="10.605821"><ele>134.0</ele><time>2026-03-29T09:21:35.452Z</time></trkpt><trkpt lat="45.3525667" lon="10.6060267"><ele>134.66666666666666</ele><time>2026-03-29T09:21:36.452Z</time></trkpt><trkpt lat="45.352665" lon="10.60623"><ele>135.33333333333334</ele><time>2026-03-29T09:21:37.452Z</time></trkpt><trkpt lat="45.3527367" lon="10.6064233"><ele>136.0</ele><time>2026-03-29T09:21:38.451Z</time></trkpt><trkpt lat="45.3527933" lon="10.6066383"><ele>136.0</ele><time>2026-03-29T09:21:39.452Z</time></trkpt><trkpt lat="45.3528317" lon="10.60686"><ele>136.0</ele><time>2026-03-29T09:21:40.452Z</time></trkpt><trkpt lat="45.3528767" lon="10.60709"><ele>136.0</ele><time>2026-03-29T09:21:41.452Z</time></trkpt><trkpt lat="45.35292" lon="10.6073267"><ele>136.0</ele><time>2026-03-29T09:21:42.451Z</time></trkpt><trkpt lat="45.35297" lon="10.6075867"><ele>136.0</ele><time>2026-03-29T09:21:43.452Z</time></trkpt><trkpt lat="45.3530033" lon="10.607855"><ele>136.0</ele><time>2026-03-29T09:21:44.452Z</time></trkpt><trkpt lat="45.3530017" lon="10.6081183"><ele>136.0</ele><time>2026-03-29T09:21:45.452Z</time></trkpt><trkpt lat="45.3529833" lon="10.6083867"><ele>136.0</ele><time>2026-03-29T09:21:46.452Z</time></trkpt><trkpt lat="45.35295" lon="10.6086483"><ele>136.0</ele><time>2026-03-29T09:21:47.452Z</time></trkpt><trkpt lat="45.3529017" lon="10.6089233"><ele>136.33333333333334</ele><time>2026-03-29T09:21:48.452Z</time></trkpt><trkpt lat="45.352855" lon="10.6091967"><ele>136.66666666666666</ele><time>2026-03-29T09:21:49.452Z</time></trkpt><trkpt lat="45.3528133" lon="10.6094617"><ele>137.0</ele><time>2026-03-29T09:21:50.451Z</time></trkpt><trkpt lat="45.3528017" lon="10.6097317"><ele>137.66666666666666</ele><time>2026-03-29T09:21:51.452Z</time></trkpt><trkpt lat="45.3527967" lon="10.6099967"><ele>138.33333333333334</ele><time>2026-03-29T09:21:52.452Z</time></trkpt><trkpt lat="45.3528117" lon="10.6102617"><ele>139.0</ele><time>2026-03-29T09:21:53.452Z</time></trkpt><trkpt lat="45.3528583" lon="10.61053"><ele>140.0</ele><time>2026-03-29T09:21:54.451Z</time></trkpt><trkpt lat="45.3529183" lon="10.61079"><ele>141.0</ele><time>2026-03-29T09:21:55.452Z</time></trkpt><trkpt lat="45.353" lon="10.6110517"><ele>142.0</ele><time>2026-03-29T09:21:56.452Z</time></trkpt><trkpt lat="45.3530783" lon="10.6113033"><ele>137.66666666666669</ele><time>2026-03-29T09:21:57.452Z</time></trkpt><trkpt lat="45.3531417" lon="10.61157"><ele>133.33333333333334</ele><time>2026-03-29T09:21:58.452Z</time></trkpt><trkpt lat="45.3531783" lon="10.611845"><ele>129.0</ele><time>2026-03-29T09:21:59.452Z</time></trkpt><trkpt lat="45.3531867" lon="10.6121217"><ele>129.0</ele><time>2026-03-29T09:22:00.452Z</time></trkpt><trkpt lat="45.353185" lon="10.6124083"><ele>129.0</ele><time>2026-03-29T09:22:01.452Z</time></trkpt><trkpt lat="45.3531883" lon="10.6126983"><ele>129.0</ele><time>2026-03-29T09:22:02.452Z</time></trkpt><trkpt lat="45.35322" lon="10.6129867"><ele>129.33333333333334</ele><time>2026-03-29T09:22:03.452Z</time></trkpt><trkpt lat="45.3532717" lon="10.613265"><ele>129.66666666666669</ele><time>2026-03-29T09:22:04.452Z</time></trkpt><trkpt lat="45.3533217" lon="10.6135533"><ele>130.0</ele><time>2026-03-29T09:22:05.452Z</time></trkpt><trkpt lat="45.3533767" lon="10.61384"><ele>131.0</ele><time>2026-03-29T09:22:06.452Z</time></trkpt><trkpt lat="45.35339" lon="10.6141283"><ele>132.0</ele><time>2026-03-29T09:22:07.451Z</time></trkpt><trkpt lat="45.3533783" lon="10.6144033"><ele>133.0</ele><time>2026-03-29T09:22:08.452Z</time></trkpt><trkpt lat="45.3533583" lon="10.6146883"><ele>133.0</ele><time>2026-03-29T09:22:09.452Z</time></trkpt><trkpt lat="45.353335" lon="10.6149817"><ele>133.0</ele><time>2026-03-29T09:22:10.452Z</time></trkpt><trkpt lat="45.35331" lon="10.615265"><ele>133.0</ele><time>2026-03-29T09:22:11.452Z</time></trkpt><trkpt lat="45.35327" lon="10.61554"><ele>132.66666666666669</ele><time>2026-03-29T09:22:12.452Z</time></trkpt><trkpt lat="45.3532183" lon="10.6158233"><ele>132.33333333333334</ele><time>2026-03-29T09:22:13.452Z</time></trkpt><trkpt lat="45.353175" lon="10.6161017"><ele>132.0</ele><time>2026-03-29T09:22:14.452Z</time></trkpt><trkpt lat="45.35315" lon="10.616395"><ele>132.0</ele><time>2026-03-29T09:22:15.451Z</time></trkpt><trkpt lat="45.35314" lon="10.6166883"><ele>132.0</ele><time>2026-03-29T09:22:16.452Z</time></trkpt><trkpt lat="45.3531433" lon="10.6169833"><ele>132.0</ele><time>2026-03-29T09:22:17.451Z</time></trkpt><trkpt lat="45.3531533" lon="10.61722"><ele>132.5</ele><time>2026-03-29T09:22:18.452Z</time></trkpt><trkpt lat="45.3531567" lon="10.6175517"><ele>133.0</ele><time>2026-03-29T09:22:19.452Z</time></trkpt><trkpt lat="45.3531583" lon="10.61788"><ele>133.33333333333334</ele><time>2026-03-29T09:22:20.452Z</time></trkpt><trkpt lat="45.3531683" lon="10.6182"><ele>133.66666666666666</ele><time>2026-03-29T09:22:21.452Z</time></trkpt><trkpt lat="45.353175" lon="10.6185167"><ele>134.0</ele><time>2026-03-29T09:22:22.452Z</time></trkpt><trkpt lat="45.3531867" lon="10.61881"><ele>134.33333333333331</ele><time>2026-03-29T09:22:23.452Z</time></trkpt><trkpt lat="45.3532117" lon="10.6190783"><ele>134.66666666666666</ele><time>2026-03-29T09:22:24.452Z</time></trkpt><trkpt lat="45.3532517" lon="10.6193533"><ele>135.0</ele><time>2026-03-29T09:22:25.452Z</time></trkpt><trkpt lat="45.3533083" lon="10.6196217"><ele>135.0</ele><time>2026-03-29T09:22:26.452Z</time></trkpt><trkpt lat="45.3533833" lon="10.6198883"><ele>135.0</ele><time>2026-03-29T09:22:27.452Z</time></trkpt><trkpt lat="45.35348" lon="10.62015"><ele>135.0</ele><time>2026-03-29T09:22:28.452Z</time></trkpt><trkpt lat="45.3536067" lon="10.6204133"><ele>135.0</ele><time>2026-03-29T09:22:29.452Z</time></trkpt><trkpt lat="45.353765" lon="10.6206617"><ele>135.0</ele><time>2026-03-29T09:22:30.452Z</time></trkpt><trkpt lat="45.353945" lon="10.62089"><ele>135.0</ele><time>2026-03-29T09:22:31.451Z</time></trkpt><trkpt lat="45.3541517" lon="10.62109"><ele>135.0</ele><time>2026-03-29T09:22:32.452Z</time></trkpt><trkpt lat="45.3543517" lon="10.62127"><ele>138.5</ele><time>2026-03-29T09:22:33.452Z</time></trkpt><trkpt lat="45.3545617" lon="10.6214383"><ele>142.0</ele><time>2026-03-29T09:22:34.451Z</time></trkpt><trkpt lat="45.3547667" lon="10.621605"><ele>142.0</ele><time>2026-03-29T09:22:35.452Z</time></trkpt><trkpt lat="45.35496" lon="10.6217733"><ele>142.0</ele><time>2026-03-29T09:22:36.452Z</time></trkpt><trkpt lat="45.35515" lon="10.621955"><ele>144.0</ele><time>2026-03-29T09:22:37.452Z</time></trkpt><trkpt lat="45.3553483" lon="10.6221383"><ele>146.0</ele><time>2026-03-29T09:22:38.452Z</time></trkpt><trkpt lat="45.3555417" lon="10.6223383"><ele>146.0</ele><time>2026-03-29T09:22:39.451Z</time></trkpt><trkpt lat="45.3557317" lon="10.622525"><ele>146.0</ele><time>2026-03-29T09:22:40.452Z</time></trkpt><trkpt lat="45.3559267" lon="10.62271"><ele>155.5</ele><time>2026-03-29T09:22:41.452Z</time></trkpt><trkpt lat="45.3561383" lon="10.622885"><ele>165.0</ele><time>2026-03-29T09:22:42.452Z</time></trkpt><trkpt lat="45.3563417" lon="10.62305"><ele>161.66666666666666</ele><time>2026-03-29T09:22:43.452Z</time></trkpt><trkpt lat="45.356535" lon="10.62321"><ele>158.33333333333331</ele><time>2026-03-29T09:22:44.452Z</time></trkpt><trkpt lat="45.3567217" lon="10.62335"><ele>155.0</ele><time>2026-03-29T09:22:45.451Z</time></trkpt><trkpt lat="45.356885" lon="10.6234817"><ele>155.0</ele><time>2026-03-29T09:22:46.45Z</time></trkpt><trkpt lat="45.3570267" lon="10.623605"><ele>155.0</ele><time>2026-03-29T09:22:47.45Z</time></trkpt><trkpt lat="45.3571533" lon="10.6237533"><ele>155.0</ele><time>2026-03-29T09:22:48.451Z</time></trkpt><trkpt lat="45.3572667" lon="10.6239317"><ele>156.66666666666666</ele><time>2026-03-29T09:22:49.45Z</time></trkpt><trkpt lat="45.3573617" lon="10.6241333"><ele>158.33333333333334</ele><time>2026-03-29T09:22:50.45Z</time></trkpt><trkpt lat="45.3574283" lon="10.6243683"><ele>160.0</ele><time>2026-03-29T09:22:51.451Z</time></trkpt><trkpt lat="45.3574567" lon="10.6246233"><ele>160.33333333333334</ele><time>2026-03-29T09:22:52.45Z</time></trkpt><trkpt lat="45.3574317" lon="10.6249083"><ele>160.66666666666666</ele><time>2026-03-29T09:22:53.451Z</time></trkpt><trkpt lat="45.3573933" lon="10.6251867"><ele>161.0</ele><time>2026-03-29T09:22:54.451Z</time></trkpt><trkpt lat="45.3573467" lon="10.6254683"><ele>161.0</ele><time>2026-03-29T09:22:55.451Z</time></trkpt><trkpt lat="45.3572917" lon="10.6257567"><ele>161.0</ele><time>2026-03-29T09:22:56.451Z</time></trkpt><trkpt lat="45.35724" lon="10.6260633"><ele>161.0</ele><time>2026-03-29T09:22:57.451Z</time></trkpt><trkpt lat="45.3571867" lon="10.6263483"><ele>161.0</ele><time>2026-03-29T09:22:58.451Z</time></trkpt><trkpt lat="45.3571133" lon="10.6265983"><ele>161.0</ele><time>2026-03-29T09:22:59.451Z</time></trkpt><trkpt lat="45.3570283" lon="10.626835"><ele>161.0</ele><time>2026-03-29T09:23:00.451Z</time></trkpt><trkpt lat="45.3569533" lon="10.6270267"><ele>159.8</ele><time>2026-03-29T09:23:01.451Z</time></trkpt><trkpt lat="45.356895" lon="10.6271683"><ele>158.60000000000002</ele><time>2026-03-29T09:23:02.451Z</time></trkpt><trkpt lat="45.3568517" lon="10.62728"><ele>157.4</ele><time>2026-03-29T09:23:03.45Z</time></trkpt><trkpt lat="45.3568417" lon="10.6274433"><ele>156.2</ele><time>2026-03-29T09:23:05.451Z</time></trkpt><trkpt lat="45.3568317" lon="10.6275333"><ele>155.0</ele><time>2026-03-29T09:23:06.451Z</time></trkpt><trkpt lat="45.3568067" lon="10.6276317"><ele>155.0</ele><time>2026-03-29T09:23:07.451Z</time></trkpt><trkpt lat="45.3567767" lon="10.62774"><ele>155.0</ele><time>2026-03-29T09:23:08.451Z</time></trkpt><trkpt lat="45.3567417" lon="10.6278483"><ele>155.0</ele><time>2026-03-29T09:23:09.451Z</time></trkpt><trkpt lat="45.3567017" lon="10.6279667"><ele>155.0</ele><time>2026-03-29T09:23:10.451Z</time></trkpt><trkpt lat="45.356675" lon="10.62809"><ele>155.0</ele><time>2026-03-29T09:23:11.451Z</time></trkpt><trkpt lat="45.3566517" lon="10.6282"><ele>155.0</ele><time>2026-03-29T09:23:12.45Z</time></trkpt><trkpt lat="45.3566933" lon="10.62833"><ele>154.4</ele><time>2026-03-29T09:23:14.45Z</time></trkpt><trkpt lat="45.35676" lon="10.6283533"><ele>153.8</ele><time>2026-03-29T09:23:15.451Z</time></trkpt><trkpt lat="45.356825" lon="10.6283567"><ele>153.2</ele><time>2026-03-29T09:23:16.451Z</time></trkpt><trkpt lat="45.3569283" lon="10.62834"><ele>152.6</ele><time>2026-03-29T09:23:17.451Z</time></trkpt><trkpt lat="45.357075" lon="10.6283217"><ele>152.0</ele><time>2026-03-29T09:23:18.451Z</time></trkpt><trkpt lat="45.35722" lon="10.628315"><ele>152.0</ele><time>2026-03-29T09:23:19.451Z</time></trkpt><trkpt lat="45.3573467" lon="10.6283067"><ele>152.0</ele><time>2026-03-29T09:23:20.451Z</time></trkpt><trkpt lat="45.357465" lon="10.6282933"><ele>152.0</ele><time>2026-03-29T09:23:21.45Z</time></trkpt><trkpt lat="45.3575883" lon="10.6282383"><ele>152.0</ele><time>2026-03-29T09:23:22.451Z</time></trkpt><trkpt lat="45.3577183" lon="10.62815"><ele>152.0</ele><time>2026-03-29T09:23:23.451Z</time></trkpt><trkpt lat="45.3578367" lon="10.6280067"><ele>152.0</ele><time>2026-03-29T09:23:24.451Z</time></trkpt><trkpt lat="45.35794" lon="10.62786"><ele>152.0</ele><time>2026-03-29T09:23:25.451Z</time></trkpt><trkpt lat="45.3580367" lon="10.6277283"><ele>152.0</ele><time>2026-03-29T09:23:26.451Z</time></trkpt><trkpt lat="45.358125" lon="10.6276067"><ele>152.0</ele><time>2026-03-29T09:23:27.451Z</time></trkpt><trkpt lat="45.3582267" lon="10.62753"><ele>152.0</ele><time>2026-03-29T09:23:28.451Z</time></trkpt><trkpt lat="45.35833" lon="10.627475"><ele>152.0</ele><time>2026-03-29T09:23:29.451Z</time></trkpt><trkpt lat="45.358435" lon="10.6274217"><ele>152.0</ele><time>2026-03-29T09:23:30.451Z</time></trkpt><trkpt lat="45.3585467" lon="10.6273433"><ele>152.0</ele><time>2026-03-29T09:23:31.45Z</time></trkpt><trkpt lat="45.3586367" lon="10.62722"><ele>152.0</ele><time>2026-03-29T09:23:32.451Z</time></trkpt><trkpt lat="45.3587133" lon="10.62708"><ele>152.0</ele><time>2026-03-29T09:23:33.451Z</time></trkpt><trkpt lat="45.3587633" lon="10.62693"><ele>152.0</ele><time>2026-03-29T09:23:34.451Z</time></trkpt><trkpt lat="45.35879" lon="10.6267567"><ele>151.0</ele><time>2026-03-29T09:23:35.45Z</time></trkpt><trkpt lat="45.3588133" lon="10.62655"><ele>150.0</ele><time>2026-03-29T09:23:36.451Z</time></trkpt><trkpt lat="45.35884" lon="10.626335"><ele>149.0</ele><time>2026-03-29T09:23:37.45Z</time></trkpt><trkpt lat="45.35888" lon="10.6261433"><ele>148.0</ele><time>2026-03-29T09:23:38.451Z</time></trkpt><trkpt lat="45.3589383" lon="10.6259783"><ele>148.0</ele><time>2026-03-29T09:23:39.451Z</time></trkpt><trkpt lat="45.3590167" lon="10.625825"><ele>148.0</ele><time>2026-03-29T09:23:40.451Z</time></trkpt><trkpt lat="45.3591067" lon="10.6256933"><ele>148.0</ele><time>2026-03-29T09:23:41.451Z</time></trkpt><trkpt lat="45.3592" lon="10.6255933"><ele>148.0</ele><time>2026-03-29T09:23:42.451Z</time></trkpt><trkpt lat="45.3592767" lon="10.62553"><ele>148.0</ele><time>2026-03-29T09:23:43.45Z</time></trkpt><trkpt lat="45.359345" lon="10.6254883"><ele>148.0</ele><time>2026-03-29T09:23:44.451Z</time></trkpt><trkpt lat="45.3594167" lon="10.6254633"><ele>148.0</ele><time>2026-03-29T09:23:46.451Z</time></trkpt><trkpt lat="45.3594833" lon="10.6254583"><ele>148.0</ele><time>2026-03-29T09:23:49.451Z</time></trkpt><trkpt lat="45.359545" lon="10.625485"><ele>148.0</ele><time>2026-03-29T09:23:50.451Z</time></trkpt><trkpt lat="45.3596233" lon="10.6255317"><ele>148.0</ele><time>2026-03-29T09:23:51.451Z</time></trkpt><trkpt lat="45.3597367" lon="10.6255833"><ele>148.33333333333334</ele><time>2026-03-29T09:23:52.45Z</time></trkpt><trkpt lat="45.359875" lon="10.6256567"><ele>148.66666666666666</ele><time>2026-03-29T09:23:53.451Z</time></trkpt><trkpt lat="45.3600283" lon="10.6257467"><ele>149.0</ele><time>2026-03-29T09:23:54.451Z</time></trkpt><trkpt lat="45.3601717" lon="10.625825"><ele>149.0</ele><time>2026-03-29T09:23:55.451Z</time></trkpt><trkpt lat="45.3602817" lon="10.625895"><ele>149.0</ele><time>2026-03-29T09:23:56.451Z</time></trkpt><trkpt lat="45.3603767" lon="10.6259883"><ele>149.0</ele><time>2026-03-29T09:23:57.451Z</time></trkpt><trkpt lat="45.3604733" lon="10.6260967"><ele>149.0</ele><time>2026-03-29T09:23:58.451Z</time></trkpt><trkpt lat="45.360595" lon="10.62622"><ele>150.0</ele><time>2026-03-29T09:23:59.451Z</time></trkpt><trkpt lat="45.3607183" lon="10.6263483"><ele>151.0</ele><time>2026-03-29T09:24:00.451Z</time></trkpt><trkpt lat="45.3608467" lon="10.6264683"><ele>152.0</ele><time>2026-03-29T09:24:01.451Z</time></trkpt><trkpt lat="45.36096" lon="10.6265883"><ele>153.0</ele><time>2026-03-29T09:24:02.451Z</time></trkpt><trkpt lat="45.3610583" lon="10.626685"><ele>153.0</ele><time>2026-03-29T09:24:03.451Z</time></trkpt><trkpt lat="45.3611433" lon="10.6267683"><ele>153.0</ele><time>2026-03-29T09:24:04.451Z</time></trkpt><trkpt lat="45.361215" lon="10.6268433"><ele>153.0</ele><time>2026-03-29T09:24:05.451Z</time></trkpt><trkpt lat="45.3613033" lon="10.6269317"><ele>153.0</ele><time>2026-03-29T09:24:06.451Z</time></trkpt><trkpt lat="45.36141" lon="10.627025"><ele>153.0</ele><time>2026-03-29T09:24:07.451Z</time></trkpt><trkpt lat="45.3615383" lon="10.627135"><ele>153.0</ele><time>2026-03-29T09:24:08.451Z</time></trkpt><trkpt lat="45.3616683" lon="10.6272367"><ele>153.0</ele><time>2026-03-29T09:24:09.451Z</time></trkpt><trkpt lat="45.3617883" lon="10.6273317"><ele>153.0</ele><time>2026-03-29T09:24:10.451Z</time></trkpt><trkpt lat="45.3618967" lon="10.6274067"><ele>153.0</ele><time>2026-03-29T09:24:11.451Z</time></trkpt><trkpt lat="45.3620117" lon="10.62747"><ele>153.0</ele><time>2026-03-29T09:24:12.451Z</time></trkpt><trkpt lat="45.3621333" lon="10.6275167"><ele>153.0</ele><time>2026-03-29T09:24:13.45Z</time></trkpt><trkpt lat="45.36224" lon="10.62755"><ele>153.0</ele><time>2026-03-29T09:24:14.451Z</time></trkpt><trkpt lat="45.3623333" lon="10.6275783"><ele>153.0</ele><time>2026-03-29T09:24:15.451Z</time></trkpt><trkpt lat="45.3624067" lon="10.62761"><ele>153.0</ele><time>2026-03-29T09:24:16.451Z</time></trkpt><trkpt lat="45.3625183" lon="10.6276117"><ele>153.0</ele><time>2026-03-29T09:24:18.451Z</time></trkpt><trkpt lat="45.362575" lon="10.6275717"><ele>153.0</ele><time>2026-03-29T09:24:19.451Z</time></trkpt><trkpt lat="45.362635" lon="10.62749"><ele>153.0</ele><time>2026-03-29T09:24:20.451Z</time></trkpt><trkpt lat="45.3627167" lon="10.6274"><ele>153.0</ele><time>2026-03-29T09:24:21.451Z</time></trkpt><trkpt lat="45.3628217" lon="10.6273183"><ele>153.0</ele><time>2026-03-29T09:24:22.451Z</time></trkpt><trkpt lat="45.362925" lon="10.6272533"><ele>153.0</ele><time>2026-03-29T09:24:23.451Z</time></trkpt><trkpt lat="45.3630167" lon="10.6272"><ele>153.0</ele><time>2026-03-29T09:24:24.451Z</time></trkpt><trkpt lat="45.3630833" lon="10.6271733"><ele>153.0</ele><time>2026-03-29T09:24:25.451Z</time></trkpt><trkpt lat="45.3631567" lon="10.6270583"><ele>153.0</ele><time>2026-03-29T09:24:27.451Z</time></trkpt><trkpt lat="45.3631633" lon="10.626965"><ele>153.0</ele><time>2026-03-29T09:24:28.451Z</time></trkpt><trkpt lat="45.3631533" lon="10.6268533"><ele>153.0</ele><time>2026-03-29T09:24:29.451Z</time></trkpt><trkpt lat="45.3631433" lon="10.6267"><ele>152.75</ele><time>2026-03-29T09:24:30.451Z</time></trkpt><trkpt lat="45.363125" lon="10.6265133"><ele>152.5</ele><time>2026-03-29T09:24:31.451Z</time></trkpt><trkpt lat="45.363115" lon="10.6263133"><ele>152.25</ele><time>2026-03-29T09:24:32.451Z</time></trkpt><trkpt lat="45.3630983" lon="10.6261333"><ele>152.0</ele><time>2026-03-29T09:24:33.451Z</time></trkpt><trkpt lat="45.3630883" lon="10.62596"><ele>151.6</ele><time>2026-03-29T09:24:34.451Z</time></trkpt><trkpt lat="45.3630933" lon="10.62581"><ele>151.2</ele><time>2026-03-29T09:24:35.451Z</time></trkpt><trkpt lat="45.3631067" lon="10.625665"><ele>150.8</ele><time>2026-03-29T09:24:36.451Z</time></trkpt><trkpt lat="45.363145" lon="10.6255367"><ele>150.4</ele><time>2026-03-29T09:24:37.451Z</time></trkpt><trkpt lat="45.363205" lon="10.6254167"><ele>150.0</ele><time>2026-03-29T09:24:38.451Z</time></trkpt><trkpt lat="45.36327" lon="10.6252983"><ele>150.0</ele><time>2026-03-29T09:24:39.45Z</time></trkpt><trkpt lat="45.363335" lon="10.6251767"><ele>150.0</ele><time>2026-03-29T09:24:40.45Z</time></trkpt><trkpt lat="45.3634133" lon="10.6250467"><ele>150.0</ele><time>2026-03-29T09:24:41.451Z</time></trkpt><trkpt lat="45.3634733" lon="10.6248983"><ele>150.0</ele><time>2026-03-29T09:24:42.451Z</time></trkpt><trkpt lat="45.3635383" lon="10.6247383"><ele>150.0</ele><time>2026-03-29T09:24:43.451Z</time></trkpt><trkpt lat="45.36361" lon="10.62455"><ele>150.0</ele><time>2026-03-29T09:24:44.451Z</time></trkpt><trkpt lat="45.3636733" lon="10.6243933"><ele>150.0</ele><time>2026-03-29T09:24:45.451Z</time></trkpt><trkpt lat="45.3637317" lon="10.624245"><ele>150.0</ele><time>2026-03-29T09:24:46.451Z</time></trkpt><trkpt lat="45.363805" lon="10.6240917"><ele>149.5</ele><time>2026-03-29T09:24:47.451Z</time></trkpt><trkpt lat="45.3638783" lon="10.6239367"><ele>149.0</ele><time>2026-03-29T09:24:48.451Z</time></trkpt><trkpt lat="45.3639467" lon="10.6237883"><ele>148.5</ele><time>2026-03-29T09:24:49.451Z</time></trkpt><trkpt lat="45.3640283" lon="10.623645"><ele>148.0</ele><time>2026-03-29T09:24:50.45Z</time></trkpt><trkpt lat="45.3641133" lon="10.6235133"><ele>148.0</ele><time>2026-03-29T09:24:51.451Z</time></trkpt><trkpt lat="45.3641867" lon="10.62339"><ele>148.0</ele><time>2026-03-29T09:24:52.451Z</time></trkpt><trkpt lat="45.3642467" lon="10.6232817"><ele>148.0</ele><time>2026-03-29T09:24:53.451Z</time></trkpt><trkpt lat="45.3642883" lon="10.6232"><ele>148.0</ele><time>2026-03-29T09:24:54.451Z</time></trkpt><trkpt lat="45.3643017" lon="10.6230617"><ele>148.0</ele><time>2026-03-29T09:24:56.451Z</time></trkpt><trkpt lat="45.36423" lon="10.6228833"><ele>147.25</ele><time>2026-03-29T09:24:58.451Z</time></trkpt><trkpt lat="45.364155" lon="10.6227417"><ele>146.5</ele><time>2026-03-29T09:24:59.451Z</time></trkpt><trkpt lat="45.36408" lon="10.62257"><ele>145.75</ele><time>2026-03-29T09:25:00.451Z</time></trkpt><trkpt lat="45.3639983" lon="10.6224117"><ele>145.0</ele><time>2026-03-29T09:25:01.451Z</time></trkpt><trkpt lat="45.3639383" lon="10.6222533"><ele>145.0</ele><time>2026-03-29T09:25:02.451Z</time></trkpt><trkpt lat="45.3639133" lon="10.6220917"><ele>145.0</ele><time>2026-03-29T09:25:03.451Z</time></trkpt><trkpt lat="45.3638983" lon="10.6219383"><ele>145.0</ele><time>2026-03-29T09:25:04.451Z</time></trkpt><trkpt lat="45.3638983" lon="10.6217833"><ele>145.0</ele><time>2026-03-29T09:25:05.451Z</time></trkpt><trkpt lat="45.3639133" lon="10.6216433"><ele>145.0</ele><time>2026-03-29T09:25:06.451Z</time></trkpt><trkpt lat="45.3639433" lon="10.6215067"><ele>145.0</ele><time>2026-03-29T09:25:07.451Z</time></trkpt><trkpt lat="45.3639683" lon="10.621355"><ele>145.0</ele><time>2026-03-29T09:25:08.451Z</time></trkpt><trkpt lat="45.36399" lon="10.6212017"><ele>145.0</ele><time>2026-03-29T09:25:09.451Z</time></trkpt><trkpt lat="45.3639883" lon="10.6210467"><ele>145.0</ele><time>2026-03-29T09:25:10.451Z</time></trkpt><trkpt lat="45.363975" lon="10.62088"><ele>145.0</ele><time>2026-03-29T09:25:11.451Z</time></trkpt><trkpt lat="45.3639467" lon="10.62071"><ele>145.0</ele><time>2026-03-29T09:25:12.451Z</time></trkpt><trkpt lat="45.363915" lon="10.62057"><ele>145.0</ele><time>2026-03-29T09:25:13.451Z</time></trkpt><trkpt lat="45.3638783" lon="10.6204433"><ele>145.0</ele><time>2026-03-29T09:25:14.451Z</time></trkpt><trkpt lat="45.3638217" lon="10.62034"><ele>145.0</ele><time>2026-03-29T09:25:15.451Z</time></trkpt><trkpt lat="45.36376" lon="10.62024"><ele>145.0</ele><time>2026-03-29T09:25:16.451Z</time></trkpt><trkpt lat="45.3637217" lon="10.620135"><ele>146.75</ele><time>2026-03-29T09:25:17.451Z</time></trkpt><trkpt lat="45.363695" lon="10.6199883"><ele>148.5</ele><time>2026-03-29T09:25:18.451Z</time></trkpt><trkpt lat="45.363675" lon="10.6198167"><ele>150.25</ele><time>2026-03-29T09:25:19.451Z</time></trkpt><trkpt lat="45.36365" lon="10.61963"><ele>152.0</ele><time>2026-03-29T09:25:20.451Z</time></trkpt><trkpt lat="45.3636383" lon="10.619445"><ele>152.2</ele><time>2026-03-29T09:25:21.45Z</time></trkpt><trkpt lat="45.3636283" lon="10.6192933"><ele>152.39999999999998</ele><time>2026-03-29T09:25:22.451Z</time></trkpt><trkpt lat="45.3636433" lon="10.6191767"><ele>152.60000000000002</ele><time>2026-03-29T09:25:23.451Z</time></trkpt><trkpt lat="45.36368" lon="10.6190483"><ele>152.8</ele><time>2026-03-29T09:25:24.451Z</time></trkpt><trkpt lat="45.36373" lon="10.6189"><ele>153.0</ele><time>2026-03-29T09:25:25.451Z</time></trkpt><trkpt lat="45.3637983" lon="10.6187383"><ele>153.0</ele><time>2026-03-29T09:25:26.451Z</time></trkpt><trkpt lat="45.3638617" lon="10.6185567"><ele>153.0</ele><time>2026-03-29T09:25:27.451Z</time></trkpt><trkpt lat="45.3639417" lon="10.6183617"><ele>153.0</ele><time>2026-03-29T09:25:28.451Z</time></trkpt><trkpt lat="45.364025" lon="10.6181533"><ele>151.0</ele><time>2026-03-29T09:25:29.451Z</time></trkpt><trkpt lat="45.3640983" lon="10.6179367"><ele>149.0</ele><time>2026-03-29T09:25:30.451Z</time></trkpt><trkpt lat="45.3641567" lon="10.6177267"><ele>147.0</ele><time>2026-03-29T09:25:31.451Z</time></trkpt><trkpt lat="45.36422" lon="10.617535"><ele>147.0</ele><time>2026-03-29T09:25:32.451Z</time></trkpt><trkpt lat="45.36427" lon="10.6173483"><ele>147.0</ele><time>2026-03-29T09:25:33.451Z</time></trkpt><trkpt lat="45.3643283" lon="10.6171583"><ele>147.0</ele><time>2026-03-29T09:25:34.451Z</time></trkpt><trkpt lat="45.3643867" lon="10.6169917"><ele>147.0</ele><time>2026-03-29T09:25:35.451Z</time></trkpt><trkpt lat="45.3644333" lon="10.6168433"><ele>146.66666666666666</ele><time>2026-03-29T09:25:36.451Z</time></trkpt><trkpt lat="45.3644867" lon="10.6167367"><ele>146.33333333333334</ele><time>2026-03-29T09:25:37.451Z</time></trkpt><trkpt lat="45.3645433" lon="10.6166683"><ele>146.0</ele><time>2026-03-29T09:25:38.451Z</time></trkpt><trkpt lat="45.3646067" lon="10.6166383"><ele>145.66666666666669</ele><time>2026-03-29T09:25:39.451Z</time></trkpt><trkpt lat="45.36469" lon="10.6166367"><ele>145.33333333333334</ele><time>2026-03-29T09:25:40.45Z</time></trkpt><trkpt lat="45.3647767" lon="10.6166367"><ele>145.0</ele><time>2026-03-29T09:25:41.451Z</time></trkpt><trkpt lat="45.364855" lon="10.616615"><ele>144.33333333333334</ele><time>2026-03-29T09:25:42.451Z</time></trkpt><trkpt lat="45.36492" lon="10.616585"><ele>143.66666666666669</ele><time>2026-03-29T09:25:43.451Z</time></trkpt><trkpt lat="45.3649867" lon="10.6165367"><ele>143.0</ele><time>2026-03-29T09:25:45.451Z</time></trkpt><trkpt lat="45.36498" lon="10.61644"><ele>142.33333333333334</ele><time>2026-03-29T09:28:04.45Z</time></trkpt><trkpt lat="45.364965" lon="10.61633"><ele>141.66666666666666</ele><time>2026-03-29T09:28:05.451Z</time></trkpt><trkpt lat="45.364955" lon="10.6162083"><ele>141.0</ele><time>2026-03-29T09:28:06.451Z</time></trkpt><trkpt lat="45.3649567" lon="10.616095"><ele>140.4</ele><time>2026-03-29T09:28:07.45Z</time></trkpt><trkpt lat="45.3649783" lon="10.61601"><ele>139.8</ele><time>2026-03-29T09:28:08.451Z</time></trkpt><trkpt lat="45.3650233" lon="10.6159283"><ele>139.20000000000002</ele><time>2026-03-29T09:28:09.451Z</time></trkpt><trkpt lat="45.3650667" lon="10.6158467"><ele>138.6</ele><time>2026-03-29T09:28:10.451Z</time></trkpt><trkpt lat="45.3651067" lon="10.61569"><ele>138.0</ele><time>2026-03-29T09:28:12.451Z</time></trkpt><trkpt lat="45.3650983" lon="10.615505"><ele>138.0</ele><time>2026-03-29T09:28:14.45Z</time></trkpt><trkpt lat="45.36508" lon="10.6153867"><ele>138.0</ele><time>2026-03-29T09:28:15.45Z</time></trkpt><trkpt lat="45.36506" lon="10.6152533"><ele>138.0</ele><time>2026-03-29T09:28:16.451Z</time></trkpt><trkpt lat="45.3650417" lon="10.6151"><ele>138.0</ele><time>2026-03-29T09:28:17.45Z</time></trkpt><trkpt lat="45.3650333" lon="10.6149533"><ele>138.0</ele><time>2026-03-29T09:28:18.451Z</time></trkpt><trkpt lat="45.3650283" lon="10.6148183"><ele>138.0</ele><time>2026-03-29T09:28:19.451Z</time></trkpt><trkpt lat="45.3650317" lon="10.6146867"><ele>138.0</ele><time>2026-03-29T09:28:20.451Z</time></trkpt><trkpt lat="45.3650283" lon="10.6145567"><ele>138.0</ele><time>2026-03-29T09:28:21.451Z</time></trkpt><trkpt lat="45.3650283" lon="10.61443"><ele>138.0</ele><time>2026-03-29T09:28:22.451Z</time></trkpt><trkpt lat="45.3650267" lon="10.6143133"><ele>138.0</ele><time>2026-03-29T09:28:23.451Z</time></trkpt><trkpt lat="45.3650283" lon="10.6142067"><ele>138.0</ele><time>2026-03-29T09:28:24.45Z</time></trkpt><trkpt lat="45.3650183" lon="10.6141067"><ele>138.0</ele><time>2026-03-29T09:28:25.451Z</time></trkpt><trkpt lat="45.36502" lon="10.61401"><ele>138.0</ele><time>2026-03-29T09:28:26.451Z</time></trkpt><trkpt lat="45.365035" lon="10.61383"><ele>138.0</ele><time>2026-03-29T09:28:28.451Z</time></trkpt><trkpt lat="45.3650467" lon="10.6137333"><ele>138.0</ele><time>2026-03-29T09:28:29.451Z</time></trkpt><trkpt lat="45.3650633" lon="10.61363"><ele>138.0</ele><time>2026-03-29T09:28:30.45Z</time></trkpt><trkpt lat="45.36509" lon="10.61348"><ele>138.0</ele><time>2026-03-29T09:28:32.45Z</time></trkpt><trkpt lat="45.3651067" lon="10.6133333"><ele>138.33333333333334</ele><time>2026-03-29T09:28:34.451Z</time></trkpt><trkpt lat="45.3651033" lon="10.61324"><ele>138.66666666666666</ele><time>2026-03-29T09:28:35.451Z</time></trkpt><trkpt lat="45.3650833" lon="10.6131317"><ele>139.0</ele><time>2026-03-29T09:28:36.451Z</time></trkpt><trkpt lat="45.3650433" lon="10.6130317"><ele>139.33333333333331</ele><time>2026-03-29T09:28:37.451Z</time></trkpt><trkpt lat="45.3650117" lon="10.6129267"><ele>139.66666666666666</ele><time>2026-03-29T09:28:38.451Z</time></trkpt><trkpt lat="45.3649783" lon="10.61282"><ele>140.0</ele><time>2026-03-29T09:28:39.451Z</time></trkpt><trkpt lat="45.3649417" lon="10.6126983"><ele>140.0</ele><time>2026-03-29T09:28:40.45Z</time></trkpt><trkpt lat="45.3648867" lon="10.612575"><ele>140.0</ele><time>2026-03-29T09:28:41.451Z</time></trkpt><trkpt lat="45.3648183" lon="10.61244"><ele>140.0</ele><time>2026-03-29T09:28:42.45Z</time></trkpt><trkpt lat="45.3647417" lon="10.6122983"><ele>140.0</ele><time>2026-03-29T09:28:43.451Z</time></trkpt><trkpt lat="45.3646917" lon="10.61215"><ele>141.0</ele><time>2026-03-29T09:28:44.451Z</time></trkpt><trkpt lat="45.3646583" lon="10.61199"><ele>142.0</ele><time>2026-03-29T09:28:45.451Z</time></trkpt><trkpt lat="45.3646283" lon="10.61179"><ele>143.0</ele><time>2026-03-29T09:28:46.451Z</time></trkpt><trkpt lat="45.3645933" lon="10.611555"><ele>144.0</ele><time>2026-03-29T09:28:47.451Z</time></trkpt><trkpt lat="45.364555" lon="10.6113"><ele>142.5</ele><time>2026-03-29T09:28:48.451Z</time></trkpt><trkpt lat="45.3645133" lon="10.6110417"><ele>141.0</ele><time>2026-03-29T09:28:49.451Z</time></trkpt><trkpt lat="45.3644783" lon="10.6108383"><ele>139.5</ele><time>2026-03-29T09:28:50.45Z</time></trkpt><trkpt lat="45.364465" lon="10.6106933"><ele>138.0</ele><time>2026-03-29T09:28:51.451Z</time></trkpt><trkpt lat="45.3644633" lon="10.6105933"><ele>138.0</ele><time>2026-03-29T09:28:52.451Z</time></trkpt><trkpt lat="45.3644833" lon="10.6104717"><ele>138.0</ele><time>2026-03-29T09:28:54.451Z</time></trkpt><trkpt lat="45.3645617" lon="10.6104817"><ele>138.0</ele><time>2026-03-29T09:28:56.451Z</time></trkpt><trkpt lat="45.3646433" lon="10.6105133"><ele>138.0</ele><time>2026-03-29T09:28:57.451Z</time></trkpt><trkpt lat="45.36475" lon="10.6105583"><ele>138.0</ele><time>2026-03-29T09:28:58.451Z</time></trkpt><trkpt lat="45.364865" lon="10.6105883"><ele>137.25</ele><time>2026-03-29T09:28:59.451Z</time></trkpt><trkpt lat="45.365" lon="10.6106133"><ele>136.5</ele><time>2026-03-29T09:29:00.45Z</time></trkpt><trkpt lat="45.36514" lon="10.610645"><ele>135.75</ele><time>2026-03-29T09:29:01.451Z</time></trkpt><trkpt lat="45.3652917" lon="10.6106867"><ele>135.0</ele><time>2026-03-29T09:29:02.451Z</time></trkpt><trkpt lat="45.3654733" lon="10.6107167"><ele>136.33333333333334</ele><time>2026-03-29T09:29:03.451Z</time></trkpt><trkpt lat="45.365665" lon="10.6107517"><ele>137.66666666666669</ele><time>2026-03-29T09:29:04.451Z</time></trkpt><trkpt lat="45.3658917" lon="10.6107883"><ele>139.0</ele><time>2026-03-29T09:29:05.451Z</time></trkpt><trkpt lat="45.3661333" lon="10.6107967"><ele>139.5</ele><time>2026-03-29T09:29:06.451Z</time></trkpt><trkpt lat="45.3663867" lon="10.6108033"><ele>140.0</ele><time>2026-03-29T09:29:07.451Z</time></trkpt><trkpt lat="45.3666117" lon="10.6108133"><ele>140.0</ele><time>2026-03-29T09:29:08.451Z</time></trkpt><trkpt lat="45.366775" lon="10.610825"><ele>140.0</ele><time>2026-03-29T09:29:09.451Z</time></trkpt><trkpt lat="45.3668817" lon="10.6108383"><ele>140.0</ele><time>2026-03-29T09:29:10.451Z</time></trkpt><trkpt lat="45.36695" lon="10.610855"><ele>140.0</ele><time>2026-03-29T09:29:11.451Z</time></trkpt><trkpt lat="45.3669083" lon="10.6107433"><ele>140.0</ele><time>2026-03-29T09:29:22.451Z</time></trkpt><trkpt lat="45.3668767" lon="10.6105983"><ele>140.0</ele><time>2026-03-29T09:29:24.451Z</time></trkpt><trkpt lat="45.366885" lon="10.6104717"><ele>140.0</ele><time>2026-03-29T09:29:25.451Z</time></trkpt><trkpt lat="45.3669183" lon="10.6102983"><ele>140.0</ele><time>2026-03-29T09:29:26.45Z</time></trkpt><trkpt lat="45.36698" lon="10.6100633"><ele>140.0</ele><time>2026-03-29T09:29:27.451Z</time></trkpt><trkpt lat="45.3670467" lon="10.6097767"><ele>140.33333333333331</ele><time>2026-03-29T09:29:28.451Z</time></trkpt><trkpt lat="45.3671167" lon="10.609475"><ele>140.66666666666666</ele><time>2026-03-29T09:29:29.451Z</time></trkpt><trkpt lat="45.367185" lon="10.609185"><ele>141.0</ele><time>2026-03-29T09:29:30.451Z</time></trkpt><trkpt lat="45.3672483" lon="10.6089233"><ele>141.0</ele><time>2026-03-29T09:29:31.451Z</time></trkpt><trkpt lat="45.3673" lon="10.6086867"><ele>141.0</ele><time>2026-03-29T09:29:32.451Z</time></trkpt><trkpt lat="45.3673467" lon="10.6084783"><ele>141.0</ele><time>2026-03-29T09:29:33.451Z</time></trkpt><trkpt lat="45.3673817" lon="10.6082767"><ele>141.0</ele><time>2026-03-29T09:29:34.451Z</time></trkpt><trkpt lat="45.3674117" lon="10.6081067"><ele>141.0</ele><time>2026-03-29T09:29:35.451Z</time></trkpt><trkpt lat="45.3674367" lon="10.6079733"><ele>141.0</ele><time>2026-03-29T09:29:36.45Z</time></trkpt><trkpt lat="45.367455" lon="10.6078567"><ele>141.0</ele><time>2026-03-29T09:29:37.451Z</time></trkpt><trkpt lat="45.3674717" lon="10.6077467"><ele>141.0</ele><time>2026-03-29T09:29:38.45Z</time></trkpt><trkpt lat="45.3674967" lon="10.6076433"><ele>141.0</ele><time>2026-03-29T09:29:39.451Z</time></trkpt><trkpt lat="45.3675233" lon="10.6075433"><ele>141.0</ele><time>2026-03-29T09:29:40.451Z</time></trkpt><trkpt lat="45.3675583" lon="10.6074667"><ele>141.0</ele><time>2026-03-29T09:29:41.451Z</time></trkpt><trkpt lat="45.36767" lon="10.6074133"><ele>141.0</ele><time>2026-03-29T09:29:43.451Z</time></trkpt><trkpt lat="45.3677383" lon="10.60743"><ele>141.0</ele><time>2026-03-29T09:29:44.451Z</time></trkpt><trkpt lat="45.3678233" lon="10.6074783"><ele>141.0</ele><time>2026-03-29T09:29:45.45Z</time></trkpt><trkpt lat="45.367895" lon="10.6075267"><ele>141.0</ele><time>2026-03-29T09:29:46.451Z</time></trkpt><trkpt lat="45.3679683" lon="10.6075933"><ele>141.0</ele><time>2026-03-29T09:29:47.451Z</time></trkpt><trkpt lat="45.36804" lon="10.6076433"><ele>141.0</ele><time>2026-03-29T09:29:48.45Z</time></trkpt><trkpt lat="45.3681217" lon="10.607685"><ele>141.0</ele><time>2026-03-29T09:29:49.451Z</time></trkpt><trkpt lat="45.3681983" lon="10.6077167"><ele>141.0</ele><time>2026-03-29T09:29:50.45Z</time></trkpt><trkpt lat="45.368265" lon="10.6077217"><ele>141.0</ele><time>2026-03-29T09:29:51.451Z</time></trkpt><trkpt lat="45.3683333" lon="10.6076917"><ele>139.25</ele><time>2026-03-29T09:29:52.451Z</time></trkpt><trkpt lat="45.3684017" lon="10.6076"><ele>137.5</ele><time>2026-03-29T09:29:53.451Z</time></trkpt><trkpt lat="45.36848" lon="10.6074867"><ele>135.75</ele><time>2026-03-29T09:29:54.451Z</time></trkpt><trkpt lat="45.3685533" lon="10.6073367"><ele>134.0</ele><time>2026-03-29T09:29:55.451Z</time></trkpt><trkpt lat="45.36863" lon="10.607175"><ele>134.0</ele><time>2026-03-29T09:29:56.451Z</time></trkpt><trkpt lat="45.3687133" lon="10.6070233"><ele>134.0</ele><time>2026-03-29T09:29:57.45Z</time></trkpt><trkpt lat="45.368775" lon="10.6069083"><ele>134.0</ele><time>2026-03-29T09:29:58.451Z</time></trkpt><trkpt lat="45.3688283" lon="10.6068367"><ele>134.0</ele><time>2026-03-29T09:29:59.45Z</time></trkpt><trkpt lat="45.3689233" lon="10.6067733"><ele>134.0</ele><time>2026-03-29T09:30:01.451Z</time></trkpt><trkpt lat="45.3690333" lon="10.606805"><ele>132.0</ele><time>2026-03-29T09:30:03.451Z</time></trkpt><trkpt lat="45.3690933" lon="10.606845"><ele>130.0</ele><time>2026-03-29T09:30:04.451Z</time></trkpt><trkpt lat="45.3691633" lon="10.6068983"><ele>128.0</ele><time>2026-03-29T09:30:05.451Z</time></trkpt><trkpt lat="45.369245" lon="10.6069733"><ele>126.0</ele><time>2026-03-29T09:30:06.451Z</time></trkpt><trkpt lat="45.3693333" lon="10.6070467"><ele>123.99999999999999</ele><time>2026-03-29T09:30:07.451Z</time></trkpt><trkpt lat="45.3694233" lon="10.6071083"><ele>122.0</ele><time>2026-03-29T09:30:08.451Z</time></trkpt><trkpt lat="45.3695067" lon="10.607155"><ele>122.0</ele><time>2026-03-29T09:30:09.451Z</time></trkpt><trkpt lat="45.3695833" lon="10.6071733"><ele>121.99999999999999</ele><time>2026-03-29T09:30:10.451Z</time></trkpt><trkpt lat="45.3696833" lon="10.6072433"><ele>121.99999999999999</ele><time>2026-03-29T09:30:12.451Z</time></trkpt><trkpt lat="45.3697083" lon="10.6073783"><ele>122.0</ele><time>2026-03-29T09:30:14.45Z</time></trkpt><trkpt lat="45.36971" lon="10.6074983"><ele>122.0</ele><time>2026-03-29T09:30:15.451Z</time></trkpt><trkpt lat="45.369705" lon="10.6076417"><ele>121.0</ele><time>2026-03-29T09:30:16.45Z</time></trkpt><trkpt lat="45.3697033" lon="10.6077967"><ele>119.99999999999999</ele><time>2026-03-29T09:30:17.451Z</time></trkpt><trkpt lat="45.36973" lon="10.6079483"><ele>118.99999999999999</ele><time>2026-03-29T09:30:18.451Z</time></trkpt><trkpt lat="45.3697683" lon="10.6081017"><ele>118.0</ele><time>2026-03-29T09:30:19.451Z</time></trkpt><trkpt lat="45.3698083" lon="10.608245"><ele>117.0</ele><time>2026-03-29T09:30:20.451Z</time></trkpt><trkpt lat="45.3698433" lon="10.6084"><ele>117.0</ele><time>2026-03-29T09:30:21.451Z</time></trkpt><trkpt lat="45.3698717" lon="10.6085767"><ele>117.0</ele><time>2026-03-29T09:30:22.451Z</time></trkpt><trkpt lat="45.3698933" lon="10.6087633"><ele>117.0</ele><time>2026-03-29T09:30:23.451Z</time></trkpt><trkpt lat="45.3699083" lon="10.6089717"><ele>117.0</ele><time>2026-03-29T09:30:24.451Z</time></trkpt><trkpt lat="45.3699417" lon="10.60919"><ele>119.33333333333334</ele><time>2026-03-29T09:30:25.451Z</time></trkpt><trkpt lat="45.3699933" lon="10.6094167"><ele>121.66666666666667</ele><time>2026-03-29T09:30:26.451Z</time></trkpt><trkpt lat="45.37005" lon="10.609635"><ele>124.0</ele><time>2026-03-29T09:30:27.451Z</time></trkpt><trkpt lat="45.370095" lon="10.6098317"><ele>124.75</ele><time>2026-03-29T09:30:28.451Z</time></trkpt><trkpt lat="45.37014" lon="10.610015"><ele>125.5</ele><time>2026-03-29T09:30:29.451Z</time></trkpt><trkpt lat="45.3701833" lon="10.6101867"><ele>126.25</ele><time>2026-03-29T09:30:30.45Z</time></trkpt><trkpt lat="45.3702267" lon="10.6103883"><ele>127.0</ele><time>2026-03-29T09:30:31.451Z</time></trkpt><trkpt lat="45.37028" lon="10.610625"><ele>127.33333333333334</ele><time>2026-03-29T09:30:32.451Z</time></trkpt><trkpt lat="45.3703433" lon="10.6108767"><ele>127.66666666666666</ele><time>2026-03-29T09:30:33.451Z</time></trkpt><trkpt lat="45.3704067" lon="10.6111267"><ele>128.0</ele><time>2026-03-29T09:30:34.45Z</time></trkpt><trkpt lat="45.3704683" lon="10.6113667"><ele>127.75</ele><time>2026-03-29T09:30:35.451Z</time></trkpt><trkpt lat="45.37052" lon="10.611585"><ele>127.5</ele><time>2026-03-29T09:30:36.451Z</time></trkpt><trkpt lat="45.3705533" lon="10.6117883"><ele>127.25</ele><time>2026-03-29T09:30:37.45Z</time></trkpt><trkpt lat="45.37057" lon="10.6119683"><ele>127.0</ele><time>2026-03-29T09:30:38.451Z</time></trkpt><trkpt lat="45.3705767" lon="10.6121667"><ele>125.25</ele><time>2026-03-29T09:30:39.451Z</time></trkpt><trkpt lat="45.3705767" lon="10.6123733"><ele>123.5</ele><time>2026-03-29T09:30:40.451Z</time></trkpt><trkpt lat="45.3705767" lon="10.6125533"><ele>121.75</ele><time>2026-03-29T09:30:41.451Z</time></trkpt><trkpt lat="45.37058" lon="10.612715"><ele>120.0</ele><time>2026-03-29T09:30:42.451Z</time></trkpt><trkpt lat="45.370615" lon="10.612865"><ele>118.75</ele><time>2026-03-29T09:30:43.451Z</time></trkpt><trkpt lat="45.3706767" lon="10.6129933"><ele>117.5</ele><time>2026-03-29T09:30:44.451Z</time></trkpt><trkpt lat="45.3707733" lon="10.6130967"><ele>116.25</ele><time>2026-03-29T09:30:45.451Z</time></trkpt><trkpt lat="45.3709067" lon="10.6131883"><ele>115.0</ele><time>2026-03-29T09:30:46.451Z</time></trkpt><trkpt lat="45.3710617" lon="10.6132983"><ele>115.0</ele><time>2026-03-29T09:30:47.45Z</time></trkpt><trkpt lat="45.3712283" lon="10.61343"><ele>115.0</ele><time>2026-03-29T09:30:48.451Z</time></trkpt><trkpt lat="45.3714167" lon="10.6135783"><ele>115.0</ele><time>2026-03-29T09:30:49.451Z</time></trkpt><trkpt lat="45.3716033" lon="10.6137383"><ele>114.66666666666667</ele><time>2026-03-29T09:30:50.451Z</time></trkpt><trkpt lat="45.371785" lon="10.6138917"><ele>114.33333333333334</ele><time>2026-03-29T09:30:51.451Z</time></trkpt><trkpt lat="45.3719583" lon="10.614035"><ele>114.0</ele><time>2026-03-29T09:30:52.451Z</time></trkpt><trkpt lat="45.372135" lon="10.6141683"><ele>113.66666666666666</ele><time>2026-03-29T09:30:53.451Z</time></trkpt><trkpt lat="45.3723067" lon="10.614275"><ele>113.33333333333333</ele><time>2026-03-29T09:30:54.451Z</time></trkpt><trkpt lat="45.372495" lon="10.6143367"><ele>113.0</ele><time>2026-03-29T09:30:55.451Z</time></trkpt><trkpt lat="45.3726983" lon="10.6143567"><ele>113.0</ele><time>2026-03-29T09:30:56.451Z</time></trkpt><trkpt lat="45.372905" lon="10.6143583"><ele>113.0</ele><time>2026-03-29T09:30:57.451Z</time></trkpt><trkpt lat="45.3731067" lon="10.6143633"><ele>113.0</ele><time>2026-03-29T09:30:58.451Z</time></trkpt><trkpt lat="45.37331" lon="10.6144067"><ele>113.0</ele><time>2026-03-29T09:30:59.45Z</time></trkpt><trkpt lat="45.3735167" lon="10.61447"><ele>113.0</ele><time>2026-03-29T09:31:00.451Z</time></trkpt><trkpt lat="45.3737217" lon="10.6145683"><ele>113.0</ele><time>2026-03-29T09:31:01.451Z</time></trkpt><trkpt lat="45.3739183" lon="10.6147117"><ele>113.33333333333333</ele><time>2026-03-29T09:31:02.451Z</time></trkpt><trkpt lat="45.3741083" lon="10.6148683"><ele>113.66666666666666</ele><time>2026-03-29T09:31:03.451Z</time></trkpt><trkpt lat="45.3743" lon="10.615035"><ele>114.0</ele><time>2026-03-29T09:31:04.45Z</time></trkpt><trkpt lat="45.374495" lon="10.6152033"><ele>114.5</ele><time>2026-03-29T09:31:05.451Z</time></trkpt><trkpt lat="45.3747017" lon="10.6153783"><ele>115.0</ele><time>2026-03-29T09:31:06.451Z</time></trkpt><trkpt lat="45.3748917" lon="10.6155367"><ele>115.0</ele><time>2026-03-29T09:31:07.451Z</time></trkpt><trkpt lat="45.3750567" lon="10.6156717"><ele>115.0</ele><time>2026-03-29T09:31:08.45Z</time></trkpt><trkpt lat="45.3752" lon="10.6157917"><ele>115.0</ele><time>2026-03-29T09:31:09.451Z</time></trkpt><trkpt lat="45.37533" lon="10.6158917"><ele>115.0</ele><time>2026-03-29T09:31:10.45Z</time></trkpt><trkpt lat="45.375455" lon="10.6159867"><ele>115.0</ele><time>2026-03-29T09:31:11.451Z</time></trkpt><trkpt lat="45.3755717" lon="10.6160783"><ele>115.0</ele><time>2026-03-29T09:31:12.451Z</time></trkpt><trkpt lat="45.375675" lon="10.6161867"><ele>115.0</ele><time>2026-03-29T09:31:13.451Z</time></trkpt><trkpt lat="45.3757683" lon="10.6162883"><ele>115.33333333333334</ele><time>2026-03-29T09:31:14.451Z</time></trkpt><trkpt lat="45.37584" lon="10.6163617"><ele>115.66666666666667</ele><time>2026-03-29T09:31:15.451Z</time></trkpt><trkpt lat="45.3758983" lon="10.61642"><ele>116.0</ele><time>2026-03-29T09:31:16.451Z</time></trkpt><trkpt lat="45.375965" lon="10.61644"><ele>116.33333333333334</ele><time>2026-03-29T09:31:17.45Z</time></trkpt><trkpt lat="45.37605" lon="10.6164233"><ele>116.66666666666667</ele><time>2026-03-29T09:31:18.451Z</time></trkpt><trkpt lat="45.37615" lon="10.6163733"><ele>117.0</ele><time>2026-03-29T09:31:19.451Z</time></trkpt><trkpt lat="45.3762667" lon="10.6163167"><ele>117.5</ele><time>2026-03-29T09:31:20.451Z</time></trkpt><trkpt lat="45.3764" lon="10.6162583"><ele>118.0</ele><time>2026-03-29T09:31:21.451Z</time></trkpt><trkpt lat="45.376525" lon="10.6162117"><ele>118.5</ele><time>2026-03-29T09:31:22.45Z</time></trkpt><trkpt lat="45.3766467" lon="10.6161767"><ele>119.0</ele><time>2026-03-29T09:31:23.451Z</time></trkpt><trkpt lat="45.3767767" lon="10.616155"><ele>119.0</ele><time>2026-03-29T09:31:24.451Z</time></trkpt><trkpt lat="45.3769433" lon="10.6161767"><ele>119.0</ele><time>2026-03-29T09:31:25.451Z</time></trkpt><trkpt lat="45.3771167" lon="10.61622"><ele>119.0</ele><time>2026-03-29T09:31:26.451Z</time></trkpt><trkpt lat="45.3772933" lon="10.6162783"><ele>119.0</ele><time>2026-03-29T09:31:27.451Z</time></trkpt><trkpt lat="45.37746" lon="10.6163517"><ele>119.0</ele><time>2026-03-29T09:31:28.451Z</time></trkpt><trkpt lat="45.3776017" lon="10.6164233"><ele>119.0</ele><time>2026-03-29T09:31:29.451Z</time></trkpt><trkpt lat="45.3777283" lon="10.6164767"><ele>119.0</ele><time>2026-03-29T09:31:30.451Z</time></trkpt><trkpt lat="45.3778467" lon="10.6165183"><ele>119.0</ele><time>2026-03-29T09:31:31.451Z</time></trkpt><trkpt lat="45.377995" lon="10.6165133"><ele>119.0</ele><time>2026-03-29T09:31:32.451Z</time></trkpt><trkpt lat="45.3781217" lon="10.6164367"><ele>119.0</ele><time>2026-03-29T09:31:33.451Z</time></trkpt><trkpt lat="45.3782533" lon="10.6163067"><ele>116.66666666666666</ele><time>2026-03-29T09:31:34.451Z</time></trkpt><trkpt lat="45.37838" lon="10.616095"><ele>114.33333333333334</ele><time>2026-03-29T09:31:35.451Z</time></trkpt><trkpt lat="45.378505" lon="10.6158667"><ele>112.0</ele><time>2026-03-29T09:31:36.451Z</time></trkpt><trkpt lat="45.3786133" lon="10.6156917"><ele>112.0</ele><time>2026-03-29T09:31:37.451Z</time></trkpt><trkpt lat="45.3787117" lon="10.61556"><ele>112.0</ele><time>2026-03-29T09:31:38.451Z</time></trkpt><trkpt lat="45.37881" lon="10.6154617"><ele>112.0</ele><time>2026-03-29T09:31:39.451Z</time></trkpt><trkpt lat="45.3789217" lon="10.6154217"><ele>112.0</ele><time>2026-03-29T09:31:40.451Z</time></trkpt><trkpt lat="45.3790417" lon="10.61545"><ele>111.75</ele><time>2026-03-29T09:31:41.451Z</time></trkpt><trkpt lat="45.37917" lon="10.61554"><ele>111.5</ele><time>2026-03-29T09:31:42.451Z</time></trkpt><trkpt lat="45.379285" lon="10.61567"><ele>111.25</ele><time>2026-03-29T09:31:43.451Z</time></trkpt><trkpt lat="45.3793783" lon="10.61579"><ele>111.0</ele><time>2026-03-29T09:31:44.451Z</time></trkpt><trkpt lat="45.3794667" lon="10.61586"><ele>111.0</ele><time>2026-03-29T09:31:45.451Z</time></trkpt><trkpt lat="45.3795517" lon="10.6158733"><ele>111.0</ele><time>2026-03-29T09:31:46.451Z</time></trkpt><trkpt lat="45.3796383" lon="10.61583"><ele>111.0</ele><time>2026-03-29T09:31:47.451Z</time></trkpt><trkpt lat="45.3797283" lon="10.6157333"><ele>111.0</ele><time>2026-03-29T09:31:48.451Z</time></trkpt><trkpt lat="45.3798283" lon="10.6156033"><ele>111.0</ele><time>2026-03-29T09:31:49.451Z</time></trkpt><trkpt lat="45.37993" lon="10.6155067"><ele>109.5</ele><time>2026-03-29T09:31:50.451Z</time></trkpt><trkpt lat="45.3800217" lon="10.61546"><ele>108.0</ele><time>2026-03-29T09:31:51.451Z</time></trkpt><trkpt lat="45.3801383" lon="10.6154717"><ele>106.5</ele><time>2026-03-29T09:31:52.451Z</time></trkpt><trkpt lat="45.3802767" lon="10.6155383"><ele>105.0</ele><time>2026-03-29T09:31:53.451Z</time></trkpt><trkpt lat="45.380425" lon="10.615605"><ele>104.0</ele><time>2026-03-29T09:31:54.451Z</time></trkpt><trkpt lat="45.3805833" lon="10.61563"><ele>103.0</ele><time>2026-03-29T09:31:55.451Z</time></trkpt><trkpt lat="45.3807533" lon="10.6155967"><ele>102.0</ele><time>2026-03-29T09:31:56.451Z</time></trkpt><trkpt lat="45.380925" lon="10.615495"><ele>102.0</ele><time>2026-03-29T09:31:57.451Z</time></trkpt><trkpt lat="45.3811167" lon="10.6153633"><ele>102.0</ele><time>2026-03-29T09:31:58.451Z</time></trkpt><trkpt lat="45.3812817" lon="10.61524"><ele>102.0</ele><time>2026-03-29T09:31:59.451Z</time></trkpt><trkpt lat="45.3814417" lon="10.6150967"><ele>102.25</ele><time>2026-03-29T09:32:00.45Z</time></trkpt><trkpt lat="45.3815583" lon="10.61496"><ele>102.5</ele><time>2026-03-29T09:32:01.451Z</time></trkpt><trkpt lat="45.3816433" lon="10.6148183"><ele>102.75</ele><time>2026-03-29T09:32:02.451Z</time></trkpt><trkpt lat="45.3817233" lon="10.6147083"><ele>103.0</ele><time>2026-03-29T09:32:03.451Z</time></trkpt><trkpt lat="45.381795" lon="10.61465"><ele>103.0</ele><time>2026-03-29T09:32:04.451Z</time></trkpt><trkpt lat="45.3819083" lon="10.61463"><ele>103.0</ele><time>2026-03-29T09:32:06.451Z</time></trkpt><trkpt lat="45.3819933" lon="10.61472"><ele>103.0</ele><time>2026-03-29T09:32:08.451Z</time></trkpt><trkpt lat="45.3820117" lon="10.6148267"><ele>103.0</ele><time>2026-03-29T09:32:09.451Z</time></trkpt><trkpt lat="45.3820083" lon="10.61496"><ele>103.0</ele><time>2026-03-29T09:32:10.451Z</time></trkpt><trkpt lat="45.3820017" lon="10.6151317"><ele>103.33333333333334</ele><time>2026-03-29T09:32:11.45Z</time></trkpt><trkpt lat="45.381985" lon="10.6153317"><ele>103.66666666666666</ele><time>2026-03-29T09:32:12.45Z</time></trkpt><trkpt lat="45.3819717" lon="10.6155467"><ele>104.0</ele><time>2026-03-29T09:32:13.451Z</time></trkpt><trkpt lat="45.3819583" lon="10.6157867"><ele>104.0</ele><time>2026-03-29T09:32:14.451Z</time></trkpt><trkpt lat="45.3819533" lon="10.6160283"><ele>104.0</ele><time>2026-03-29T09:32:15.451Z</time></trkpt><trkpt lat="45.3819433" lon="10.6162867"><ele>104.0</ele><time>2026-03-29T09:32:16.451Z</time></trkpt><trkpt lat="45.3819317" lon="10.6165533"><ele>103.66666666666666</ele><time>2026-03-29T09:32:17.451Z</time></trkpt><trkpt lat="45.3819233" lon="10.6168133"><ele>103.33333333333334</ele><time>2026-03-29T09:32:18.451Z</time></trkpt><trkpt lat="45.3819167" lon="10.6170383"><ele>103.0</ele><time>2026-03-29T09:32:19.451Z</time></trkpt><trkpt lat="45.3819133" lon="10.6172467"><ele>102.75</ele><time>2026-03-29T09:32:20.451Z</time></trkpt><trkpt lat="45.381915" lon="10.6174433"><ele>102.5</ele><time>2026-03-29T09:32:21.451Z</time></trkpt><trkpt lat="45.38192" lon="10.6176267"><ele>102.25</ele><time>2026-03-29T09:32:22.451Z</time></trkpt><trkpt lat="45.3819417" lon="10.6178117"><ele>102.0</ele><time>2026-03-29T09:32:23.451Z</time></trkpt><trkpt lat="45.3819767" lon="10.61799"><ele>102.0</ele><time>2026-03-29T09:32:24.45Z</time></trkpt><trkpt lat="45.3820033" lon="10.6181717"><ele>102.0</ele><time>2026-03-29T09:32:25.451Z</time></trkpt><trkpt lat="45.3820183" lon="10.6183517"><ele>102.0</ele><time>2026-03-29T09:32:26.451Z</time></trkpt><trkpt lat="45.3820383" lon="10.6185267"><ele>102.0</ele><time>2026-03-29T09:32:27.451Z</time></trkpt><trkpt lat="45.3820617" lon="10.61871"><ele>102.39999999999999</ele><time>2026-03-29T09:32:28.45Z</time></trkpt><trkpt lat="45.3820967" lon="10.6188783"><ele>102.8</ele><time>2026-03-29T09:32:29.451Z</time></trkpt><trkpt lat="45.38212" lon="10.6190333"><ele>103.2</ele><time>2026-03-29T09:32:30.451Z</time></trkpt><trkpt lat="45.3821483" lon="10.619185"><ele>103.6</ele><time>2026-03-29T09:32:31.451Z</time></trkpt><trkpt lat="45.3821467" lon="10.6193317"><ele>104.0</ele><time>2026-03-29T09:32:32.451Z</time></trkpt><trkpt lat="45.3821233" lon="10.619495"><ele>104.0</ele><time>2026-03-29T09:32:33.451Z</time></trkpt><trkpt lat="45.382085" lon="10.619645"><ele>104.0</ele><time>2026-03-29T09:32:34.451Z</time></trkpt><trkpt lat="45.3820367" lon="10.619795"><ele>104.0</ele><time>2026-03-29T09:32:35.45Z</time></trkpt><trkpt lat="45.38199" lon="10.6199517"><ele>104.0</ele><time>2026-03-29T09:32:36.451Z</time></trkpt><trkpt lat="45.3819517" lon="10.6200983"><ele>104.0</ele><time>2026-03-29T09:32:37.45Z</time></trkpt><trkpt lat="45.3819083" lon="10.6202233"><ele>104.0</ele><time>2026-03-29T09:32:38.451Z</time></trkpt><trkpt lat="45.3818617" lon="10.6203467"><ele>104.0</ele><time>2026-03-29T09:32:39.451Z</time></trkpt><trkpt lat="45.3818217" lon="10.6204667"><ele>104.0</ele><time>2026-03-29T09:32:40.451Z</time></trkpt><trkpt lat="45.38179" lon="10.6205967"><ele>104.0</ele><time>2026-03-29T09:32:41.451Z</time></trkpt><trkpt lat="45.38177" lon="10.6207467"><ele>103.25</ele><time>2026-03-29T09:32:42.451Z</time></trkpt><trkpt lat="45.381755" lon="10.6209167"><ele>102.5</ele><time>2026-03-29T09:32:43.451Z</time></trkpt><trkpt lat="45.3817533" lon="10.6211183"><ele>101.75</ele><time>2026-03-29T09:32:44.451Z</time></trkpt><trkpt lat="45.3817517" lon="10.621325"><ele>101.0</ele><time>2026-03-29T09:32:45.45Z</time></trkpt><trkpt lat="45.381755" lon="10.6215067"><ele>100.75</ele><time>2026-03-29T09:32:46.451Z</time></trkpt><trkpt lat="45.381755" lon="10.6216917"><ele>100.5</ele><time>2026-03-29T09:32:47.45Z</time></trkpt><trkpt lat="45.3817467" lon="10.6218717"><ele>100.25</ele><time>2026-03-29T09:32:48.451Z</time></trkpt><trkpt lat="45.3817383" lon="10.622065"><ele>100.0</ele><time>2026-03-29T09:32:49.451Z</time></trkpt><trkpt lat="45.3817317" lon="10.62226"><ele>100.0</ele><time>2026-03-29T09:32:50.451Z</time></trkpt><trkpt lat="45.3817183" lon="10.6224517"><ele>100.0</ele><time>2026-03-29T09:32:51.451Z</time></trkpt><trkpt lat="45.3817083" lon="10.6226633"><ele>100.0</ele><time>2026-03-29T09:32:52.451Z</time></trkpt><trkpt lat="45.3816867" lon="10.6228683"><ele>100.0</ele><time>2026-03-29T09:32:53.451Z</time></trkpt><trkpt lat="45.38168" lon="10.62305"><ele>100.0</ele><time>2026-03-29T09:32:54.45Z</time></trkpt><trkpt lat="45.3816833" lon="10.6232117"><ele>100.0</ele><time>2026-03-29T09:32:55.451Z</time></trkpt><trkpt lat="45.381695" lon="10.6233983"><ele>100.0</ele><time>2026-03-29T09:32:56.451Z</time></trkpt><trkpt lat="45.3816967" lon="10.6235983"><ele>100.0</ele><time>2026-03-29T09:32:57.451Z</time></trkpt><trkpt lat="45.3816817" lon="10.6238"><ele>100.33333333333334</ele><time>2026-03-29T09:32:58.451Z</time></trkpt><trkpt lat="45.3816683" lon="10.6240133"><ele>100.66666666666666</ele><time>2026-03-29T09:32:59.45Z</time></trkpt><trkpt lat="45.381645" lon="10.6242517"><ele>101.0</ele><time>2026-03-29T09:33:00.451Z</time></trkpt><trkpt lat="45.3816267" lon="10.6245117"><ele>100.33333333333333</ele><time>2026-03-29T09:33:01.451Z</time></trkpt><trkpt lat="45.3816183" lon="10.6247517"><ele>99.66666666666666</ele><time>2026-03-29T09:33:02.451Z</time></trkpt><trkpt lat="45.3816033" lon="10.6249867"><ele>99.0</ele><time>2026-03-29T09:33:03.451Z</time></trkpt><trkpt lat="45.3815867" lon="10.6252233"><ele>99.33333333333334</ele><time>2026-03-29T09:33:04.451Z</time></trkpt><trkpt lat="45.3815517" lon="10.6254717"><ele>99.66666666666667</ele><time>2026-03-29T09:33:05.451Z</time></trkpt><trkpt lat="45.381525" lon="10.6257117"><ele>100.0</ele><time>2026-03-29T09:33:06.451Z</time></trkpt><trkpt lat="45.38149" lon="10.6259467"><ele>100.33333333333334</ele><time>2026-03-29T09:33:07.451Z</time></trkpt><trkpt lat="45.3814567" lon="10.6261867"><ele>100.66666666666666</ele><time>2026-03-29T09:33:08.451Z</time></trkpt><trkpt lat="45.381425" lon="10.626425"><ele>101.0</ele><time>2026-03-29T09:33:09.451Z</time></trkpt><trkpt lat="45.3813783" lon="10.62667"><ele>103.0</ele><time>2026-03-29T09:33:10.451Z</time></trkpt><trkpt lat="45.3813433" lon="10.6269133"><ele>105.0</ele><time>2026-03-29T09:33:11.451Z</time></trkpt><trkpt lat="45.3813133" lon="10.62715"><ele>107.0</ele><time>2026-03-29T09:33:12.451Z</time></trkpt><trkpt lat="45.38129" lon="10.6273633"><ele>106.99999999999999</ele><time>2026-03-29T09:33:13.451Z</time></trkpt><trkpt lat="45.38127" lon="10.6275433"><ele>107.0</ele><time>2026-03-29T09:33:14.451Z</time></trkpt><trkpt lat="45.3812567" lon="10.62768"><ele>107.0</ele><time>2026-03-29T09:33:15.451Z</time></trkpt><trkpt lat="45.3812383" lon="10.6277767"><ele>107.0</ele><time>2026-03-29T09:33:16.451Z</time></trkpt><trkpt lat="45.3812" lon="10.6278517"><ele>106.99999999999999</ele><time>2026-03-29T09:33:17.451Z</time></trkpt><trkpt lat="45.3811433" lon="10.6279033"><ele>107.0</ele><time>2026-03-29T09:33:18.451Z</time></trkpt><trkpt lat="45.3810517" lon="10.6279333"><ele>104.66666666666666</ele><time>2026-03-29T09:33:19.45Z</time></trkpt><trkpt lat="45.3809317" lon="10.6279733"><ele>102.33333333333334</ele><time>2026-03-29T09:33:20.451Z</time></trkpt><trkpt lat="45.3807767" lon="10.6280217"><ele>100.0</ele><time>2026-03-29T09:33:21.451Z</time></trkpt><trkpt lat="45.3806133" lon="10.62809"><ele>102.66666666666667</ele><time>2026-03-29T09:33:22.451Z</time></trkpt><trkpt lat="45.3804583" lon="10.6281767"><ele>105.33333333333334</ele><time>2026-03-29T09:33:23.451Z</time></trkpt><trkpt lat="45.3802983" lon="10.6282567"><ele>108.0</ele><time>2026-03-29T09:33:24.451Z</time></trkpt><trkpt lat="45.380155" lon="10.6283767"><ele>108.0</ele><time>2026-03-29T09:33:25.451Z</time></trkpt><trkpt lat="45.38004" lon="10.62848"><ele>108.00000000000001</ele><time>2026-03-29T09:33:26.451Z</time></trkpt><trkpt lat="45.37994" lon="10.6285333"><ele>108.00000000000001</ele><time>2026-03-29T09:33:27.451Z</time></trkpt><trkpt lat="45.3798533" lon="10.62854"><ele>108.0</ele><time>2026-03-29T09:33:28.451Z</time></trkpt><trkpt lat="45.37978" lon="10.6285233"><ele>108.0</ele><time>2026-03-29T09:33:29.45Z</time></trkpt><trkpt lat="45.3797183" lon="10.6284983"><ele>108.0</ele><time>2026-03-29T09:33:30.451Z</time></trkpt><trkpt lat="45.3796483" lon="10.6284967"><ele>108.00000000000001</ele><time>2026-03-29T09:33:32.451Z</time></trkpt><trkpt lat="45.3797467" lon="10.6285483"><ele>108.00000000000001</ele><time>2026-03-29T09:33:40.449Z</time></trkpt><trkpt lat="45.3798317" lon="10.6285567"><ele>108.0</ele><time>2026-03-29T09:33:41.449Z</time></trkpt><trkpt lat="45.379935" lon="10.628585"><ele>108.0</ele><time>2026-03-29T09:33:42.45Z</time></trkpt><trkpt lat="45.38005" lon="10.628645"><ele>105.75</ele><time>2026-03-29T09:33:43.449Z</time></trkpt><trkpt lat="45.3801767" lon="10.6287383"><ele>103.5</ele><time>2026-03-29T09:33:44.449Z</time></trkpt><trkpt lat="45.3803033" lon="10.628835"><ele>101.25</ele><time>2026-03-29T09:33:45.45Z</time></trkpt><trkpt lat="45.380415" lon="10.6289383"><ele>99.0</ele><time>2026-03-29T09:33:46.45Z</time></trkpt><trkpt lat="45.3805383" lon="10.6290383"><ele>98.66666666666666</ele><time>2026-03-29T09:33:47.449Z</time></trkpt><trkpt lat="45.38067" lon="10.6291417"><ele>98.33333333333333</ele><time>2026-03-29T09:33:48.45Z</time></trkpt><trkpt lat="45.3808067" lon="10.6292533"><ele>98.0</ele><time>2026-03-29T09:33:49.45Z</time></trkpt><trkpt lat="45.3809567" lon="10.629385"><ele>97.66666666666666</ele><time>2026-03-29T09:33:50.45Z</time></trkpt><trkpt lat="45.3810883" lon="10.62951"><ele>97.33333333333334</ele><time>2026-03-29T09:33:51.45Z</time></trkpt><trkpt lat="45.3812333" lon="10.6296417"><ele>97.0</ele><time>2026-03-29T09:33:52.45Z</time></trkpt><trkpt lat="45.381385" lon="10.6297767"><ele>98.33333333333334</ele><time>2026-03-29T09:33:53.45Z</time></trkpt><trkpt lat="45.38153" lon="10.6299083"><ele>99.66666666666666</ele><time>2026-03-29T09:33:54.449Z</time></trkpt><trkpt lat="45.3816617" lon="10.6300433"><ele>101.0</ele><time>2026-03-29T09:33:55.45Z</time></trkpt><trkpt lat="45.3818" lon="10.6301767"><ele>101.0</ele><time>2026-03-29T09:33:56.45Z</time></trkpt><trkpt lat="45.3819333" lon="10.6302983"><ele>101.0</ele><time>2026-03-29T09:33:57.45Z</time></trkpt><trkpt lat="45.3820467" lon="10.630415"><ele>101.0</ele><time>2026-03-29T09:33:58.45Z</time></trkpt><trkpt lat="45.3821633" lon="10.6305067"><ele>101.0</ele><time>2026-03-29T09:33:59.45Z</time></trkpt><trkpt lat="45.3822683" lon="10.63059"><ele>102.0</ele><time>2026-03-29T09:34:00.45Z</time></trkpt><trkpt lat="45.3823583" lon="10.6306767"><ele>103.0</ele><time>2026-03-29T09:34:01.449Z</time></trkpt><trkpt lat="45.3824333" lon="10.6307583"><ele>104.0</ele><time>2026-03-29T09:34:02.45Z</time></trkpt><trkpt lat="45.3825033" lon="10.63084"><ele>105.0</ele><time>2026-03-29T09:34:03.45Z</time></trkpt><trkpt lat="45.38254" lon="10.6309267"><ele>106.0</ele><time>2026-03-29T09:34:04.45Z</time></trkpt><trkpt lat="45.3825517" lon="10.6310967"><ele>105.5</ele><time>2026-03-29T09:34:06.45Z</time></trkpt><trkpt lat="45.382515" lon="10.6312"><ele>105.0</ele><time>2026-03-29T09:34:07.45Z</time></trkpt><trkpt lat="45.38247" lon="10.6313267"><ele>104.5</ele><time>2026-03-29T09:34:08.45Z</time></trkpt><trkpt lat="45.382415" lon="10.631485"><ele>104.0</ele><time>2026-03-29T09:34:09.45Z</time></trkpt><trkpt lat="45.3823483" lon="10.631675"><ele>104.0</ele><time>2026-03-29T09:34:10.45Z</time></trkpt><trkpt lat="45.3822617" lon="10.63188"><ele>104.0</ele><time>2026-03-29T09:34:11.45Z</time></trkpt><trkpt lat="45.3821883" lon="10.6320817"><ele>104.0</ele><time>2026-03-29T09:34:12.45Z</time></trkpt><trkpt lat="45.3821117" lon="10.6322767"><ele>102.75</ele><time>2026-03-29T09:34:13.45Z</time></trkpt><trkpt lat="45.3820417" lon="10.6324717"><ele>101.5</ele><time>2026-03-29T09:34:14.45Z</time></trkpt><trkpt lat="45.381975" lon="10.6326567"><ele>100.25</ele><time>2026-03-29T09:34:15.45Z</time></trkpt><trkpt lat="45.38191" lon="10.63283"><ele>99.0</ele><time>2026-03-29T09:34:16.45Z</time></trkpt><trkpt lat="45.381845" lon="10.6330167"><ele>99.0</ele><time>2026-03-29T09:34:17.449Z</time></trkpt><trkpt lat="45.3817783" lon="10.6332133"><ele>99.0</ele><time>2026-03-29T09:34:18.45Z</time></trkpt><trkpt lat="45.381725" lon="10.6333967"><ele>99.0</ele><time>2026-03-29T09:34:19.45Z</time></trkpt><trkpt lat="45.3816683" lon="10.63357"><ele>99.0</ele><time>2026-03-29T09:34:20.45Z</time></trkpt><trkpt lat="45.3816067" lon="10.6337517"><ele>98.5</ele><time>2026-03-29T09:34:21.45Z</time></trkpt><trkpt lat="45.3815367" lon="10.6339367"><ele>98.0</ele><time>2026-03-29T09:34:22.45Z</time></trkpt><trkpt lat="45.381475" lon="10.6341267"><ele>97.5</ele><time>2026-03-29T09:34:23.45Z</time></trkpt><trkpt lat="45.3814067" lon="10.6342967"><ele>97.0</ele><time>2026-03-29T09:34:24.45Z</time></trkpt><trkpt lat="45.3813317" lon="10.634445"><ele>97.75</ele><time>2026-03-29T09:34:25.45Z</time></trkpt><trkpt lat="45.3812433" lon="10.6345817"><ele>98.5</ele><time>2026-03-29T09:34:26.45Z</time></trkpt><trkpt lat="45.38115" lon="10.6347183"><ele>99.25</ele><time>2026-03-29T09:34:27.45Z</time></trkpt><trkpt lat="45.38105" lon="10.6348567"><ele>100.0</ele><time>2026-03-29T09:34:28.45Z</time></trkpt><trkpt lat="45.380965" lon="10.6349833"><ele>100.0</ele><time>2026-03-29T09:34:29.45Z</time></trkpt><trkpt lat="45.3808733" lon="10.63512"><ele>100.0</ele><time>2026-03-29T09:34:30.45Z</time></trkpt><trkpt lat="45.38079" lon="10.635255"><ele>100.0</ele><time>2026-03-29T09:34:31.45Z</time></trkpt><trkpt lat="45.3807283" lon="10.6353767"><ele>100.0</ele><time>2026-03-29T09:34:32.45Z</time></trkpt><trkpt lat="45.3806533" lon="10.635525"><ele>100.75</ele><time>2026-03-29T09:34:33.449Z</time></trkpt><trkpt lat="45.38059" lon="10.6356783"><ele>101.5</ele><time>2026-03-29T09:34:34.45Z</time></trkpt><trkpt lat="45.3805283" lon="10.6358517"><ele>102.25</ele><time>2026-03-29T09:34:35.45Z</time></trkpt><trkpt lat="45.38047" lon="10.63603"><ele>103.0</ele><time>2026-03-29T09:34:36.45Z</time></trkpt><trkpt lat="45.38045" lon="10.636195"><ele>103.0</ele><time>2026-03-29T09:34:37.45Z</time></trkpt><trkpt lat="45.3804483" lon="10.636325"><ele>103.0</ele><time>2026-03-29T09:34:38.45Z</time></trkpt><trkpt lat="45.3804633" lon="10.63648"><ele>103.0</ele><time>2026-03-29T09:34:39.45Z</time></trkpt><trkpt lat="45.38048" lon="10.6366433"><ele>103.0</ele><time>2026-03-29T09:34:40.45Z</time></trkpt><trkpt lat="45.3805183" lon="10.6368217"><ele>103.0</ele><time>2026-03-29T09:34:41.45Z</time></trkpt><trkpt lat="45.3805667" lon="10.6369867"><ele>103.0</ele><time>2026-03-29T09:34:42.45Z</time></trkpt><trkpt lat="45.38062" lon="10.637135"><ele>103.0</ele><time>2026-03-29T09:34:43.45Z</time></trkpt><trkpt lat="45.3806733" lon="10.6372767"><ele>103.0</ele><time>2026-03-29T09:34:44.45Z</time></trkpt><trkpt lat="45.38069" lon="10.637385"><ele>103.0</ele><time>2026-03-29T09:34:45.449Z</time></trkpt><trkpt lat="45.3806933" lon="10.6375267"><ele>103.0</ele><time>2026-03-29T09:34:47.449Z</time></trkpt><trkpt lat="45.3807433" lon="10.6376083"><ele>103.0</ele><time>2026-03-29T09:34:49.45Z</time></trkpt><trkpt lat="45.3808717" lon="10.6377117"><ele>103.0</ele><time>2026-03-29T09:34:51.45Z</time></trkpt><trkpt lat="45.3809633" lon="10.6377883"><ele>103.0</ele><time>2026-03-29T09:34:52.45Z</time></trkpt><trkpt lat="45.381085" lon="10.6378983"><ele>103.0</ele><time>2026-03-29T09:34:53.45Z</time></trkpt><trkpt lat="45.3812133" lon="10.638045"><ele>103.33333333333334</ele><time>2026-03-29T09:34:54.45Z</time></trkpt><trkpt lat="45.3813517" lon="10.6382317"><ele>103.66666666666666</ele><time>2026-03-29T09:34:55.45Z</time></trkpt><trkpt lat="45.3814917" lon="10.6384233"><ele>104.0</ele><time>2026-03-29T09:34:56.45Z</time></trkpt><trkpt lat="45.381635" lon="10.6386433"><ele>103.0</ele><time>2026-03-29T09:34:57.45Z</time></trkpt><trkpt lat="45.3817983" lon="10.63889"><ele>102.0</ele><time>2026-03-29T09:34:58.449Z</time></trkpt><trkpt lat="45.3819517" lon="10.6391533"><ele>102.0</ele><time>2026-03-29T09:34:59.45Z</time></trkpt><trkpt lat="45.3821233" lon="10.6394267"><ele>102.0</ele><time>2026-03-29T09:35:00.45Z</time></trkpt><trkpt lat="45.3822967" lon="10.6396783"><ele>103.0</ele><time>2026-03-29T09:35:01.45Z</time></trkpt><trkpt lat="45.382465" lon="10.6399033"><ele>104.0</ele><time>2026-03-29T09:35:02.45Z</time></trkpt><trkpt lat="45.3826333" lon="10.640095"><ele>105.0</ele><time>2026-03-29T09:35:03.45Z</time></trkpt><trkpt lat="45.3828" lon="10.6402367"><ele>105.66666666666666</ele><time>2026-03-29T09:35:04.45Z</time></trkpt><trkpt lat="45.382975" lon="10.6403583"><ele>106.33333333333333</ele><time>2026-03-29T09:35:05.45Z</time></trkpt><trkpt lat="45.3831383" lon="10.64049"><ele>107.0</ele><time>2026-03-29T09:35:06.45Z</time></trkpt><trkpt lat="45.38333" lon="10.6406217"><ele>107.0</ele><time>2026-03-29T09:35:07.45Z</time></trkpt><trkpt lat="45.3835483" lon="10.6407733"><ele>107.0</ele><time>2026-03-29T09:35:08.45Z</time></trkpt><trkpt lat="45.3837767" lon="10.640945"><ele>106.0</ele><time>2026-03-29T09:35:09.45Z</time></trkpt><trkpt lat="45.384015" lon="10.6411"><ele>105.0</ele><time>2026-03-29T09:35:10.45Z</time></trkpt><trkpt lat="45.3842667" lon="10.64124"><ele>105.0</ele><time>2026-03-29T09:35:11.45Z</time></trkpt><trkpt lat="45.3844933" lon="10.641355"><ele>105.0</ele><time>2026-03-29T09:35:12.45Z</time></trkpt><trkpt lat="45.3847083" lon="10.6414617"><ele>106.0</ele><time>2026-03-29T09:35:13.45Z</time></trkpt><trkpt lat="45.38491" lon="10.6415533"><ele>107.0</ele><time>2026-03-29T09:35:14.45Z</time></trkpt><trkpt lat="45.3851267" lon="10.6416417"><ele>108.0</ele><time>2026-03-29T09:35:15.45Z</time></trkpt><trkpt lat="45.3853433" lon="10.64174"><ele>107.5</ele><time>2026-03-29T09:35:16.45Z</time></trkpt><trkpt lat="45.3855617" lon="10.6418633"><ele>107.0</ele><time>2026-03-29T09:35:17.45Z</time></trkpt><trkpt lat="45.385795" lon="10.641985"><ele>106.0</ele><time>2026-03-29T09:35:18.45Z</time></trkpt><trkpt lat="45.386035" lon="10.6421067"><ele>105.0</ele><time>2026-03-29T09:35:19.45Z</time></trkpt><trkpt lat="45.3862767" lon="10.6422433"><ele>105.5</ele><time>2026-03-29T09:35:20.45Z</time></trkpt><trkpt lat="45.3865167" lon="10.6423767"><ele>106.0</ele><time>2026-03-29T09:35:21.45Z</time></trkpt><trkpt lat="45.3867633" lon="10.6424983"><ele>106.0</ele><time>2026-03-29T09:35:22.45Z</time></trkpt><trkpt lat="45.3869933" lon="10.642625"><ele>106.0</ele><time>2026-03-29T09:35:23.45Z</time></trkpt><trkpt lat="45.3872067" lon="10.642755"><ele>104.5</ele><time>2026-03-29T09:35:24.45Z</time></trkpt><trkpt lat="45.38742" lon="10.6428617"><ele>103.0</ele><time>2026-03-29T09:35:25.45Z</time></trkpt><trkpt lat="45.3876333" lon="10.642975"><ele>103.0</ele><time>2026-03-29T09:35:26.45Z</time></trkpt><trkpt lat="45.3878517" lon="10.64309"><ele>103.0</ele><time>2026-03-29T09:35:27.45Z</time></trkpt><trkpt lat="45.3880717" lon="10.6432117"><ele>104.5</ele><time>2026-03-29T09:35:28.45Z</time></trkpt><trkpt lat="45.38829" lon="10.643315"><ele>106.0</ele><time>2026-03-29T09:35:29.45Z</time></trkpt><trkpt lat="45.3885183" lon="10.6434083"><ele>106.0</ele><time>2026-03-29T09:35:30.45Z</time></trkpt><trkpt lat="45.388735" lon="10.643495"><ele>106.0</ele><time>2026-03-29T09:35:31.449Z</time></trkpt><trkpt lat="45.3889433" lon="10.6435717"><ele>106.0</ele><time>2026-03-29T09:35:32.45Z</time></trkpt><trkpt lat="45.3891467" lon="10.6436567"><ele>105.33333333333334</ele><time>2026-03-29T09:35:33.449Z</time></trkpt><trkpt lat="45.3893333" lon="10.6437267"><ele>104.66666666666666</ele><time>2026-03-29T09:35:34.45Z</time></trkpt><trkpt lat="45.3895183" lon="10.6438033"><ele>104.0</ele><time>2026-03-29T09:35:35.45Z</time></trkpt><trkpt lat="45.3896867" lon="10.64385"><ele>104.0</ele><time>2026-03-29T09:35:36.45Z</time></trkpt><trkpt lat="45.389835" lon="10.6438917"><ele>104.0</ele><time>2026-03-29T09:35:37.449Z</time></trkpt><trkpt lat="45.38997" lon="10.643925"><ele>104.0</ele><time>2026-03-29T09:35:38.45Z</time></trkpt><trkpt lat="45.3900867" lon="10.64393"><ele>104.0</ele><time>2026-03-29T09:35:39.45Z</time></trkpt><trkpt lat="45.39018" lon="10.6439033"><ele>104.0</ele><time>2026-03-29T09:35:40.45Z</time></trkpt><trkpt lat="45.3902733" lon="10.6438"><ele>104.0</ele><time>2026-03-29T09:35:41.449Z</time></trkpt><trkpt lat="45.390355" lon="10.6436267"><ele>104.0</ele><time>2026-03-29T09:35:42.45Z</time></trkpt><trkpt lat="45.3904333" lon="10.6434017"><ele>104.0</ele><time>2026-03-29T09:35:43.45Z</time></trkpt><trkpt lat="45.3905" lon="10.6431983"><ele>107.0</ele><time>2026-03-29T09:35:44.45Z</time></trkpt><trkpt lat="45.3905717" lon="10.643015"><ele>110.0</ele><time>2026-03-29T09:35:45.45Z</time></trkpt><trkpt lat="45.3906417" lon="10.642825"><ele>113.0</ele><time>2026-03-29T09:35:46.449Z</time></trkpt><trkpt lat="45.39071" lon="10.64266"><ele>116.0</ele><time>2026-03-29T09:35:47.449Z</time></trkpt><trkpt lat="45.3907683" lon="10.6425233"><ele>116.0</ele><time>2026-03-29T09:35:48.45Z</time></trkpt><trkpt lat="45.3908233" lon="10.64239"><ele>116.0</ele><time>2026-03-29T09:35:49.45Z</time></trkpt><trkpt lat="45.3909017" lon="10.6423"><ele>116.0</ele><time>2026-03-29T09:35:50.45Z</time></trkpt><trkpt lat="45.3910067" lon="10.6422233"><ele>116.0</ele><time>2026-03-29T09:35:51.45Z</time></trkpt><trkpt lat="45.3911333" lon="10.6421917"><ele>116.0</ele><time>2026-03-29T09:35:52.45Z</time></trkpt><trkpt lat="45.3912817" lon="10.64219"><ele>116.0</ele><time>2026-03-29T09:35:53.45Z</time></trkpt><trkpt lat="45.3914267" lon="10.64219"><ele>116.0</ele><time>2026-03-29T09:35:54.45Z</time></trkpt><trkpt lat="45.3915733" lon="10.6421867"><ele>116.0</ele><time>2026-03-29T09:35:55.45Z</time></trkpt><trkpt lat="45.3917333" lon="10.6421467"><ele>115.66666666666666</ele><time>2026-03-29T09:35:56.45Z</time></trkpt><trkpt lat="45.39192" lon="10.642065"><ele>115.33333333333334</ele><time>2026-03-29T09:35:57.45Z</time></trkpt><trkpt lat="45.3921083" lon="10.6419417"><ele>115.0</ele><time>2026-03-29T09:35:58.45Z</time></trkpt><trkpt lat="45.3922867" lon="10.6418317"><ele>111.66666666666667</ele><time>2026-03-29T09:35:59.45Z</time></trkpt><trkpt lat="45.3924633" lon="10.6417183"><ele>108.33333333333334</ele><time>2026-03-29T09:36:00.45Z</time></trkpt><trkpt lat="45.3926233" lon="10.6416117"><ele>105.0</ele><time>2026-03-29T09:36:01.45Z</time></trkpt><trkpt lat="45.3927717" lon="10.641525"><ele>105.0</ele><time>2026-03-29T09:36:02.45Z</time></trkpt><trkpt lat="45.3929167" lon="10.64147"><ele>105.0</ele><time>2026-03-29T09:36:03.449Z</time></trkpt><trkpt lat="45.3930583" lon="10.6414617"><ele>105.0</ele><time>2026-03-29T09:36:04.45Z</time></trkpt><trkpt lat="45.393225" lon="10.6415233"><ele>104.33333333333334</ele><time>2026-03-29T09:36:05.45Z</time></trkpt><trkpt lat="45.39342" lon="10.641615"><ele>103.66666666666667</ele><time>2026-03-29T09:36:06.45Z</time></trkpt><trkpt lat="45.39361" lon="10.641725"><ele>103.0</ele><time>2026-03-29T09:36:07.45Z</time></trkpt><trkpt lat="45.3938" lon="10.6418433"><ele>104.66666666666667</ele><time>2026-03-29T09:36:08.45Z</time></trkpt><trkpt lat="45.393995" lon="10.6419567"><ele>106.33333333333334</ele><time>2026-03-29T09:36:09.449Z</time></trkpt><trkpt lat="45.3941883" lon="10.642065"><ele>108.0</ele><time>2026-03-29T09:36:10.45Z</time></trkpt><trkpt lat="45.3943683" lon="10.6421617"><ele>108.0</ele><time>2026-03-29T09:36:11.45Z</time></trkpt><trkpt lat="45.3945517" lon="10.6422683"><ele>108.0</ele><time>2026-03-29T09:36:12.45Z</time></trkpt><trkpt lat="45.39474" lon="10.6423733"><ele>108.0</ele><time>2026-03-29T09:36:13.45Z</time></trkpt><trkpt lat="45.3949467" lon="10.642465"><ele>104.33333333333334</ele><time>2026-03-29T09:36:14.45Z</time></trkpt><trkpt lat="45.3951383" lon="10.6425517"><ele>100.66666666666667</ele><time>2026-03-29T09:36:15.45Z</time></trkpt><trkpt lat="45.395335" lon="10.6426417"><ele>97.0</ele><time>2026-03-29T09:36:16.45Z</time></trkpt><trkpt lat="45.39553" lon="10.642735"><ele>97.66666666666667</ele><time>2026-03-29T09:36:17.45Z</time></trkpt><trkpt lat="45.395715" lon="10.6428217"><ele>98.33333333333334</ele><time>2026-03-29T09:36:18.45Z</time></trkpt><trkpt lat="45.39588" lon="10.6429067"><ele>99.0</ele><time>2026-03-29T09:36:19.45Z</time></trkpt><trkpt lat="45.39605" lon="10.6429917"><ele>99.0</ele><time>2026-03-29T09:36:20.45Z</time></trkpt><trkpt lat="45.396205" lon="10.643075"><ele>99.0</ele><time>2026-03-29T09:36:21.45Z</time></trkpt><trkpt lat="45.3963567" lon="10.6431533"><ele>99.0</ele><time>2026-03-29T09:36:22.45Z</time></trkpt><trkpt lat="45.3965083" lon="10.643225"><ele>97.5</ele><time>2026-03-29T09:36:23.45Z</time></trkpt><trkpt lat="45.3966433" lon="10.643305"><ele>96.0</ele><time>2026-03-29T09:36:24.45Z</time></trkpt><trkpt lat="45.3967883" lon="10.6433683"><ele>94.5</ele><time>2026-03-29T09:36:25.45Z</time></trkpt><trkpt lat="45.3969267" lon="10.64343"><ele>93.0</ele><time>2026-03-29T09:36:26.45Z</time></trkpt><trkpt lat="45.39706" lon="10.6434967"><ele>92.5</ele><time>2026-03-29T09:36:27.45Z</time></trkpt><trkpt lat="45.397195" lon="10.6435417"><ele>92.0</ele><time>2026-03-29T09:36:28.45Z</time></trkpt><trkpt lat="45.397335" lon="10.6435683"><ele>91.5</ele><time>2026-03-29T09:36:29.45Z</time></trkpt><trkpt lat="45.3974783" lon="10.643555"><ele>91.0</ele><time>2026-03-29T09:36:30.449Z</time></trkpt><trkpt lat="45.39761" lon="10.64349"><ele>91.0</ele><time>2026-03-29T09:36:31.45Z</time></trkpt><trkpt lat="45.3977233" lon="10.64339"><ele>91.0</ele><time>2026-03-29T09:36:32.45Z</time></trkpt><trkpt lat="45.3978117" lon="10.6432867"><ele>91.0</ele><time>2026-03-29T09:36:33.45Z</time></trkpt><trkpt lat="45.3978533" lon="10.6432067"><ele>91.0</ele><time>2026-03-29T09:36:34.45Z</time></trkpt><trkpt lat="45.3979133" lon="10.643105"><ele>91.0</ele><time>2026-03-29T09:36:36.45Z</time></trkpt><trkpt lat="45.3979767" lon="10.6429633"><ele>90.25</ele><time>2026-03-29T09:36:38.449Z</time></trkpt><trkpt lat="45.3980433" lon="10.6428483"><ele>89.5</ele><time>2026-03-29T09:36:39.45Z</time></trkpt><trkpt lat="45.3981417" lon="10.6427083"><ele>88.75</ele><time>2026-03-29T09:36:40.45Z</time></trkpt><trkpt lat="45.3982783" lon="10.6425517"><ele>88.0</ele><time>2026-03-29T09:36:41.45Z</time></trkpt><trkpt lat="45.398415" lon="10.64238"><ele>88.0</ele><time>2026-03-29T09:36:42.45Z</time></trkpt><trkpt lat="45.3985333" lon="10.642205"><ele>88.0</ele><time>2026-03-29T09:36:43.45Z</time></trkpt><trkpt lat="45.3986217" lon="10.6419983"><ele>88.0</ele><time>2026-03-29T09:36:44.45Z</time></trkpt><trkpt lat="45.39869" lon="10.6417783"><ele>88.33333333333333</ele><time>2026-03-29T09:36:45.45Z</time></trkpt><trkpt lat="45.3987217" lon="10.6415517"><ele>88.66666666666667</ele><time>2026-03-29T09:36:46.45Z</time></trkpt><trkpt lat="45.3987433" lon="10.6413317"><ele>89.0</ele><time>2026-03-29T09:36:47.449Z</time></trkpt><trkpt lat="45.3987583" lon="10.6411067"><ele>89.66666666666667</ele><time>2026-03-29T09:36:48.449Z</time></trkpt><trkpt lat="45.3987567" lon="10.640855"><ele>90.33333333333333</ele><time>2026-03-29T09:36:49.45Z</time></trkpt><trkpt lat="45.3987483" lon="10.640595"><ele>91.0</ele><time>2026-03-29T09:36:50.449Z</time></trkpt><trkpt lat="45.3987217" lon="10.6403283"><ele>91.33333333333333</ele><time>2026-03-29T09:36:51.45Z</time></trkpt><trkpt lat="45.3987017" lon="10.6400767"><ele>91.66666666666667</ele><time>2026-03-29T09:36:52.45Z</time></trkpt><trkpt lat="45.3986783" lon="10.6398617"><ele>92.0</ele><time>2026-03-29T09:36:53.45Z</time></trkpt><trkpt lat="45.39867" lon="10.639655"><ele>92.0</ele><time>2026-03-29T09:36:54.45Z</time></trkpt><trkpt lat="45.3986667" lon="10.63947"><ele>92.0</ele><time>2026-03-29T09:36:55.449Z</time></trkpt><trkpt lat="45.3986583" lon="10.63926"><ele>92.0</ele><time>2026-03-29T09:36:56.45Z</time></trkpt><trkpt lat="45.3986517" lon="10.6390117"><ele>92.0</ele><time>2026-03-29T09:36:57.45Z</time></trkpt><trkpt lat="45.3986417" lon="10.6387433"><ele>92.0</ele><time>2026-03-29T09:36:58.449Z</time></trkpt><trkpt lat="45.39863" lon="10.63846"><ele>92.0</ele><time>2026-03-29T09:36:59.45Z</time></trkpt><trkpt lat="45.3986233" lon="10.6381717"><ele>91.66666666666667</ele><time>2026-03-29T09:37:00.45Z</time></trkpt><trkpt lat="45.3986267" lon="10.637895"><ele>91.33333333333333</ele><time>2026-03-29T09:37:01.45Z</time></trkpt><trkpt lat="45.3986283" lon="10.6376317"><ele>91.0</ele><time>2026-03-29T09:37:02.45Z</time></trkpt><trkpt lat="45.3986333" lon="10.6373533"><ele>91.0</ele><time>2026-03-29T09:37:03.45Z</time></trkpt><trkpt lat="45.398655" lon="10.637055"><ele>91.0</ele><time>2026-03-29T09:37:04.45Z</time></trkpt><trkpt lat="45.3986783" lon="10.6368"><ele>91.0</ele><time>2026-03-29T09:37:05.45Z</time></trkpt><trkpt lat="45.3987283" lon="10.6365317"><ele>91.0</ele><time>2026-03-29T09:37:06.45Z</time></trkpt><trkpt lat="45.3987917" lon="10.6362733"><ele>91.0</ele><time>2026-03-29T09:37:07.449Z</time></trkpt><trkpt lat="45.398875" lon="10.63603"><ele>91.0</ele><time>2026-03-29T09:37:08.45Z</time></trkpt><trkpt lat="45.398975" lon="10.63579"><ele>91.0</ele><time>2026-03-29T09:37:09.45Z</time></trkpt><trkpt lat="45.3990783" lon="10.6355617"><ele>91.0</ele><time>2026-03-29T09:37:10.45Z</time></trkpt><trkpt lat="45.3991783" lon="10.6353433"><ele>91.0</ele><time>2026-03-29T09:37:11.45Z</time></trkpt><trkpt lat="45.3992733" lon="10.6351517"><ele>91.5</ele><time>2026-03-29T09:37:12.45Z</time></trkpt><trkpt lat="45.3993633" lon="10.6349817"><ele>92.0</ele><time>2026-03-29T09:37:13.45Z</time></trkpt><trkpt lat="45.399445" lon="10.6348567"><ele>92.5</ele><time>2026-03-29T09:37:14.45Z</time></trkpt><trkpt lat="45.39953" lon="10.6347533"><ele>93.0</ele><time>2026-03-29T09:37:15.45Z</time></trkpt><trkpt lat="45.39964" lon="10.634705"><ele>92.25</ele><time>2026-03-29T09:37:16.45Z</time></trkpt><trkpt lat="45.3997467" lon="10.634695"><ele>91.5</ele><time>2026-03-29T09:37:17.449Z</time></trkpt><trkpt lat="45.3998683" lon="10.6347433"><ele>90.75</ele><time>2026-03-29T09:37:18.45Z</time></trkpt><trkpt lat="45.4000067" lon="10.634835"><ele>90.0</ele><time>2026-03-29T09:37:19.449Z</time></trkpt><trkpt lat="45.400165" lon="10.63497"><ele>90.0</ele><time>2026-03-29T09:37:20.449Z</time></trkpt><trkpt lat="45.400335" lon="10.635125"><ele>90.0</ele><time>2026-03-29T09:37:21.45Z</time></trkpt><trkpt lat="45.4005367" lon="10.6352983"><ele>90.0</ele><time>2026-03-29T09:37:22.45Z</time></trkpt><trkpt lat="45.4007517" lon="10.6354867"><ele>89.0</ele><time>2026-03-29T09:37:23.449Z</time></trkpt><trkpt lat="45.4009817" lon="10.635695"><ele>88.0</ele><time>2026-03-29T09:37:24.45Z</time></trkpt><trkpt lat="45.40121" lon="10.6358967"><ele>88.5</ele><time>2026-03-29T09:37:25.45Z</time></trkpt><trkpt lat="45.4014233" lon="10.6360833"><ele>89.0</ele><time>2026-03-29T09:37:26.45Z</time></trkpt><trkpt lat="45.401625" lon="10.6362583"><ele>88.66666666666667</ele><time>2026-03-29T09:37:27.45Z</time></trkpt><trkpt lat="45.4018183" lon="10.6364233"><ele>88.33333333333333</ele><time>2026-03-29T09:37:28.45Z</time></trkpt><trkpt lat="45.402" lon="10.6365783"><ele>88.0</ele><time>2026-03-29T09:37:29.45Z</time></trkpt><trkpt lat="45.402175" lon="10.636735"><ele>88.0</ele><time>2026-03-29T09:37:30.45Z</time></trkpt><trkpt lat="45.40235" lon="10.636895"><ele>88.0</ele><time>2026-03-29T09:37:31.45Z</time></trkpt><trkpt lat="45.4025367" lon="10.63705"><ele>88.0</ele><time>2026-03-29T09:37:32.45Z</time></trkpt><trkpt lat="45.402735" lon="10.637215"><ele>88.33333333333333</ele><time>2026-03-29T09:37:33.449Z</time></trkpt><trkpt lat="45.402925" lon="10.6373767"><ele>88.66666666666667</ele><time>2026-03-29T09:37:34.45Z</time></trkpt><trkpt lat="45.4031133" lon="10.6375367"><ele>89.0</ele><time>2026-03-29T09:37:35.45Z</time></trkpt><trkpt lat="45.4033" lon="10.63771"><ele>89.0</ele><time>2026-03-29T09:37:36.45Z</time></trkpt><trkpt lat="45.4034883" lon="10.637865"><ele>89.0</ele><time>2026-03-29T09:37:37.449Z</time></trkpt><trkpt lat="45.4036717" lon="10.6380267"><ele>89.0</ele><time>2026-03-29T09:37:38.45Z</time></trkpt><trkpt lat="45.4038483" lon="10.6381733"><ele>89.33333333333334</ele><time>2026-03-29T09:37:39.45Z</time></trkpt><trkpt lat="45.4040083" lon="10.6383167"><ele>89.66666666666667</ele><time>2026-03-29T09:37:40.45Z</time></trkpt><trkpt lat="45.404165" lon="10.6384633"><ele>90.0</ele><time>2026-03-29T09:37:41.45Z</time></trkpt><trkpt lat="45.4043317" lon="10.6386133"><ele>90.66666666666667</ele><time>2026-03-29T09:37:42.449Z</time></trkpt><trkpt lat="45.4045033" lon="10.63876"><ele>91.33333333333334</ele><time>2026-03-29T09:37:43.45Z</time></trkpt><trkpt lat="45.404675" lon="10.638915"><ele>92.0</ele><time>2026-03-29T09:37:44.45Z</time></trkpt><trkpt lat="45.4048533" lon="10.6390533"><ele>92.0</ele><time>2026-03-29T09:37:45.45Z</time></trkpt><trkpt lat="45.4050067" lon="10.6391817"><ele>92.0</ele><time>2026-03-29T09:37:46.45Z</time></trkpt><trkpt lat="45.405145" lon="10.63929"><ele>92.0</ele><time>2026-03-29T09:37:47.45Z</time></trkpt><trkpt lat="45.4052733" lon="10.6393867"><ele>91.19999999999999</ele><time>2026-03-29T09:37:48.45Z</time></trkpt><trkpt lat="45.405385" lon="10.63947"><ele>90.4</ele><time>2026-03-29T09:37:49.45Z</time></trkpt><trkpt lat="45.4054667" lon="10.6395367"><ele>89.6</ele><time>2026-03-29T09:37:50.45Z</time></trkpt><trkpt lat="45.4055217" lon="10.6395817"><ele>88.80000000000001</ele><time>2026-03-29T09:37:51.45Z</time></trkpt><trkpt lat="45.4055567" lon="10.63966"><ele>88.0</ele><time>2026-03-29T09:37:53.45Z</time></trkpt><trkpt lat="45.4054983" lon="10.6397967"><ele>88.0</ele><time>2026-03-29T09:37:55.45Z</time></trkpt><trkpt lat="45.4054567" lon="10.63988"><ele>88.0</ele><time>2026-03-29T09:37:56.45Z</time></trkpt><trkpt lat="45.4054217" lon="10.6399583"><ele>88.0</ele><time>2026-03-29T09:37:57.45Z</time></trkpt><trkpt lat="45.4054017" lon="10.640085"><ele>88.0</ele><time>2026-03-29T09:37:59.45Z</time></trkpt><trkpt lat="45.4054483" lon="10.6401967"><ele>88.0</ele><time>2026-03-29T09:38:01.45Z</time></trkpt><trkpt lat="45.4054983" lon="10.6402567"><ele>88.0</ele><time>2026-03-29T09:38:02.45Z</time></trkpt><trkpt lat="45.4055767" lon="10.6403233"><ele>87.25</ele><time>2026-03-29T09:38:03.45Z</time></trkpt><trkpt lat="45.40568" lon="10.6403967"><ele>86.5</ele><time>2026-03-29T09:38:04.45Z</time></trkpt><trkpt lat="45.405805" lon="10.6404683"><ele>85.75</ele><time>2026-03-29T09:38:05.45Z</time></trkpt><trkpt lat="45.4059367" lon="10.6405417"><ele>85.0</ele><time>2026-03-29T09:38:06.45Z</time></trkpt><trkpt lat="45.406065" lon="10.6406133"><ele>85.0</ele><time>2026-03-29T09:38:07.45Z</time></trkpt><trkpt lat="45.406195" lon="10.640685"><ele>85.0</ele><time>2026-03-29T09:38:08.45Z</time></trkpt><trkpt lat="45.4063133" lon="10.6407633"><ele>85.0</ele><time>2026-03-29T09:38:09.45Z</time></trkpt><trkpt lat="45.406425" lon="10.64084"><ele>85.0</ele><time>2026-03-29T09:38:10.45Z</time></trkpt><trkpt lat="45.40653" lon="10.640875"><ele>85.5</ele><time>2026-03-29T09:38:11.45Z</time></trkpt><trkpt lat="45.40664" lon="10.6409117"><ele>86.0</ele><time>2026-03-29T09:38:12.45Z</time></trkpt><trkpt lat="45.4067617" lon="10.640935"><ele>86.5</ele><time>2026-03-29T09:38:13.45Z</time></trkpt><trkpt lat="45.4068883" lon="10.6409567"><ele>87.0</ele><time>2026-03-29T09:38:14.45Z</time></trkpt><trkpt lat="45.4070083" lon="10.640985"><ele>87.0</ele><time>2026-03-29T09:38:15.45Z</time></trkpt><trkpt lat="45.4071183" lon="10.6409817"><ele>87.0</ele><time>2026-03-29T09:38:16.45Z</time></trkpt><trkpt lat="45.4072433" lon="10.6409667"><ele>87.0</ele><time>2026-03-29T09:38:17.45Z</time></trkpt><trkpt lat="45.4073717" lon="10.6409533"><ele>87.0</ele><time>2026-03-29T09:38:18.45Z</time></trkpt><trkpt lat="45.4074867" lon="10.6409617"><ele>87.19999999999999</ele><time>2026-03-29T09:38:19.45Z</time></trkpt><trkpt lat="45.4076017" lon="10.6409767"><ele>87.4</ele><time>2026-03-29T09:38:20.45Z</time></trkpt><trkpt lat="45.4077117" lon="10.640995"><ele>87.6</ele><time>2026-03-29T09:38:21.45Z</time></trkpt><trkpt lat="45.407815" lon="10.64102"><ele>87.80000000000001</ele><time>2026-03-29T09:38:22.45Z</time></trkpt><trkpt lat="45.407905" lon="10.64105"><ele>88.0</ele><time>2026-03-29T09:38:23.45Z</time></trkpt><trkpt lat="45.407995" lon="10.641105"><ele>87.4</ele><time>2026-03-29T09:38:24.45Z</time></trkpt><trkpt lat="45.408075" lon="10.6411817"><ele>86.80000000000001</ele><time>2026-03-29T09:38:25.449Z</time></trkpt><trkpt lat="45.408145" lon="10.6412883"><ele>86.2</ele><time>2026-03-29T09:38:26.45Z</time></trkpt><trkpt lat="45.40822" lon="10.64141"><ele>85.6</ele><time>2026-03-29T09:38:27.45Z</time></trkpt><trkpt lat="45.4082933" lon="10.6415383"><ele>85.0</ele><time>2026-03-29T09:38:28.45Z</time></trkpt><trkpt lat="45.408355" lon="10.6416567"><ele>85.0</ele><time>2026-03-29T09:38:29.45Z</time></trkpt><trkpt lat="45.4084117" lon="10.6417733"><ele>85.0</ele><time>2026-03-29T09:38:30.45Z</time></trkpt><trkpt lat="45.4084483" lon="10.6419033"><ele>85.0</ele><time>2026-03-29T09:38:31.45Z</time></trkpt><trkpt lat="45.408475" lon="10.642055"><ele>85.0</ele><time>2026-03-29T09:38:32.45Z</time></trkpt><trkpt lat="45.40848" lon="10.64224"><ele>85.0</ele><time>2026-03-29T09:38:33.45Z</time></trkpt><trkpt lat="45.4084933" lon="10.6424617"><ele>85.0</ele><time>2026-03-29T09:38:34.45Z</time></trkpt><trkpt lat="45.408505" lon="10.6426733"><ele>85.0</ele><time>2026-03-29T09:38:35.449Z</time></trkpt><trkpt lat="45.4085267" lon="10.642875"><ele>85.0</ele><time>2026-03-29T09:38:36.45Z</time></trkpt><trkpt lat="45.4085533" lon="10.6430467"><ele>85.0</ele><time>2026-03-29T09:38:37.449Z</time></trkpt><trkpt lat="45.4085983" lon="10.6432017"><ele>85.5</ele><time>2026-03-29T09:38:38.45Z</time></trkpt><trkpt lat="45.40864" lon="10.643355"><ele>86.0</ele><time>2026-03-29T09:38:39.45Z</time></trkpt><trkpt lat="45.4086817" lon="10.6435417"><ele>86.5</ele><time>2026-03-29T09:38:40.449Z</time></trkpt><trkpt lat="45.4087217" lon="10.6437217"><ele>87.0</ele><time>2026-03-29T09:38:41.45Z</time></trkpt><trkpt lat="45.40877" lon="10.6439067"><ele>87.0</ele><time>2026-03-29T09:38:42.45Z</time></trkpt><trkpt lat="45.408815" lon="10.6440883"><ele>87.0</ele><time>2026-03-29T09:38:43.45Z</time></trkpt><trkpt lat="45.4088583" lon="10.6442667"><ele>87.0</ele><time>2026-03-29T09:38:44.45Z</time></trkpt><trkpt lat="45.4088967" lon="10.6444433"><ele>87.0</ele><time>2026-03-29T09:38:45.45Z</time></trkpt><trkpt lat="45.4089367" lon="10.6446017"><ele>87.0</ele><time>2026-03-29T09:38:46.45Z</time></trkpt><trkpt lat="45.4089683" lon="10.6447483"><ele>87.0</ele><time>2026-03-29T09:38:47.45Z</time></trkpt><trkpt lat="45.4090117" lon="10.6448833"><ele>87.0</ele><time>2026-03-29T09:38:48.45Z</time></trkpt><trkpt lat="45.409065" lon="10.644995"><ele>87.0</ele><time>2026-03-29T09:38:49.45Z</time></trkpt><trkpt lat="45.409135" lon="10.6451083"><ele>87.0</ele><time>2026-03-29T09:38:50.45Z</time></trkpt><trkpt lat="45.409225" lon="10.6452133"><ele>87.0</ele><time>2026-03-29T09:38:51.45Z</time></trkpt><trkpt lat="45.40933" lon="10.64534"><ele>87.0</ele><time>2026-03-29T09:38:52.449Z</time></trkpt><trkpt lat="45.409445" lon="10.6454633"><ele>87.0</ele><time>2026-03-29T09:38:53.45Z</time></trkpt><trkpt lat="45.4095483" lon="10.6455983"><ele>87.0</ele><time>2026-03-29T09:38:54.449Z</time></trkpt><trkpt lat="45.40965" lon="10.6457167"><ele>87.25</ele><time>2026-03-29T09:38:55.45Z</time></trkpt><trkpt lat="45.409755" lon="10.6458267"><ele>87.5</ele><time>2026-03-29T09:38:56.45Z</time></trkpt><trkpt lat="45.4098567" lon="10.6459283"><ele>87.75</ele><time>2026-03-29T09:38:57.45Z</time></trkpt><trkpt lat="45.409945" lon="10.6460483"><ele>88.0</ele><time>2026-03-29T09:38:58.45Z</time></trkpt><trkpt lat="45.4100217" lon="10.6462017"><ele>88.25</ele><time>2026-03-29T09:38:59.45Z</time></trkpt><trkpt lat="45.4101017" lon="10.6463617"><ele>88.5</ele><time>2026-03-29T09:39:00.45Z</time></trkpt><trkpt lat="45.41019" lon="10.646515"><ele>88.75</ele><time>2026-03-29T09:39:01.45Z</time></trkpt><trkpt lat="45.4102883" lon="10.6466733"><ele>89.0</ele><time>2026-03-29T09:39:02.45Z</time></trkpt><trkpt lat="45.4103967" lon="10.6468217"><ele>89.0</ele><time>2026-03-29T09:39:03.45Z</time></trkpt><trkpt lat="45.4104917" lon="10.6469567"><ele>89.0</ele><time>2026-03-29T09:39:04.45Z</time></trkpt><trkpt lat="45.41059" lon="10.6470983"><ele>89.0</ele><time>2026-03-29T09:39:05.45Z</time></trkpt><trkpt lat="45.4106817" lon="10.6472483"><ele>89.0</ele><time>2026-03-29T09:39:06.45Z</time></trkpt><trkpt lat="45.4107533" lon="10.6474283"><ele>88.75</ele><time>2026-03-29T09:39:07.45Z</time></trkpt><trkpt lat="45.4107983" lon="10.6476067"><ele>88.5</ele><time>2026-03-29T09:39:08.45Z</time></trkpt><trkpt lat="45.4108367" lon="10.6477833"><ele>88.25</ele><time>2026-03-29T09:39:09.45Z</time></trkpt><trkpt lat="45.4108633" lon="10.6479483"><ele>88.0</ele><time>2026-03-29T09:39:10.45Z</time></trkpt><trkpt lat="45.41088" lon="10.6480867"><ele>88.0</ele><time>2026-03-29T09:39:11.45Z</time></trkpt><trkpt lat="45.41091" lon="10.648195"><ele>88.0</ele><time>2026-03-29T09:39:12.45Z</time></trkpt><trkpt lat="45.4109533" lon="10.64827"><ele>88.0</ele><time>2026-03-29T09:39:13.45Z</time></trkpt><trkpt lat="45.41107" lon="10.6482833"><ele>88.0</ele><time>2026-03-29T09:39:15.45Z</time></trkpt><trkpt lat="45.411175" lon="10.64826"><ele>88.0</ele><time>2026-03-29T09:39:16.449Z</time></trkpt><trkpt lat="45.411305" lon="10.6482183"><ele>89.25</ele><time>2026-03-29T09:39:17.45Z</time></trkpt><trkpt lat="45.41145" lon="10.6481783"><ele>90.5</ele><time>2026-03-29T09:39:18.45Z</time></trkpt><trkpt lat="45.411595" lon="10.6481567"><ele>91.75</ele><time>2026-03-29T09:39:19.45Z</time></trkpt><trkpt lat="45.4117183" lon="10.6481283"><ele>93.0</ele><time>2026-03-29T09:39:20.45Z</time></trkpt><trkpt lat="45.4118033" lon="10.6481133"><ele>93.0</ele><time>2026-03-29T09:39:21.449Z</time></trkpt><trkpt lat="45.411865" lon="10.6480917"><ele>93.0</ele><time>2026-03-29T09:39:22.45Z</time></trkpt><trkpt lat="45.4119183" lon="10.6480417"><ele>93.0</ele><time>2026-03-29T09:39:23.45Z</time></trkpt><trkpt lat="45.4119683" lon="10.64783"><ele>93.0</ele><time>2026-03-29T09:39:25.449Z</time></trkpt><trkpt lat="45.411975" lon="10.6476333"><ele>93.0</ele><time>2026-03-29T09:39:26.45Z</time></trkpt><trkpt lat="45.4119483" lon="10.6473483"><ele>93.0</ele><time>2026-03-29T09:39:27.45Z</time></trkpt><trkpt lat="45.4119333" lon="10.647015"><ele>93.0</ele><time>2026-03-29T09:39:28.45Z</time></trkpt><trkpt lat="45.4119083" lon="10.6466767"><ele>93.0</ele><time>2026-03-29T09:39:29.45Z</time></trkpt><trkpt lat="45.4118683" lon="10.6463183"><ele>93.0</ele><time>2026-03-29T09:39:30.45Z</time></trkpt><trkpt lat="45.4118067" lon="10.6459533"><ele>94.5</ele><time>2026-03-29T09:39:31.45Z</time></trkpt><trkpt lat="45.4117283" lon="10.6455983"><ele>96.0</ele><time>2026-03-29T09:39:32.45Z</time></trkpt><trkpt lat="45.411665" lon="10.6452583"><ele>96.33333333333334</ele><time>2026-03-29T09:39:33.45Z</time></trkpt><trkpt lat="45.4116" lon="10.644945"><ele>96.66666666666667</ele><time>2026-03-29T09:39:34.45Z</time></trkpt><trkpt lat="45.4115383" lon="10.6446617"><ele>97.0</ele><time>2026-03-29T09:39:35.45Z</time></trkpt><trkpt lat="45.411475" lon="10.644395"><ele>96.66666666666667</ele><time>2026-03-29T09:39:36.45Z</time></trkpt><trkpt lat="45.41142" lon="10.6441267"><ele>96.33333333333334</ele><time>2026-03-29T09:39:37.45Z</time></trkpt><trkpt lat="45.4113667" lon="10.643875"><ele>96.0</ele><time>2026-03-29T09:39:38.45Z</time></trkpt><trkpt lat="45.4113233" lon="10.643625"><ele>96.0</ele><time>2026-03-29T09:39:39.45Z</time></trkpt><trkpt lat="45.4112683" lon="10.643395"><ele>96.0</ele><time>2026-03-29T09:39:40.45Z</time></trkpt><trkpt lat="45.4112133" lon="10.643175"><ele>96.0</ele><time>2026-03-29T09:39:41.45Z</time></trkpt><trkpt lat="45.4111667" lon="10.6429567"><ele>95.66666666666667</ele><time>2026-03-29T09:39:42.45Z</time></trkpt><trkpt lat="45.41113" lon="10.64274"><ele>95.33333333333334</ele><time>2026-03-29T09:39:43.45Z</time></trkpt><trkpt lat="45.4110883" lon="10.64252"><ele>95.0</ele><time>2026-03-29T09:39:44.45Z</time></trkpt><trkpt lat="45.41105" lon="10.6422933"><ele>95.0</ele><time>2026-03-29T09:39:45.45Z</time></trkpt><trkpt lat="45.4110117" lon="10.64207"><ele>95.0</ele><time>2026-03-29T09:39:46.45Z</time></trkpt><trkpt lat="45.410965" lon="10.641865"><ele>95.0</ele><time>2026-03-29T09:39:47.45Z</time></trkpt><trkpt lat="45.4109333" lon="10.6416917"><ele>95.0</ele><time>2026-03-29T09:39:48.45Z</time></trkpt><trkpt lat="45.4108983" lon="10.6415383"><ele>96.0</ele><time>2026-03-29T09:39:49.45Z</time></trkpt><trkpt lat="45.4108717" lon="10.6414033"><ele>97.0</ele><time>2026-03-29T09:39:50.45Z</time></trkpt><trkpt lat="45.4108533" lon="10.6412833"><ele>98.0</ele><time>2026-03-29T09:39:51.45Z</time></trkpt><trkpt lat="45.4108683" lon="10.64118"><ele>99.0</ele><time>2026-03-29T09:39:52.45Z</time></trkpt><trkpt lat="45.4109" lon="10.64108"><ele>99.99999999999999</ele><time>2026-03-29T09:39:53.45Z</time></trkpt><trkpt lat="45.4109183" lon="10.6409767"><ele>101.0</ele><time>2026-03-29T09:39:54.45Z</time></trkpt><trkpt lat="45.410925" lon="10.6408567"><ele>101.19999999999999</ele><time>2026-03-29T09:39:55.449Z</time></trkpt><trkpt lat="45.4108933" lon="10.640745"><ele>101.39999999999999</ele><time>2026-03-29T09:39:56.45Z</time></trkpt><trkpt lat="45.4108117" lon="10.6406567"><ele>101.6</ele><time>2026-03-29T09:39:57.45Z</time></trkpt><trkpt lat="45.41071" lon="10.64059"><ele>101.8</ele><time>2026-03-29T09:39:58.45Z</time></trkpt><trkpt lat="45.4106183" lon="10.6404883"><ele>102.0</ele><time>2026-03-29T09:39:59.45Z</time></trkpt><trkpt lat="45.41054" lon="10.6403367"><ele>101.66666666666666</ele><time>2026-03-29T09:40:00.45Z</time></trkpt><trkpt lat="45.4104883" lon="10.6401417"><ele>101.33333333333333</ele><time>2026-03-29T09:40:01.45Z</time></trkpt><trkpt lat="45.4104567" lon="10.6399383"><ele>101.0</ele><time>2026-03-29T09:40:02.45Z</time></trkpt><trkpt lat="45.4104267" lon="10.63971"><ele>101.0</ele><time>2026-03-29T09:40:03.45Z</time></trkpt><trkpt lat="45.4104" lon="10.6394967"><ele>101.0</ele><time>2026-03-29T09:40:04.45Z</time></trkpt><trkpt lat="45.4103567" lon="10.63931"><ele>101.0</ele><time>2026-03-29T09:40:05.45Z</time></trkpt><trkpt lat="45.4102983" lon="10.6391233"><ele>101.0</ele><time>2026-03-29T09:40:06.45Z</time></trkpt><trkpt lat="45.410245" lon="10.63894"><ele>101.5</ele><time>2026-03-29T09:40:07.45Z</time></trkpt><trkpt lat="45.4102033" lon="10.6387733"><ele>102.0</ele><time>2026-03-29T09:40:08.45Z</time></trkpt><trkpt lat="45.4101417" lon="10.6385883"><ele>102.5</ele><time>2026-03-29T09:40:09.45Z</time></trkpt><trkpt lat="45.41006" lon="10.638405"><ele>103.0</ele><time>2026-03-29T09:40:10.45Z</time></trkpt><trkpt lat="45.409985" lon="10.6382067"><ele>103.0</ele><time>2026-03-29T09:40:11.45Z</time></trkpt><trkpt lat="45.4099083" lon="10.6379983"><ele>103.0</ele><time>2026-03-29T09:40:12.45Z</time></trkpt><trkpt lat="45.409825" lon="10.6377783"><ele>103.0</ele><time>2026-03-29T09:40:13.45Z</time></trkpt><trkpt lat="45.40973" lon="10.63756"><ele>103.75</ele><time>2026-03-29T09:40:14.45Z</time></trkpt><trkpt lat="45.409645" lon="10.6373567"><ele>104.5</ele><time>2026-03-29T09:40:15.45Z</time></trkpt><trkpt lat="45.4095767" lon="10.6371833"><ele>105.25</ele><time>2026-03-29T09:40:16.45Z</time></trkpt><trkpt lat="45.40951" lon="10.6370317"><ele>106.0</ele><time>2026-03-29T09:40:17.45Z</time></trkpt><trkpt lat="45.4094567" lon="10.636875"><ele>106.5</ele><time>2026-03-29T09:40:18.45Z</time></trkpt><trkpt lat="45.4093917" lon="10.6367183"><ele>107.0</ele><time>2026-03-29T09:40:19.45Z</time></trkpt><trkpt lat="45.4093067" lon="10.636575"><ele>107.5</ele><time>2026-03-29T09:40:20.45Z</time></trkpt><trkpt lat="45.4092167" lon="10.63643"><ele>108.0</ele><time>2026-03-29T09:40:21.45Z</time></trkpt><trkpt lat="45.40913" lon="10.6363"><ele>108.0</ele><time>2026-03-29T09:40:22.45Z</time></trkpt><trkpt lat="45.4090583" lon="10.636165"><ele>108.0</ele><time>2026-03-29T09:40:23.45Z</time></trkpt><trkpt lat="45.4089883" lon="10.63602"><ele>108.0</ele><time>2026-03-29T09:40:24.45Z</time></trkpt><trkpt lat="45.4089133" lon="10.6358867"><ele>108.0</ele><time>2026-03-29T09:40:25.45Z</time></trkpt><trkpt lat="45.408825" lon="10.635725"><ele>107.66666666666666</ele><time>2026-03-29T09:40:26.45Z</time></trkpt><trkpt lat="45.4087233" lon="10.6355667"><ele>107.33333333333333</ele><time>2026-03-29T09:40:27.45Z</time></trkpt><trkpt lat="45.40862" lon="10.6354117"><ele>107.0</ele><time>2026-03-29T09:40:28.449Z</time></trkpt><trkpt lat="45.4085167" lon="10.6352583"><ele>107.75</ele><time>2026-03-29T09:40:29.45Z</time></trkpt><trkpt lat="45.4084083" lon="10.6351117"><ele>108.5</ele><time>2026-03-29T09:40:30.45Z</time></trkpt><trkpt lat="45.4083" lon="10.634975"><ele>109.25</ele><time>2026-03-29T09:40:31.45Z</time></trkpt><trkpt lat="45.40819" lon="10.6348683"><ele>110.0</ele><time>2026-03-29T09:40:32.45Z</time></trkpt><trkpt lat="45.408075" lon="10.63477"><ele>110.0</ele><time>2026-03-29T09:40:33.45Z</time></trkpt><trkpt lat="45.4079733" lon="10.634665"><ele>110.0</ele><time>2026-03-29T09:40:34.45Z</time></trkpt><trkpt lat="45.4078833" lon="10.6345783"><ele>110.0</ele><time>2026-03-29T09:40:35.45Z</time></trkpt><trkpt lat="45.407805" lon="10.6344883"><ele>110.0</ele><time>2026-03-29T09:40:36.449Z</time></trkpt><trkpt lat="45.4077367" lon="10.6344283"><ele>110.0</ele><time>2026-03-29T09:40:37.45Z</time></trkpt><trkpt lat="45.4076617" lon="10.6343267"><ele>110.0</ele><time>2026-03-29T09:40:39.45Z</time></trkpt><trkpt lat="45.4076867" lon="10.6341833"><ele>110.0</ele><time>2026-03-29T09:40:43.45Z</time></trkpt><trkpt lat="45.407735" lon="10.634125"><ele>110.0</ele><time>2026-03-29T09:40:44.45Z</time></trkpt><trkpt lat="45.4078083" lon="10.634065"><ele>110.0</ele><time>2026-03-29T09:40:45.45Z</time></trkpt><trkpt lat="45.4079" lon="10.634005"><ele>110.0</ele><time>2026-03-29T09:40:46.45Z</time></trkpt><trkpt lat="45.4080233" lon="10.6339567"><ele>110.25</ele><time>2026-03-29T09:40:47.45Z</time></trkpt><trkpt lat="45.4081517" lon="10.6339117"><ele>110.5</ele><time>2026-03-29T09:40:48.45Z</time></trkpt><trkpt lat="45.408255" lon="10.633855"><ele>110.75</ele><time>2026-03-29T09:40:49.45Z</time></trkpt><trkpt lat="45.408355" lon="10.6338083"><ele>111.0</ele><time>2026-03-29T09:40:50.45Z</time></trkpt><trkpt lat="45.4084467" lon="10.63374"><ele>111.0</ele><time>2026-03-29T09:40:51.45Z</time></trkpt><trkpt lat="45.40854" lon="10.633675"><ele>111.0</ele><time>2026-03-29T09:40:52.45Z</time></trkpt><trkpt lat="45.4086283" lon="10.6336183"><ele>111.0</ele><time>2026-03-29T09:40:53.45Z</time></trkpt><trkpt lat="45.4087133" lon="10.63356"><ele>111.0</ele><time>2026-03-29T09:40:54.45Z</time></trkpt><trkpt lat="45.408795" lon="10.6334883"><ele>111.0</ele><time>2026-03-29T09:40:55.45Z</time></trkpt><trkpt lat="45.4088833" lon="10.6334033"><ele>111.75</ele><time>2026-03-29T09:40:56.45Z</time></trkpt><trkpt lat="45.40897" lon="10.6333283"><ele>112.5</ele><time>2026-03-29T09:40:57.45Z</time></trkpt><trkpt lat="45.4090667" lon="10.6332283"><ele>113.25</ele><time>2026-03-29T09:40:58.45Z</time></trkpt><trkpt lat="45.409175" lon="10.633125"><ele>114.0</ele><time>2026-03-29T09:40:59.45Z</time></trkpt><trkpt lat="45.4092933" lon="10.6330217"><ele>114.0</ele><time>2026-03-29T09:41:00.449Z</time></trkpt><trkpt lat="45.40941" lon="10.6329017"><ele>114.0</ele><time>2026-03-29T09:41:01.45Z</time></trkpt><trkpt lat="45.409535" lon="10.6327567"><ele>114.0</ele><time>2026-03-29T09:41:02.45Z</time></trkpt><trkpt lat="45.40967" lon="10.6326117"><ele>113.0</ele><time>2026-03-29T09:41:03.45Z</time></trkpt><trkpt lat="45.409805" lon="10.6324517"><ele>112.0</ele><time>2026-03-29T09:41:04.45Z</time></trkpt><trkpt lat="45.4099417" lon="10.632295"><ele>111.0</ele><time>2026-03-29T09:41:05.45Z</time></trkpt><trkpt lat="45.410095" lon="10.6321417"><ele>111.0</ele><time>2026-03-29T09:41:06.45Z</time></trkpt><trkpt lat="45.4102583" lon="10.6319983"><ele>111.0</ele><time>2026-03-29T09:41:07.45Z</time></trkpt><trkpt lat="45.410425" lon="10.631885"><ele>111.0</ele><time>2026-03-29T09:41:08.45Z</time></trkpt><trkpt lat="45.4105867" lon="10.6318067"><ele>109.5</ele><time>2026-03-29T09:41:09.45Z</time></trkpt><trkpt lat="45.4107367" lon="10.6317517"><ele>108.0</ele><time>2026-03-29T09:41:10.45Z</time></trkpt><trkpt lat="45.4108583" lon="10.631725"><ele>106.5</ele><time>2026-03-29T09:41:11.45Z</time></trkpt><trkpt lat="45.4109583" lon="10.6317267"><ele>105.0</ele><time>2026-03-29T09:41:12.45Z</time></trkpt><trkpt lat="45.41106" lon="10.63177"><ele>105.0</ele><time>2026-03-29T09:41:13.45Z</time></trkpt><trkpt lat="45.411145" lon="10.631825"><ele>105.0</ele><time>2026-03-29T09:41:14.449Z</time></trkpt><trkpt lat="45.411225" lon="10.6318583"><ele>105.0</ele><time>2026-03-29T09:41:15.45Z</time></trkpt><trkpt lat="45.4112967" lon="10.63185"><ele>105.0</ele><time>2026-03-29T09:41:16.45Z</time></trkpt><trkpt lat="45.4113633" lon="10.6317917"><ele>105.0</ele><time>2026-03-29T09:41:17.45Z</time></trkpt><trkpt lat="45.411405" lon="10.6316817"><ele>105.0</ele><time>2026-03-29T09:41:18.45Z</time></trkpt><trkpt lat="45.4114133" lon="10.631545"><ele>104.66666666666666</ele><time>2026-03-29T09:41:19.45Z</time></trkpt><trkpt lat="45.4113917" lon="10.6313567"><ele>104.33333333333333</ele><time>2026-03-29T09:41:20.449Z</time></trkpt><trkpt lat="45.4113733" lon="10.6311133"><ele>104.0</ele><time>2026-03-29T09:41:21.45Z</time></trkpt><trkpt lat="45.41137" lon="10.6308383"><ele>101.5</ele><time>2026-03-29T09:41:22.45Z</time></trkpt><trkpt lat="45.4113717" lon="10.6305233"><ele>99.0</ele><time>2026-03-29T09:41:23.45Z</time></trkpt><trkpt lat="45.4113783" lon="10.6301917"><ele>99.0</ele><time>2026-03-29T09:41:24.45Z</time></trkpt><trkpt lat="45.4113883" lon="10.6298383"><ele>99.0</ele><time>2026-03-29T09:41:25.449Z</time></trkpt><trkpt lat="45.4113883" lon="10.6294767"><ele>99.0</ele><time>2026-03-29T09:41:26.45Z</time></trkpt><trkpt lat="45.4113933" lon="10.6291083"><ele>99.0</ele><time>2026-03-29T09:41:27.45Z</time></trkpt><trkpt lat="45.4113917" lon="10.6287383"><ele>99.5</ele><time>2026-03-29T09:41:28.45Z</time></trkpt><trkpt lat="45.41138" lon="10.628365"><ele>100.0</ele><time>2026-03-29T09:41:29.45Z</time></trkpt><trkpt lat="45.4113717" lon="10.6279883"><ele>100.5</ele><time>2026-03-29T09:41:30.45Z</time></trkpt><trkpt lat="45.4113333" lon="10.627615"><ele>101.0</ele><time>2026-03-29T09:41:31.449Z</time></trkpt><trkpt lat="45.4112633" lon="10.6272683"><ele>101.5</ele><time>2026-03-29T09:41:32.45Z</time></trkpt><trkpt lat="45.4111633" lon="10.62693"><ele>102.0</ele><time>2026-03-29T09:41:33.449Z</time></trkpt><trkpt lat="45.4110467" lon="10.626615"><ele>102.0</ele><time>2026-03-29T09:41:34.449Z</time></trkpt><trkpt lat="45.410905" lon="10.6263383"><ele>102.0</ele><time>2026-03-29T09:41:35.45Z</time></trkpt><trkpt lat="45.41077" lon="10.626095"><ele>100.33333333333334</ele><time>2026-03-29T09:41:36.45Z</time></trkpt><trkpt lat="45.4106517" lon="10.625895"><ele>98.66666666666667</ele><time>2026-03-29T09:41:37.45Z</time></trkpt><trkpt lat="45.4105533" lon="10.625735"><ele>97.0</ele><time>2026-03-29T09:41:38.45Z</time></trkpt><trkpt lat="45.410465" lon="10.6256083"><ele>97.00000000000001</ele><time>2026-03-29T09:41:39.45Z</time></trkpt><trkpt lat="45.4103967" lon="10.6255167"><ele>97.0</ele><time>2026-03-29T09:41:40.45Z</time></trkpt><trkpt lat="45.410335" lon="10.625465"><ele>97.0</ele><time>2026-03-29T09:41:41.45Z</time></trkpt><trkpt lat="45.4102717" lon="10.6254617"><ele>97.0</ele><time>2026-03-29T09:41:43.45Z</time></trkpt><trkpt lat="45.4102217" lon="10.6255333"><ele>97.00000000000001</ele><time>2026-03-29T09:41:45.45Z</time></trkpt><trkpt lat="45.4101583" lon="10.6256017"><ele>97.0</ele><time>2026-03-29T09:41:46.45Z</time></trkpt><trkpt lat="45.4100667" lon="10.6256967"><ele>97.0</ele><time>2026-03-29T09:41:47.45Z</time></trkpt><trkpt lat="45.4099433" lon="10.6258167"><ele>97.0</ele><time>2026-03-29T09:41:48.45Z</time></trkpt><trkpt lat="45.4097867" lon="10.62596"><ele>97.0</ele><time>2026-03-29T09:41:49.45Z</time></trkpt><trkpt lat="45.4096367" lon="10.6260983"><ele>96.33333333333334</ele><time>2026-03-29T09:41:50.45Z</time></trkpt><trkpt lat="45.4094967" lon="10.626225"><ele>95.66666666666667</ele><time>2026-03-29T09:41:51.45Z</time></trkpt><trkpt lat="45.4093683" lon="10.6263417"><ele>95.0</ele><time>2026-03-29T09:41:52.45Z</time></trkpt><trkpt lat="45.4092433" lon="10.6264483"><ele>95.0</ele><time>2026-03-29T09:41:53.45Z</time></trkpt><trkpt lat="45.4091283" lon="10.6265533"><ele>95.0</ele><time>2026-03-29T09:41:54.45Z</time></trkpt><trkpt lat="45.4090133" lon="10.626645"><ele>95.0</ele><time>2026-03-29T09:41:55.45Z</time></trkpt><trkpt lat="45.4089033" lon="10.6267283"><ele>95.0</ele><time>2026-03-29T09:41:56.45Z</time></trkpt><trkpt lat="45.4088" lon="10.626805"><ele>95.25</ele><time>2026-03-29T09:41:57.45Z</time></trkpt><trkpt lat="45.4086883" lon="10.6268817"><ele>95.5</ele><time>2026-03-29T09:41:58.45Z</time></trkpt><trkpt lat="45.4085833" lon="10.6269733"><ele>95.75</ele><time>2026-03-29T09:41:59.45Z</time></trkpt><trkpt lat="45.4084717" lon="10.6270483"><ele>96.0</ele><time>2026-03-29T09:42:00.45Z</time></trkpt><trkpt lat="45.4083567" lon="10.6271233"><ele>97.0</ele><time>2026-03-29T09:42:01.45Z</time></trkpt><trkpt lat="45.4082367" lon="10.6271983"><ele>98.0</ele><time>2026-03-29T09:42:02.449Z</time></trkpt><trkpt lat="45.408105" lon="10.6272433"><ele>99.0</ele><time>2026-03-29T09:42:03.45Z</time></trkpt><trkpt lat="45.407975" lon="10.627295"><ele>100.0</ele><time>2026-03-29T09:42:04.45Z</time></trkpt><trkpt lat="45.4078583" lon="10.62735"><ele>100.25</ele><time>2026-03-29T09:42:05.45Z</time></trkpt><trkpt lat="45.4077267" lon="10.627415"><ele>100.5</ele><time>2026-03-29T09:42:06.45Z</time></trkpt><trkpt lat="45.4076017" lon="10.6274983"><ele>100.75</ele><time>2026-03-29T09:42:07.45Z</time></trkpt><trkpt lat="45.407485" lon="10.627545"><ele>101.0</ele><time>2026-03-29T09:42:08.45Z</time></trkpt><trkpt lat="45.40737" lon="10.62759"><ele>101.0</ele><time>2026-03-29T09:42:09.45Z</time></trkpt><trkpt lat="45.4072533" lon="10.62764"><ele>101.0</ele><time>2026-03-29T09:42:10.45Z</time></trkpt><trkpt lat="45.4071283" lon="10.6276667"><ele>101.0</ele><time>2026-03-29T09:42:11.45Z</time></trkpt><trkpt lat="45.4069967" lon="10.6276767"><ele>101.0</ele><time>2026-03-29T09:42:12.45Z</time></trkpt><trkpt lat="45.4068567" lon="10.627655"><ele>100.66666666666666</ele><time>2026-03-29T09:42:13.45Z</time></trkpt><trkpt lat="45.4067117" lon="10.62764"><ele>100.33333333333334</ele><time>2026-03-29T09:42:14.45Z</time></trkpt><trkpt lat="45.4065567" lon="10.6276167"><ele>100.0</ele><time>2026-03-29T09:42:15.45Z</time></trkpt><trkpt lat="45.4063983" lon="10.627585"><ele>100.33333333333334</ele><time>2026-03-29T09:42:16.45Z</time></trkpt><trkpt lat="45.406235" lon="10.6275417"><ele>100.66666666666666</ele><time>2026-03-29T09:42:17.45Z</time></trkpt><trkpt lat="45.4060667" lon="10.6274833"><ele>101.0</ele><time>2026-03-29T09:42:18.45Z</time></trkpt><trkpt lat="45.4059017" lon="10.6274383"><ele>101.0</ele><time>2026-03-29T09:42:19.45Z</time></trkpt><trkpt lat="45.4057367" lon="10.6273783"><ele>101.0</ele><time>2026-03-29T09:42:20.449Z</time></trkpt><trkpt lat="45.4055683" lon="10.6273133"><ele>101.0</ele><time>2026-03-29T09:42:21.45Z</time></trkpt><trkpt lat="45.4054033" lon="10.627225"><ele>103.0</ele><time>2026-03-29T09:42:22.449Z</time></trkpt><trkpt lat="45.4052383" lon="10.627135"><ele>105.0</ele><time>2026-03-29T09:42:23.45Z</time></trkpt><trkpt lat="45.4050783" lon="10.62704"><ele>107.0</ele><time>2026-03-29T09:42:24.45Z</time></trkpt><trkpt lat="45.4049217" lon="10.62697"><ele>110.33333333333333</ele><time>2026-03-29T09:42:25.45Z</time></trkpt><trkpt lat="45.4047633" lon="10.6269167"><ele>113.66666666666666</ele><time>2026-03-29T09:42:26.45Z</time></trkpt><trkpt lat="45.4046033" lon="10.6268583"><ele>117.0</ele><time>2026-03-29T09:42:27.45Z</time></trkpt><trkpt lat="45.404455" lon="10.62681"><ele>118.5</ele><time>2026-03-29T09:42:28.45Z</time></trkpt><trkpt lat="45.4043133" lon="10.626775"><ele>120.0</ele><time>2026-03-29T09:42:29.45Z</time></trkpt><trkpt lat="45.4041717" lon="10.6267517"><ele>121.5</ele><time>2026-03-29T09:42:30.45Z</time></trkpt><trkpt lat="45.4040167" lon="10.626755"><ele>123.0</ele><time>2026-03-29T09:42:31.45Z</time></trkpt><trkpt lat="45.40387" lon="10.6267667"><ele>123.2</ele><time>2026-03-29T09:42:32.45Z</time></trkpt><trkpt lat="45.4037367" lon="10.6267933"><ele>123.4</ele><time>2026-03-29T09:42:33.45Z</time></trkpt><trkpt lat="45.4036267" lon="10.6268083"><ele>123.60000000000001</ele><time>2026-03-29T09:42:34.45Z</time></trkpt><trkpt lat="45.4035267" lon="10.6268017"><ele>123.80000000000001</ele><time>2026-03-29T09:42:35.45Z</time></trkpt><trkpt lat="45.4034567" lon="10.6267617"><ele>124.0</ele><time>2026-03-29T09:42:36.45Z</time></trkpt><trkpt lat="45.403365" lon="10.6266883"><ele>124.0</ele><time>2026-03-29T09:42:38.45Z</time></trkpt><trkpt lat="45.4033417" lon="10.6266"><ele>124.0</ele><time>2026-03-29T09:42:40.449Z</time></trkpt><trkpt lat="45.4033717" lon="10.6264767"><ele>124.0</ele><time>2026-03-29T09:42:42.449Z</time></trkpt><trkpt lat="45.4033933" lon="10.6263717"><ele>124.0</ele><time>2026-03-29T09:42:43.45Z</time></trkpt><trkpt lat="45.4034317" lon="10.626225"><ele>124.0</ele><time>2026-03-29T09:42:44.45Z</time></trkpt><trkpt lat="45.4034633" lon="10.6260783"><ele>124.00000000000001</ele><time>2026-03-29T09:42:45.45Z</time></trkpt><trkpt lat="45.403485" lon="10.6259633"><ele>124.0</ele><time>2026-03-29T09:42:46.45Z</time></trkpt><trkpt lat="45.4035117" lon="10.6258467"><ele>124.0</ele><time>2026-03-29T09:42:48.45Z</time></trkpt><trkpt lat="45.4034933" lon="10.6257067"><ele>124.0</ele><time>2026-03-29T09:42:50.45Z</time></trkpt><trkpt lat="45.4034917" lon="10.6256167"><ele>124.00000000000001</ele><time>2026-03-29T09:42:51.45Z</time></trkpt><trkpt lat="45.4034883" lon="10.6255233"><ele>124.0</ele><time>2026-03-29T09:42:52.45Z</time></trkpt><trkpt lat="45.4035017" lon="10.625425"><ele>124.00000000000001</ele><time>2026-03-29T09:42:53.449Z</time></trkpt><trkpt lat="45.4035317" lon="10.6253417"><ele>124.0</ele><time>2026-03-29T09:42:54.45Z</time></trkpt><trkpt lat="45.4035683" lon="10.6252617"><ele>124.0</ele><time>2026-03-29T09:42:55.45Z</time></trkpt><trkpt lat="45.40361" lon="10.625175"><ele>124.0</ele><time>2026-03-29T09:42:56.45Z</time></trkpt><trkpt lat="45.40368" lon="10.6250867"><ele>124.00000000000001</ele><time>2026-03-29T09:42:57.45Z</time></trkpt><trkpt lat="45.4037683" lon="10.624985"><ele>124.0</ele><time>2026-03-29T09:42:58.45Z</time></trkpt><trkpt lat="45.4038583" lon="10.6248783"><ele>122.83333333333334</ele><time>2026-03-29T09:42:59.45Z</time></trkpt><trkpt lat="45.4039367" lon="10.6247833"><ele>121.66666666666667</ele><time>2026-03-29T09:43:00.449Z</time></trkpt><trkpt lat="45.4039883" lon="10.6247"><ele>120.5</ele><time>2026-03-29T09:43:01.45Z</time></trkpt><trkpt lat="45.4040183" lon="10.6246133"><ele>119.33333333333334</ele><time>2026-03-29T09:43:02.45Z</time></trkpt><trkpt lat="45.4040317" lon="10.6245133"><ele>118.16666666666667</ele><time>2026-03-29T09:43:03.45Z</time></trkpt><trkpt lat="45.4040017" lon="10.6244167"><ele>117.0</ele><time>2026-03-29T09:43:04.45Z</time></trkpt><trkpt lat="45.4039533" lon="10.6243083"><ele>116.19999999999999</ele><time>2026-03-29T09:43:05.45Z</time></trkpt><trkpt lat="45.4038933" lon="10.624165"><ele>115.39999999999999</ele><time>2026-03-29T09:43:06.45Z</time></trkpt><trkpt lat="45.4038283" lon="10.6240267"><ele>114.60000000000001</ele><time>2026-03-29T09:43:07.45Z</time></trkpt><trkpt lat="45.4037783" lon="10.6239117"><ele>113.80000000000001</ele><time>2026-03-29T09:43:08.45Z</time></trkpt><trkpt lat="45.40374" lon="10.6238383"><ele>113.0</ele><time>2026-03-29T09:43:09.45Z</time></trkpt><trkpt lat="45.403655" lon="10.6237083"><ele>111.99999999999999</ele><time>2026-03-29T09:43:11.45Z</time></trkpt><trkpt lat="45.4035933" lon="10.62361"><ele>111.0</ele><time>2026-03-29T09:43:12.45Z</time></trkpt><trkpt lat="45.4035333" lon="10.623505"><ele>110.0</ele><time>2026-03-29T09:43:13.45Z</time></trkpt><trkpt lat="45.40348" lon="10.6234133"><ele>109.0</ele><time>2026-03-29T09:43:14.45Z</time></trkpt><trkpt lat="45.4034383" lon="10.6233083"><ele>107.99999999999999</ele><time>2026-03-29T09:43:15.45Z</time></trkpt><trkpt lat="45.403415" lon="10.6231967"><ele>107.0</ele><time>2026-03-29T09:43:16.45Z</time></trkpt><trkpt lat="45.403415" lon="10.6230667"><ele>107.0</ele><time>2026-03-29T09:43:17.45Z</time></trkpt><trkpt lat="45.4034417" lon="10.6229233"><ele>107.0</ele><time>2026-03-29T09:43:18.45Z</time></trkpt><trkpt lat="45.4035117" lon="10.6227533"><ele>107.0</ele><time>2026-03-29T09:43:19.45Z</time></trkpt><trkpt lat="45.4035833" lon="10.622595"><ele>107.0</ele><time>2026-03-29T09:43:20.45Z</time></trkpt><trkpt lat="45.4036283" lon="10.62242"><ele>105.33333333333333</ele><time>2026-03-29T09:43:21.45Z</time></trkpt><trkpt lat="45.4036683" lon="10.62224"><ele>103.66666666666666</ele><time>2026-03-29T09:43:22.449Z</time></trkpt><trkpt lat="45.4037017" lon="10.622015"><ele>102.0</ele><time>2026-03-29T09:43:23.45Z</time></trkpt><trkpt lat="45.403725" lon="10.6217583"><ele>100.0</ele><time>2026-03-29T09:43:24.45Z</time></trkpt><trkpt lat="45.4037567" lon="10.6214883"><ele>98.0</ele><time>2026-03-29T09:43:25.45Z</time></trkpt><trkpt lat="45.4037883" lon="10.6212233"><ele>96.0</ele><time>2026-03-29T09:43:26.45Z</time></trkpt><trkpt lat="45.4038267" lon="10.6209867"><ele>95.25</ele><time>2026-03-29T09:43:27.45Z</time></trkpt><trkpt lat="45.4038667" lon="10.6207717"><ele>94.5</ele><time>2026-03-29T09:43:28.45Z</time></trkpt><trkpt lat="45.40392" lon="10.6205767"><ele>93.75</ele><time>2026-03-29T09:43:29.45Z</time></trkpt><trkpt lat="45.4039917" lon="10.6204183"><ele>93.0</ele><time>2026-03-29T09:43:30.45Z</time></trkpt><trkpt lat="45.4040883" lon="10.6202783"><ele>93.0</ele><time>2026-03-29T09:43:31.45Z</time></trkpt><trkpt lat="45.404185" lon="10.6201533"><ele>93.0</ele><time>2026-03-29T09:43:32.45Z</time></trkpt><trkpt lat="45.4042767" lon="10.6200333"><ele>93.0</ele><time>2026-03-29T09:43:33.45Z</time></trkpt><trkpt lat="45.4043733" lon="10.61992"><ele>93.0</ele><time>2026-03-29T09:43:34.449Z</time></trkpt><trkpt lat="45.4044633" lon="10.6198267"><ele>93.0</ele><time>2026-03-29T09:43:35.45Z</time></trkpt><trkpt lat="45.404545" lon="10.6197217"><ele>93.0</ele><time>2026-03-29T09:43:36.45Z</time></trkpt><trkpt lat="45.404645" lon="10.6196233"><ele>93.0</ele><time>2026-03-29T09:43:37.45Z</time></trkpt><trkpt lat="45.40476" lon="10.6195333"><ele>93.0</ele><time>2026-03-29T09:43:38.45Z</time></trkpt><trkpt lat="45.4048617" lon="10.619425"><ele>92.25</ele><time>2026-03-29T09:43:39.45Z</time></trkpt><trkpt lat="45.4050083" lon="10.61934"><ele>91.5</ele><time>2026-03-29T09:43:40.45Z</time></trkpt><trkpt lat="45.4051567" lon="10.6192533"><ele>90.75</ele><time>2026-03-29T09:43:41.45Z</time></trkpt><trkpt lat="45.4052733" lon="10.6191833"><ele>90.0</ele><time>2026-03-29T09:43:42.45Z</time></trkpt><trkpt lat="45.4053767" lon="10.6191333"><ele>90.0</ele><time>2026-03-29T09:43:43.449Z</time></trkpt><trkpt lat="45.4054783" lon="10.61912"><ele>90.0</ele><time>2026-03-29T09:43:44.45Z</time></trkpt><trkpt lat="45.4055933" lon="10.6191433"><ele>90.0</ele><time>2026-03-29T09:43:45.45Z</time></trkpt><trkpt lat="45.4057217" lon="10.6191967"><ele>90.0</ele><time>2026-03-29T09:43:46.45Z</time></trkpt><trkpt lat="45.40586" lon="10.6192683"><ele>90.25</ele><time>2026-03-29T09:43:47.45Z</time></trkpt><trkpt lat="45.4060083" lon="10.6193517"><ele>90.5</ele><time>2026-03-29T09:43:48.45Z</time></trkpt><trkpt lat="45.406135" lon="10.6194167"><ele>90.75</ele><time>2026-03-29T09:43:49.45Z</time></trkpt><trkpt lat="45.4062567" lon="10.6194667"><ele>91.0</ele><time>2026-03-29T09:43:50.45Z</time></trkpt><trkpt lat="45.4063667" lon="10.6194767"><ele>91.0</ele><time>2026-03-29T09:43:51.45Z</time></trkpt><trkpt lat="45.4064683" lon="10.6194733"><ele>91.0</ele><time>2026-03-29T09:43:52.45Z</time></trkpt><trkpt lat="45.40656" lon="10.6194317"><ele>91.0</ele><time>2026-03-29T09:43:53.45Z</time></trkpt><trkpt lat="45.4066367" lon="10.61936"><ele>91.0</ele><time>2026-03-29T09:43:54.45Z</time></trkpt><trkpt lat="45.406695" lon="10.6192467"><ele>91.0</ele><time>2026-03-29T09:43:55.45Z</time></trkpt><trkpt lat="45.4067283" lon="10.619105"><ele>91.0</ele><time>2026-03-29T09:43:56.45Z</time></trkpt><trkpt lat="45.4067283" lon="10.6189617"><ele>91.0</ele><time>2026-03-29T09:43:57.45Z</time></trkpt><trkpt lat="45.406705" lon="10.6188233"><ele>91.0</ele><time>2026-03-29T09:43:58.45Z</time></trkpt><trkpt lat="45.406675" lon="10.6187217"><ele>91.0</ele><time>2026-03-29T09:43:59.45Z</time></trkpt><trkpt lat="45.406585" lon="10.61862"><ele>91.0</ele><time>2026-03-29T09:44:01.45Z</time></trkpt><trkpt lat="45.4065183" lon="10.6185567"><ele>91.0</ele><time>2026-03-29T09:44:02.45Z</time></trkpt><trkpt lat="45.4064317" lon="10.618465"><ele>91.0</ele><time>2026-03-29T09:44:03.45Z</time></trkpt><trkpt lat="45.40633" lon="10.61835"><ele>91.0</ele><time>2026-03-29T09:44:04.449Z</time></trkpt><trkpt lat="45.4062167" lon="10.618215"><ele>91.0</ele><time>2026-03-29T09:44:05.449Z</time></trkpt><trkpt lat="45.4061" lon="10.6180633"><ele>91.0</ele><time>2026-03-29T09:44:06.449Z</time></trkpt><trkpt lat="45.405985" lon="10.6179283"><ele>91.0</ele><time>2026-03-29T09:44:07.449Z</time></trkpt><trkpt lat="45.405865" lon="10.61782"><ele>91.0</ele><time>2026-03-29T09:44:08.449Z</time></trkpt><trkpt lat="45.4057467" lon="10.6177267"><ele>91.0</ele><time>2026-03-29T09:44:09.449Z</time></trkpt><trkpt lat="45.405645" lon="10.6176317"><ele>90.8</ele><time>2026-03-29T09:44:10.449Z</time></trkpt><trkpt lat="45.4055567" lon="10.6175383"><ele>90.6</ele><time>2026-03-29T09:44:11.449Z</time></trkpt><trkpt lat="45.4055033" lon="10.6174283"><ele>90.4</ele><time>2026-03-29T09:44:12.449Z</time></trkpt><trkpt lat="45.4054767" lon="10.617285"><ele>90.2</ele><time>2026-03-29T09:44:13.448Z</time></trkpt><trkpt lat="45.4054667" lon="10.6171233"><ele>90.0</ele><time>2026-03-29T09:44:14.449Z</time></trkpt><trkpt lat="45.4054567" lon="10.616945"><ele>90.5</ele><time>2026-03-29T09:44:15.449Z</time></trkpt><trkpt lat="45.4054333" lon="10.6167567"><ele>91.0</ele><time>2026-03-29T09:44:16.449Z</time></trkpt><trkpt lat="45.40542" lon="10.6165583"><ele>91.5</ele><time>2026-03-29T09:44:17.449Z</time></trkpt><trkpt lat="45.4054133" lon="10.6163467"><ele>92.0</ele><time>2026-03-29T09:44:18.449Z</time></trkpt><trkpt lat="45.4054083" lon="10.616115"><ele>92.33333333333334</ele><time>2026-03-29T09:44:19.448Z</time></trkpt><trkpt lat="45.405415" lon="10.6158817"><ele>92.66666666666667</ele><time>2026-03-29T09:44:20.449Z</time></trkpt><trkpt lat="45.405425" lon="10.6156267"><ele>93.0</ele><time>2026-03-29T09:44:21.449Z</time></trkpt><trkpt lat="45.4054317" lon="10.6153783"><ele>93.0</ele><time>2026-03-29T09:44:22.449Z</time></trkpt><trkpt lat="45.4054333" lon="10.6151433"><ele>93.0</ele><time>2026-03-29T09:44:23.449Z</time></trkpt><trkpt lat="45.405445" lon="10.6149317"><ele>93.0</ele><time>2026-03-29T09:44:24.449Z</time></trkpt><trkpt lat="45.4054667" lon="10.6147367"><ele>93.0</ele><time>2026-03-29T09:44:25.449Z</time></trkpt><trkpt lat="45.4054867" lon="10.61456"><ele>93.0</ele><time>2026-03-29T09:44:26.449Z</time></trkpt><trkpt lat="45.4055217" lon="10.6143983"><ele>93.0</ele><time>2026-03-29T09:44:27.448Z</time></trkpt><trkpt lat="45.4055433" lon="10.6142583"><ele>93.0</ele><time>2026-03-29T09:44:28.449Z</time></trkpt><trkpt lat="45.4055567" lon="10.6141133"><ele>93.0</ele><time>2026-03-29T09:44:29.449Z</time></trkpt><trkpt lat="45.405555" lon="10.6139733"><ele>94.75</ele><time>2026-03-29T09:44:30.448Z</time></trkpt><trkpt lat="45.4055483" lon="10.6138167"><ele>96.5</ele><time>2026-03-29T09:44:31.449Z</time></trkpt><trkpt lat="45.4055417" lon="10.6136533"><ele>98.25</ele><time>2026-03-29T09:44:32.449Z</time></trkpt><trkpt lat="45.4055267" lon="10.6134867"><ele>100.0</ele><time>2026-03-29T09:44:33.449Z</time></trkpt><trkpt lat="45.4055117" lon="10.6133133"><ele>100.0</ele><time>2026-03-29T09:44:34.449Z</time></trkpt><trkpt lat="45.4055017" lon="10.613135"><ele>100.0</ele><time>2026-03-29T09:44:35.449Z</time></trkpt><trkpt lat="45.4055017" lon="10.61296"><ele>100.0</ele><time>2026-03-29T09:44:36.449Z</time></trkpt><trkpt lat="45.4055183" lon="10.6127983"><ele>100.0</ele><time>2026-03-29T09:44:37.449Z</time></trkpt><trkpt lat="45.4055417" lon="10.6126533"><ele>100.0</ele><time>2026-03-29T09:44:38.449Z</time></trkpt><trkpt lat="45.4055433" lon="10.6125117"><ele>100.0</ele><time>2026-03-29T09:44:39.449Z</time></trkpt><trkpt lat="45.40553" lon="10.612385"><ele>100.0</ele><time>2026-03-29T09:44:40.449Z</time></trkpt><trkpt lat="45.4054917" lon="10.6122733"><ele>100.0</ele><time>2026-03-29T09:44:41.448Z</time></trkpt><trkpt lat="45.4054317" lon="10.6121717"><ele>100.0</ele><time>2026-03-29T09:44:42.449Z</time></trkpt><trkpt lat="45.4053367" lon="10.6120833"><ele>99.5</ele><time>2026-03-29T09:44:43.449Z</time></trkpt><trkpt lat="45.4052267" lon="10.6119883"><ele>99.0</ele><time>2026-03-29T09:44:44.449Z</time></trkpt><trkpt lat="45.4051133" lon="10.6119133"><ele>98.5</ele><time>2026-03-29T09:44:45.449Z</time></trkpt><trkpt lat="45.405015" lon="10.6118367"><ele>98.0</ele><time>2026-03-29T09:44:46.449Z</time></trkpt><trkpt lat="45.4049467" lon="10.6117417"><ele>98.0</ele><time>2026-03-29T09:44:47.449Z</time></trkpt><trkpt lat="45.4049033" lon="10.61167"><ele>98.0</ele><time>2026-03-29T09:44:48.449Z</time></trkpt><trkpt lat="45.4048783" lon="10.6115017"><ele>98.0</ele><time>2026-03-29T09:44:50.449Z</time></trkpt><trkpt lat="45.4048817" lon="10.6113817"><ele>98.0</ele><time>2026-03-29T09:44:51.449Z</time></trkpt><trkpt lat="45.4048667" lon="10.6112417"><ele>98.0</ele><time>2026-03-29T09:44:52.449Z</time></trkpt><trkpt lat="45.4048433" lon="10.61108"><ele>98.25</ele><time>2026-03-29T09:44:53.449Z</time></trkpt><trkpt lat="45.4048283" lon="10.6109067"><ele>98.5</ele><time>2026-03-29T09:44:54.449Z</time></trkpt><trkpt lat="45.40482" lon="10.6107167"><ele>98.75</ele><time>2026-03-29T09:44:55.449Z</time></trkpt><trkpt lat="45.404825" lon="10.6105167"><ele>99.0</ele><time>2026-03-29T09:44:56.449Z</time></trkpt><trkpt lat="45.4048367" lon="10.6102883"><ele>99.0</ele><time>2026-03-29T09:44:57.449Z</time></trkpt><trkpt lat="45.4048433" lon="10.61005"><ele>99.0</ele><time>2026-03-29T09:44:58.449Z</time></trkpt><trkpt lat="45.4048617" lon="10.6098033"><ele>99.0</ele><time>2026-03-29T09:44:59.449Z</time></trkpt><trkpt lat="45.4048883" lon="10.6095767"><ele>99.66666666666666</ele><time>2026-03-29T09:45:00.449Z</time></trkpt><trkpt lat="45.4049217" lon="10.6093183"><ele>100.33333333333333</ele><time>2026-03-29T09:45:01.449Z</time></trkpt><trkpt lat="45.40496" lon="10.6090667"><ele>101.0</ele><time>2026-03-29T09:45:02.449Z</time></trkpt><trkpt lat="45.404985" lon="10.6088567"><ele>101.0</ele><time>2026-03-29T09:45:03.449Z</time></trkpt><trkpt lat="45.4050033" lon="10.6086417"><ele>101.0</ele><time>2026-03-29T09:45:04.449Z</time></trkpt><trkpt lat="45.4050167" lon="10.6084017"><ele>101.0</ele><time>2026-03-29T09:45:05.449Z</time></trkpt><trkpt lat="45.40503" lon="10.6081333"><ele>101.0</ele><time>2026-03-29T09:45:06.449Z</time></trkpt><trkpt lat="45.40503" lon="10.6078617"><ele>101.0</ele><time>2026-03-29T09:45:07.449Z</time></trkpt><trkpt lat="45.4050317" lon="10.60761"><ele>101.0</ele><time>2026-03-29T09:45:08.449Z</time></trkpt><trkpt lat="45.40504" lon="10.6073917"><ele>100.5</ele><time>2026-03-29T09:45:09.448Z</time></trkpt><trkpt lat="45.4050467" lon="10.6072183"><ele>100.0</ele><time>2026-03-29T09:45:10.449Z</time></trkpt><trkpt lat="45.405045" lon="10.6070633"><ele>99.5</ele><time>2026-03-29T09:45:11.449Z</time></trkpt><trkpt lat="45.405055" lon="10.6069167"><ele>99.0</ele><time>2026-03-29T09:45:12.449Z</time></trkpt><trkpt lat="45.405075" lon="10.6067433"><ele>98.75</ele><time>2026-03-29T09:45:13.449Z</time></trkpt><trkpt lat="45.4051017" lon="10.6065433"><ele>98.5</ele><time>2026-03-29T09:45:14.449Z</time></trkpt><trkpt lat="45.4051267" lon="10.60635"><ele>98.25</ele><time>2026-03-29T09:45:15.448Z</time></trkpt><trkpt lat="45.40515" lon="10.6061817"><ele>98.0</ele><time>2026-03-29T09:45:16.449Z</time></trkpt><trkpt lat="45.405175" lon="10.6060017"><ele>98.0</ele><time>2026-03-29T09:45:17.449Z</time></trkpt><trkpt lat="45.4052017" lon="10.60582"><ele>98.0</ele><time>2026-03-29T09:45:18.449Z</time></trkpt><trkpt lat="45.4052317" lon="10.605635"><ele>98.0</ele><time>2026-03-29T09:45:19.449Z</time></trkpt><trkpt lat="45.405245" lon="10.6054333"><ele>98.0</ele><time>2026-03-29T09:45:20.449Z</time></trkpt><trkpt lat="45.405245" lon="10.6052367"><ele>98.0</ele><time>2026-03-29T09:45:21.448Z</time></trkpt><trkpt lat="45.40524" lon="10.6050933"><ele>98.0</ele><time>2026-03-29T09:45:22.449Z</time></trkpt><trkpt lat="45.4052183" lon="10.6049817"><ele>98.0</ele><time>2026-03-29T09:45:23.449Z</time></trkpt><trkpt lat="45.4051767" lon="10.6048683"><ele>98.0</ele><time>2026-03-29T09:45:24.449Z</time></trkpt><trkpt lat="45.40512" lon="10.6047517"><ele>98.0</ele><time>2026-03-29T09:45:25.449Z</time></trkpt><trkpt lat="45.4050533" lon="10.6046217"><ele>98.0</ele><time>2026-03-29T09:45:26.449Z</time></trkpt><trkpt lat="45.4049867" lon="10.6045133"><ele>98.0</ele><time>2026-03-29T09:45:27.448Z</time></trkpt><trkpt lat="45.4049217" lon="10.6044117"><ele>98.0</ele><time>2026-03-29T09:45:28.449Z</time></trkpt><trkpt lat="45.404865" lon="10.604315"><ele>98.0</ele><time>2026-03-29T09:45:29.449Z</time></trkpt><trkpt lat="45.4048067" lon="10.60424"><ele>98.0</ele><time>2026-03-29T09:45:30.449Z</time></trkpt><trkpt lat="45.404715" lon="10.60417"><ele>97.16666666666666</ele><time>2026-03-29T09:45:32.449Z</time></trkpt><trkpt lat="45.4046233" lon="10.6041833"><ele>96.33333333333333</ele><time>2026-03-29T09:45:34.449Z</time></trkpt><trkpt lat="45.4044967" lon="10.6042067"><ele>95.5</ele><time>2026-03-29T09:45:36.448Z</time></trkpt><trkpt lat="45.40443" lon="10.6041917"><ele>94.66666666666666</ele><time>2026-03-29T09:45:37.449Z</time></trkpt><trkpt lat="45.4043683" lon="10.6041683"><ele>93.83333333333333</ele><time>2026-03-29T09:45:38.449Z</time></trkpt><trkpt lat="45.404305" lon="10.6041333"><ele>93.0</ele><time>2026-03-29T09:45:39.449Z</time></trkpt><trkpt lat="45.40425" lon="10.604085"><ele>93.0</ele><time>2026-03-29T09:45:40.449Z</time></trkpt><trkpt lat="45.40419" lon="10.604045"><ele>93.0</ele><time>2026-03-29T09:45:41.448Z</time></trkpt><trkpt lat="45.404115" lon="10.603995"><ele>93.0</ele><time>2026-03-29T09:45:43.449Z</time></trkpt><trkpt lat="45.40404" lon="10.6039233"><ele>93.0</ele><time>2026-03-29T09:45:45.449Z</time></trkpt><trkpt lat="45.4039833" lon="10.603865"><ele>93.0</ele><time>2026-03-29T09:45:46.449Z</time></trkpt><trkpt lat="45.40393" lon="10.603795"><ele>93.0</ele><time>2026-03-29T09:45:47.449Z</time></trkpt><trkpt lat="45.4038967" lon="10.60371"><ele>93.0</ele><time>2026-03-29T09:45:48.449Z</time></trkpt><trkpt lat="45.4039033" lon="10.6035567"><ele>93.0</ele><time>2026-03-29T09:45:50.448Z</time></trkpt><trkpt lat="45.40393" lon="10.6034633"><ele>93.0</ele><time>2026-03-29T09:45:51.449Z</time></trkpt><trkpt lat="45.4039617" lon="10.603355"><ele>93.0</ele><time>2026-03-29T09:45:52.449Z</time></trkpt><trkpt lat="45.4039883" lon="10.60326"><ele>93.0</ele><time>2026-03-29T09:45:53.449Z</time></trkpt><trkpt lat="45.4039767" lon="10.6031367"><ele>93.0</ele><time>2026-03-29T09:45:55.449Z</time></trkpt><trkpt lat="45.4039217" lon="10.6030767"><ele>93.33333333333333</ele><time>2026-03-29T09:45:57.449Z</time></trkpt><trkpt lat="45.4038267" lon="10.603065"><ele>93.66666666666667</ele><time>2026-03-29T09:45:59.449Z</time></trkpt><trkpt lat="45.4037633" lon="10.6030667"><ele>94.0</ele><time>2026-03-29T09:46:00.448Z</time></trkpt><trkpt lat="45.4036883" lon="10.6030533"><ele>94.33333333333334</ele><time>2026-03-29T09:46:01.448Z</time></trkpt><trkpt lat="45.403615" lon="10.6030383"><ele>94.66666666666667</ele><time>2026-03-29T09:46:02.449Z</time></trkpt><trkpt lat="45.4035317" lon="10.6030217"><ele>95.0</ele><time>2026-03-29T09:46:03.449Z</time></trkpt><trkpt lat="45.403445" lon="10.6030033"><ele>95.0</ele><time>2026-03-29T09:46:04.449Z</time></trkpt><trkpt lat="45.40335" lon="10.6029717"><ele>95.0</ele><time>2026-03-29T09:46:05.449Z</time></trkpt><trkpt lat="45.4032567" lon="10.60295"><ele>95.0</ele><time>2026-03-29T09:46:06.449Z</time></trkpt><trkpt lat="45.4031833" lon="10.60292"><ele>95.0</ele><time>2026-03-29T09:46:07.449Z</time></trkpt><trkpt lat="45.4031183" lon="10.60287"><ele>95.0</ele><time>2026-03-29T09:46:08.449Z</time></trkpt><trkpt lat="45.4030567" lon="10.60283"><ele>95.0</ele><time>2026-03-29T09:46:09.449Z</time></trkpt><trkpt lat="45.4029833" lon="10.60275"><ele>95.25</ele><time>2026-03-29T09:46:11.449Z</time></trkpt><trkpt lat="45.40296" lon="10.60263"><ele>95.5</ele><time>2026-03-29T09:46:13.449Z</time></trkpt><trkpt lat="45.4029883" lon="10.6024333"><ele>95.75</ele><time>2026-03-29T09:46:15.449Z</time></trkpt><trkpt lat="45.4029967" lon="10.6022933"><ele>96.0</ele><time>2026-03-29T09:46:16.449Z</time></trkpt><trkpt lat="45.4030017" lon="10.602105"><ele>96.0</ele><time>2026-03-29T09:46:17.449Z</time></trkpt><trkpt lat="45.4030083" lon="10.601885"><ele>96.0</ele><time>2026-03-29T09:46:18.449Z</time></trkpt><trkpt lat="45.4030067" lon="10.6016367"><ele>96.0</ele><time>2026-03-29T09:46:19.449Z</time></trkpt><trkpt lat="45.403015" lon="10.6014067"><ele>96.0</ele><time>2026-03-29T09:46:20.449Z</time></trkpt><trkpt lat="45.4030333" lon="10.6011983"><ele>96.0</ele><time>2026-03-29T09:46:21.449Z</time></trkpt><trkpt lat="45.403045" lon="10.60099"><ele>96.0</ele><time>2026-03-29T09:46:22.449Z</time></trkpt><trkpt lat="45.4030533" lon="10.60079"><ele>96.0</ele><time>2026-03-29T09:46:23.449Z</time></trkpt><trkpt lat="45.4030617" lon="10.6005967"><ele>96.0</ele><time>2026-03-29T09:46:24.449Z</time></trkpt><trkpt lat="45.40306" lon="10.6004"><ele>96.0</ele><time>2026-03-29T09:46:25.449Z</time></trkpt><trkpt lat="45.403045" lon="10.6001983"><ele>96.0</ele><time>2026-03-29T09:46:26.449Z</time></trkpt><trkpt lat="45.40303" lon="10.5999967"><ele>96.0</ele><time>2026-03-29T09:46:27.449Z</time></trkpt><trkpt lat="45.403005" lon="10.5998067"><ele>96.25</ele><time>2026-03-29T09:46:28.449Z</time></trkpt><trkpt lat="45.4030033" lon="10.5996333"><ele>96.5</ele><time>2026-03-29T09:46:29.449Z</time></trkpt><trkpt lat="45.403025" lon="10.5994783"><ele>96.75</ele><time>2026-03-29T09:46:30.449Z</time></trkpt><trkpt lat="45.4030417" lon="10.5993083"><ele>97.0</ele><time>2026-03-29T09:46:31.449Z</time></trkpt><trkpt lat="45.40304" lon="10.5991133"><ele>97.0</ele><time>2026-03-29T09:46:32.449Z</time></trkpt><trkpt lat="45.40303" lon="10.5989167"><ele>97.0</ele><time>2026-03-29T09:46:33.449Z</time></trkpt><trkpt lat="45.40302" lon="10.5987517"><ele>97.0</ele><time>2026-03-29T09:46:34.449Z</time></trkpt><trkpt lat="45.4030183" lon="10.5986033"><ele>97.0</ele><time>2026-03-29T09:46:35.449Z</time></trkpt><trkpt lat="45.4030283" lon="10.5984733"><ele>96.83333333333334</ele><time>2026-03-29T09:46:36.449Z</time></trkpt><trkpt lat="45.4030383" lon="10.5983483"><ele>96.66666666666667</ele><time>2026-03-29T09:46:37.449Z</time></trkpt><trkpt lat="45.4030433" lon="10.5982367"><ele>96.5</ele><time>2026-03-29T09:46:38.449Z</time></trkpt><trkpt lat="45.4030483" lon="10.59813"><ele>96.33333333333334</ele><time>2026-03-29T09:46:39.449Z</time></trkpt><trkpt lat="45.40305" lon="10.598025"><ele>96.16666666666667</ele><time>2026-03-29T09:46:40.449Z</time></trkpt><trkpt lat="45.4030533" lon="10.5979133"><ele>96.0</ele><time>2026-03-29T09:46:41.449Z</time></trkpt><trkpt lat="45.4030517" lon="10.5977967"><ele>95.8</ele><time>2026-03-29T09:46:42.449Z</time></trkpt><trkpt lat="45.40305" lon="10.5976833"><ele>95.6</ele><time>2026-03-29T09:46:43.449Z</time></trkpt><trkpt lat="45.40305" lon="10.597585"><ele>95.4</ele><time>2026-03-29T09:46:44.449Z</time></trkpt><trkpt lat="45.403095" lon="10.5974667"><ele>95.2</ele><time>2026-03-29T09:46:46.449Z</time></trkpt><trkpt lat="45.4032067" lon="10.59749"><ele>95.0</ele><time>2026-03-29T09:46:48.449Z</time></trkpt><trkpt lat="45.4033183" lon="10.5975033"><ele>95.0</ele><time>2026-03-29T09:46:50.449Z</time></trkpt><trkpt lat="45.4033867" lon="10.5973883"><ele>95.0</ele><time>2026-03-29T09:46:52.449Z</time></trkpt><trkpt lat="45.403385" lon="10.5972167"><ele>95.0</ele><time>2026-03-29T09:46:54.449Z</time></trkpt><trkpt lat="45.4033817" lon="10.5970517"><ele>95.0</ele><time>2026-03-29T09:46:56.449Z</time></trkpt><trkpt lat="45.40336" lon="10.5968967"><ele>95.16666666666667</ele><time>2026-03-29T09:46:58.449Z</time></trkpt><trkpt lat="45.4032933" lon="10.596845"><ele>95.33333333333334</ele><time>2026-03-29T09:47:00.449Z</time></trkpt><trkpt lat="45.4032" lon="10.5968567"><ele>95.5</ele><time>2026-03-29T09:47:02.449Z</time></trkpt><trkpt lat="45.40308" lon="10.5968767"><ele>95.66666666666667</ele><time>2026-03-29T09:47:04.449Z</time></trkpt><trkpt lat="45.4030167" lon="10.596885"><ele>95.83333333333333</ele><time>2026-03-29T09:47:05.449Z</time></trkpt><trkpt lat="45.4029433" lon="10.5968967"><ele>96.0</ele><time>2026-03-29T09:47:06.449Z</time></trkpt><trkpt lat="45.4028683" lon="10.5969033"><ele>97.0</ele><time>2026-03-29T09:47:07.449Z</time></trkpt><trkpt lat="45.402795" lon="10.5968933"><ele>98.0</ele><time>2026-03-29T09:47:08.449Z</time></trkpt><trkpt lat="45.4027083" lon="10.596875"><ele>99.0</ele><time>2026-03-29T09:47:09.449Z</time></trkpt><trkpt lat="45.40263" lon="10.5968667"><ele>100.0</ele><time>2026-03-29T09:47:10.449Z</time></trkpt><trkpt lat="45.40255" lon="10.596855"><ele>101.0</ele><time>2026-03-29T09:47:11.448Z</time></trkpt><trkpt lat="45.40247" lon="10.5968483"><ele>102.0</ele><time>2026-03-29T09:47:12.449Z</time></trkpt><trkpt lat="45.4023817" lon="10.5968283"><ele>102.0</ele><time>2026-03-29T09:47:13.449Z</time></trkpt><trkpt lat="45.402295" lon="10.5968133"><ele>102.0</ele><time>2026-03-29T09:47:14.449Z</time></trkpt><trkpt lat="45.4021833" lon="10.5967817"><ele>102.0</ele><time>2026-03-29T09:47:15.448Z</time></trkpt><trkpt lat="45.4020733" lon="10.59675"><ele>102.0</ele><time>2026-03-29T09:47:16.449Z</time></trkpt><trkpt lat="45.401985" lon="10.5967333"><ele>102.0</ele><time>2026-03-29T09:47:17.449Z</time></trkpt><trkpt lat="45.4019083" lon="10.59671"><ele>103.39999999999999</ele><time>2026-03-29T09:47:18.449Z</time></trkpt><trkpt lat="45.4018433" lon="10.5967033"><ele>104.8</ele><time>2026-03-29T09:47:19.449Z</time></trkpt><trkpt lat="45.4017417" lon="10.5967267"><ele>106.2</ele><time>2026-03-29T09:47:21.448Z</time></trkpt><trkpt lat="45.4016683" lon="10.5968267"><ele>107.6</ele><time>2026-03-29T09:47:23.449Z</time></trkpt><trkpt lat="45.4016017" lon="10.5969733"><ele>109.0</ele><time>2026-03-29T09:47:25.449Z</time></trkpt><trkpt lat="45.401535" lon="10.5970533"><ele>109.66666666666667</ele><time>2026-03-29T09:47:27.449Z</time></trkpt><trkpt lat="45.4014533" lon="10.59707"><ele>110.33333333333334</ele><time>2026-03-29T09:47:29.449Z</time></trkpt><trkpt lat="45.4013467" lon="10.5970483"><ele>111.0</ele><time>2026-03-29T09:47:31.449Z</time></trkpt><trkpt lat="45.4012833" lon="10.5970433"><ele>111.66666666666666</ele><time>2026-03-29T09:47:32.449Z</time></trkpt><trkpt lat="45.401215" lon="10.5970483"><ele>112.33333333333333</ele><time>2026-03-29T09:47:33.449Z</time></trkpt><trkpt lat="45.40114" lon="10.5970567"><ele>113.0</ele><time>2026-03-29T09:47:34.449Z</time></trkpt><trkpt lat="45.401065" lon="10.5970917"><ele>114.33333333333333</ele><time>2026-03-29T09:47:35.449Z</time></trkpt><trkpt lat="45.40101" lon="10.5971517"><ele>115.66666666666666</ele><time>2026-03-29T09:47:36.449Z</time></trkpt><trkpt lat="45.4009583" lon="10.5972267"><ele>117.0</ele><time>2026-03-29T09:47:37.449Z</time></trkpt><trkpt lat="45.4009067" lon="10.59729"><ele>118.33333333333334</ele><time>2026-03-29T09:47:38.449Z</time></trkpt><trkpt lat="45.4008517" lon="10.597355"><ele>119.66666666666667</ele><time>2026-03-29T09:47:39.448Z</time></trkpt><trkpt lat="45.4007683" lon="10.5974117"><ele>121.0</ele><time>2026-03-29T09:47:40.449Z</time></trkpt><trkpt lat="45.4006667" lon="10.5974583"><ele>121.0</ele><time>2026-03-29T09:47:41.449Z</time></trkpt><trkpt lat="45.4005467" lon="10.5975017"><ele>121.0</ele><time>2026-03-29T09:47:42.449Z</time></trkpt><trkpt lat="45.40042" lon="10.5975467"><ele>121.0</ele><time>2026-03-29T09:47:43.448Z</time></trkpt><trkpt lat="45.4003183" lon="10.5975817"><ele>121.0</ele><time>2026-03-29T09:47:44.449Z</time></trkpt><trkpt lat="45.4002383" lon="10.597595"><ele>121.0</ele><time>2026-03-29T09:47:45.449Z</time></trkpt><trkpt lat="45.400165" lon="10.59761"><ele>120.6</ele><time>2026-03-29T09:47:47.449Z</time></trkpt><trkpt lat="45.40018" lon="10.597495"><ele>120.19999999999999</ele><time>2026-03-29T09:55:37.448Z</time></trkpt><trkpt lat="45.4001633" lon="10.5973983"><ele>119.80000000000001</ele><time>2026-03-29T09:55:38.448Z</time></trkpt><trkpt lat="45.4001417" lon="10.5972617"><ele>119.4</ele><time>2026-03-29T09:55:39.447Z</time></trkpt><trkpt lat="45.4001217" lon="10.5970917"><ele>119.0</ele><time>2026-03-29T09:55:40.448Z</time></trkpt><trkpt lat="45.4000983" lon="10.5969033"><ele>119.0</ele><time>2026-03-29T09:55:41.448Z</time></trkpt><trkpt lat="45.40008" lon="10.5967"><ele>119.0</ele><time>2026-03-29T09:55:42.448Z</time></trkpt><trkpt lat="45.4000733" lon="10.596505"><ele>119.0</ele><time>2026-03-29T09:55:43.448Z</time></trkpt><trkpt lat="45.4000767" lon="10.5962983"><ele>119.0</ele><time>2026-03-29T09:55:44.448Z</time></trkpt><trkpt lat="45.4000967" lon="10.5960633"><ele>118.33333333333333</ele><time>2026-03-29T09:55:45.448Z</time></trkpt><trkpt lat="45.4000983" lon="10.5958367"><ele>117.66666666666666</ele><time>2026-03-29T09:55:46.448Z</time></trkpt><trkpt lat="45.4000917" lon="10.59561"><ele>117.0</ele><time>2026-03-29T09:55:47.448Z</time></trkpt><trkpt lat="45.4000567" lon="10.5953783"><ele>116.33333333333334</ele><time>2026-03-29T09:55:48.448Z</time></trkpt><trkpt lat="45.4000117" lon="10.59515"><ele>115.66666666666667</ele><time>2026-03-29T09:55:49.448Z</time></trkpt><trkpt lat="45.3999433" lon="10.5949167"><ele>115.0</ele><time>2026-03-29T09:55:50.448Z</time></trkpt><trkpt lat="45.399865" lon="10.5946833"><ele>115.33333333333334</ele><time>2026-03-29T09:55:51.448Z</time></trkpt><trkpt lat="45.399765" lon="10.5944533"><ele>115.66666666666666</ele><time>2026-03-29T09:55:52.448Z</time></trkpt><trkpt lat="45.39966" lon="10.59424"><ele>116.0</ele><time>2026-03-29T09:55:53.448Z</time></trkpt><trkpt lat="45.3995683" lon="10.594015"><ele>115.66666666666666</ele><time>2026-03-29T09:55:54.448Z</time></trkpt><trkpt lat="45.3994883" lon="10.5937817"><ele>115.33333333333334</ele><time>2026-03-29T09:55:55.448Z</time></trkpt><trkpt lat="45.3994283" lon="10.5935433"><ele>115.0</ele><time>2026-03-29T09:55:56.448Z</time></trkpt><trkpt lat="45.39939" lon="10.5932967"><ele>115.0</ele><time>2026-03-29T09:55:57.448Z</time></trkpt><trkpt lat="45.399385" lon="10.5930367"><ele>115.0</ele><time>2026-03-29T09:55:58.448Z</time></trkpt><trkpt lat="45.3994" lon="10.592775"><ele>115.0</ele><time>2026-03-29T09:55:59.447Z</time></trkpt><trkpt lat="45.399415" lon="10.5924967"><ele>115.33333333333334</ele><time>2026-03-29T09:56:00.448Z</time></trkpt><trkpt lat="45.3994167" lon="10.59221"><ele>115.66666666666666</ele><time>2026-03-29T09:56:01.448Z</time></trkpt><trkpt lat="45.3993833" lon="10.5919083"><ele>116.0</ele><time>2026-03-29T09:56:02.448Z</time></trkpt><trkpt lat="45.3993383" lon="10.591595"><ele>115.33333333333333</ele><time>2026-03-29T09:56:03.448Z</time></trkpt><trkpt lat="45.3992933" lon="10.5912883"><ele>114.66666666666666</ele><time>2026-03-29T09:56:04.448Z</time></trkpt><trkpt lat="45.399265" lon="10.5909717"><ele>114.0</ele><time>2026-03-29T09:56:05.448Z</time></trkpt><trkpt lat="45.399235" lon="10.5906417"><ele>112.0</ele><time>2026-03-29T09:56:06.448Z</time></trkpt><trkpt lat="45.3991917" lon="10.5903233"><ele>110.0</ele><time>2026-03-29T09:56:07.448Z</time></trkpt><trkpt lat="45.3991433" lon="10.59001"><ele>110.0</ele><time>2026-03-29T09:56:08.448Z</time></trkpt><trkpt lat="45.39909" lon="10.5896783"><ele>110.0</ele><time>2026-03-29T09:56:09.448Z</time></trkpt><trkpt lat="45.399025" lon="10.5893517"><ele>109.0</ele><time>2026-03-29T09:56:10.448Z</time></trkpt><trkpt lat="45.3989417" lon="10.589025"><ele>108.0</ele><time>2026-03-29T09:56:11.448Z</time></trkpt><trkpt lat="45.3988767" lon="10.588685"><ele>108.0</ele><time>2026-03-29T09:56:12.448Z</time></trkpt><trkpt lat="45.398805" lon="10.5883483"><ele>108.0</ele><time>2026-03-29T09:56:13.447Z</time></trkpt><trkpt lat="45.398735" lon="10.588015"><ele>107.0</ele><time>2026-03-29T09:56:14.448Z</time></trkpt><trkpt lat="45.3986483" lon="10.58769"><ele>106.0</ele><time>2026-03-29T09:56:15.448Z</time></trkpt><trkpt lat="45.39857" lon="10.58737"><ele>106.0</ele><time>2026-03-29T09:56:16.448Z</time></trkpt><trkpt lat="45.3985017" lon="10.58706"><ele>106.0</ele><time>2026-03-29T09:56:17.448Z</time></trkpt><trkpt lat="45.398435" lon="10.5867717"><ele>106.0</ele><time>2026-03-29T09:56:18.448Z</time></trkpt><trkpt lat="45.398365" lon="10.586505"><ele>106.0</ele><time>2026-03-29T09:56:19.448Z</time></trkpt><trkpt lat="45.3982933" lon="10.586245"><ele>106.0</ele><time>2026-03-29T09:56:20.448Z</time></trkpt><trkpt lat="45.3982267" lon="10.5860033"><ele>106.0</ele><time>2026-03-29T09:56:21.448Z</time></trkpt><trkpt lat="45.3981583" lon="10.585765"><ele>105.66666666666667</ele><time>2026-03-29T09:56:22.447Z</time></trkpt><trkpt lat="45.398095" lon="10.5855417"><ele>105.33333333333334</ele><time>2026-03-29T09:56:23.448Z</time></trkpt><trkpt lat="45.3980317" lon="10.5853317"><ele>105.0</ele><time>2026-03-29T09:56:24.448Z</time></trkpt><trkpt lat="45.39798" lon="10.5851483"><ele>104.6</ele><time>2026-03-29T09:56:25.448Z</time></trkpt><trkpt lat="45.3979433" lon="10.5850017"><ele>104.2</ele><time>2026-03-29T09:56:26.448Z</time></trkpt><trkpt lat="45.397915" lon="10.5848883"><ele>103.80000000000001</ele><time>2026-03-29T09:56:27.448Z</time></trkpt><trkpt lat="45.397915" lon="10.5847917"><ele>103.4</ele><time>2026-03-29T09:56:29.448Z</time></trkpt><trkpt lat="45.3980233" lon="10.5847867"><ele>103.0</ele><time>2026-03-29T09:56:31.448Z</time></trkpt><trkpt lat="45.39812" lon="10.584795"><ele>103.0</ele><time>2026-03-29T09:56:32.448Z</time></trkpt><trkpt lat="45.3982433" lon="10.5847933"><ele>103.0</ele><time>2026-03-29T09:56:33.448Z</time></trkpt><trkpt lat="45.3983967" lon="10.584795"><ele>103.0</ele><time>2026-03-29T09:56:34.448Z</time></trkpt><trkpt lat="45.3985567" lon="10.58479"><ele>103.0</ele><time>2026-03-29T09:56:35.448Z</time></trkpt><trkpt lat="45.39872" lon="10.5848083"><ele>102.0</ele><time>2026-03-29T09:56:36.448Z</time></trkpt><trkpt lat="45.3988767" lon="10.5848217"><ele>101.0</ele><time>2026-03-29T09:56:37.448Z</time></trkpt><trkpt lat="45.3990417" lon="10.584845"><ele>100.0</ele><time>2026-03-29T09:56:38.448Z</time></trkpt><trkpt lat="45.399215" lon="10.5848767"><ele>100.0</ele><time>2026-03-29T09:56:39.447Z</time></trkpt><trkpt lat="45.3993967" lon="10.5848867"><ele>100.0</ele><time>2026-03-29T09:56:40.447Z</time></trkpt><trkpt lat="45.3995667" lon="10.5848933"><ele>100.0</ele><time>2026-03-29T09:56:41.448Z</time></trkpt><trkpt lat="45.3997717" lon="10.5848883"><ele>99.33333333333334</ele><time>2026-03-29T09:56:42.448Z</time></trkpt><trkpt lat="45.3999633" lon="10.5848817"><ele>98.66666666666666</ele><time>2026-03-29T09:56:43.448Z</time></trkpt><trkpt lat="45.4001683" lon="10.5848783"><ele>98.0</ele><time>2026-03-29T09:56:44.448Z</time></trkpt><trkpt lat="45.4003583" lon="10.5848633"><ele>98.75</ele><time>2026-03-29T09:56:45.448Z</time></trkpt><trkpt lat="45.4005083" lon="10.5848417"><ele>99.5</ele><time>2026-03-29T09:56:46.448Z</time></trkpt><trkpt lat="45.4006383" lon="10.5848283"><ele>100.25</ele><time>2026-03-29T09:56:47.448Z</time></trkpt><trkpt lat="45.4007567" lon="10.5848067"><ele>101.0</ele><time>2026-03-29T09:56:48.448Z</time></trkpt><trkpt lat="45.400865" lon="10.5847883"><ele>101.0</ele><time>2026-03-29T09:56:49.447Z</time></trkpt><trkpt lat="45.4009717" lon="10.5847717"><ele>101.0</ele><time>2026-03-29T09:56:50.448Z</time></trkpt><trkpt lat="45.40106" lon="10.58477"><ele>101.0</ele><time>2026-03-29T09:56:51.448Z</time></trkpt><trkpt lat="45.40115" lon="10.5847717"><ele>101.0</ele><time>2026-03-29T09:56:52.448Z</time></trkpt><trkpt lat="45.4012367" lon="10.5847867"><ele>101.0</ele><time>2026-03-29T09:56:53.447Z</time></trkpt><trkpt lat="45.4013233" lon="10.58479"><ele>100.4</ele><time>2026-03-29T09:56:54.448Z</time></trkpt><trkpt lat="45.4014233" lon="10.58481"><ele>99.8</ele><time>2026-03-29T09:56:55.448Z</time></trkpt><trkpt lat="45.401525" lon="10.5848217"><ele>99.2</ele><time>2026-03-29T09:56:56.448Z</time></trkpt><trkpt lat="45.4016417" lon="10.5848383"><ele>98.60000000000001</ele><time>2026-03-29T09:56:57.448Z</time></trkpt><trkpt lat="45.4017633" lon="10.584865"><ele>98.0</ele><time>2026-03-29T09:56:58.448Z</time></trkpt><trkpt lat="45.401885" lon="10.58491"><ele>98.0</ele><time>2026-03-29T09:56:59.448Z</time></trkpt><trkpt lat="45.4020033" lon="10.5849433"><ele>98.0</ele><time>2026-03-29T09:57:00.448Z</time></trkpt><trkpt lat="45.4021133" lon="10.58497"><ele>98.0</ele><time>2026-03-29T09:57:01.448Z</time></trkpt><trkpt lat="45.4022033" lon="10.5849917"><ele>98.0</ele><time>2026-03-29T09:57:02.448Z</time></trkpt><trkpt lat="45.402275" lon="10.5849967"><ele>98.0</ele><time>2026-03-29T09:57:03.448Z</time></trkpt><trkpt lat="45.40238" lon="10.5849233"><ele>97.75</ele><time>2026-03-29T09:57:05.447Z</time></trkpt><trkpt lat="45.40241" lon="10.5848167"><ele>97.5</ele><time>2026-03-29T09:57:06.448Z</time></trkpt><trkpt lat="45.402435" lon="10.5846767"><ele>97.25</ele><time>2026-03-29T09:57:07.448Z</time></trkpt><trkpt lat="45.4024533" lon="10.5845067"><ele>97.0</ele><time>2026-03-29T09:57:08.448Z</time></trkpt><trkpt lat="45.4024833" lon="10.5843"><ele>97.0</ele><time>2026-03-29T09:57:09.448Z</time></trkpt><trkpt lat="45.4025467" lon="10.584075"><ele>97.0</ele><time>2026-03-29T09:57:10.448Z</time></trkpt><trkpt lat="45.4026217" lon="10.5838567"><ele>97.0</ele><time>2026-03-29T09:57:11.448Z</time></trkpt><trkpt lat="45.4027083" lon="10.5836283"><ele>97.33333333333334</ele><time>2026-03-29T09:57:12.447Z</time></trkpt><trkpt lat="45.402795" lon="10.5834"><ele>97.66666666666666</ele><time>2026-03-29T09:57:13.448Z</time></trkpt><trkpt lat="45.4028817" lon="10.583175"><ele>98.0</ele><time>2026-03-29T09:57:14.448Z</time></trkpt><trkpt lat="45.4029817" lon="10.58295"><ele>97.0</ele><time>2026-03-29T09:57:15.448Z</time></trkpt><trkpt lat="45.4030833" lon="10.5827383"><ele>96.0</ele><time>2026-03-29T09:57:16.448Z</time></trkpt><trkpt lat="45.4031833" lon="10.5825183"><ele>95.0</ele><time>2026-03-29T09:57:17.448Z</time></trkpt><trkpt lat="45.40328" lon="10.5823067"><ele>95.0</ele><time>2026-03-29T09:57:18.448Z</time></trkpt><trkpt lat="45.4033767" lon="10.5820883"><ele>95.0</ele><time>2026-03-29T09:57:19.448Z</time></trkpt><trkpt lat="45.40347" lon="10.581855"><ele>95.0</ele><time>2026-03-29T09:57:20.448Z</time></trkpt><trkpt lat="45.4035583" lon="10.5816067"><ele>95.0</ele><time>2026-03-29T09:57:21.448Z</time></trkpt><trkpt lat="45.40364" lon="10.5813567"><ele>95.0</ele><time>2026-03-29T09:57:22.448Z</time></trkpt><trkpt lat="45.403725" lon="10.5811083"><ele>95.0</ele><time>2026-03-29T09:57:23.448Z</time></trkpt><trkpt lat="45.4038233" lon="10.5808733"><ele>94.66666666666667</ele><time>2026-03-29T09:57:24.448Z</time></trkpt><trkpt lat="45.4039167" lon="10.58062"><ele>94.33333333333333</ele><time>2026-03-29T09:57:25.448Z</time></trkpt><trkpt lat="45.403995" lon="10.5803583"><ele>94.0</ele><time>2026-03-29T09:57:26.448Z</time></trkpt><trkpt lat="45.40408" lon="10.5801017"><ele>94.66666666666666</ele><time>2026-03-29T09:57:27.448Z</time></trkpt><trkpt lat="45.4041467" lon="10.5798633"><ele>95.33333333333333</ele><time>2026-03-29T09:57:28.448Z</time></trkpt><trkpt lat="45.4042467" lon="10.57962"><ele>96.0</ele><time>2026-03-29T09:57:29.448Z</time></trkpt><trkpt lat="45.4043433" lon="10.5793933"><ele>96.33333333333334</ele><time>2026-03-29T09:57:30.448Z</time></trkpt><trkpt lat="45.40443" lon="10.5791767"><ele>96.66666666666667</ele><time>2026-03-29T09:57:31.448Z</time></trkpt><trkpt lat="45.4045167" lon="10.5789633"><ele>97.0</ele><time>2026-03-29T09:57:32.448Z</time></trkpt><trkpt lat="45.4046083" lon="10.5787417"><ele>96.0</ele><time>2026-03-29T09:57:33.448Z</time></trkpt><trkpt lat="45.40471" lon="10.5785233"><ele>95.0</ele><time>2026-03-29T09:57:34.448Z</time></trkpt><trkpt lat="45.4048183" lon="10.5783067"><ele>94.0</ele><time>2026-03-29T09:57:35.447Z</time></trkpt><trkpt lat="45.4049167" lon="10.5781"><ele>94.0</ele><time>2026-03-29T09:57:36.448Z</time></trkpt><trkpt lat="45.4049967" lon="10.577925"><ele>94.0</ele><time>2026-03-29T09:57:37.448Z</time></trkpt><trkpt lat="45.4050667" lon="10.5778017"><ele>94.0</ele><time>2026-03-29T09:57:38.448Z</time></trkpt><trkpt lat="45.405115" lon="10.5776967"><ele>94.0</ele><time>2026-03-29T09:57:39.448Z</time></trkpt><trkpt lat="45.4051517" lon="10.5775933"><ele>94.0</ele><time>2026-03-29T09:57:40.448Z</time></trkpt><trkpt lat="45.4051933" lon="10.5774567"><ele>94.25</ele><time>2026-03-29T09:57:41.448Z</time></trkpt><trkpt lat="45.405245" lon="10.577305"><ele>94.5</ele><time>2026-03-29T09:57:42.448Z</time></trkpt><trkpt lat="45.40529" lon="10.5771283"><ele>94.75</ele><time>2026-03-29T09:57:43.448Z</time></trkpt><trkpt lat="45.4053417" lon="10.57694"><ele>95.0</ele><time>2026-03-29T09:57:44.448Z</time></trkpt><trkpt lat="45.4053917" lon="10.576795"><ele>95.2</ele><time>2026-03-29T09:57:45.448Z</time></trkpt><trkpt lat="45.40542" lon="10.5766783"><ele>95.4</ele><time>2026-03-29T09:57:46.448Z</time></trkpt><trkpt lat="45.4054317" lon="10.5765717"><ele>95.6</ele><time>2026-03-29T09:57:47.448Z</time></trkpt><trkpt lat="45.40536" lon="10.5764433"><ele>95.8</ele><time>2026-03-29T09:57:49.448Z</time></trkpt><trkpt lat="45.4052717" lon="10.5763783"><ele>96.0</ele><time>2026-03-29T09:57:50.448Z</time></trkpt><trkpt lat="45.4051383" lon="10.5763033"><ele>96.0</ele><time>2026-03-29T09:57:51.448Z</time></trkpt><trkpt lat="45.404975" lon="10.57622"><ele>96.0</ele><time>2026-03-29T09:57:52.448Z</time></trkpt><trkpt lat="45.4048017" lon="10.5761283"><ele>96.0</ele><time>2026-03-29T09:57:53.448Z</time></trkpt><trkpt lat="45.4046167" lon="10.5760217"><ele>96.33333333333334</ele><time>2026-03-29T09:57:54.448Z</time></trkpt><trkpt lat="45.4044183" lon="10.5759"><ele>96.66666666666667</ele><time>2026-03-29T09:57:55.447Z</time></trkpt><trkpt lat="45.404215" lon="10.5757817"><ele>97.0</ele><time>2026-03-29T09:57:56.447Z</time></trkpt><trkpt lat="45.40402" lon="10.5756683"><ele>97.0</ele><time>2026-03-29T09:57:57.448Z</time></trkpt><trkpt lat="45.4038383" lon="10.5755617"><ele>97.0</ele><time>2026-03-29T09:57:58.448Z</time></trkpt><trkpt lat="45.4036767" lon="10.575455"><ele>97.0</ele><time>2026-03-29T09:57:59.448Z</time></trkpt><trkpt lat="45.4035183" lon="10.57536"><ele>97.33333333333334</ele><time>2026-03-29T09:58:00.448Z</time></trkpt><trkpt lat="45.403375" lon="10.5752783"><ele>97.66666666666666</ele><time>2026-03-29T09:58:01.448Z</time></trkpt><trkpt lat="45.403235" lon="10.57519"><ele>98.0</ele><time>2026-03-29T09:58:02.448Z</time></trkpt><trkpt lat="45.4031067" lon="10.575095"><ele>98.0</ele><time>2026-03-29T09:58:03.448Z</time></trkpt><trkpt lat="45.4029767" lon="10.5750233"><ele>98.0</ele><time>2026-03-29T09:58:04.448Z</time></trkpt><trkpt lat="45.4028517" lon="10.5749883"><ele>98.0</ele><time>2026-03-29T09:58:05.448Z</time></trkpt><trkpt lat="45.4027317" lon="10.57495"><ele>98.0</ele><time>2026-03-29T09:58:06.447Z</time></trkpt><trkpt lat="45.4026183" lon="10.5749167"><ele>98.0</ele><time>2026-03-29T09:58:07.448Z</time></trkpt><trkpt lat="45.4025133" lon="10.5748717"><ele>98.0</ele><time>2026-03-29T09:58:08.448Z</time></trkpt><trkpt lat="45.4024183" lon="10.5747767"><ele>98.0</ele><time>2026-03-29T09:58:09.447Z</time></trkpt><trkpt lat="45.4023233" lon="10.5746733"><ele>98.0</ele><time>2026-03-29T09:58:10.448Z</time></trkpt><trkpt lat="45.4022267" lon="10.57456"><ele>98.0</ele><time>2026-03-29T09:58:11.448Z</time></trkpt><trkpt lat="45.4021183" lon="10.5744233"><ele>98.0</ele><time>2026-03-29T09:58:12.448Z</time></trkpt><trkpt lat="45.40201" lon="10.57425"><ele>98.0</ele><time>2026-03-29T09:58:13.448Z</time></trkpt><trkpt lat="45.4018783" lon="10.5740533"><ele>98.0</ele><time>2026-03-29T09:58:14.448Z</time></trkpt><trkpt lat="45.4017267" lon="10.5738433"><ele>98.0</ele><time>2026-03-29T09:58:15.448Z</time></trkpt><trkpt lat="45.40157" lon="10.57362"><ele>98.0</ele><time>2026-03-29T09:58:16.448Z</time></trkpt><trkpt lat="45.4014183" lon="10.5733967"><ele>97.66666666666666</ele><time>2026-03-29T09:58:17.448Z</time></trkpt><trkpt lat="45.4012733" lon="10.5731817"><ele>97.33333333333334</ele><time>2026-03-29T09:58:18.448Z</time></trkpt><trkpt lat="45.401145" lon="10.57299"><ele>97.0</ele><time>2026-03-29T09:58:19.448Z</time></trkpt><trkpt lat="45.40103" lon="10.5728233"><ele>97.6</ele><time>2026-03-29T09:58:20.448Z</time></trkpt><trkpt lat="45.400935" lon="10.5726717"><ele>98.19999999999999</ele><time>2026-03-29T09:58:21.448Z</time></trkpt><trkpt lat="45.4008633" lon="10.5725383"><ele>98.8</ele><time>2026-03-29T09:58:22.448Z</time></trkpt><trkpt lat="45.4008133" lon="10.572405"><ele>99.4</ele><time>2026-03-29T09:58:23.448Z</time></trkpt><trkpt lat="45.4008383" lon="10.5723"><ele>100.0</ele><time>2026-03-29T09:58:26.448Z</time></trkpt><trkpt lat="45.4009417" lon="10.5722167"><ele>100.0</ele><time>2026-03-29T09:58:28.448Z</time></trkpt><trkpt lat="45.4010283" lon="10.57214"><ele>100.0</ele><time>2026-03-29T09:58:29.448Z</time></trkpt><trkpt lat="45.40113" lon="10.5720467"><ele>100.0</ele><time>2026-03-29T09:58:30.448Z</time></trkpt><trkpt lat="45.40124" lon="10.5719217"><ele>100.0</ele><time>2026-03-29T09:58:31.447Z</time></trkpt><trkpt lat="45.4013633" lon="10.5717833"><ele>100.33333333333334</ele><time>2026-03-29T09:58:32.448Z</time></trkpt><trkpt lat="45.4014883" lon="10.5716367"><ele>100.66666666666666</ele><time>2026-03-29T09:58:33.448Z</time></trkpt><trkpt lat="45.4016283" lon="10.5715133"><ele>101.0</ele><time>2026-03-29T09:58:34.448Z</time></trkpt><trkpt lat="45.4017683" lon="10.57137"><ele>101.0</ele><time>2026-03-29T09:58:35.447Z</time></trkpt><trkpt lat="45.4019017" lon="10.571225"><ele>101.0</ele><time>2026-03-29T09:58:36.448Z</time></trkpt><trkpt lat="45.402025" lon="10.571065"><ele>101.0</ele><time>2026-03-29T09:58:37.448Z</time></trkpt><trkpt lat="45.4021583" lon="10.5708917"><ele>100.0</ele><time>2026-03-29T09:58:38.448Z</time></trkpt><trkpt lat="45.4022917" lon="10.570725"><ele>99.0</ele><time>2026-03-29T09:58:39.448Z</time></trkpt><trkpt lat="45.402445" lon="10.5705517"><ele>98.0</ele><time>2026-03-29T09:58:40.448Z</time></trkpt><trkpt lat="45.4025967" lon="10.5703767"><ele>97.66666666666666</ele><time>2026-03-29T09:58:41.448Z</time></trkpt><trkpt lat="45.4027367" lon="10.570205"><ele>97.33333333333334</ele><time>2026-03-29T09:58:42.448Z</time></trkpt><trkpt lat="45.4028817" lon="10.57003"><ele>97.0</ele><time>2026-03-29T09:58:43.447Z</time></trkpt><trkpt lat="45.40303" lon="10.5698633"><ele>97.0</ele><time>2026-03-29T09:58:44.448Z</time></trkpt><trkpt lat="45.4031767" lon="10.569695"><ele>97.0</ele><time>2026-03-29T09:58:45.448Z</time></trkpt><trkpt lat="45.4033117" lon="10.569525"><ele>97.0</ele><time>2026-03-29T09:58:46.448Z</time></trkpt><trkpt lat="45.4034583" lon="10.56935"><ele>97.0</ele><time>2026-03-29T09:58:47.448Z</time></trkpt><trkpt lat="45.4036117" lon="10.5691833"><ele>97.0</ele><time>2026-03-29T09:58:48.448Z</time></trkpt><trkpt lat="45.40376" lon="10.5690167"><ele>97.0</ele><time>2026-03-29T09:58:49.447Z</time></trkpt><trkpt lat="45.4039083" lon="10.5688383"><ele>97.33333333333334</ele><time>2026-03-29T09:58:50.448Z</time></trkpt><trkpt lat="45.4040467" lon="10.5686867"><ele>97.66666666666666</ele><time>2026-03-29T09:58:51.448Z</time></trkpt><trkpt lat="45.4041667" lon="10.5685417"><ele>98.0</ele><time>2026-03-29T09:58:52.448Z</time></trkpt><trkpt lat="45.4042883" lon="10.5683683"><ele>98.0</ele><time>2026-03-29T09:58:53.448Z</time></trkpt><trkpt lat="45.4044167" lon="10.5681817"><ele>98.0</ele><time>2026-03-29T09:58:54.448Z</time></trkpt><trkpt lat="45.4045417" lon="10.5680017"><ele>98.0</ele><time>2026-03-29T09:58:55.448Z</time></trkpt><trkpt lat="45.4046583" lon="10.5678283"><ele>97.0</ele><time>2026-03-29T09:58:56.448Z</time></trkpt><trkpt lat="45.4047717" lon="10.5676317"><ele>96.0</ele><time>2026-03-29T09:58:57.448Z</time></trkpt><trkpt lat="45.4048817" lon="10.5674367"><ele>95.0</ele><time>2026-03-29T09:58:58.448Z</time></trkpt><trkpt lat="45.4049967" lon="10.5672417"><ele>95.0</ele><time>2026-03-29T09:58:59.448Z</time></trkpt><trkpt lat="45.4051067" lon="10.5670483"><ele>95.0</ele><time>2026-03-29T09:59:00.448Z</time></trkpt><trkpt lat="45.4052233" lon="10.5668383"><ele>95.0</ele><time>2026-03-29T09:59:01.448Z</time></trkpt><trkpt lat="45.4053433" lon="10.566635"><ele>95.33333333333334</ele><time>2026-03-29T09:59:02.448Z</time></trkpt><trkpt lat="45.405455" lon="10.5664317"><ele>95.66666666666667</ele><time>2026-03-29T09:59:03.448Z</time></trkpt><trkpt lat="45.4055717" lon="10.56622"><ele>96.0</ele><time>2026-03-29T09:59:04.447Z</time></trkpt><trkpt lat="45.4056917" lon="10.5660217"><ele>96.0</ele><time>2026-03-29T09:59:05.448Z</time></trkpt><trkpt lat="45.405805" lon="10.5658517"><ele>96.0</ele><time>2026-03-29T09:59:06.448Z</time></trkpt><trkpt lat="45.4059" lon="10.5656933"><ele>96.0</ele><time>2026-03-29T09:59:07.448Z</time></trkpt><trkpt lat="45.4059933" lon="10.5655533"><ele>96.0</ele><time>2026-03-29T09:59:08.448Z</time></trkpt><trkpt lat="45.40607" lon="10.5654417"><ele>96.16666666666667</ele><time>2026-03-29T09:59:09.448Z</time></trkpt><trkpt lat="45.40613" lon="10.5653417"><ele>96.33333333333334</ele><time>2026-03-29T09:59:10.447Z</time></trkpt><trkpt lat="45.406155" lon="10.5652533"><ele>96.5</ele><time>2026-03-29T09:59:11.448Z</time></trkpt><trkpt lat="45.4061583" lon="10.565155"><ele>96.66666666666667</ele><time>2026-03-29T09:59:12.448Z</time></trkpt><trkpt lat="45.4061283" lon="10.56505"><ele>96.83333333333334</ele><time>2026-03-29T09:59:13.448Z</time></trkpt><trkpt lat="45.40608" lon="10.5649117"><ele>97.0</ele><time>2026-03-29T09:59:14.448Z</time></trkpt><trkpt lat="45.4060417" lon="10.5647867"><ele>97.0</ele><time>2026-03-29T09:59:15.448Z</time></trkpt><trkpt lat="45.4060333" lon="10.5646917"><ele>97.0</ele><time>2026-03-29T09:59:16.448Z</time></trkpt><trkpt lat="45.4060683" lon="10.5645717"><ele>97.0</ele><time>2026-03-29T09:59:18.448Z</time></trkpt><trkpt lat="45.40612" lon="10.5645133"><ele>97.0</ele><time>2026-03-29T09:59:19.448Z</time></trkpt><trkpt lat="45.4062267" lon="10.5644333"><ele>97.0</ele><time>2026-03-29T09:59:20.448Z</time></trkpt><trkpt lat="45.4063667" lon="10.5643333"><ele>97.0</ele><time>2026-03-29T09:59:21.448Z</time></trkpt><trkpt lat="45.4065233" lon="10.5642133"><ele>97.0</ele><time>2026-03-29T09:59:22.448Z</time></trkpt><trkpt lat="45.4066883" lon="10.56408"><ele>97.0</ele><time>2026-03-29T09:59:23.448Z</time></trkpt><trkpt lat="45.40688" lon="10.5639433"><ele>97.0</ele><time>2026-03-29T09:59:24.448Z</time></trkpt><trkpt lat="45.40707" lon="10.5638033"><ele>97.0</ele><time>2026-03-29T09:59:25.448Z</time></trkpt><trkpt lat="45.4072533" lon="10.5636717"><ele>97.0</ele><time>2026-03-29T09:59:26.447Z</time></trkpt><trkpt lat="45.4074517" lon="10.563545"><ele>97.0</ele><time>2026-03-29T09:59:27.448Z</time></trkpt><trkpt lat="45.4076267" lon="10.563425"><ele>97.0</ele><time>2026-03-29T09:59:28.448Z</time></trkpt><trkpt lat="45.407815" lon="10.563315"><ele>97.0</ele><time>2026-03-29T09:59:29.448Z</time></trkpt><trkpt lat="45.4080183" lon="10.5631917"><ele>97.0</ele><time>2026-03-29T09:59:30.448Z</time></trkpt><trkpt lat="45.4082067" lon="10.5631033"><ele>97.0</ele><time>2026-03-29T09:59:31.448Z</time></trkpt><trkpt lat="45.408385" lon="10.56303"><ele>97.0</ele><time>2026-03-29T09:59:32.448Z</time></trkpt><trkpt lat="45.4085567" lon="10.56297"><ele>97.0</ele><time>2026-03-29T09:59:33.448Z</time></trkpt><trkpt lat="45.4087" lon="10.5629"><ele>97.0</ele><time>2026-03-29T09:59:34.448Z</time></trkpt><trkpt lat="45.4088517" lon="10.562835"><ele>97.0</ele><time>2026-03-29T09:59:35.448Z</time></trkpt><trkpt lat="45.40903" lon="10.5627717"><ele>96.66666666666667</ele><time>2026-03-29T09:59:36.448Z</time></trkpt><trkpt lat="45.4092" lon="10.5627017"><ele>96.33333333333334</ele><time>2026-03-29T09:59:37.448Z</time></trkpt><trkpt lat="45.4093833" lon="10.5626333"><ele>96.0</ele><time>2026-03-29T09:59:38.448Z</time></trkpt><trkpt lat="45.40954" lon="10.56257"><ele>96.0</ele><time>2026-03-29T09:59:39.448Z</time></trkpt><trkpt lat="45.4096883" lon="10.5625"><ele>96.0</ele><time>2026-03-29T09:59:40.448Z</time></trkpt><trkpt lat="45.40981" lon="10.562445"><ele>96.0</ele><time>2026-03-29T09:59:41.448Z</time></trkpt><trkpt lat="45.4099133" lon="10.562385"><ele>96.0</ele><time>2026-03-29T09:59:42.448Z</time></trkpt><trkpt lat="45.41003" lon="10.5623367"><ele>96.0</ele><time>2026-03-29T09:59:43.448Z</time></trkpt><trkpt lat="45.410135" lon="10.5622967"><ele>96.0</ele><time>2026-03-29T09:59:44.448Z</time></trkpt><trkpt lat="45.4102533" lon="10.56227"><ele>96.0</ele><time>2026-03-29T09:59:45.448Z</time></trkpt><trkpt lat="45.4103833" lon="10.5622783"><ele>96.0</ele><time>2026-03-29T09:59:46.448Z</time></trkpt><trkpt lat="45.4105217" lon="10.5623183"><ele>97.0</ele><time>2026-03-29T09:59:47.448Z</time></trkpt><trkpt lat="45.4106817" lon="10.5623583"><ele>98.0</ele><time>2026-03-29T09:59:48.448Z</time></trkpt><trkpt lat="45.4108467" lon="10.5624167"><ele>99.0</ele><time>2026-03-29T09:59:49.448Z</time></trkpt><trkpt lat="45.4110117" lon="10.56247"><ele>99.0</ele><time>2026-03-29T09:59:50.448Z</time></trkpt><trkpt lat="45.411155" lon="10.5625267"><ele>99.0</ele><time>2026-03-29T09:59:51.448Z</time></trkpt><trkpt lat="45.4112833" lon="10.5626"><ele>99.0</ele><time>2026-03-29T09:59:52.448Z</time></trkpt><trkpt lat="45.4114267" lon="10.5626817"><ele>99.0</ele><time>2026-03-29T09:59:53.448Z</time></trkpt><trkpt lat="45.4115733" lon="10.5628067"><ele>98.66666666666666</ele><time>2026-03-29T09:59:54.448Z</time></trkpt><trkpt lat="45.4117267" lon="10.56293"><ele>98.33333333333333</ele><time>2026-03-29T09:59:55.448Z</time></trkpt><trkpt lat="45.4118883" lon="10.56307"><ele>98.0</ele><time>2026-03-29T09:59:56.448Z</time></trkpt><trkpt lat="45.4120467" lon="10.5632283"><ele>97.66666666666666</ele><time>2026-03-29T09:59:57.448Z</time></trkpt><trkpt lat="45.4122167" lon="10.56339"><ele>97.33333333333334</ele><time>2026-03-29T09:59:58.448Z</time></trkpt><trkpt lat="45.4123717" lon="10.5635583"><ele>97.0</ele><time>2026-03-29T09:59:59.447Z</time></trkpt><trkpt lat="45.4125217" lon="10.5637267"><ele>97.0</ele><time>2026-03-29T10:00:00.448Z</time></trkpt><trkpt lat="45.4126483" lon="10.5639"><ele>97.0</ele><time>2026-03-29T10:00:01.448Z</time></trkpt><trkpt lat="45.4127833" lon="10.5640633"><ele>97.0</ele><time>2026-03-29T10:00:02.447Z</time></trkpt><trkpt lat="45.4129233" lon="10.56421"><ele>97.0</ele><time>2026-03-29T10:00:03.447Z</time></trkpt><trkpt lat="45.413075" lon="10.564335"><ele>97.0</ele><time>2026-03-29T10:00:04.448Z</time></trkpt><trkpt lat="45.4132367" lon="10.5644567"><ele>97.0</ele><time>2026-03-29T10:00:05.448Z</time></trkpt><trkpt lat="45.4133883" lon="10.5645483"><ele>97.19999999999999</ele><time>2026-03-29T10:00:06.447Z</time></trkpt><trkpt lat="45.4135183" lon="10.5646233"><ele>97.4</ele><time>2026-03-29T10:00:07.447Z</time></trkpt><trkpt lat="45.413625" lon="10.5646717"><ele>97.6</ele><time>2026-03-29T10:00:08.448Z</time></trkpt><trkpt lat="45.4137233" lon="10.5646967"><ele>97.80000000000001</ele><time>2026-03-29T10:00:09.448Z</time></trkpt><trkpt lat="45.4138167" lon="10.564685"><ele>98.0</ele><time>2026-03-29T10:00:10.448Z</time></trkpt><trkpt lat="45.41392" lon="10.5646367"><ele>98.66666666666666</ele><time>2026-03-29T10:00:11.448Z</time></trkpt><trkpt lat="45.4140483" lon="10.56456"><ele>99.33333333333334</ele><time>2026-03-29T10:00:12.448Z</time></trkpt><trkpt lat="45.4142" lon="10.5644483"><ele>100.0</ele><time>2026-03-29T10:00:13.448Z</time></trkpt><trkpt lat="45.4143783" lon="10.5643367"><ele>100.0</ele><time>2026-03-29T10:00:14.448Z</time></trkpt><trkpt lat="45.4145817" lon="10.5642167"><ele>100.0</ele><time>2026-03-29T10:00:15.448Z</time></trkpt><trkpt lat="45.4147717" lon="10.5640967"><ele>100.0</ele><time>2026-03-29T10:00:16.448Z</time></trkpt><trkpt lat="45.4149583" lon="10.56402"><ele>101.66666666666667</ele><time>2026-03-29T10:00:17.448Z</time></trkpt><trkpt lat="45.41516" lon="10.5639733"><ele>103.33333333333334</ele><time>2026-03-29T10:00:18.447Z</time></trkpt><trkpt lat="45.4153667" lon="10.5639617"><ele>105.0</ele><time>2026-03-29T10:00:19.448Z</time></trkpt><trkpt lat="45.4155783" lon="10.563945"><ele>105.33333333333334</ele><time>2026-03-29T10:00:20.448Z</time></trkpt><trkpt lat="45.41577" lon="10.5638867"><ele>105.66666666666667</ele><time>2026-03-29T10:00:21.447Z</time></trkpt><trkpt lat="45.4159683" lon="10.5637783"><ele>106.0</ele><time>2026-03-29T10:00:22.448Z</time></trkpt><trkpt lat="45.41617" lon="10.5636533"><ele>106.5</ele><time>2026-03-29T10:00:23.448Z</time></trkpt><trkpt lat="45.416345" lon="10.5635467"><ele>107.0</ele><time>2026-03-29T10:00:24.448Z</time></trkpt><trkpt lat="45.4164883" lon="10.5634817"><ele>107.5</ele><time>2026-03-29T10:00:25.448Z</time></trkpt><trkpt lat="45.4165783" lon="10.5634683"><ele>108.0</ele><time>2026-03-29T10:00:26.448Z</time></trkpt><trkpt lat="45.4166483" lon="10.5634667"><ele>108.0</ele><time>2026-03-29T10:00:27.448Z</time></trkpt><trkpt lat="45.4167033" lon="10.563415"><ele>108.00000000000001</ele><time>2026-03-29T10:00:29.448Z</time></trkpt><trkpt lat="45.4167233" lon="10.5632683"><ele>108.00000000000001</ele><time>2026-03-29T10:00:31.448Z</time></trkpt><trkpt lat="45.4167617" lon="10.5631833"><ele>108.0</ele><time>2026-03-29T10:00:32.448Z</time></trkpt><trkpt lat="45.4168367" lon="10.5631067"><ele>108.0</ele><time>2026-03-29T10:00:33.448Z</time></trkpt><trkpt lat="45.416945" lon="10.563035"><ele>108.0</ele><time>2026-03-29T10:00:34.448Z</time></trkpt><trkpt lat="45.4170833" lon="10.5629583"><ele>108.0</ele><time>2026-03-29T10:00:35.448Z</time></trkpt><trkpt lat="45.41724" lon="10.5628783"><ele>108.0</ele><time>2026-03-29T10:00:36.448Z</time></trkpt><trkpt lat="45.41739" lon="10.5628167"><ele>108.0</ele><time>2026-03-29T10:00:37.448Z</time></trkpt><trkpt lat="45.4175183" lon="10.5627483"><ele>108.0</ele><time>2026-03-29T10:00:38.448Z</time></trkpt><trkpt lat="45.4176417" lon="10.56266"><ele>108.0</ele><time>2026-03-29T10:00:39.448Z</time></trkpt><trkpt lat="45.4177733" lon="10.5625367"><ele>108.0</ele><time>2026-03-29T10:00:40.448Z</time></trkpt><trkpt lat="45.4179017" lon="10.5623717"><ele>108.0</ele><time>2026-03-29T10:00:41.448Z</time></trkpt><trkpt lat="45.418015" lon="10.56218"><ele>108.0</ele><time>2026-03-29T10:00:42.448Z</time></trkpt><trkpt lat="45.4181233" lon="10.5619833"><ele>108.0</ele><time>2026-03-29T10:00:43.448Z</time></trkpt><trkpt lat="45.4182433" lon="10.5617867"><ele>108.0</ele><time>2026-03-29T10:00:44.448Z</time></trkpt><trkpt lat="45.41838" lon="10.5615933"><ele>108.0</ele><time>2026-03-29T10:00:45.448Z</time></trkpt><trkpt lat="45.418515" lon="10.56141"><ele>108.0</ele><time>2026-03-29T10:00:46.448Z</time></trkpt><trkpt lat="45.4186417" lon="10.5612367"><ele>107.0</ele><time>2026-03-29T10:00:47.448Z</time></trkpt><trkpt lat="45.4187633" lon="10.5610817"><ele>106.0</ele><time>2026-03-29T10:00:48.448Z</time></trkpt><trkpt lat="45.4188867" lon="10.56093"><ele>105.0</ele><time>2026-03-29T10:00:49.448Z</time></trkpt><trkpt lat="45.4190283" lon="10.5607883"><ele>107.66666666666666</ele><time>2026-03-29T10:00:50.448Z</time></trkpt><trkpt lat="45.4191617" lon="10.5606667"><ele>110.33333333333333</ele><time>2026-03-29T10:00:51.448Z</time></trkpt><trkpt lat="45.4193017" lon="10.5605517"><ele>113.0</ele><time>2026-03-29T10:00:52.448Z</time></trkpt><trkpt lat="45.4194567" lon="10.5604317"><ele>112.33333333333333</ele><time>2026-03-29T10:00:53.448Z</time></trkpt><trkpt lat="45.419605" lon="10.5603083"><ele>111.66666666666666</ele><time>2026-03-29T10:00:54.447Z</time></trkpt><trkpt lat="45.41975" lon="10.560195"><ele>111.0</ele><time>2026-03-29T10:00:55.448Z</time></trkpt><trkpt lat="45.4199033" lon="10.5601"><ele>112.0</ele><time>2026-03-29T10:00:56.447Z</time></trkpt><trkpt lat="45.4200333" lon="10.560035"><ele>113.0</ele><time>2026-03-29T10:00:57.448Z</time></trkpt><trkpt lat="45.4201467" lon="10.5599683"><ele>114.0</ele><time>2026-03-29T10:00:58.448Z</time></trkpt><trkpt lat="45.4202517" lon="10.5598867"><ele>115.0</ele><time>2026-03-29T10:00:59.447Z</time></trkpt><trkpt lat="45.4203533" lon="10.5597833"><ele>115.0</ele><time>2026-03-29T10:01:00.447Z</time></trkpt><trkpt lat="45.4204483" lon="10.5596517"><ele>115.0</ele><time>2026-03-29T10:01:01.448Z</time></trkpt><trkpt lat="45.420545" lon="10.55949"><ele>115.0</ele><time>2026-03-29T10:01:02.448Z</time></trkpt><trkpt lat="45.4206483" lon="10.5593083"><ele>115.0</ele><time>2026-03-29T10:01:03.448Z</time></trkpt><trkpt lat="45.4207467" lon="10.5591083"><ele>115.0</ele><time>2026-03-29T10:01:04.448Z</time></trkpt><trkpt lat="45.4208467" lon="10.55891"><ele>115.0</ele><time>2026-03-29T10:01:05.448Z</time></trkpt><trkpt lat="45.420955" lon="10.5587183"><ele>115.0</ele><time>2026-03-29T10:01:06.447Z</time></trkpt><trkpt lat="45.421075" lon="10.5585317"><ele>114.66666666666667</ele><time>2026-03-29T10:01:07.448Z</time></trkpt><trkpt lat="45.4212083" lon="10.5583467"><ele>114.33333333333334</ele><time>2026-03-29T10:01:08.447Z</time></trkpt><trkpt lat="45.4213367" lon="10.5581467"><ele>114.0</ele><time>2026-03-29T10:01:09.448Z</time></trkpt><trkpt lat="45.42146" lon="10.55793"><ele>114.0</ele><time>2026-03-29T10:01:10.448Z</time></trkpt><trkpt lat="45.4215667" lon="10.55772"><ele>114.0</ele><time>2026-03-29T10:01:11.448Z</time></trkpt><trkpt lat="45.4216483" lon="10.5575333"><ele>114.0</ele><time>2026-03-29T10:01:12.448Z</time></trkpt><trkpt lat="45.42172" lon="10.5573383"><ele>114.0</ele><time>2026-03-29T10:01:13.448Z</time></trkpt><trkpt lat="45.4217833" lon="10.5571183"><ele>114.0</ele><time>2026-03-29T10:01:14.448Z</time></trkpt><trkpt lat="45.4218517" lon="10.55689"><ele>114.0</ele><time>2026-03-29T10:01:15.448Z</time></trkpt><trkpt lat="45.4219083" lon="10.5566783"><ele>113.33333333333334</ele><time>2026-03-29T10:01:16.448Z</time></trkpt><trkpt lat="45.421955" lon="10.5564683"><ele>112.66666666666667</ele><time>2026-03-29T10:01:17.448Z</time></trkpt><trkpt lat="45.4219917" lon="10.5562367"><ele>112.0</ele><time>2026-03-29T10:01:18.448Z</time></trkpt><trkpt lat="45.422015" lon="10.5560117"><ele>111.5</ele><time>2026-03-29T10:01:19.448Z</time></trkpt><trkpt lat="45.422035" lon="10.55581"><ele>111.0</ele><time>2026-03-29T10:01:20.448Z</time></trkpt><trkpt lat="45.4220583" lon="10.555635"><ele>110.5</ele><time>2026-03-29T10:01:21.448Z</time></trkpt><trkpt lat="45.4221067" lon="10.555475"><ele>110.0</ele><time>2026-03-29T10:01:22.447Z</time></trkpt><trkpt lat="45.4221633" lon="10.5553233"><ele>110.66666666666666</ele><time>2026-03-29T10:01:23.448Z</time></trkpt><trkpt lat="45.4222267" lon="10.5552183"><ele>111.33333333333333</ele><time>2026-03-29T10:01:24.448Z</time></trkpt><trkpt lat="45.42228" lon="10.5551217"><ele>112.0</ele><time>2026-03-29T10:01:25.448Z</time></trkpt><trkpt lat="45.4223233" lon="10.5550367"><ele>112.66666666666666</ele><time>2026-03-29T10:01:26.448Z</time></trkpt><trkpt lat="45.4223317" lon="10.5549433"><ele>113.33333333333333</ele><time>2026-03-29T10:01:27.448Z</time></trkpt><trkpt lat="45.4223117" lon="10.5548567"><ele>114.0</ele><time>2026-03-29T10:01:28.448Z</time></trkpt><trkpt lat="45.42224" lon="10.5547717"><ele>112.33333333333334</ele><time>2026-03-29T10:01:29.448Z</time></trkpt><trkpt lat="45.4221383" lon="10.55467"><ele>110.66666666666667</ele><time>2026-03-29T10:01:30.448Z</time></trkpt><trkpt lat="45.4219967" lon="10.5545317"><ele>109.0</ele><time>2026-03-29T10:01:31.448Z</time></trkpt><trkpt lat="45.4218817" lon="10.5543833"><ele>108.5</ele><time>2026-03-29T10:01:32.448Z</time></trkpt><trkpt lat="45.42179" lon="10.5542317"><ele>108.0</ele><time>2026-03-29T10:01:33.448Z</time></trkpt><trkpt lat="45.4216983" lon="10.5540983"><ele>107.5</ele><time>2026-03-29T10:01:34.448Z</time></trkpt><trkpt lat="45.4215917" lon="10.5539883"><ele>107.0</ele><time>2026-03-29T10:01:35.448Z</time></trkpt><trkpt lat="45.4214767" lon="10.5539017"><ele>107.0</ele><time>2026-03-29T10:01:36.447Z</time></trkpt><trkpt lat="45.4213483" lon="10.5538267"><ele>107.0</ele><time>2026-03-29T10:01:37.448Z</time></trkpt><trkpt lat="45.4212183" lon="10.5537433"><ele>107.0</ele><time>2026-03-29T10:01:38.448Z</time></trkpt><trkpt lat="45.4210933" lon="10.5536733"><ele>107.0</ele><time>2026-03-29T10:01:39.448Z</time></trkpt><trkpt lat="45.4209783" lon="10.5536033"><ele>106.33333333333333</ele><time>2026-03-29T10:01:40.448Z</time></trkpt><trkpt lat="45.420885" lon="10.5535467"><ele>105.66666666666666</ele><time>2026-03-29T10:01:41.448Z</time></trkpt><trkpt lat="45.420805" lon="10.5534917"><ele>105.0</ele><time>2026-03-29T10:01:42.447Z</time></trkpt><trkpt lat="45.4207517" lon="10.553435"><ele>104.33333333333334</ele><time>2026-03-29T10:01:43.448Z</time></trkpt><trkpt lat="45.4207083" lon="10.5533633"><ele>103.66666666666667</ele><time>2026-03-29T10:01:44.448Z</time></trkpt><trkpt lat="45.42071" lon="10.5531883"><ele>103.0</ele><time>2026-03-29T10:01:46.448Z</time></trkpt><trkpt lat="45.420745" lon="10.5530667"><ele>103.00000000000001</ele><time>2026-03-29T10:01:47.448Z</time></trkpt><trkpt lat="45.420805" lon="10.5529417"><ele>103.0</ele><time>2026-03-29T10:01:48.448Z</time></trkpt><trkpt lat="45.420855" lon="10.55285"><ele>103.0</ele><time>2026-03-29T10:01:49.447Z</time></trkpt><trkpt lat="45.4208583" lon="10.55272"><ele>103.0</ele><time>2026-03-29T10:01:51.448Z</time></trkpt><trkpt lat="45.4208067" lon="10.5526667"><ele>103.00000000000001</ele><time>2026-03-29T10:01:52.448Z</time></trkpt><trkpt lat="45.4207117" lon="10.5526167"><ele>103.0</ele><time>2026-03-29T10:01:53.448Z</time></trkpt><trkpt lat="45.420595" lon="10.5525583"><ele>102.0</ele><time>2026-03-29T10:01:54.448Z</time></trkpt><trkpt lat="45.420445" lon="10.5524733"><ele>101.0</ele><time>2026-03-29T10:01:55.448Z</time></trkpt><trkpt lat="45.4202767" lon="10.5523467"><ele>100.0</ele><time>2026-03-29T10:01:56.448Z</time></trkpt><trkpt lat="45.42012" lon="10.5522133"><ele>100.0</ele><time>2026-03-29T10:01:57.448Z</time></trkpt><trkpt lat="45.4199583" lon="10.5520633"><ele>100.0</ele><time>2026-03-29T10:01:58.448Z</time></trkpt><trkpt lat="45.41981" lon="10.5518867"><ele>100.0</ele><time>2026-03-29T10:01:59.448Z</time></trkpt><trkpt lat="45.4196833" lon="10.55172"><ele>100.33333333333334</ele><time>2026-03-29T10:02:00.448Z</time></trkpt><trkpt lat="45.4195583" lon="10.5515483"><ele>100.66666666666666</ele><time>2026-03-29T10:02:01.448Z</time></trkpt><trkpt lat="45.4194583" lon="10.5513617"><ele>101.0</ele><time>2026-03-29T10:02:02.448Z</time></trkpt><trkpt lat="45.4193783" lon="10.5511567"><ele>101.0</ele><time>2026-03-29T10:02:03.448Z</time></trkpt><trkpt lat="45.4193233" lon="10.5509367"><ele>101.0</ele><time>2026-03-29T10:02:04.448Z</time></trkpt><trkpt lat="45.419285" lon="10.5507317"><ele>101.0</ele><time>2026-03-29T10:02:05.447Z</time></trkpt><trkpt lat="45.4192517" lon="10.5505667"><ele>101.0</ele><time>2026-03-29T10:02:06.448Z</time></trkpt><trkpt lat="45.41922" lon="10.55044"><ele>101.6</ele><time>2026-03-29T10:02:07.447Z</time></trkpt><trkpt lat="45.419185" lon="10.55032"><ele>102.19999999999999</ele><time>2026-03-29T10:02:08.447Z</time></trkpt><trkpt lat="45.419145" lon="10.5501867"><ele>102.80000000000001</ele><time>2026-03-29T10:02:09.448Z</time></trkpt><trkpt lat="45.4190867" lon="10.5500517"><ele>103.4</ele><time>2026-03-29T10:02:10.448Z</time></trkpt><trkpt lat="45.4190083" lon="10.5499183"><ele>104.0</ele><time>2026-03-29T10:02:11.448Z</time></trkpt><trkpt lat="45.4189167" lon="10.549785"><ele>104.0</ele><time>2026-03-29T10:02:12.447Z</time></trkpt><trkpt lat="45.41883" lon="10.5496617"><ele>104.0</ele><time>2026-03-29T10:02:13.448Z</time></trkpt><trkpt lat="45.41876" lon="10.54953"><ele>104.0</ele><time>2026-03-29T10:02:14.447Z</time></trkpt><trkpt lat="45.418695" lon="10.549405"><ele>104.0</ele><time>2026-03-29T10:02:15.448Z</time></trkpt><trkpt lat="45.4186367" lon="10.5492983"><ele>104.0</ele><time>2026-03-29T10:02:16.448Z</time></trkpt><trkpt lat="45.418575" lon="10.54922"><ele>104.83333333333333</ele><time>2026-03-29T10:02:17.448Z</time></trkpt><trkpt lat="45.4185167" lon="10.5491783"><ele>105.66666666666666</ele><time>2026-03-29T10:02:18.447Z</time></trkpt><trkpt lat="45.4184517" lon="10.54916"><ele>106.5</ele><time>2026-03-29T10:02:19.448Z</time></trkpt><trkpt lat="45.41837" lon="10.54917"><ele>107.33333333333334</ele><time>2026-03-29T10:02:20.448Z</time></trkpt><trkpt lat="45.4182783" lon="10.5492117"><ele>108.16666666666667</ele><time>2026-03-29T10:02:21.448Z</time></trkpt><trkpt lat="45.41818" lon="10.5492667"><ele>109.0</ele><time>2026-03-29T10:02:22.448Z</time></trkpt><trkpt lat="45.41809" lon="10.5493267"><ele>109.0</ele><time>2026-03-29T10:02:23.448Z</time></trkpt><trkpt lat="45.4180217" lon="10.549345"><ele>109.0</ele><time>2026-03-29T10:02:24.448Z</time></trkpt><trkpt lat="45.417905" lon="10.5492633"><ele>109.0</ele><time>2026-03-29T10:02:26.448Z</time></trkpt><trkpt lat="45.41785" lon="10.5491517"><ele>109.0</ele><time>2026-03-29T10:02:27.447Z</time></trkpt><trkpt lat="45.4177917" lon="10.5489933"><ele>109.0</ele><time>2026-03-29T10:02:28.448Z</time></trkpt><trkpt lat="45.4177217" lon="10.54877"><ele>108.66666666666667</ele><time>2026-03-29T10:02:29.448Z</time></trkpt><trkpt lat="45.4176333" lon="10.5485533"><ele>108.33333333333334</ele><time>2026-03-29T10:02:30.448Z</time></trkpt><trkpt lat="45.4175517" lon="10.5483233"><ele>108.0</ele><time>2026-03-29T10:02:31.448Z</time></trkpt><trkpt lat="45.4174667" lon="10.5480883"><ele>107.66666666666666</ele><time>2026-03-29T10:02:32.448Z</time></trkpt><trkpt lat="45.4173767" lon="10.5478417"><ele>107.33333333333333</ele><time>2026-03-29T10:02:33.448Z</time></trkpt><trkpt lat="45.4172883" lon="10.547605"><ele>107.0</ele><time>2026-03-29T10:02:34.448Z</time></trkpt><trkpt lat="45.4171933" lon="10.5473667"><ele>106.66666666666666</ele><time>2026-03-29T10:02:35.448Z</time></trkpt><trkpt lat="45.4170833" lon="10.5471333"><ele>106.33333333333334</ele><time>2026-03-29T10:02:36.448Z</time></trkpt><trkpt lat="45.4169717" lon="10.546905"><ele>106.0</ele><time>2026-03-29T10:02:37.448Z</time></trkpt><trkpt lat="45.4168567" lon="10.54668"><ele>106.0</ele><time>2026-03-29T10:02:38.447Z</time></trkpt><trkpt lat="45.4167183" lon="10.546465"><ele>106.0</ele><time>2026-03-29T10:02:39.448Z</time></trkpt><trkpt lat="45.4165533" lon="10.5462617"><ele>106.0</ele><time>2026-03-29T10:02:40.448Z</time></trkpt><trkpt lat="45.41639" lon="10.5460667"><ele>107.33333333333334</ele><time>2026-03-29T10:02:41.448Z</time></trkpt><trkpt lat="45.4162317" lon="10.5458733"><ele>108.66666666666666</ele><time>2026-03-29T10:02:42.448Z</time></trkpt><trkpt lat="45.416085" lon="10.5456783"><ele>110.0</ele><time>2026-03-29T10:02:43.448Z</time></trkpt><trkpt lat="45.4159483" lon="10.54548"><ele>110.66666666666666</ele><time>2026-03-29T10:02:44.448Z</time></trkpt><trkpt lat="45.4158167" lon="10.545255"><ele>111.33333333333334</ele><time>2026-03-29T10:02:45.448Z</time></trkpt><trkpt lat="45.415685" lon="10.5450167"><ele>112.0</ele><time>2026-03-29T10:02:46.448Z</time></trkpt><trkpt lat="45.4155667" lon="10.54479"><ele>112.75</ele><time>2026-03-29T10:02:47.448Z</time></trkpt><trkpt lat="45.41546" lon="10.5446017"><ele>113.5</ele><time>2026-03-29T10:02:48.447Z</time></trkpt><trkpt lat="45.41537" lon="10.5444533"><ele>114.25</ele><time>2026-03-29T10:02:49.447Z</time></trkpt><trkpt lat="45.4152933" lon="10.5443483"><ele>115.0</ele><time>2026-03-29T10:02:50.447Z</time></trkpt><trkpt lat="45.4152367" lon="10.5442733"><ele>115.83333333333334</ele><time>2026-03-29T10:02:51.447Z</time></trkpt><trkpt lat="45.4151483" lon="10.5441983"><ele>116.66666666666667</ele><time>2026-03-29T10:02:53.447Z</time></trkpt><trkpt lat="45.4150683" lon="10.544245"><ele>117.5</ele><time>2026-03-29T10:02:56.446Z</time></trkpt><trkpt lat="45.4151317" lon="10.544215"><ele>118.33333333333334</ele><time>2026-03-29T10:03:01.447Z</time></trkpt><trkpt lat="45.4152117" lon="10.5442567"><ele>119.16666666666667</ele><time>2026-03-29T10:03:02.447Z</time></trkpt><trkpt lat="45.415315" lon="10.5442933"><ele>120.0</ele><time>2026-03-29T10:03:03.447Z</time></trkpt><trkpt lat="45.4154283" lon="10.5443017"><ele>118.5</ele><time>2026-03-29T10:03:04.447Z</time></trkpt><trkpt lat="45.4155517" lon="10.54429"><ele>117.0</ele><time>2026-03-29T10:03:05.446Z</time></trkpt><trkpt lat="45.4156967" lon="10.5442617"><ele>115.5</ele><time>2026-03-29T10:03:06.447Z</time></trkpt><trkpt lat="45.4158533" lon="10.5442133"><ele>114.0</ele><time>2026-03-29T10:03:07.446Z</time></trkpt><trkpt lat="45.416025" lon="10.5441617"><ele>114.0</ele><time>2026-03-29T10:03:08.447Z</time></trkpt><trkpt lat="45.4162033" lon="10.544115"><ele>114.0</ele><time>2026-03-29T10:03:09.447Z</time></trkpt><trkpt lat="45.4163617" lon="10.54407"><ele>114.0</ele><time>2026-03-29T10:03:10.447Z</time></trkpt><trkpt lat="45.4165" lon="10.5440183"><ele>112.75</ele><time>2026-03-29T10:03:11.446Z</time></trkpt><trkpt lat="45.4166333" lon="10.543965"><ele>111.5</ele><time>2026-03-29T10:03:12.447Z</time></trkpt><trkpt lat="45.41676" lon="10.54391"><ele>110.25</ele><time>2026-03-29T10:03:13.447Z</time></trkpt><trkpt lat="45.4168833" lon="10.5438317"><ele>109.0</ele><time>2026-03-29T10:03:14.447Z</time></trkpt><trkpt lat="45.417005" lon="10.5437267"><ele>108.66666666666667</ele><time>2026-03-29T10:03:15.447Z</time></trkpt><trkpt lat="45.417125" lon="10.5435917"><ele>108.33333333333334</ele><time>2026-03-29T10:03:16.447Z</time></trkpt><trkpt lat="45.4172333" lon="10.5434333"><ele>108.0</ele><time>2026-03-29T10:03:17.447Z</time></trkpt><trkpt lat="45.4173233" lon="10.5432517"><ele>108.0</ele><time>2026-03-29T10:03:18.447Z</time></trkpt><trkpt lat="45.4174117" lon="10.5430583"><ele>108.0</ele><time>2026-03-29T10:03:19.446Z</time></trkpt><trkpt lat="45.4175167" lon="10.5428517"><ele>108.0</ele><time>2026-03-29T10:03:20.446Z</time></trkpt><trkpt lat="45.4176183" lon="10.542645"><ele>108.33333333333334</ele><time>2026-03-29T10:03:21.446Z</time></trkpt><trkpt lat="45.4177183" lon="10.54245"><ele>108.66666666666667</ele><time>2026-03-29T10:03:22.447Z</time></trkpt><trkpt lat="45.4178117" lon="10.5422583"><ele>109.0</ele><time>2026-03-29T10:03:23.446Z</time></trkpt><trkpt lat="45.41791" lon="10.542065"><ele>109.0</ele><time>2026-03-29T10:03:24.447Z</time></trkpt><trkpt lat="45.4180017" lon="10.5418717"><ele>109.0</ele><time>2026-03-29T10:03:25.447Z</time></trkpt><trkpt lat="45.4180967" lon="10.5416783"><ele>109.0</ele><time>2026-03-29T10:03:26.447Z</time></trkpt><trkpt lat="45.4181933" lon="10.5415033"><ele>109.0</ele><time>2026-03-29T10:03:27.447Z</time></trkpt><trkpt lat="45.4183017" lon="10.541345"><ele>109.0</ele><time>2026-03-29T10:03:28.447Z</time></trkpt><trkpt lat="45.418425" lon="10.541205"><ele>109.0</ele><time>2026-03-29T10:03:29.447Z</time></trkpt><trkpt lat="45.418565" lon="10.5410683"><ele>110.33333333333334</ele><time>2026-03-29T10:03:30.447Z</time></trkpt><trkpt lat="45.4187133" lon="10.54093"><ele>111.66666666666666</ele><time>2026-03-29T10:03:31.447Z</time></trkpt><trkpt lat="45.4188517" lon="10.5407933"><ele>113.0</ele><time>2026-03-29T10:03:32.447Z</time></trkpt><trkpt lat="45.418975" lon="10.540675"><ele>113.0</ele><time>2026-03-29T10:03:33.447Z</time></trkpt><trkpt lat="45.4190883" lon="10.5405783"><ele>113.0</ele><time>2026-03-29T10:03:34.447Z</time></trkpt><trkpt lat="45.4192017" lon="10.54049"><ele>113.0</ele><time>2026-03-29T10:03:35.447Z</time></trkpt><trkpt lat="45.4193317" lon="10.5404117"><ele>113.0</ele><time>2026-03-29T10:03:36.447Z</time></trkpt><trkpt lat="45.4194733" lon="10.5403483"><ele>113.66666666666666</ele><time>2026-03-29T10:03:37.447Z</time></trkpt><trkpt lat="45.4196167" lon="10.5402833"><ele>114.33333333333334</ele><time>2026-03-29T10:03:38.447Z</time></trkpt><trkpt lat="45.4197683" lon="10.5402083"><ele>115.0</ele><time>2026-03-29T10:03:39.447Z</time></trkpt><trkpt lat="45.4199133" lon="10.5401233"><ele>115.25</ele><time>2026-03-29T10:03:40.447Z</time></trkpt><trkpt lat="45.4200517" lon="10.5400133"><ele>115.5</ele><time>2026-03-29T10:03:41.447Z</time></trkpt><trkpt lat="45.4201733" lon="10.5398983"><ele>115.75</ele><time>2026-03-29T10:03:42.447Z</time></trkpt><trkpt lat="45.4202883" lon="10.539785"><ele>116.0</ele><time>2026-03-29T10:03:43.447Z</time></trkpt><trkpt lat="45.4204" lon="10.53965"><ele>117.25</ele><time>2026-03-29T10:03:44.447Z</time></trkpt><trkpt lat="45.420505" lon="10.5395233"><ele>118.5</ele><time>2026-03-29T10:03:45.447Z</time></trkpt><trkpt lat="45.4206067" lon="10.5394117"><ele>119.75</ele><time>2026-03-29T10:03:46.447Z</time></trkpt><trkpt lat="45.4207217" lon="10.5393267"><ele>121.0</ele><time>2026-03-29T10:03:47.447Z</time></trkpt><trkpt lat="45.4208617" lon="10.5392583"><ele>121.0</ele><time>2026-03-29T10:03:48.447Z</time></trkpt><trkpt lat="45.4210183" lon="10.5391983"><ele>121.0</ele><time>2026-03-29T10:03:49.447Z</time></trkpt><trkpt lat="45.42119" lon="10.5391383"><ele>121.0</ele><time>2026-03-29T10:03:50.447Z</time></trkpt><trkpt lat="45.421365" lon="10.5390567"><ele>120.33333333333334</ele><time>2026-03-29T10:03:51.447Z</time></trkpt><trkpt lat="45.4215367" lon="10.5389817"><ele>119.66666666666666</ele><time>2026-03-29T10:03:52.447Z</time></trkpt><trkpt lat="45.4216867" lon="10.5389083"><ele>119.0</ele><time>2026-03-29T10:03:53.447Z</time></trkpt><trkpt lat="45.4218183" lon="10.5388367"><ele>119.0</ele><time>2026-03-29T10:03:54.447Z</time></trkpt><trkpt lat="45.4219167" lon="10.5387783"><ele>119.0</ele><time>2026-03-29T10:03:55.447Z</time></trkpt><trkpt lat="45.4220067" lon="10.538725"><ele>119.0</ele><time>2026-03-29T10:03:56.447Z</time></trkpt><trkpt lat="45.4221017" lon="10.5386717"><ele>119.0</ele><time>2026-03-29T10:03:57.447Z</time></trkpt><trkpt lat="45.4222267" lon="10.5385917"><ele>119.0</ele><time>2026-03-29T10:03:58.447Z</time></trkpt><trkpt lat="45.4223733" lon="10.5385083"><ele>120.66666666666666</ele><time>2026-03-29T10:03:59.446Z</time></trkpt><trkpt lat="45.42254" lon="10.5384233"><ele>122.33333333333334</ele><time>2026-03-29T10:04:00.447Z</time></trkpt><trkpt lat="45.422725" lon="10.5383433"><ele>124.0</ele><time>2026-03-29T10:04:01.447Z</time></trkpt><trkpt lat="45.42292" lon="10.5382667"><ele>124.66666666666667</ele><time>2026-03-29T10:04:02.447Z</time></trkpt><trkpt lat="45.42313" lon="10.53819"><ele>125.33333333333334</ele><time>2026-03-29T10:04:03.447Z</time></trkpt><trkpt lat="45.4233378" lon="10.5381196"><ele>126.0</ele><time>2026-03-29T10:04:04.447Z</time></trkpt><trkpt lat="45.4235327" lon="10.538053"><ele>126.0</ele><time>2026-03-29T10:04:05.447Z</time></trkpt><trkpt lat="45.4237061" lon="10.5379916"><ele>126.0</ele><time>2026-03-29T10:04:06.447Z</time></trkpt><trkpt lat="45.4238765" lon="10.5379402"><ele>126.0</ele><time>2026-03-29T10:04:07.446Z</time></trkpt><trkpt lat="45.4240268" lon="10.5379173"><ele>125.5</ele><time>2026-03-29T10:04:08.447Z</time></trkpt><trkpt lat="45.4241646" lon="10.5379088"><ele>125.0</ele><time>2026-03-29T10:04:09.447Z</time></trkpt><trkpt lat="45.4242876" lon="10.5379156"><ele>124.5</ele><time>2026-03-29T10:04:10.447Z</time></trkpt><trkpt lat="45.4244042" lon="10.5379421"><ele>124.0</ele><time>2026-03-29T10:04:11.447Z</time></trkpt><trkpt lat="45.4245294" lon="10.5379786"><ele>123.0</ele><time>2026-03-29T10:04:12.447Z</time></trkpt><trkpt lat="45.4246591" lon="10.5380511"><ele>122.0</ele><time>2026-03-29T10:04:13.447Z</time></trkpt><trkpt lat="45.4247868" lon="10.538157"><ele>121.0</ele><time>2026-03-29T10:04:14.447Z</time></trkpt><trkpt lat="45.4249172" lon="10.5382902"><ele>120.0</ele><time>2026-03-29T10:04:15.447Z</time></trkpt><trkpt lat="45.4250584" lon="10.5384318"><ele>120.0</ele><time>2026-03-29T10:04:16.447Z</time></trkpt><trkpt lat="45.4252109" lon="10.5385581"><ele>120.0</ele><time>2026-03-29T10:04:17.447Z</time></trkpt><trkpt lat="45.4253649" lon="10.5386505"><ele>120.0</ele><time>2026-03-29T10:04:18.447Z</time></trkpt><trkpt lat="45.4255222" lon="10.5387269"><ele>117.66666666666666</ele><time>2026-03-29T10:04:19.447Z</time></trkpt><trkpt lat="45.425694" lon="10.5387826"><ele>115.33333333333333</ele><time>2026-03-29T10:04:20.447Z</time></trkpt><trkpt lat="45.4258683" lon="10.5388261"><ele>113.0</ele><time>2026-03-29T10:04:21.447Z</time></trkpt><trkpt lat="45.4260246" lon="10.5388529"><ele>113.0</ele><time>2026-03-29T10:04:22.447Z</time></trkpt><trkpt lat="45.4261632" lon="10.538854"><ele>113.00000000000001</ele><time>2026-03-29T10:04:23.447Z</time></trkpt><trkpt lat="45.4262735" lon="10.5388357"><ele>113.00000000000001</ele><time>2026-03-29T10:04:24.447Z</time></trkpt><trkpt lat="45.4263728" lon="10.5388087"><ele>113.0</ele><time>2026-03-29T10:04:25.447Z</time></trkpt><trkpt lat="45.4264667" lon="10.538787"><ele>113.0</ele><time>2026-03-29T10:04:26.447Z</time></trkpt><trkpt lat="45.4265638" lon="10.538767"><ele>113.0</ele><time>2026-03-29T10:04:27.447Z</time></trkpt><trkpt lat="45.4266636" lon="10.5387607"><ele>113.00000000000001</ele><time>2026-03-29T10:04:28.447Z</time></trkpt><trkpt lat="45.4267658" lon="10.5387515"><ele>113.00000000000001</ele><time>2026-03-29T10:04:29.447Z</time></trkpt><trkpt lat="45.4268731" lon="10.5387383"><ele>113.0</ele><time>2026-03-29T10:04:30.447Z</time></trkpt><trkpt lat="45.4269891" lon="10.5387294"><ele>113.0</ele><time>2026-03-29T10:04:31.447Z</time></trkpt><trkpt lat="45.4271043" lon="10.5387236"><ele>112.80000000000001</ele><time>2026-03-29T10:04:32.447Z</time></trkpt><trkpt lat="45.4272133" lon="10.5387145"><ele>112.60000000000001</ele><time>2026-03-29T10:04:33.447Z</time></trkpt><trkpt lat="45.4273082" lon="10.5387114"><ele>112.39999999999999</ele><time>2026-03-29T10:04:34.447Z</time></trkpt><trkpt lat="45.4273842" lon="10.5386978"><ele>112.19999999999999</ele><time>2026-03-29T10:04:35.446Z</time></trkpt><trkpt lat="45.4274983" lon="10.5387257"><ele>112.0</ele><time>2026-03-29T10:04:37.447Z</time></trkpt><trkpt lat="45.4275494" lon="10.5387837"><ele>112.0</ele><time>2026-03-29T10:04:38.447Z</time></trkpt><trkpt lat="45.4276123" lon="10.5388899"><ele>112.0</ele><time>2026-03-29T10:04:39.447Z</time></trkpt><trkpt lat="45.4276948" lon="10.5390558"><ele>112.0</ele><time>2026-03-29T10:04:40.447Z</time></trkpt><trkpt lat="45.4277985" lon="10.5392693"><ele>112.0</ele><time>2026-03-29T10:04:41.447Z</time></trkpt><trkpt lat="45.4279242" lon="10.5395133"><ele>110.66666666666667</ele><time>2026-03-29T10:04:42.447Z</time></trkpt><trkpt lat="45.4280541" lon="10.5397582"><ele>109.33333333333334</ele><time>2026-03-29T10:04:43.447Z</time></trkpt><trkpt lat="45.428171" lon="10.5399818"><ele>108.0</ele><time>2026-03-29T10:04:44.447Z</time></trkpt><trkpt lat="45.4282738" lon="10.5401749"><ele>108.0</ele><time>2026-03-29T10:04:45.446Z</time></trkpt><trkpt lat="45.4283576" lon="10.5403353"><ele>108.0</ele><time>2026-03-29T10:04:46.447Z</time></trkpt><trkpt lat="45.4284325" lon="10.5404677"><ele>108.0</ele><time>2026-03-29T10:04:47.447Z</time></trkpt><trkpt lat="45.4285088" lon="10.5406013"><ele>108.0</ele><time>2026-03-29T10:04:48.447Z</time></trkpt><trkpt lat="45.4285902" lon="10.5407496"><ele>107.75</ele><time>2026-03-29T10:04:49.447Z</time></trkpt><trkpt lat="45.4286791" lon="10.5409075"><ele>107.5</ele><time>2026-03-29T10:04:50.447Z</time></trkpt><trkpt lat="45.4287746" lon="10.5410702"><ele>107.25</ele><time>2026-03-29T10:04:51.447Z</time></trkpt><trkpt lat="45.4288724" lon="10.5412377"><ele>107.0</ele><time>2026-03-29T10:04:52.447Z</time></trkpt><trkpt lat="45.42897" lon="10.5414067"><ele>107.0</ele><time>2026-03-29T10:04:53.446Z</time></trkpt><trkpt lat="45.42906" lon="10.5415767"><ele>107.0</ele><time>2026-03-29T10:04:54.446Z</time></trkpt><trkpt lat="45.4291517" lon="10.54174"><ele>107.0</ele><time>2026-03-29T10:04:55.447Z</time></trkpt><trkpt lat="45.4292483" lon="10.5418983"><ele>107.0</ele><time>2026-03-29T10:04:56.447Z</time></trkpt><trkpt lat="45.4293367" lon="10.5420617"><ele>106.75</ele><time>2026-03-29T10:04:57.447Z</time></trkpt><trkpt lat="45.4294183" lon="10.54221"><ele>106.5</ele><time>2026-03-29T10:04:58.447Z</time></trkpt><trkpt lat="45.429495" lon="10.5423483"><ele>106.25</ele><time>2026-03-29T10:04:59.446Z</time></trkpt><trkpt lat="45.4295667" lon="10.5424817"><ele>106.0</ele><time>2026-03-29T10:05:00.447Z</time></trkpt><trkpt lat="45.42964" lon="10.5426033"><ele>106.0</ele><time>2026-03-29T10:05:01.447Z</time></trkpt><trkpt lat="45.4297033" lon="10.542715"><ele>106.0</ele><time>2026-03-29T10:05:02.447Z</time></trkpt><trkpt lat="45.4297633" lon="10.54282"><ele>106.0</ele><time>2026-03-29T10:05:03.447Z</time></trkpt><trkpt lat="45.4298167" lon="10.5429217"><ele>106.0</ele><time>2026-03-29T10:05:04.447Z</time></trkpt><trkpt lat="45.4298667" lon="10.5430317"><ele>106.0</ele><time>2026-03-29T10:05:05.447Z</time></trkpt><trkpt lat="45.4299233" lon="10.543125"><ele>105.8</ele><time>2026-03-29T10:05:06.447Z</time></trkpt><trkpt lat="45.4299783" lon="10.5432133"><ele>105.6</ele><time>2026-03-29T10:05:07.447Z</time></trkpt><trkpt lat="45.4300333" lon="10.5433033"><ele>105.4</ele><time>2026-03-29T10:05:08.447Z</time></trkpt><trkpt lat="45.43009" lon="10.5434067"><ele>105.2</ele><time>2026-03-29T10:05:09.447Z</time></trkpt><trkpt lat="45.4301533" lon="10.54354"><ele>105.0</ele><time>2026-03-29T10:05:10.447Z</time></trkpt><trkpt lat="45.4302367" lon="10.5436933"><ele>105.0</ele><time>2026-03-29T10:05:11.447Z</time></trkpt><trkpt lat="45.4303417" lon="10.543885"><ele>105.0</ele><time>2026-03-29T10:05:12.447Z</time></trkpt><trkpt lat="45.4304617" lon="10.5440983"><ele>105.0</ele><time>2026-03-29T10:05:13.447Z</time></trkpt><trkpt lat="45.4305633" lon="10.5443167"><ele>105.0</ele><time>2026-03-29T10:05:14.447Z</time></trkpt><trkpt lat="45.4306583" lon="10.5445233"><ele>105.0</ele><time>2026-03-29T10:05:15.447Z</time></trkpt><trkpt lat="45.4307467" lon="10.5447017"><ele>105.0</ele><time>2026-03-29T10:05:16.447Z</time></trkpt><trkpt lat="45.4308317" lon="10.54487"><ele>105.0</ele><time>2026-03-29T10:05:17.447Z</time></trkpt><trkpt lat="45.4309017" lon="10.5450317"><ele>105.0</ele><time>2026-03-29T10:05:18.447Z</time></trkpt><trkpt lat="45.4309517" lon="10.5451783"><ele>105.0</ele><time>2026-03-29T10:05:19.447Z</time></trkpt><trkpt lat="45.431" lon="10.5453133"><ele>105.0</ele><time>2026-03-29T10:05:20.447Z</time></trkpt><trkpt lat="45.4310417" lon="10.5454367"><ele>105.0</ele><time>2026-03-29T10:05:21.446Z</time></trkpt><trkpt lat="45.4310917" lon="10.5455617"><ele>105.0</ele><time>2026-03-29T10:05:22.447Z</time></trkpt><trkpt lat="45.4311483" lon="10.5456883"><ele>105.0</ele><time>2026-03-29T10:05:23.447Z</time></trkpt><trkpt lat="45.4312083" lon="10.54581"><ele>105.0</ele><time>2026-03-29T10:05:24.447Z</time></trkpt><trkpt lat="45.4312667" lon="10.545935"><ele>105.0</ele><time>2026-03-29T10:05:25.447Z</time></trkpt><trkpt lat="45.4313133" lon="10.54606"><ele>105.0</ele><time>2026-03-29T10:05:26.447Z</time></trkpt><trkpt lat="45.4313467" lon="10.5461767"><ele>105.0</ele><time>2026-03-29T10:05:27.447Z</time></trkpt><trkpt lat="45.4313667" lon="10.54629"><ele>105.0</ele><time>2026-03-29T10:05:28.447Z</time></trkpt><trkpt lat="45.4313617" lon="10.5464033"><ele>105.0</ele><time>2026-03-29T10:05:29.446Z</time></trkpt><trkpt lat="45.4313267" lon="10.54651"><ele>105.0</ele><time>2026-03-29T10:05:30.447Z</time></trkpt><trkpt lat="45.4313133" lon="10.5466033"><ele>105.0</ele><time>2026-03-29T10:05:31.447Z</time></trkpt><trkpt lat="45.431365" lon="10.54679"><ele>105.25</ele><time>2026-03-29T10:05:33.447Z</time></trkpt><trkpt lat="45.4314333" lon="10.5468733"><ele>105.5</ele><time>2026-03-29T10:05:34.447Z</time></trkpt><trkpt lat="45.4315" lon="10.546995"><ele>105.75</ele><time>2026-03-29T10:05:35.447Z</time></trkpt><trkpt lat="45.4315917" lon="10.5471433"><ele>106.0</ele><time>2026-03-29T10:05:36.447Z</time></trkpt><trkpt lat="45.4316933" lon="10.54731"><ele>106.66666666666667</ele><time>2026-03-29T10:05:37.447Z</time></trkpt><trkpt lat="45.4318033" lon="10.5474567"><ele>107.33333333333334</ele><time>2026-03-29T10:05:38.447Z</time></trkpt><trkpt lat="45.431915" lon="10.5476167"><ele>108.0</ele><time>2026-03-29T10:05:39.447Z</time></trkpt><trkpt lat="45.4320333" lon="10.5477733"><ele>108.25</ele><time>2026-03-29T10:05:40.447Z</time></trkpt><trkpt lat="45.43215" lon="10.5479117"><ele>108.5</ele><time>2026-03-29T10:05:41.447Z</time></trkpt><trkpt lat="45.4322533" lon="10.5480633"><ele>108.75</ele><time>2026-03-29T10:05:42.447Z</time></trkpt><trkpt lat="45.4323667" lon="10.54819"><ele>109.0</ele><time>2026-03-29T10:05:43.446Z</time></trkpt><trkpt lat="45.4324733" lon="10.54833"><ele>109.0</ele><time>2026-03-29T10:05:44.447Z</time></trkpt><trkpt lat="45.4325717" lon="10.548495"><ele>109.0</ele><time>2026-03-29T10:05:45.447Z</time></trkpt><trkpt lat="45.4326767" lon="10.5486383"><ele>109.0</ele><time>2026-03-29T10:05:46.447Z</time></trkpt><trkpt lat="45.432805" lon="10.5487617"><ele>109.25</ele><time>2026-03-29T10:05:47.447Z</time></trkpt><trkpt lat="45.4329283" lon="10.5488533"><ele>109.5</ele><time>2026-03-29T10:05:48.447Z</time></trkpt><trkpt lat="45.4330417" lon="10.5489317"><ele>109.75</ele><time>2026-03-29T10:05:49.447Z</time></trkpt><trkpt lat="45.4331267" lon="10.5490133"><ele>110.0</ele><time>2026-03-29T10:05:50.446Z</time></trkpt><trkpt lat="45.433185" lon="10.5490983"><ele>109.99999999999999</ele><time>2026-03-29T10:05:51.447Z</time></trkpt><trkpt lat="45.4332183" lon="10.5492033"><ele>110.0</ele><time>2026-03-29T10:05:52.446Z</time></trkpt><trkpt lat="45.43324" lon="10.5493067"><ele>110.0</ele><time>2026-03-29T10:05:53.447Z</time></trkpt><trkpt lat="45.43327" lon="10.5493867"><ele>110.0</ele><time>2026-03-29T10:05:54.446Z</time></trkpt><trkpt lat="45.433385" lon="10.549395"><ele>109.99999999999999</ele><time>2026-03-29T10:05:56.447Z</time></trkpt><trkpt lat="45.4334833" lon="10.549335"><ele>110.0</ele><time>2026-03-29T10:05:57.447Z</time></trkpt><trkpt lat="45.4336267" lon="10.5492383"><ele>111.0</ele><time>2026-03-29T10:05:58.447Z</time></trkpt><trkpt lat="45.43381" lon="10.5491133"><ele>112.0</ele><time>2026-03-29T10:05:59.447Z</time></trkpt><trkpt lat="45.4340217" lon="10.5489567"><ele>113.0</ele><time>2026-03-29T10:06:00.447Z</time></trkpt><trkpt lat="45.4342383" lon="10.5487617"><ele>112.33333333333333</ele><time>2026-03-29T10:06:01.446Z</time></trkpt><trkpt lat="45.4344383" lon="10.5485733"><ele>111.66666666666666</ele><time>2026-03-29T10:06:02.446Z</time></trkpt><trkpt lat="45.4345883" lon="10.5484017"><ele>111.0</ele><time>2026-03-29T10:06:03.447Z</time></trkpt><trkpt lat="45.43472" lon="10.5482567"><ele>111.0</ele><time>2026-03-29T10:06:04.447Z</time></trkpt><trkpt lat="45.4348183" lon="10.5481217"><ele>111.0</ele><time>2026-03-29T10:06:05.447Z</time></trkpt><trkpt lat="45.4348983" lon="10.5480183"><ele>111.0</ele><time>2026-03-29T10:06:06.447Z</time></trkpt><trkpt lat="45.4349567" lon="10.5479433"><ele>111.0</ele><time>2026-03-29T10:06:07.447Z</time></trkpt><trkpt lat="45.435005" lon="10.5478467"><ele>111.0</ele><time>2026-03-29T10:06:08.447Z</time></trkpt><trkpt lat="45.4350467" lon="10.5477217"><ele>110.75</ele><time>2026-03-29T10:06:09.446Z</time></trkpt><trkpt lat="45.4350883" lon="10.5475533"><ele>110.5</ele><time>2026-03-29T10:06:10.447Z</time></trkpt><trkpt lat="45.4351583" lon="10.5473567"><ele>110.25</ele><time>2026-03-29T10:06:11.446Z</time></trkpt><trkpt lat="45.435235" lon="10.54716"><ele>110.0</ele><time>2026-03-29T10:06:12.447Z</time></trkpt><trkpt lat="45.4353117" lon="10.5469717"><ele>110.0</ele><time>2026-03-29T10:06:13.446Z</time></trkpt><trkpt lat="45.435395" lon="10.5468183"><ele>110.0</ele><time>2026-03-29T10:06:14.447Z</time></trkpt><trkpt lat="45.4354767" lon="10.5466817"><ele>110.0</ele><time>2026-03-29T10:06:15.447Z</time></trkpt><trkpt lat="45.4355467" lon="10.5465617"><ele>110.0</ele><time>2026-03-29T10:06:16.447Z</time></trkpt><trkpt lat="45.4356183" lon="10.5464567"><ele>109.49999999999999</ele><time>2026-03-29T10:06:17.446Z</time></trkpt><trkpt lat="45.43568" lon="10.54636"><ele>109.0</ele><time>2026-03-29T10:06:18.447Z</time></trkpt><trkpt lat="45.435735" lon="10.5462767"><ele>108.5</ele><time>2026-03-29T10:06:19.447Z</time></trkpt><trkpt lat="45.4357883" lon="10.546195"><ele>108.0</ele><time>2026-03-29T10:06:20.447Z</time></trkpt><trkpt lat="45.4358383" lon="10.5461133"><ele>107.49999999999999</ele><time>2026-03-29T10:06:21.447Z</time></trkpt><trkpt lat="45.4358883" lon="10.54604"><ele>107.0</ele><time>2026-03-29T10:06:22.446Z</time></trkpt><trkpt lat="45.4359417" lon="10.5459667"><ele>107.0</ele><time>2026-03-29T10:06:23.447Z</time></trkpt><trkpt lat="45.436" lon="10.545895"><ele>106.99999999999999</ele><time>2026-03-29T10:06:24.447Z</time></trkpt><trkpt lat="45.4360633" lon="10.5458183"><ele>106.99999999999999</ele><time>2026-03-29T10:06:25.447Z</time></trkpt><trkpt lat="45.4361283" lon="10.5457333"><ele>107.0</ele><time>2026-03-29T10:06:26.447Z</time></trkpt><trkpt lat="45.4361933" lon="10.5456217"><ele>107.0</ele><time>2026-03-29T10:06:27.447Z</time></trkpt><trkpt lat="45.436275" lon="10.5455017"><ele>107.0</ele><time>2026-03-29T10:06:28.447Z</time></trkpt><trkpt lat="45.4363617" lon="10.5453767"><ele>107.0</ele><time>2026-03-29T10:06:29.447Z</time></trkpt><trkpt lat="45.436455" lon="10.54524"><ele>107.0</ele><time>2026-03-29T10:06:30.447Z</time></trkpt><trkpt lat="45.43656" lon="10.5450983"><ele>107.0</ele><time>2026-03-29T10:06:31.447Z</time></trkpt><trkpt lat="45.4366683" lon="10.5449467"><ele>107.0</ele><time>2026-03-29T10:06:32.447Z</time></trkpt><trkpt lat="45.43679" lon="10.5447833"><ele>107.0</ele><time>2026-03-29T10:06:33.447Z</time></trkpt><trkpt lat="45.4369033" lon="10.5446117"><ele>107.0</ele><time>2026-03-29T10:06:34.447Z</time></trkpt><trkpt lat="45.4370267" lon="10.5444333"><ele>106.33333333333333</ele><time>2026-03-29T10:06:35.447Z</time></trkpt><trkpt lat="45.43715" lon="10.5442367"><ele>105.66666666666666</ele><time>2026-03-29T10:06:36.447Z</time></trkpt><trkpt lat="45.4372783" lon="10.5440283"><ele>105.0</ele><time>2026-03-29T10:06:37.447Z</time></trkpt><trkpt lat="45.4374017" lon="10.5438067"><ele>105.66666666666666</ele><time>2026-03-29T10:06:38.447Z</time></trkpt><trkpt lat="45.4375233" lon="10.54358"><ele>106.33333333333333</ele><time>2026-03-29T10:06:39.447Z</time></trkpt><trkpt lat="45.4376483" lon="10.5433567"><ele>107.0</ele><time>2026-03-29T10:06:40.447Z</time></trkpt><trkpt lat="45.4377667" lon="10.543115"><ele>107.0</ele><time>2026-03-29T10:06:41.447Z</time></trkpt><trkpt lat="45.43789" lon="10.5428633"><ele>107.0</ele><time>2026-03-29T10:06:42.447Z</time></trkpt><trkpt lat="45.4380183" lon="10.5426283"><ele>107.0</ele><time>2026-03-29T10:06:43.447Z</time></trkpt><trkpt lat="45.4381367" lon="10.54239"><ele>107.0</ele><time>2026-03-29T10:06:44.447Z</time></trkpt><trkpt lat="45.4382517" lon="10.5421517"><ele>107.0</ele><time>2026-03-29T10:06:45.446Z</time></trkpt><trkpt lat="45.43838" lon="10.5419067"><ele>107.0</ele><time>2026-03-29T10:06:46.447Z</time></trkpt><trkpt lat="45.4385117" lon="10.5416617"><ele>106.66666666666666</ele><time>2026-03-29T10:06:47.447Z</time></trkpt><trkpt lat="45.4386467" lon="10.54142"><ele>106.33333333333334</ele><time>2026-03-29T10:06:48.447Z</time></trkpt><trkpt lat="45.4387817" lon="10.5411867"><ele>106.0</ele><time>2026-03-29T10:06:49.446Z</time></trkpt><trkpt lat="45.4389217" lon="10.5409733"><ele>106.33333333333334</ele><time>2026-03-29T10:06:50.447Z</time></trkpt><trkpt lat="45.4390517" lon="10.5407767"><ele>106.66666666666666</ele><time>2026-03-29T10:06:51.447Z</time></trkpt><trkpt lat="45.4391667" lon="10.5405783"><ele>107.0</ele><time>2026-03-29T10:06:52.447Z</time></trkpt><trkpt lat="45.439275" lon="10.5403683"><ele>107.0</ele><time>2026-03-29T10:06:53.447Z</time></trkpt><trkpt lat="45.4393783" lon="10.5401567"><ele>107.0</ele><time>2026-03-29T10:06:54.446Z</time></trkpt><trkpt lat="45.4394633" lon="10.539945"><ele>107.0</ele><time>2026-03-29T10:06:55.447Z</time></trkpt><trkpt lat="45.4395367" lon="10.539735"><ele>107.0</ele><time>2026-03-29T10:06:56.447Z</time></trkpt><trkpt lat="45.4395983" lon="10.53951"><ele>107.0</ele><time>2026-03-29T10:06:57.447Z</time></trkpt><trkpt lat="45.4396633" lon="10.539275"><ele>107.0</ele><time>2026-03-29T10:06:58.447Z</time></trkpt><trkpt lat="45.4397417" lon="10.5390317"><ele>106.66666666666666</ele><time>2026-03-29T10:06:59.447Z</time></trkpt><trkpt lat="45.439825" lon="10.5388"><ele>106.33333333333334</ele><time>2026-03-29T10:07:00.447Z</time></trkpt><trkpt lat="45.4399133" lon="10.538575"><ele>106.0</ele><time>2026-03-29T10:07:01.447Z</time></trkpt><trkpt lat="45.4399983" lon="10.5383667"><ele>106.0</ele><time>2026-03-29T10:07:02.447Z</time></trkpt><trkpt lat="45.4400717" lon="10.5381617"><ele>106.0</ele><time>2026-03-29T10:07:03.447Z</time></trkpt><trkpt lat="45.4401617" lon="10.53794"><ele>106.0</ele><time>2026-03-29T10:07:04.447Z</time></trkpt><trkpt lat="45.4402617" lon="10.537715"><ele>106.0</ele><time>2026-03-29T10:07:05.447Z</time></trkpt><trkpt lat="45.4403717" lon="10.5374867"><ele>106.0</ele><time>2026-03-29T10:07:06.447Z</time></trkpt><trkpt lat="45.44049" lon="10.5372533"><ele>106.0</ele><time>2026-03-29T10:07:07.447Z</time></trkpt><trkpt lat="45.44061" lon="10.5370117"><ele>106.66666666666667</ele><time>2026-03-29T10:07:08.447Z</time></trkpt><trkpt lat="45.4407317" lon="10.5367717"><ele>107.33333333333334</ele><time>2026-03-29T10:07:09.447Z</time></trkpt><trkpt lat="45.4408583" lon="10.5365217"><ele>108.0</ele><time>2026-03-29T10:07:10.447Z</time></trkpt><trkpt lat="45.440985" lon="10.5362717"><ele>108.33333333333334</ele><time>2026-03-29T10:07:11.447Z</time></trkpt><trkpt lat="45.4411017" lon="10.5360217"><ele>108.66666666666667</ele><time>2026-03-29T10:07:12.447Z</time></trkpt><trkpt lat="45.4412233" lon="10.5357833"><ele>109.0</ele><time>2026-03-29T10:07:13.447Z</time></trkpt><trkpt lat="45.44135" lon="10.5355467"><ele>108.66666666666667</ele><time>2026-03-29T10:07:14.447Z</time></trkpt><trkpt lat="45.4414717" lon="10.5353117"><ele>108.33333333333334</ele><time>2026-03-29T10:07:15.447Z</time></trkpt><trkpt lat="45.4415917" lon="10.5350967"><ele>108.0</ele><time>2026-03-29T10:07:16.446Z</time></trkpt><trkpt lat="45.4416933" lon="10.5348917"><ele>108.0</ele><time>2026-03-29T10:07:17.447Z</time></trkpt><trkpt lat="45.441785" lon="10.534705"><ele>108.0</ele><time>2026-03-29T10:07:18.447Z</time></trkpt><trkpt lat="45.4418767" lon="10.53454"><ele>108.0</ele><time>2026-03-29T10:07:19.447Z</time></trkpt><trkpt lat="45.4419533" lon="10.5344167"><ele>108.0</ele><time>2026-03-29T10:07:20.447Z</time></trkpt><trkpt lat="45.4420033" lon="10.534305"><ele>108.16666666666667</ele><time>2026-03-29T10:07:21.447Z</time></trkpt><trkpt lat="45.44201" lon="10.5342033"><ele>108.33333333333334</ele><time>2026-03-29T10:07:22.447Z</time></trkpt><trkpt lat="45.441995" lon="10.534115"><ele>108.5</ele><time>2026-03-29T10:07:23.446Z</time></trkpt><trkpt lat="45.4419517" lon="10.5340233"><ele>108.66666666666667</ele><time>2026-03-29T10:07:24.447Z</time></trkpt><trkpt lat="45.44186" lon="10.5339383"><ele>108.83333333333334</ele><time>2026-03-29T10:07:25.447Z</time></trkpt><trkpt lat="45.4417533" lon="10.53386"><ele>109.0</ele><time>2026-03-29T10:07:26.447Z</time></trkpt><trkpt lat="45.4416267" lon="10.533745"><ele>109.66666666666667</ele><time>2026-03-29T10:07:27.447Z</time></trkpt><trkpt lat="45.4414933" lon="10.5335967"><ele>110.33333333333334</ele><time>2026-03-29T10:07:28.447Z</time></trkpt><trkpt lat="45.4413517" lon="10.53343"><ele>111.0</ele><time>2026-03-29T10:07:29.446Z</time></trkpt><trkpt lat="45.4411867" lon="10.5332483"><ele>110.33333333333334</ele><time>2026-03-29T10:07:30.447Z</time></trkpt><trkpt lat="45.4410133" lon="10.5330733"><ele>109.66666666666667</ele><time>2026-03-29T10:07:31.447Z</time></trkpt><trkpt lat="45.4408583" lon="10.5329067"><ele>109.0</ele><time>2026-03-29T10:07:32.447Z</time></trkpt><trkpt lat="45.4407167" lon="10.5327567"><ele>109.0</ele><time>2026-03-29T10:07:33.447Z</time></trkpt><trkpt lat="45.4406" lon="10.53262"><ele>109.0</ele><time>2026-03-29T10:07:34.447Z</time></trkpt><trkpt lat="45.440495" lon="10.532505"><ele>109.0</ele><time>2026-03-29T10:07:35.447Z</time></trkpt><trkpt lat="45.4404017" lon="10.5324083"><ele>109.0</ele><time>2026-03-29T10:07:36.447Z</time></trkpt><trkpt lat="45.440315" lon="10.5323283"><ele>108.75</ele><time>2026-03-29T10:07:37.447Z</time></trkpt><trkpt lat="45.4402267" lon="10.5322833"><ele>108.5</ele><time>2026-03-29T10:07:38.447Z</time></trkpt><trkpt lat="45.4401283" lon="10.5322717"><ele>108.25</ele><time>2026-03-29T10:07:39.447Z</time></trkpt><trkpt lat="45.439995" lon="10.5322767"><ele>108.0</ele><time>2026-03-29T10:07:40.447Z</time></trkpt><trkpt lat="45.4398367" lon="10.5323117"><ele>108.0</ele><time>2026-03-29T10:07:41.447Z</time></trkpt><trkpt lat="45.4396483" lon="10.532355"><ele>108.0</ele><time>2026-03-29T10:07:42.447Z</time></trkpt><trkpt lat="45.4394517" lon="10.532405"><ele>108.0</ele><time>2026-03-29T10:07:43.446Z</time></trkpt><trkpt lat="45.4392433" lon="10.5324583"><ele>109.0</ele><time>2026-03-29T10:07:44.447Z</time></trkpt><trkpt lat="45.4390267" lon="10.5325083"><ele>110.0</ele><time>2026-03-29T10:07:45.447Z</time></trkpt><trkpt lat="45.4387967" lon="10.5325517"><ele>110.0</ele><time>2026-03-29T10:07:46.447Z</time></trkpt><trkpt lat="45.4385633" lon="10.532605"><ele>110.0</ele><time>2026-03-29T10:07:47.447Z</time></trkpt><trkpt lat="45.4383333" lon="10.5326583"><ele>110.0</ele><time>2026-03-29T10:07:48.447Z</time></trkpt><trkpt lat="45.4380983" lon="10.53272"><ele>110.0</ele><time>2026-03-29T10:07:49.446Z</time></trkpt><trkpt lat="45.43787" lon="10.532775"><ele>109.0</ele><time>2026-03-29T10:07:50.447Z</time></trkpt><trkpt lat="45.4376317" lon="10.5328283"><ele>108.0</ele><time>2026-03-29T10:07:51.447Z</time></trkpt><trkpt lat="45.43739" lon="10.53289"><ele>107.5</ele><time>2026-03-29T10:07:52.447Z</time></trkpt><trkpt lat="45.437155" lon="10.5329467"><ele>107.0</ele><time>2026-03-29T10:07:53.447Z</time></trkpt><trkpt lat="45.436935" lon="10.5330017"><ele>107.0</ele><time>2026-03-29T10:07:54.447Z</time></trkpt><trkpt lat="45.4367317" lon="10.5330483"><ele>107.0</ele><time>2026-03-29T10:07:55.447Z</time></trkpt><trkpt lat="45.4365533" lon="10.5330883"><ele>107.0</ele><time>2026-03-29T10:07:56.447Z</time></trkpt><trkpt lat="45.436395" lon="10.533125"><ele>107.19999999999999</ele><time>2026-03-29T10:07:57.447Z</time></trkpt><trkpt lat="45.4362567" lon="10.5331633"><ele>107.39999999999999</ele><time>2026-03-29T10:07:58.447Z</time></trkpt><trkpt lat="45.4361383" lon="10.53321"><ele>107.60000000000001</ele><time>2026-03-29T10:07:59.447Z</time></trkpt><trkpt lat="45.436045" lon="10.53324"><ele>107.80000000000001</ele><time>2026-03-29T10:08:00.447Z</time></trkpt><trkpt lat="45.43598" lon="10.5332467"><ele>108.0</ele><time>2026-03-29T10:08:01.447Z</time></trkpt><trkpt lat="45.4359233" lon="10.53318"><ele>108.0</ele><time>2026-03-29T10:08:03.446Z</time></trkpt><trkpt lat="45.43592" lon="10.5330067"><ele>108.0</ele><time>2026-03-29T10:08:05.447Z</time></trkpt><trkpt lat="45.4359583" lon="10.53284"><ele>108.0</ele><time>2026-03-29T10:08:06.446Z</time></trkpt><trkpt lat="45.436035" lon="10.5326133"><ele>108.0</ele><time>2026-03-29T10:08:07.446Z</time></trkpt><trkpt lat="45.4361383" lon="10.5323317"><ele>108.0</ele><time>2026-03-29T10:08:08.447Z</time></trkpt><trkpt lat="45.436255" lon="10.5320117"><ele>108.0</ele><time>2026-03-29T10:08:09.447Z</time></trkpt><trkpt lat="45.4363883" lon="10.5316733"><ele>106.5</ele><time>2026-03-29T10:08:10.447Z</time></trkpt><trkpt lat="45.4365117" lon="10.5313367"><ele>105.0</ele><time>2026-03-29T10:08:11.447Z</time></trkpt><trkpt lat="45.4366383" lon="10.531005"><ele>108.5</ele><time>2026-03-29T10:08:12.447Z</time></trkpt><trkpt lat="45.4367533" lon="10.53069"><ele>112.0</ele><time>2026-03-29T10:08:13.447Z</time></trkpt><trkpt lat="45.4368583" lon="10.5303883"><ele>113.0</ele><time>2026-03-29T10:08:14.447Z</time></trkpt><trkpt lat="45.43696" lon="10.530115"><ele>114.0</ele><time>2026-03-29T10:08:15.447Z</time></trkpt><trkpt lat="45.4370267" lon="10.5298767"><ele>115.0</ele><time>2026-03-29T10:08:16.447Z</time></trkpt><trkpt lat="45.43706" lon="10.5296317"><ele>118.33333333333334</ele><time>2026-03-29T10:08:17.447Z</time></trkpt><trkpt lat="45.4370417" lon="10.5293817"><ele>121.66666666666666</ele><time>2026-03-29T10:08:18.447Z</time></trkpt><trkpt lat="45.43698" lon="10.5291133"><ele>125.0</ele><time>2026-03-29T10:08:19.447Z</time></trkpt><trkpt lat="45.43689" lon="10.5288417"><ele>127.66666666666666</ele><time>2026-03-29T10:08:20.447Z</time></trkpt><trkpt lat="45.4368" lon="10.5285617"><ele>130.33333333333334</ele><time>2026-03-29T10:08:21.447Z</time></trkpt><trkpt lat="45.4367217" lon="10.5283017"><ele>133.0</ele><time>2026-03-29T10:08:22.447Z</time></trkpt><trkpt lat="45.43668" lon="10.5280717"><ele>134.0</ele><time>2026-03-29T10:08:23.447Z</time></trkpt><trkpt lat="45.4366667" lon="10.5278733"><ele>135.0</ele><time>2026-03-29T10:08:24.447Z</time></trkpt><trkpt lat="45.436675" lon="10.5276767"><ele>136.0</ele><time>2026-03-29T10:08:25.447Z</time></trkpt><trkpt lat="45.4367083" lon="10.5274733"><ele>137.0</ele><time>2026-03-29T10:08:26.447Z</time></trkpt><trkpt lat="45.436755" lon="10.5272433"><ele>137.33333333333331</ele><time>2026-03-29T10:08:27.447Z</time></trkpt><trkpt lat="45.4367967" lon="10.5269617"><ele>137.66666666666666</ele><time>2026-03-29T10:08:28.447Z</time></trkpt><trkpt lat="45.4368367" lon="10.5266817"><ele>138.0</ele><time>2026-03-29T10:08:29.447Z</time></trkpt><trkpt lat="45.4368783" lon="10.526405"><ele>138.33333333333334</ele><time>2026-03-29T10:08:30.447Z</time></trkpt><trkpt lat="45.4369083" lon="10.52615"><ele>138.66666666666669</ele><time>2026-03-29T10:08:31.447Z</time></trkpt><trkpt lat="45.4369417" lon="10.525925"><ele>139.0</ele><time>2026-03-29T10:08:32.447Z</time></trkpt><trkpt lat="45.4369833" lon="10.525715"><ele>139.0</ele><time>2026-03-29T10:08:33.447Z</time></trkpt><trkpt lat="45.4370183" lon="10.52551"><ele>139.0</ele><time>2026-03-29T10:08:34.447Z</time></trkpt><trkpt lat="45.4370517" lon="10.525315"><ele>139.0</ele><time>2026-03-29T10:08:35.447Z</time></trkpt><trkpt lat="45.4370867" lon="10.5251333"><ele>139.0</ele><time>2026-03-29T10:08:36.447Z</time></trkpt><trkpt lat="45.4371183" lon="10.5249433"><ele>139.0</ele><time>2026-03-29T10:08:37.447Z</time></trkpt><trkpt lat="45.4371417" lon="10.5247533"><ele>139.0</ele><time>2026-03-29T10:08:38.447Z</time></trkpt><trkpt lat="45.4371717" lon="10.52454"><ele>139.0</ele><time>2026-03-29T10:08:39.447Z</time></trkpt><trkpt lat="45.4371933" lon="10.5242783"><ele>138.66666666666669</ele><time>2026-03-29T10:08:40.447Z</time></trkpt><trkpt lat="45.4372067" lon="10.5239917"><ele>138.33333333333334</ele><time>2026-03-29T10:08:41.447Z</time></trkpt><trkpt lat="45.4372267" lon="10.5236933"><ele>138.0</ele><time>2026-03-29T10:08:42.447Z</time></trkpt><trkpt lat="45.4372483" lon="10.52337"><ele>133.0</ele><time>2026-03-29T10:08:43.447Z</time></trkpt><trkpt lat="45.4372533" lon="10.5230383"><ele>128.0</ele><time>2026-03-29T10:08:44.447Z</time></trkpt><trkpt lat="45.4372583" lon="10.52268"><ele>126.0</ele><time>2026-03-29T10:08:45.447Z</time></trkpt><trkpt lat="45.4372633" lon="10.5223117"><ele>124.0</ele><time>2026-03-29T10:08:46.447Z</time></trkpt><trkpt lat="45.4372883" lon="10.5219567"><ele>124.0</ele><time>2026-03-29T10:08:47.447Z</time></trkpt><trkpt lat="45.4373083" lon="10.5216083"><ele>124.0</ele><time>2026-03-29T10:08:48.447Z</time></trkpt><trkpt lat="45.4373167" lon="10.521285"><ele>122.66666666666667</ele><time>2026-03-29T10:08:49.447Z</time></trkpt><trkpt lat="45.4373217" lon="10.5209783"><ele>121.33333333333334</ele><time>2026-03-29T10:08:50.446Z</time></trkpt><trkpt lat="45.43732" lon="10.5206933"><ele>120.0</ele><time>2026-03-29T10:08:51.447Z</time></trkpt><trkpt lat="45.43733" lon="10.520435"><ele>120.0</ele><time>2026-03-29T10:08:52.447Z</time></trkpt><trkpt lat="45.4373283" lon="10.5201767"><ele>120.0</ele><time>2026-03-29T10:08:53.447Z</time></trkpt><trkpt lat="45.43734" lon="10.51994"><ele>120.0</ele><time>2026-03-29T10:08:54.447Z</time></trkpt><trkpt lat="45.4373467" lon="10.5197117"><ele>120.75</ele><time>2026-03-29T10:08:55.447Z</time></trkpt><trkpt lat="45.4373467" lon="10.5194917"><ele>121.5</ele><time>2026-03-29T10:08:56.447Z</time></trkpt><trkpt lat="45.43735" lon="10.519285"><ele>122.25</ele><time>2026-03-29T10:08:57.447Z</time></trkpt><trkpt lat="45.4373567" lon="10.5190883"><ele>123.0</ele><time>2026-03-29T10:08:58.447Z</time></trkpt><trkpt lat="45.437365" lon="10.518905"><ele>123.0</ele><time>2026-03-29T10:08:59.447Z</time></trkpt><trkpt lat="45.43737" lon="10.5187567"><ele>123.00000000000001</ele><time>2026-03-29T10:09:00.447Z</time></trkpt><trkpt lat="45.4373783" lon="10.5186417"><ele>123.00000000000001</ele><time>2026-03-29T10:09:01.447Z</time></trkpt><trkpt lat="45.4373983" lon="10.51855"><ele>123.0</ele><time>2026-03-29T10:09:02.447Z</time></trkpt><trkpt lat="45.4375067" lon="10.5184483"><ele>123.0</ele><time>2026-03-29T10:09:04.447Z</time></trkpt><trkpt lat="45.437625" lon="10.5184317"><ele>123.33333333333334</ele><time>2026-03-29T10:09:05.447Z</time></trkpt><trkpt lat="45.4378" lon="10.518425"><ele>123.66666666666667</ele><time>2026-03-29T10:09:06.447Z</time></trkpt><trkpt lat="45.43799" lon="10.5184067"><ele>124.0</ele><time>2026-03-29T10:09:07.447Z</time></trkpt><trkpt lat="45.4381817" lon="10.5183933"><ele>124.0</ele><time>2026-03-29T10:09:08.447Z</time></trkpt><trkpt lat="45.4383833" lon="10.51841"><ele>124.0</ele><time>2026-03-29T10:09:09.447Z</time></trkpt><trkpt lat="45.438605" lon="10.51844"><ele>124.0</ele><time>2026-03-29T10:09:10.447Z</time></trkpt><trkpt lat="45.4388317" lon="10.518475"><ele>124.66666666666667</ele><time>2026-03-29T10:09:11.447Z</time></trkpt><trkpt lat="45.4390517" lon="10.51851"><ele>125.33333333333334</ele><time>2026-03-29T10:09:12.447Z</time></trkpt><trkpt lat="45.4392667" lon="10.518575"><ele>126.0</ele><time>2026-03-29T10:09:13.447Z</time></trkpt><trkpt lat="45.4394567" lon="10.5186517"><ele>125.0</ele><time>2026-03-29T10:09:14.447Z</time></trkpt><trkpt lat="45.4396017" lon="10.5187433"><ele>124.0</ele><time>2026-03-29T10:09:15.447Z</time></trkpt><trkpt lat="45.4397283" lon="10.5188383"><ele>123.0</ele><time>2026-03-29T10:09:16.447Z</time></trkpt><trkpt lat="45.4398567" lon="10.5189583"><ele>125.33333333333334</ele><time>2026-03-29T10:09:17.447Z</time></trkpt><trkpt lat="45.4399933" lon="10.519105"><ele>127.66666666666667</ele><time>2026-03-29T10:09:18.447Z</time></trkpt><trkpt lat="45.44013" lon="10.51929"><ele>130.0</ele><time>2026-03-29T10:09:19.447Z</time></trkpt><trkpt lat="45.4402583" lon="10.5194983"><ele>129.66666666666669</ele><time>2026-03-29T10:09:20.446Z</time></trkpt><trkpt lat="45.44036" lon="10.51973"><ele>129.33333333333334</ele><time>2026-03-29T10:09:21.447Z</time></trkpt><trkpt lat="45.4404583" lon="10.5199033"><ele>129.0</ele><time>2026-03-29T10:09:22.447Z</time></trkpt><trkpt lat="45.440565" lon="10.5200583"><ele>130.0</ele><time>2026-03-29T10:09:23.447Z</time></trkpt><trkpt lat="45.4406867" lon="10.5201983"><ele>131.0</ele><time>2026-03-29T10:09:24.447Z</time></trkpt><trkpt lat="45.4408283" lon="10.520275"><ele>132.0</ele><time>2026-03-29T10:09:25.446Z</time></trkpt><trkpt lat="45.4409933" lon="10.52031"><ele>132.0</ele><time>2026-03-29T10:09:26.447Z</time></trkpt><trkpt lat="45.44118" lon="10.5203267"><ele>132.0</ele><time>2026-03-29T10:09:27.447Z</time></trkpt><trkpt lat="45.4413683" lon="10.52032"><ele>132.0</ele><time>2026-03-29T10:09:28.446Z</time></trkpt><trkpt lat="45.4415583" lon="10.52031"><ele>131.66666666666666</ele><time>2026-03-29T10:09:29.447Z</time></trkpt><trkpt lat="45.4417433" lon="10.5203033"><ele>131.33333333333331</ele><time>2026-03-29T10:09:30.447Z</time></trkpt><trkpt lat="45.4419217" lon="10.5203083"><ele>131.0</ele><time>2026-03-29T10:09:31.447Z</time></trkpt><trkpt lat="45.442105" lon="10.52031"><ele>130.66666666666666</ele><time>2026-03-29T10:09:32.447Z</time></trkpt><trkpt lat="45.4422833" lon="10.5203083"><ele>130.33333333333334</ele><time>2026-03-29T10:09:33.447Z</time></trkpt><trkpt lat="45.44245" lon="10.5203083"><ele>130.0</ele><time>2026-03-29T10:09:34.447Z</time></trkpt><trkpt lat="45.4426067" lon="10.52031"><ele>130.0</ele><time>2026-03-29T10:09:35.447Z</time></trkpt><trkpt lat="45.442745" lon="10.5203167"><ele>130.0</ele><time>2026-03-29T10:09:36.447Z</time></trkpt><trkpt lat="45.4428767" lon="10.5203217"><ele>130.0</ele><time>2026-03-29T10:09:37.446Z</time></trkpt><trkpt lat="45.4430067" lon="10.5203233"><ele>130.0</ele><time>2026-03-29T10:09:38.447Z</time></trkpt><trkpt lat="45.4431383" lon="10.52033"><ele>130.4</ele><time>2026-03-29T10:09:39.447Z</time></trkpt><trkpt lat="45.44326" lon="10.52033"><ele>130.8</ele><time>2026-03-29T10:09:40.447Z</time></trkpt><trkpt lat="45.4433567" lon="10.5203217"><ele>131.2</ele><time>2026-03-29T10:09:41.447Z</time></trkpt><trkpt lat="45.4434283" lon="10.5203117"><ele>131.6</ele><time>2026-03-29T10:09:42.446Z</time></trkpt><trkpt lat="45.4435083" lon="10.520165"><ele>132.0</ele><time>2026-03-29T10:09:44.447Z</time></trkpt><trkpt lat="45.443545" lon="10.5200483"><ele>132.0</ele><time>2026-03-29T10:09:45.446Z</time></trkpt><trkpt lat="45.443605" lon="10.5199617"><ele>132.0</ele><time>2026-03-29T10:09:46.447Z</time></trkpt><trkpt lat="45.4436883" lon="10.5199033"><ele>132.0</ele><time>2026-03-29T10:09:47.447Z</time></trkpt><trkpt lat="45.44381" lon="10.5198917"><ele>132.0</ele><time>2026-03-29T10:09:48.447Z</time></trkpt><trkpt lat="45.44395" lon="10.519885"><ele>132.0</ele><time>2026-03-29T10:09:49.447Z</time></trkpt><trkpt lat="45.4440867" lon="10.5198667"><ele>132.2</ele><time>2026-03-29T10:09:50.447Z</time></trkpt><trkpt lat="45.4442033" lon="10.5198133"><ele>132.39999999999998</ele><time>2026-03-29T10:09:51.447Z</time></trkpt><trkpt lat="45.4442733" lon="10.519715"><ele>132.60000000000002</ele><time>2026-03-29T10:09:52.447Z</time></trkpt><trkpt lat="45.4443267" lon="10.5195833"><ele>132.8</ele><time>2026-03-29T10:09:53.447Z</time></trkpt><trkpt lat="45.4443483" lon="10.519415"><ele>133.0</ele><time>2026-03-29T10:09:54.447Z</time></trkpt><trkpt lat="45.4443733" lon="10.5192533"><ele>133.20000000000002</ele><time>2026-03-29T10:09:55.447Z</time></trkpt><trkpt lat="45.4444217" lon="10.5191483"><ele>133.4</ele><time>2026-03-29T10:09:56.447Z</time></trkpt><trkpt lat="45.4444917" lon="10.519105"><ele>133.60000000000002</ele><time>2026-03-29T10:09:57.447Z</time></trkpt><trkpt lat="45.4445817" lon="10.5191117"><ele>133.8</ele><time>2026-03-29T10:09:58.447Z</time></trkpt><trkpt lat="45.4447" lon="10.51915"><ele>134.0</ele><time>2026-03-29T10:09:59.447Z</time></trkpt><trkpt lat="45.444845" lon="10.51924"><ele>134.0</ele><time>2026-03-29T10:10:00.447Z</time></trkpt><trkpt lat="45.4449867" lon="10.5193267"><ele>134.0</ele><time>2026-03-29T10:10:01.447Z</time></trkpt><trkpt lat="45.4451217" lon="10.5194"><ele>134.0</ele><time>2026-03-29T10:10:02.447Z</time></trkpt><trkpt lat="45.4452633" lon="10.5194717"><ele>134.0</ele><time>2026-03-29T10:10:03.447Z</time></trkpt><trkpt lat="45.445395" lon="10.5195317"><ele>133.8</ele><time>2026-03-29T10:10:04.447Z</time></trkpt><trkpt lat="45.4455133" lon="10.519585"><ele>133.60000000000002</ele><time>2026-03-29T10:10:05.447Z</time></trkpt><trkpt lat="45.445615" lon="10.5196317"><ele>133.4</ele><time>2026-03-29T10:10:06.447Z</time></trkpt><trkpt lat="45.4456983" lon="10.5196633"><ele>133.20000000000002</ele><time>2026-03-29T10:10:07.447Z</time></trkpt><trkpt lat="45.4457817" lon="10.5196767"><ele>133.0</ele><time>2026-03-29T10:10:08.447Z</time></trkpt><trkpt lat="45.4458667" lon="10.5196967"><ele>133.0</ele><time>2026-03-29T10:10:09.447Z</time></trkpt><trkpt lat="45.44594" lon="10.5197233"><ele>133.0</ele><time>2026-03-29T10:10:10.446Z</time></trkpt><trkpt lat="45.4460267" lon="10.5197767"><ele>133.0</ele><time>2026-03-29T10:10:11.447Z</time></trkpt><trkpt lat="45.4461333" lon="10.51984"><ele>133.0</ele><time>2026-03-29T10:10:12.447Z</time></trkpt><trkpt lat="45.446265" lon="10.519915"><ele>133.0</ele><time>2026-03-29T10:10:13.447Z</time></trkpt><trkpt lat="45.44642" lon="10.5199867"><ele>133.25</ele><time>2026-03-29T10:10:14.447Z</time></trkpt><trkpt lat="45.4465667" lon="10.5200317"><ele>133.5</ele><time>2026-03-29T10:10:15.447Z</time></trkpt><trkpt lat="45.4467133" lon="10.5200717"><ele>133.75</ele><time>2026-03-29T10:10:16.447Z</time></trkpt><trkpt lat="45.44685" lon="10.5201167"><ele>134.0</ele><time>2026-03-29T10:10:17.447Z</time></trkpt><trkpt lat="45.4469883" lon="10.5201583"><ele>134.0</ele><time>2026-03-29T10:10:18.447Z</time></trkpt><trkpt lat="45.44713" lon="10.5201983"><ele>134.0</ele><time>2026-03-29T10:10:19.447Z</time></trkpt><trkpt lat="45.44727" lon="10.5202467"><ele>134.0</ele><time>2026-03-29T10:10:20.447Z</time></trkpt><trkpt lat="45.4473867" lon="10.5202817"><ele>134.0</ele><time>2026-03-29T10:10:21.447Z</time></trkpt><trkpt lat="45.4475" lon="10.52031"><ele>134.0</ele><time>2026-03-29T10:10:22.447Z</time></trkpt><trkpt lat="45.447605" lon="10.52034"><ele>134.0</ele><time>2026-03-29T10:10:23.447Z</time></trkpt><trkpt lat="45.4477083" lon="10.5203683"><ele>134.0</ele><time>2026-03-29T10:10:24.447Z</time></trkpt><trkpt lat="45.447795" lon="10.52038"><ele>134.0</ele><time>2026-03-29T10:10:25.447Z</time></trkpt><trkpt lat="45.44788" lon="10.5203533"><ele>134.0</ele><time>2026-03-29T10:10:26.447Z</time></trkpt><trkpt lat="45.4479617" lon="10.5202833"><ele>134.25</ele><time>2026-03-29T10:10:27.447Z</time></trkpt><trkpt lat="45.44804" lon="10.520175"><ele>134.5</ele><time>2026-03-29T10:10:28.447Z</time></trkpt><trkpt lat="45.44812" lon="10.520045"><ele>134.75</ele><time>2026-03-29T10:10:29.447Z</time></trkpt><trkpt lat="45.4481933" lon="10.5199033"><ele>135.0</ele><time>2026-03-29T10:10:30.447Z</time></trkpt><trkpt lat="45.448265" lon="10.5197733"><ele>135.0</ele><time>2026-03-29T10:10:31.447Z</time></trkpt><trkpt lat="45.4483333" lon="10.5196483"><ele>135.0</ele><time>2026-03-29T10:10:32.447Z</time></trkpt><trkpt lat="45.4484033" lon="10.5195367"><ele>135.0</ele><time>2026-03-29T10:10:33.447Z</time></trkpt><trkpt lat="45.4484533" lon="10.5194083"><ele>135.0</ele><time>2026-03-29T10:10:34.447Z</time></trkpt><trkpt lat="45.4485033" lon="10.51929"><ele>135.0</ele><time>2026-03-29T10:10:35.447Z</time></trkpt><trkpt lat="45.448545" lon="10.5191667"><ele>135.0</ele><time>2026-03-29T10:10:36.447Z</time></trkpt><trkpt lat="45.4485633" lon="10.5190267"><ele>135.0</ele><time>2026-03-29T10:10:37.447Z</time></trkpt><trkpt lat="45.44855" lon="10.5188767"><ele>135.0</ele><time>2026-03-29T10:10:38.447Z</time></trkpt><trkpt lat="45.4484983" lon="10.5187283"><ele>135.0</ele><time>2026-03-29T10:10:39.447Z</time></trkpt><trkpt lat="45.4484467" lon="10.518555"><ele>134.75</ele><time>2026-03-29T10:10:40.447Z</time></trkpt><trkpt lat="45.4484233" lon="10.5183883"><ele>134.5</ele><time>2026-03-29T10:10:41.447Z</time></trkpt><trkpt lat="45.4484167" lon="10.5182017"><ele>134.25</ele><time>2026-03-29T10:10:42.446Z</time></trkpt><trkpt lat="45.448445" lon="10.5180133"><ele>134.0</ele><time>2026-03-29T10:10:43.447Z</time></trkpt><trkpt lat="45.4484817" lon="10.5178567"><ele>134.0</ele><time>2026-03-29T10:10:44.446Z</time></trkpt><trkpt lat="45.448535" lon="10.5177117"><ele>134.0</ele><time>2026-03-29T10:10:45.447Z</time></trkpt><trkpt lat="45.4486117" lon="10.5175833"><ele>134.0</ele><time>2026-03-29T10:10:46.447Z</time></trkpt><trkpt lat="45.4487117" lon="10.5174667"><ele>134.0</ele><time>2026-03-29T10:10:47.447Z</time></trkpt><trkpt lat="45.4488317" lon="10.51737"><ele>134.0</ele><time>2026-03-29T10:10:48.447Z</time></trkpt><trkpt lat="45.44895" lon="10.517265"><ele>134.0</ele><time>2026-03-29T10:10:49.447Z</time></trkpt><trkpt lat="45.44906" lon="10.51714"><ele>134.0</ele><time>2026-03-29T10:10:50.447Z</time></trkpt><trkpt lat="45.4491467" lon="10.51701"><ele>134.0</ele><time>2026-03-29T10:10:51.446Z</time></trkpt><trkpt lat="45.44922" lon="10.5168767"><ele>134.0</ele><time>2026-03-29T10:10:52.447Z</time></trkpt><trkpt lat="45.4492733" lon="10.5167217"><ele>134.0</ele><time>2026-03-29T10:10:53.447Z</time></trkpt><trkpt lat="45.4493167" lon="10.5165733"><ele>134.0</ele><time>2026-03-29T10:10:54.447Z</time></trkpt><trkpt lat="45.4493533" lon="10.5164483"><ele>134.0</ele><time>2026-03-29T10:10:55.447Z</time></trkpt><trkpt lat="45.449395" lon="10.5163167"><ele>134.0</ele><time>2026-03-29T10:10:56.447Z</time></trkpt><trkpt lat="45.4494367" lon="10.5161617"><ele>133.75</ele><time>2026-03-29T10:10:57.447Z</time></trkpt><trkpt lat="45.4494683" lon="10.5159967"><ele>133.5</ele><time>2026-03-29T10:10:58.447Z</time></trkpt><trkpt lat="45.4495217" lon="10.5158067"><ele>133.25</ele><time>2026-03-29T10:10:59.447Z</time></trkpt><trkpt lat="45.449595" lon="10.5156183"><ele>133.0</ele><time>2026-03-29T10:11:00.447Z</time></trkpt><trkpt lat="45.4496883" lon="10.5154383"><ele>133.66666666666669</ele><time>2026-03-29T10:11:01.447Z</time></trkpt><trkpt lat="45.4497733" lon="10.515235"><ele>134.33333333333334</ele><time>2026-03-29T10:11:02.446Z</time></trkpt><trkpt lat="45.44984" lon="10.5150067"><ele>135.0</ele><time>2026-03-29T10:11:03.447Z</time></trkpt><trkpt lat="45.449875" lon="10.51477"><ele>135.33333333333334</ele><time>2026-03-29T10:11:04.447Z</time></trkpt><trkpt lat="45.4498867" lon="10.5145"><ele>135.66666666666669</ele><time>2026-03-29T10:11:05.447Z</time></trkpt><trkpt lat="45.449895" lon="10.514235"><ele>136.0</ele><time>2026-03-29T10:11:06.447Z</time></trkpt><trkpt lat="45.4499083" lon="10.513985"><ele>136.0</ele><time>2026-03-29T10:11:07.447Z</time></trkpt><trkpt lat="45.4499233" lon="10.5137467"><ele>136.0</ele><time>2026-03-29T10:11:08.447Z</time></trkpt><trkpt lat="45.4499417" lon="10.5135117"><ele>136.0</ele><time>2026-03-29T10:11:09.447Z</time></trkpt><trkpt lat="45.4499617" lon="10.5132733"><ele>136.75</ele><time>2026-03-29T10:11:10.447Z</time></trkpt><trkpt lat="45.4499817" lon="10.5130517"><ele>137.5</ele><time>2026-03-29T10:11:11.447Z</time></trkpt><trkpt lat="45.4499967" lon="10.5128417"><ele>138.25</ele><time>2026-03-29T10:11:12.447Z</time></trkpt><trkpt lat="45.4500217" lon="10.512645"><ele>139.0</ele><time>2026-03-29T10:11:13.447Z</time></trkpt><trkpt lat="45.45005" lon="10.5124617"><ele>139.25</ele><time>2026-03-29T10:11:14.447Z</time></trkpt><trkpt lat="45.450085" lon="10.5123"><ele>139.5</ele><time>2026-03-29T10:11:15.447Z</time></trkpt><trkpt lat="45.4501283" lon="10.512145"><ele>139.75</ele><time>2026-03-29T10:11:16.447Z</time></trkpt><trkpt lat="45.4501683" lon="10.5119817"><ele>140.0</ele><time>2026-03-29T10:11:17.447Z</time></trkpt><trkpt lat="45.450195" lon="10.5118383"><ele>140.83333333333331</ele><time>2026-03-29T10:11:18.447Z</time></trkpt><trkpt lat="45.4502133" lon="10.5117067"><ele>141.66666666666666</ele><time>2026-03-29T10:11:19.447Z</time></trkpt><trkpt lat="45.4502317" lon="10.5115933"><ele>142.5</ele><time>2026-03-29T10:11:20.446Z</time></trkpt><trkpt lat="45.4502433" lon="10.5115"><ele>143.33333333333334</ele><time>2026-03-29T10:11:21.447Z</time></trkpt><trkpt lat="45.450285" lon="10.5113517"><ele>144.16666666666669</ele><time>2026-03-29T10:11:23.447Z</time></trkpt><trkpt lat="45.45034" lon="10.5112583"><ele>145.0</ele><time>2026-03-29T10:11:25.447Z</time></trkpt><trkpt lat="45.450475" lon="10.5112983"><ele>145.0</ele><time>2026-03-29T10:11:27.447Z</time></trkpt><trkpt lat="45.4505867" lon="10.51131"><ele>145.0</ele><time>2026-03-29T10:11:28.447Z</time></trkpt><trkpt lat="45.4507067" lon="10.5113417"><ele>145.0</ele><time>2026-03-29T10:11:29.447Z</time></trkpt><trkpt lat="45.4507917" lon="10.51137"><ele>145.0</ele><time>2026-03-29T10:11:30.447Z</time></trkpt><trkpt lat="45.4508517" lon="10.5114"><ele>145.0</ele><time>2026-03-29T10:11:31.447Z</time></trkpt><trkpt lat="45.4509133" lon="10.5113367"><ele>145.0</ele><time>2026-03-29T10:11:33.447Z</time></trkpt><trkpt lat="45.4509067" lon="10.5112467"><ele>145.0</ele><time>2026-03-29T10:11:34.447Z</time></trkpt><trkpt lat="45.4508867" lon="10.5111283"><ele>145.0</ele><time>2026-03-29T10:11:35.446Z</time></trkpt><trkpt lat="45.4508583" lon="10.5109833"><ele>145.0</ele><time>2026-03-29T10:11:36.447Z</time></trkpt><trkpt lat="45.4508333" lon="10.5108083"><ele>145.0</ele><time>2026-03-29T10:11:37.447Z</time></trkpt><trkpt lat="45.4508233" lon="10.5105867"><ele>149.0</ele><time>2026-03-29T10:11:38.447Z</time></trkpt><trkpt lat="45.45083" lon="10.51035"><ele>153.0</ele><time>2026-03-29T10:11:39.447Z</time></trkpt><trkpt lat="45.4508483" lon="10.5101"><ele>157.0</ele><time>2026-03-29T10:11:40.447Z</time></trkpt><trkpt lat="45.4508617" lon="10.50983"><ele>158.33333333333334</ele><time>2026-03-29T10:11:41.447Z</time></trkpt><trkpt lat="45.4508817" lon="10.50954"><ele>159.66666666666666</ele><time>2026-03-29T10:11:42.447Z</time></trkpt><trkpt lat="45.4509083" lon="10.50922"><ele>161.0</ele><time>2026-03-29T10:11:43.447Z</time></trkpt><trkpt lat="45.4509417" lon="10.5089317"><ele>161.66666666666666</ele><time>2026-03-29T10:11:44.447Z</time></trkpt><trkpt lat="45.45097" lon="10.5086533"><ele>162.33333333333334</ele><time>2026-03-29T10:11:45.446Z</time></trkpt><trkpt lat="45.450985" lon="10.5084"><ele>163.0</ele><time>2026-03-29T10:11:46.447Z</time></trkpt><trkpt lat="45.4510033" lon="10.50818"><ele>163.0</ele><time>2026-03-29T10:11:47.447Z</time></trkpt><trkpt lat="45.4510533" lon="10.5079883"><ele>163.0</ele><time>2026-03-29T10:11:48.447Z</time></trkpt><trkpt lat="45.45115" lon="10.50779"><ele>163.0</ele><time>2026-03-29T10:11:49.447Z</time></trkpt><trkpt lat="45.451245" lon="10.5075633"><ele>167.33333333333334</ele><time>2026-03-29T10:11:50.447Z</time></trkpt><trkpt lat="45.4513267" lon="10.507315"><ele>171.66666666666666</ele><time>2026-03-29T10:11:51.447Z</time></trkpt><trkpt lat="45.451385" lon="10.5070733"><ele>176.0</ele><time>2026-03-29T10:11:52.447Z</time></trkpt><trkpt lat="45.4514267" lon="10.50684"><ele>177.0</ele><time>2026-03-29T10:11:53.447Z</time></trkpt><trkpt lat="45.4514733" lon="10.5066283"><ele>178.0</ele><time>2026-03-29T10:11:54.447Z</time></trkpt><trkpt lat="45.45152" lon="10.506435"><ele>179.0</ele><time>2026-03-29T10:11:55.447Z</time></trkpt><trkpt lat="45.4515717" lon="10.5062533"><ele>180.0</ele><time>2026-03-29T10:11:56.447Z</time></trkpt><trkpt lat="45.4516017" lon="10.5060883"><ele>179.75</ele><time>2026-03-29T10:11:57.447Z</time></trkpt><trkpt lat="45.4516383" lon="10.50594"><ele>179.5</ele><time>2026-03-29T10:11:58.447Z</time></trkpt><trkpt lat="45.4516733" lon="10.5057717"><ele>179.25</ele><time>2026-03-29T10:11:59.447Z</time></trkpt><trkpt lat="45.4517383" lon="10.50559"><ele>179.0</ele><time>2026-03-29T10:12:00.447Z</time></trkpt><trkpt lat="45.4518333" lon="10.5053867"><ele>179.0</ele><time>2026-03-29T10:12:01.447Z</time></trkpt><trkpt lat="45.451935" lon="10.5051683"><ele>179.0</ele><time>2026-03-29T10:12:02.447Z</time></trkpt><trkpt lat="45.452025" lon="10.50492"><ele>179.0</ele><time>2026-03-29T10:12:03.447Z</time></trkpt><trkpt lat="45.4521033" lon="10.5046517"><ele>181.33333333333331</ele><time>2026-03-29T10:12:04.447Z</time></trkpt><trkpt lat="45.4521617" lon="10.5043683"><ele>183.66666666666666</ele><time>2026-03-29T10:12:05.446Z</time></trkpt><trkpt lat="45.4522" lon="10.50409"><ele>186.0</ele><time>2026-03-29T10:12:06.446Z</time></trkpt><trkpt lat="45.4522183" lon="10.5038383"><ele>186.0</ele><time>2026-03-29T10:12:07.446Z</time></trkpt><trkpt lat="45.4522367" lon="10.5036033"><ele>186.0</ele><time>2026-03-29T10:12:08.446Z</time></trkpt><trkpt lat="45.4522567" lon="10.5034017"><ele>186.0</ele><time>2026-03-29T10:12:09.445Z</time></trkpt><trkpt lat="45.4522733" lon="10.5031933"><ele>186.0</ele><time>2026-03-29T10:12:10.446Z</time></trkpt><trkpt lat="45.4523067" lon="10.5029833"><ele>186.0</ele><time>2026-03-29T10:12:11.446Z</time></trkpt><trkpt lat="45.4523517" lon="10.5027883"><ele>186.0</ele><time>2026-03-29T10:12:12.446Z</time></trkpt><trkpt lat="45.4524117" lon="10.5026"><ele>186.0</ele><time>2026-03-29T10:12:13.446Z</time></trkpt><trkpt lat="45.4524917" lon="10.502435"><ele>185.66666666666666</ele><time>2026-03-29T10:12:14.446Z</time></trkpt><trkpt lat="45.45259" lon="10.5022633"><ele>185.33333333333331</ele><time>2026-03-29T10:12:15.446Z</time></trkpt><trkpt lat="45.4527083" lon="10.5020883"><ele>185.0</ele><time>2026-03-29T10:12:16.446Z</time></trkpt><trkpt lat="45.4528317" lon="10.5019017"><ele>183.33333333333331</ele><time>2026-03-29T10:12:17.446Z</time></trkpt><trkpt lat="45.4529583" lon="10.5016967"><ele>181.66666666666666</ele><time>2026-03-29T10:12:18.446Z</time></trkpt><trkpt lat="45.4530917" lon="10.5014933"><ele>180.0</ele><time>2026-03-29T10:12:19.446Z</time></trkpt><trkpt lat="45.4532133" lon="10.501275"><ele>180.33333333333334</ele><time>2026-03-29T10:12:20.445Z</time></trkpt><trkpt lat="45.4533283" lon="10.50102"><ele>180.66666666666669</ele><time>2026-03-29T10:12:21.446Z</time></trkpt><trkpt lat="45.453445" lon="10.5007667"><ele>181.0</ele><time>2026-03-29T10:12:22.446Z</time></trkpt><trkpt lat="45.453535" lon="10.500525"><ele>182.0</ele><time>2026-03-29T10:12:23.446Z</time></trkpt><trkpt lat="45.4536067" lon="10.5003"><ele>183.0</ele><time>2026-03-29T10:12:24.446Z</time></trkpt><trkpt lat="45.4536533" lon="10.5000717"><ele>184.0</ele><time>2026-03-29T10:12:25.446Z</time></trkpt><trkpt lat="45.4537067" lon="10.4998617"><ele>184.0</ele><time>2026-03-29T10:12:26.445Z</time></trkpt><trkpt lat="45.4537883" lon="10.49967"><ele>184.0</ele><time>2026-03-29T10:12:27.446Z</time></trkpt><trkpt lat="45.45389" lon="10.4994917"><ele>184.0</ele><time>2026-03-29T10:12:28.446Z</time></trkpt><trkpt lat="45.4539967" lon="10.499305"><ele>184.66666666666669</ele><time>2026-03-29T10:12:29.446Z</time></trkpt><trkpt lat="45.4541" lon="10.49912"><ele>185.33333333333334</ele><time>2026-03-29T10:12:30.446Z</time></trkpt><trkpt lat="45.4541933" lon="10.4989483"><ele>186.0</ele><time>2026-03-29T10:12:31.446Z</time></trkpt><trkpt lat="45.4543067" lon="10.4988233"><ele>186.0</ele><time>2026-03-29T10:12:32.445Z</time></trkpt><trkpt lat="45.4544333" lon="10.4987067"><ele>186.0</ele><time>2026-03-29T10:12:33.446Z</time></trkpt><trkpt lat="45.4545717" lon="10.4985883"><ele>186.0</ele><time>2026-03-29T10:12:34.446Z</time></trkpt><trkpt lat="45.4547" lon="10.498455"><ele>185.75</ele><time>2026-03-29T10:12:35.446Z</time></trkpt><trkpt lat="45.4548167" lon="10.4983067"><ele>185.5</ele><time>2026-03-29T10:12:36.445Z</time></trkpt><trkpt lat="45.4549067" lon="10.4981533"><ele>185.25</ele><time>2026-03-29T10:12:37.446Z</time></trkpt><trkpt lat="45.4549783" lon="10.4980067"><ele>185.0</ele><time>2026-03-29T10:12:38.446Z</time></trkpt><trkpt lat="45.4550367" lon="10.4978417"><ele>184.0</ele><time>2026-03-29T10:12:39.446Z</time></trkpt><trkpt lat="45.455085" lon="10.4976583"><ele>183.0</ele><time>2026-03-29T10:12:40.446Z</time></trkpt><trkpt lat="45.45512" lon="10.497455"><ele>182.0</ele><time>2026-03-29T10:12:41.446Z</time></trkpt><trkpt lat="45.45515" lon="10.497235"><ele>181.0</ele><time>2026-03-29T10:12:42.446Z</time></trkpt><trkpt lat="45.455185" lon="10.4969983"><ele>179.66666666666669</ele><time>2026-03-29T10:12:43.446Z</time></trkpt><trkpt lat="45.4552033" lon="10.496775"><ele>178.33333333333334</ele><time>2026-03-29T10:12:44.446Z</time></trkpt><trkpt lat="45.4552367" lon="10.496545"><ele>177.0</ele><time>2026-03-29T10:12:45.446Z</time></trkpt><trkpt lat="45.4552833" lon="10.496315"><ele>176.0</ele><time>2026-03-29T10:12:46.446Z</time></trkpt><trkpt lat="45.4553317" lon="10.4960967"><ele>175.0</ele><time>2026-03-29T10:12:47.446Z</time></trkpt><trkpt lat="45.455375" lon="10.4958533"><ele>174.0</ele><time>2026-03-29T10:12:48.446Z</time></trkpt><trkpt lat="45.4554133" lon="10.4956"><ele>174.33333333333334</ele><time>2026-03-29T10:12:49.446Z</time></trkpt><trkpt lat="45.4554517" lon="10.495325"><ele>174.66666666666669</ele><time>2026-03-29T10:12:50.446Z</time></trkpt><trkpt lat="45.45548" lon="10.49504"><ele>175.0</ele><time>2026-03-29T10:12:51.446Z</time></trkpt><trkpt lat="45.4555067" lon="10.4947717"><ele>174.66666666666669</ele><time>2026-03-29T10:12:52.446Z</time></trkpt><trkpt lat="45.4555233" lon="10.4945367"><ele>174.33333333333334</ele><time>2026-03-29T10:12:53.446Z</time></trkpt><trkpt lat="45.4555517" lon="10.4943233"><ele>174.0</ele><time>2026-03-29T10:12:54.445Z</time></trkpt><trkpt lat="45.4555783" lon="10.4941283"><ele>174.0</ele><time>2026-03-29T10:12:55.445Z</time></trkpt><trkpt lat="45.455605" lon="10.4939283"><ele>174.0</ele><time>2026-03-29T10:12:56.446Z</time></trkpt><trkpt lat="45.4556433" lon="10.4937417"><ele>174.0</ele><time>2026-03-29T10:12:57.446Z</time></trkpt><trkpt lat="45.4556883" lon="10.4935583"><ele>174.0</ele><time>2026-03-29T10:12:58.446Z</time></trkpt><trkpt lat="45.4557433" lon="10.493385"><ele>173.0</ele><time>2026-03-29T10:12:59.446Z</time></trkpt><trkpt lat="45.45581" lon="10.4932167"><ele>172.0</ele><time>2026-03-29T10:13:00.446Z</time></trkpt><trkpt lat="45.45588" lon="10.4930533"><ele>171.0</ele><time>2026-03-29T10:13:01.446Z</time></trkpt><trkpt lat="45.45595" lon="10.492895"><ele>170.0</ele><time>2026-03-29T10:13:02.446Z</time></trkpt><trkpt lat="45.45602" lon="10.4927617"><ele>169.4</ele><time>2026-03-29T10:13:03.446Z</time></trkpt><trkpt lat="45.45609" lon="10.4926283"><ele>168.8</ele><time>2026-03-29T10:13:04.446Z</time></trkpt><trkpt lat="45.456155" lon="10.4924933"><ele>168.2</ele><time>2026-03-29T10:13:05.446Z</time></trkpt><trkpt lat="45.4562017" lon="10.4923633"><ele>167.6</ele><time>2026-03-29T10:13:06.446Z</time></trkpt><trkpt lat="45.456215" lon="10.492235"><ele>167.0</ele><time>2026-03-29T10:13:07.445Z</time></trkpt><trkpt lat="45.456205" lon="10.4921"><ele>166.16666666666666</ele><time>2026-03-29T10:13:08.446Z</time></trkpt><trkpt lat="45.4562" lon="10.4919933"><ele>165.33333333333331</ele><time>2026-03-29T10:13:09.446Z</time></trkpt><trkpt lat="45.4561883" lon="10.4918517"><ele>164.5</ele><time>2026-03-29T10:13:11.446Z</time></trkpt><trkpt lat="45.45618" lon="10.49176"><ele>163.66666666666666</ele><time>2026-03-29T10:13:13.446Z</time></trkpt><trkpt lat="45.4561667" lon="10.4916433"><ele>162.83333333333334</ele><time>2026-03-29T10:13:16.446Z</time></trkpt><trkpt lat="45.4561633" lon="10.491465"><ele>162.0</ele><time>2026-03-29T10:13:47.446Z</time></trkpt><trkpt lat="45.456195" lon="10.491325"><ele>161.75</ele><time>2026-03-29T10:13:48.446Z</time></trkpt><trkpt lat="45.4562583" lon="10.49118"><ele>161.5</ele><time>2026-03-29T10:13:49.446Z</time></trkpt><trkpt lat="45.4563467" lon="10.4910317"><ele>161.25</ele><time>2026-03-29T10:13:50.446Z</time></trkpt><trkpt lat="45.4564517" lon="10.4908917"><ele>161.0</ele><time>2026-03-29T10:13:51.446Z</time></trkpt><trkpt lat="45.4565517" lon="10.4907617"><ele>161.0</ele><time>2026-03-29T10:13:52.446Z</time></trkpt><trkpt lat="45.4566467" lon="10.4906583"><ele>161.0</ele><time>2026-03-29T10:13:53.446Z</time></trkpt><trkpt lat="45.456725" lon="10.4905683"><ele>161.0</ele><time>2026-03-29T10:13:54.445Z</time></trkpt><trkpt lat="45.4568067" lon="10.4904917"><ele>161.0</ele><time>2026-03-29T10:13:55.446Z</time></trkpt><trkpt lat="45.4568833" lon="10.4904117"><ele>161.0</ele><time>2026-03-29T10:13:56.446Z</time></trkpt><trkpt lat="45.4569633" lon="10.4903133"><ele>161.0</ele><time>2026-03-29T10:13:57.446Z</time></trkpt><trkpt lat="45.4570567" lon="10.4902133"><ele>161.0</ele><time>2026-03-29T10:13:58.446Z</time></trkpt><trkpt lat="45.45714" lon="10.4901233"><ele>161.0</ele><time>2026-03-29T10:13:59.446Z</time></trkpt><trkpt lat="45.4572133" lon="10.490045"><ele>161.0</ele><time>2026-03-29T10:14:00.445Z</time></trkpt><trkpt lat="45.4572633" lon="10.4899717"><ele>161.0</ele><time>2026-03-29T10:14:01.446Z</time></trkpt><trkpt lat="45.4573617" lon="10.489885"><ele>161.0</ele><time>2026-03-29T10:14:03.446Z</time></trkpt><trkpt lat="45.4574617" lon="10.4898333"><ele>161.0</ele><time>2026-03-29T10:14:05.446Z</time></trkpt><trkpt lat="45.4575617" lon="10.489765"><ele>161.0</ele><time>2026-03-29T10:14:07.445Z</time></trkpt><trkpt lat="45.4576667" lon="10.4896867"><ele>161.0</ele><time>2026-03-29T10:14:09.446Z</time></trkpt><trkpt lat="45.4577483" lon="10.4896217"><ele>161.0</ele><time>2026-03-29T10:14:10.446Z</time></trkpt><trkpt lat="45.4578717" lon="10.48954"><ele>161.66666666666666</ele><time>2026-03-29T10:14:11.446Z</time></trkpt><trkpt lat="45.4580267" lon="10.48945"><ele>162.33333333333334</ele><time>2026-03-29T10:14:12.446Z</time></trkpt><trkpt lat="45.4581883" lon="10.4893633"><ele>163.0</ele><time>2026-03-29T10:14:13.446Z</time></trkpt><trkpt lat="45.45834" lon="10.4892783"><ele>163.0</ele><time>2026-03-29T10:14:14.446Z</time></trkpt><trkpt lat="45.458475" lon="10.4891983"><ele>163.0</ele><time>2026-03-29T10:14:15.446Z</time></trkpt><trkpt lat="45.4586183" lon="10.489125"><ele>163.0</ele><time>2026-03-29T10:14:16.445Z</time></trkpt><trkpt lat="45.4587917" lon="10.489055"><ele>163.66666666666669</ele><time>2026-03-29T10:14:17.446Z</time></trkpt><trkpt lat="45.4589683" lon="10.4890267"><ele>164.33333333333334</ele><time>2026-03-29T10:14:18.446Z</time></trkpt><trkpt lat="45.4591483" lon="10.4890317"><ele>165.0</ele><time>2026-03-29T10:14:19.446Z</time></trkpt><trkpt lat="45.459345" lon="10.4890683"><ele>165.0</ele><time>2026-03-29T10:14:20.445Z</time></trkpt><trkpt lat="45.45952" lon="10.4891117"><ele>165.0</ele><time>2026-03-29T10:14:21.446Z</time></trkpt><trkpt lat="45.4596917" lon="10.4891983"><ele>165.0</ele><time>2026-03-29T10:14:22.446Z</time></trkpt><trkpt lat="45.4598483" lon="10.4893"><ele>165.0</ele><time>2026-03-29T10:14:23.446Z</time></trkpt><trkpt lat="45.4599867" lon="10.4894017"><ele>165.0</ele><time>2026-03-29T10:14:24.446Z</time></trkpt><trkpt lat="45.4601" lon="10.489515"><ele>165.0</ele><time>2026-03-29T10:14:25.446Z</time></trkpt><trkpt lat="45.4602133" lon="10.489635"><ele>165.0</ele><time>2026-03-29T10:14:26.446Z</time></trkpt><trkpt lat="45.4603133" lon="10.4897883"><ele>165.0</ele><time>2026-03-29T10:14:27.446Z</time></trkpt><trkpt lat="45.460415" lon="10.489965"><ele>165.0</ele><time>2026-03-29T10:14:28.446Z</time></trkpt><trkpt lat="45.4605067" lon="10.4901517"><ele>165.0</ele><time>2026-03-29T10:14:29.446Z</time></trkpt><trkpt lat="45.4605717" lon="10.4903217"><ele>164.8</ele><time>2026-03-29T10:14:30.446Z</time></trkpt><trkpt lat="45.4606233" lon="10.4904667"><ele>164.6</ele><time>2026-03-29T10:14:31.446Z</time></trkpt><trkpt lat="45.4606517" lon="10.4906083"><ele>164.39999999999998</ele><time>2026-03-29T10:14:32.446Z</time></trkpt><trkpt lat="45.4606583" lon="10.49076"><ele>164.2</ele><time>2026-03-29T10:14:33.446Z</time></trkpt><trkpt lat="45.4606633" lon="10.4909033"><ele>164.0</ele><time>2026-03-29T10:14:34.446Z</time></trkpt><trkpt lat="45.4606817" lon="10.4910383"><ele>164.0</ele><time>2026-03-29T10:14:35.446Z</time></trkpt><trkpt lat="45.4607333" lon="10.491135"><ele>164.0</ele><time>2026-03-29T10:14:36.446Z</time></trkpt><trkpt lat="45.4608083" lon="10.4911883"><ele>164.0</ele><time>2026-03-29T10:14:37.446Z</time></trkpt><trkpt lat="45.4608783" lon="10.491185"><ele>164.0</ele><time>2026-03-29T10:14:38.446Z</time></trkpt><trkpt lat="45.460945" lon="10.491145"><ele>164.0</ele><time>2026-03-29T10:14:39.446Z</time></trkpt><trkpt lat="45.4610017" lon="10.4910717"><ele>164.0</ele><time>2026-03-29T10:14:40.446Z</time></trkpt><trkpt lat="45.4610417" lon="10.4909583"><ele>164.0</ele><time>2026-03-29T10:14:41.446Z</time></trkpt><trkpt lat="45.4610733" lon="10.4908317"><ele>164.0</ele><time>2026-03-29T10:14:42.446Z</time></trkpt><trkpt lat="45.4610933" lon="10.4906733"><ele>164.0</ele><time>2026-03-29T10:14:43.446Z</time></trkpt><trkpt lat="45.4611283" lon="10.49052"><ele>164.0</ele><time>2026-03-29T10:14:44.446Z</time></trkpt><trkpt lat="45.461195" lon="10.490385"><ele>164.0</ele><time>2026-03-29T10:14:45.446Z</time></trkpt><trkpt lat="45.461265" lon="10.4902533"><ele>164.5</ele><time>2026-03-29T10:14:46.446Z</time></trkpt><trkpt lat="45.4613483" lon="10.4901083"><ele>165.0</ele><time>2026-03-29T10:14:47.446Z</time></trkpt><trkpt lat="45.461445" lon="10.4899667"><ele>165.5</ele><time>2026-03-29T10:14:48.446Z</time></trkpt><trkpt lat="45.461545" lon="10.4898583"><ele>166.0</ele><time>2026-03-29T10:14:49.446Z</time></trkpt><trkpt lat="45.4616617" lon="10.4897917"><ele>166.0</ele><time>2026-03-29T10:14:50.446Z</time></trkpt><trkpt lat="45.4617917" lon="10.4897583"><ele>166.0</ele><time>2026-03-29T10:14:51.446Z</time></trkpt><trkpt lat="45.461925" lon="10.4897767"><ele>166.0</ele><time>2026-03-29T10:14:52.446Z</time></trkpt><trkpt lat="45.4620717" lon="10.48984"><ele>166.0</ele><time>2026-03-29T10:14:53.446Z</time></trkpt><trkpt lat="45.46221" lon="10.4899467"><ele>167.0</ele><time>2026-03-29T10:14:54.446Z</time></trkpt><trkpt lat="45.4623583" lon="10.49004"><ele>168.0</ele><time>2026-03-29T10:14:55.446Z</time></trkpt><trkpt lat="45.4625117" lon="10.4901317"><ele>169.0</ele><time>2026-03-29T10:14:56.446Z</time></trkpt><trkpt lat="45.46267" lon="10.4901833"><ele>169.0</ele><time>2026-03-29T10:14:57.446Z</time></trkpt><trkpt lat="45.4628383" lon="10.4901533"><ele>169.0</ele><time>2026-03-29T10:14:58.446Z</time></trkpt><trkpt lat="45.4630167" lon="10.4900683"><ele>169.0</ele><time>2026-03-29T10:14:59.446Z</time></trkpt><trkpt lat="45.4632017" lon="10.4899317"><ele>168.66666666666669</ele><time>2026-03-29T10:15:00.446Z</time></trkpt><trkpt lat="45.46339" lon="10.4897783"><ele>168.33333333333334</ele><time>2026-03-29T10:15:01.446Z</time></trkpt><trkpt lat="45.4635783" lon="10.4896117"><ele>168.0</ele><time>2026-03-29T10:15:02.446Z</time></trkpt><trkpt lat="45.4637633" lon="10.4894517"><ele>168.0</ele><time>2026-03-29T10:15:03.446Z</time></trkpt><trkpt lat="45.463945" lon="10.489305"><ele>168.0</ele><time>2026-03-29T10:15:04.446Z</time></trkpt><trkpt lat="45.4641467" lon="10.4891583"><ele>168.0</ele><time>2026-03-29T10:15:05.446Z</time></trkpt><trkpt lat="45.4643483" lon="10.4890383"><ele>168.0</ele><time>2026-03-29T10:15:06.446Z</time></trkpt><trkpt lat="45.4645667" lon="10.48893"><ele>168.0</ele><time>2026-03-29T10:15:07.446Z</time></trkpt><trkpt lat="45.4647917" lon="10.4888583"><ele>166.5</ele><time>2026-03-29T10:15:08.446Z</time></trkpt><trkpt lat="45.4650267" lon="10.4888217"><ele>165.0</ele><time>2026-03-29T10:15:09.446Z</time></trkpt><trkpt lat="45.465265" lon="10.4887967"><ele>162.0</ele><time>2026-03-29T10:15:10.446Z</time></trkpt><trkpt lat="45.4654917" lon="10.48882"><ele>159.0</ele><time>2026-03-29T10:15:11.446Z</time></trkpt><trkpt lat="45.46572" lon="10.48886"><ele>159.0</ele><time>2026-03-29T10:15:12.446Z</time></trkpt><trkpt lat="45.4659517" lon="10.48891"><ele>159.0</ele><time>2026-03-29T10:15:13.446Z</time></trkpt><trkpt lat="45.4661883" lon="10.4889667"><ele>162.5</ele><time>2026-03-29T10:15:14.446Z</time></trkpt><trkpt lat="45.4664283" lon="10.4890317"><ele>166.0</ele><time>2026-03-29T10:15:15.446Z</time></trkpt><trkpt lat="45.4666667" lon="10.4891"><ele>166.0</ele><time>2026-03-29T10:15:16.446Z</time></trkpt><trkpt lat="45.46691" lon="10.4891667"><ele>166.0</ele><time>2026-03-29T10:15:17.446Z</time></trkpt><trkpt lat="45.4671467" lon="10.4892317"><ele>167.0</ele><time>2026-03-29T10:15:18.446Z</time></trkpt><trkpt lat="45.4673817" lon="10.489315"><ele>168.0</ele><time>2026-03-29T10:15:19.446Z</time></trkpt><trkpt lat="45.467615" lon="10.4894"><ele>168.0</ele><time>2026-03-29T10:15:20.446Z</time></trkpt><trkpt lat="45.4678517" lon="10.489485"><ele>168.0</ele><time>2026-03-29T10:15:21.446Z</time></trkpt><trkpt lat="45.4680817" lon="10.4895867"><ele>166.5</ele><time>2026-03-29T10:15:22.446Z</time></trkpt><trkpt lat="45.4683067" lon="10.4897033"><ele>165.0</ele><time>2026-03-29T10:15:23.446Z</time></trkpt><trkpt lat="45.46853" lon="10.489805"><ele>165.0</ele><time>2026-03-29T10:15:24.446Z</time></trkpt><trkpt lat="45.4687483" lon="10.4898967"><ele>165.0</ele><time>2026-03-29T10:15:25.445Z</time></trkpt><trkpt lat="45.4689633" lon="10.4899933"><ele>163.0</ele><time>2026-03-29T10:15:26.446Z</time></trkpt><trkpt lat="45.469185" lon="10.490085"><ele>161.0</ele><time>2026-03-29T10:15:27.446Z</time></trkpt><trkpt lat="45.469405" lon="10.4901783"><ele>160.33333333333331</ele><time>2026-03-29T10:15:28.446Z</time></trkpt><trkpt lat="45.4696167" lon="10.4902733"><ele>159.66666666666666</ele><time>2026-03-29T10:15:29.446Z</time></trkpt><trkpt lat="45.4698267" lon="10.4903717"><ele>159.0</ele><time>2026-03-29T10:15:30.445Z</time></trkpt><trkpt lat="45.4700367" lon="10.4904633"><ele>158.66666666666666</ele><time>2026-03-29T10:15:31.445Z</time></trkpt><trkpt lat="45.470255" lon="10.4905567"><ele>158.33333333333331</ele><time>2026-03-29T10:15:32.446Z</time></trkpt><trkpt lat="45.4704667" lon="10.4906383"><ele>158.0</ele><time>2026-03-29T10:15:33.446Z</time></trkpt><trkpt lat="45.4706733" lon="10.490745"><ele>157.0</ele><time>2026-03-29T10:15:34.446Z</time></trkpt><trkpt lat="45.4708883" lon="10.49084"><ele>156.0</ele><time>2026-03-29T10:15:35.446Z</time></trkpt><trkpt lat="45.471105" lon="10.4909333"><ele>155.33333333333334</ele><time>2026-03-29T10:15:36.446Z</time></trkpt><trkpt lat="45.471315" lon="10.4910217"><ele>154.66666666666669</ele><time>2026-03-29T10:15:37.446Z</time></trkpt><trkpt lat="45.47152" lon="10.49111"><ele>154.0</ele><time>2026-03-29T10:15:38.445Z</time></trkpt><trkpt lat="45.4717233" lon="10.4912067"><ele>153.33333333333334</ele><time>2026-03-29T10:15:39.446Z</time></trkpt><trkpt lat="45.47193" lon="10.4913"><ele>152.66666666666666</ele><time>2026-03-29T10:15:40.446Z</time></trkpt><trkpt lat="45.4721317" lon="10.4913867"><ele>152.0</ele><time>2026-03-29T10:15:41.446Z</time></trkpt><trkpt lat="45.4723283" lon="10.4914733"><ele>152.0</ele><time>2026-03-29T10:15:42.446Z</time></trkpt><trkpt lat="45.4724917" lon="10.491555"><ele>152.0</ele><time>2026-03-29T10:15:43.446Z</time></trkpt><trkpt lat="45.4726317" lon="10.4916217"><ele>152.0</ele><time>2026-03-29T10:15:44.446Z</time></trkpt><trkpt lat="45.472735" lon="10.4916667"><ele>152.0</ele><time>2026-03-29T10:15:45.446Z</time></trkpt><trkpt lat="45.4728" lon="10.4916933"><ele>152.0</ele><time>2026-03-29T10:15:46.446Z</time></trkpt><trkpt lat="45.4728367" lon="10.4915717"><ele>152.0</ele><time>2026-03-29T10:15:55.446Z</time></trkpt><trkpt lat="45.4728467" lon="10.49146"><ele>152.0</ele><time>2026-03-29T10:15:56.446Z</time></trkpt><trkpt lat="45.4728633" lon="10.4912983"><ele>152.0</ele><time>2026-03-29T10:15:57.445Z</time></trkpt><trkpt lat="45.4728883" lon="10.49111"><ele>152.0</ele><time>2026-03-29T10:15:58.446Z</time></trkpt><trkpt lat="45.4729183" lon="10.49096"><ele>153.0</ele><time>2026-03-29T10:15:59.446Z</time></trkpt><trkpt lat="45.472965" lon="10.490865"><ele>154.0</ele><time>2026-03-29T10:16:00.446Z</time></trkpt><trkpt lat="45.4730133" lon="10.4908"><ele>155.0</ele><time>2026-03-29T10:16:01.446Z</time></trkpt><trkpt lat="45.4730883" lon="10.49079"><ele>156.0</ele><time>2026-03-29T10:16:02.446Z</time></trkpt><trkpt lat="45.47319" lon="10.490805"><ele>157.0</ele><time>2026-03-29T10:16:03.446Z</time></trkpt><trkpt lat="45.47332" lon="10.4908433"><ele>157.0</ele><time>2026-03-29T10:16:04.446Z</time></trkpt><trkpt lat="45.4734417" lon="10.4908467"><ele>157.0</ele><time>2026-03-29T10:16:05.446Z</time></trkpt><trkpt lat="45.47354" lon="10.49082"><ele>157.0</ele><time>2026-03-29T10:16:06.446Z</time></trkpt><trkpt lat="45.4736133" lon="10.49075"><ele>157.0</ele><time>2026-03-29T10:16:07.446Z</time></trkpt><trkpt lat="45.4736667" lon="10.4906667"><ele>157.0</ele><time>2026-03-29T10:16:08.445Z</time></trkpt><trkpt lat="45.4737333" lon="10.4906117"><ele>157.75</ele><time>2026-03-29T10:16:09.446Z</time></trkpt><trkpt lat="45.4738183" lon="10.4905933"><ele>158.5</ele><time>2026-03-29T10:16:10.446Z</time></trkpt><trkpt lat="45.4739317" lon="10.490605"><ele>159.25</ele><time>2026-03-29T10:16:11.446Z</time></trkpt><trkpt lat="45.4740733" lon="10.490635"><ele>160.0</ele><time>2026-03-29T10:16:12.445Z</time></trkpt><trkpt lat="45.4742517" lon="10.4906767"><ele>160.0</ele><time>2026-03-29T10:16:13.446Z</time></trkpt><trkpt lat="45.47443" lon="10.49071"><ele>160.0</ele><time>2026-03-29T10:16:14.446Z</time></trkpt><trkpt lat="45.4745833" lon="10.4907367"><ele>160.0</ele><time>2026-03-29T10:16:15.446Z</time></trkpt><trkpt lat="45.4747183" lon="10.490745"><ele>160.75</ele><time>2026-03-29T10:16:16.446Z</time></trkpt><trkpt lat="45.47483" lon="10.4906933"><ele>161.5</ele><time>2026-03-29T10:16:17.446Z</time></trkpt><trkpt lat="45.4749333" lon="10.4906183"><ele>162.25</ele><time>2026-03-29T10:16:18.446Z</time></trkpt><trkpt lat="45.475045" lon="10.4905367"><ele>163.0</ele><time>2026-03-29T10:16:19.446Z</time></trkpt><trkpt lat="45.4751433" lon="10.4904767"><ele>163.0</ele><time>2026-03-29T10:16:20.446Z</time></trkpt><trkpt lat="45.4752367" lon="10.4904417"><ele>163.0</ele><time>2026-03-29T10:16:21.446Z</time></trkpt><trkpt lat="45.4753267" lon="10.4904267"><ele>163.0</ele><time>2026-03-29T10:16:22.446Z</time></trkpt><trkpt lat="45.4754233" lon="10.4904483"><ele>163.0</ele><time>2026-03-29T10:16:23.446Z</time></trkpt><trkpt lat="45.4755267" lon="10.490505"><ele>163.0</ele><time>2026-03-29T10:16:24.446Z</time></trkpt><trkpt lat="45.47565" lon="10.49057"><ele>164.0</ele><time>2026-03-29T10:16:25.446Z</time></trkpt><trkpt lat="45.475785" lon="10.4906133"><ele>165.0</ele><time>2026-03-29T10:16:26.445Z</time></trkpt><trkpt lat="45.4759217" lon="10.4906783"><ele>166.0</ele><time>2026-03-29T10:16:27.446Z</time></trkpt><trkpt lat="45.476055" lon="10.4907617"><ele>167.0</ele><time>2026-03-29T10:16:28.446Z</time></trkpt><trkpt lat="45.4761767" lon="10.4908633"><ele>167.0</ele><time>2026-03-29T10:16:29.446Z</time></trkpt><trkpt lat="45.4763067" lon="10.49099"><ele>167.0</ele><time>2026-03-29T10:16:30.446Z</time></trkpt><trkpt lat="45.476435" lon="10.4911"><ele>167.0</ele><time>2026-03-29T10:16:31.446Z</time></trkpt><trkpt lat="45.476555" lon="10.49119"><ele>167.0</ele><time>2026-03-29T10:16:32.446Z</time></trkpt><trkpt lat="45.47668" lon="10.4912767"><ele>167.0</ele><time>2026-03-29T10:16:33.446Z</time></trkpt><trkpt lat="45.47681" lon="10.4913667"><ele>167.0</ele><time>2026-03-29T10:16:34.446Z</time></trkpt><trkpt lat="45.4769367" lon="10.4914867"><ele>167.0</ele><time>2026-03-29T10:16:35.446Z</time></trkpt><trkpt lat="45.4770717" lon="10.4916167"><ele>168.33333333333331</ele><time>2026-03-29T10:16:36.446Z</time></trkpt><trkpt lat="45.4772033" lon="10.491765"><ele>169.66666666666666</ele><time>2026-03-29T10:16:37.446Z</time></trkpt><trkpt lat="45.4773283" lon="10.4919367"><ele>171.0</ele><time>2026-03-29T10:16:38.446Z</time></trkpt><trkpt lat="45.4774467" lon="10.492095"><ele>171.0</ele><time>2026-03-29T10:16:39.445Z</time></trkpt><trkpt lat="45.4775483" lon="10.4922283"><ele>171.0</ele><time>2026-03-29T10:16:40.446Z</time></trkpt><trkpt lat="45.47764" lon="10.4923367"><ele>171.0</ele><time>2026-03-29T10:16:41.446Z</time></trkpt><trkpt lat="45.4777183" lon="10.4924167"><ele>171.0</ele><time>2026-03-29T10:16:42.446Z</time></trkpt><trkpt lat="45.4777817" lon="10.4924933"><ele>171.0</ele><time>2026-03-29T10:16:43.446Z</time></trkpt><trkpt lat="45.477855" lon="10.4925767"><ele>171.0</ele><time>2026-03-29T10:16:44.446Z</time></trkpt><trkpt lat="45.4779283" lon="10.4926567"><ele>171.0</ele><time>2026-03-29T10:16:45.446Z</time></trkpt><trkpt lat="45.47801" lon="10.492745"><ele>171.0</ele><time>2026-03-29T10:16:46.446Z</time></trkpt><trkpt lat="45.4781017" lon="10.4928367"><ele>171.0</ele><time>2026-03-29T10:16:47.445Z</time></trkpt><trkpt lat="45.478195" lon="10.49294"><ele>171.0</ele><time>2026-03-29T10:16:48.446Z</time></trkpt><trkpt lat="45.4782917" lon="10.493055"><ele>170.60000000000002</ele><time>2026-03-29T10:16:49.445Z</time></trkpt><trkpt lat="45.4783783" lon="10.4931433"><ele>170.2</ele><time>2026-03-29T10:16:50.446Z</time></trkpt><trkpt lat="45.4784633" lon="10.4932117"><ele>169.8</ele><time>2026-03-29T10:16:51.445Z</time></trkpt><trkpt lat="45.478545" lon="10.4932633"><ele>169.39999999999998</ele><time>2026-03-29T10:16:52.446Z</time></trkpt><trkpt lat="45.4786117" lon="10.4932783"><ele>169.0</ele><time>2026-03-29T10:16:53.446Z</time></trkpt><trkpt lat="45.4787133" lon="10.49316"><ele>169.0</ele><time>2026-03-29T10:16:55.446Z</time></trkpt><trkpt lat="45.4787533" lon="10.4930333"><ele>169.0</ele><time>2026-03-29T10:16:56.446Z</time></trkpt><trkpt lat="45.4787933" lon="10.492865"><ele>169.0</ele><time>2026-03-29T10:16:57.446Z</time></trkpt><trkpt lat="45.47882" lon="10.4926283"><ele>169.0</ele><time>2026-03-29T10:16:58.446Z</time></trkpt><trkpt lat="45.4788533" lon="10.4923883"><ele>170.25</ele><time>2026-03-29T10:16:59.446Z</time></trkpt><trkpt lat="45.4788867" lon="10.4921817"><ele>171.5</ele><time>2026-03-29T10:17:00.446Z</time></trkpt><trkpt lat="45.4789183" lon="10.4920017"><ele>172.75</ele><time>2026-03-29T10:17:01.446Z</time></trkpt><trkpt lat="45.478955" lon="10.49186"><ele>174.0</ele><time>2026-03-29T10:17:02.446Z</time></trkpt><trkpt lat="45.4790083" lon="10.4917433"><ele>174.5</ele><time>2026-03-29T10:17:03.446Z</time></trkpt><trkpt lat="45.479065" lon="10.4916533"><ele>175.0</ele><time>2026-03-29T10:17:04.446Z</time></trkpt><trkpt lat="45.4791217" lon="10.4915917"><ele>175.5</ele><time>2026-03-29T10:17:05.446Z</time></trkpt><trkpt lat="45.479185" lon="10.4915467"><ele>176.0</ele><time>2026-03-29T10:17:06.446Z</time></trkpt><trkpt lat="45.4792567" lon="10.4915283"><ele>176.5</ele><time>2026-03-29T10:17:07.446Z</time></trkpt><trkpt lat="45.479345" lon="10.4915417"><ele>177.0</ele><time>2026-03-29T10:17:08.446Z</time></trkpt><trkpt lat="45.479435" lon="10.4915583"><ele>177.0</ele><time>2026-03-29T10:17:09.446Z</time></trkpt><trkpt lat="45.4795233" lon="10.4915767"><ele>177.0</ele><time>2026-03-29T10:17:10.446Z</time></trkpt><trkpt lat="45.4796233" lon="10.4915867"><ele>177.0</ele><time>2026-03-29T10:17:11.446Z</time></trkpt><trkpt lat="45.479725" lon="10.4916033"><ele>177.0</ele><time>2026-03-29T10:17:12.446Z</time></trkpt><trkpt lat="45.4798333" lon="10.4916233"><ele>177.0</ele><time>2026-03-29T10:17:13.446Z</time></trkpt><trkpt lat="45.47995" lon="10.4916433"><ele>177.5</ele><time>2026-03-29T10:17:14.446Z</time></trkpt><trkpt lat="45.4800717" lon="10.4916633"><ele>178.0</ele><time>2026-03-29T10:17:15.446Z</time></trkpt><trkpt lat="45.4802" lon="10.49167"><ele>178.5</ele><time>2026-03-29T10:17:16.446Z</time></trkpt><trkpt lat="45.4803267" lon="10.49166"><ele>179.0</ele><time>2026-03-29T10:17:17.446Z</time></trkpt><trkpt lat="45.4804533" lon="10.4916733"><ele>179.5</ele><time>2026-03-29T10:17:18.446Z</time></trkpt><trkpt lat="45.4805883" lon="10.49168"><ele>180.0</ele><time>2026-03-29T10:17:19.446Z</time></trkpt><trkpt lat="45.48072" lon="10.4917167"><ele>180.5</ele><time>2026-03-29T10:17:20.445Z</time></trkpt><trkpt lat="45.4808667" lon="10.491785"><ele>181.0</ele><time>2026-03-29T10:17:21.446Z</time></trkpt><trkpt lat="45.481015" lon="10.4918583"><ele>181.0</ele><time>2026-03-29T10:17:22.446Z</time></trkpt><trkpt lat="45.481155" lon="10.49191"><ele>181.0</ele><time>2026-03-29T10:17:23.445Z</time></trkpt><trkpt lat="45.4813017" lon="10.4919467"><ele>181.0</ele><time>2026-03-29T10:17:24.445Z</time></trkpt><trkpt lat="45.4814567" lon="10.4919667"><ele>181.0</ele><time>2026-03-29T10:17:25.446Z</time></trkpt><trkpt lat="45.481605" lon="10.49199"><ele>181.0</ele><time>2026-03-29T10:17:26.446Z</time></trkpt><trkpt lat="45.4817383" lon="10.4920067"><ele>181.0</ele><time>2026-03-29T10:17:27.445Z</time></trkpt><trkpt lat="45.4818533" lon="10.4920267"><ele>181.0</ele><time>2026-03-29T10:17:28.446Z</time></trkpt><trkpt lat="45.4819533" lon="10.492045"><ele>181.0</ele><time>2026-03-29T10:17:29.446Z</time></trkpt><trkpt lat="45.482045" lon="10.4920783"><ele>181.0</ele><time>2026-03-29T10:17:30.446Z</time></trkpt><trkpt lat="45.4821267" lon="10.4921017"><ele>181.0</ele><time>2026-03-29T10:17:31.446Z</time></trkpt><trkpt lat="45.4822117" lon="10.4921083"><ele>181.0</ele><time>2026-03-29T10:17:32.446Z</time></trkpt><trkpt lat="45.4822783" lon="10.492115"><ele>181.0</ele><time>2026-03-29T10:17:33.446Z</time></trkpt><trkpt lat="45.4823617" lon="10.49211"><ele>181.0</ele><time>2026-03-29T10:17:35.446Z</time></trkpt><trkpt lat="45.482395" lon="10.4920167"><ele>181.0</ele><time>2026-03-29T10:17:38.446Z</time></trkpt><trkpt lat="45.48235" lon="10.4918733"><ele>181.0</ele><time>2026-03-29T10:17:40.446Z</time></trkpt><trkpt lat="45.4822933" lon="10.491765"><ele>182.66666666666669</ele><time>2026-03-29T10:17:41.446Z</time></trkpt><trkpt lat="45.482215" lon="10.4916367"><ele>184.33333333333334</ele><time>2026-03-29T10:17:42.446Z</time></trkpt><trkpt lat="45.4821083" lon="10.4914683"><ele>186.0</ele><time>2026-03-29T10:17:43.446Z</time></trkpt><trkpt lat="45.4819683" lon="10.491275"><ele>188.33333333333331</ele><time>2026-03-29T10:17:44.446Z</time></trkpt><trkpt lat="45.4818183" lon="10.491045"><ele>190.66666666666666</ele><time>2026-03-29T10:17:45.446Z</time></trkpt><trkpt lat="45.4817017" lon="10.4908483"><ele>193.0</ele><time>2026-03-29T10:17:46.446Z</time></trkpt><trkpt lat="45.4815883" lon="10.4906817"><ele>193.0</ele><time>2026-03-29T10:17:47.446Z</time></trkpt><trkpt lat="45.48148" lon="10.4905283"><ele>193.0</ele><time>2026-03-29T10:17:48.446Z</time></trkpt><trkpt lat="45.4813733" lon="10.49038"><ele>193.0</ele><time>2026-03-29T10:17:49.446Z</time></trkpt><trkpt lat="45.481265" lon="10.4902117"><ele>192.0</ele><time>2026-03-29T10:17:50.445Z</time></trkpt><trkpt lat="45.4811667" lon="10.4900433"><ele>191.0</ele><time>2026-03-29T10:17:51.446Z</time></trkpt><trkpt lat="45.4810683" lon="10.4898867"><ele>190.0</ele><time>2026-03-29T10:17:52.446Z</time></trkpt><trkpt lat="45.4809717" lon="10.4897583"><ele>189.0</ele><time>2026-03-29T10:17:53.445Z</time></trkpt><trkpt lat="45.4808767" lon="10.489675"><ele>189.0</ele><time>2026-03-29T10:17:54.446Z</time></trkpt><trkpt lat="45.4807717" lon="10.489625"><ele>189.0</ele><time>2026-03-29T10:17:55.446Z</time></trkpt><trkpt lat="45.4806517" lon="10.4895983"><ele>189.0</ele><time>2026-03-29T10:17:56.446Z</time></trkpt><trkpt lat="45.480525" lon="10.48959"><ele>189.0</ele><time>2026-03-29T10:17:57.446Z</time></trkpt><trkpt lat="45.4804083" lon="10.4895833"><ele>190.79999999999998</ele><time>2026-03-29T10:17:58.446Z</time></trkpt><trkpt lat="45.4803117" lon="10.4895333"><ele>192.6</ele><time>2026-03-29T10:17:59.446Z</time></trkpt><trkpt lat="45.4802117" lon="10.48946"><ele>194.4</ele><time>2026-03-29T10:18:00.446Z</time></trkpt><trkpt lat="45.4801167" lon="10.4893683"><ele>196.2</ele><time>2026-03-29T10:18:01.446Z</time></trkpt><trkpt lat="45.4800317" lon="10.489255"><ele>198.0</ele><time>2026-03-29T10:18:02.446Z</time></trkpt><trkpt lat="45.4799483" lon="10.4891233"><ele>198.0</ele><time>2026-03-29T10:18:03.446Z</time></trkpt><trkpt lat="45.4798867" lon="10.4889433"><ele>198.0</ele><time>2026-03-29T10:18:04.446Z</time></trkpt><trkpt lat="45.4798233" lon="10.4887933"><ele>198.0</ele><time>2026-03-29T10:18:05.446Z</time></trkpt><trkpt lat="45.4797767" lon="10.4886067"><ele>198.0</ele><time>2026-03-29T10:18:06.446Z</time></trkpt><trkpt lat="45.4797217" lon="10.4884167"><ele>197.5</ele><time>2026-03-29T10:18:07.446Z</time></trkpt><trkpt lat="45.4796567" lon="10.4882233"><ele>197.0</ele><time>2026-03-29T10:18:08.446Z</time></trkpt><trkpt lat="45.47959" lon="10.48803"><ele>196.5</ele><time>2026-03-29T10:18:09.446Z</time></trkpt><trkpt lat="45.4795167" lon="10.4878617"><ele>196.0</ele><time>2026-03-29T10:18:10.445Z</time></trkpt><trkpt lat="45.4794433" lon="10.487695"><ele>197.75</ele><time>2026-03-29T10:18:11.446Z</time></trkpt><trkpt lat="45.4793533" lon="10.487565"><ele>199.5</ele><time>2026-03-29T10:18:12.446Z</time></trkpt><trkpt lat="45.4792433" lon="10.4874583"><ele>201.25</ele><time>2026-03-29T10:18:13.446Z</time></trkpt><trkpt lat="45.4791367" lon="10.4873767"><ele>203.0</ele><time>2026-03-29T10:18:14.445Z</time></trkpt><trkpt lat="45.47904" lon="10.4873033"><ele>203.0</ele><time>2026-03-29T10:18:15.446Z</time></trkpt><trkpt lat="45.478935" lon="10.4872333"><ele>203.0</ele><time>2026-03-29T10:18:16.446Z</time></trkpt><trkpt lat="45.4788183" lon="10.48717"><ele>203.0</ele><time>2026-03-29T10:18:17.446Z</time></trkpt><trkpt lat="45.4787033" lon="10.4871133"><ele>203.0</ele><time>2026-03-29T10:18:18.446Z</time></trkpt><trkpt lat="45.478625" lon="10.48707"><ele>203.0</ele><time>2026-03-29T10:18:19.446Z</time></trkpt><trkpt lat="45.4785417" lon="10.4870483"><ele>203.0</ele><time>2026-03-29T10:18:21.446Z</time></trkpt><trkpt lat="45.4785983" lon="10.4871033"><ele>203.0</ele><time>2026-03-29T10:18:31.446Z</time></trkpt><trkpt lat="45.47872" lon="10.48716"><ele>203.0</ele><time>2026-03-29T10:18:33.446Z</time></trkpt><trkpt lat="45.4788067" lon="10.4872017"><ele>203.0</ele><time>2026-03-29T10:18:34.446Z</time></trkpt><trkpt lat="45.4788933" lon="10.4872467"><ele>203.0</ele><time>2026-03-29T10:18:35.445Z</time></trkpt><trkpt lat="45.4789733" lon="10.487295"><ele>203.00000000000003</ele><time>2026-03-29T10:18:36.446Z</time></trkpt><trkpt lat="45.4790433" lon="10.4873417"><ele>203.0</ele><time>2026-03-29T10:18:37.446Z</time></trkpt><trkpt lat="45.4791417" lon="10.4873833"><ele>203.0</ele><time>2026-03-29T10:18:39.446Z</time></trkpt><trkpt lat="45.4792217" lon="10.4873283"><ele>203.0</ele><time>2026-03-29T10:18:41.446Z</time></trkpt><trkpt lat="45.47926" lon="10.487235"><ele>203.00000000000003</ele><time>2026-03-29T10:18:42.446Z</time></trkpt><trkpt lat="45.479305" lon="10.4871017"><ele>203.0</ele><time>2026-03-29T10:18:43.446Z</time></trkpt><trkpt lat="45.479355" lon="10.4869317"><ele>203.75</ele><time>2026-03-29T10:18:44.446Z</time></trkpt><trkpt lat="45.4794133" lon="10.4867417"><ele>204.5</ele><time>2026-03-29T10:18:45.446Z</time></trkpt><trkpt lat="45.4794717" lon="10.4865533"><ele>205.25</ele><time>2026-03-29T10:18:46.446Z</time></trkpt><trkpt lat="45.47954" lon="10.4863667"><ele>206.0</ele><time>2026-03-29T10:18:47.446Z</time></trkpt><trkpt lat="45.4796133" lon="10.4861683"><ele>207.33333333333334</ele><time>2026-03-29T10:18:48.446Z</time></trkpt><trkpt lat="45.4797017" lon="10.48595"><ele>208.66666666666669</ele><time>2026-03-29T10:18:49.446Z</time></trkpt><trkpt lat="45.4798033" lon="10.485745"><ele>210.0</ele><time>2026-03-29T10:18:50.446Z</time></trkpt><trkpt lat="45.4799017" lon="10.4855333"><ele>211.0</ele><time>2026-03-29T10:18:51.446Z</time></trkpt><trkpt lat="45.479985" lon="10.4853467"><ele>212.0</ele><time>2026-03-29T10:18:52.446Z</time></trkpt><trkpt lat="45.4800517" lon="10.4851983"><ele>213.0</ele><time>2026-03-29T10:18:53.446Z</time></trkpt><trkpt lat="45.4800867" lon="10.48508"><ele>214.0</ele><time>2026-03-29T10:18:54.446Z</time></trkpt><trkpt lat="45.4801167" lon="10.4849583"><ele>214.0</ele><time>2026-03-29T10:18:55.446Z</time></trkpt><trkpt lat="45.480155" lon="10.4848333"><ele>213.99999999999997</ele><time>2026-03-29T10:18:56.446Z</time></trkpt><trkpt lat="45.480185" lon="10.484705"><ele>213.99999999999997</ele><time>2026-03-29T10:18:57.445Z</time></trkpt><trkpt lat="45.4802067" lon="10.4845617"><ele>214.0</ele><time>2026-03-29T10:18:58.446Z</time></trkpt><trkpt lat="45.4802283" lon="10.4844133"><ele>214.0</ele><time>2026-03-29T10:18:59.446Z</time></trkpt><trkpt lat="45.4802233" lon="10.4842733"><ele>215.0</ele><time>2026-03-29T10:19:00.445Z</time></trkpt><trkpt lat="45.4802117" lon="10.4841167"><ele>216.0</ele><time>2026-03-29T10:19:01.445Z</time></trkpt><trkpt lat="45.480175" lon="10.4839483"><ele>217.0</ele><time>2026-03-29T10:19:02.446Z</time></trkpt><trkpt lat="45.480125" lon="10.48379"><ele>218.0</ele><time>2026-03-29T10:19:03.446Z</time></trkpt><trkpt lat="45.4800667" lon="10.4836517"><ele>219.0</ele><time>2026-03-29T10:19:04.446Z</time></trkpt><trkpt lat="45.4799933" lon="10.4835233"><ele>220.0</ele><time>2026-03-29T10:19:05.446Z</time></trkpt><trkpt lat="45.4799033" lon="10.483405"><ele>221.0</ele><time>2026-03-29T10:19:06.446Z</time></trkpt><trkpt lat="45.4798267" lon="10.48329"><ele>222.0</ele><time>2026-03-29T10:19:07.446Z</time></trkpt><trkpt lat="45.47978" lon="10.4832017"><ele>223.0</ele><time>2026-03-29T10:19:08.446Z</time></trkpt><trkpt lat="45.4797483" lon="10.4831017"><ele>223.0</ele><time>2026-03-29T10:19:09.445Z</time></trkpt><trkpt lat="45.479725" lon="10.4829883"><ele>223.0</ele><time>2026-03-29T10:19:10.446Z</time></trkpt><trkpt lat="45.47971" lon="10.4828533"><ele>223.0</ele><time>2026-03-29T10:19:11.446Z</time></trkpt><trkpt lat="45.4796867" lon="10.4826983"><ele>223.0</ele><time>2026-03-29T10:19:12.446Z</time></trkpt><trkpt lat="45.4796583" lon="10.4825433"><ele>223.0</ele><time>2026-03-29T10:19:13.446Z</time></trkpt><trkpt lat="45.4796333" lon="10.48242"><ele>223.2</ele><time>2026-03-29T10:19:14.445Z</time></trkpt><trkpt lat="45.479625" lon="10.4823117"><ele>223.4</ele><time>2026-03-29T10:19:15.446Z</time></trkpt><trkpt lat="45.4796383" lon="10.4821567"><ele>223.59999999999997</ele><time>2026-03-29T10:19:17.446Z</time></trkpt><trkpt lat="45.4796383" lon="10.4820417"><ele>223.79999999999998</ele><time>2026-03-29T10:19:18.446Z</time></trkpt><trkpt lat="45.4796283" lon="10.4819133"><ele>224.0</ele><time>2026-03-29T10:19:19.446Z</time></trkpt><trkpt lat="45.479595" lon="10.4817717"><ele>224.0</ele><time>2026-03-29T10:19:20.446Z</time></trkpt><trkpt lat="45.4795383" lon="10.48161"><ele>224.0</ele><time>2026-03-29T10:19:21.446Z</time></trkpt><trkpt lat="45.479465" lon="10.4814233"><ele>224.0</ele><time>2026-03-29T10:19:22.446Z</time></trkpt><trkpt lat="45.4793783" lon="10.4812233"><ele>224.0</ele><time>2026-03-29T10:19:23.446Z</time></trkpt><trkpt lat="45.4793067" lon="10.4810217"><ele>222.39999999999998</ele><time>2026-03-29T10:19:24.446Z</time></trkpt><trkpt lat="45.4792517" lon="10.4808517"><ele>220.79999999999998</ele><time>2026-03-29T10:19:25.446Z</time></trkpt><trkpt lat="45.479215" lon="10.4806967"><ele>219.20000000000002</ele><time>2026-03-29T10:19:26.446Z</time></trkpt><trkpt lat="45.4791817" lon="10.4805983"><ele>217.60000000000002</ele><time>2026-03-29T10:19:27.445Z</time></trkpt><trkpt lat="45.4790833" lon="10.4805067"><ele>216.0</ele><time>2026-03-29T10:19:29.446Z</time></trkpt><trkpt lat="45.4790083" lon="10.4804867"><ele>216.0</ele><time>2026-03-29T10:19:30.446Z</time></trkpt><trkpt lat="45.478905" lon="10.48048"><ele>216.0</ele><time>2026-03-29T10:19:31.446Z</time></trkpt><trkpt lat="45.4787867" lon="10.480475"><ele>216.0</ele><time>2026-03-29T10:19:32.446Z</time></trkpt><trkpt lat="45.4786667" lon="10.4804633"><ele>216.0</ele><time>2026-03-29T10:19:33.446Z</time></trkpt><trkpt lat="45.4785517" lon="10.4804433"><ele>215.66666666666666</ele><time>2026-03-29T10:19:34.445Z</time></trkpt><trkpt lat="45.4784717" lon="10.480425"><ele>215.33333333333331</ele><time>2026-03-29T10:19:35.446Z</time></trkpt><trkpt lat="45.4784133" lon="10.48038"><ele>215.0</ele><time>2026-03-29T10:19:36.445Z</time></trkpt><trkpt lat="45.4783733" lon="10.4803017"><ele>214.66666666666666</ele><time>2026-03-29T10:19:37.446Z</time></trkpt><trkpt lat="45.4783483" lon="10.4801833"><ele>214.33333333333331</ele><time>2026-03-29T10:19:38.446Z</time></trkpt><trkpt lat="45.4783417" lon="10.48003"><ele>214.0</ele><time>2026-03-29T10:19:39.445Z</time></trkpt><trkpt lat="45.4783333" lon="10.4798967"><ele>213.99999999999997</ele><time>2026-03-29T10:19:40.446Z</time></trkpt><trkpt lat="45.4783033" lon="10.4798"><ele>214.0</ele><time>2026-03-29T10:19:41.446Z</time></trkpt><trkpt lat="45.478255" lon="10.4797317"><ele>214.0</ele><time>2026-03-29T10:19:42.446Z</time></trkpt><trkpt lat="45.4781867" lon="10.47969"><ele>214.0</ele><time>2026-03-29T10:19:43.446Z</time></trkpt><trkpt lat="45.4780967" lon="10.4796667"><ele>213.99999999999997</ele><time>2026-03-29T10:19:44.446Z</time></trkpt><trkpt lat="45.47799" lon="10.4796667"><ele>214.0</ele><time>2026-03-29T10:19:45.446Z</time></trkpt><trkpt lat="45.4778517" lon="10.479685"><ele>213.5</ele><time>2026-03-29T10:19:46.446Z</time></trkpt><trkpt lat="45.4777367" lon="10.4796783"><ele>213.0</ele><time>2026-03-29T10:19:47.446Z</time></trkpt><trkpt lat="45.4776217" lon="10.4796467"><ele>212.5</ele><time>2026-03-29T10:19:48.446Z</time></trkpt><trkpt lat="45.4774983" lon="10.4795933"><ele>212.0</ele><time>2026-03-29T10:19:49.445Z</time></trkpt><trkpt lat="45.47737" lon="10.4795183"><ele>211.25</ele><time>2026-03-29T10:19:50.446Z</time></trkpt><trkpt lat="45.4772533" lon="10.47942"><ele>210.5</ele><time>2026-03-29T10:19:51.446Z</time></trkpt><trkpt lat="45.4771583" lon="10.4793267"><ele>209.75</ele><time>2026-03-29T10:19:52.446Z</time></trkpt><trkpt lat="45.4770933" lon="10.4792433"><ele>209.0</ele><time>2026-03-29T10:19:53.446Z</time></trkpt><trkpt lat="45.47704" lon="10.4791"><ele>208.83333333333334</ele><time>2026-03-29T10:19:55.446Z</time></trkpt><trkpt lat="45.4770283" lon="10.4789817"><ele>208.66666666666669</ele><time>2026-03-29T10:19:56.446Z</time></trkpt><trkpt lat="45.4770233" lon="10.478855"><ele>208.5</ele><time>2026-03-29T10:19:57.445Z</time></trkpt><trkpt lat="45.4769967" lon="10.4787533"><ele>208.33333333333331</ele><time>2026-03-29T10:19:58.446Z</time></trkpt><trkpt lat="45.4769383" lon="10.4786467"><ele>208.16666666666666</ele><time>2026-03-29T10:20:00.446Z</time></trkpt><trkpt lat="45.476845" lon="10.4785817"><ele>208.0</ele><time>2026-03-29T10:20:02.446Z</time></trkpt><trkpt lat="45.4767817" lon="10.4785283"><ele>207.8</ele><time>2026-03-29T10:20:03.446Z</time></trkpt><trkpt lat="45.4767117" lon="10.4784683"><ele>207.60000000000002</ele><time>2026-03-29T10:20:04.446Z</time></trkpt><trkpt lat="45.476625" lon="10.4783967"><ele>207.39999999999998</ele><time>2026-03-29T10:20:05.446Z</time></trkpt><trkpt lat="45.4765217" lon="10.4782983"><ele>207.2</ele><time>2026-03-29T10:20:06.446Z</time></trkpt><trkpt lat="45.4764233" lon="10.478215"><ele>207.0</ele><time>2026-03-29T10:20:07.446Z</time></trkpt><trkpt lat="45.4763517" lon="10.47813"><ele>207.0</ele><time>2026-03-29T10:20:08.446Z</time></trkpt><trkpt lat="45.4762967" lon="10.4780533"><ele>207.0</ele><time>2026-03-29T10:20:09.446Z</time></trkpt><trkpt lat="45.4762467" lon="10.4779433"><ele>207.0</ele><time>2026-03-29T10:20:10.446Z</time></trkpt><trkpt lat="45.476205" lon="10.477825"><ele>207.0</ele><time>2026-03-29T10:20:11.446Z</time></trkpt><trkpt lat="45.476175" lon="10.4777117"><ele>207.0</ele><time>2026-03-29T10:20:12.444Z</time></trkpt><trkpt lat="45.476145" lon="10.47762"><ele>207.0</ele><time>2026-03-29T10:20:13.445Z</time></trkpt><trkpt lat="45.4760883" lon="10.4775017"><ele>205.8</ele><time>2026-03-29T10:20:15.445Z</time></trkpt><trkpt lat="45.4759933" lon="10.4775033"><ele>204.6</ele><time>2026-03-29T10:20:19.444Z</time></trkpt><trkpt lat="45.4759267" lon="10.477535"><ele>203.4</ele><time>2026-03-29T10:20:20.445Z</time></trkpt><trkpt lat="45.4758467" lon="10.4776067"><ele>202.20000000000002</ele><time>2026-03-29T10:20:21.445Z</time></trkpt><trkpt lat="45.47574" lon="10.4777233"><ele>201.0</ele><time>2026-03-29T10:20:22.445Z</time></trkpt><trkpt lat="45.4755833" lon="10.4778417"><ele>200.0</ele><time>2026-03-29T10:20:23.444Z</time></trkpt><trkpt lat="45.475415" lon="10.477985"><ele>199.0</ele><time>2026-03-29T10:20:24.445Z</time></trkpt><trkpt lat="45.4752533" lon="10.47809"><ele>198.0</ele><time>2026-03-29T10:20:25.445Z</time></trkpt><trkpt lat="45.475095" lon="10.4781667"><ele>198.0</ele><time>2026-03-29T10:20:26.445Z</time></trkpt><trkpt lat="45.4749617" lon="10.4781883"><ele>198.0</ele><time>2026-03-29T10:20:27.444Z</time></trkpt><trkpt lat="45.474855" lon="10.47816"><ele>198.0</ele><time>2026-03-29T10:20:28.445Z</time></trkpt><trkpt lat="45.4747633" lon="10.478085"><ele>198.0</ele><time>2026-03-29T10:20:29.445Z</time></trkpt><trkpt lat="45.47469" lon="10.4779667"><ele>197.75</ele><time>2026-03-29T10:20:30.445Z</time></trkpt><trkpt lat="45.4746333" lon="10.4778133"><ele>197.5</ele><time>2026-03-29T10:20:31.445Z</time></trkpt><trkpt lat="45.4746067" lon="10.4776333"><ele>197.25</ele><time>2026-03-29T10:20:32.445Z</time></trkpt><trkpt lat="45.474615" lon="10.4774183"><ele>197.0</ele><time>2026-03-29T10:20:33.445Z</time></trkpt><trkpt lat="45.4746517" lon="10.4771667"><ele>196.33333333333334</ele><time>2026-03-29T10:20:34.445Z</time></trkpt><trkpt lat="45.474685" lon="10.476895"><ele>195.66666666666669</ele><time>2026-03-29T10:20:35.445Z</time></trkpt><trkpt lat="45.474715" lon="10.4766017"><ele>195.0</ele><time>2026-03-29T10:20:36.445Z</time></trkpt><trkpt lat="45.47473" lon="10.476295"><ele>194.0</ele><time>2026-03-29T10:20:37.444Z</time></trkpt><trkpt lat="45.474735" lon="10.4759733"><ele>193.0</ele><time>2026-03-29T10:20:38.445Z</time></trkpt><trkpt lat="45.4747083" lon="10.475655"><ele>191.5</ele><time>2026-03-29T10:20:39.445Z</time></trkpt><trkpt lat="45.474665" lon="10.4753117"><ele>190.0</ele><time>2026-03-29T10:20:40.445Z</time></trkpt><trkpt lat="45.47462" lon="10.47497"><ele>189.0</ele><time>2026-03-29T10:20:41.444Z</time></trkpt><trkpt lat="45.4745617" lon="10.47463"><ele>188.0</ele><time>2026-03-29T10:20:42.444Z</time></trkpt><trkpt lat="45.4744883" lon="10.4742783"><ele>186.5</ele><time>2026-03-29T10:20:43.445Z</time></trkpt><trkpt lat="45.474405" lon="10.4739333"><ele>185.0</ele><time>2026-03-29T10:20:44.444Z</time></trkpt><trkpt lat="45.4743217" lon="10.4735983"><ele>183.5</ele><time>2026-03-29T10:20:45.444Z</time></trkpt><trkpt lat="45.474235" lon="10.4732833"><ele>182.0</ele><time>2026-03-29T10:20:46.445Z</time></trkpt><trkpt lat="45.4741567" lon="10.4730017"><ele>181.75</ele><time>2026-03-29T10:20:47.445Z</time></trkpt><trkpt lat="45.4740983" lon="10.4727733"><ele>181.5</ele><time>2026-03-29T10:20:48.445Z</time></trkpt><trkpt lat="45.4740633" lon="10.4725783"><ele>181.25</ele><time>2026-03-29T10:20:49.444Z</time></trkpt><trkpt lat="45.4740483" lon="10.472405"><ele>181.0</ele><time>2026-03-29T10:20:50.445Z</time></trkpt><trkpt lat="45.4740683" lon="10.472245"><ele>180.0</ele><time>2026-03-29T10:20:51.445Z</time></trkpt><trkpt lat="45.4741167" lon="10.47209"><ele>179.0</ele><time>2026-03-29T10:20:52.445Z</time></trkpt><trkpt lat="45.4741883" lon="10.4719517"><ele>178.0</ele><time>2026-03-29T10:20:53.445Z</time></trkpt><trkpt lat="45.474285" lon="10.4718467"><ele>177.0</ele><time>2026-03-29T10:20:54.445Z</time></trkpt><trkpt lat="45.47442" lon="10.4717467"><ele>177.0</ele><time>2026-03-29T10:20:55.445Z</time></trkpt><trkpt lat="45.4745833" lon="10.471645"><ele>177.0</ele><time>2026-03-29T10:20:56.445Z</time></trkpt><trkpt lat="45.4747433" lon="10.4715533"><ele>177.0</ele><time>2026-03-29T10:20:57.445Z</time></trkpt><trkpt lat="45.474865" lon="10.4714433"><ele>177.33333333333334</ele><time>2026-03-29T10:20:58.445Z</time></trkpt><trkpt lat="45.4749667" lon="10.471305"><ele>177.66666666666669</ele><time>2026-03-29T10:20:59.445Z</time></trkpt><trkpt lat="45.475035" lon="10.4711183"><ele>178.0</ele><time>2026-03-29T10:21:00.445Z</time></trkpt><trkpt lat="45.4750783" lon="10.4708867"><ele>175.33333333333334</ele><time>2026-03-29T10:21:01.445Z</time></trkpt><trkpt lat="45.4750983" lon="10.4706283"><ele>172.66666666666666</ele><time>2026-03-29T10:21:02.445Z</time></trkpt><trkpt lat="45.4751" lon="10.4703433"><ele>170.0</ele><time>2026-03-29T10:21:03.445Z</time></trkpt><trkpt lat="45.4751033" lon="10.470045"><ele>168.66666666666666</ele><time>2026-03-29T10:21:04.445Z</time></trkpt><trkpt lat="45.4751167" lon="10.4697267"><ele>167.33333333333334</ele><time>2026-03-29T10:21:05.444Z</time></trkpt><trkpt lat="45.475125" lon="10.469405"><ele>166.0</ele><time>2026-03-29T10:21:06.445Z</time></trkpt><trkpt lat="45.4751333" lon="10.4690833"><ele>165.0</ele><time>2026-03-29T10:21:07.445Z</time></trkpt><trkpt lat="45.4751467" lon="10.4687667"><ele>164.0</ele><time>2026-03-29T10:21:08.445Z</time></trkpt><trkpt lat="45.475155" lon="10.46844"><ele>164.0</ele><time>2026-03-29T10:21:09.445Z</time></trkpt><trkpt lat="45.4751617" lon="10.4681133"><ele>164.0</ele><time>2026-03-29T10:21:10.445Z</time></trkpt><trkpt lat="45.4751717" lon="10.4677783"><ele>163.0</ele><time>2026-03-29T10:21:11.445Z</time></trkpt><trkpt lat="45.4751817" lon="10.467445"><ele>162.0</ele><time>2026-03-29T10:21:12.445Z</time></trkpt><trkpt lat="45.4752033" lon="10.4671167"><ele>161.5</ele><time>2026-03-29T10:21:13.445Z</time></trkpt><trkpt lat="45.4752233" lon="10.4667817"><ele>161.0</ele><time>2026-03-29T10:21:14.445Z</time></trkpt><trkpt lat="45.4752467" lon="10.4664433"><ele>160.33333333333331</ele><time>2026-03-29T10:21:15.445Z</time></trkpt><trkpt lat="45.4752733" lon="10.4661367"><ele>159.66666666666666</ele><time>2026-03-29T10:21:16.445Z</time></trkpt><trkpt lat="45.4753033" lon="10.4658417"><ele>159.0</ele><time>2026-03-29T10:21:17.445Z</time></trkpt><trkpt lat="45.4753317" lon="10.4655733"><ele>158.66666666666666</ele><time>2026-03-29T10:21:18.445Z</time></trkpt><trkpt lat="45.4753517" lon="10.4653433"><ele>158.33333333333331</ele><time>2026-03-29T10:21:19.445Z</time></trkpt><trkpt lat="45.4753683" lon="10.4650933"><ele>158.0</ele><time>2026-03-29T10:21:20.444Z</time></trkpt><trkpt lat="45.4753883" lon="10.4648267"><ele>157.66666666666666</ele><time>2026-03-29T10:21:21.445Z</time></trkpt><trkpt lat="45.47539" lon="10.4645517"><ele>157.33333333333334</ele><time>2026-03-29T10:21:22.444Z</time></trkpt><trkpt lat="45.4753817" lon="10.4642783"><ele>157.0</ele><time>2026-03-29T10:21:23.445Z</time></trkpt><trkpt lat="45.47537" lon="10.4640067"><ele>156.66666666666669</ele><time>2026-03-29T10:21:24.445Z</time></trkpt><trkpt lat="45.4753533" lon="10.463735"><ele>156.33333333333334</ele><time>2026-03-29T10:21:25.444Z</time></trkpt><trkpt lat="45.4753417" lon="10.4634733"><ele>156.0</ele><time>2026-03-29T10:21:26.445Z</time></trkpt><trkpt lat="45.4753333" lon="10.4632067"><ele>156.0</ele><time>2026-03-29T10:21:27.445Z</time></trkpt><trkpt lat="45.4753467" lon="10.4629683"><ele>156.0</ele><time>2026-03-29T10:21:28.445Z</time></trkpt><trkpt lat="45.4753833" lon="10.46276"><ele>156.0</ele><time>2026-03-29T10:21:29.445Z</time></trkpt><trkpt lat="45.475445" lon="10.462585"><ele>155.33333333333334</ele><time>2026-03-29T10:21:30.445Z</time></trkpt><trkpt lat="45.4755517" lon="10.4624367"><ele>154.66666666666669</ele><time>2026-03-29T10:21:31.445Z</time></trkpt><trkpt lat="45.4756783" lon="10.4622983"><ele>154.0</ele><time>2026-03-29T10:21:32.445Z</time></trkpt><trkpt lat="45.4758033" lon="10.4621467"><ele>154.0</ele><time>2026-03-29T10:21:33.445Z</time></trkpt><trkpt lat="45.4759067" lon="10.4619683"><ele>154.0</ele><time>2026-03-29T10:21:34.445Z</time></trkpt><trkpt lat="45.4760083" lon="10.4617567"><ele>154.0</ele><time>2026-03-29T10:21:35.445Z</time></trkpt><trkpt lat="45.4760883" lon="10.461535"><ele>154.0</ele><time>2026-03-29T10:21:36.445Z</time></trkpt><trkpt lat="45.4761617" lon="10.461315"><ele>154.0</ele><time>2026-03-29T10:21:37.444Z</time></trkpt><trkpt lat="45.476235" lon="10.461095"><ele>154.0</ele><time>2026-03-29T10:21:38.444Z</time></trkpt><trkpt lat="45.4762867" lon="10.4608683"><ele>154.33333333333334</ele><time>2026-03-29T10:21:39.445Z</time></trkpt><trkpt lat="45.4763367" lon="10.4606317"><ele>154.66666666666666</ele><time>2026-03-29T10:21:40.445Z</time></trkpt><trkpt lat="45.4763983" lon="10.4603983"><ele>155.0</ele><time>2026-03-29T10:21:41.444Z</time></trkpt><trkpt lat="45.476455" lon="10.4601633"><ele>155.0</ele><time>2026-03-29T10:21:42.445Z</time></trkpt><trkpt lat="45.4765183" lon="10.4599367"><ele>155.0</ele><time>2026-03-29T10:21:43.445Z</time></trkpt><trkpt lat="45.4765733" lon="10.4597117"><ele>155.0</ele><time>2026-03-29T10:21:44.445Z</time></trkpt><trkpt lat="45.4766383" lon="10.4594933"><ele>155.0</ele><time>2026-03-29T10:21:45.445Z</time></trkpt><trkpt lat="45.476705" lon="10.4592983"><ele>155.0</ele><time>2026-03-29T10:21:46.445Z</time></trkpt><trkpt lat="45.4767567" lon="10.4591067"><ele>155.0</ele><time>2026-03-29T10:21:47.445Z</time></trkpt><trkpt lat="45.4767983" lon="10.4589283"><ele>155.0</ele><time>2026-03-29T10:21:48.445Z</time></trkpt><trkpt lat="45.4768317" lon="10.458765"><ele>155.0</ele><time>2026-03-29T10:21:49.445Z</time></trkpt><trkpt lat="45.476865" lon="10.4585917"><ele>155.0</ele><time>2026-03-29T10:21:50.445Z</time></trkpt><trkpt lat="45.47689" lon="10.4584267"><ele>155.0</ele><time>2026-03-29T10:21:51.445Z</time></trkpt><trkpt lat="45.4769217" lon="10.4582633"><ele>155.0</ele><time>2026-03-29T10:21:52.445Z</time></trkpt><trkpt lat="45.4769633" lon="10.45808"><ele>155.0</ele><time>2026-03-29T10:21:53.445Z</time></trkpt><trkpt lat="45.4769983" lon="10.45789"><ele>155.0</ele><time>2026-03-29T10:21:54.445Z</time></trkpt><trkpt lat="45.4770367" lon="10.4576967"><ele>155.0</ele><time>2026-03-29T10:21:55.445Z</time></trkpt><trkpt lat="45.47708" lon="10.4574917"><ele>155.0</ele><time>2026-03-29T10:21:56.444Z</time></trkpt><trkpt lat="45.4771133" lon="10.4572817"><ele>154.33333333333331</ele><time>2026-03-29T10:21:57.445Z</time></trkpt><trkpt lat="45.4771483" lon="10.4570567"><ele>153.66666666666666</ele><time>2026-03-29T10:21:58.445Z</time></trkpt><trkpt lat="45.4771867" lon="10.45684"><ele>153.0</ele><time>2026-03-29T10:21:59.445Z</time></trkpt><trkpt lat="45.4772267" lon="10.4566383"><ele>153.0</ele><time>2026-03-29T10:22:00.445Z</time></trkpt><trkpt lat="45.477285" lon="10.45647"><ele>153.0</ele><time>2026-03-29T10:22:01.445Z</time></trkpt><trkpt lat="45.4773033" lon="10.4563267"><ele>153.0</ele><time>2026-03-29T10:22:02.445Z</time></trkpt><trkpt lat="45.4773533" lon="10.456205"><ele>153.0</ele><time>2026-03-29T10:22:03.445Z</time></trkpt><trkpt lat="45.4774133" lon="10.4561"><ele>153.0</ele><time>2026-03-29T10:22:04.445Z</time></trkpt><trkpt lat="45.477505" lon="10.4559967"><ele>153.25</ele><time>2026-03-29T10:22:05.445Z</time></trkpt><trkpt lat="45.47761" lon="10.455885"><ele>153.5</ele><time>2026-03-29T10:22:06.445Z</time></trkpt><trkpt lat="45.477725" lon="10.4557667"><ele>153.75</ele><time>2026-03-29T10:22:07.445Z</time></trkpt><trkpt lat="45.4778433" lon="10.4556367"><ele>154.0</ele><time>2026-03-29T10:22:08.445Z</time></trkpt><trkpt lat="45.4779633" lon="10.45549"><ele>153.0</ele><time>2026-03-29T10:22:09.445Z</time></trkpt><trkpt lat="45.4780917" lon="10.4553333"><ele>152.0</ele><time>2026-03-29T10:22:10.445Z</time></trkpt><trkpt lat="45.4782217" lon="10.4551717"><ele>151.0</ele><time>2026-03-29T10:22:11.445Z</time></trkpt><trkpt lat="45.4783533" lon="10.4550067"><ele>151.0</ele><time>2026-03-29T10:22:12.445Z</time></trkpt><trkpt lat="45.47849" lon="10.4548417"><ele>151.0</ele><time>2026-03-29T10:22:13.445Z</time></trkpt><trkpt lat="45.4786233" lon="10.4546733"><ele>151.0</ele><time>2026-03-29T10:22:14.444Z</time></trkpt><trkpt lat="45.47876" lon="10.4545067"><ele>151.0</ele><time>2026-03-29T10:22:15.445Z</time></trkpt><trkpt lat="45.4788917" lon="10.4543333"><ele>151.0</ele><time>2026-03-29T10:22:16.445Z</time></trkpt><trkpt lat="45.479025" lon="10.4541633"><ele>151.0</ele><time>2026-03-29T10:22:17.445Z</time></trkpt><trkpt lat="45.4791567" lon="10.4540067"><ele>151.0</ele><time>2026-03-29T10:22:18.445Z</time></trkpt><trkpt lat="45.479295" lon="10.4538583"><ele>151.0</ele><time>2026-03-29T10:22:19.445Z</time></trkpt><trkpt lat="45.4794383" lon="10.45372"><ele>151.0</ele><time>2026-03-29T10:22:20.445Z</time></trkpt><trkpt lat="45.4795817" lon="10.453585"><ele>151.25</ele><time>2026-03-29T10:22:21.445Z</time></trkpt><trkpt lat="45.4797133" lon="10.453465"><ele>151.5</ele><time>2026-03-29T10:22:22.445Z</time></trkpt><trkpt lat="45.4798267" lon="10.4533783"><ele>151.75</ele><time>2026-03-29T10:22:23.445Z</time></trkpt><trkpt lat="45.4799233" lon="10.4533217"><ele>152.0</ele><time>2026-03-29T10:22:24.445Z</time></trkpt><trkpt lat="45.480025" lon="10.453295"><ele>152.0</ele><time>2026-03-29T10:22:25.444Z</time></trkpt><trkpt lat="45.48013" lon="10.453295"><ele>152.0</ele><time>2026-03-29T10:22:26.445Z</time></trkpt><trkpt lat="45.4802433" lon="10.45331"><ele>152.0</ele><time>2026-03-29T10:22:27.445Z</time></trkpt><trkpt lat="45.4803683" lon="10.453325"><ele>152.0</ele><time>2026-03-29T10:22:28.445Z</time></trkpt><trkpt lat="45.4804967" lon="10.4533467"><ele>151.75</ele><time>2026-03-29T10:22:29.445Z</time></trkpt><trkpt lat="45.4806317" lon="10.4533667"><ele>151.5</ele><time>2026-03-29T10:22:30.445Z</time></trkpt><trkpt lat="45.4807733" lon="10.453395"><ele>151.25</ele><time>2026-03-29T10:22:31.445Z</time></trkpt><trkpt lat="45.480915" lon="10.453415"><ele>151.0</ele><time>2026-03-29T10:22:32.445Z</time></trkpt><trkpt lat="45.4810533" lon="10.4534367"><ele>151.0</ele><time>2026-03-29T10:22:33.445Z</time></trkpt><trkpt lat="45.481195" lon="10.4534533"><ele>151.0</ele><time>2026-03-29T10:22:34.445Z</time></trkpt><trkpt lat="45.481345" lon="10.45348"><ele>151.0</ele><time>2026-03-29T10:22:35.445Z</time></trkpt><trkpt lat="45.4814917" lon="10.4535067"><ele>151.0</ele><time>2026-03-29T10:22:36.445Z</time></trkpt><trkpt lat="45.4816483" lon="10.4535317"><ele>151.33333333333334</ele><time>2026-03-29T10:22:37.445Z</time></trkpt><trkpt lat="45.4818067" lon="10.453565"><ele>151.66666666666666</ele><time>2026-03-29T10:22:38.445Z</time></trkpt><trkpt lat="45.481965" lon="10.45359"><ele>152.0</ele><time>2026-03-29T10:22:39.445Z</time></trkpt><trkpt lat="45.4821233" lon="10.4536183"><ele>152.0</ele><time>2026-03-29T10:22:40.445Z</time></trkpt><trkpt lat="45.48228" lon="10.4536367"><ele>152.0</ele><time>2026-03-29T10:22:41.445Z</time></trkpt><trkpt lat="45.4824433" lon="10.4536583"><ele>152.0</ele><time>2026-03-29T10:22:42.445Z</time></trkpt><trkpt lat="45.4826033" lon="10.4536783"><ele>152.0</ele><time>2026-03-29T10:22:43.445Z</time></trkpt><trkpt lat="45.4827667" lon="10.4537033"><ele>152.0</ele><time>2026-03-29T10:22:44.445Z</time></trkpt><trkpt lat="45.4829283" lon="10.4537267"><ele>152.0</ele><time>2026-03-29T10:22:45.445Z</time></trkpt><trkpt lat="45.4830917" lon="10.4537517"><ele>152.33333333333331</ele><time>2026-03-29T10:22:46.445Z</time></trkpt><trkpt lat="45.4832517" lon="10.453775"><ele>152.66666666666666</ele><time>2026-03-29T10:22:47.445Z</time></trkpt><trkpt lat="45.483405" lon="10.4537983"><ele>153.0</ele><time>2026-03-29T10:22:48.445Z</time></trkpt><trkpt lat="45.4835633" lon="10.453825"><ele>153.33333333333334</ele><time>2026-03-29T10:22:49.445Z</time></trkpt><trkpt lat="45.483715" lon="10.45385"><ele>153.66666666666669</ele><time>2026-03-29T10:22:50.445Z</time></trkpt><trkpt lat="45.4838733" lon="10.4538717"><ele>154.0</ele><time>2026-03-29T10:22:51.445Z</time></trkpt><trkpt lat="45.48402" lon="10.4538983"><ele>154.2</ele><time>2026-03-29T10:22:52.445Z</time></trkpt><trkpt lat="45.4841483" lon="10.4539267"><ele>154.4</ele><time>2026-03-29T10:22:53.445Z</time></trkpt><trkpt lat="45.484255" lon="10.4539417"><ele>154.6</ele><time>2026-03-29T10:22:54.445Z</time></trkpt><trkpt lat="45.484345" lon="10.4539467"><ele>154.8</ele><time>2026-03-29T10:22:55.445Z</time></trkpt><trkpt lat="45.4844183" lon="10.4539567"><ele>155.0</ele><time>2026-03-29T10:22:56.445Z</time></trkpt><trkpt lat="45.4845333" lon="10.45397"><ele>155.0</ele><time>2026-03-29T10:22:58.445Z</time></trkpt><trkpt lat="45.484595" lon="10.4540533"><ele>155.0</ele><time>2026-03-29T10:23:00.445Z</time></trkpt><trkpt lat="45.484595" lon="10.4542633"><ele>155.0</ele><time>2026-03-29T10:23:02.445Z</time></trkpt><trkpt lat="45.4845917" lon="10.4544067"><ele>155.0</ele><time>2026-03-29T10:23:03.445Z</time></trkpt><trkpt lat="45.4845817" lon="10.454565"><ele>155.0</ele><time>2026-03-29T10:23:04.445Z</time></trkpt><trkpt lat="45.4845733" lon="10.4547333"><ele>155.25</ele><time>2026-03-29T10:23:05.445Z</time></trkpt><trkpt lat="45.4845633" lon="10.4549133"><ele>155.5</ele><time>2026-03-29T10:23:06.444Z</time></trkpt><trkpt lat="45.4845583" lon="10.45511"><ele>155.75</ele><time>2026-03-29T10:23:07.445Z</time></trkpt><trkpt lat="45.484555" lon="10.4553117"><ele>156.0</ele><time>2026-03-29T10:23:08.445Z</time></trkpt><trkpt lat="45.484555" lon="10.4555167"><ele>156.25</ele><time>2026-03-29T10:23:09.445Z</time></trkpt><trkpt lat="45.4845517" lon="10.4557267"><ele>156.5</ele><time>2026-03-29T10:23:10.445Z</time></trkpt><trkpt lat="45.4845533" lon="10.45592"><ele>156.75</ele><time>2026-03-29T10:23:11.445Z</time></trkpt><trkpt lat="45.4845583" lon="10.4561083"><ele>157.0</ele><time>2026-03-29T10:23:12.444Z</time></trkpt><trkpt lat="45.4845683" lon="10.4563017"><ele>157.25</ele><time>2026-03-29T10:23:13.445Z</time></trkpt><trkpt lat="45.48457" lon="10.4564917"><ele>157.5</ele><time>2026-03-29T10:23:14.445Z</time></trkpt><trkpt lat="45.4845683" lon="10.4566967"><ele>157.75</ele><time>2026-03-29T10:23:15.445Z</time></trkpt><trkpt lat="45.4845683" lon="10.4569033"><ele>158.0</ele><time>2026-03-29T10:23:16.444Z</time></trkpt><trkpt lat="45.484565" lon="10.457115"><ele>157.75</ele><time>2026-03-29T10:23:17.445Z</time></trkpt><trkpt lat="45.4845567" lon="10.4573317"><ele>157.5</ele><time>2026-03-29T10:23:18.445Z</time></trkpt><trkpt lat="45.4845517" lon="10.45753"><ele>157.25</ele><time>2026-03-29T10:23:19.445Z</time></trkpt><trkpt lat="45.48455" lon="10.457705"><ele>157.0</ele><time>2026-03-29T10:23:20.445Z</time></trkpt><trkpt lat="45.4845483" lon="10.4578617"><ele>157.16666666666669</ele><time>2026-03-29T10:23:21.445Z</time></trkpt><trkpt lat="45.4845483" lon="10.457995"><ele>157.33333333333334</ele><time>2026-03-29T10:23:22.445Z</time></trkpt><trkpt lat="45.4845317" lon="10.458105"><ele>157.5</ele><time>2026-03-29T10:23:23.445Z</time></trkpt><trkpt lat="45.484495" lon="10.4582083"><ele>157.66666666666666</ele><time>2026-03-29T10:23:24.445Z</time></trkpt><trkpt lat="45.4844483" lon="10.4583133"><ele>157.83333333333331</ele><time>2026-03-29T10:23:25.445Z</time></trkpt><trkpt lat="45.4843917" lon="10.4584167"><ele>158.0</ele><time>2026-03-29T10:23:26.445Z</time></trkpt><trkpt lat="45.4843283" lon="10.45852"><ele>158.0</ele><time>2026-03-29T10:23:27.445Z</time></trkpt><trkpt lat="45.4842567" lon="10.4586283"><ele>158.0</ele><time>2026-03-29T10:23:28.445Z</time></trkpt><trkpt lat="45.4841783" lon="10.4587367"><ele>158.0</ele><time>2026-03-29T10:23:29.445Z</time></trkpt><trkpt lat="45.4841017" lon="10.45885"><ele>158.0</ele><time>2026-03-29T10:23:30.445Z</time></trkpt><trkpt lat="45.4840117" lon="10.4589867"><ele>158.60000000000002</ele><time>2026-03-29T10:23:31.445Z</time></trkpt><trkpt lat="45.4839333" lon="10.4591017"><ele>159.20000000000002</ele><time>2026-03-29T10:23:32.445Z</time></trkpt><trkpt lat="45.48387" lon="10.4592017"><ele>159.8</ele><time>2026-03-29T10:23:33.445Z</time></trkpt><trkpt lat="45.483815" lon="10.4592833"><ele>160.4</ele><time>2026-03-29T10:23:34.445Z</time></trkpt><trkpt lat="45.4837767" lon="10.4593667"><ele>161.0</ele><time>2026-03-29T10:23:35.444Z</time></trkpt><trkpt lat="45.48378" lon="10.4595417"><ele>161.20000000000002</ele><time>2026-03-29T10:23:37.445Z</time></trkpt><trkpt lat="45.4838117" lon="10.4596483"><ele>161.4</ele><time>2026-03-29T10:23:38.445Z</time></trkpt><trkpt lat="45.4838467" lon="10.4597917"><ele>161.6</ele><time>2026-03-29T10:23:39.445Z</time></trkpt><trkpt lat="45.4838783" lon="10.459955"><ele>161.8</ele><time>2026-03-29T10:23:40.445Z</time></trkpt><trkpt lat="45.4839033" lon="10.4601333"><ele>162.0</ele><time>2026-03-29T10:23:41.445Z</time></trkpt><trkpt lat="45.4839283" lon="10.4603267"><ele>162.25</ele><time>2026-03-29T10:23:42.445Z</time></trkpt><trkpt lat="45.4839417" lon="10.4605117"><ele>162.5</ele><time>2026-03-29T10:23:43.445Z</time></trkpt><trkpt lat="45.4839517" lon="10.4607"><ele>162.75</ele><time>2026-03-29T10:23:44.445Z</time></trkpt><trkpt lat="45.4839567" lon="10.4608983"><ele>163.0</ele><time>2026-03-29T10:23:45.445Z</time></trkpt><trkpt lat="45.4839583" lon="10.4610833"><ele>163.0</ele><time>2026-03-29T10:23:46.445Z</time></trkpt><trkpt lat="45.483955" lon="10.4612567"><ele>163.0</ele><time>2026-03-29T10:23:47.445Z</time></trkpt><trkpt lat="45.483945" lon="10.4614267"><ele>163.0</ele><time>2026-03-29T10:23:48.445Z</time></trkpt><trkpt lat="45.4839383" lon="10.4615717"><ele>163.0</ele><time>2026-03-29T10:23:49.445Z</time></trkpt><trkpt lat="45.4839283" lon="10.461705"><ele>163.0</ele><time>2026-03-29T10:23:50.445Z</time></trkpt><trkpt lat="45.4839367" lon="10.4618133"><ele>163.0</ele><time>2026-03-29T10:23:51.445Z</time></trkpt><trkpt lat="45.4840133" lon="10.46196"><ele>163.0</ele><time>2026-03-29T10:23:53.445Z</time></trkpt><trkpt lat="45.4840733" lon="10.462065"><ele>163.0</ele><time>2026-03-29T10:23:54.445Z</time></trkpt><trkpt lat="45.4841367" lon="10.462205"><ele>163.0</ele><time>2026-03-29T10:23:55.445Z</time></trkpt><trkpt lat="45.4842" lon="10.462335"><ele>163.0</ele><time>2026-03-29T10:23:56.445Z</time></trkpt><trkpt lat="45.4842583" lon="10.462465"><ele>163.0</ele><time>2026-03-29T10:23:57.445Z</time></trkpt><trkpt lat="45.4843033" lon="10.4626217"><ele>163.0</ele><time>2026-03-29T10:23:58.445Z</time></trkpt><trkpt lat="45.4843467" lon="10.462785"><ele>163.0</ele><time>2026-03-29T10:23:59.444Z</time></trkpt><trkpt lat="45.4844033" lon="10.46292"><ele>163.16666666666669</ele><time>2026-03-29T10:24:00.445Z</time></trkpt><trkpt lat="45.4844583" lon="10.4630167"><ele>163.33333333333334</ele><time>2026-03-29T10:24:01.444Z</time></trkpt><trkpt lat="45.4845183" lon="10.4630917"><ele>163.5</ele><time>2026-03-29T10:24:02.445Z</time></trkpt><trkpt lat="45.4845667" lon="10.4631817"><ele>163.66666666666666</ele><time>2026-03-29T10:24:03.445Z</time></trkpt><trkpt lat="45.484605" lon="10.4632917"><ele>163.83333333333331</ele><time>2026-03-29T10:24:04.445Z</time></trkpt><trkpt lat="45.48462" lon="10.4634283"><ele>164.0</ele><time>2026-03-29T10:24:05.445Z</time></trkpt><trkpt lat="45.4846267" lon="10.463615"><ele>164.33333333333331</ele><time>2026-03-29T10:24:06.445Z</time></trkpt><trkpt lat="45.4846267" lon="10.4638267"><ele>164.66666666666666</ele><time>2026-03-29T10:24:07.445Z</time></trkpt><trkpt lat="45.4846317" lon="10.4640517"><ele>165.0</ele><time>2026-03-29T10:24:08.445Z</time></trkpt><trkpt lat="45.4846533" lon="10.46429"><ele>165.0</ele><time>2026-03-29T10:24:09.445Z</time></trkpt><trkpt lat="45.4846783" lon="10.464535"><ele>165.0</ele><time>2026-03-29T10:24:10.445Z</time></trkpt><trkpt lat="45.4847083" lon="10.4647783"><ele>165.0</ele><time>2026-03-29T10:24:11.444Z</time></trkpt><trkpt lat="45.4847283" lon="10.4650133"><ele>165.33333333333334</ele><time>2026-03-29T10:24:12.444Z</time></trkpt><trkpt lat="45.4847583" lon="10.4652417"><ele>165.66666666666669</ele><time>2026-03-29T10:24:13.445Z</time></trkpt><trkpt lat="45.4847867" lon="10.46549"><ele>166.0</ele><time>2026-03-29T10:24:14.445Z</time></trkpt><trkpt lat="45.484815" lon="10.46576"><ele>166.33333333333334</ele><time>2026-03-29T10:24:15.445Z</time></trkpt><trkpt lat="45.4848433" lon="10.4660367"><ele>166.66666666666666</ele><time>2026-03-29T10:24:16.445Z</time></trkpt><trkpt lat="45.48487" lon="10.4663033"><ele>167.0</ele><time>2026-03-29T10:24:17.445Z</time></trkpt><trkpt lat="45.4848917" lon="10.4665483"><ele>167.66666666666666</ele><time>2026-03-29T10:24:18.445Z</time></trkpt><trkpt lat="45.48492" lon="10.4667733"><ele>168.33333333333334</ele><time>2026-03-29T10:24:19.445Z</time></trkpt><trkpt lat="45.484955" lon="10.4669817"><ele>169.0</ele><time>2026-03-29T10:24:20.445Z</time></trkpt><trkpt lat="45.4849883" lon="10.4671967"><ele>169.0</ele><time>2026-03-29T10:24:21.444Z</time></trkpt><trkpt lat="45.485015" lon="10.467435"><ele>169.0</ele><time>2026-03-29T10:24:22.445Z</time></trkpt><trkpt lat="45.4850417" lon="10.4676917"><ele>169.0</ele><time>2026-03-29T10:24:23.445Z</time></trkpt><trkpt lat="45.48506" lon="10.4679733"><ele>169.33333333333334</ele><time>2026-03-29T10:24:24.445Z</time></trkpt><trkpt lat="45.4850833" lon="10.468255"><ele>169.66666666666666</ele><time>2026-03-29T10:24:25.445Z</time></trkpt><trkpt lat="45.4851017" lon="10.4685117"><ele>170.0</ele><time>2026-03-29T10:24:26.445Z</time></trkpt><trkpt lat="45.4851133" lon="10.46875"><ele>170.25</ele><time>2026-03-29T10:24:27.445Z</time></trkpt><trkpt lat="45.485125" lon="10.4689617"><ele>170.5</ele><time>2026-03-29T10:24:28.444Z</time></trkpt><trkpt lat="45.4851283" lon="10.46915"><ele>170.75</ele><time>2026-03-29T10:24:29.445Z</time></trkpt><trkpt lat="45.4851317" lon="10.46931"><ele>171.0</ele><time>2026-03-29T10:24:30.445Z</time></trkpt><trkpt lat="45.48513" lon="10.4694467"><ele>171.0</ele><time>2026-03-29T10:24:31.445Z</time></trkpt><trkpt lat="45.4851167" lon="10.46954"><ele>171.0</ele><time>2026-03-29T10:24:32.445Z</time></trkpt><trkpt lat="45.4851098" lon="10.4696445"><ele>171.0</ele><time>2026-03-29T10:24:34.445Z</time></trkpt><trkpt lat="45.485118" lon="10.4697536"><ele>171.0</ele><time>2026-03-29T10:24:36.445Z</time></trkpt><trkpt lat="45.485139" lon="10.4698464"><ele>171.0</ele><time>2026-03-29T10:24:37.445Z</time></trkpt><trkpt lat="45.4851597" lon="10.4699715"><ele>171.0</ele><time>2026-03-29T10:24:38.444Z</time></trkpt><trkpt lat="45.4851839" lon="10.4701155"><ele>171.25</ele><time>2026-03-29T10:24:39.445Z</time></trkpt><trkpt lat="45.4852077" lon="10.4702777"><ele>171.5</ele><time>2026-03-29T10:24:40.444Z</time></trkpt><trkpt lat="45.4852356" lon="10.4704499"><ele>171.75</ele><time>2026-03-29T10:24:41.445Z</time></trkpt><trkpt lat="45.485261" lon="10.4706277"><ele>172.0</ele><time>2026-03-29T10:24:42.445Z</time></trkpt><trkpt lat="45.4852864" lon="10.4708114"><ele>172.6</ele><time>2026-03-29T10:24:43.445Z</time></trkpt><trkpt lat="45.4853145" lon="10.470972"><ele>173.2</ele><time>2026-03-29T10:24:44.445Z</time></trkpt><trkpt lat="45.4853408" lon="10.4711147"><ele>173.8</ele><time>2026-03-29T10:24:45.445Z</time></trkpt><trkpt lat="45.4853669" lon="10.4712529"><ele>174.4</ele><time>2026-03-29T10:24:46.445Z</time></trkpt><trkpt lat="45.4853938" lon="10.471406"><ele>175.0</ele><time>2026-03-29T10:24:47.445Z</time></trkpt><trkpt lat="45.4854252" lon="10.4715517"><ele>176.25</ele><time>2026-03-29T10:24:48.444Z</time></trkpt><trkpt lat="45.4854635" lon="10.471705"><ele>177.5</ele><time>2026-03-29T10:24:49.445Z</time></trkpt><trkpt lat="45.4855056" lon="10.471861"><ele>178.75</ele><time>2026-03-29T10:24:50.445Z</time></trkpt><trkpt lat="45.4855388" lon="10.4720111"><ele>180.0</ele><time>2026-03-29T10:24:51.445Z</time></trkpt><trkpt lat="45.4855711" lon="10.47216"><ele>180.5</ele><time>2026-03-29T10:24:52.445Z</time></trkpt><trkpt lat="45.4856056" lon="10.4722867"><ele>181.0</ele><time>2026-03-29T10:24:53.445Z</time></trkpt><trkpt lat="45.4856319" lon="10.4723908"><ele>181.5</ele><time>2026-03-29T10:24:54.445Z</time></trkpt><trkpt lat="45.4857052" lon="10.472494"><ele>182.0</ele><time>2026-03-29T10:24:56.445Z</time></trkpt><trkpt lat="45.4857984" lon="10.4724547"><ele>182.5</ele><time>2026-03-29T10:24:58.444Z</time></trkpt><trkpt lat="45.4858727" lon="10.472469"><ele>183.0</ele><time>2026-03-29T10:25:00.445Z</time></trkpt><trkpt lat="45.4859349" lon="10.4725363"><ele>183.0</ele><time>2026-03-29T10:25:01.445Z</time></trkpt><trkpt lat="45.485992" lon="10.472605"><ele>183.0</ele><time>2026-03-29T10:25:02.445Z</time></trkpt><trkpt lat="45.4860803" lon="10.472685"><ele>183.0</ele><time>2026-03-29T10:25:04.445Z</time></trkpt><trkpt lat="45.4861453" lon="10.4728001"><ele>183.0</ele><time>2026-03-29T10:25:06.445Z</time></trkpt><trkpt lat="45.4861963" lon="10.4728922"><ele>183.0</ele><time>2026-03-29T10:25:08.445Z</time></trkpt><trkpt lat="45.4862507" lon="10.4729468"><ele>183.0</ele><time>2026-03-29T10:25:21.445Z</time></trkpt><trkpt lat="45.4863498" lon="10.472961"><ele>182.25</ele><time>2026-03-29T10:25:23.445Z</time></trkpt><trkpt lat="45.486431" lon="10.4729047"><ele>181.5</ele><time>2026-03-29T10:25:24.445Z</time></trkpt><trkpt lat="45.4865295" lon="10.472808"><ele>180.75</ele><time>2026-03-29T10:25:25.445Z</time></trkpt><trkpt lat="45.4866259" lon="10.4726738"><ele>180.0</ele><time>2026-03-29T10:25:26.444Z</time></trkpt><trkpt lat="45.4867339" lon="10.4725144"><ele>180.0</ele><time>2026-03-29T10:25:27.445Z</time></trkpt><trkpt lat="45.4868596" lon="10.4723278"><ele>180.0</ele><time>2026-03-29T10:25:28.445Z</time></trkpt><trkpt lat="45.4870007" lon="10.4721267"><ele>180.0</ele><time>2026-03-29T10:25:29.445Z</time></trkpt><trkpt lat="45.4871533" lon="10.4719147"><ele>179.0</ele><time>2026-03-29T10:25:30.445Z</time></trkpt><trkpt lat="45.4873066" lon="10.4716904"><ele>178.0</ele><time>2026-03-29T10:25:31.445Z</time></trkpt><trkpt lat="45.4874479" lon="10.4714527"><ele>177.0</ele><time>2026-03-29T10:25:32.445Z</time></trkpt><trkpt lat="45.487564" lon="10.4712218"><ele>176.66666666666666</ele><time>2026-03-29T10:25:33.444Z</time></trkpt><trkpt lat="45.4876604" lon="10.4710232"><ele>176.33333333333331</ele><time>2026-03-29T10:25:34.445Z</time></trkpt><trkpt lat="45.4877435" lon="10.4708513"><ele>176.0</ele><time>2026-03-29T10:25:35.445Z</time></trkpt><trkpt lat="45.4878262" lon="10.4706884"><ele>176.0</ele><time>2026-03-29T10:25:36.445Z</time></trkpt><trkpt lat="45.4879076" lon="10.4705308"><ele>176.0</ele><time>2026-03-29T10:25:37.445Z</time></trkpt><trkpt lat="45.4879804" lon="10.470385"><ele>176.0</ele><time>2026-03-29T10:25:38.445Z</time></trkpt><trkpt lat="45.4880435" lon="10.4702595"><ele>176.0</ele><time>2026-03-29T10:25:39.445Z</time></trkpt><trkpt lat="45.488088" lon="10.4701422"><ele>176.0</ele><time>2026-03-29T10:25:40.445Z</time></trkpt><trkpt lat="45.4881087" lon="10.4700379"><ele>176.0</ele><time>2026-03-29T10:25:41.445Z</time></trkpt><trkpt lat="45.488096" lon="10.4699256"><ele>176.0</ele><time>2026-03-29T10:25:42.445Z</time></trkpt><trkpt lat="45.488066" lon="10.4697908"><ele>176.0</ele><time>2026-03-29T10:25:43.445Z</time></trkpt><trkpt lat="45.4880392" lon="10.4695966"><ele>176.0</ele><time>2026-03-29T10:25:44.445Z</time></trkpt><trkpt lat="45.4880257" lon="10.4693583"><ele>175.33333333333331</ele><time>2026-03-29T10:25:45.445Z</time></trkpt><trkpt lat="45.4880159" lon="10.4690832"><ele>174.66666666666666</ele><time>2026-03-29T10:25:46.445Z</time></trkpt><trkpt lat="45.4880036" lon="10.4687927"><ele>174.0</ele><time>2026-03-29T10:25:47.445Z</time></trkpt><trkpt lat="45.4879893" lon="10.4684861"><ele>173.33333333333334</ele><time>2026-03-29T10:25:48.444Z</time></trkpt><trkpt lat="45.4879749" lon="10.468183"><ele>172.66666666666669</ele><time>2026-03-29T10:25:49.445Z</time></trkpt><trkpt lat="45.487958" lon="10.4678771"><ele>172.0</ele><time>2026-03-29T10:25:50.445Z</time></trkpt><trkpt lat="45.4879422" lon="10.4675613"><ele>172.0</ele><time>2026-03-29T10:25:51.445Z</time></trkpt><trkpt lat="45.4879268" lon="10.4672429"><ele>172.0</ele><time>2026-03-29T10:25:52.445Z</time></trkpt><trkpt lat="45.4879129" lon="10.4669141"><ele>172.0</ele><time>2026-03-29T10:25:53.445Z</time></trkpt><trkpt lat="45.4879017" lon="10.466579"><ele>172.0</ele><time>2026-03-29T10:25:54.445Z</time></trkpt><trkpt lat="45.4878994" lon="10.4662379"><ele>171.0</ele><time>2026-03-29T10:25:55.444Z</time></trkpt><trkpt lat="45.487897" lon="10.4659082"><ele>170.0</ele><time>2026-03-29T10:25:56.445Z</time></trkpt><trkpt lat="45.4879015" lon="10.4655927"><ele>169.66666666666666</ele><time>2026-03-29T10:25:57.445Z</time></trkpt><trkpt lat="45.4879044" lon="10.4652919"><ele>169.33333333333334</ele><time>2026-03-29T10:25:58.444Z</time></trkpt><trkpt lat="45.4879103" lon="10.4649905"><ele>169.0</ele><time>2026-03-29T10:25:59.445Z</time></trkpt><trkpt lat="45.4879155" lon="10.4646824"><ele>168.33333333333334</ele><time>2026-03-29T10:26:00.445Z</time></trkpt><trkpt lat="45.487915" lon="10.4643756"><ele>167.66666666666666</ele><time>2026-03-29T10:26:01.444Z</time></trkpt><trkpt lat="45.4879022" lon="10.4640651"><ele>167.0</ele><time>2026-03-29T10:26:02.445Z</time></trkpt><trkpt lat="45.4878783" lon="10.463755"><ele>166.66666666666666</ele><time>2026-03-29T10:26:03.444Z</time></trkpt><trkpt lat="45.4878467" lon="10.4634483"><ele>166.33333333333334</ele><time>2026-03-29T10:26:04.445Z</time></trkpt><trkpt lat="45.4878233" lon="10.4631367"><ele>166.0</ele><time>2026-03-29T10:26:05.445Z</time></trkpt><trkpt lat="45.487795" lon="10.4628283"><ele>165.66666666666669</ele><time>2026-03-29T10:26:06.445Z</time></trkpt><trkpt lat="45.48776" lon="10.462525"><ele>165.33333333333334</ele><time>2026-03-29T10:26:07.445Z</time></trkpt><trkpt lat="45.4877267" lon="10.4622283"><ele>165.0</ele><time>2026-03-29T10:26:08.445Z</time></trkpt><trkpt lat="45.4876917" lon="10.461945"><ele>164.33333333333334</ele><time>2026-03-29T10:26:09.444Z</time></trkpt><trkpt lat="45.4876683" lon="10.46167"><ele>163.66666666666669</ele><time>2026-03-29T10:26:10.445Z</time></trkpt><trkpt lat="45.4876483" lon="10.461395"><ele>163.0</ele><time>2026-03-29T10:26:11.445Z</time></trkpt><trkpt lat="45.487655" lon="10.461115"><ele>162.66666666666669</ele><time>2026-03-29T10:26:12.445Z</time></trkpt><trkpt lat="45.4876867" lon="10.4608267"><ele>162.33333333333334</ele><time>2026-03-29T10:26:13.444Z</time></trkpt><trkpt lat="45.4877233" lon="10.46054"><ele>162.0</ele><time>2026-03-29T10:26:14.444Z</time></trkpt><trkpt lat="45.4877483" lon="10.4602483"><ele>161.66666666666666</ele><time>2026-03-29T10:26:15.445Z</time></trkpt><trkpt lat="45.48776" lon="10.45994"><ele>161.33333333333331</ele><time>2026-03-29T10:26:16.445Z</time></trkpt><trkpt lat="45.4877533" lon="10.459615"><ele>161.0</ele><time>2026-03-29T10:26:17.445Z</time></trkpt><trkpt lat="45.4877433" lon="10.4592833"><ele>161.0</ele><time>2026-03-29T10:26:18.445Z</time></trkpt><trkpt lat="45.4877333" lon="10.4589467"><ele>161.0</ele><time>2026-03-29T10:26:19.445Z</time></trkpt><trkpt lat="45.4877367" lon="10.4586067"><ele>160.0</ele><time>2026-03-29T10:26:20.445Z</time></trkpt><trkpt lat="45.4877567" lon="10.4582683"><ele>159.0</ele><time>2026-03-29T10:26:21.445Z</time></trkpt><trkpt lat="45.487795" lon="10.457935"><ele>159.0</ele><time>2026-03-29T10:26:22.445Z</time></trkpt><trkpt lat="45.4878267" lon="10.4575983"><ele>159.0</ele><time>2026-03-29T10:26:23.445Z</time></trkpt><trkpt lat="45.4878517" lon="10.45725"><ele>159.0</ele><time>2026-03-29T10:26:24.445Z</time></trkpt><trkpt lat="45.4878667" lon="10.4568817"><ele>159.0</ele><time>2026-03-29T10:26:25.445Z</time></trkpt><trkpt lat="45.48788" lon="10.4564967"><ele>159.0</ele><time>2026-03-29T10:26:26.445Z</time></trkpt><trkpt lat="45.4878917" lon="10.4561017"><ele>159.0</ele><time>2026-03-29T10:26:27.445Z</time></trkpt><trkpt lat="45.4878967" lon="10.4557183"><ele>158.66666666666666</ele><time>2026-03-29T10:26:28.445Z</time></trkpt><trkpt lat="45.4879067" lon="10.4553867"><ele>158.33333333333331</ele><time>2026-03-29T10:26:29.445Z</time></trkpt><trkpt lat="45.48792" lon="10.455095"><ele>158.0</ele><time>2026-03-29T10:26:30.445Z</time></trkpt><trkpt lat="45.487935" lon="10.454835"><ele>158.66666666666666</ele><time>2026-03-29T10:26:31.445Z</time></trkpt><trkpt lat="45.48795" lon="10.454605"><ele>159.33333333333334</ele><time>2026-03-29T10:26:32.445Z</time></trkpt><trkpt lat="45.4879733" lon="10.45438"><ele>160.0</ele><time>2026-03-29T10:26:33.445Z</time></trkpt><trkpt lat="45.4880017" lon="10.45413"><ele>160.0</ele><time>2026-03-29T10:26:34.445Z</time></trkpt><trkpt lat="45.4880233" lon="10.453855"><ele>160.0</ele><time>2026-03-29T10:26:35.445Z</time></trkpt><trkpt lat="45.4880433" lon="10.453555"><ele>160.0</ele><time>2026-03-29T10:26:36.445Z</time></trkpt><trkpt lat="45.48807" lon="10.453235"><ele>159.0</ele><time>2026-03-29T10:26:37.445Z</time></trkpt><trkpt lat="45.4880983" lon="10.452905"><ele>158.0</ele><time>2026-03-29T10:26:38.445Z</time></trkpt><trkpt lat="45.4881333" lon="10.4525867"><ele>158.0</ele><time>2026-03-29T10:26:39.445Z</time></trkpt><trkpt lat="45.4881767" lon="10.4523017"><ele>158.0</ele><time>2026-03-29T10:26:40.445Z</time></trkpt><trkpt lat="45.48822" lon="10.4520483"><ele>158.0</ele><time>2026-03-29T10:26:41.445Z</time></trkpt><trkpt lat="45.4882517" lon="10.4517917"><ele>157.66666666666666</ele><time>2026-03-29T10:26:42.445Z</time></trkpt><trkpt lat="45.48828" lon="10.45153"><ele>157.33333333333334</ele><time>2026-03-29T10:26:43.445Z</time></trkpt><trkpt lat="45.4882967" lon="10.4512517"><ele>157.0</ele><time>2026-03-29T10:26:44.445Z</time></trkpt><trkpt lat="45.488305" lon="10.4509517"><ele>156.5</ele><time>2026-03-29T10:26:45.445Z</time></trkpt><trkpt lat="45.4883117" lon="10.4506217"><ele>156.0</ele><time>2026-03-29T10:26:46.444Z</time></trkpt><trkpt lat="45.4883183" lon="10.4502783"><ele>156.0</ele><time>2026-03-29T10:26:47.445Z</time></trkpt><trkpt lat="45.48833" lon="10.4499667"><ele>156.0</ele><time>2026-03-29T10:26:48.444Z</time></trkpt><trkpt lat="45.48834" lon="10.4497067"><ele>156.0</ele><time>2026-03-29T10:26:49.445Z</time></trkpt><trkpt lat="45.4883483" lon="10.4494633"><ele>155.66666666666666</ele><time>2026-03-29T10:26:50.445Z</time></trkpt><trkpt lat="45.488345" lon="10.449225"><ele>155.33333333333331</ele><time>2026-03-29T10:26:51.445Z</time></trkpt><trkpt lat="45.48835" lon="10.44899"><ele>155.0</ele><time>2026-03-29T10:26:52.445Z</time></trkpt><trkpt lat="45.488335" lon="10.4487567"><ele>155.0</ele><time>2026-03-29T10:26:53.445Z</time></trkpt><trkpt lat="45.48831" lon="10.448515"><ele>155.0</ele><time>2026-03-29T10:26:54.445Z</time></trkpt><trkpt lat="45.4882883" lon="10.44825"><ele>155.0</ele><time>2026-03-29T10:26:55.445Z</time></trkpt><trkpt lat="45.4882833" lon="10.4479517"><ele>155.0</ele><time>2026-03-29T10:26:56.445Z</time></trkpt><trkpt lat="45.488295" lon="10.4476383"><ele>155.0</ele><time>2026-03-29T10:26:57.445Z</time></trkpt><trkpt lat="45.4883067" lon="10.447325"><ele>155.0</ele><time>2026-03-29T10:26:58.445Z</time></trkpt><trkpt lat="45.488325" lon="10.4470183"><ele>155.0</ele><time>2026-03-29T10:26:59.445Z</time></trkpt><trkpt lat="45.4883467" lon="10.4467367"><ele>155.0</ele><time>2026-03-29T10:27:00.445Z</time></trkpt><trkpt lat="45.4883683" lon="10.4464683"><ele>155.0</ele><time>2026-03-29T10:27:01.445Z</time></trkpt><trkpt lat="45.488395" lon="10.4462267"><ele>155.0</ele><time>2026-03-29T10:27:02.445Z</time></trkpt><trkpt lat="45.48842" lon="10.44601"><ele>155.0</ele><time>2026-03-29T10:27:03.445Z</time></trkpt><trkpt lat="45.48844" lon="10.445835"><ele>155.0</ele><time>2026-03-29T10:27:04.445Z</time></trkpt><trkpt lat="45.488465" lon="10.4457133"><ele>155.0</ele><time>2026-03-29T10:27:05.445Z</time></trkpt><trkpt lat="45.4885" lon="10.445585"><ele>155.0</ele><time>2026-03-29T10:27:07.445Z</time></trkpt><trkpt lat="45.4885483" lon="10.4455083"><ele>155.0</ele><time>2026-03-29T10:27:11.445Z</time></trkpt><trkpt lat="45.4886533" lon="10.4455483"><ele>155.0</ele><time>2026-03-29T10:27:13.445Z</time></trkpt><trkpt lat="45.4887517" lon="10.4456017"><ele>155.0</ele><time>2026-03-29T10:27:14.445Z</time></trkpt><trkpt lat="45.4888633" lon="10.4456683"><ele>155.0</ele><time>2026-03-29T10:27:15.445Z</time></trkpt><trkpt lat="45.4889933" lon="10.4457417"><ele>155.66666666666666</ele><time>2026-03-29T10:27:16.445Z</time></trkpt><trkpt lat="45.4891383" lon="10.445805"><ele>156.33333333333334</ele><time>2026-03-29T10:27:17.445Z</time></trkpt><trkpt lat="45.489305" lon="10.4458667"><ele>157.0</ele><time>2026-03-29T10:27:18.445Z</time></trkpt><trkpt lat="45.4894817" lon="10.4459417"><ele>156.66666666666669</ele><time>2026-03-29T10:27:19.444Z</time></trkpt><trkpt lat="45.4896717" lon="10.4460433"><ele>156.33333333333334</ele><time>2026-03-29T10:27:20.445Z</time></trkpt><trkpt lat="45.4898767" lon="10.4461467"><ele>156.0</ele><time>2026-03-29T10:27:21.444Z</time></trkpt><trkpt lat="45.4900933" lon="10.446235"><ele>156.5</ele><time>2026-03-29T10:27:22.445Z</time></trkpt><trkpt lat="45.4903167" lon="10.4463083"><ele>157.0</ele><time>2026-03-29T10:27:23.445Z</time></trkpt><trkpt lat="45.4905483" lon="10.4463717"><ele>157.5</ele><time>2026-03-29T10:27:24.445Z</time></trkpt><trkpt lat="45.49079" lon="10.446425"><ele>158.0</ele><time>2026-03-29T10:27:25.445Z</time></trkpt><trkpt lat="45.491035" lon="10.4464733"><ele>158.0</ele><time>2026-03-29T10:27:26.445Z</time></trkpt><trkpt lat="45.49128" lon="10.4465283"><ele>158.0</ele><time>2026-03-29T10:27:27.444Z</time></trkpt><trkpt lat="45.4915233" lon="10.4465883"><ele>158.0</ele><time>2026-03-29T10:27:28.445Z</time></trkpt><trkpt lat="45.4917683" lon="10.446655"><ele>158.0</ele><time>2026-03-29T10:27:29.445Z</time></trkpt><trkpt lat="45.49201" lon="10.4467383"><ele>159.0</ele><time>2026-03-29T10:27:30.444Z</time></trkpt><trkpt lat="45.4922483" lon="10.4468367"><ele>160.0</ele><time>2026-03-29T10:27:31.445Z</time></trkpt><trkpt lat="45.492485" lon="10.44694"><ele>160.0</ele><time>2026-03-29T10:27:32.445Z</time></trkpt><trkpt lat="45.4927217" lon="10.4470417"><ele>160.0</ele><time>2026-03-29T10:27:33.445Z</time></trkpt><trkpt lat="45.4929567" lon="10.447135"><ele>160.5</ele><time>2026-03-29T10:27:34.445Z</time></trkpt><trkpt lat="45.4932017" lon="10.447235"><ele>161.0</ele><time>2026-03-29T10:27:35.445Z</time></trkpt><trkpt lat="45.4934533" lon="10.4473367"><ele>161.0</ele><time>2026-03-29T10:27:36.445Z</time></trkpt><trkpt lat="45.4937067" lon="10.44744"><ele>161.0</ele><time>2026-03-29T10:27:37.444Z</time></trkpt><trkpt lat="45.493955" lon="10.4475417"><ele>161.0</ele><time>2026-03-29T10:27:38.445Z</time></trkpt><trkpt lat="45.494195" lon="10.447645"><ele>161.0</ele><time>2026-03-29T10:27:39.445Z</time></trkpt><trkpt lat="45.4944217" lon="10.4477383"><ele>161.66666666666666</ele><time>2026-03-29T10:27:40.445Z</time></trkpt><trkpt lat="45.4946317" lon="10.4478217"><ele>162.33333333333334</ele><time>2026-03-29T10:27:41.445Z</time></trkpt><trkpt lat="45.49481" lon="10.447895"><ele>163.0</ele><time>2026-03-29T10:27:42.445Z</time></trkpt><trkpt lat="45.4949667" lon="10.4479633"><ele>163.0</ele><time>2026-03-29T10:27:43.445Z</time></trkpt><trkpt lat="45.4950967" lon="10.44802"><ele>163.0</ele><time>2026-03-29T10:27:44.445Z</time></trkpt><trkpt lat="45.49521" lon="10.44806"><ele>163.0</ele><time>2026-03-29T10:27:45.445Z</time></trkpt><trkpt lat="45.495295" lon="10.4480933"><ele>163.0</ele><time>2026-03-29T10:27:46.445Z</time></trkpt><trkpt lat="45.4953933" lon="10.448065"><ele>163.0</ele><time>2026-03-29T10:27:48.445Z</time></trkpt><trkpt lat="45.4954533" lon="10.4478833"><ele>163.0</ele><time>2026-03-29T10:27:50.445Z</time></trkpt><trkpt lat="45.4954733" lon="10.4477467"><ele>163.0</ele><time>2026-03-29T10:27:51.445Z</time></trkpt><trkpt lat="45.4954983" lon="10.4475633"><ele>163.0</ele><time>2026-03-29T10:27:52.445Z</time></trkpt><trkpt lat="45.4955217" lon="10.44738"><ele>163.0</ele><time>2026-03-29T10:27:53.445Z</time></trkpt><trkpt lat="45.4955517" lon="10.44722"><ele>163.33333333333334</ele><time>2026-03-29T10:27:54.445Z</time></trkpt><trkpt lat="45.4955833" lon="10.4470767"><ele>163.66666666666669</ele><time>2026-03-29T10:27:55.445Z</time></trkpt><trkpt lat="45.4956033" lon="10.4469583"><ele>164.0</ele><time>2026-03-29T10:27:56.445Z</time></trkpt><trkpt lat="45.4956433" lon="10.4468817"><ele>164.33333333333334</ele><time>2026-03-29T10:27:57.444Z</time></trkpt><trkpt lat="45.495705" lon="10.4468233"><ele>164.66666666666666</ele><time>2026-03-29T10:27:59.445Z</time></trkpt><trkpt lat="45.4958033" lon="10.4467967"><ele>165.0</ele><time>2026-03-29T10:28:02.443Z</time></trkpt><trkpt lat="45.4959067" lon="10.44679"><ele>165.0</ele><time>2026-03-29T10:28:04.444Z</time></trkpt><trkpt lat="45.4960083" lon="10.4466967"><ele>165.0</ele><time>2026-03-29T10:28:06.444Z</time></trkpt><trkpt lat="45.4960783" lon="10.4465967"><ele>165.0</ele><time>2026-03-29T10:28:07.444Z</time></trkpt><trkpt lat="45.4961733" lon="10.4464533"><ele>165.0</ele><time>2026-03-29T10:28:08.444Z</time></trkpt><trkpt lat="45.4963083" lon="10.4462817"><ele>164.5</ele><time>2026-03-29T10:28:09.444Z</time></trkpt><trkpt lat="45.496425" lon="10.446145"><ele>164.0</ele><time>2026-03-29T10:28:10.444Z</time></trkpt><trkpt lat="45.4965283" lon="10.4460133"><ele>163.5</ele><time>2026-03-29T10:28:11.444Z</time></trkpt><trkpt lat="45.49662" lon="10.44589"><ele>163.0</ele><time>2026-03-29T10:28:12.444Z</time></trkpt><trkpt lat="45.4967067" lon="10.4457633"><ele>163.0</ele><time>2026-03-29T10:28:13.444Z</time></trkpt><trkpt lat="45.49679" lon="10.4456233"><ele>163.0</ele><time>2026-03-29T10:28:14.444Z</time></trkpt><trkpt lat="45.4968783" lon="10.4454717"><ele>163.0</ele><time>2026-03-29T10:28:15.444Z</time></trkpt><trkpt lat="45.4969933" lon="10.4452967"><ele>163.0</ele><time>2026-03-29T10:28:16.444Z</time></trkpt><trkpt lat="45.4971233" lon="10.4451017"><ele>162.33333333333334</ele><time>2026-03-29T10:28:17.444Z</time></trkpt><trkpt lat="45.4972567" lon="10.4449117"><ele>161.66666666666666</ele><time>2026-03-29T10:28:18.444Z</time></trkpt><trkpt lat="45.4973833" lon="10.4447367"><ele>161.0</ele><time>2026-03-29T10:28:19.443Z</time></trkpt><trkpt lat="45.49752" lon="10.4445717"><ele>161.0</ele><time>2026-03-29T10:28:20.444Z</time></trkpt><trkpt lat="45.497645" lon="10.44443"><ele>161.0</ele><time>2026-03-29T10:28:21.443Z</time></trkpt><trkpt lat="45.49778" lon="10.4442983"><ele>161.0</ele><time>2026-03-29T10:28:22.444Z</time></trkpt><trkpt lat="45.497925" lon="10.444175"><ele>162.33333333333331</ele><time>2026-03-29T10:28:23.444Z</time></trkpt><trkpt lat="45.4980683" lon="10.4440667"><ele>163.66666666666666</ele><time>2026-03-29T10:28:24.444Z</time></trkpt><trkpt lat="45.498195" lon="10.443955"><ele>165.0</ele><time>2026-03-29T10:28:25.444Z</time></trkpt><trkpt lat="45.4983183" lon="10.4438517"><ele>165.0</ele><time>2026-03-29T10:28:26.444Z</time></trkpt><trkpt lat="45.4984333" lon="10.443735"><ele>165.0</ele><time>2026-03-29T10:28:27.444Z</time></trkpt><trkpt lat="45.49855" lon="10.4436033"><ele>165.0</ele><time>2026-03-29T10:28:28.444Z</time></trkpt><trkpt lat="45.498675" lon="10.4434583"><ele>165.33333333333334</ele><time>2026-03-29T10:28:29.444Z</time></trkpt><trkpt lat="45.4987933" lon="10.443305"><ele>165.66666666666669</ele><time>2026-03-29T10:28:30.444Z</time></trkpt><trkpt lat="45.498915" lon="10.4431333"><ele>166.0</ele><time>2026-03-29T10:28:31.444Z</time></trkpt><trkpt lat="45.4990417" lon="10.4429633"><ele>166.33333333333334</ele><time>2026-03-29T10:28:32.444Z</time></trkpt><trkpt lat="45.499165" lon="10.4427833"><ele>166.66666666666666</ele><time>2026-03-29T10:28:33.444Z</time></trkpt><trkpt lat="45.4992883" lon="10.4425983"><ele>167.0</ele><time>2026-03-29T10:28:34.443Z</time></trkpt><trkpt lat="45.4993917" lon="10.4424233"><ele>167.0</ele><time>2026-03-29T10:28:35.443Z</time></trkpt><trkpt lat="45.499495" lon="10.4422683"><ele>167.0</ele><time>2026-03-29T10:28:36.444Z</time></trkpt><trkpt lat="45.4995833" lon="10.4421367"><ele>167.0</ele><time>2026-03-29T10:28:37.444Z</time></trkpt><trkpt lat="45.49966" lon="10.4420183"><ele>167.0</ele><time>2026-03-29T10:28:38.444Z</time></trkpt><trkpt lat="45.49973" lon="10.441925"><ele>166.8</ele><time>2026-03-29T10:28:39.444Z</time></trkpt><trkpt lat="45.4997983" lon="10.4418467"><ele>166.6</ele><time>2026-03-29T10:28:40.444Z</time></trkpt><trkpt lat="45.49988" lon="10.441785"><ele>166.4</ele><time>2026-03-29T10:28:41.444Z</time></trkpt><trkpt lat="45.4999733" lon="10.4417183"><ele>166.20000000000002</ele><time>2026-03-29T10:28:42.444Z</time></trkpt><trkpt lat="45.5000583" lon="10.44166"><ele>166.0</ele><time>2026-03-29T10:28:43.444Z</time></trkpt><trkpt lat="45.5001317" lon="10.44159"><ele>166.0</ele><time>2026-03-29T10:28:44.444Z</time></trkpt><trkpt lat="45.500205" lon="10.441455"><ele>166.0</ele><time>2026-03-29T10:28:45.444Z</time></trkpt><trkpt lat="45.5002733" lon="10.4412917"><ele>166.0</ele><time>2026-03-29T10:28:46.444Z</time></trkpt><trkpt lat="45.5003267" lon="10.441125"><ele>166.0</ele><time>2026-03-29T10:28:47.444Z</time></trkpt><trkpt lat="45.500375" lon="10.441015"><ele>165.8</ele><time>2026-03-29T10:28:48.444Z</time></trkpt><trkpt lat="45.500435" lon="10.44093"><ele>165.60000000000002</ele><time>2026-03-29T10:28:49.444Z</time></trkpt><trkpt lat="45.5005033" lon="10.4408767"><ele>165.4</ele><time>2026-03-29T10:28:50.444Z</time></trkpt><trkpt lat="45.5005833" lon="10.44086"><ele>165.2</ele><time>2026-03-29T10:28:51.444Z</time></trkpt><trkpt lat="45.5006767" lon="10.4409"><ele>165.0</ele><time>2026-03-29T10:28:52.444Z</time></trkpt><trkpt lat="45.5008" lon="10.4409633"><ele>165.0</ele><time>2026-03-29T10:28:53.444Z</time></trkpt><trkpt lat="45.500965" lon="10.4410167"><ele>165.0</ele><time>2026-03-29T10:28:54.444Z</time></trkpt><trkpt lat="45.50115" lon="10.44104"><ele>165.0</ele><time>2026-03-29T10:28:55.444Z</time></trkpt><trkpt lat="45.5013267" lon="10.44105"><ele>164.75</ele><time>2026-03-29T10:28:56.444Z</time></trkpt><trkpt lat="45.5014833" lon="10.441055"><ele>164.5</ele><time>2026-03-29T10:28:57.444Z</time></trkpt><trkpt lat="45.5016183" lon="10.4410533"><ele>164.25</ele><time>2026-03-29T10:28:58.444Z</time></trkpt><trkpt lat="45.501735" lon="10.4410567"><ele>164.0</ele><time>2026-03-29T10:28:59.444Z</time></trkpt><trkpt lat="45.5018367" lon="10.4410617"><ele>164.0</ele><time>2026-03-29T10:29:00.444Z</time></trkpt><trkpt lat="45.5019167" lon="10.4411033"><ele>164.0</ele><time>2026-03-29T10:29:01.444Z</time></trkpt><trkpt lat="45.5019717" lon="10.4411783"><ele>164.0</ele><time>2026-03-29T10:29:02.444Z</time></trkpt><trkpt lat="45.5020017" lon="10.4413183"><ele>164.0</ele><time>2026-03-29T10:29:03.444Z</time></trkpt><trkpt lat="45.5020033" lon="10.441515"><ele>164.0</ele><time>2026-03-29T10:29:04.444Z</time></trkpt><trkpt lat="45.5019783" lon="10.441775"><ele>164.25</ele><time>2026-03-29T10:29:05.444Z</time></trkpt><trkpt lat="45.50196" lon="10.4420283"><ele>164.5</ele><time>2026-03-29T10:29:06.444Z</time></trkpt><trkpt lat="45.5019483" lon="10.4422433"><ele>164.75</ele><time>2026-03-29T10:29:07.444Z</time></trkpt><trkpt lat="45.5019483" lon="10.4424033"><ele>165.0</ele><time>2026-03-29T10:29:08.444Z</time></trkpt><trkpt lat="45.5019767" lon="10.442505"><ele>165.2</ele><time>2026-03-29T10:29:09.443Z</time></trkpt><trkpt lat="45.5020567" lon="10.4426033"><ele>165.4</ele><time>2026-03-29T10:29:11.444Z</time></trkpt><trkpt lat="45.502125" lon="10.4426017"><ele>165.60000000000002</ele><time>2026-03-29T10:29:12.444Z</time></trkpt><trkpt lat="45.5022183" lon="10.4425833"><ele>165.8</ele><time>2026-03-29T10:29:13.444Z</time></trkpt><trkpt lat="45.5023483" lon="10.4425483"><ele>166.0</ele><time>2026-03-29T10:29:14.444Z</time></trkpt><trkpt lat="45.502495" lon="10.4425267"><ele>166.20000000000002</ele><time>2026-03-29T10:29:15.444Z</time></trkpt><trkpt lat="45.5026433" lon="10.4424983"><ele>166.4</ele><time>2026-03-29T10:29:16.444Z</time></trkpt><trkpt lat="45.502755" lon="10.4424967"><ele>166.6</ele><time>2026-03-29T10:29:17.444Z</time></trkpt><trkpt lat="45.502835" lon="10.44249"><ele>166.8</ele><time>2026-03-29T10:29:18.443Z</time></trkpt><trkpt lat="45.5029083" lon="10.4425583"><ele>167.0</ele><time>2026-03-29T10:29:21.444Z</time></trkpt><trkpt lat="45.50288" lon="10.4427067"><ele>167.0</ele><time>2026-03-29T10:29:23.444Z</time></trkpt><trkpt lat="45.502835" lon="10.4428183"><ele>167.0</ele><time>2026-03-29T10:29:24.444Z</time></trkpt><trkpt lat="45.5027767" lon="10.442965"><ele>167.0</ele><time>2026-03-29T10:29:25.444Z</time></trkpt><trkpt lat="45.5027133" lon="10.4431317"><ele>167.0</ele><time>2026-03-29T10:29:26.444Z</time></trkpt><trkpt lat="45.502645" lon="10.4433217"><ele>167.0</ele><time>2026-03-29T10:29:27.444Z</time></trkpt><trkpt lat="45.5025867" lon="10.443495"><ele>167.0</ele><time>2026-03-29T10:29:28.444Z</time></trkpt><trkpt lat="45.5025233" lon="10.4436633"><ele>167.0</ele><time>2026-03-29T10:29:29.444Z</time></trkpt><trkpt lat="45.5024583" lon="10.443825"><ele>167.0</ele><time>2026-03-29T10:29:30.444Z</time></trkpt><trkpt lat="45.5024" lon="10.443985"><ele>167.0</ele><time>2026-03-29T10:29:31.444Z</time></trkpt><trkpt lat="45.5023333" lon="10.4441517"><ele>167.0</ele><time>2026-03-29T10:29:32.444Z</time></trkpt><trkpt lat="45.5022617" lon="10.4443217"><ele>167.0</ele><time>2026-03-29T10:29:33.444Z</time></trkpt><trkpt lat="45.5021833" lon="10.4444983"><ele>167.0</ele><time>2026-03-29T10:29:34.443Z</time></trkpt><trkpt lat="45.502095" lon="10.4446917"><ele>167.0</ele><time>2026-03-29T10:29:35.444Z</time></trkpt><trkpt lat="45.5020017" lon="10.444895"><ele>167.0</ele><time>2026-03-29T10:29:36.444Z</time></trkpt><trkpt lat="45.5019067" lon="10.4450883"><ele>167.0</ele><time>2026-03-29T10:29:37.444Z</time></trkpt><trkpt lat="45.50182" lon="10.44527"><ele>167.0</ele><time>2026-03-29T10:29:38.444Z</time></trkpt><trkpt lat="45.5017467" lon="10.445435"><ele>167.0</ele><time>2026-03-29T10:29:39.444Z</time></trkpt><trkpt lat="45.5016717" lon="10.4455883"><ele>167.0</ele><time>2026-03-29T10:29:40.444Z</time></trkpt><trkpt lat="45.5016" lon="10.4457367"><ele>167.0</ele><time>2026-03-29T10:29:41.444Z</time></trkpt><trkpt lat="45.5015283" lon="10.4458933"><ele>167.5</ele><time>2026-03-29T10:29:42.444Z</time></trkpt><trkpt lat="45.5014533" lon="10.4460533"><ele>168.0</ele><time>2026-03-29T10:29:43.444Z</time></trkpt><trkpt lat="45.5013917" lon="10.44621"><ele>168.5</ele><time>2026-03-29T10:29:44.444Z</time></trkpt><trkpt lat="45.501345" lon="10.44636"><ele>169.0</ele><time>2026-03-29T10:29:45.444Z</time></trkpt><trkpt lat="45.501325" lon="10.4465083"><ele>169.0</ele><time>2026-03-29T10:29:46.443Z</time></trkpt><trkpt lat="45.50133" lon="10.446655"><ele>169.0</ele><time>2026-03-29T10:29:47.444Z</time></trkpt><trkpt lat="45.5013467" lon="10.4468117"><ele>169.0</ele><time>2026-03-29T10:29:48.444Z</time></trkpt><trkpt lat="45.50134" lon="10.4469333"><ele>169.0</ele><time>2026-03-29T10:29:49.443Z</time></trkpt><trkpt lat="45.50131" lon="10.44707"><ele>169.0</ele><time>2026-03-29T10:29:50.443Z</time></trkpt><trkpt lat="45.5012583" lon="10.44721"><ele>168.66666666666669</ele><time>2026-03-29T10:29:51.444Z</time></trkpt><trkpt lat="45.50118" lon="10.4473617"><ele>168.33333333333334</ele><time>2026-03-29T10:29:52.444Z</time></trkpt><trkpt lat="45.5010767" lon="10.4475333"><ele>168.0</ele><time>2026-03-29T10:29:53.444Z</time></trkpt><trkpt lat="45.5009717" lon="10.447725"><ele>168.0</ele><time>2026-03-29T10:29:54.444Z</time></trkpt><trkpt lat="45.50088" lon="10.44791"><ele>168.0</ele><time>2026-03-29T10:29:55.444Z</time></trkpt><trkpt lat="45.500795" lon="10.4481083"><ele>168.0</ele><time>2026-03-29T10:29:56.444Z</time></trkpt><trkpt lat="45.5007217" lon="10.44829"><ele>168.0</ele><time>2026-03-29T10:29:57.443Z</time></trkpt><trkpt lat="45.5006517" lon="10.44846"><ele>168.0</ele><time>2026-03-29T10:29:58.444Z</time></trkpt><trkpt lat="45.500585" lon="10.4486117"><ele>168.0</ele><time>2026-03-29T10:29:59.444Z</time></trkpt><trkpt lat="45.5005267" lon="10.4487567"><ele>168.0</ele><time>2026-03-29T10:30:00.444Z</time></trkpt><trkpt lat="45.500475" lon="10.4488783"><ele>168.0</ele><time>2026-03-29T10:30:01.444Z</time></trkpt><trkpt lat="45.5004333" lon="10.4490017"><ele>168.0</ele><time>2026-03-29T10:30:02.444Z</time></trkpt><trkpt lat="45.5004033" lon="10.449115"><ele>168.0</ele><time>2026-03-29T10:30:03.444Z</time></trkpt><trkpt lat="45.5003967" lon="10.4492117"><ele>168.0</ele><time>2026-03-29T10:30:04.444Z</time></trkpt><trkpt lat="45.5004083" lon="10.4493117"><ele>168.0</ele><time>2026-03-29T10:30:05.444Z</time></trkpt><trkpt lat="45.5004467" lon="10.4493983"><ele>168.0</ele><time>2026-03-29T10:30:06.444Z</time></trkpt><trkpt lat="45.5005183" lon="10.4494833"><ele>168.0</ele><time>2026-03-29T10:30:07.444Z</time></trkpt><trkpt lat="45.500605" lon="10.449575"><ele>168.0</ele><time>2026-03-29T10:30:08.444Z</time></trkpt><trkpt lat="45.500715" lon="10.449665"><ele>168.0</ele><time>2026-03-29T10:30:09.444Z</time></trkpt><trkpt lat="45.5008083" lon="10.4497417"><ele>168.0</ele><time>2026-03-29T10:30:10.443Z</time></trkpt><trkpt lat="45.5008867" lon="10.4497783"><ele>168.0</ele><time>2026-03-29T10:30:11.444Z</time></trkpt><trkpt lat="45.5009617" lon="10.44979"><ele>168.0</ele><time>2026-03-29T10:30:12.443Z</time></trkpt><trkpt lat="45.501025" lon="10.4497583"><ele>168.0</ele><time>2026-03-29T10:30:13.444Z</time></trkpt><trkpt lat="45.5010833" lon="10.44967"><ele>168.0</ele><time>2026-03-29T10:30:14.444Z</time></trkpt><trkpt lat="45.5011483" lon="10.4495333"><ele>168.0</ele><time>2026-03-29T10:30:15.444Z</time></trkpt><trkpt lat="45.5011967" lon="10.4494183"><ele>168.0</ele><time>2026-03-29T10:30:16.444Z</time></trkpt><trkpt lat="45.5012583" lon="10.4493417"><ele>168.0</ele><time>2026-03-29T10:30:17.443Z</time></trkpt><trkpt lat="45.5013367" lon="10.449315"><ele>168.25</ele><time>2026-03-29T10:30:18.444Z</time></trkpt><trkpt lat="45.501435" lon="10.44933"><ele>168.5</ele><time>2026-03-29T10:30:19.443Z</time></trkpt><trkpt lat="45.50155" lon="10.4493917"><ele>168.75</ele><time>2026-03-29T10:30:20.444Z</time></trkpt><trkpt lat="45.5016817" lon="10.44947"><ele>169.0</ele><time>2026-03-29T10:30:21.444Z</time></trkpt><trkpt lat="45.50183" lon="10.449555"><ele>169.33333333333334</ele><time>2026-03-29T10:30:22.444Z</time></trkpt><trkpt lat="45.5019867" lon="10.44963"><ele>169.66666666666666</ele><time>2026-03-29T10:30:23.443Z</time></trkpt><trkpt lat="45.502155" lon="10.4496967"><ele>170.0</ele><time>2026-03-29T10:30:24.444Z</time></trkpt><trkpt lat="45.502325" lon="10.449755"><ele>170.0</ele><time>2026-03-29T10:30:25.444Z</time></trkpt><trkpt lat="45.5024933" lon="10.4497767"><ele>170.0</ele><time>2026-03-29T10:30:26.444Z</time></trkpt><trkpt lat="45.5026517" lon="10.4497967"><ele>170.0</ele><time>2026-03-29T10:30:27.444Z</time></trkpt><trkpt lat="45.5027967" lon="10.44982"><ele>170.0</ele><time>2026-03-29T10:30:28.444Z</time></trkpt><trkpt lat="45.5029333" lon="10.4498333"><ele>170.0</ele><time>2026-03-29T10:30:29.444Z</time></trkpt><trkpt lat="45.50307" lon="10.4498367"><ele>170.0</ele><time>2026-03-29T10:30:30.444Z</time></trkpt><trkpt lat="45.5032067" lon="10.449815"><ele>170.0</ele><time>2026-03-29T10:30:31.444Z</time></trkpt><trkpt lat="45.5033417" lon="10.4497533"><ele>170.0</ele><time>2026-03-29T10:30:32.444Z</time></trkpt><trkpt lat="45.503485" lon="10.4496617"><ele>170.0</ele><time>2026-03-29T10:30:33.443Z</time></trkpt><trkpt lat="45.5036417" lon="10.4495567"><ele>170.0</ele><time>2026-03-29T10:30:34.444Z</time></trkpt><trkpt lat="45.5038083" lon="10.4494467"><ele>170.33333333333331</ele><time>2026-03-29T10:30:35.444Z</time></trkpt><trkpt lat="45.5039817" lon="10.4493433"><ele>170.66666666666666</ele><time>2026-03-29T10:30:36.443Z</time></trkpt><trkpt lat="45.5041467" lon="10.4492433"><ele>171.0</ele><time>2026-03-29T10:30:37.444Z</time></trkpt><trkpt lat="45.5043167" lon="10.44915"><ele>171.0</ele><time>2026-03-29T10:30:38.444Z</time></trkpt><trkpt lat="45.504495" lon="10.4490617"><ele>171.0</ele><time>2026-03-29T10:30:39.444Z</time></trkpt><trkpt lat="45.504665" lon="10.4489867"><ele>171.0</ele><time>2026-03-29T10:30:40.444Z</time></trkpt><trkpt lat="45.5048233" lon="10.4489217"><ele>171.66666666666666</ele><time>2026-03-29T10:30:41.444Z</time></trkpt><trkpt lat="45.5049783" lon="10.44886"><ele>172.33333333333331</ele><time>2026-03-29T10:30:42.443Z</time></trkpt><trkpt lat="45.5051417" lon="10.4488017"><ele>173.0</ele><time>2026-03-29T10:30:43.444Z</time></trkpt><trkpt lat="45.50529" lon="10.4487517"><ele>173.25</ele><time>2026-03-29T10:30:44.444Z</time></trkpt><trkpt lat="45.505425" lon="10.4487"><ele>173.5</ele><time>2026-03-29T10:30:45.444Z</time></trkpt><trkpt lat="45.50555" lon="10.4486517"><ele>173.75</ele><time>2026-03-29T10:30:46.444Z</time></trkpt><trkpt lat="45.5056583" lon="10.4486067"><ele>174.0</ele><time>2026-03-29T10:30:47.444Z</time></trkpt><trkpt lat="45.50576" lon="10.4485533"><ele>174.0</ele><time>2026-03-29T10:30:48.444Z</time></trkpt><trkpt lat="45.5058367" lon="10.4485117"><ele>174.0</ele><time>2026-03-29T10:30:49.444Z</time></trkpt><trkpt lat="45.5059033" lon="10.44848"><ele>174.0</ele><time>2026-03-29T10:30:50.443Z</time></trkpt><trkpt lat="45.5059733" lon="10.4484267"><ele>174.0</ele><time>2026-03-29T10:30:51.444Z</time></trkpt><trkpt lat="45.5060617" lon="10.448375"><ele>174.0</ele><time>2026-03-29T10:30:52.444Z</time></trkpt><trkpt lat="45.5061667" lon="10.4483083"><ele>174.0</ele><time>2026-03-29T10:30:53.444Z</time></trkpt><trkpt lat="45.5063017" lon="10.4481983"><ele>174.33333333333334</ele><time>2026-03-29T10:30:54.444Z</time></trkpt><trkpt lat="45.5064567" lon="10.4480633"><ele>174.66666666666669</ele><time>2026-03-29T10:30:55.444Z</time></trkpt><trkpt lat="45.5066317" lon="10.4479233"><ele>175.0</ele><time>2026-03-29T10:30:56.444Z</time></trkpt><trkpt lat="45.50681" lon="10.44777"><ele>175.0</ele><time>2026-03-29T10:30:57.444Z</time></trkpt><trkpt lat="45.5070033" lon="10.4475933"><ele>175.0</ele><time>2026-03-29T10:30:58.444Z</time></trkpt><trkpt lat="45.5072083" lon="10.4474117"><ele>174.5</ele><time>2026-03-29T10:30:59.444Z</time></trkpt><trkpt lat="45.50742" lon="10.4472083"><ele>174.0</ele><time>2026-03-29T10:31:00.444Z</time></trkpt><trkpt lat="45.5076233" lon="10.4469817"><ele>174.5</ele><time>2026-03-29T10:31:01.444Z</time></trkpt><trkpt lat="45.50781" lon="10.4467583"><ele>175.0</ele><time>2026-03-29T10:31:02.444Z</time></trkpt><trkpt lat="45.5079883" lon="10.4465433"><ele>175.0</ele><time>2026-03-29T10:31:03.444Z</time></trkpt><trkpt lat="45.5081633" lon="10.4463383"><ele>175.0</ele><time>2026-03-29T10:31:04.444Z</time></trkpt><trkpt lat="45.5083367" lon="10.446135"><ele>175.0</ele><time>2026-03-29T10:31:05.444Z</time></trkpt><trkpt lat="45.5084983" lon="10.4459517"><ele>175.0</ele><time>2026-03-29T10:31:06.444Z</time></trkpt><trkpt lat="45.5086517" lon="10.4457783"><ele>175.0</ele><time>2026-03-29T10:31:07.444Z</time></trkpt><trkpt lat="45.5087967" lon="10.44561"><ele>175.66666666666669</ele><time>2026-03-29T10:31:08.444Z</time></trkpt><trkpt lat="45.508935" lon="10.44545"><ele>176.33333333333334</ele><time>2026-03-29T10:31:09.444Z</time></trkpt><trkpt lat="45.509065" lon="10.4453"><ele>177.0</ele><time>2026-03-29T10:31:10.444Z</time></trkpt><trkpt lat="45.5091983" lon="10.4451467"><ele>177.0</ele><time>2026-03-29T10:31:11.444Z</time></trkpt><trkpt lat="45.509325" lon="10.444965"><ele>177.0</ele><time>2026-03-29T10:31:12.444Z</time></trkpt><trkpt lat="45.5094433" lon="10.4447633"><ele>177.0</ele><time>2026-03-29T10:31:13.444Z</time></trkpt><trkpt lat="45.5095633" lon="10.4445433"><ele>176.66666666666666</ele><time>2026-03-29T10:31:14.444Z</time></trkpt><trkpt lat="45.5096583" lon="10.444315"><ele>176.33333333333331</ele><time>2026-03-29T10:31:15.444Z</time></trkpt><trkpt lat="45.509755" lon="10.444105"><ele>176.0</ele><time>2026-03-29T10:31:16.444Z</time></trkpt><trkpt lat="45.5098483" lon="10.4439033"><ele>176.0</ele><time>2026-03-29T10:31:17.444Z</time></trkpt><trkpt lat="45.50995" lon="10.4436933"><ele>176.0</ele><time>2026-03-29T10:31:18.444Z</time></trkpt><trkpt lat="45.5100467" lon="10.4434883"><ele>176.0</ele><time>2026-03-29T10:31:19.444Z</time></trkpt><trkpt lat="45.5101333" lon="10.4432883"><ele>176.0</ele><time>2026-03-29T10:31:20.444Z</time></trkpt><trkpt lat="45.510215" lon="10.4431217"><ele>176.0</ele><time>2026-03-29T10:31:21.444Z</time></trkpt><trkpt lat="45.5102917" lon="10.44298"><ele>176.0</ele><time>2026-03-29T10:31:22.444Z</time></trkpt><trkpt lat="45.5103567" lon="10.4428733"><ele>176.0</ele><time>2026-03-29T10:31:23.444Z</time></trkpt><trkpt lat="45.51042" lon="10.4427967"><ele>176.75</ele><time>2026-03-29T10:31:24.444Z</time></trkpt><trkpt lat="45.510505" lon="10.4427183"><ele>177.5</ele><time>2026-03-29T10:31:25.444Z</time></trkpt><trkpt lat="45.5106233" lon="10.4426683"><ele>178.25</ele><time>2026-03-29T10:31:26.444Z</time></trkpt><trkpt lat="45.5107383" lon="10.4426633"><ele>179.0</ele><time>2026-03-29T10:31:27.443Z</time></trkpt><trkpt lat="45.5108517" lon="10.4426883"><ele>179.0</ele><time>2026-03-29T10:31:28.444Z</time></trkpt><trkpt lat="45.510955" lon="10.4427117"><ele>179.0</ele><time>2026-03-29T10:31:29.444Z</time></trkpt><trkpt lat="45.5110683" lon="10.4427283"><ele>179.0</ele><time>2026-03-29T10:31:30.444Z</time></trkpt><trkpt lat="45.5111833" lon="10.4427533"><ele>179.0</ele><time>2026-03-29T10:31:31.444Z</time></trkpt><trkpt lat="45.511275" lon="10.44279"><ele>179.0</ele><time>2026-03-29T10:31:32.443Z</time></trkpt><trkpt lat="45.51135" lon="10.4428383"><ele>178.66666666666666</ele><time>2026-03-29T10:31:33.444Z</time></trkpt><trkpt lat="45.51141" lon="10.442925"><ele>178.33333333333331</ele><time>2026-03-29T10:31:34.444Z</time></trkpt><trkpt lat="45.5114567" lon="10.4430283"><ele>178.0</ele><time>2026-03-29T10:31:35.444Z</time></trkpt><trkpt lat="45.51149" lon="10.443145"><ele>177.66666666666666</ele><time>2026-03-29T10:31:36.444Z</time></trkpt><trkpt lat="45.5115183" lon="10.4432617"><ele>177.33333333333334</ele><time>2026-03-29T10:31:37.444Z</time></trkpt><trkpt lat="45.5115633" lon="10.4433367"><ele>177.0</ele><time>2026-03-29T10:31:38.444Z</time></trkpt><trkpt lat="45.511625" lon="10.4433967"><ele>177.0</ele><time>2026-03-29T10:31:39.444Z</time></trkpt><trkpt lat="45.5117017" lon="10.4434017"><ele>177.0</ele><time>2026-03-29T10:31:40.444Z</time></trkpt><trkpt lat="45.5117717" lon="10.44336"><ele>177.0</ele><time>2026-03-29T10:31:41.444Z</time></trkpt><trkpt lat="45.5118367" lon="10.4432667"><ele>177.0</ele><time>2026-03-29T10:31:42.444Z</time></trkpt><trkpt lat="45.51189" lon="10.443115"><ele>177.0</ele><time>2026-03-29T10:31:43.444Z</time></trkpt><trkpt lat="45.5119283" lon="10.4429367"><ele>177.0</ele><time>2026-03-29T10:31:44.444Z</time></trkpt><trkpt lat="45.511975" lon="10.4427633"><ele>177.0</ele><time>2026-03-29T10:31:45.444Z</time></trkpt><trkpt lat="45.5120433" lon="10.4425867"><ele>177.0</ele><time>2026-03-29T10:31:46.444Z</time></trkpt><trkpt lat="45.51215" lon="10.4424083"><ele>177.0</ele><time>2026-03-29T10:31:47.443Z</time></trkpt><trkpt lat="45.5122683" lon="10.442245"><ele>177.33333333333334</ele><time>2026-03-29T10:31:48.444Z</time></trkpt><trkpt lat="45.5123833" lon="10.4420783"><ele>177.66666666666669</ele><time>2026-03-29T10:31:49.444Z</time></trkpt><trkpt lat="45.5125133" lon="10.441895"><ele>178.0</ele><time>2026-03-29T10:31:50.444Z</time></trkpt><trkpt lat="45.5126483" lon="10.4417083"><ele>178.0</ele><time>2026-03-29T10:31:51.444Z</time></trkpt><trkpt lat="45.5127917" lon="10.4415017"><ele>178.0</ele><time>2026-03-29T10:31:52.444Z</time></trkpt><trkpt lat="45.5129317" lon="10.4412967"><ele>178.0</ele><time>2026-03-29T10:31:53.444Z</time></trkpt><trkpt lat="45.5130683" lon="10.4410767"><ele>178.0</ele><time>2026-03-29T10:31:54.444Z</time></trkpt><trkpt lat="45.513205" lon="10.440845"><ele>178.0</ele><time>2026-03-29T10:31:55.444Z</time></trkpt><trkpt lat="45.5133417" lon="10.440605"><ele>178.0</ele><time>2026-03-29T10:31:56.444Z</time></trkpt><trkpt lat="45.5134683" lon="10.4403617"><ele>178.0</ele><time>2026-03-29T10:31:57.444Z</time></trkpt><trkpt lat="45.5135917" lon="10.4401017"><ele>178.0</ele><time>2026-03-29T10:31:58.444Z</time></trkpt><trkpt lat="45.5137033" lon="10.4398283"><ele>178.0</ele><time>2026-03-29T10:31:59.444Z</time></trkpt><trkpt lat="45.5138167" lon="10.4395333"><ele>179.0</ele><time>2026-03-29T10:32:00.444Z</time></trkpt><trkpt lat="45.5139267" lon="10.4392333"><ele>180.0</ele><time>2026-03-29T10:32:01.443Z</time></trkpt><trkpt lat="45.5140267" lon="10.43894"><ele>180.0</ele><time>2026-03-29T10:32:02.444Z</time></trkpt><trkpt lat="45.5141083" lon="10.438655"><ele>180.0</ele><time>2026-03-29T10:32:03.444Z</time></trkpt><trkpt lat="45.5141817" lon="10.4383867"><ele>180.0</ele><time>2026-03-29T10:32:04.444Z</time></trkpt><trkpt lat="45.5142483" lon="10.4381417"><ele>180.33333333333334</ele><time>2026-03-29T10:32:05.444Z</time></trkpt><trkpt lat="45.5143083" lon="10.4379"><ele>180.66666666666669</ele><time>2026-03-29T10:32:06.444Z</time></trkpt><trkpt lat="45.5143633" lon="10.437695"><ele>181.0</ele><time>2026-03-29T10:32:07.444Z</time></trkpt><trkpt lat="45.5144217" lon="10.4375083"><ele>181.0</ele><time>2026-03-29T10:32:08.444Z</time></trkpt><trkpt lat="45.5144967" lon="10.4373317"><ele>181.0</ele><time>2026-03-29T10:32:09.444Z</time></trkpt><trkpt lat="45.5145817" lon="10.4371817"><ele>181.0</ele><time>2026-03-29T10:32:10.443Z</time></trkpt><trkpt lat="45.5146733" lon="10.43704"><ele>181.0</ele><time>2026-03-29T10:32:11.444Z</time></trkpt><trkpt lat="45.5147583" lon="10.4369183"><ele>181.5</ele><time>2026-03-29T10:32:12.444Z</time></trkpt><trkpt lat="45.514815" lon="10.436775"><ele>182.0</ele><time>2026-03-29T10:32:13.444Z</time></trkpt><trkpt lat="45.5148283" lon="10.436605"><ele>182.5</ele><time>2026-03-29T10:32:14.444Z</time></trkpt><trkpt lat="45.5148033" lon="10.4364133"><ele>183.0</ele><time>2026-03-29T10:32:15.444Z</time></trkpt><trkpt lat="45.5147333" lon="10.4362383"><ele>183.0</ele><time>2026-03-29T10:32:16.444Z</time></trkpt><trkpt lat="45.5146817" lon="10.4360233"><ele>183.0</ele><time>2026-03-29T10:32:17.444Z</time></trkpt><trkpt lat="45.5146533" lon="10.4357683"><ele>183.0</ele><time>2026-03-29T10:32:18.444Z</time></trkpt><trkpt lat="45.514635" lon="10.43549"><ele>182.33333333333334</ele><time>2026-03-29T10:32:19.444Z</time></trkpt><trkpt lat="45.514625" lon="10.4351867"><ele>181.66666666666669</ele><time>2026-03-29T10:32:20.444Z</time></trkpt><trkpt lat="45.5146133" lon="10.4348667"><ele>181.0</ele><time>2026-03-29T10:32:21.444Z</time></trkpt><trkpt lat="45.5145967" lon="10.4345567"><ele>181.0</ele><time>2026-03-29T10:32:22.444Z</time></trkpt><trkpt lat="45.5145867" lon="10.4342367"><ele>181.0</ele><time>2026-03-29T10:32:23.444Z</time></trkpt><trkpt lat="45.5145733" lon="10.4339217"><ele>181.0</ele><time>2026-03-29T10:32:24.444Z</time></trkpt><trkpt lat="45.5145533" lon="10.433605"><ele>182.0</ele><time>2026-03-29T10:32:25.444Z</time></trkpt><trkpt lat="45.514535" lon="10.43328"><ele>183.0</ele><time>2026-03-29T10:32:26.443Z</time></trkpt><trkpt lat="45.5145167" lon="10.4329717"><ele>184.0</ele><time>2026-03-29T10:32:27.444Z</time></trkpt><trkpt lat="45.5144967" lon="10.4326583"><ele>184.0</ele><time>2026-03-29T10:32:28.444Z</time></trkpt><trkpt lat="45.5144833" lon="10.4323583"><ele>184.0</ele><time>2026-03-29T10:32:29.444Z</time></trkpt><trkpt lat="45.5144783" lon="10.4320583"><ele>184.0</ele><time>2026-03-29T10:32:30.444Z</time></trkpt><trkpt lat="45.5144817" lon="10.4317583"><ele>183.66666666666669</ele><time>2026-03-29T10:32:31.444Z</time></trkpt><trkpt lat="45.5144917" lon="10.4314583"><ele>183.33333333333334</ele><time>2026-03-29T10:32:32.444Z</time></trkpt><trkpt lat="45.5145033" lon="10.4311533"><ele>183.0</ele><time>2026-03-29T10:32:33.444Z</time></trkpt><trkpt lat="45.5145267" lon="10.4308467"><ele>182.66666666666666</ele><time>2026-03-29T10:32:34.444Z</time></trkpt><trkpt lat="45.5145567" lon="10.43054"><ele>182.33333333333331</ele><time>2026-03-29T10:32:35.444Z</time></trkpt><trkpt lat="45.514585" lon="10.4302317"><ele>182.0</ele><time>2026-03-29T10:32:36.444Z</time></trkpt><trkpt lat="45.51461" lon="10.4299283"><ele>183.0</ele><time>2026-03-29T10:32:37.444Z</time></trkpt><trkpt lat="45.51464" lon="10.4296117"><ele>184.0</ele><time>2026-03-29T10:32:38.444Z</time></trkpt><trkpt lat="45.514665" lon="10.429275"><ele>184.0</ele><time>2026-03-29T10:32:39.444Z</time></trkpt><trkpt lat="45.5146933" lon="10.42892"><ele>184.0</ele><time>2026-03-29T10:32:40.444Z</time></trkpt><trkpt lat="45.5147233" lon="10.4285717"><ele>184.0</ele><time>2026-03-29T10:32:41.444Z</time></trkpt><trkpt lat="45.514755" lon="10.4282217"><ele>184.0</ele><time>2026-03-29T10:32:42.444Z</time></trkpt><trkpt lat="45.5147767" lon="10.4278567"><ele>184.0</ele><time>2026-03-29T10:32:43.444Z</time></trkpt><trkpt lat="45.51481" lon="10.4274733"><ele>184.0</ele><time>2026-03-29T10:32:44.444Z</time></trkpt><trkpt lat="45.5148417" lon="10.427085"><ele>183.5</ele><time>2026-03-29T10:32:45.444Z</time></trkpt><trkpt lat="45.5148717" lon="10.4266817"><ele>183.0</ele><time>2026-03-29T10:32:46.444Z</time></trkpt><trkpt lat="45.5149" lon="10.4262767"><ele>183.0</ele><time>2026-03-29T10:32:47.444Z</time></trkpt><trkpt lat="45.5149333" lon="10.425895"><ele>183.0</ele><time>2026-03-29T10:32:48.444Z</time></trkpt><trkpt lat="45.5149617" lon="10.4255367"><ele>182.0</ele><time>2026-03-29T10:32:49.444Z</time></trkpt><trkpt lat="45.5149917" lon="10.4251967"><ele>181.0</ele><time>2026-03-29T10:32:50.444Z</time></trkpt><trkpt lat="45.515015" lon="10.4248767"><ele>180.66666666666669</ele><time>2026-03-29T10:32:51.444Z</time></trkpt><trkpt lat="45.515045" lon="10.4245767"><ele>180.33333333333334</ele><time>2026-03-29T10:32:52.443Z</time></trkpt><trkpt lat="45.5150717" lon="10.4243"><ele>180.0</ele><time>2026-03-29T10:32:53.444Z</time></trkpt><trkpt lat="45.5151" lon="10.424055"><ele>180.0</ele><time>2026-03-29T10:32:54.444Z</time></trkpt><trkpt lat="45.5151233" lon="10.423845"><ele>180.0</ele><time>2026-03-29T10:32:55.444Z</time></trkpt><trkpt lat="45.5151467" lon="10.4236767"><ele>180.0</ele><time>2026-03-29T10:32:56.444Z</time></trkpt><trkpt lat="45.5151633" lon="10.4235283"><ele>180.0</ele><time>2026-03-29T10:32:57.444Z</time></trkpt><trkpt lat="45.5151867" lon="10.4233917"><ele>180.16666666666666</ele><time>2026-03-29T10:32:58.444Z</time></trkpt><trkpt lat="45.5152217" lon="10.4232767"><ele>180.33333333333334</ele><time>2026-03-29T10:32:59.444Z</time></trkpt><trkpt lat="45.515265" lon="10.4231717"><ele>180.5</ele><time>2026-03-29T10:33:00.444Z</time></trkpt><trkpt lat="45.5153183" lon="10.4230833"><ele>180.66666666666669</ele><time>2026-03-29T10:33:01.444Z</time></trkpt><trkpt lat="45.5153683" lon="10.422975"><ele>180.83333333333334</ele><time>2026-03-29T10:33:02.444Z</time></trkpt><trkpt lat="45.5153967" lon="10.4228717"><ele>181.0</ele><time>2026-03-29T10:33:03.444Z</time></trkpt><trkpt lat="45.5154033" lon="10.422755"><ele>181.4</ele><time>2026-03-29T10:33:04.444Z</time></trkpt><trkpt lat="45.5153783" lon="10.4226383"><ele>181.8</ele><time>2026-03-29T10:33:05.444Z</time></trkpt><trkpt lat="45.5153467" lon="10.4224933"><ele>182.20000000000002</ele><time>2026-03-29T10:33:06.444Z</time></trkpt><trkpt lat="45.5152967" lon="10.4223433"><ele>182.60000000000002</ele><time>2026-03-29T10:33:07.444Z</time></trkpt><trkpt lat="45.5152617" lon="10.4221733"><ele>183.0</ele><time>2026-03-29T10:33:08.444Z</time></trkpt><trkpt lat="45.51525" lon="10.4219667"><ele>183.0</ele><time>2026-03-29T10:33:09.444Z</time></trkpt><trkpt lat="45.5152483" lon="10.4217183"><ele>183.0</ele><time>2026-03-29T10:33:10.443Z</time></trkpt><trkpt lat="45.515265" lon="10.4214533"><ele>183.0</ele><time>2026-03-29T10:33:11.444Z</time></trkpt><trkpt lat="45.51529" lon="10.421155"><ele>182.5</ele><time>2026-03-29T10:33:12.444Z</time></trkpt><trkpt lat="45.5153133" lon="10.420845"><ele>182.0</ele><time>2026-03-29T10:33:13.444Z</time></trkpt><trkpt lat="45.5153317" lon="10.4205067"><ele>182.5</ele><time>2026-03-29T10:33:14.444Z</time></trkpt><trkpt lat="45.5153533" lon="10.4201533"><ele>183.0</ele><time>2026-03-29T10:33:15.444Z</time></trkpt><trkpt lat="45.5153733" lon="10.4197933"><ele>184.0</ele><time>2026-03-29T10:33:16.444Z</time></trkpt><trkpt lat="45.5153867" lon="10.4194467"><ele>185.0</ele><time>2026-03-29T10:33:17.444Z</time></trkpt><trkpt lat="45.51539" lon="10.4191183"><ele>184.0</ele><time>2026-03-29T10:33:18.444Z</time></trkpt><trkpt lat="45.5153817" lon="10.4187933"><ele>183.0</ele><time>2026-03-29T10:33:19.444Z</time></trkpt><trkpt lat="45.515365" lon="10.4184767"><ele>183.0</ele><time>2026-03-29T10:33:20.444Z</time></trkpt><trkpt lat="45.5153217" lon="10.4181617"><ele>183.0</ele><time>2026-03-29T10:33:21.444Z</time></trkpt><trkpt lat="45.5152583" lon="10.417865"><ele>183.0</ele><time>2026-03-29T10:33:22.444Z</time></trkpt><trkpt lat="45.5151683" lon="10.4175783"><ele>182.33333333333334</ele><time>2026-03-29T10:33:23.444Z</time></trkpt><trkpt lat="45.5150517" lon="10.4172967"><ele>181.66666666666669</ele><time>2026-03-29T10:33:24.443Z</time></trkpt><trkpt lat="45.514925" lon="10.41704"><ele>181.0</ele><time>2026-03-29T10:33:25.444Z</time></trkpt><trkpt lat="45.5147783" lon="10.4167917"><ele>179.5</ele><time>2026-03-29T10:33:26.444Z</time></trkpt><trkpt lat="45.514615" lon="10.41657"><ele>178.0</ele><time>2026-03-29T10:33:27.444Z</time></trkpt><trkpt lat="45.5144283" lon="10.416365"><ele>178.0</ele><time>2026-03-29T10:33:28.444Z</time></trkpt><trkpt lat="45.5142267" lon="10.4161933"><ele>178.0</ele><time>2026-03-29T10:33:29.444Z</time></trkpt><trkpt lat="45.5140333" lon="10.4160517"><ele>178.0</ele><time>2026-03-29T10:33:30.444Z</time></trkpt><trkpt lat="45.5138533" lon="10.4159317"><ele>178.0</ele><time>2026-03-29T10:33:31.443Z</time></trkpt><trkpt lat="45.5136833" lon="10.4158283"><ele>178.0</ele><time>2026-03-29T10:33:32.444Z</time></trkpt><trkpt lat="45.51352" lon="10.4157317"><ele>178.25</ele><time>2026-03-29T10:33:33.444Z</time></trkpt><trkpt lat="45.513375" lon="10.415635"><ele>178.5</ele><time>2026-03-29T10:33:34.444Z</time></trkpt><trkpt lat="45.5132367" lon="10.41555"><ele>178.75</ele><time>2026-03-29T10:33:35.444Z</time></trkpt><trkpt lat="45.51313" lon="10.4154717"><ele>179.0</ele><time>2026-03-29T10:33:36.444Z</time></trkpt><trkpt lat="45.5130467" lon="10.415405"><ele>179.0</ele><time>2026-03-29T10:33:37.444Z</time></trkpt><trkpt lat="45.5129833" lon="10.41535"><ele>179.0</ele><time>2026-03-29T10:33:38.444Z</time></trkpt><trkpt lat="45.5129367" lon="10.41521"><ele>179.0</ele><time>2026-03-29T10:33:40.444Z</time></trkpt><trkpt lat="45.5129517" lon="10.4151183"><ele>179.0</ele><time>2026-03-29T10:33:41.444Z</time></trkpt><trkpt lat="45.513005" lon="10.4150083"><ele>179.0</ele><time>2026-03-29T10:33:42.444Z</time></trkpt><trkpt lat="45.5130783" lon="10.4149083"><ele>179.0</ele><time>2026-03-29T10:33:43.444Z</time></trkpt><trkpt lat="45.5131617" lon="10.4148317"><ele>179.0</ele><time>2026-03-29T10:33:44.444Z</time></trkpt><trkpt lat="45.513265" lon="10.4147817"><ele>179.0</ele><time>2026-03-29T10:33:45.444Z</time></trkpt><trkpt lat="45.5133767" lon="10.4147583"><ele>179.0</ele><time>2026-03-29T10:33:46.444Z</time></trkpt><trkpt lat="45.5134933" lon="10.414735"><ele>179.0</ele><time>2026-03-29T10:33:47.444Z</time></trkpt><trkpt lat="45.5136067" lon="10.4147233"><ele>179.0</ele><time>2026-03-29T10:33:48.444Z</time></trkpt><trkpt lat="45.513705" lon="10.4146867"><ele>179.0</ele><time>2026-03-29T10:33:49.444Z</time></trkpt><trkpt lat="45.513785" lon="10.414645"><ele>179.0</ele><time>2026-03-29T10:33:50.444Z</time></trkpt><trkpt lat="45.5138817" lon="10.4145917"><ele>179.0</ele><time>2026-03-29T10:33:52.444Z</time></trkpt><trkpt lat="45.5139833" lon="10.41465"><ele>179.0</ele><time>2026-03-29T10:33:55.443Z</time></trkpt><trkpt lat="45.51412" lon="10.4147367"><ele>180.39999999999998</ele><time>2026-03-29T10:33:57.444Z</time></trkpt><trkpt lat="45.5142267" lon="10.414815"><ele>181.8</ele><time>2026-03-29T10:33:58.444Z</time></trkpt><trkpt lat="45.5143117" lon="10.4148783"><ele>183.2</ele><time>2026-03-29T10:33:59.444Z</time></trkpt><trkpt lat="45.514395" lon="10.41494"><ele>184.60000000000002</ele><time>2026-03-29T10:34:00.444Z</time></trkpt><trkpt lat="45.514495" lon="10.4150283"><ele>186.0</ele><time>2026-03-29T10:34:01.444Z</time></trkpt><trkpt lat="45.5146067" lon="10.4151133"><ele>186.66666666666666</ele><time>2026-03-29T10:34:02.444Z</time></trkpt><trkpt lat="45.5147283" lon="10.415195"><ele>187.33333333333331</ele><time>2026-03-29T10:34:03.444Z</time></trkpt><trkpt lat="45.51488" lon="10.4152667"><ele>188.0</ele><time>2026-03-29T10:34:04.444Z</time></trkpt><trkpt lat="45.515045" lon="10.415305"><ele>188.0</ele><time>2026-03-29T10:34:05.444Z</time></trkpt><trkpt lat="45.5152083" lon="10.4153133"><ele>188.0</ele><time>2026-03-29T10:34:06.444Z</time></trkpt><trkpt lat="45.5153617" lon="10.4153117"><ele>188.0</ele><time>2026-03-29T10:34:07.443Z</time></trkpt><trkpt lat="45.5155067" lon="10.4152983"><ele>189.66666666666666</ele><time>2026-03-29T10:34:08.444Z</time></trkpt><trkpt lat="45.5156567" lon="10.4152533"><ele>191.33333333333331</ele><time>2026-03-29T10:34:09.444Z</time></trkpt><trkpt lat="45.5158017" lon="10.4151867"><ele>193.0</ele><time>2026-03-29T10:34:10.444Z</time></trkpt><trkpt lat="45.515955" lon="10.4151183"><ele>193.0</ele><time>2026-03-29T10:34:11.444Z</time></trkpt><trkpt lat="45.5160967" lon="10.4150567"><ele>193.0</ele><time>2026-03-29T10:34:12.444Z</time></trkpt><trkpt lat="45.5162383" lon="10.4149883"><ele>193.0</ele><time>2026-03-29T10:34:13.444Z</time></trkpt><trkpt lat="45.5163783" lon="10.41493"><ele>193.0</ele><time>2026-03-29T10:34:14.444Z</time></trkpt><trkpt lat="45.5165233" lon="10.4148783"><ele>193.0</ele><time>2026-03-29T10:34:15.444Z</time></trkpt><trkpt lat="45.51667" lon="10.4148183"><ele>193.0</ele><time>2026-03-29T10:34:16.444Z</time></trkpt><trkpt lat="45.5167983" lon="10.414765"><ele>193.0</ele><time>2026-03-29T10:34:17.444Z</time></trkpt><trkpt lat="45.5169183" lon="10.41472"><ele>193.0</ele><time>2026-03-29T10:34:18.444Z</time></trkpt><trkpt lat="45.5170333" lon="10.4146667"><ele>193.8</ele><time>2026-03-29T10:34:19.444Z</time></trkpt><trkpt lat="45.5171333" lon="10.4146483"><ele>194.60000000000002</ele><time>2026-03-29T10:34:20.444Z</time></trkpt><trkpt lat="45.5172283" lon="10.414635"><ele>195.39999999999998</ele><time>2026-03-29T10:34:21.444Z</time></trkpt><trkpt lat="45.5173267" lon="10.41459"><ele>196.2</ele><time>2026-03-29T10:34:23.444Z</time></trkpt><trkpt lat="45.5173283" lon="10.4144483"><ele>197.0</ele><time>2026-03-29T10:34:25.444Z</time></trkpt><trkpt lat="45.517315" lon="10.4143433"><ele>197.00000000000003</ele><time>2026-03-29T10:34:26.444Z</time></trkpt><trkpt lat="45.517285" lon="10.4142333"><ele>197.0</ele><time>2026-03-29T10:34:27.444Z</time></trkpt><trkpt lat="45.5172583" lon="10.4141233"><ele>197.0</ele><time>2026-03-29T10:34:28.444Z</time></trkpt><trkpt lat="45.5172383" lon="10.4140117"><ele>197.0</ele><time>2026-03-29T10:34:29.444Z</time></trkpt><trkpt lat="45.51722" lon="10.4138867"><ele>197.00000000000003</ele><time>2026-03-29T10:34:30.444Z</time></trkpt><trkpt lat="45.5172083" lon="10.4137767"><ele>197.0</ele><time>2026-03-29T10:34:31.444Z</time></trkpt><trkpt lat="45.51722" lon="10.413645"><ele>197.00000000000003</ele><time>2026-03-29T10:34:33.444Z</time></trkpt><trkpt lat="45.5173083" lon="10.4136083"><ele>197.0</ele><time>2026-03-29T10:34:38.443Z</time></trkpt><trkpt lat="45.5173717" lon="10.41363"><ele>197.0</ele><time>2026-03-29T10:34:40.444Z</time></trkpt><trkpt lat="45.5173683" lon="10.4137217"><ele>197.0</ele><time>2026-03-29T10:34:44.444Z</time></trkpt><trkpt lat="45.517435" lon="10.4137517"><ele>197.00000000000003</ele><time>2026-03-29T10:34:47.444Z</time></trkpt><trkpt lat="45.5175167" lon="10.413745"><ele>197.0</ele><time>2026-03-29T10:34:49.444Z</time></trkpt><trkpt lat="45.51759" lon="10.4138083"><ele>197.00000000000003</ele><time>2026-03-29T10:34:57.444Z</time></trkpt><trkpt lat="45.5175517" lon="10.4137217"><ele>197.0</ele><time>2026-03-29T11:20:58.454Z</time></trkpt><trkpt lat="45.51747" lon="10.413665"><ele>197.0</ele><time>2026-03-29T11:21:01.454Z</time></trkpt><trkpt lat="45.5173833" lon="10.4136483"><ele>197.0</ele><time>2026-03-29T11:21:03.454Z</time></trkpt><trkpt lat="45.5173" lon="10.4136567"><ele>197.00000000000003</ele><time>2026-03-29T11:21:05.454Z</time></trkpt><trkpt lat="45.517255" lon="10.4137217"><ele>197.0</ele><time>2026-03-29T11:21:07.454Z</time></trkpt><trkpt lat="45.517235" lon="10.4139"><ele>197.0</ele><time>2026-03-29T11:21:09.454Z</time></trkpt><trkpt lat="45.517235" lon="10.414035"><ele>197.0</ele><time>2026-03-29T11:21:10.454Z</time></trkpt><trkpt lat="45.5172517" lon="10.41418"><ele>197.0</ele><time>2026-03-29T11:21:11.454Z</time></trkpt><trkpt lat="45.5172667" lon="10.414325"><ele>197.0</ele><time>2026-03-29T11:21:12.454Z</time></trkpt><trkpt lat="45.517275" lon="10.41444"><ele>197.0</ele><time>2026-03-29T11:21:13.453Z</time></trkpt><trkpt lat="45.51728" lon="10.4145483"><ele>196.39999999999998</ele><time>2026-03-29T11:21:15.454Z</time></trkpt><trkpt lat="45.5172717" lon="10.41467"><ele>195.79999999999998</ele><time>2026-03-29T11:21:18.453Z</time></trkpt><trkpt lat="45.5173283" lon="10.4148433"><ele>195.2</ele><time>2026-03-29T11:21:20.453Z</time></trkpt><trkpt lat="45.5173783" lon="10.4149717"><ele>194.6</ele><time>2026-03-29T11:21:21.453Z</time></trkpt><trkpt lat="45.5174417" lon="10.4151133"><ele>194.0</ele><time>2026-03-29T11:21:22.453Z</time></trkpt><trkpt lat="45.5175183" lon="10.41526"><ele>194.0</ele><time>2026-03-29T11:21:23.453Z</time></trkpt><trkpt lat="45.5176" lon="10.41539"><ele>194.0</ele><time>2026-03-29T11:21:24.452Z</time></trkpt><trkpt lat="45.5177067" lon="10.415505"><ele>194.0</ele><time>2026-03-29T11:21:25.453Z</time></trkpt><trkpt lat="45.5178233" lon="10.415605"><ele>194.0</ele><time>2026-03-29T11:21:26.453Z</time></trkpt><trkpt lat="45.5179417" lon="10.4156933"><ele>193.75</ele><time>2026-03-29T11:21:27.453Z</time></trkpt><trkpt lat="45.51806" lon="10.415785"><ele>193.5</ele><time>2026-03-29T11:21:28.453Z</time></trkpt><trkpt lat="45.5181767" lon="10.4158667"><ele>193.25</ele><time>2026-03-29T11:21:29.453Z</time></trkpt><trkpt lat="45.51828" lon="10.4159683"><ele>193.0</ele><time>2026-03-29T11:21:30.453Z</time></trkpt><trkpt lat="45.51837" lon="10.4160733"><ele>193.0</ele><time>2026-03-29T11:21:31.453Z</time></trkpt><trkpt lat="45.5184533" lon="10.4162133"><ele>193.0</ele><time>2026-03-29T11:21:32.453Z</time></trkpt><trkpt lat="45.5185717" lon="10.4163867"><ele>193.0</ele><time>2026-03-29T11:21:33.453Z</time></trkpt><trkpt lat="45.5186967" lon="10.4165967"><ele>193.33333333333331</ele><time>2026-03-29T11:21:34.453Z</time></trkpt><trkpt lat="45.518835" lon="10.416815"><ele>193.66666666666669</ele><time>2026-03-29T11:21:35.453Z</time></trkpt><trkpt lat="45.5189583" lon="10.41701"><ele>194.0</ele><time>2026-03-29T11:21:36.453Z</time></trkpt><trkpt lat="45.5190683" lon="10.4171867"><ele>194.39999999999998</ele><time>2026-03-29T11:21:37.453Z</time></trkpt><trkpt lat="45.5191567" lon="10.4173467"><ele>194.8</ele><time>2026-03-29T11:21:38.453Z</time></trkpt><trkpt lat="45.5192217" lon="10.4174867"><ele>195.2</ele><time>2026-03-29T11:21:39.453Z</time></trkpt><trkpt lat="45.519285" lon="10.4175967"><ele>195.60000000000002</ele><time>2026-03-29T11:21:40.453Z</time></trkpt><trkpt lat="45.5193383" lon="10.4176767"><ele>196.0</ele><time>2026-03-29T11:21:41.453Z</time></trkpt><trkpt lat="45.5194517" lon="10.4177817"><ele>196.0</ele><time>2026-03-29T11:21:43.453Z</time></trkpt><trkpt lat="45.519525" lon="10.4178533"><ele>196.0</ele><time>2026-03-29T11:21:44.453Z</time></trkpt><trkpt lat="45.5196133" lon="10.417925"><ele>196.0</ele><time>2026-03-29T11:21:45.453Z</time></trkpt><trkpt lat="45.5197033" lon="10.4180183"><ele>196.0</ele><time>2026-03-29T11:21:46.453Z</time></trkpt><trkpt lat="45.5198017" lon="10.4181167"><ele>196.0</ele><time>2026-03-29T11:21:47.453Z</time></trkpt><trkpt lat="45.5198917" lon="10.41824"><ele>197.0</ele><time>2026-03-29T11:21:48.453Z</time></trkpt><trkpt lat="45.52" lon="10.4183683"><ele>198.0</ele><time>2026-03-29T11:21:49.453Z</time></trkpt><trkpt lat="45.5200783" lon="10.418495"><ele>199.0</ele><time>2026-03-29T11:21:50.453Z</time></trkpt><trkpt lat="45.5201417" lon="10.418605"><ele>200.0</ele><time>2026-03-29T11:21:51.453Z</time></trkpt><trkpt lat="45.5202083" lon="10.4187167"><ele>200.0</ele><time>2026-03-29T11:21:52.453Z</time></trkpt><trkpt lat="45.520275" lon="10.41885"><ele>200.0</ele><time>2026-03-29T11:21:53.453Z</time></trkpt><trkpt lat="45.5203267" lon="10.4189867"><ele>200.0</ele><time>2026-03-29T11:21:54.453Z</time></trkpt><trkpt lat="45.5203517" lon="10.4191433"><ele>200.0</ele><time>2026-03-29T11:21:55.453Z</time></trkpt><trkpt lat="45.5203883" lon="10.4192817"><ele>200.0</ele><time>2026-03-29T11:21:56.453Z</time></trkpt><trkpt lat="45.5204217" lon="10.4194017"><ele>200.00000000000003</ele><time>2026-03-29T11:21:57.452Z</time></trkpt><trkpt lat="45.5204533" lon="10.419515"><ele>200.0</ele><time>2026-03-29T11:21:58.453Z</time></trkpt><trkpt lat="45.5204867" lon="10.41961"><ele>200.0</ele><time>2026-03-29T11:21:59.453Z</time></trkpt><trkpt lat="45.52052" lon="10.419695"><ele>200.0</ele><time>2026-03-29T11:22:00.453Z</time></trkpt><trkpt lat="45.5205833" lon="10.4198133"><ele>200.00000000000003</ele><time>2026-03-29T11:22:02.452Z</time></trkpt><trkpt lat="45.5206283" lon="10.4199167"><ele>200.0</ele><time>2026-03-29T11:22:04.453Z</time></trkpt><trkpt lat="45.5206717" lon="10.4199983"><ele>199.83333333333334</ele><time>2026-03-29T11:22:05.453Z</time></trkpt><trkpt lat="45.5207183" lon="10.42008"><ele>199.66666666666669</ele><time>2026-03-29T11:22:06.453Z</time></trkpt><trkpt lat="45.520795" lon="10.42019"><ele>199.5</ele><time>2026-03-29T11:22:08.453Z</time></trkpt><trkpt lat="45.5207483" lon="10.4203133"><ele>199.33333333333331</ele><time>2026-03-29T11:22:10.453Z</time></trkpt><trkpt lat="45.52071" lon="10.4203883"><ele>199.16666666666666</ele><time>2026-03-29T11:22:11.453Z</time></trkpt><trkpt lat="45.5206683" lon="10.42047"><ele>199.0</ele><time>2026-03-29T11:22:12.452Z</time></trkpt><trkpt lat="45.5206433" lon="10.420565"><ele>198.39999999999998</ele><time>2026-03-29T11:22:13.453Z</time></trkpt><trkpt lat="45.5206167" lon="10.4206717"><ele>197.8</ele><time>2026-03-29T11:22:14.453Z</time></trkpt><trkpt lat="45.52061" lon="10.4207917"><ele>197.2</ele><time>2026-03-29T11:22:15.453Z</time></trkpt><trkpt lat="45.5206417" lon="10.420935"><ele>196.60000000000002</ele><time>2026-03-29T11:22:16.452Z</time></trkpt><trkpt lat="45.5206633" lon="10.4210717"><ele>196.0</ele><time>2026-03-29T11:22:17.453Z</time></trkpt><trkpt lat="45.52069" lon="10.4212017"><ele>195.0</ele><time>2026-03-29T11:22:18.453Z</time></trkpt><trkpt lat="45.52072" lon="10.42134"><ele>194.0</ele><time>2026-03-29T11:22:19.453Z</time></trkpt><trkpt lat="45.5207483" lon="10.421485"><ele>193.0</ele><time>2026-03-29T11:22:20.453Z</time></trkpt><trkpt lat="45.5208" lon="10.4216333"><ele>192.0</ele><time>2026-03-29T11:22:21.453Z</time></trkpt><trkpt lat="45.5208633" lon="10.42179"><ele>192.0</ele><time>2026-03-29T11:22:22.452Z</time></trkpt><trkpt lat="45.5209333" lon="10.421945"><ele>192.0</ele><time>2026-03-29T11:22:23.453Z</time></trkpt><trkpt lat="45.5209883" lon="10.4220867"><ele>192.0</ele><time>2026-03-29T11:22:24.453Z</time></trkpt><trkpt lat="45.5210167" lon="10.4222017"><ele>192.0</ele><time>2026-03-29T11:22:25.453Z</time></trkpt><trkpt lat="45.5210267" lon="10.4223333"><ele>192.0</ele><time>2026-03-29T11:22:26.453Z</time></trkpt><trkpt lat="45.5209983" lon="10.4224783"><ele>191.75</ele><time>2026-03-29T11:22:27.453Z</time></trkpt><trkpt lat="45.5209833" lon="10.42263"><ele>191.5</ele><time>2026-03-29T11:22:28.453Z</time></trkpt><trkpt lat="45.5209883" lon="10.4227817"><ele>191.25</ele><time>2026-03-29T11:22:29.453Z</time></trkpt><trkpt lat="45.5210067" lon="10.4229533"><ele>191.0</ele><time>2026-03-29T11:22:30.453Z</time></trkpt><trkpt lat="45.5210233" lon="10.4231283"><ele>190.75</ele><time>2026-03-29T11:22:31.453Z</time></trkpt><trkpt lat="45.5210383" lon="10.4233217"><ele>190.5</ele><time>2026-03-29T11:22:32.453Z</time></trkpt><trkpt lat="45.5210483" lon="10.4235183"><ele>190.25</ele><time>2026-03-29T11:22:33.453Z</time></trkpt><trkpt lat="45.5210517" lon="10.42372"><ele>190.0</ele><time>2026-03-29T11:22:34.453Z</time></trkpt><trkpt lat="45.5210533" lon="10.4239167"><ele>190.0</ele><time>2026-03-29T11:22:35.452Z</time></trkpt><trkpt lat="45.52104" lon="10.4241117"><ele>190.0</ele><time>2026-03-29T11:22:36.453Z</time></trkpt><trkpt lat="45.52102" lon="10.4243133"><ele>190.0</ele><time>2026-03-29T11:22:37.452Z</time></trkpt><trkpt lat="45.5209967" lon="10.4245167"><ele>190.0</ele><time>2026-03-29T11:22:38.453Z</time></trkpt><trkpt lat="45.5209683" lon="10.42471"><ele>190.0</ele><time>2026-03-29T11:22:39.453Z</time></trkpt><trkpt lat="45.520945" lon="10.4248933"><ele>190.0</ele><time>2026-03-29T11:22:40.453Z</time></trkpt><trkpt lat="45.5209267" lon="10.42507"><ele>190.0</ele><time>2026-03-29T11:22:41.453Z</time></trkpt><trkpt lat="45.5209067" lon="10.425235"><ele>190.0</ele><time>2026-03-29T11:22:42.452Z</time></trkpt><trkpt lat="45.5208867" lon="10.425395"><ele>190.25</ele><time>2026-03-29T11:22:43.453Z</time></trkpt><trkpt lat="45.5208617" lon="10.42556"><ele>190.5</ele><time>2026-03-29T11:22:44.453Z</time></trkpt><trkpt lat="45.5208367" lon="10.4257217"><ele>190.75</ele><time>2026-03-29T11:22:45.453Z</time></trkpt><trkpt lat="45.5208117" lon="10.425885"><ele>191.0</ele><time>2026-03-29T11:22:46.453Z</time></trkpt><trkpt lat="45.5207983" lon="10.42605"><ele>191.0</ele><time>2026-03-29T11:22:47.453Z</time></trkpt><trkpt lat="45.520785" lon="10.4262267"><ele>191.0</ele><time>2026-03-29T11:22:48.453Z</time></trkpt><trkpt lat="45.5207867" lon="10.42641"><ele>191.0</ele><time>2026-03-29T11:22:49.453Z</time></trkpt><trkpt lat="45.5207883" lon="10.426605"><ele>191.0</ele><time>2026-03-29T11:22:50.453Z</time></trkpt><trkpt lat="45.52079" lon="10.4268083"><ele>190.25</ele><time>2026-03-29T11:22:51.453Z</time></trkpt><trkpt lat="45.5207967" lon="10.4269983"><ele>189.5</ele><time>2026-03-29T11:22:52.453Z</time></trkpt><trkpt lat="45.5208117" lon="10.4271867"><ele>188.75</ele><time>2026-03-29T11:22:53.453Z</time></trkpt><trkpt lat="45.5208167" lon="10.4273733"><ele>188.0</ele><time>2026-03-29T11:22:54.452Z</time></trkpt><trkpt lat="45.52083" lon="10.4275483"><ele>187.8</ele><time>2026-03-29T11:22:55.453Z</time></trkpt><trkpt lat="45.5208367" lon="10.4277183"><ele>187.60000000000002</ele><time>2026-03-29T11:22:56.453Z</time></trkpt><trkpt lat="45.5208483" lon="10.4278733"><ele>187.39999999999998</ele><time>2026-03-29T11:22:57.453Z</time></trkpt><trkpt lat="45.52086" lon="10.4280167"><ele>187.2</ele><time>2026-03-29T11:22:58.452Z</time></trkpt><trkpt lat="45.5208767" lon="10.4281683"><ele>187.0</ele><time>2026-03-29T11:22:59.453Z</time></trkpt><trkpt lat="45.5208983" lon="10.4283133"><ele>187.0</ele><time>2026-03-29T11:23:00.453Z</time></trkpt><trkpt lat="45.5209233" lon="10.4284383"><ele>187.0</ele><time>2026-03-29T11:23:01.452Z</time></trkpt><trkpt lat="45.5209533" lon="10.4285633"><ele>187.0</ele><time>2026-03-29T11:23:02.453Z</time></trkpt><trkpt lat="45.52098" lon="10.42868"><ele>187.0</ele><time>2026-03-29T11:23:03.453Z</time></trkpt><trkpt lat="45.52101" lon="10.42878"><ele>187.0</ele><time>2026-03-29T11:23:04.453Z</time></trkpt><trkpt lat="45.5210317" lon="10.4288817"><ele>187.0</ele><time>2026-03-29T11:23:05.453Z</time></trkpt><trkpt lat="45.52106" lon="10.428995"><ele>186.83333333333334</ele><time>2026-03-29T11:23:06.453Z</time></trkpt><trkpt lat="45.5210883" lon="10.4291033"><ele>186.66666666666669</ele><time>2026-03-29T11:23:07.453Z</time></trkpt><trkpt lat="45.521105" lon="10.4292267"><ele>186.5</ele><time>2026-03-29T11:23:08.453Z</time></trkpt><trkpt lat="45.521125" lon="10.4293567"><ele>186.33333333333334</ele><time>2026-03-29T11:23:09.453Z</time></trkpt><trkpt lat="45.5211383" lon="10.4294817"><ele>186.16666666666666</ele><time>2026-03-29T11:23:10.453Z</time></trkpt><trkpt lat="45.5211483" lon="10.4296083"><ele>186.0</ele><time>2026-03-29T11:23:11.453Z</time></trkpt><trkpt lat="45.5211533" lon="10.4297333"><ele>186.0</ele><time>2026-03-29T11:23:12.453Z</time></trkpt><trkpt lat="45.5211633" lon="10.4298783"><ele>186.0</ele><time>2026-03-29T11:23:13.453Z</time></trkpt><trkpt lat="45.5211833" lon="10.43003"><ele>186.0</ele><time>2026-03-29T11:23:14.453Z</time></trkpt><trkpt lat="45.5212033" lon="10.4301817"><ele>186.0</ele><time>2026-03-29T11:23:15.453Z</time></trkpt><trkpt lat="45.5212183" lon="10.4303533"><ele>186.0</ele><time>2026-03-29T11:23:16.453Z</time></trkpt><trkpt lat="45.5212383" lon="10.4305333"><ele>187.66666666666666</ele><time>2026-03-29T11:23:17.453Z</time></trkpt><trkpt lat="45.5212517" lon="10.4307283"><ele>189.33333333333331</ele><time>2026-03-29T11:23:18.453Z</time></trkpt><trkpt lat="45.521265" lon="10.43095"><ele>191.0</ele><time>2026-03-29T11:23:19.453Z</time></trkpt><trkpt lat="45.5212833" lon="10.4312"><ele>191.0</ele><time>2026-03-29T11:23:20.453Z</time></trkpt><trkpt lat="45.5212967" lon="10.43145"><ele>191.0</ele><time>2026-03-29T11:23:21.453Z</time></trkpt><trkpt lat="45.5213183" lon="10.4316667"><ele>191.0</ele><time>2026-03-29T11:23:22.453Z</time></trkpt><trkpt lat="45.52135" lon="10.4318583"><ele>191.0</ele><time>2026-03-29T11:23:23.453Z</time></trkpt><trkpt lat="45.521385" lon="10.4320283"><ele>191.0</ele><time>2026-03-29T11:23:24.453Z</time></trkpt><trkpt lat="45.521415" lon="10.4321617"><ele>191.0</ele><time>2026-03-29T11:23:25.453Z</time></trkpt><trkpt lat="45.521455" lon="10.432285"><ele>191.0</ele><time>2026-03-29T11:23:26.453Z</time></trkpt><trkpt lat="45.5214917" lon="10.4323867"><ele>191.0</ele><time>2026-03-29T11:23:27.453Z</time></trkpt><trkpt lat="45.5215233" lon="10.4324683"><ele>191.4</ele><time>2026-03-29T11:23:28.453Z</time></trkpt><trkpt lat="45.521565" lon="10.4325517"><ele>191.8</ele><time>2026-03-29T11:23:30.453Z</time></trkpt><trkpt lat="45.5216517" lon="10.4325917"><ele>192.20000000000002</ele><time>2026-03-29T11:23:32.453Z</time></trkpt><trkpt lat="45.5217417" lon="10.432605"><ele>192.60000000000002</ele><time>2026-03-29T11:23:33.453Z</time></trkpt><trkpt lat="45.5218783" lon="10.4325933"><ele>193.0</ele><time>2026-03-29T11:23:34.453Z</time></trkpt><trkpt lat="45.5220467" lon="10.432585"><ele>194.33333333333331</ele><time>2026-03-29T11:23:35.453Z</time></trkpt><trkpt lat="45.52225" lon="10.4325967"><ele>195.66666666666669</ele><time>2026-03-29T11:23:36.453Z</time></trkpt><trkpt lat="45.5224717" lon="10.43261"><ele>197.0</ele><time>2026-03-29T11:23:37.453Z</time></trkpt><trkpt lat="45.5226883" lon="10.43264"><ele>197.0</ele><time>2026-03-29T11:23:38.453Z</time></trkpt><trkpt lat="45.5228967" lon="10.4326767"><ele>197.0</ele><time>2026-03-29T11:23:39.453Z</time></trkpt><trkpt lat="45.5230833" lon="10.432715"><ele>197.0</ele><time>2026-03-29T11:23:40.453Z</time></trkpt><trkpt lat="45.523245" lon="10.4327583"><ele>197.75</ele><time>2026-03-29T11:23:41.452Z</time></trkpt><trkpt lat="45.5233867" lon="10.4328033"><ele>198.5</ele><time>2026-03-29T11:23:42.452Z</time></trkpt><trkpt lat="45.523525" lon="10.4328467"><ele>199.25</ele><time>2026-03-29T11:23:43.453Z</time></trkpt><trkpt lat="45.5236717" lon="10.4329133"><ele>200.0</ele><time>2026-03-29T11:23:44.453Z</time></trkpt><trkpt lat="45.5238167" lon="10.433005"><ele>201.66666666666669</ele><time>2026-03-29T11:23:45.453Z</time></trkpt><trkpt lat="45.52397" lon="10.4331233"><ele>203.33333333333331</ele><time>2026-03-29T11:23:46.452Z</time></trkpt><trkpt lat="45.52412" lon="10.4332833"><ele>205.0</ele><time>2026-03-29T11:23:47.453Z</time></trkpt><trkpt lat="45.5242683" lon="10.43346"><ele>205.0</ele><time>2026-03-29T11:23:48.453Z</time></trkpt><trkpt lat="45.5244217" lon="10.4336333"><ele>205.0</ele><time>2026-03-29T11:23:49.453Z</time></trkpt><trkpt lat="45.52457" lon="10.4338083"><ele>205.0</ele><time>2026-03-29T11:23:50.452Z</time></trkpt><trkpt lat="45.5247233" lon="10.4339867"><ele>205.33333333333331</ele><time>2026-03-29T11:23:51.453Z</time></trkpt><trkpt lat="45.52488" lon="10.43417"><ele>205.66666666666669</ele><time>2026-03-29T11:23:52.453Z</time></trkpt><trkpt lat="45.5250433" lon="10.4343767"><ele>206.0</ele><time>2026-03-29T11:23:53.452Z</time></trkpt><trkpt lat="45.5252333" lon="10.43459"><ele>206.5</ele><time>2026-03-29T11:23:54.453Z</time></trkpt><trkpt lat="45.525435" lon="10.43482"><ele>207.0</ele><time>2026-03-29T11:23:55.453Z</time></trkpt><trkpt lat="45.5256467" lon="10.435065"><ele>207.0</ele><time>2026-03-29T11:23:56.453Z</time></trkpt><trkpt lat="45.5258467" lon="10.435315"><ele>207.0</ele><time>2026-03-29T11:23:57.453Z</time></trkpt><trkpt lat="45.5260367" lon="10.4355733"><ele>207.0</ele><time>2026-03-29T11:23:58.453Z</time></trkpt><trkpt lat="45.526205" lon="10.43582"><ele>207.0</ele><time>2026-03-29T11:23:59.452Z</time></trkpt><trkpt lat="45.5263667" lon="10.43608"><ele>210.0</ele><time>2026-03-29T11:24:00.453Z</time></trkpt><trkpt lat="45.526505" lon="10.4363533"><ele>213.0</ele><time>2026-03-29T11:24:01.453Z</time></trkpt><trkpt lat="45.5266317" lon="10.436625"><ele>213.0</ele><time>2026-03-29T11:24:02.453Z</time></trkpt><trkpt lat="45.5267533" lon="10.4368667"><ele>213.0</ele><time>2026-03-29T11:24:03.453Z</time></trkpt><trkpt lat="45.526885" lon="10.4370867"><ele>213.0</ele><time>2026-03-29T11:24:04.453Z</time></trkpt><trkpt lat="45.52703" lon="10.4372917"><ele>213.33333333333331</ele><time>2026-03-29T11:24:05.452Z</time></trkpt><trkpt lat="45.5272083" lon="10.437485"><ele>213.66666666666666</ele><time>2026-03-29T11:24:06.453Z</time></trkpt><trkpt lat="45.527385" lon="10.4376617"><ele>214.0</ele><time>2026-03-29T11:24:07.453Z</time></trkpt><trkpt lat="45.52756" lon="10.4378167"><ele>214.0</ele><time>2026-03-29T11:24:08.453Z</time></trkpt><trkpt lat="45.5277217" lon="10.4379683"><ele>214.0</ele><time>2026-03-29T11:24:09.453Z</time></trkpt><trkpt lat="45.5278683" lon="10.4381233"><ele>214.0</ele><time>2026-03-29T11:24:10.453Z</time></trkpt><trkpt lat="45.527995" lon="10.4383"><ele>214.33333333333331</ele><time>2026-03-29T11:24:11.453Z</time></trkpt><trkpt lat="45.5281367" lon="10.438505"><ele>214.66666666666669</ele><time>2026-03-29T11:24:12.453Z</time></trkpt><trkpt lat="45.5282467" lon="10.4387383"><ele>215.0</ele><time>2026-03-29T11:24:13.453Z</time></trkpt><trkpt lat="45.5283367" lon="10.4389817"><ele>216.0</ele><time>2026-03-29T11:24:14.453Z</time></trkpt><trkpt lat="45.5284233" lon="10.4392333"><ele>217.0</ele><time>2026-03-29T11:24:15.453Z</time></trkpt><trkpt lat="45.5285083" lon="10.4394883"><ele>218.0</ele><time>2026-03-29T11:24:16.453Z</time></trkpt><trkpt lat="45.5285933" lon="10.43973"><ele>218.25</ele><time>2026-03-29T11:24:17.453Z</time></trkpt><trkpt lat="45.5286783" lon="10.4399633"><ele>218.5</ele><time>2026-03-29T11:24:18.453Z</time></trkpt><trkpt lat="45.5287467" lon="10.4401617"><ele>218.75</ele><time>2026-03-29T11:24:19.453Z</time></trkpt><trkpt lat="45.5287867" lon="10.4402817"><ele>219.0</ele><time>2026-03-29T11:24:20.453Z</time></trkpt><trkpt lat="45.528835" lon="10.4404067"><ele>219.0</ele><time>2026-03-29T11:24:22.453Z</time></trkpt><trkpt lat="45.5288133" lon="10.4403017"><ele>219.0</ele><time>2026-03-29T11:24:33.452Z</time></trkpt><trkpt lat="45.5287167" lon="10.44028"><ele>219.0</ele><time>2026-03-29T11:24:35.453Z</time></trkpt><trkpt lat="45.5286667" lon="10.440345"><ele>219.0</ele><time>2026-03-29T11:24:37.453Z</time></trkpt><trkpt lat="45.528645" lon="10.44048"><ele>219.0</ele><time>2026-03-29T11:24:39.453Z</time></trkpt><trkpt lat="45.5286267" lon="10.4405717"><ele>219.0</ele><time>2026-03-29T11:24:40.453Z</time></trkpt><trkpt lat="45.5286083" lon="10.4406767"><ele>219.0</ele><time>2026-03-29T11:24:41.453Z</time></trkpt><trkpt lat="45.5285883" lon="10.4408"><ele>218.99999999999997</ele><time>2026-03-29T11:24:42.453Z</time></trkpt><trkpt lat="45.528565" lon="10.4409367"><ele>218.99999999999997</ele><time>2026-03-29T11:24:43.453Z</time></trkpt><trkpt lat="45.5285317" lon="10.44107"><ele>219.0</ele><time>2026-03-29T11:24:44.453Z</time></trkpt><trkpt lat="45.528485" lon="10.441205"><ele>219.0</ele><time>2026-03-29T11:24:45.453Z</time></trkpt><trkpt lat="45.5284367" lon="10.4413233"><ele>219.0</ele><time>2026-03-29T11:24:46.453Z</time></trkpt><trkpt lat="45.5283883" lon="10.4414333"><ele>219.0</ele><time>2026-03-29T11:24:47.453Z</time></trkpt><trkpt lat="45.5283417" lon="10.44154"><ele>219.0</ele><time>2026-03-29T11:24:48.453Z</time></trkpt><trkpt lat="45.5283017" lon="10.4416333"><ele>219.0</ele><time>2026-03-29T11:24:49.453Z</time></trkpt><trkpt lat="45.5282683" lon="10.441715"><ele>219.0</ele><time>2026-03-29T11:24:50.453Z</time></trkpt><trkpt lat="45.5281983" lon="10.4418167"><ele>219.0</ele><time>2026-03-29T11:24:52.453Z</time></trkpt><trkpt lat="45.5280883" lon="10.4418283"><ele>219.0</ele><time>2026-03-29T11:24:54.453Z</time></trkpt><trkpt lat="45.5279967" lon="10.4418033"><ele>218.99999999999997</ele><time>2026-03-29T11:24:55.453Z</time></trkpt><trkpt lat="45.52789" lon="10.4417583"><ele>218.99999999999997</ele><time>2026-03-29T11:24:56.453Z</time></trkpt><trkpt lat="45.527785" lon="10.4417067"><ele>219.0</ele><time>2026-03-29T11:24:57.453Z</time></trkpt><trkpt lat="45.5276983" lon="10.4416567"><ele>219.0</ele><time>2026-03-29T11:24:58.453Z</time></trkpt><trkpt lat="45.5276267" lon="10.4416217"><ele>218.25</ele><time>2026-03-29T11:24:59.453Z</time></trkpt><trkpt lat="45.5275033" lon="10.4416133"><ele>217.5</ele><time>2026-03-29T11:25:01.453Z</time></trkpt><trkpt lat="45.5273817" lon="10.4416567"><ele>216.75</ele><time>2026-03-29T11:25:03.453Z</time></trkpt><trkpt lat="45.5272583" lon="10.441715"><ele>216.0</ele><time>2026-03-29T11:25:05.453Z</time></trkpt><trkpt lat="45.5271883" lon="10.4417433"><ele>216.0</ele><time>2026-03-29T11:25:06.453Z</time></trkpt><trkpt lat="45.527105" lon="10.441765"><ele>216.00000000000003</ele><time>2026-03-29T11:25:07.453Z</time></trkpt><trkpt lat="45.5270167" lon="10.44179"><ele>216.00000000000003</ele><time>2026-03-29T11:25:08.453Z</time></trkpt><trkpt lat="45.526925" lon="10.441805"><ele>216.0</ele><time>2026-03-29T11:25:09.453Z</time></trkpt><trkpt lat="45.52682" lon="10.441825"><ele>216.0</ele><time>2026-03-29T11:25:10.453Z</time></trkpt><trkpt lat="45.5267017" lon="10.441835"><ele>215.0</ele><time>2026-03-29T11:25:11.453Z</time></trkpt><trkpt lat="45.52658" lon="10.4418567"><ele>214.00000000000003</ele><time>2026-03-29T11:25:12.452Z</time></trkpt><trkpt lat="45.526475" lon="10.441875"><ele>213.0</ele><time>2026-03-29T11:25:13.453Z</time></trkpt><trkpt lat="45.5263817" lon="10.4418983"><ele>212.0</ele><time>2026-03-29T11:25:14.453Z</time></trkpt><trkpt lat="45.52629" lon="10.4419183"><ele>211.0</ele><time>2026-03-29T11:25:15.453Z</time></trkpt><trkpt lat="45.52619" lon="10.4419433"><ele>209.25</ele><time>2026-03-29T11:25:16.453Z</time></trkpt><trkpt lat="45.5260867" lon="10.4419783"><ele>207.5</ele><time>2026-03-29T11:25:17.453Z</time></trkpt><trkpt lat="45.5259717" lon="10.44202"><ele>205.75</ele><time>2026-03-29T11:25:18.453Z</time></trkpt><trkpt lat="45.5258617" lon="10.4420667"><ele>204.0</ele><time>2026-03-29T11:25:19.453Z</time></trkpt><trkpt lat="45.525755" lon="10.4421117"><ele>203.39999999999998</ele><time>2026-03-29T11:25:20.453Z</time></trkpt><trkpt lat="45.5256583" lon="10.44218"><ele>202.8</ele><time>2026-03-29T11:25:21.453Z</time></trkpt><trkpt lat="45.52557" lon="10.442245"><ele>202.2</ele><time>2026-03-29T11:25:22.452Z</time></trkpt><trkpt lat="45.5254983" lon="10.4422967"><ele>201.60000000000002</ele><time>2026-03-29T11:25:23.453Z</time></trkpt><trkpt lat="45.52542" lon="10.4423533"><ele>201.0</ele><time>2026-03-29T11:25:24.453Z</time></trkpt><trkpt lat="45.5253383" lon="10.4424183"><ele>200.25</ele><time>2026-03-29T11:25:25.453Z</time></trkpt><trkpt lat="45.5252383" lon="10.442495"><ele>199.5</ele><time>2026-03-29T11:25:26.453Z</time></trkpt><trkpt lat="45.525125" lon="10.4425667"><ele>198.75</ele><time>2026-03-29T11:25:27.452Z</time></trkpt><trkpt lat="45.5250067" lon="10.442625"><ele>198.0</ele><time>2026-03-29T11:25:28.453Z</time></trkpt><trkpt lat="45.524895" lon="10.4426867"><ele>198.0</ele><time>2026-03-29T11:25:29.453Z</time></trkpt><trkpt lat="45.5247767" lon="10.442745"><ele>198.0</ele><time>2026-03-29T11:25:30.453Z</time></trkpt><trkpt lat="45.524665" lon="10.4428017"><ele>198.0</ele><time>2026-03-29T11:25:31.453Z</time></trkpt><trkpt lat="45.5245583" lon="10.44286"><ele>198.0</ele><time>2026-03-29T11:25:32.452Z</time></trkpt><trkpt lat="45.52446" lon="10.44291"><ele>198.0</ele><time>2026-03-29T11:25:33.453Z</time></trkpt><trkpt lat="45.5243517" lon="10.4429617"><ele>198.0</ele><time>2026-03-29T11:25:34.453Z</time></trkpt><trkpt lat="45.5242517" lon="10.44302"><ele>198.0</ele><time>2026-03-29T11:25:35.453Z</time></trkpt><trkpt lat="45.5241667" lon="10.443075"><ele>198.0</ele><time>2026-03-29T11:25:36.453Z</time></trkpt><trkpt lat="45.5240883" lon="10.44312"><ele>198.0</ele><time>2026-03-29T11:25:37.453Z</time></trkpt><trkpt lat="45.524" lon="10.44317"><ele>198.0</ele><time>2026-03-29T11:25:38.453Z</time></trkpt><trkpt lat="45.5239117" lon="10.4431967"><ele>198.0</ele><time>2026-03-29T11:25:39.453Z</time></trkpt><trkpt lat="45.523825" lon="10.4432"><ele>198.0</ele><time>2026-03-29T11:25:40.452Z</time></trkpt><trkpt lat="45.5237333" lon="10.4431933"><ele>198.0</ele><time>2026-03-29T11:25:41.452Z</time></trkpt><trkpt lat="45.5236383" lon="10.4431667"><ele>198.0</ele><time>2026-03-29T11:25:42.452Z</time></trkpt><trkpt lat="45.5235467" lon="10.4431317"><ele>198.60000000000002</ele><time>2026-03-29T11:25:43.452Z</time></trkpt><trkpt lat="45.523455" lon="10.4431017"><ele>199.20000000000002</ele><time>2026-03-29T11:25:44.452Z</time></trkpt><trkpt lat="45.523365" lon="10.443075"><ele>199.8</ele><time>2026-03-29T11:25:45.452Z</time></trkpt><trkpt lat="45.5232667" lon="10.4430633"><ele>200.4</ele><time>2026-03-29T11:25:46.452Z</time></trkpt><trkpt lat="45.523165" lon="10.4430433"><ele>201.0</ele><time>2026-03-29T11:25:47.452Z</time></trkpt><trkpt lat="45.52306" lon="10.4430417"><ele>201.0</ele><time>2026-03-29T11:25:48.452Z</time></trkpt><trkpt lat="45.5229633" lon="10.4430517"><ele>201.0</ele><time>2026-03-29T11:25:49.452Z</time></trkpt><trkpt lat="45.522875" lon="10.4430683"><ele>201.0</ele><time>2026-03-29T11:25:50.452Z</time></trkpt><trkpt lat="45.5227767" lon="10.4431"><ele>201.0</ele><time>2026-03-29T11:25:51.452Z</time></trkpt><trkpt lat="45.5226783" lon="10.443135"><ele>201.0</ele><time>2026-03-29T11:25:52.452Z</time></trkpt><trkpt lat="45.5225817" lon="10.44318"><ele>201.0</ele><time>2026-03-29T11:25:53.452Z</time></trkpt><trkpt lat="45.5224833" lon="10.4432317"><ele>201.0</ele><time>2026-03-29T11:25:54.452Z</time></trkpt><trkpt lat="45.5223767" lon="10.4433"><ele>201.0</ele><time>2026-03-29T11:25:55.452Z</time></trkpt><trkpt lat="45.522285" lon="10.4433633"><ele>201.0</ele><time>2026-03-29T11:25:56.452Z</time></trkpt><trkpt lat="45.522195" lon="10.4434217"><ele>201.0</ele><time>2026-03-29T11:25:57.452Z</time></trkpt><trkpt lat="45.52211" lon="10.4434783"><ele>201.20000000000002</ele><time>2026-03-29T11:25:58.452Z</time></trkpt><trkpt lat="45.5220217" lon="10.4435383"><ele>201.4</ele><time>2026-03-29T11:25:59.452Z</time></trkpt><trkpt lat="45.521935" lon="10.4435967"><ele>201.6</ele><time>2026-03-29T11:26:00.452Z</time></trkpt><trkpt lat="45.5218467" lon="10.443655"><ele>201.8</ele><time>2026-03-29T11:26:01.452Z</time></trkpt><trkpt lat="45.52176" lon="10.4437033"><ele>202.0</ele><time>2026-03-29T11:26:02.452Z</time></trkpt><trkpt lat="45.5216883" lon="10.4437383"><ele>202.0</ele><time>2026-03-29T11:26:03.452Z</time></trkpt><trkpt lat="45.5215917" lon="10.4437817"><ele>202.0</ele><time>2026-03-29T11:26:04.452Z</time></trkpt><trkpt lat="45.5214933" lon="10.4438"><ele>202.0</ele><time>2026-03-29T11:26:05.452Z</time></trkpt><trkpt lat="45.52139" lon="10.4438317"><ele>202.0</ele><time>2026-03-29T11:26:06.452Z</time></trkpt><trkpt lat="45.521295" lon="10.44387"><ele>202.0</ele><time>2026-03-29T11:26:07.452Z</time></trkpt><trkpt lat="45.5212083" lon="10.4439"><ele>201.16666666666666</ele><time>2026-03-29T11:26:08.452Z</time></trkpt><trkpt lat="45.5211233" lon="10.4439233"><ele>200.33333333333331</ele><time>2026-03-29T11:26:09.452Z</time></trkpt><trkpt lat="45.5210533" lon="10.44393"><ele>199.5</ele><time>2026-03-29T11:26:10.452Z</time></trkpt><trkpt lat="45.520985" lon="10.4439267"><ele>198.66666666666669</ele><time>2026-03-29T11:26:11.451Z</time></trkpt><trkpt lat="45.5209117" lon="10.4439183"><ele>197.83333333333334</ele><time>2026-03-29T11:26:12.451Z</time></trkpt><trkpt lat="45.52081" lon="10.4438867"><ele>197.0</ele><time>2026-03-29T11:26:13.452Z</time></trkpt><trkpt lat="45.5206617" lon="10.443835"><ele>197.0</ele><time>2026-03-29T11:26:14.452Z</time></trkpt><trkpt lat="45.520475" lon="10.4437883"><ele>197.0</ele><time>2026-03-29T11:26:15.452Z</time></trkpt><trkpt lat="45.52028" lon="10.443745"><ele>197.0</ele><time>2026-03-29T11:26:16.452Z</time></trkpt><trkpt lat="45.5200817" lon="10.443695"><ele>196.0</ele><time>2026-03-29T11:26:17.452Z</time></trkpt><trkpt lat="45.5198817" lon="10.4436317"><ele>195.0</ele><time>2026-03-29T11:26:18.451Z</time></trkpt><trkpt lat="45.5196967" lon="10.4435617"><ele>194.0</ele><time>2026-03-29T11:26:19.451Z</time></trkpt><trkpt lat="45.519525" lon="10.4434883"><ele>193.66666666666669</ele><time>2026-03-29T11:26:20.452Z</time></trkpt><trkpt lat="45.519365" lon="10.4434217"><ele>193.33333333333331</ele><time>2026-03-29T11:26:21.452Z</time></trkpt><trkpt lat="45.5191983" lon="10.44335"><ele>193.0</ele><time>2026-03-29T11:26:22.452Z</time></trkpt><trkpt lat="45.51905" lon="10.4433383"><ele>193.0</ele><time>2026-03-29T11:26:23.451Z</time></trkpt><trkpt lat="45.51889" lon="10.4433467"><ele>193.0</ele><time>2026-03-29T11:26:24.452Z</time></trkpt><trkpt lat="45.5187267" lon="10.4433683"><ele>193.0</ele><time>2026-03-29T11:26:25.451Z</time></trkpt><trkpt lat="45.5185717" lon="10.4433917"><ele>192.25</ele><time>2026-03-29T11:26:26.452Z</time></trkpt><trkpt lat="45.5184183" lon="10.4433967"><ele>191.5</ele><time>2026-03-29T11:26:27.452Z</time></trkpt><trkpt lat="45.5182983" lon="10.4433767"><ele>190.75</ele><time>2026-03-29T11:26:28.451Z</time></trkpt><trkpt lat="45.51821" lon="10.4433583"><ele>190.0</ele><time>2026-03-29T11:26:29.452Z</time></trkpt><trkpt lat="45.5181133" lon="10.4433217"><ele>190.0</ele><time>2026-03-29T11:26:30.452Z</time></trkpt><trkpt lat="45.5179983" lon="10.443285"><ele>190.0</ele><time>2026-03-29T11:26:31.452Z</time></trkpt><trkpt lat="45.51787" lon="10.4432633"><ele>190.0</ele><time>2026-03-29T11:26:32.452Z</time></trkpt><trkpt lat="45.517735" lon="10.44322"><ele>190.0</ele><time>2026-03-29T11:26:33.451Z</time></trkpt><trkpt lat="45.5175983" lon="10.443175"><ele>189.25</ele><time>2026-03-29T11:26:34.452Z</time></trkpt><trkpt lat="45.5174717" lon="10.4431267"><ele>188.5</ele><time>2026-03-29T11:26:35.452Z</time></trkpt><trkpt lat="45.5173383" lon="10.4430817"><ele>187.75</ele><time>2026-03-29T11:26:36.452Z</time></trkpt><trkpt lat="45.5172033" lon="10.4430233"><ele>187.0</ele><time>2026-03-29T11:26:37.452Z</time></trkpt><trkpt lat="45.5170533" lon="10.44296"><ele>184.0</ele><time>2026-03-29T11:26:38.452Z</time></trkpt><trkpt lat="45.5168983" lon="10.442895"><ele>184.0</ele><time>2026-03-29T11:26:39.452Z</time></trkpt></trkseg></trk></gpx>